<?xml version="1.0" encoding="UTF-8" standalone="no" ?>
<gpx xmlns="http://www.topografix.com/GPX/1/1" xmlns:xsi="http://www.w3.org/2001/XMLSchema-instance" xsi:schemaLocation="http://www.topografix.com/GPX/1/1 http://www.topografix.com/GPX/1/1/gpx.xsd" version="1.1" creator="VisuGPX - https://www.visugpx.com">
  <metadata>
    <name>Aveyron</name>
    <desc><![CDATA[9 jours de vélo dans l'Aveyron (et un peu du Lot)]]></desc>
  </metadata>
  <trk>
    <name><![CDATA[j1]]></name>
    <desc><![CDATA[comment ...]]></desc>
    <extensions>
      <line xmlns="http://www.topografix.com/GPX/gpx_style/0/2">
        <color>0000FF</color>
        <width>4</width>
      </line>
    </extensions>
    <trkseg>
      <trkpt lat="44.34024" lon="2.96922">
        <ele>672</ele>
        <time>2021-08-27T07:32:08Z</time>
      </trkpt>
      <trkpt lat="44.34024" lon="2.96922">
        <ele>672</ele>
        <time>2021-08-27T07:32:09Z</time>
      </trkpt>
      <trkpt lat="44.34027" lon="2.96928">
        <ele>670</ele>
        <time>2021-08-27T07:32:23Z</time>
      </trkpt>
      <trkpt lat="44.34038" lon="2.96933">
        <ele>659</ele>
        <time>2021-08-27T07:32:27Z</time>
      </trkpt>
      <trkpt lat="44.34043" lon="2.96937">
        <ele>655</ele>
        <time>2021-08-27T07:32:29Z</time>
      </trkpt>
      <trkpt lat="44.34063" lon="2.96941">
        <ele>653</ele>
        <time>2021-08-27T07:32:37Z</time>
      </trkpt>
      <trkpt lat="44.34068" lon="2.96936">
        <ele>653</ele>
        <time>2021-08-27T07:32:39Z</time>
      </trkpt>
      <trkpt lat="44.34074" lon="2.96935">
        <ele>652</ele>
        <time>2021-08-27T07:32:40Z</time>
      </trkpt>
      <trkpt lat="44.34087" lon="2.96931">
        <ele>651</ele>
        <time>2021-08-27T07:32:43Z</time>
      </trkpt>
      <trkpt lat="44.34094" lon="2.96927">
        <ele>650</ele>
        <time>2021-08-27T07:32:45Z</time>
      </trkpt>
      <trkpt lat="44.34099" lon="2.96922">
        <ele>650</ele>
        <time>2021-08-27T07:32:48Z</time>
      </trkpt>
      <trkpt lat="44.34123" lon="2.96905">
        <ele>648</ele>
        <time>2021-08-27T07:32:54Z</time>
      </trkpt>
      <trkpt lat="44.34131" lon="2.96895">
        <ele>645</ele>
        <time>2021-08-27T07:32:59Z</time>
      </trkpt>
      <trkpt lat="44.34135" lon="2.96895">
        <ele>643</ele>
        <time>2021-08-27T07:33:54Z</time>
      </trkpt>
      <trkpt lat="44.34138" lon="2.9689">
        <ele>644</ele>
        <time>2021-08-27T07:34:15Z</time>
      </trkpt>
      <trkpt lat="44.34134" lon="2.96882">
        <ele>644</ele>
        <time>2021-08-27T07:34:18Z</time>
      </trkpt>
      <trkpt lat="44.34135" lon="2.96876">
        <ele>646</ele>
        <time>2021-08-27T07:34:20Z</time>
      </trkpt>
      <trkpt lat="44.34183" lon="2.96785">
        <ele>646</ele>
        <time>2021-08-27T07:34:48Z</time>
      </trkpt>
      <trkpt lat="44.34188" lon="2.96779">
        <ele>646</ele>
        <time>2021-08-27T07:34:50Z</time>
      </trkpt>
      <trkpt lat="44.34223" lon="2.96769">
        <ele>644</ele>
        <time>2021-08-27T07:35:02Z</time>
      </trkpt>
      <trkpt lat="44.34294" lon="2.9683">
        <ele>653</ele>
        <time>2021-08-27T07:35:33Z</time>
      </trkpt>
      <trkpt lat="44.34339" lon="2.9692">
        <ele>653</ele>
        <time>2021-08-27T07:36:04Z</time>
      </trkpt>
      <trkpt lat="44.34413" lon="2.96987">
        <ele>654</ele>
        <time>2021-08-27T07:36:36Z</time>
      </trkpt>
      <trkpt lat="44.34455" lon="2.97012">
        <ele>656</ele>
        <time>2021-08-27T07:36:52Z</time>
      </trkpt>
      <trkpt lat="44.34503" lon="2.96979">
        <ele>657</ele>
        <time>2021-08-27T07:37:08Z</time>
      </trkpt>
      <trkpt lat="44.3451" lon="2.96976">
        <ele>656</ele>
        <time>2021-08-27T07:37:10Z</time>
      </trkpt>
      <trkpt lat="44.34528" lon="2.96978">
        <ele>656</ele>
        <time>2021-08-27T07:37:14Z</time>
      </trkpt>
      <trkpt lat="44.34617" lon="2.97033">
        <ele>657</ele>
        <time>2021-08-27T07:37:36Z</time>
      </trkpt>
      <trkpt lat="44.34682" lon="2.97049">
        <ele>656</ele>
        <time>2021-08-27T07:37:50Z</time>
      </trkpt>
      <trkpt lat="44.34701" lon="2.97051">
        <ele>656</ele>
        <time>2021-08-27T07:37:54Z</time>
      </trkpt>
      <trkpt lat="44.3471" lon="2.97055">
        <ele>655</ele>
        <time>2021-08-27T07:37:56Z</time>
      </trkpt>
      <trkpt lat="44.34774" lon="2.97106">
        <ele>655</ele>
        <time>2021-08-27T07:38:11Z</time>
      </trkpt>
      <trkpt lat="44.34876" lon="2.97111">
        <ele>654</ele>
        <time>2021-08-27T07:38:36Z</time>
      </trkpt>
      <trkpt lat="44.34905" lon="2.97131">
        <ele>653</ele>
        <time>2021-08-27T07:38:41Z</time>
      </trkpt>
      <trkpt lat="44.34965" lon="2.9718">
        <ele>650</ele>
        <time>2021-08-27T07:38:51Z</time>
      </trkpt>
      <trkpt lat="44.34985" lon="2.97185">
        <ele>649</ele>
        <time>2021-08-27T07:38:54Z</time>
      </trkpt>
      <trkpt lat="44.35" lon="2.97183">
        <ele>649</ele>
        <time>2021-08-27T07:38:56Z</time>
      </trkpt>
      <trkpt lat="44.35057" lon="2.9716">
        <ele>647</ele>
        <time>2021-08-27T07:39:06Z</time>
      </trkpt>
      <trkpt lat="44.35069" lon="2.97163">
        <ele>647</ele>
        <time>2021-08-27T07:39:10Z</time>
      </trkpt>
      <trkpt lat="44.35075" lon="2.97167">
        <ele>646</ele>
        <time>2021-08-27T07:39:12Z</time>
      </trkpt>
      <trkpt lat="44.35082" lon="2.97169">
        <ele>646</ele>
        <time>2021-08-27T07:39:14Z</time>
      </trkpt>
      <trkpt lat="44.351" lon="2.97161">
        <ele>645</ele>
        <time>2021-08-27T07:39:18Z</time>
      </trkpt>
      <trkpt lat="44.35109" lon="2.9716">
        <ele>645</ele>
        <time>2021-08-27T07:39:20Z</time>
      </trkpt>
      <trkpt lat="44.35167" lon="2.97181">
        <ele>644</ele>
        <time>2021-08-27T07:39:33Z</time>
      </trkpt>
      <trkpt lat="44.35188" lon="2.97197">
        <ele>644</ele>
        <time>2021-08-27T07:39:38Z</time>
      </trkpt>
      <trkpt lat="44.3521" lon="2.97229">
        <ele>643</ele>
        <time>2021-08-27T07:39:44Z</time>
      </trkpt>
      <trkpt lat="44.35261" lon="2.97328">
        <ele>641</ele>
        <time>2021-08-27T07:39:57Z</time>
      </trkpt>
      <trkpt lat="44.35266" lon="2.97334">
        <ele>641</ele>
        <time>2021-08-27T07:39:58Z</time>
      </trkpt>
      <trkpt lat="44.35286" lon="2.97343">
        <ele>640</ele>
        <time>2021-08-27T07:40:01Z</time>
      </trkpt>
      <trkpt lat="44.35299" lon="2.97345">
        <ele>639</ele>
        <time>2021-08-27T07:40:03Z</time>
      </trkpt>
      <trkpt lat="44.35313" lon="2.97342">
        <ele>638</ele>
        <time>2021-08-27T07:40:05Z</time>
      </trkpt>
      <trkpt lat="44.35328" lon="2.97334">
        <ele>637</ele>
        <time>2021-08-27T07:40:07Z</time>
      </trkpt>
      <trkpt lat="44.3547" lon="2.97118">
        <ele>624</ele>
        <time>2021-08-27T07:40:31Z</time>
      </trkpt>
      <trkpt lat="44.35477" lon="2.97113">
        <ele>624</ele>
        <time>2021-08-27T07:40:32Z</time>
      </trkpt>
      <trkpt lat="44.35514" lon="2.97104">
        <ele>621</ele>
        <time>2021-08-27T07:40:38Z</time>
      </trkpt>
      <trkpt lat="44.35548" lon="2.9708">
        <ele>620</ele>
        <time>2021-08-27T07:40:45Z</time>
      </trkpt>
      <trkpt lat="44.35586" lon="2.97023">
        <ele>621</ele>
        <time>2021-08-27T07:40:59Z</time>
      </trkpt>
      <trkpt lat="44.35607" lon="2.97003">
        <ele>623</ele>
        <time>2021-08-27T07:41:07Z</time>
      </trkpt>
      <trkpt lat="44.35653" lon="2.96979">
        <ele>626</ele>
        <time>2021-08-27T07:41:23Z</time>
      </trkpt>
      <trkpt lat="44.35671" lon="2.96952">
        <ele>628</ele>
        <time>2021-08-27T07:41:33Z</time>
      </trkpt>
      <trkpt lat="44.35708" lon="2.96888">
        <ele>637</ele>
        <time>2021-08-27T07:42:00Z</time>
      </trkpt>
      <trkpt lat="44.35729" lon="2.96858">
        <ele>639</ele>
        <time>2021-08-27T07:42:15Z</time>
      </trkpt>
      <trkpt lat="44.35767" lon="2.96775">
        <ele>642</ele>
        <time>2021-08-27T07:42:47Z</time>
      </trkpt>
      <trkpt lat="44.35807" lon="2.96689">
        <ele>649</ele>
        <time>2021-08-27T07:43:20Z</time>
      </trkpt>
      <trkpt lat="44.35826" lon="2.96652">
        <ele>651</ele>
        <time>2021-08-27T07:43:35Z</time>
      </trkpt>
      <trkpt lat="44.35847" lon="2.96625">
        <ele>653</ele>
        <time>2021-08-27T07:43:48Z</time>
      </trkpt>
      <trkpt lat="44.35904" lon="2.96586">
        <ele>658</ele>
        <time>2021-08-27T07:44:16Z</time>
      </trkpt>
      <trkpt lat="44.3591" lon="2.96582">
        <ele>659</ele>
        <time>2021-08-27T07:44:19Z</time>
      </trkpt>
      <trkpt lat="44.35916" lon="2.96578">
        <ele>659</ele>
        <time>2021-08-27T07:44:22Z</time>
      </trkpt>
      <trkpt lat="44.3595" lon="2.96566">
        <ele>661</ele>
        <time>2021-08-27T07:44:37Z</time>
      </trkpt>
      <trkpt lat="44.35995" lon="2.96572">
        <ele>665</ele>
        <time>2021-08-27T07:44:56Z</time>
      </trkpt>
      <trkpt lat="44.36065" lon="2.96592">
        <ele>668</ele>
        <time>2021-08-27T07:45:26Z</time>
      </trkpt>
      <trkpt lat="44.36077" lon="2.96602">
        <ele>669</ele>
        <time>2021-08-27T07:45:32Z</time>
      </trkpt>
      <trkpt lat="44.36093" lon="2.9662">
        <ele>670</ele>
        <time>2021-08-27T07:45:41Z</time>
      </trkpt>
      <trkpt lat="44.36111" lon="2.96666">
        <ele>673</ele>
        <time>2021-08-27T07:45:58Z</time>
      </trkpt>
      <trkpt lat="44.36133" lon="2.96715">
        <ele>675</ele>
        <time>2021-08-27T07:46:16Z</time>
      </trkpt>
      <trkpt lat="44.36182" lon="2.96792">
        <ele>680</ele>
        <time>2021-08-27T07:46:47Z</time>
      </trkpt>
      <trkpt lat="44.36223" lon="2.96842">
        <ele>684</ele>
        <time>2021-08-27T07:47:11Z</time>
      </trkpt>
      <trkpt lat="44.36254" lon="2.96865">
        <ele>686</ele>
        <time>2021-08-27T07:47:25Z</time>
      </trkpt>
      <trkpt lat="44.36303" lon="2.96887">
        <ele>690</ele>
        <time>2021-08-27T07:47:49Z</time>
      </trkpt>
      <trkpt lat="44.36322" lon="2.96891">
        <ele>691</ele>
        <time>2021-08-27T07:47:58Z</time>
      </trkpt>
      <trkpt lat="44.36351" lon="2.96902">
        <ele>693</ele>
        <time>2021-08-27T07:48:13Z</time>
      </trkpt>
      <trkpt lat="44.36364" lon="2.96918">
        <ele>695</ele>
        <time>2021-08-27T07:48:21Z</time>
      </trkpt>
      <trkpt lat="44.36369" lon="2.96933">
        <ele>696</ele>
        <time>2021-08-27T07:48:27Z</time>
      </trkpt>
      <trkpt lat="44.36373" lon="2.9695">
        <ele>697</ele>
        <time>2021-08-27T07:48:33Z</time>
      </trkpt>
      <trkpt lat="44.36373" lon="2.96975">
        <ele>699</ele>
        <time>2021-08-27T07:48:42Z</time>
      </trkpt>
      <trkpt lat="44.36369" lon="2.97034">
        <ele>704</ele>
        <time>2021-08-27T07:49:03Z</time>
      </trkpt>
      <trkpt lat="44.36369" lon="2.97076">
        <ele>708</ele>
        <time>2021-08-27T07:49:17Z</time>
      </trkpt>
      <trkpt lat="44.36383" lon="2.97131">
        <ele>710</ele>
        <time>2021-08-27T07:49:38Z</time>
      </trkpt>
      <trkpt lat="44.3642" lon="2.97201">
        <ele>714</ele>
        <time>2021-08-27T07:50:08Z</time>
      </trkpt>
      <trkpt lat="44.36431" lon="2.97221">
        <ele>716</ele>
        <time>2021-08-27T07:50:17Z</time>
      </trkpt>
      <trkpt lat="44.3644" lon="2.97231">
        <ele>716</ele>
        <time>2021-08-27T07:50:23Z</time>
      </trkpt>
      <trkpt lat="44.36451" lon="2.97239">
        <ele>718</ele>
        <time>2021-08-27T07:50:29Z</time>
      </trkpt>
      <trkpt lat="44.36463" lon="2.97244">
        <ele>719</ele>
        <time>2021-08-27T07:50:35Z</time>
      </trkpt>
      <trkpt lat="44.36476" lon="2.97245">
        <ele>720</ele>
        <time>2021-08-27T07:50:41Z</time>
      </trkpt>
      <trkpt lat="44.36496" lon="2.97236">
        <ele>721</ele>
        <time>2021-08-27T07:50:50Z</time>
      </trkpt>
      <trkpt lat="44.36545" lon="2.97184">
        <ele>725</ele>
        <time>2021-08-27T07:51:20Z</time>
      </trkpt>
      <trkpt lat="44.36555" lon="2.97175">
        <ele>726</ele>
        <time>2021-08-27T07:51:26Z</time>
      </trkpt>
      <trkpt lat="44.3656" lon="2.97171">
        <ele>727</ele>
        <time>2021-08-27T07:51:29Z</time>
      </trkpt>
      <trkpt lat="44.36617" lon="2.97115">
        <ele>730</ele>
        <time>2021-08-27T07:51:59Z</time>
      </trkpt>
      <trkpt lat="44.36693" lon="2.9707">
        <ele>735</ele>
        <time>2021-08-27T07:52:29Z</time>
      </trkpt>
      <trkpt lat="44.36769" lon="2.97032">
        <ele>740</ele>
        <time>2021-08-27T07:53:01Z</time>
      </trkpt>
      <trkpt lat="44.3684" lon="2.96996">
        <ele>741</ele>
        <time>2021-08-27T07:53:27Z</time>
      </trkpt>
      <trkpt lat="44.36939" lon="2.96992">
        <ele>744</ele>
        <time>2021-08-27T07:53:59Z</time>
      </trkpt>
      <trkpt lat="44.37029" lon="2.97032">
        <ele>745</ele>
        <time>2021-08-27T07:54:29Z</time>
      </trkpt>
      <trkpt lat="44.37091" lon="2.97059">
        <ele>747</ele>
        <time>2021-08-27T07:54:51Z</time>
      </trkpt>
      <trkpt lat="44.37112" lon="2.97172">
        <ele>745</ele>
        <time>2021-08-27T07:55:17Z</time>
      </trkpt>
      <trkpt lat="44.37143" lon="2.9724">
        <ele>743</ele>
        <time>2021-08-27T07:55:33Z</time>
      </trkpt>
      <trkpt lat="44.37165" lon="2.97275">
        <ele>745</ele>
        <time>2021-08-27T07:55:43Z</time>
      </trkpt>
      <trkpt lat="44.3721" lon="2.97302">
        <ele>747</ele>
        <time>2021-08-27T07:56:01Z</time>
      </trkpt>
      <trkpt lat="44.37297" lon="2.97266">
        <ele>751</ele>
        <time>2021-08-27T07:56:33Z</time>
      </trkpt>
      <trkpt lat="44.37345" lon="2.97191">
        <ele>747</ele>
        <time>2021-08-27T07:57:03Z</time>
      </trkpt>
      <trkpt lat="44.37373" lon="2.97179">
        <ele>748</ele>
        <time>2021-08-27T07:57:18Z</time>
      </trkpt>
      <trkpt lat="44.37383" lon="2.97181">
        <ele>749</ele>
        <time>2021-08-27T07:57:23Z</time>
      </trkpt>
      <trkpt lat="44.37407" lon="2.97235">
        <ele>749</ele>
        <time>2021-08-27T07:57:35Z</time>
      </trkpt>
      <trkpt lat="44.37462" lon="2.97336">
        <ele>749</ele>
        <time>2021-08-27T07:57:50Z</time>
      </trkpt>
      <trkpt lat="44.37493" lon="2.9744">
        <ele>747</ele>
        <time>2021-08-27T07:58:05Z</time>
      </trkpt>
      <trkpt lat="44.37529" lon="2.97492">
        <ele>744</ele>
        <time>2021-08-27T07:58:16Z</time>
      </trkpt>
      <trkpt lat="44.37534" lon="2.97503">
        <ele>743</ele>
        <time>2021-08-27T07:58:18Z</time>
      </trkpt>
      <trkpt lat="44.37542" lon="2.97528">
        <ele>743</ele>
        <time>2021-08-27T07:58:22Z</time>
      </trkpt>
      <trkpt lat="44.3756" lon="2.9758">
        <ele>740</ele>
        <time>2021-08-27T07:58:30Z</time>
      </trkpt>
      <trkpt lat="44.37564" lon="2.97604">
        <ele>738</ele>
        <time>2021-08-27T07:58:33Z</time>
      </trkpt>
      <trkpt lat="44.3757" lon="2.97711">
        <ele>731</ele>
        <time>2021-08-27T07:58:44Z</time>
      </trkpt>
      <trkpt lat="44.37575" lon="2.97733">
        <ele>731</ele>
        <time>2021-08-27T07:58:46Z</time>
      </trkpt>
      <trkpt lat="44.37651" lon="2.97907">
        <ele>729</ele>
        <time>2021-08-27T07:59:06Z</time>
      </trkpt>
      <trkpt lat="44.377" lon="2.98069">
        <ele>740</ele>
        <time>2021-08-27T07:59:37Z</time>
      </trkpt>
      <trkpt lat="44.37731" lon="2.98155">
        <ele>747</ele>
        <time>2021-08-27T08:00:03Z</time>
      </trkpt>
      <trkpt lat="44.37746" lon="2.98185">
        <ele>749</ele>
        <time>2021-08-27T08:00:13Z</time>
      </trkpt>
      <trkpt lat="44.37767" lon="2.98201">
        <ele>750</ele>
        <time>2021-08-27T08:00:21Z</time>
      </trkpt>
      <trkpt lat="44.37911" lon="2.98271">
        <ele>748</ele>
        <time>2021-08-27T08:00:51Z</time>
      </trkpt>
      <trkpt lat="44.37942" lon="2.98285">
        <ele>748</ele>
        <time>2021-08-27T08:00:58Z</time>
      </trkpt>
      <trkpt lat="44.3795" lon="2.98293">
        <ele>749</ele>
        <time>2021-08-27T08:01:00Z</time>
      </trkpt>
      <trkpt lat="44.37998" lon="2.98412">
        <ele>753</ele>
        <time>2021-08-27T08:01:30Z</time>
      </trkpt>
      <trkpt lat="44.38017" lon="2.98461">
        <ele>753</ele>
        <time>2021-08-27T08:01:42Z</time>
      </trkpt>
      <trkpt lat="44.38021" lon="2.98478">
        <ele>753</ele>
        <time>2021-08-27T08:01:46Z</time>
      </trkpt>
      <trkpt lat="44.38021" lon="2.98497">
        <ele>753</ele>
        <time>2021-08-27T08:01:50Z</time>
      </trkpt>
      <trkpt lat="44.38007" lon="2.98527">
        <ele>753</ele>
        <time>2021-08-27T08:01:58Z</time>
      </trkpt>
      <trkpt lat="44.37998" lon="2.98543">
        <ele>753</ele>
        <time>2021-08-27T08:02:02Z</time>
      </trkpt>
      <trkpt lat="44.37985" lon="2.98578">
        <ele>754</ele>
        <time>2021-08-27T08:02:10Z</time>
      </trkpt>
      <trkpt lat="44.37983" lon="2.98588">
        <ele>754</ele>
        <time>2021-08-27T08:02:12Z</time>
      </trkpt>
      <trkpt lat="44.37981" lon="2.98608">
        <ele>755</ele>
        <time>2021-08-27T08:02:16Z</time>
      </trkpt>
      <trkpt lat="44.37984" lon="2.98629">
        <ele>755</ele>
        <time>2021-08-27T08:02:20Z</time>
      </trkpt>
      <trkpt lat="44.37987" lon="2.9864">
        <ele>755</ele>
        <time>2021-08-27T08:02:22Z</time>
      </trkpt>
      <trkpt lat="44.37993" lon="2.98649">
        <ele>755</ele>
        <time>2021-08-27T08:02:24Z</time>
      </trkpt>
      <trkpt lat="44.38" lon="2.98653">
        <ele>756</ele>
        <time>2021-08-27T08:02:26Z</time>
      </trkpt>
      <trkpt lat="44.38127" lon="2.98667">
        <ele>758</ele>
        <time>2021-08-27T08:02:58Z</time>
      </trkpt>
      <trkpt lat="44.38182" lon="2.98662">
        <ele>758</ele>
        <time>2021-08-27T08:03:11Z</time>
      </trkpt>
      <trkpt lat="44.382" lon="2.98663">
        <ele>758</ele>
        <time>2021-08-27T08:03:15Z</time>
      </trkpt>
      <trkpt lat="44.38215" lon="2.98671">
        <ele>759</ele>
        <time>2021-08-27T08:03:19Z</time>
      </trkpt>
      <trkpt lat="44.38227" lon="2.98684">
        <ele>759</ele>
        <time>2021-08-27T08:03:23Z</time>
      </trkpt>
      <trkpt lat="44.38236" lon="2.98711">
        <ele>759</ele>
        <time>2021-08-27T08:03:29Z</time>
      </trkpt>
      <trkpt lat="44.38234" lon="2.98819">
        <ele>762</ele>
        <time>2021-08-27T08:03:49Z</time>
      </trkpt>
      <trkpt lat="44.38239" lon="2.98841">
        <ele>763</ele>
        <time>2021-08-27T08:03:53Z</time>
      </trkpt>
      <trkpt lat="44.38249" lon="2.98858">
        <ele>762</ele>
        <time>2021-08-27T08:03:57Z</time>
      </trkpt>
      <trkpt lat="44.38254" lon="2.98871">
        <ele>762</ele>
        <time>2021-08-27T08:03:59Z</time>
      </trkpt>
      <trkpt lat="44.38256" lon="2.98886">
        <ele>762</ele>
        <time>2021-08-27T08:04:01Z</time>
      </trkpt>
      <trkpt lat="44.38249" lon="2.98929">
        <ele>763</ele>
        <time>2021-08-27T08:04:08Z</time>
      </trkpt>
      <trkpt lat="44.38248" lon="2.98965">
        <ele>763</ele>
        <time>2021-08-27T08:04:14Z</time>
      </trkpt>
      <trkpt lat="44.38253" lon="2.98998">
        <ele>764</ele>
        <time>2021-08-27T08:04:20Z</time>
      </trkpt>
      <trkpt lat="44.38261" lon="2.99019">
        <ele>763</ele>
        <time>2021-08-27T08:04:24Z</time>
      </trkpt>
      <trkpt lat="44.38277" lon="2.9904">
        <ele>762</ele>
        <time>2021-08-27T08:04:29Z</time>
      </trkpt>
      <trkpt lat="44.38296" lon="2.9906">
        <ele>761</ele>
        <time>2021-08-27T08:04:34Z</time>
      </trkpt>
      <trkpt lat="44.38302" lon="2.9907">
        <ele>761</ele>
        <time>2021-08-27T08:04:36Z</time>
      </trkpt>
      <trkpt lat="44.38305" lon="2.99083">
        <ele>761</ele>
        <time>2021-08-27T08:04:38Z</time>
      </trkpt>
      <trkpt lat="44.38306" lon="2.99094">
        <ele>761</ele>
        <time>2021-08-27T08:04:40Z</time>
      </trkpt>
      <trkpt lat="44.38288" lon="2.99195">
        <ele>763</ele>
        <time>2021-08-27T08:05:00Z</time>
      </trkpt>
      <trkpt lat="44.38285" lon="2.99239">
        <ele>763</ele>
        <time>2021-08-27T08:05:10Z</time>
      </trkpt>
      <trkpt lat="44.38292" lon="2.9933">
        <ele>768</ele>
        <time>2021-08-27T08:05:36Z</time>
      </trkpt>
      <trkpt lat="44.38289" lon="2.99426">
        <ele>773</ele>
        <time>2021-08-27T08:06:04Z</time>
      </trkpt>
      <trkpt lat="44.38273" lon="2.99469">
        <ele>776</ele>
        <time>2021-08-27T08:06:18Z</time>
      </trkpt>
      <trkpt lat="44.38271" lon="2.99482">
        <ele>776</ele>
        <time>2021-08-27T08:06:22Z</time>
      </trkpt>
      <trkpt lat="44.38271" lon="2.99496">
        <ele>777</ele>
        <time>2021-08-27T08:06:26Z</time>
      </trkpt>
      <trkpt lat="44.38272" lon="2.99502">
        <ele>777</ele>
        <time>2021-08-27T08:06:28Z</time>
      </trkpt>
      <trkpt lat="44.38279" lon="2.99523">
        <ele>777</ele>
        <time>2021-08-27T08:06:35Z</time>
      </trkpt>
      <trkpt lat="44.38286" lon="2.99534">
        <ele>778</ele>
        <time>2021-08-27T08:06:39Z</time>
      </trkpt>
      <trkpt lat="44.38299" lon="2.99547">
        <ele>778</ele>
        <time>2021-08-27T08:06:45Z</time>
      </trkpt>
      <trkpt lat="44.38329" lon="2.99564">
        <ele>780</ele>
        <time>2021-08-27T08:06:59Z</time>
      </trkpt>
      <trkpt lat="44.38362" lon="2.99594">
        <ele>782</ele>
        <time>2021-08-27T08:07:16Z</time>
      </trkpt>
      <trkpt lat="44.38389" lon="2.99631">
        <ele>783</ele>
        <time>2021-08-27T08:07:32Z</time>
      </trkpt>
      <trkpt lat="44.38433" lon="2.99675">
        <ele>786</ele>
        <time>2021-08-27T08:07:55Z</time>
      </trkpt>
      <trkpt lat="44.38441" lon="2.99692">
        <ele>787</ele>
        <time>2021-08-27T08:08:01Z</time>
      </trkpt>
      <trkpt lat="44.3845" lon="2.99724">
        <ele>786</ele>
        <time>2021-08-27T08:08:11Z</time>
      </trkpt>
      <trkpt lat="44.3846" lon="2.99768">
        <ele>782</ele>
        <time>2021-08-27T08:08:27Z</time>
      </trkpt>
      <trkpt lat="44.38494" lon="2.99847">
        <ele>778</ele>
        <time>2021-08-27T08:08:54Z</time>
      </trkpt>
      <trkpt lat="44.38502" lon="2.9986">
        <ele>776</ele>
        <time>2021-08-27T08:09:00Z</time>
      </trkpt>
      <trkpt lat="44.38518" lon="2.99873">
        <ele>775</ele>
        <time>2021-08-27T08:09:08Z</time>
      </trkpt>
      <trkpt lat="44.3854" lon="2.99875">
        <ele>777</ele>
        <time>2021-08-27T08:09:16Z</time>
      </trkpt>
      <trkpt lat="44.38557" lon="2.99871">
        <ele>780</ele>
        <time>2021-08-27T08:09:22Z</time>
      </trkpt>
      <trkpt lat="44.38615" lon="2.99844">
        <ele>791</ele>
        <time>2021-08-27T08:09:47Z</time>
      </trkpt>
      <trkpt lat="44.38625" lon="2.99841">
        <ele>792</ele>
        <time>2021-08-27T08:09:52Z</time>
      </trkpt>
      <trkpt lat="44.38631" lon="2.99838">
        <ele>793</ele>
        <time>2021-08-27T08:09:55Z</time>
      </trkpt>
      <trkpt lat="44.3865" lon="2.99829">
        <ele>794</ele>
        <time>2021-08-27T08:10:04Z</time>
      </trkpt>
      <trkpt lat="44.38661" lon="2.99825">
        <ele>794</ele>
        <time>2021-08-27T08:10:09Z</time>
      </trkpt>
      <trkpt lat="44.38727" lon="2.99808">
        <ele>800</ele>
        <time>2021-08-27T08:10:39Z</time>
      </trkpt>
      <trkpt lat="44.38804" lon="2.99797">
        <ele>805</ele>
        <time>2021-08-27T08:11:12Z</time>
      </trkpt>
      <trkpt lat="44.38874" lon="2.99802">
        <ele>808</ele>
        <time>2021-08-27T08:11:42Z</time>
      </trkpt>
      <trkpt lat="44.38893" lon="2.99807">
        <ele>809</ele>
        <time>2021-08-27T08:11:50Z</time>
      </trkpt>
      <trkpt lat="44.3894" lon="2.99831">
        <ele>810</ele>
        <time>2021-08-27T08:12:10Z</time>
      </trkpt>
      <trkpt lat="44.39005" lon="2.99818">
        <ele>812</ele>
        <time>2021-08-27T08:12:37Z</time>
      </trkpt>
      <trkpt lat="44.39009" lon="2.99811">
        <ele>812</ele>
        <time>2021-08-27T08:14:33Z</time>
      </trkpt>
      <trkpt lat="44.39032" lon="2.99794">
        <ele>810</ele>
        <time>2021-08-27T08:14:41Z</time>
      </trkpt>
      <trkpt lat="44.39043" lon="2.9978">
        <ele>808</ele>
        <time>2021-08-27T08:14:45Z</time>
      </trkpt>
      <trkpt lat="44.39055" lon="2.9977">
        <ele>806</ele>
        <time>2021-08-27T08:14:48Z</time>
      </trkpt>
      <trkpt lat="44.39101" lon="2.99764">
        <ele>800</ele>
        <time>2021-08-27T08:14:58Z</time>
      </trkpt>
      <trkpt lat="44.39107" lon="2.99768">
        <ele>798</ele>
        <time>2021-08-27T08:14:59Z</time>
      </trkpt>
      <trkpt lat="44.39112" lon="2.99775">
        <ele>798</ele>
        <time>2021-08-27T08:15:00Z</time>
      </trkpt>
      <trkpt lat="44.3911" lon="2.99784">
        <ele>799</ele>
        <time>2021-08-27T08:15:02Z</time>
      </trkpt>
      <trkpt lat="44.39092" lon="2.9979">
        <ele>796</ele>
        <time>2021-08-27T08:15:07Z</time>
      </trkpt>
      <trkpt lat="44.39081" lon="2.99798">
        <ele>795</ele>
        <time>2021-08-27T08:15:10Z</time>
      </trkpt>
      <trkpt lat="44.39071" lon="2.99813">
        <ele>794</ele>
        <time>2021-08-27T08:15:13Z</time>
      </trkpt>
      <trkpt lat="44.39067" lon="2.99823">
        <ele>794</ele>
        <time>2021-08-27T08:15:15Z</time>
      </trkpt>
      <trkpt lat="44.39065" lon="2.99832">
        <ele>794</ele>
        <time>2021-08-27T08:15:17Z</time>
      </trkpt>
      <trkpt lat="44.39062" lon="2.99842">
        <ele>794</ele>
        <time>2021-08-27T08:15:19Z</time>
      </trkpt>
      <trkpt lat="44.39055" lon="2.99855">
        <ele>794</ele>
        <time>2021-08-27T08:15:21Z</time>
      </trkpt>
      <trkpt lat="44.39048" lon="2.99881">
        <ele>794</ele>
        <time>2021-08-27T08:15:24Z</time>
      </trkpt>
      <trkpt lat="44.39046" lon="2.99897">
        <ele>794</ele>
        <time>2021-08-27T08:15:26Z</time>
      </trkpt>
      <trkpt lat="44.39046" lon="2.99903">
        <ele>794</ele>
        <time>2021-08-27T08:15:27Z</time>
      </trkpt>
      <trkpt lat="44.39056" lon="2.9993">
        <ele>794</ele>
        <time>2021-08-27T08:15:31Z</time>
      </trkpt>
      <trkpt lat="44.3906" lon="2.99943">
        <ele>794</ele>
        <time>2021-08-27T08:15:33Z</time>
      </trkpt>
      <trkpt lat="44.39067" lon="2.99963">
        <ele>796</ele>
        <time>2021-08-27T08:15:36Z</time>
      </trkpt>
      <trkpt lat="44.39077" lon="2.99988">
        <ele>796</ele>
        <time>2021-08-27T08:15:39Z</time>
      </trkpt>
      <trkpt lat="44.39085" lon="3.00002">
        <ele>796</ele>
        <time>2021-08-27T08:15:41Z</time>
      </trkpt>
      <trkpt lat="44.39089" lon="3.0001">
        <ele>796</ele>
        <time>2021-08-27T08:15:42Z</time>
      </trkpt>
      <trkpt lat="44.39098" lon="3.00027">
        <ele>796</ele>
        <time>2021-08-27T08:15:44Z</time>
      </trkpt>
      <trkpt lat="44.39103" lon="3.00043">
        <ele>795</ele>
        <time>2021-08-27T08:15:46Z</time>
      </trkpt>
      <trkpt lat="44.39106" lon="3.00055">
        <ele>795</ele>
        <time>2021-08-27T08:15:47Z</time>
      </trkpt>
      <trkpt lat="44.39103" lon="3.00075">
        <ele>794</ele>
        <time>2021-08-27T08:15:49Z</time>
      </trkpt>
      <trkpt lat="44.39096" lon="3.00095">
        <ele>795</ele>
        <time>2021-08-27T08:15:51Z</time>
      </trkpt>
      <trkpt lat="44.39084" lon="3.0011">
        <ele>795</ele>
        <time>2021-08-27T08:15:53Z</time>
      </trkpt>
      <trkpt lat="44.39059" lon="3.00118">
        <ele>794</ele>
        <time>2021-08-27T08:15:57Z</time>
      </trkpt>
      <trkpt lat="44.39022" lon="3.00154">
        <ele>798</ele>
        <time>2021-08-27T08:16:04Z</time>
      </trkpt>
      <trkpt lat="44.39019" lon="3.00159">
        <ele>798</ele>
        <time>2021-08-27T08:16:05Z</time>
      </trkpt>
      <trkpt lat="44.39016" lon="3.00188">
        <ele>797</ele>
        <time>2021-08-27T08:16:08Z</time>
      </trkpt>
      <trkpt lat="44.39017" lon="3.00206">
        <ele>796</ele>
        <time>2021-08-27T08:16:10Z</time>
      </trkpt>
      <trkpt lat="44.39023" lon="3.00219">
        <ele>795</ele>
        <time>2021-08-27T08:16:12Z</time>
      </trkpt>
      <trkpt lat="44.39027" lon="3.00224">
        <ele>794</ele>
        <time>2021-08-27T08:16:13Z</time>
      </trkpt>
      <trkpt lat="44.39039" lon="3.00226">
        <ele>797</ele>
        <time>2021-08-27T08:16:15Z</time>
      </trkpt>
      <trkpt lat="44.39051" lon="3.00227">
        <ele>798</ele>
        <time>2021-08-27T08:16:17Z</time>
      </trkpt>
      <trkpt lat="44.39067" lon="3.00233">
        <ele>798</ele>
        <time>2021-08-27T08:16:20Z</time>
      </trkpt>
      <trkpt lat="44.39077" lon="3.00244">
        <ele>798</ele>
        <time>2021-08-27T08:16:22Z</time>
      </trkpt>
      <trkpt lat="44.39082" lon="3.00248">
        <ele>798</ele>
        <time>2021-08-27T08:16:23Z</time>
      </trkpt>
      <trkpt lat="44.39093" lon="3.00251">
        <ele>797</ele>
        <time>2021-08-27T08:16:25Z</time>
      </trkpt>
      <trkpt lat="44.3915" lon="3.00246">
        <ele>790</ele>
        <time>2021-08-27T08:16:33Z</time>
      </trkpt>
      <trkpt lat="44.39242" lon="3.00219">
        <ele>777</ele>
        <time>2021-08-27T08:16:45Z</time>
      </trkpt>
      <trkpt lat="44.39438" lon="3.00206">
        <ele>759</ele>
        <time>2021-08-27T08:17:11Z</time>
      </trkpt>
      <trkpt lat="44.39489" lon="3.00231">
        <ele>755</ele>
        <time>2021-08-27T08:17:20Z</time>
      </trkpt>
      <trkpt lat="44.39499" lon="3.00238">
        <ele>754</ele>
        <time>2021-08-27T08:17:22Z</time>
      </trkpt>
      <trkpt lat="44.39597" lon="3.00348">
        <ele>749</ele>
        <time>2021-08-27T08:17:51Z</time>
      </trkpt>
      <trkpt lat="44.39631" lon="3.00371">
        <ele>751</ele>
        <time>2021-08-27T08:18:01Z</time>
      </trkpt>
      <trkpt lat="44.39675" lon="3.00385">
        <ele>755</ele>
        <time>2021-08-27T08:18:13Z</time>
      </trkpt>
      <trkpt lat="44.39697" lon="3.00384">
        <ele>755</ele>
        <time>2021-08-27T08:18:19Z</time>
      </trkpt>
      <trkpt lat="44.39712" lon="3.00381">
        <ele>756</ele>
        <time>2021-08-27T08:18:23Z</time>
      </trkpt>
      <trkpt lat="44.39726" lon="3.00383">
        <ele>756</ele>
        <time>2021-08-27T08:18:27Z</time>
      </trkpt>
      <trkpt lat="44.39733" lon="3.00387">
        <ele>757</ele>
        <time>2021-08-27T08:18:29Z</time>
      </trkpt>
      <trkpt lat="44.39755" lon="3.00412">
        <ele>757</ele>
        <time>2021-08-27T08:18:37Z</time>
      </trkpt>
      <trkpt lat="44.3976" lon="3.00419">
        <ele>757</ele>
        <time>2021-08-27T08:18:39Z</time>
      </trkpt>
      <trkpt lat="44.39777" lon="3.00442">
        <ele>757</ele>
        <time>2021-08-27T08:18:47Z</time>
      </trkpt>
      <trkpt lat="44.39854" lon="3.00483">
        <ele>759</ele>
        <time>2021-08-27T08:19:11Z</time>
      </trkpt>
      <trkpt lat="44.39885" lon="3.0052">
        <ele>758</ele>
        <time>2021-08-27T08:19:21Z</time>
      </trkpt>
      <trkpt lat="44.39907" lon="3.00554">
        <ele>756</ele>
        <time>2021-08-27T08:19:28Z</time>
      </trkpt>
      <trkpt lat="44.4" lon="3.00671">
        <ele>756</ele>
        <time>2021-08-27T08:19:56Z</time>
      </trkpt>
      <trkpt lat="44.40027" lon="3.00709">
        <ele>753</ele>
        <time>2021-08-27T08:20:03Z</time>
      </trkpt>
      <trkpt lat="44.40036" lon="3.0072">
        <ele>752</ele>
        <time>2021-08-27T08:20:05Z</time>
      </trkpt>
      <trkpt lat="44.40064" lon="3.00737">
        <ele>754</ele>
        <time>2021-08-27T08:20:11Z</time>
      </trkpt>
      <trkpt lat="44.40077" lon="3.00741">
        <ele>754</ele>
        <time>2021-08-27T08:20:15Z</time>
      </trkpt>
      <trkpt lat="44.40091" lon="3.00735">
        <ele>753</ele>
        <time>2021-08-27T08:20:19Z</time>
      </trkpt>
      <trkpt lat="44.4017" lon="3.00667">
        <ele>755</ele>
        <time>2021-08-27T08:20:41Z</time>
      </trkpt>
      <trkpt lat="44.40239" lon="3.00635">
        <ele>760</ele>
        <time>2021-08-27T08:21:01Z</time>
      </trkpt>
      <trkpt lat="44.40261" lon="3.00605">
        <ele>761</ele>
        <time>2021-08-27T08:21:09Z</time>
      </trkpt>
      <trkpt lat="44.40316" lon="3.00485">
        <ele>762</ele>
        <time>2021-08-27T08:21:35Z</time>
      </trkpt>
      <trkpt lat="44.40433" lon="3.00335">
        <ele>760</ele>
        <time>2021-08-27T08:22:06Z</time>
      </trkpt>
      <trkpt lat="44.40493" lon="3.00261">
        <ele>760</ele>
        <time>2021-08-27T08:22:22Z</time>
      </trkpt>
      <trkpt lat="44.40512" lon="3.00245">
        <ele>760</ele>
        <time>2021-08-27T08:22:28Z</time>
      </trkpt>
      <trkpt lat="44.40528" lon="3.00238">
        <ele>760</ele>
        <time>2021-08-27T08:22:32Z</time>
      </trkpt>
      <trkpt lat="44.40546" lon="3.00237">
        <ele>760</ele>
        <time>2021-08-27T08:22:36Z</time>
      </trkpt>
      <trkpt lat="44.40556" lon="3.00241">
        <ele>759</ele>
        <time>2021-08-27T08:22:38Z</time>
      </trkpt>
      <trkpt lat="44.40587" lon="3.00263">
        <ele>758</ele>
        <time>2021-08-27T08:22:44Z</time>
      </trkpt>
      <trkpt lat="44.40676" lon="3.00351">
        <ele>751</ele>
        <time>2021-08-27T08:23:02Z</time>
      </trkpt>
      <trkpt lat="44.40701" lon="3.00362">
        <ele>749</ele>
        <time>2021-08-27T08:23:09Z</time>
      </trkpt>
      <trkpt lat="44.4073" lon="3.00359">
        <ele>748</ele>
        <time>2021-08-27T08:23:15Z</time>
      </trkpt>
      <trkpt lat="44.40772" lon="3.0035">
        <ele>747</ele>
        <time>2021-08-27T08:23:25Z</time>
      </trkpt>
      <trkpt lat="44.40777" lon="3.00351">
        <ele>746</ele>
        <time>2021-08-27T08:27:47Z</time>
      </trkpt>
      <trkpt lat="44.40781" lon="3.00347">
        <ele>746</ele>
        <time>2021-08-27T08:28:14Z</time>
      </trkpt>
      <trkpt lat="44.40786" lon="3.00346">
        <ele>746</ele>
        <time>2021-08-27T08:28:17Z</time>
      </trkpt>
      <trkpt lat="44.40791" lon="3.00345">
        <ele>746</ele>
        <time>2021-08-27T08:28:19Z</time>
      </trkpt>
      <trkpt lat="44.40858" lon="3.00344">
        <ele>743</ele>
        <time>2021-08-27T08:28:38Z</time>
      </trkpt>
      <trkpt lat="44.40872" lon="3.00348">
        <ele>742</ele>
        <time>2021-08-27T08:28:41Z</time>
      </trkpt>
      <trkpt lat="44.40897" lon="3.00359">
        <ele>740</ele>
        <time>2021-08-27T08:28:46Z</time>
      </trkpt>
      <trkpt lat="44.40908" lon="3.00359">
        <ele>740</ele>
        <time>2021-08-27T08:28:48Z</time>
      </trkpt>
      <trkpt lat="44.41082" lon="3.00288">
        <ele>737</ele>
        <time>2021-08-27T08:29:19Z</time>
      </trkpt>
      <trkpt lat="44.41135" lon="3.00258">
        <ele>736</ele>
        <time>2021-08-27T08:29:28Z</time>
      </trkpt>
      <trkpt lat="44.41235" lon="3.0023">
        <ele>734</ele>
        <time>2021-08-27T08:29:45Z</time>
      </trkpt>
      <trkpt lat="44.41246" lon="3.0023">
        <ele>733</ele>
        <time>2021-08-27T08:29:47Z</time>
      </trkpt>
      <trkpt lat="44.41311" lon="3.00267">
        <ele>730</ele>
        <time>2021-08-27T08:29:58Z</time>
      </trkpt>
      <trkpt lat="44.4133" lon="3.00281">
        <ele>730</ele>
        <time>2021-08-27T08:30:02Z</time>
      </trkpt>
      <trkpt lat="44.41408" lon="3.00363">
        <ele>728</ele>
        <time>2021-08-27T08:30:22Z</time>
      </trkpt>
      <trkpt lat="44.41424" lon="3.00372">
        <ele>726</ele>
        <time>2021-08-27T08:30:25Z</time>
      </trkpt>
      <trkpt lat="44.41441" lon="3.00376">
        <ele>726</ele>
        <time>2021-08-27T08:30:28Z</time>
      </trkpt>
      <trkpt lat="44.41608" lon="3.00337">
        <ele>716</ele>
        <time>2021-08-27T08:30:54Z</time>
      </trkpt>
      <trkpt lat="44.41623" lon="3.00331">
        <ele>715</ele>
        <time>2021-08-27T08:30:56Z</time>
      </trkpt>
      <trkpt lat="44.41637" lon="3.0032">
        <ele>715</ele>
        <time>2021-08-27T08:30:58Z</time>
      </trkpt>
      <trkpt lat="44.41691" lon="3.00228">
        <ele>712</ele>
        <time>2021-08-27T08:31:10Z</time>
      </trkpt>
      <trkpt lat="44.41717" lon="3.00153">
        <ele>710</ele>
        <time>2021-08-27T08:31:18Z</time>
      </trkpt>
      <trkpt lat="44.41745" lon="2.9997">
        <ele>701</ele>
        <time>2021-08-27T08:31:34Z</time>
      </trkpt>
      <trkpt lat="44.41749" lon="2.99916">
        <ele>698</ele>
        <time>2021-08-27T08:31:41Z</time>
      </trkpt>
      <trkpt lat="44.41752" lon="2.99909">
        <ele>697</ele>
        <time>2021-08-27T08:31:43Z</time>
      </trkpt>
      <trkpt lat="44.41756" lon="2.99912">
        <ele>696</ele>
        <time>2021-08-27T08:31:47Z</time>
      </trkpt>
      <trkpt lat="44.41756" lon="2.9992">
        <ele>696</ele>
        <time>2021-08-27T08:31:49Z</time>
      </trkpt>
      <trkpt lat="44.41754" lon="2.9993">
        <ele>695</ele>
        <time>2021-08-27T08:31:51Z</time>
      </trkpt>
      <trkpt lat="44.41751" lon="2.9995">
        <ele>694</ele>
        <time>2021-08-27T08:31:54Z</time>
      </trkpt>
      <trkpt lat="44.41751" lon="2.99999">
        <ele>694</ele>
        <time>2021-08-27T08:32:00Z</time>
      </trkpt>
      <trkpt lat="44.41753" lon="3.00146">
        <ele>689</ele>
        <time>2021-08-27T08:32:14Z</time>
      </trkpt>
      <trkpt lat="44.4175" lon="3.00209">
        <ele>687</ele>
        <time>2021-08-27T08:32:19Z</time>
      </trkpt>
      <trkpt lat="44.41741" lon="3.00243">
        <ele>687</ele>
        <time>2021-08-27T08:32:22Z</time>
      </trkpt>
      <trkpt lat="44.41717" lon="3.00295">
        <ele>685</ele>
        <time>2021-08-27T08:32:27Z</time>
      </trkpt>
      <trkpt lat="44.41687" lon="3.00444">
        <ele>678</ele>
        <time>2021-08-27T08:32:39Z</time>
      </trkpt>
      <trkpt lat="44.41682" lon="3.00505">
        <ele>674</ele>
        <time>2021-08-27T08:32:44Z</time>
      </trkpt>
      <trkpt lat="44.41683" lon="3.00541">
        <ele>671</ele>
        <time>2021-08-27T08:32:47Z</time>
      </trkpt>
      <trkpt lat="44.41693" lon="3.00586">
        <ele>667</ele>
        <time>2021-08-27T08:32:51Z</time>
      </trkpt>
      <trkpt lat="44.4178" lon="3.00815">
        <ele>648</ele>
        <time>2021-08-27T08:33:13Z</time>
      </trkpt>
      <trkpt lat="44.41845" lon="3.01094">
        <ele>634</ele>
        <time>2021-08-27T08:33:37Z</time>
      </trkpt>
      <trkpt lat="44.41886" lon="3.01195">
        <ele>628</ele>
        <time>2021-08-27T08:33:48Z</time>
      </trkpt>
      <trkpt lat="44.41896" lon="3.01235">
        <ele>628</ele>
        <time>2021-08-27T08:33:53Z</time>
      </trkpt>
      <trkpt lat="44.41897" lon="3.01251">
        <ele>627</ele>
        <time>2021-08-27T08:33:55Z</time>
      </trkpt>
      <trkpt lat="44.41904" lon="3.0128">
        <ele>625</ele>
        <time>2021-08-27T08:34:00Z</time>
      </trkpt>
      <trkpt lat="44.41911" lon="3.01299">
        <ele>623</ele>
        <time>2021-08-27T08:34:04Z</time>
      </trkpt>
      <trkpt lat="44.41932" lon="3.01372">
        <ele>621</ele>
        <time>2021-08-27T08:34:20Z</time>
      </trkpt>
      <trkpt lat="44.41935" lon="3.01417">
        <ele>615</ele>
        <time>2021-08-27T08:34:30Z</time>
      </trkpt>
      <trkpt lat="44.41941" lon="3.01434">
        <ele>614</ele>
        <time>2021-08-27T08:34:33Z</time>
      </trkpt>
      <trkpt lat="44.41947" lon="3.01468">
        <ele>614</ele>
        <time>2021-08-27T08:34:39Z</time>
      </trkpt>
      <trkpt lat="44.41967" lon="3.01524">
        <ele>617</ele>
        <time>2021-08-27T08:34:49Z</time>
      </trkpt>
      <trkpt lat="44.41984" lon="3.01559">
        <ele>616</ele>
        <time>2021-08-27T08:34:56Z</time>
      </trkpt>
      <trkpt lat="44.4201" lon="3.0159">
        <ele>619</ele>
        <time>2021-08-27T08:35:06Z</time>
      </trkpt>
      <trkpt lat="44.42016" lon="3.01593">
        <ele>621</ele>
        <time>2021-08-27T08:35:09Z</time>
      </trkpt>
      <trkpt lat="44.42025" lon="3.01595">
        <ele>623</ele>
        <time>2021-08-27T08:35:13Z</time>
      </trkpt>
      <trkpt lat="44.42141" lon="3.01579">
        <ele>630</ele>
        <time>2021-08-27T08:35:44Z</time>
      </trkpt>
      <trkpt lat="44.42246" lon="3.01563">
        <ele>630</ele>
        <time>2021-08-27T08:36:16Z</time>
      </trkpt>
      <trkpt lat="44.4225" lon="3.01566">
        <ele>631</ele>
        <time>2021-08-27T08:36:18Z</time>
      </trkpt>
      <trkpt lat="44.42255" lon="3.01567">
        <ele>633</ele>
        <time>2021-08-27T08:36:48Z</time>
      </trkpt>
      <trkpt lat="44.42267" lon="3.01565">
        <ele>634</ele>
        <time>2021-08-27T08:36:53Z</time>
      </trkpt>
      <trkpt lat="44.42282" lon="3.01559">
        <ele>636</ele>
        <time>2021-08-27T08:38:00Z</time>
      </trkpt>
      <trkpt lat="44.42298" lon="3.01561">
        <ele>637</ele>
        <time>2021-08-27T08:38:11Z</time>
      </trkpt>
      <trkpt lat="44.42375" lon="3.01566">
        <ele>638</ele>
        <time>2021-08-27T08:38:41Z</time>
      </trkpt>
      <trkpt lat="44.42393" lon="3.01567">
        <ele>639</ele>
        <time>2021-08-27T08:38:47Z</time>
      </trkpt>
      <trkpt lat="44.42398" lon="3.01568">
        <ele>640</ele>
        <time>2021-08-27T08:38:49Z</time>
      </trkpt>
      <trkpt lat="44.42452" lon="3.01577">
        <ele>644</ele>
        <time>2021-08-27T08:39:09Z</time>
      </trkpt>
      <trkpt lat="44.42456" lon="3.01579">
        <ele>644</ele>
        <time>2021-08-27T08:39:11Z</time>
      </trkpt>
      <trkpt lat="44.42488" lon="3.01585">
        <ele>644</ele>
        <time>2021-08-27T08:39:23Z</time>
      </trkpt>
      <trkpt lat="44.42493" lon="3.01587">
        <ele>645</ele>
        <time>2021-08-27T08:39:25Z</time>
      </trkpt>
      <trkpt lat="44.42512" lon="3.01594">
        <ele>646</ele>
        <time>2021-08-27T08:39:31Z</time>
      </trkpt>
      <trkpt lat="44.42591" lon="3.0162">
        <ele>647</ele>
        <time>2021-08-27T08:40:00Z</time>
      </trkpt>
      <trkpt lat="44.42621" lon="3.0163">
        <ele>650</ele>
        <time>2021-08-27T08:40:12Z</time>
      </trkpt>
      <trkpt lat="44.42698" lon="3.01661">
        <ele>650</ele>
        <time>2021-08-27T08:40:42Z</time>
      </trkpt>
      <trkpt lat="44.42776" lon="3.01684">
        <ele>656</ele>
        <time>2021-08-27T08:41:14Z</time>
      </trkpt>
      <trkpt lat="44.4285" lon="3.01712">
        <ele>660</ele>
        <time>2021-08-27T08:41:45Z</time>
      </trkpt>
      <trkpt lat="44.42906" lon="3.01727">
        <ele>663</ele>
        <time>2021-08-27T08:42:09Z</time>
      </trkpt>
      <trkpt lat="44.42958" lon="3.01718">
        <ele>665</ele>
        <time>2021-08-27T08:42:29Z</time>
      </trkpt>
      <trkpt lat="44.43029" lon="3.01666">
        <ele>671</ele>
        <time>2021-08-27T08:43:01Z</time>
      </trkpt>
      <trkpt lat="44.43095" lon="3.01613">
        <ele>675</ele>
        <time>2021-08-27T08:43:32Z</time>
      </trkpt>
      <trkpt lat="44.43127" lon="3.01595">
        <ele>678</ele>
        <time>2021-08-27T08:43:46Z</time>
      </trkpt>
      <trkpt lat="44.43146" lon="3.01591">
        <ele>679</ele>
        <time>2021-08-27T08:43:54Z</time>
      </trkpt>
      <trkpt lat="44.43166" lon="3.01593">
        <ele>680</ele>
        <time>2021-08-27T08:44:02Z</time>
      </trkpt>
      <trkpt lat="44.43185" lon="3.01602">
        <ele>681</ele>
        <time>2021-08-27T08:44:10Z</time>
      </trkpt>
      <trkpt lat="44.43204" lon="3.01625">
        <ele>682</ele>
        <time>2021-08-27T08:44:22Z</time>
      </trkpt>
      <trkpt lat="44.43233" lon="3.0167">
        <ele>682</ele>
        <time>2021-08-27T08:44:41Z</time>
      </trkpt>
      <trkpt lat="44.4324" lon="3.01678">
        <ele>682</ele>
        <time>2021-08-27T08:44:45Z</time>
      </trkpt>
      <trkpt lat="44.43257" lon="3.0169">
        <ele>683</ele>
        <time>2021-08-27T08:44:53Z</time>
      </trkpt>
      <trkpt lat="44.43273" lon="3.01696">
        <ele>685</ele>
        <time>2021-08-27T08:45:01Z</time>
      </trkpt>
      <trkpt lat="44.43293" lon="3.01692">
        <ele>688</ele>
        <time>2021-08-27T08:45:13Z</time>
      </trkpt>
      <trkpt lat="44.43304" lon="3.01686">
        <ele>689</ele>
        <time>2021-08-27T08:45:19Z</time>
      </trkpt>
      <trkpt lat="44.4332" lon="3.01674">
        <ele>691</ele>
        <time>2021-08-27T08:45:27Z</time>
      </trkpt>
      <trkpt lat="44.43331" lon="3.01655">
        <ele>693</ele>
        <time>2021-08-27T08:45:35Z</time>
      </trkpt>
      <trkpt lat="44.4336" lon="3.01571">
        <ele>700</ele>
        <time>2021-08-27T08:46:05Z</time>
      </trkpt>
      <trkpt lat="44.43367" lon="3.01554">
        <ele>701</ele>
        <time>2021-08-27T08:46:11Z</time>
      </trkpt>
      <trkpt lat="44.43375" lon="3.01542">
        <ele>702</ele>
        <time>2021-08-27T08:46:16Z</time>
      </trkpt>
      <trkpt lat="44.43437" lon="3.01493">
        <ele>706</ele>
        <time>2021-08-27T08:46:47Z</time>
      </trkpt>
      <trkpt lat="44.4346" lon="3.01467">
        <ele>707</ele>
        <time>2021-08-27T08:47:00Z</time>
      </trkpt>
      <trkpt lat="44.43491" lon="3.01415">
        <ele>711</ele>
        <time>2021-08-27T08:47:18Z</time>
      </trkpt>
      <trkpt lat="44.43512" lon="3.01371">
        <ele>713</ele>
        <time>2021-08-27T08:47:32Z</time>
      </trkpt>
      <trkpt lat="44.43516" lon="3.01364">
        <ele>714</ele>
        <time>2021-08-27T08:47:34Z</time>
      </trkpt>
      <trkpt lat="44.43539" lon="3.01304">
        <ele>713</ele>
        <time>2021-08-27T08:47:46Z</time>
      </trkpt>
      <trkpt lat="44.43545" lon="3.01235">
        <ele>713</ele>
        <time>2021-08-27T08:47:57Z</time>
      </trkpt>
      <trkpt lat="44.43546" lon="3.01214">
        <ele>712</ele>
        <time>2021-08-27T08:48:00Z</time>
      </trkpt>
      <trkpt lat="44.43548" lon="3.01193">
        <ele>712</ele>
        <time>2021-08-27T08:48:03Z</time>
      </trkpt>
      <trkpt lat="44.43623" lon="3.01015">
        <ele>709</ele>
        <time>2021-08-27T08:48:30Z</time>
      </trkpt>
      <trkpt lat="44.43742" lon="3.00837">
        <ele>703</ele>
        <time>2021-08-27T08:49:01Z</time>
      </trkpt>
      <trkpt lat="44.43774" lon="3.00791">
        <ele>702</ele>
        <time>2021-08-27T08:49:09Z</time>
      </trkpt>
      <trkpt lat="44.43794" lon="3.0076">
        <ele>701</ele>
        <time>2021-08-27T08:49:14Z</time>
      </trkpt>
      <trkpt lat="44.43816" lon="3.00736">
        <ele>700</ele>
        <time>2021-08-27T08:49:19Z</time>
      </trkpt>
      <trkpt lat="44.43906" lon="3.0069">
        <ele>699</ele>
        <time>2021-08-27T08:49:35Z</time>
      </trkpt>
      <trkpt lat="44.43915" lon="3.00679">
        <ele>699</ele>
        <time>2021-08-27T08:49:37Z</time>
      </trkpt>
      <trkpt lat="44.43923" lon="3.00667">
        <ele>699</ele>
        <time>2021-08-27T08:49:39Z</time>
      </trkpt>
      <trkpt lat="44.43929" lon="3.00652">
        <ele>699</ele>
        <time>2021-08-27T08:49:41Z</time>
      </trkpt>
      <trkpt lat="44.4394" lon="3.00545">
        <ele>699</ele>
        <time>2021-08-27T08:49:55Z</time>
      </trkpt>
      <trkpt lat="44.43953" lon="3.00482">
        <ele>699</ele>
        <time>2021-08-27T08:50:03Z</time>
      </trkpt>
      <trkpt lat="44.43961" lon="3.00468">
        <ele>699</ele>
        <time>2021-08-27T08:50:05Z</time>
      </trkpt>
      <trkpt lat="44.43971" lon="3.00457">
        <ele>699</ele>
        <time>2021-08-27T08:50:07Z</time>
      </trkpt>
      <trkpt lat="44.43999" lon="3.00447">
        <ele>700</ele>
        <time>2021-08-27T08:50:11Z</time>
      </trkpt>
      <trkpt lat="44.44023" lon="3.00449">
        <ele>699</ele>
        <time>2021-08-27T08:50:15Z</time>
      </trkpt>
      <trkpt lat="44.44035" lon="3.00452">
        <ele>699</ele>
        <time>2021-08-27T08:50:17Z</time>
      </trkpt>
      <trkpt lat="44.44078" lon="3.00478">
        <ele>698</ele>
        <time>2021-08-27T08:50:25Z</time>
      </trkpt>
      <trkpt lat="44.44087" lon="3.00488">
        <ele>697</ele>
        <time>2021-08-27T08:50:27Z</time>
      </trkpt>
      <trkpt lat="44.44114" lon="3.00535">
        <ele>696</ele>
        <time>2021-08-27T08:50:34Z</time>
      </trkpt>
      <trkpt lat="44.44125" lon="3.00544">
        <ele>696</ele>
        <time>2021-08-27T08:50:36Z</time>
      </trkpt>
      <trkpt lat="44.44137" lon="3.0055">
        <ele>696</ele>
        <time>2021-08-27T08:50:38Z</time>
      </trkpt>
      <trkpt lat="44.44156" lon="3.00552">
        <ele>695</ele>
        <time>2021-08-27T08:50:41Z</time>
      </trkpt>
      <trkpt lat="44.44173" lon="3.00547">
        <ele>694</ele>
        <time>2021-08-27T08:50:44Z</time>
      </trkpt>
      <trkpt lat="44.44191" lon="3.00538">
        <ele>694</ele>
        <time>2021-08-27T08:50:47Z</time>
      </trkpt>
      <trkpt lat="44.442" lon="3.00529">
        <ele>693</ele>
        <time>2021-08-27T08:50:49Z</time>
      </trkpt>
      <trkpt lat="44.44211" lon="3.00509">
        <ele>691</ele>
        <time>2021-08-27T08:50:52Z</time>
      </trkpt>
      <trkpt lat="44.44224" lon="3.00452">
        <ele>687</ele>
        <time>2021-08-27T08:50:59Z</time>
      </trkpt>
      <trkpt lat="44.44227" lon="3.00447">
        <ele>687</ele>
        <time>2021-08-27T08:51:00Z</time>
      </trkpt>
      <trkpt lat="44.44232" lon="3.00443">
        <ele>686</ele>
        <time>2021-08-27T08:51:01Z</time>
      </trkpt>
      <trkpt lat="44.44254" lon="3.00439">
        <ele>686</ele>
        <time>2021-08-27T08:51:05Z</time>
      </trkpt>
      <trkpt lat="44.44304" lon="3.00408">
        <ele>684</ele>
        <time>2021-08-27T08:51:13Z</time>
      </trkpt>
      <trkpt lat="44.44484" lon="3.00284">
        <ele>678</ele>
        <time>2021-08-27T08:51:43Z</time>
      </trkpt>
      <trkpt lat="44.44508" lon="3.00264">
        <ele>678</ele>
        <time>2021-08-27T08:51:47Z</time>
      </trkpt>
      <trkpt lat="44.44518" lon="3.00252">
        <ele>678</ele>
        <time>2021-08-27T08:51:49Z</time>
      </trkpt>
      <trkpt lat="44.44525" lon="3.00236">
        <ele>678</ele>
        <time>2021-08-27T08:51:51Z</time>
      </trkpt>
      <trkpt lat="44.44552" lon="3.00103">
        <ele>673</ele>
        <time>2021-08-27T08:52:04Z</time>
      </trkpt>
      <trkpt lat="44.44553" lon="3.00082">
        <ele>672</ele>
        <time>2021-08-27T08:52:06Z</time>
      </trkpt>
      <trkpt lat="44.44551" lon="3.00061">
        <ele>671</ele>
        <time>2021-08-27T08:52:08Z</time>
      </trkpt>
      <trkpt lat="44.44542" lon="3.00029">
        <ele>669</ele>
        <time>2021-08-27T08:52:11Z</time>
      </trkpt>
      <trkpt lat="44.44517" lon="2.99968">
        <ele>665</ele>
        <time>2021-08-27T08:52:17Z</time>
      </trkpt>
      <trkpt lat="44.44475" lon="2.99802">
        <ele>653</ele>
        <time>2021-08-27T08:52:33Z</time>
      </trkpt>
      <trkpt lat="44.44475" lon="2.99791">
        <ele>652</ele>
        <time>2021-08-27T08:52:34Z</time>
      </trkpt>
      <trkpt lat="44.44485" lon="2.99745">
        <ele>651</ele>
        <time>2021-08-27T08:52:38Z</time>
      </trkpt>
      <trkpt lat="44.44548" lon="2.99543">
        <ele>647</ele>
        <time>2021-08-27T08:52:57Z</time>
      </trkpt>
      <trkpt lat="44.44552" lon="2.99536">
        <ele>647</ele>
        <time>2021-08-27T08:52:58Z</time>
      </trkpt>
      <trkpt lat="44.44558" lon="2.99531">
        <ele>645</ele>
        <time>2021-08-27T08:52:59Z</time>
      </trkpt>
      <trkpt lat="44.44565" lon="2.99527">
        <ele>644</ele>
        <time>2021-08-27T08:53:00Z</time>
      </trkpt>
      <trkpt lat="44.44581" lon="2.99524">
        <ele>644</ele>
        <time>2021-08-27T08:53:02Z</time>
      </trkpt>
      <trkpt lat="44.44647" lon="2.99544">
        <ele>640</ele>
        <time>2021-08-27T08:53:10Z</time>
      </trkpt>
      <trkpt lat="44.44692" lon="2.9954">
        <ele>638</ele>
        <time>2021-08-27T08:53:16Z</time>
      </trkpt>
      <trkpt lat="44.44704" lon="2.99535">
        <ele>636</ele>
        <time>2021-08-27T08:53:18Z</time>
      </trkpt>
      <trkpt lat="44.4471" lon="2.99529">
        <ele>636</ele>
        <time>2021-08-27T08:53:19Z</time>
      </trkpt>
      <trkpt lat="44.44715" lon="2.9952">
        <ele>635</ele>
        <time>2021-08-27T08:53:20Z</time>
      </trkpt>
      <trkpt lat="44.44719" lon="2.9951">
        <ele>635</ele>
        <time>2021-08-27T08:53:21Z</time>
      </trkpt>
      <trkpt lat="44.44719" lon="2.995">
        <ele>635</ele>
        <time>2021-08-27T08:53:22Z</time>
      </trkpt>
      <trkpt lat="44.44675" lon="2.99325">
        <ele>625</ele>
        <time>2021-08-27T08:53:40Z</time>
      </trkpt>
      <trkpt lat="44.44654" lon="2.99279">
        <ele>622</ele>
        <time>2021-08-27T08:53:45Z</time>
      </trkpt>
      <trkpt lat="44.44653" lon="2.9927">
        <ele>622</ele>
        <time>2021-08-27T08:53:46Z</time>
      </trkpt>
      <trkpt lat="44.44654" lon="2.99259">
        <ele>621</ele>
        <time>2021-08-27T08:53:47Z</time>
      </trkpt>
      <trkpt lat="44.44658" lon="2.99246">
        <ele>622</ele>
        <time>2021-08-27T08:53:48Z</time>
      </trkpt>
      <trkpt lat="44.44678" lon="2.99219">
        <ele>621</ele>
        <time>2021-08-27T08:53:51Z</time>
      </trkpt>
      <trkpt lat="44.44748" lon="2.99171">
        <ele>616</ele>
        <time>2021-08-27T08:54:00Z</time>
      </trkpt>
      <trkpt lat="44.4482" lon="2.99094">
        <ele>604</ele>
        <time>2021-08-27T08:54:11Z</time>
      </trkpt>
      <trkpt lat="44.44827" lon="2.9909">
        <ele>603</ele>
        <time>2021-08-27T08:54:12Z</time>
      </trkpt>
      <trkpt lat="44.44845" lon="2.99085">
        <ele>601</ele>
        <time>2021-08-27T08:54:15Z</time>
      </trkpt>
      <trkpt lat="44.44875" lon="2.99063">
        <ele>601</ele>
        <time>2021-08-27T08:54:19Z</time>
      </trkpt>
      <trkpt lat="44.44912" lon="2.99048">
        <ele>601</ele>
        <time>2021-08-27T08:54:24Z</time>
      </trkpt>
      <trkpt lat="44.44919" lon="2.99026">
        <ele>600</ele>
        <time>2021-08-27T08:54:27Z</time>
      </trkpt>
      <trkpt lat="44.44874" lon="2.99007">
        <ele>601</ele>
        <time>2021-08-27T08:54:34Z</time>
      </trkpt>
      <trkpt lat="44.44839" lon="2.98991">
        <ele>596</ele>
        <time>2021-08-27T08:54:39Z</time>
      </trkpt>
      <trkpt lat="44.44825" lon="2.98985">
        <ele>597</ele>
        <time>2021-08-27T08:54:41Z</time>
      </trkpt>
      <trkpt lat="44.44785" lon="2.99">
        <ele>597</ele>
        <time>2021-08-27T08:54:46Z</time>
      </trkpt>
      <trkpt lat="44.44772" lon="2.99006">
        <ele>597</ele>
        <time>2021-08-27T08:54:48Z</time>
      </trkpt>
      <trkpt lat="44.44757" lon="2.99003">
        <ele>597</ele>
        <time>2021-08-27T08:54:50Z</time>
      </trkpt>
      <trkpt lat="44.44735" lon="2.9899">
        <ele>595</ele>
        <time>2021-08-27T08:54:53Z</time>
      </trkpt>
      <trkpt lat="44.4464" lon="2.9894">
        <ele>592</ele>
        <time>2021-08-27T08:55:06Z</time>
      </trkpt>
      <trkpt lat="44.44635" lon="2.98936">
        <ele>591</ele>
        <time>2021-08-27T08:55:07Z</time>
      </trkpt>
      <trkpt lat="44.44632" lon="2.98928">
        <ele>591</ele>
        <time>2021-08-27T08:55:08Z</time>
      </trkpt>
      <trkpt lat="44.44629" lon="2.98921">
        <ele>591</ele>
        <time>2021-08-27T08:55:09Z</time>
      </trkpt>
      <trkpt lat="44.44627" lon="2.9889">
        <ele>589</ele>
        <time>2021-08-27T08:55:12Z</time>
      </trkpt>
      <trkpt lat="44.44639" lon="2.98835">
        <ele>585</ele>
        <time>2021-08-27T08:55:17Z</time>
      </trkpt>
      <trkpt lat="44.44643" lon="2.98826">
        <ele>584</ele>
        <time>2021-08-27T08:55:18Z</time>
      </trkpt>
      <trkpt lat="44.44662" lon="2.98796">
        <ele>580</ele>
        <time>2021-08-27T08:55:22Z</time>
      </trkpt>
      <trkpt lat="44.44673" lon="2.98785">
        <ele>579</ele>
        <time>2021-08-27T08:55:24Z</time>
      </trkpt>
      <trkpt lat="44.44701" lon="2.98769">
        <ele>575</ele>
        <time>2021-08-27T08:55:29Z</time>
      </trkpt>
      <trkpt lat="44.44719" lon="2.98758">
        <ele>573</ele>
        <time>2021-08-27T08:55:35Z</time>
      </trkpt>
      <trkpt lat="44.44744" lon="2.98733">
        <ele>565</ele>
        <time>2021-08-27T08:55:47Z</time>
      </trkpt>
      <trkpt lat="44.44747" lon="2.98723">
        <ele>567</ele>
        <time>2021-08-27T08:55:50Z</time>
      </trkpt>
      <trkpt lat="44.44758" lon="2.98706">
        <ele>567</ele>
        <time>2021-08-27T08:55:56Z</time>
      </trkpt>
      <trkpt lat="44.44767" lon="2.98683">
        <ele>567</ele>
        <time>2021-08-27T08:56:03Z</time>
      </trkpt>
      <trkpt lat="44.44769" lon="2.98675">
        <ele>567</ele>
        <time>2021-08-27T08:56:05Z</time>
      </trkpt>
      <trkpt lat="44.44769" lon="2.98667">
        <ele>566</ele>
        <time>2021-08-27T08:56:07Z</time>
      </trkpt>
      <trkpt lat="44.44745" lon="2.98623">
        <ele>562</ele>
        <time>2021-08-27T08:56:16Z</time>
      </trkpt>
      <trkpt lat="44.44733" lon="2.98607">
        <ele>560</ele>
        <time>2021-08-27T08:56:19Z</time>
      </trkpt>
      <trkpt lat="44.44724" lon="2.98589">
        <ele>560</ele>
        <time>2021-08-27T08:56:22Z</time>
      </trkpt>
      <trkpt lat="44.44721" lon="2.9858">
        <ele>559</ele>
        <time>2021-08-27T08:56:23Z</time>
      </trkpt>
      <trkpt lat="44.44719" lon="2.98572">
        <ele>559</ele>
        <time>2021-08-27T08:56:24Z</time>
      </trkpt>
      <trkpt lat="44.4472" lon="2.98563">
        <ele>558</ele>
        <time>2021-08-27T08:56:25Z</time>
      </trkpt>
      <trkpt lat="44.44722" lon="2.98555">
        <ele>558</ele>
        <time>2021-08-27T08:56:26Z</time>
      </trkpt>
      <trkpt lat="44.44735" lon="2.98531">
        <ele>557</ele>
        <time>2021-08-27T08:56:29Z</time>
      </trkpt>
      <trkpt lat="44.44752" lon="2.98518">
        <ele>555</ele>
        <time>2021-08-27T08:56:32Z</time>
      </trkpt>
      <trkpt lat="44.44764" lon="2.98515">
        <ele>554</ele>
        <time>2021-08-27T08:56:34Z</time>
      </trkpt>
      <trkpt lat="44.44793" lon="2.98513">
        <ele>554</ele>
        <time>2021-08-27T08:56:39Z</time>
      </trkpt>
      <trkpt lat="44.44807" lon="2.985">
        <ele>554</ele>
        <time>2021-08-27T08:56:42Z</time>
      </trkpt>
      <trkpt lat="44.44816" lon="2.98475">
        <ele>554</ele>
        <time>2021-08-27T08:56:45Z</time>
      </trkpt>
      <trkpt lat="44.44816" lon="2.98466">
        <ele>554</ele>
        <time>2021-08-27T08:56:46Z</time>
      </trkpt>
      <trkpt lat="44.44813" lon="2.98459">
        <ele>553</ele>
        <time>2021-08-27T08:56:47Z</time>
      </trkpt>
      <trkpt lat="44.4481" lon="2.98452">
        <ele>553</ele>
        <time>2021-08-27T08:56:48Z</time>
      </trkpt>
      <trkpt lat="44.44779" lon="2.98424">
        <ele>550</ele>
        <time>2021-08-27T08:56:53Z</time>
      </trkpt>
      <trkpt lat="44.44765" lon="2.98415">
        <ele>548</ele>
        <time>2021-08-27T08:56:55Z</time>
      </trkpt>
      <trkpt lat="44.44741" lon="2.98398">
        <ele>545</ele>
        <time>2021-08-27T08:56:59Z</time>
      </trkpt>
      <trkpt lat="44.44736" lon="2.98392">
        <ele>545</ele>
        <time>2021-08-27T08:57:00Z</time>
      </trkpt>
      <trkpt lat="44.44734" lon="2.98383">
        <ele>544</ele>
        <time>2021-08-27T08:57:01Z</time>
      </trkpt>
      <trkpt lat="44.44735" lon="2.98359">
        <ele>543</ele>
        <time>2021-08-27T08:57:03Z</time>
      </trkpt>
      <trkpt lat="44.44738" lon="2.98348">
        <ele>543</ele>
        <time>2021-08-27T08:57:04Z</time>
      </trkpt>
      <trkpt lat="44.44746" lon="2.98326">
        <ele>539</ele>
        <time>2021-08-27T08:57:06Z</time>
      </trkpt>
      <trkpt lat="44.44799" lon="2.98141">
        <ele>534</ele>
        <time>2021-08-27T08:57:23Z</time>
      </trkpt>
      <trkpt lat="44.44823" lon="2.98095">
        <ele>533</ele>
        <time>2021-08-27T08:57:28Z</time>
      </trkpt>
      <trkpt lat="44.44833" lon="2.98061">
        <ele>533</ele>
        <time>2021-08-27T08:57:31Z</time>
      </trkpt>
      <trkpt lat="44.44853" lon="2.97878">
        <ele>524</ele>
        <time>2021-08-27T08:57:50Z</time>
      </trkpt>
      <trkpt lat="44.44862" lon="2.97848">
        <ele>524</ele>
        <time>2021-08-27T08:57:53Z</time>
      </trkpt>
      <trkpt lat="44.44876" lon="2.97824">
        <ele>523</ele>
        <time>2021-08-27T08:57:56Z</time>
      </trkpt>
      <trkpt lat="44.44914" lon="2.97787">
        <ele>517</ele>
        <time>2021-08-27T08:58:05Z</time>
      </trkpt>
      <trkpt lat="44.44928" lon="2.97778">
        <ele>515</ele>
        <time>2021-08-27T08:58:08Z</time>
      </trkpt>
      <trkpt lat="44.45068" lon="2.97765">
        <ele>515</ele>
        <time>2021-08-27T08:58:26Z</time>
      </trkpt>
      <trkpt lat="44.4509" lon="2.97755">
        <ele>514</ele>
        <time>2021-08-27T08:58:29Z</time>
      </trkpt>
      <trkpt lat="44.45125" lon="2.97752">
        <ele>513</ele>
        <time>2021-08-27T08:58:33Z</time>
      </trkpt>
      <trkpt lat="44.45256" lon="2.9778">
        <ele>513</ele>
        <time>2021-08-27T08:58:48Z</time>
      </trkpt>
      <trkpt lat="44.45271" lon="2.97789">
        <ele>512</ele>
        <time>2021-08-27T08:58:50Z</time>
      </trkpt>
      <trkpt lat="44.45277" lon="2.97794">
        <ele>511</ele>
        <time>2021-08-27T08:58:51Z</time>
      </trkpt>
      <trkpt lat="44.45293" lon="2.97821">
        <ele>509</ele>
        <time>2021-08-27T08:58:54Z</time>
      </trkpt>
      <trkpt lat="44.45303" lon="2.97851">
        <ele>506</ele>
        <time>2021-08-27T08:58:57Z</time>
      </trkpt>
      <trkpt lat="44.45313" lon="2.97869">
        <ele>505</ele>
        <time>2021-08-27T08:58:59Z</time>
      </trkpt>
      <trkpt lat="44.45336" lon="2.97889">
        <ele>504</ele>
        <time>2021-08-27T08:59:03Z</time>
      </trkpt>
      <trkpt lat="44.45343" lon="2.97896">
        <ele>504</ele>
        <time>2021-08-27T08:59:04Z</time>
      </trkpt>
      <trkpt lat="44.45357" lon="2.97948">
        <ele>501</ele>
        <time>2021-08-27T08:59:09Z</time>
      </trkpt>
      <trkpt lat="44.4536" lon="2.97957">
        <ele>501</ele>
        <time>2021-08-27T08:59:10Z</time>
      </trkpt>
      <trkpt lat="44.4537" lon="2.97966">
        <ele>501</ele>
        <time>2021-08-27T08:59:12Z</time>
      </trkpt>
      <trkpt lat="44.45376" lon="2.97963">
        <ele>502</ele>
        <time>2021-08-27T08:59:13Z</time>
      </trkpt>
      <trkpt lat="44.45383" lon="2.97957">
        <ele>503</ele>
        <time>2021-08-27T08:59:14Z</time>
      </trkpt>
      <trkpt lat="44.454" lon="2.97836">
        <ele>497</ele>
        <time>2021-08-27T08:59:25Z</time>
      </trkpt>
      <trkpt lat="44.45404" lon="2.97827">
        <ele>497</ele>
        <time>2021-08-27T08:59:26Z</time>
      </trkpt>
      <trkpt lat="44.45409" lon="2.97819">
        <ele>496</ele>
        <time>2021-08-27T08:59:27Z</time>
      </trkpt>
      <trkpt lat="44.45416" lon="2.97815">
        <ele>496</ele>
        <time>2021-08-27T08:59:28Z</time>
      </trkpt>
      <trkpt lat="44.45434" lon="2.97816">
        <ele>494</ele>
        <time>2021-08-27T08:59:30Z</time>
      </trkpt>
      <trkpt lat="44.45442" lon="2.97819">
        <ele>493</ele>
        <time>2021-08-27T08:59:31Z</time>
      </trkpt>
      <trkpt lat="44.45468" lon="2.9784">
        <ele>493</ele>
        <time>2021-08-27T08:59:34Z</time>
      </trkpt>
      <trkpt lat="44.45483" lon="2.97861">
        <ele>491</ele>
        <time>2021-08-27T08:59:36Z</time>
      </trkpt>
      <trkpt lat="44.45491" lon="2.97869">
        <ele>491</ele>
        <time>2021-08-27T08:59:37Z</time>
      </trkpt>
      <trkpt lat="44.45499" lon="2.97877">
        <ele>489</ele>
        <time>2021-08-27T08:59:38Z</time>
      </trkpt>
      <trkpt lat="44.45517" lon="2.97881">
        <ele>486</ele>
        <time>2021-08-27T08:59:40Z</time>
      </trkpt>
      <trkpt lat="44.45572" lon="2.97866">
        <ele>478</ele>
        <time>2021-08-27T08:59:47Z</time>
      </trkpt>
      <trkpt lat="44.45593" lon="2.97848">
        <ele>475</ele>
        <time>2021-08-27T08:59:50Z</time>
      </trkpt>
      <trkpt lat="44.45615" lon="2.9783">
        <ele>472</ele>
        <time>2021-08-27T08:59:53Z</time>
      </trkpt>
      <trkpt lat="44.45631" lon="2.97821">
        <ele>472</ele>
        <time>2021-08-27T08:59:55Z</time>
      </trkpt>
      <trkpt lat="44.4567" lon="2.9783">
        <ele>470</ele>
        <time>2021-08-27T09:00:00Z</time>
      </trkpt>
      <trkpt lat="44.45685" lon="2.97843">
        <ele>468</ele>
        <time>2021-08-27T09:00:02Z</time>
      </trkpt>
      <trkpt lat="44.45701" lon="2.97865">
        <ele>465</ele>
        <time>2021-08-27T09:00:05Z</time>
      </trkpt>
      <trkpt lat="44.45715" lon="2.97875">
        <ele>464</ele>
        <time>2021-08-27T09:00:07Z</time>
      </trkpt>
      <trkpt lat="44.45788" lon="2.97879">
        <ele>462</ele>
        <time>2021-08-27T09:00:15Z</time>
      </trkpt>
      <trkpt lat="44.45796" lon="2.97883">
        <ele>462</ele>
        <time>2021-08-27T09:00:16Z</time>
      </trkpt>
      <trkpt lat="44.45803" lon="2.9789">
        <ele>462</ele>
        <time>2021-08-27T09:00:17Z</time>
      </trkpt>
      <trkpt lat="44.4582" lon="2.97932">
        <ele>459</ele>
        <time>2021-08-27T09:00:21Z</time>
      </trkpt>
      <trkpt lat="44.45824" lon="2.97942">
        <ele>458</ele>
        <time>2021-08-27T09:00:22Z</time>
      </trkpt>
      <trkpt lat="44.45832" lon="2.9795">
        <ele>458</ele>
        <time>2021-08-27T09:00:23Z</time>
      </trkpt>
      <trkpt lat="44.4584" lon="2.97955">
        <ele>458</ele>
        <time>2021-08-27T09:00:24Z</time>
      </trkpt>
      <trkpt lat="44.45852" lon="2.97956">
        <ele>456</ele>
        <time>2021-08-27T09:00:26Z</time>
      </trkpt>
      <trkpt lat="44.45862" lon="2.97951">
        <ele>455</ele>
        <time>2021-08-27T09:00:28Z</time>
      </trkpt>
      <trkpt lat="44.45873" lon="2.9794">
        <ele>455</ele>
        <time>2021-08-27T09:00:30Z</time>
      </trkpt>
      <trkpt lat="44.45877" lon="2.97927">
        <ele>454</ele>
        <time>2021-08-27T09:00:32Z</time>
      </trkpt>
      <trkpt lat="44.4589" lon="2.97888">
        <ele>450</ele>
        <time>2021-08-27T09:00:38Z</time>
      </trkpt>
      <trkpt lat="44.45893" lon="2.97882">
        <ele>449</ele>
        <time>2021-08-27T09:00:39Z</time>
      </trkpt>
      <trkpt lat="44.45966" lon="2.97809">
        <ele>440</ele>
        <time>2021-08-27T09:01:01Z</time>
      </trkpt>
      <trkpt lat="44.45992" lon="2.97792">
        <ele>438</ele>
        <time>2021-08-27T09:01:09Z</time>
      </trkpt>
      <trkpt lat="44.46001" lon="2.97785">
        <ele>438</ele>
        <time>2021-08-27T09:01:13Z</time>
      </trkpt>
      <trkpt lat="44.4601" lon="2.97778">
        <ele>437</ele>
        <time>2021-08-27T09:01:17Z</time>
      </trkpt>
      <trkpt lat="44.4602" lon="2.97771">
        <ele>436</ele>
        <time>2021-08-27T09:01:21Z</time>
      </trkpt>
      <trkpt lat="44.46042" lon="2.97754">
        <ele>433</ele>
        <time>2021-08-27T09:01:27Z</time>
      </trkpt>
      <trkpt lat="44.46056" lon="2.9774">
        <ele>431</ele>
        <time>2021-08-27T09:01:31Z</time>
      </trkpt>
      <trkpt lat="44.461" lon="2.97708">
        <ele>427</ele>
        <time>2021-08-27T09:01:42Z</time>
      </trkpt>
      <trkpt lat="44.46108" lon="2.977">
        <ele>427</ele>
        <time>2021-08-27T09:01:44Z</time>
      </trkpt>
      <trkpt lat="44.46189" lon="2.97641">
        <ele>428</ele>
        <time>2021-08-27T09:02:04Z</time>
      </trkpt>
      <trkpt lat="44.46197" lon="2.97631">
        <ele>428</ele>
        <time>2021-08-27T09:02:06Z</time>
      </trkpt>
      <trkpt lat="44.46325" lon="2.97528">
        <ele>421</ele>
        <time>2021-08-27T09:02:38Z</time>
      </trkpt>
      <trkpt lat="44.46333" lon="2.97524">
        <ele>422</ele>
        <time>2021-08-27T09:02:40Z</time>
      </trkpt>
      <trkpt lat="44.4634" lon="2.97519">
        <ele>422</ele>
        <time>2021-08-27T09:02:42Z</time>
      </trkpt>
      <trkpt lat="44.46351" lon="2.97508">
        <ele>422</ele>
        <time>2021-08-27T09:02:46Z</time>
      </trkpt>
      <trkpt lat="44.4636" lon="2.97503">
        <ele>423</ele>
        <time>2021-08-27T09:03:59Z</time>
      </trkpt>
      <trkpt lat="44.46365" lon="2.97502">
        <ele>423</ele>
        <time>2021-08-27T09:04:01Z</time>
      </trkpt>
      <trkpt lat="44.4637" lon="2.97501">
        <ele>423</ele>
        <time>2021-08-27T09:04:03Z</time>
      </trkpt>
      <trkpt lat="44.46375" lon="2.97495">
        <ele>423</ele>
        <time>2021-08-27T09:04:06Z</time>
      </trkpt>
      <trkpt lat="44.46379" lon="2.97488">
        <ele>423</ele>
        <time>2021-08-27T09:04:08Z</time>
      </trkpt>
      <trkpt lat="44.46385" lon="2.9747">
        <ele>423</ele>
        <time>2021-08-27T09:04:12Z</time>
      </trkpt>
      <trkpt lat="44.46389" lon="2.97461">
        <ele>422</ele>
        <time>2021-08-27T09:04:14Z</time>
      </trkpt>
      <trkpt lat="44.46405" lon="2.97453">
        <ele>421</ele>
        <time>2021-08-27T09:04:20Z</time>
      </trkpt>
      <trkpt lat="44.46452" lon="2.97448">
        <ele>421</ele>
        <time>2021-08-27T09:04:55Z</time>
      </trkpt>
      <trkpt lat="44.46458" lon="2.97445">
        <ele>422</ele>
        <time>2021-08-27T09:04:58Z</time>
      </trkpt>
      <trkpt lat="44.46468" lon="2.97442">
        <ele>420</ele>
        <time>2021-08-27T09:05:02Z</time>
      </trkpt>
      <trkpt lat="44.46473" lon="2.97443">
        <ele>419</ele>
        <time>2021-08-27T09:05:04Z</time>
      </trkpt>
      <trkpt lat="44.46478" lon="2.9744">
        <ele>419</ele>
        <time>2021-08-27T09:05:06Z</time>
      </trkpt>
      <trkpt lat="44.46493" lon="2.97416">
        <ele>410</ele>
        <time>2021-08-27T09:05:17Z</time>
      </trkpt>
      <trkpt lat="44.46504" lon="2.97408">
        <ele>408</ele>
        <time>2021-08-27T09:05:21Z</time>
      </trkpt>
      <trkpt lat="44.46514" lon="2.97397">
        <ele>405</ele>
        <time>2021-08-27T09:05:26Z</time>
      </trkpt>
      <trkpt lat="44.46521" lon="2.97391">
        <ele>402</ele>
        <time>2021-08-27T09:05:29Z</time>
      </trkpt>
      <trkpt lat="44.46524" lon="2.97386">
        <ele>401</ele>
        <time>2021-08-27T09:05:31Z</time>
      </trkpt>
      <trkpt lat="44.46529" lon="2.9738">
        <ele>398</ele>
        <time>2021-08-27T09:05:34Z</time>
      </trkpt>
      <trkpt lat="44.46537" lon="2.97377">
        <ele>396</ele>
        <time>2021-08-27T09:05:37Z</time>
      </trkpt>
      <trkpt lat="44.46546" lon="2.97375">
        <ele>394</ele>
        <time>2021-08-27T09:05:39Z</time>
      </trkpt>
      <trkpt lat="44.4655" lon="2.97369">
        <ele>395</ele>
        <time>2021-08-27T09:05:44Z</time>
      </trkpt>
      <trkpt lat="44.46555" lon="2.97367">
        <ele>397</ele>
        <time>2021-08-27T09:05:49Z</time>
      </trkpt>
      <trkpt lat="44.46561" lon="2.97365">
        <ele>398</ele>
        <time>2021-08-27T09:05:53Z</time>
      </trkpt>
      <trkpt lat="44.46563" lon="2.97372">
        <ele>400</ele>
        <time>2021-08-27T09:06:24Z</time>
      </trkpt>
      <trkpt lat="44.46566" lon="2.97386">
        <ele>404</ele>
        <time>2021-08-27T09:06:34Z</time>
      </trkpt>
      <trkpt lat="44.46584" lon="2.97403">
        <ele>406</ele>
        <time>2021-08-27T09:06:48Z</time>
      </trkpt>
      <trkpt lat="44.46588" lon="2.97406">
        <ele>406</ele>
        <time>2021-08-27T09:06:51Z</time>
      </trkpt>
      <trkpt lat="44.46593" lon="2.97403">
        <ele>406</ele>
        <time>2021-08-27T09:06:54Z</time>
      </trkpt>
      <trkpt lat="44.46601" lon="2.97392">
        <ele>407</ele>
        <time>2021-08-27T09:07:00Z</time>
      </trkpt>
      <trkpt lat="44.46628" lon="2.9738">
        <ele>407</ele>
        <time>2021-08-27T09:07:22Z</time>
      </trkpt>
      <trkpt lat="44.46638" lon="2.97373">
        <ele>410</ele>
        <time>2021-08-27T09:07:34Z</time>
      </trkpt>
      <trkpt lat="44.46642" lon="2.97372">
        <ele>412</ele>
        <time>2021-08-27T09:07:37Z</time>
      </trkpt>
      <trkpt lat="44.46652" lon="2.97366">
        <ele>412</ele>
        <time>2021-08-27T09:07:48Z</time>
      </trkpt>
      <trkpt lat="44.46656" lon="2.97362">
        <ele>411</ele>
        <time>2021-08-27T09:08:00Z</time>
      </trkpt>
      <trkpt lat="44.46687" lon="2.97332">
        <ele>408</ele>
        <time>2021-08-27T09:08:17Z</time>
      </trkpt>
      <trkpt lat="44.46699" lon="2.97327">
        <ele>408</ele>
        <time>2021-08-27T09:08:24Z</time>
      </trkpt>
      <trkpt lat="44.46703" lon="2.97324">
        <ele>409</ele>
        <time>2021-08-27T09:08:28Z</time>
      </trkpt>
      <trkpt lat="44.4671" lon="2.9732">
        <ele>410</ele>
        <time>2021-08-27T09:08:35Z</time>
      </trkpt>
      <trkpt lat="44.4671" lon="2.97317">
        <ele>418</ele>
        <time>2021-08-27T09:23:44Z</time>
      </trkpt>
      <trkpt lat="44.46708" lon="2.97318">
        <ele>418</ele>
        <time>2021-08-27T09:24:06Z</time>
      </trkpt>
      <trkpt lat="44.46704" lon="2.97325">
        <ele>418</ele>
        <time>2021-08-27T09:24:17Z</time>
      </trkpt>
      <trkpt lat="44.46694" lon="2.97336">
        <ele>426</ele>
        <time>2021-08-27T09:24:23Z</time>
      </trkpt>
      <trkpt lat="44.46689" lon="2.9734">
        <ele>426</ele>
        <time>2021-08-27T09:24:25Z</time>
      </trkpt>
      <trkpt lat="44.46667" lon="2.97357">
        <ele>430</ele>
        <time>2021-08-27T09:24:36Z</time>
      </trkpt>
      <trkpt lat="44.46663" lon="2.97337">
        <ele>427</ele>
        <time>2021-08-27T09:24:49Z</time>
      </trkpt>
      <trkpt lat="44.46667" lon="2.97334">
        <ele>427</ele>
        <time>2021-08-27T09:24:52Z</time>
      </trkpt>
      <trkpt lat="44.46656" lon="2.97322">
        <ele>425</ele>
        <time>2021-08-27T09:24:59Z</time>
      </trkpt>
      <trkpt lat="44.46643" lon="2.97317">
        <ele>422</ele>
        <time>2021-08-27T09:25:03Z</time>
      </trkpt>
      <trkpt lat="44.46639" lon="2.9731">
        <ele>419</ele>
        <time>2021-08-27T09:25:05Z</time>
      </trkpt>
      <trkpt lat="44.46636" lon="2.97292">
        <ele>417</ele>
        <time>2021-08-27T09:25:09Z</time>
      </trkpt>
      <trkpt lat="44.46636" lon="2.97285">
        <ele>416</ele>
        <time>2021-08-27T09:25:12Z</time>
      </trkpt>
      <trkpt lat="44.46636" lon="2.97277">
        <ele>415</ele>
        <time>2021-08-27T09:25:15Z</time>
      </trkpt>
      <trkpt lat="44.46633" lon="2.97269">
        <ele>415</ele>
        <time>2021-08-27T09:25:17Z</time>
      </trkpt>
      <trkpt lat="44.46631" lon="2.9726">
        <ele>414</ele>
        <time>2021-08-27T09:25:19Z</time>
      </trkpt>
      <trkpt lat="44.4663" lon="2.97228">
        <ele>407</ele>
        <time>2021-08-27T09:25:28Z</time>
      </trkpt>
      <trkpt lat="44.46632" lon="2.97221">
        <ele>407</ele>
        <time>2021-08-27T09:25:31Z</time>
      </trkpt>
      <trkpt lat="44.46636" lon="2.97215">
        <ele>408</ele>
        <time>2021-08-27T09:25:35Z</time>
      </trkpt>
      <trkpt lat="44.46642" lon="2.97211">
        <ele>411</ele>
        <time>2021-08-27T09:25:38Z</time>
      </trkpt>
      <trkpt lat="44.46646" lon="2.97208">
        <ele>413</ele>
        <time>2021-08-27T09:25:40Z</time>
      </trkpt>
      <trkpt lat="44.4665" lon="2.97204">
        <ele>414</ele>
        <time>2021-08-27T09:25:42Z</time>
      </trkpt>
      <trkpt lat="44.46682" lon="2.97171">
        <ele>423</ele>
        <time>2021-08-27T09:26:02Z</time>
      </trkpt>
      <trkpt lat="44.4669" lon="2.97159">
        <ele>423</ele>
        <time>2021-08-27T09:26:06Z</time>
      </trkpt>
      <trkpt lat="44.46695" lon="2.97156">
        <ele>422</ele>
        <time>2021-08-27T09:26:08Z</time>
      </trkpt>
      <trkpt lat="44.46693" lon="2.97149">
        <ele>422</ele>
        <time>2021-08-27T09:26:13Z</time>
      </trkpt>
      <trkpt lat="44.4667" lon="2.97119">
        <ele>418</ele>
        <time>2021-08-27T09:26:30Z</time>
      </trkpt>
      <trkpt lat="44.46663" lon="2.97107">
        <ele>414</ele>
        <time>2021-08-27T09:26:34Z</time>
      </trkpt>
      <trkpt lat="44.46657" lon="2.97101">
        <ele>409</ele>
        <time>2021-08-27T09:26:37Z</time>
      </trkpt>
      <trkpt lat="44.46653" lon="2.97094">
        <ele>408</ele>
        <time>2021-08-27T09:26:40Z</time>
      </trkpt>
      <trkpt lat="44.46643" lon="2.97087">
        <ele>407</ele>
        <time>2021-08-27T09:26:46Z</time>
      </trkpt>
      <trkpt lat="44.46635" lon="2.97083">
        <ele>405</ele>
        <time>2021-08-27T09:26:50Z</time>
      </trkpt>
      <trkpt lat="44.46628" lon="2.97076">
        <ele>404</ele>
        <time>2021-08-27T09:26:53Z</time>
      </trkpt>
      <trkpt lat="44.46616" lon="2.97066">
        <ele>400</ele>
        <time>2021-08-27T09:26:58Z</time>
      </trkpt>
      <trkpt lat="44.46612" lon="2.97059">
        <ele>399</ele>
        <time>2021-08-27T09:27:00Z</time>
      </trkpt>
      <trkpt lat="44.46608" lon="2.97054">
        <ele>398</ele>
        <time>2021-08-27T09:27:02Z</time>
      </trkpt>
      <trkpt lat="44.46592" lon="2.9704">
        <ele>396</ele>
        <time>2021-08-27T09:27:08Z</time>
      </trkpt>
      <trkpt lat="44.46581" lon="2.97033">
        <ele>395</ele>
        <time>2021-08-27T09:27:12Z</time>
      </trkpt>
      <trkpt lat="44.46524" lon="2.96966">
        <ele>394</ele>
        <time>2021-08-27T09:27:35Z</time>
      </trkpt>
      <trkpt lat="44.46519" lon="2.96961">
        <ele>392</ele>
        <time>2021-08-27T09:27:37Z</time>
      </trkpt>
      <trkpt lat="44.46515" lon="2.96958">
        <ele>392</ele>
        <time>2021-08-27T09:27:39Z</time>
      </trkpt>
      <trkpt lat="44.46511" lon="2.96953">
        <ele>396</ele>
        <time>2021-08-27T09:27:42Z</time>
      </trkpt>
      <trkpt lat="44.46516" lon="2.96951">
        <ele>400</ele>
        <time>2021-08-27T09:29:08Z</time>
      </trkpt>
      <trkpt lat="44.46518" lon="2.96944">
        <ele>405</ele>
        <time>2021-08-27T09:29:18Z</time>
      </trkpt>
      <trkpt lat="44.46512" lon="2.96931">
        <ele>406</ele>
        <time>2021-08-27T09:29:23Z</time>
      </trkpt>
      <trkpt lat="44.46508" lon="2.96928">
        <ele>406</ele>
        <time>2021-08-27T09:29:25Z</time>
      </trkpt>
      <trkpt lat="44.46504" lon="2.96921">
        <ele>407</ele>
        <time>2021-08-27T09:29:28Z</time>
      </trkpt>
      <trkpt lat="44.46479" lon="2.96829">
        <ele>410</ele>
        <time>2021-08-27T09:29:58Z</time>
      </trkpt>
      <trkpt lat="44.46472" lon="2.96819">
        <ele>410</ele>
        <time>2021-08-27T09:30:02Z</time>
      </trkpt>
      <trkpt lat="44.46452" lon="2.9676">
        <ele>411</ele>
        <time>2021-08-27T09:30:22Z</time>
      </trkpt>
      <trkpt lat="44.4645" lon="2.96731">
        <ele>408</ele>
        <time>2021-08-27T09:30:30Z</time>
      </trkpt>
      <trkpt lat="44.46449" lon="2.96723">
        <ele>408</ele>
        <time>2021-08-27T09:30:32Z</time>
      </trkpt>
      <trkpt lat="44.46418" lon="2.96661">
        <ele>414</ele>
        <time>2021-08-27T09:30:52Z</time>
      </trkpt>
      <trkpt lat="44.46416" lon="2.96654">
        <ele>415</ele>
        <time>2021-08-27T09:30:54Z</time>
      </trkpt>
      <trkpt lat="44.46415" lon="2.96631">
        <ele>417</ele>
        <time>2021-08-27T09:31:01Z</time>
      </trkpt>
      <trkpt lat="44.46416" lon="2.96624">
        <ele>418</ele>
        <time>2021-08-27T09:31:04Z</time>
      </trkpt>
      <trkpt lat="44.46417" lon="2.96617">
        <ele>420</ele>
        <time>2021-08-27T09:31:28Z</time>
      </trkpt>
      <trkpt lat="44.46442" lon="2.96603">
        <ele>425</ele>
        <time>2021-08-27T09:31:39Z</time>
      </trkpt>
      <trkpt lat="44.46453" lon="2.96602">
        <ele>426</ele>
        <time>2021-08-27T09:31:44Z</time>
      </trkpt>
      <trkpt lat="44.46457" lon="2.96597">
        <ele>426</ele>
        <time>2021-08-27T09:31:48Z</time>
      </trkpt>
      <trkpt lat="44.46462" lon="2.96598">
        <ele>424</ele>
        <time>2021-08-27T09:32:47Z</time>
      </trkpt>
      <trkpt lat="44.46461" lon="2.9659">
        <ele>423</ele>
        <time>2021-08-27T09:33:29Z</time>
      </trkpt>
      <trkpt lat="44.46466" lon="2.96584">
        <ele>423</ele>
        <time>2021-08-27T09:33:31Z</time>
      </trkpt>
      <trkpt lat="44.46474" lon="2.96569">
        <ele>424</ele>
        <time>2021-08-27T09:33:35Z</time>
      </trkpt>
      <trkpt lat="44.46481" lon="2.96551">
        <ele>427</ele>
        <time>2021-08-27T09:33:39Z</time>
      </trkpt>
      <trkpt lat="44.46486" lon="2.96524">
        <ele>428</ele>
        <time>2021-08-27T09:33:45Z</time>
      </trkpt>
      <trkpt lat="44.46482" lon="2.9635">
        <ele>428</ele>
        <time>2021-08-27T09:34:17Z</time>
      </trkpt>
      <trkpt lat="44.46477" lon="2.96156">
        <ele>435</ele>
        <time>2021-08-27T09:34:47Z</time>
      </trkpt>
      <trkpt lat="44.46469" lon="2.9598">
        <ele>435</ele>
        <time>2021-08-27T09:35:14Z</time>
      </trkpt>
      <trkpt lat="44.46454" lon="2.95852">
        <ele>436</ele>
        <time>2021-08-27T09:35:42Z</time>
      </trkpt>
      <trkpt lat="44.4646" lon="2.95719">
        <ele>430</ele>
        <time>2021-08-27T09:36:12Z</time>
      </trkpt>
      <trkpt lat="44.46463" lon="2.95554">
        <ele>435</ele>
        <time>2021-08-27T09:36:43Z</time>
      </trkpt>
      <trkpt lat="44.4647" lon="2.9546">
        <ele>433</ele>
        <time>2021-08-27T09:36:53Z</time>
      </trkpt>
      <trkpt lat="44.46481" lon="2.95416">
        <ele>433</ele>
        <time>2021-08-27T09:36:57Z</time>
      </trkpt>
      <trkpt lat="44.46509" lon="2.95356">
        <ele>434</ele>
        <time>2021-08-27T09:37:03Z</time>
      </trkpt>
      <trkpt lat="44.46567" lon="2.95246">
        <ele>433</ele>
        <time>2021-08-27T09:37:17Z</time>
      </trkpt>
      <trkpt lat="44.4661" lon="2.95081">
        <ele>432</ele>
        <time>2021-08-27T09:37:41Z</time>
      </trkpt>
      <trkpt lat="44.46614" lon="2.95061">
        <ele>432</ele>
        <time>2021-08-27T09:37:44Z</time>
      </trkpt>
      <trkpt lat="44.46615" lon="2.95026">
        <ele>433</ele>
        <time>2021-08-27T09:37:50Z</time>
      </trkpt>
      <trkpt lat="44.46614" lon="2.94955">
        <ele>433</ele>
        <time>2021-08-27T09:38:02Z</time>
      </trkpt>
      <trkpt lat="44.46616" lon="2.94931">
        <ele>434</ele>
        <time>2021-08-27T09:38:06Z</time>
      </trkpt>
      <trkpt lat="44.46617" lon="2.94921">
        <ele>434</ele>
        <time>2021-08-27T09:38:08Z</time>
      </trkpt>
      <trkpt lat="44.46618" lon="2.94912">
        <ele>435</ele>
        <time>2021-08-27T09:38:10Z</time>
      </trkpt>
      <trkpt lat="44.46614" lon="2.94905">
        <ele>435</ele>
        <time>2021-08-27T09:38:12Z</time>
      </trkpt>
      <trkpt lat="44.46597" lon="2.94897">
        <ele>437</ele>
        <time>2021-08-27T09:38:19Z</time>
      </trkpt>
      <trkpt lat="44.46592" lon="2.94893">
        <ele>438</ele>
        <time>2021-08-27T09:38:22Z</time>
      </trkpt>
      <trkpt lat="44.46587" lon="2.94889">
        <ele>439</ele>
        <time>2021-08-27T09:38:25Z</time>
      </trkpt>
      <trkpt lat="44.46587" lon="2.94882">
        <ele>439</ele>
        <time>2021-08-27T09:38:30Z</time>
      </trkpt>
      <trkpt lat="44.46592" lon="2.94874">
        <ele>439</ele>
        <time>2021-08-27T09:40:29Z</time>
      </trkpt>
      <trkpt lat="44.466" lon="2.94858">
        <ele>438</ele>
        <time>2021-08-27T09:40:32Z</time>
      </trkpt>
      <trkpt lat="44.46657" lon="2.94786">
        <ele>433</ele>
        <time>2021-08-27T09:40:44Z</time>
      </trkpt>
      <trkpt lat="44.4666" lon="2.9478">
        <ele>432</ele>
        <time>2021-08-27T09:40:45Z</time>
      </trkpt>
      <trkpt lat="44.4666" lon="2.94768">
        <ele>431</ele>
        <time>2021-08-27T09:40:47Z</time>
      </trkpt>
      <trkpt lat="44.46651" lon="2.94766">
        <ele>431</ele>
        <time>2021-08-27T09:40:49Z</time>
      </trkpt>
      <trkpt lat="44.46544" lon="2.94844">
        <ele>415</ele>
        <time>2021-08-27T09:41:10Z</time>
      </trkpt>
      <trkpt lat="44.46543" lon="2.94842">
        <ele>416</ele>
        <time>2021-08-27T09:41:38Z</time>
      </trkpt>
      <trkpt lat="44.46538" lon="2.94846">
        <ele>416</ele>
        <time>2021-08-27T09:41:41Z</time>
      </trkpt>
      <trkpt lat="44.46533" lon="2.94847">
        <ele>416</ele>
        <time>2021-08-27T09:41:43Z</time>
      </trkpt>
      <trkpt lat="44.46479" lon="2.9486">
        <ele>418</ele>
        <time>2021-08-27T09:42:08Z</time>
      </trkpt>
      <trkpt lat="44.46467" lon="2.94861">
        <ele>417</ele>
        <time>2021-08-27T09:42:12Z</time>
      </trkpt>
      <trkpt lat="44.46461" lon="2.94863">
        <ele>416</ele>
        <time>2021-08-27T09:42:14Z</time>
      </trkpt>
      <trkpt lat="44.46455" lon="2.94862">
        <ele>416</ele>
        <time>2021-08-27T09:42:16Z</time>
      </trkpt>
      <trkpt lat="44.46449" lon="2.94862">
        <ele>416</ele>
        <time>2021-08-27T09:42:18Z</time>
      </trkpt>
      <trkpt lat="44.46438" lon="2.94863">
        <ele>416</ele>
        <time>2021-08-27T09:42:22Z</time>
      </trkpt>
      <trkpt lat="44.46427" lon="2.94857">
        <ele>416</ele>
        <time>2021-08-27T09:42:26Z</time>
      </trkpt>
      <trkpt lat="44.46391" lon="2.9482">
        <ele>417</ele>
        <time>2021-08-27T09:42:43Z</time>
      </trkpt>
      <trkpt lat="44.4639" lon="2.94812">
        <ele>418</ele>
        <time>2021-08-27T09:42:48Z</time>
      </trkpt>
      <trkpt lat="44.46394" lon="2.94798">
        <ele>418</ele>
        <time>2021-08-27T09:42:53Z</time>
      </trkpt>
      <trkpt lat="44.46398" lon="2.94794">
        <ele>418</ele>
        <time>2021-08-27T09:42:57Z</time>
      </trkpt>
      <trkpt lat="44.46398" lon="2.94787">
        <ele>418</ele>
        <time>2021-08-27T09:43:16Z</time>
      </trkpt>
      <trkpt lat="44.464" lon="2.94772">
        <ele>417</ele>
        <time>2021-08-27T09:43:22Z</time>
      </trkpt>
      <trkpt lat="44.46413" lon="2.9474">
        <ele>413</ele>
        <time>2021-08-27T09:43:37Z</time>
      </trkpt>
      <trkpt lat="44.46422" lon="2.94706">
        <ele>401</ele>
        <time>2021-08-27T09:43:51Z</time>
      </trkpt>
      <trkpt lat="44.46425" lon="2.94701">
        <ele>400</ele>
        <time>2021-08-27T09:43:53Z</time>
      </trkpt>
      <trkpt lat="44.46428" lon="2.94693">
        <ele>401</ele>
        <time>2021-08-27T09:43:56Z</time>
      </trkpt>
      <trkpt lat="44.46429" lon="2.94686">
        <ele>400</ele>
        <time>2021-08-27T09:44:00Z</time>
      </trkpt>
      <trkpt lat="44.46428" lon="2.94673">
        <ele>398</ele>
        <time>2021-08-27T09:44:09Z</time>
      </trkpt>
      <trkpt lat="44.4643" lon="2.94629">
        <ele>392</ele>
        <time>2021-08-27T09:44:30Z</time>
      </trkpt>
      <trkpt lat="44.46432" lon="2.94622">
        <ele>393</ele>
        <time>2021-08-27T09:44:35Z</time>
      </trkpt>
      <trkpt lat="44.4643" lon="2.94615">
        <ele>393</ele>
        <time>2021-08-27T09:44:54Z</time>
      </trkpt>
      <trkpt lat="44.46426" lon="2.94613">
        <ele>395</ele>
        <time>2021-08-27T09:44:57Z</time>
      </trkpt>
      <trkpt lat="44.4642" lon="2.94613">
        <ele>397</ele>
        <time>2021-08-27T09:45:01Z</time>
      </trkpt>
      <trkpt lat="44.46416" lon="2.94619">
        <ele>399</ele>
        <time>2021-08-27T09:45:05Z</time>
      </trkpt>
      <trkpt lat="44.46404" lon="2.94621">
        <ele>400</ele>
        <time>2021-08-27T09:45:30Z</time>
      </trkpt>
      <trkpt lat="44.46388" lon="2.94611">
        <ele>398</ele>
        <time>2021-08-27T09:45:58Z</time>
      </trkpt>
      <trkpt lat="44.46388" lon="2.94604">
        <ele>405</ele>
        <time>2021-08-27T09:46:55Z</time>
      </trkpt>
      <trkpt lat="44.46389" lon="2.94597">
        <ele>405</ele>
        <time>2021-08-27T09:47:05Z</time>
      </trkpt>
      <trkpt lat="44.46392" lon="2.94591">
        <ele>407</ele>
        <time>2021-08-27T09:47:12Z</time>
      </trkpt>
      <trkpt lat="44.46395" lon="2.94585">
        <ele>408</ele>
        <time>2021-08-27T09:47:18Z</time>
      </trkpt>
      <trkpt lat="44.46395" lon="2.94578">
        <ele>410</ele>
        <time>2021-08-27T09:47:24Z</time>
      </trkpt>
      <trkpt lat="44.46395" lon="2.94572">
        <ele>411</ele>
        <time>2021-08-27T09:47:30Z</time>
      </trkpt>
      <trkpt lat="44.46394" lon="2.94565">
        <ele>413</ele>
        <time>2021-08-27T09:47:36Z</time>
      </trkpt>
      <trkpt lat="44.46389" lon="2.94561">
        <ele>413</ele>
        <time>2021-08-27T09:47:42Z</time>
      </trkpt>
      <trkpt lat="44.46386" lon="2.94557">
        <ele>414</ele>
        <time>2021-08-27T09:47:48Z</time>
      </trkpt>
      <trkpt lat="44.46389" lon="2.94545">
        <ele>415</ele>
        <time>2021-08-27T09:49:20Z</time>
      </trkpt>
      <trkpt lat="44.46399" lon="2.94511">
        <ele>415</ele>
        <time>2021-08-27T09:49:43Z</time>
      </trkpt>
      <trkpt lat="44.46403" lon="2.94507">
        <ele>416</ele>
        <time>2021-08-27T09:49:49Z</time>
      </trkpt>
      <trkpt lat="44.46407" lon="2.94503">
        <ele>416</ele>
        <time>2021-08-27T09:49:55Z</time>
      </trkpt>
      <trkpt lat="44.46421" lon="2.94511">
        <ele>418</ele>
        <time>2021-08-27T09:50:12Z</time>
      </trkpt>
      <trkpt lat="44.46426" lon="2.94512">
        <ele>417</ele>
        <time>2021-08-27T09:50:18Z</time>
      </trkpt>
      <trkpt lat="44.4643" lon="2.94517">
        <ele>416</ele>
        <time>2021-08-27T09:50:23Z</time>
      </trkpt>
      <trkpt lat="44.46433" lon="2.94521">
        <ele>415</ele>
        <time>2021-08-27T09:50:27Z</time>
      </trkpt>
      <trkpt lat="44.46437" lon="2.94526">
        <ele>414</ele>
        <time>2021-08-27T09:50:32Z</time>
      </trkpt>
      <trkpt lat="44.46439" lon="2.94533">
        <ele>414</ele>
        <time>2021-08-27T09:50:36Z</time>
      </trkpt>
      <trkpt lat="44.46445" lon="2.94543">
        <ele>410</ele>
        <time>2021-08-27T09:50:49Z</time>
      </trkpt>
      <trkpt lat="44.4645" lon="2.94545">
        <ele>410</ele>
        <time>2021-08-27T09:50:55Z</time>
      </trkpt>
      <trkpt lat="44.46455" lon="2.94547">
        <ele>410</ele>
        <time>2021-08-27T09:51:05Z</time>
      </trkpt>
      <trkpt lat="44.4646" lon="2.94548">
        <ele>410</ele>
        <time>2021-08-27T09:51:16Z</time>
      </trkpt>
      <trkpt lat="44.46461" lon="2.94555">
        <ele>413</ele>
        <time>2021-08-27T09:51:48Z</time>
      </trkpt>
      <trkpt lat="44.46461" lon="2.94571">
        <ele>416</ele>
        <time>2021-08-27T09:52:09Z</time>
      </trkpt>
      <trkpt lat="44.46462" lon="2.9458">
        <ele>417</ele>
        <time>2021-08-27T09:52:15Z</time>
      </trkpt>
      <trkpt lat="44.46467" lon="2.94586">
        <ele>418</ele>
        <time>2021-08-27T09:52:18Z</time>
      </trkpt>
      <trkpt lat="44.4647" lon="2.94592">
        <ele>421</ele>
        <time>2021-08-27T09:52:23Z</time>
      </trkpt>
      <trkpt lat="44.46475" lon="2.94605">
        <ele>423</ele>
        <time>2021-08-27T09:52:34Z</time>
      </trkpt>
      <trkpt lat="44.46477" lon="2.94611">
        <ele>423</ele>
        <time>2021-08-27T09:52:40Z</time>
      </trkpt>
      <trkpt lat="44.46482" lon="2.94613">
        <ele>422</ele>
        <time>2021-08-27T09:52:46Z</time>
      </trkpt>
      <trkpt lat="44.4649" lon="2.94631">
        <ele>422</ele>
        <time>2021-08-27T09:53:07Z</time>
      </trkpt>
      <trkpt lat="44.46501" lon="2.94632">
        <ele>423</ele>
        <time>2021-08-27T09:53:20Z</time>
      </trkpt>
      <trkpt lat="44.46497" lon="2.94631">
        <ele>422</ele>
        <time>2021-08-27T09:58:52Z</time>
      </trkpt>
      <trkpt lat="44.46493" lon="2.94626">
        <ele>422</ele>
        <time>2021-08-27T09:58:57Z</time>
      </trkpt>
      <trkpt lat="44.46483" lon="2.94622">
        <ele>417</ele>
        <time>2021-08-27T09:59:07Z</time>
      </trkpt>
      <trkpt lat="44.46478" lon="2.94622">
        <ele>418</ele>
        <time>2021-08-27T09:59:12Z</time>
      </trkpt>
      <trkpt lat="44.46473" lon="2.94621">
        <ele>418</ele>
        <time>2021-08-27T09:59:19Z</time>
      </trkpt>
      <trkpt lat="44.46468" lon="2.94624">
        <ele>418</ele>
        <time>2021-08-27T09:59:24Z</time>
      </trkpt>
      <trkpt lat="44.46454" lon="2.94624">
        <ele>418</ele>
        <time>2021-08-27T09:59:42Z</time>
      </trkpt>
      <trkpt lat="44.46451" lon="2.9462">
        <ele>418</ele>
        <time>2021-08-27T10:00:02Z</time>
      </trkpt>
      <trkpt lat="44.46446" lon="2.94619">
        <ele>418</ele>
        <time>2021-08-27T10:00:08Z</time>
      </trkpt>
      <trkpt lat="44.4644" lon="2.9462">
        <ele>417</ele>
        <time>2021-08-27T10:00:13Z</time>
      </trkpt>
      <trkpt lat="44.46435" lon="2.94621">
        <ele>415</ele>
        <time>2021-08-27T10:00:22Z</time>
      </trkpt>
      <trkpt lat="44.46431" lon="2.94619">
        <ele>413</ele>
        <time>2021-08-27T10:01:52Z</time>
      </trkpt>
      <trkpt lat="44.46431" lon="2.94592">
        <ele>413</ele>
        <time>2021-08-27T10:02:35Z</time>
      </trkpt>
      <trkpt lat="44.46427" lon="2.94598">
        <ele>412</ele>
        <time>2021-08-27T10:03:19Z</time>
      </trkpt>
      <trkpt lat="44.46427" lon="2.94614">
        <ele>413</ele>
        <time>2021-08-27T10:03:26Z</time>
      </trkpt>
      <trkpt lat="44.46426" lon="2.94622">
        <ele>413</ele>
        <time>2021-08-27T10:03:30Z</time>
      </trkpt>
      <trkpt lat="44.46426" lon="2.94629">
        <ele>414</ele>
        <time>2021-08-27T10:03:33Z</time>
      </trkpt>
      <trkpt lat="44.4643" lon="2.94643">
        <ele>413</ele>
        <time>2021-08-27T10:03:39Z</time>
      </trkpt>
      <trkpt lat="44.4643" lon="2.94659">
        <ele>411</ele>
        <time>2021-08-27T10:03:44Z</time>
      </trkpt>
      <trkpt lat="44.46433" lon="2.94665">
        <ele>410</ele>
        <time>2021-08-27T10:03:47Z</time>
      </trkpt>
      <trkpt lat="44.46434" lon="2.94672">
        <ele>410</ele>
        <time>2021-08-27T10:03:51Z</time>
      </trkpt>
      <trkpt lat="44.46437" lon="2.94678">
        <ele>409</ele>
        <time>2021-08-27T10:03:53Z</time>
      </trkpt>
      <trkpt lat="44.46441" lon="2.94686">
        <ele>406</ele>
        <time>2021-08-27T10:03:55Z</time>
      </trkpt>
      <trkpt lat="44.46442" lon="2.94694">
        <ele>403</ele>
        <time>2021-08-27T10:03:57Z</time>
      </trkpt>
      <trkpt lat="44.46439" lon="2.947">
        <ele>403</ele>
        <time>2021-08-27T10:03:59Z</time>
      </trkpt>
      <trkpt lat="44.46424" lon="2.94733">
        <ele>400</ele>
        <time>2021-08-27T10:04:11Z</time>
      </trkpt>
      <trkpt lat="44.46417" lon="2.94743">
        <ele>400</ele>
        <time>2021-08-27T10:04:15Z</time>
      </trkpt>
      <trkpt lat="44.46413" lon="2.9475">
        <ele>398</ele>
        <time>2021-08-27T10:04:18Z</time>
      </trkpt>
      <trkpt lat="44.4641" lon="2.94759">
        <ele>397</ele>
        <time>2021-08-27T10:04:21Z</time>
      </trkpt>
      <trkpt lat="44.46404" lon="2.94772">
        <ele>396</ele>
        <time>2021-08-27T10:04:25Z</time>
      </trkpt>
      <trkpt lat="44.46401" lon="2.9478">
        <ele>398</ele>
        <time>2021-08-27T10:04:27Z</time>
      </trkpt>
      <trkpt lat="44.46396" lon="2.94795">
        <ele>402</ele>
        <time>2021-08-27T10:04:31Z</time>
      </trkpt>
      <trkpt lat="44.46393" lon="2.94802">
        <ele>404</ele>
        <time>2021-08-27T10:04:33Z</time>
      </trkpt>
      <trkpt lat="44.46392" lon="2.9481">
        <ele>405</ele>
        <time>2021-08-27T10:04:35Z</time>
      </trkpt>
      <trkpt lat="44.46405" lon="2.94838">
        <ele>408</ele>
        <time>2021-08-27T10:04:43Z</time>
      </trkpt>
      <trkpt lat="44.46423" lon="2.94855">
        <ele>411</ele>
        <time>2021-08-27T10:04:49Z</time>
      </trkpt>
      <trkpt lat="44.46436" lon="2.94862">
        <ele>412</ele>
        <time>2021-08-27T10:04:53Z</time>
      </trkpt>
      <trkpt lat="44.46458" lon="2.94863">
        <ele>414</ele>
        <time>2021-08-27T10:04:59Z</time>
      </trkpt>
      <trkpt lat="44.46545" lon="2.94844">
        <ele>417</ele>
        <time>2021-08-27T10:05:27Z</time>
      </trkpt>
      <trkpt lat="44.4655" lon="2.94842">
        <ele>417</ele>
        <time>2021-08-27T10:05:29Z</time>
      </trkpt>
      <trkpt lat="44.46554" lon="2.94838">
        <ele>418</ele>
        <time>2021-08-27T10:05:31Z</time>
      </trkpt>
      <trkpt lat="44.46559" lon="2.94833">
        <ele>418</ele>
        <time>2021-08-27T10:05:34Z</time>
      </trkpt>
      <trkpt lat="44.46564" lon="2.94829">
        <ele>419</ele>
        <time>2021-08-27T10:05:37Z</time>
      </trkpt>
      <trkpt lat="44.46569" lon="2.94826">
        <ele>419</ele>
        <time>2021-08-27T10:05:40Z</time>
      </trkpt>
      <trkpt lat="44.46598" lon="2.94802">
        <ele>426</ele>
        <time>2021-08-27T10:05:58Z</time>
      </trkpt>
      <trkpt lat="44.46607" lon="2.94793">
        <ele>428</ele>
        <time>2021-08-27T10:06:04Z</time>
      </trkpt>
      <trkpt lat="44.46649" lon="2.94766">
        <ele>433</ele>
        <time>2021-08-27T10:06:28Z</time>
      </trkpt>
      <trkpt lat="44.46655" lon="2.94767">
        <ele>433</ele>
        <time>2021-08-27T10:06:31Z</time>
      </trkpt>
      <trkpt lat="44.46659" lon="2.94773">
        <ele>434</ele>
        <time>2021-08-27T10:06:34Z</time>
      </trkpt>
      <trkpt lat="44.46659" lon="2.9478">
        <ele>434</ele>
        <time>2021-08-27T10:06:36Z</time>
      </trkpt>
      <trkpt lat="44.46655" lon="2.94784">
        <ele>434</ele>
        <time>2021-08-27T10:06:38Z</time>
      </trkpt>
      <trkpt lat="44.46615" lon="2.94832">
        <ele>435</ele>
        <time>2021-08-27T10:07:08Z</time>
      </trkpt>
      <trkpt lat="44.46602" lon="2.94855">
        <ele>435</ele>
        <time>2021-08-27T10:07:20Z</time>
      </trkpt>
      <trkpt lat="44.46597" lon="2.94857">
        <ele>437</ele>
        <time>2021-08-27T10:07:23Z</time>
      </trkpt>
      <trkpt lat="44.46593" lon="2.94862">
        <ele>438</ele>
        <time>2021-08-27T10:07:26Z</time>
      </trkpt>
      <trkpt lat="44.4659" lon="2.94868">
        <ele>440</ele>
        <time>2021-08-27T10:07:29Z</time>
      </trkpt>
      <trkpt lat="44.46588" lon="2.94874">
        <ele>441</ele>
        <time>2021-08-27T10:07:32Z</time>
      </trkpt>
      <trkpt lat="44.46587" lon="2.94881">
        <ele>442</ele>
        <time>2021-08-27T10:07:35Z</time>
      </trkpt>
      <trkpt lat="44.46589" lon="2.94889">
        <ele>444</ele>
        <time>2021-08-27T10:07:38Z</time>
      </trkpt>
      <trkpt lat="44.46592" lon="2.94896">
        <ele>444</ele>
        <time>2021-08-27T10:07:41Z</time>
      </trkpt>
      <trkpt lat="44.46596" lon="2.94901">
        <ele>445</ele>
        <time>2021-08-27T10:07:44Z</time>
      </trkpt>
      <trkpt lat="44.46605" lon="2.94909">
        <ele>447</ele>
        <time>2021-08-27T10:07:51Z</time>
      </trkpt>
      <trkpt lat="44.46611" lon="2.9491">
        <ele>447</ele>
        <time>2021-08-27T10:08:36Z</time>
      </trkpt>
      <trkpt lat="44.46616" lon="2.94906">
        <ele>448</ele>
        <time>2021-08-27T10:08:39Z</time>
      </trkpt>
      <trkpt lat="44.46619" lon="2.949">
        <ele>448</ele>
        <time>2021-08-27T10:08:41Z</time>
      </trkpt>
      <trkpt lat="44.46622" lon="2.94886">
        <ele>448</ele>
        <time>2021-08-27T10:08:45Z</time>
      </trkpt>
      <trkpt lat="44.46683" lon="2.94777">
        <ele>445</ele>
        <time>2021-08-27T10:09:06Z</time>
      </trkpt>
      <trkpt lat="44.46705" lon="2.94747">
        <ele>444</ele>
        <time>2021-08-27T10:09:11Z</time>
      </trkpt>
      <trkpt lat="44.46882" lon="2.946">
        <ele>443</ele>
        <time>2021-08-27T10:09:41Z</time>
      </trkpt>
      <trkpt lat="44.46903" lon="2.9459">
        <ele>443</ele>
        <time>2021-08-27T10:09:44Z</time>
      </trkpt>
      <trkpt lat="44.47131" lon="2.94514">
        <ele>441</ele>
        <time>2021-08-27T10:10:15Z</time>
      </trkpt>
      <trkpt lat="44.47248" lon="2.9447">
        <ele>435</ele>
        <time>2021-08-27T10:10:31Z</time>
      </trkpt>
      <trkpt lat="44.47388" lon="2.9439">
        <ele>427</ele>
        <time>2021-08-27T10:10:50Z</time>
      </trkpt>
      <trkpt lat="44.47569" lon="2.94351">
        <ele>423</ele>
        <time>2021-08-27T10:11:16Z</time>
      </trkpt>
      <trkpt lat="44.47759" lon="2.94332">
        <ele>427</ele>
        <time>2021-08-27T10:11:46Z</time>
      </trkpt>
      <trkpt lat="44.47788" lon="2.94326">
        <ele>429</ele>
        <time>2021-08-27T10:11:51Z</time>
      </trkpt>
      <trkpt lat="44.47879" lon="2.94283">
        <ele>430</ele>
        <time>2021-08-27T10:12:06Z</time>
      </trkpt>
      <trkpt lat="44.47939" lon="2.9423">
        <ele>431</ele>
        <time>2021-08-27T10:12:18Z</time>
      </trkpt>
      <trkpt lat="44.48021" lon="2.94125">
        <ele>430</ele>
        <time>2021-08-27T10:12:36Z</time>
      </trkpt>
      <trkpt lat="44.48095" lon="2.93982">
        <ele>424</ele>
        <time>2021-08-27T10:12:57Z</time>
      </trkpt>
      <trkpt lat="44.48098" lon="2.93975">
        <ele>423</ele>
        <time>2021-08-27T10:12:58Z</time>
      </trkpt>
      <trkpt lat="44.48102" lon="2.93954">
        <ele>423</ele>
        <time>2021-08-27T10:13:01Z</time>
      </trkpt>
      <trkpt lat="44.48107" lon="2.93933">
        <ele>422</ele>
        <time>2021-08-27T10:13:04Z</time>
      </trkpt>
      <trkpt lat="44.48111" lon="2.93732">
        <ele>419</ele>
        <time>2021-08-27T10:13:26Z</time>
      </trkpt>
      <trkpt lat="44.481" lon="2.93527">
        <ele>412</ele>
        <time>2021-08-27T10:13:52Z</time>
      </trkpt>
      <trkpt lat="44.48081" lon="2.93469">
        <ele>411</ele>
        <time>2021-08-27T10:14:00Z</time>
      </trkpt>
      <trkpt lat="44.48067" lon="2.93443">
        <ele>412</ele>
        <time>2021-08-27T10:14:04Z</time>
      </trkpt>
      <trkpt lat="44.47993" lon="2.93336">
        <ele>419</ele>
        <time>2021-08-27T10:14:22Z</time>
      </trkpt>
      <trkpt lat="44.47973" lon="2.93315">
        <ele>418</ele>
        <time>2021-08-27T10:14:26Z</time>
      </trkpt>
      <trkpt lat="44.47869" lon="2.9326">
        <ele>412</ele>
        <time>2021-08-27T10:14:46Z</time>
      </trkpt>
      <trkpt lat="44.47722" lon="2.93247">
        <ele>415</ele>
        <time>2021-08-27T10:15:18Z</time>
      </trkpt>
      <trkpt lat="44.47632" lon="2.93244">
        <ele>420</ele>
        <time>2021-08-27T10:15:48Z</time>
      </trkpt>
      <trkpt lat="44.47598" lon="2.9325">
        <ele>422</ele>
        <time>2021-08-27T10:16:00Z</time>
      </trkpt>
      <trkpt lat="44.47553" lon="2.93255">
        <ele>428</ele>
        <time>2021-08-27T10:16:16Z</time>
      </trkpt>
      <trkpt lat="44.47512" lon="2.93261">
        <ele>428</ele>
        <time>2021-08-27T10:16:32Z</time>
      </trkpt>
      <trkpt lat="44.47487" lon="2.93255">
        <ele>432</ele>
        <time>2021-08-27T10:16:42Z</time>
      </trkpt>
      <trkpt lat="44.47453" lon="2.93232">
        <ele>435</ele>
        <time>2021-08-27T10:16:56Z</time>
      </trkpt>
      <trkpt lat="44.47441" lon="2.93219">
        <ele>436</ele>
        <time>2021-08-27T10:17:02Z</time>
      </trkpt>
      <trkpt lat="44.47432" lon="2.93201">
        <ele>436</ele>
        <time>2021-08-27T10:17:08Z</time>
      </trkpt>
      <trkpt lat="44.47426" lon="2.93189">
        <ele>437</ele>
        <time>2021-08-27T10:17:12Z</time>
      </trkpt>
      <trkpt lat="44.4742" lon="2.9315">
        <ele>442</ele>
        <time>2021-08-27T10:17:24Z</time>
      </trkpt>
      <trkpt lat="44.47423" lon="2.93129">
        <ele>443</ele>
        <time>2021-08-27T10:17:30Z</time>
      </trkpt>
      <trkpt lat="44.4743" lon="2.931">
        <ele>445</ele>
        <time>2021-08-27T10:17:38Z</time>
      </trkpt>
      <trkpt lat="44.47442" lon="2.93077">
        <ele>447</ele>
        <time>2021-08-27T10:17:46Z</time>
      </trkpt>
      <trkpt lat="44.47498" lon="2.93006">
        <ele>451</ele>
        <time>2021-08-27T10:18:16Z</time>
      </trkpt>
      <trkpt lat="44.47559" lon="2.92931">
        <ele>457</ele>
        <time>2021-08-27T10:18:48Z</time>
      </trkpt>
      <trkpt lat="44.47597" lon="2.9289">
        <ele>460</ele>
        <time>2021-08-27T10:19:06Z</time>
      </trkpt>
      <trkpt lat="44.47601" lon="2.92885">
        <ele>460</ele>
        <time>2021-08-27T10:19:08Z</time>
      </trkpt>
      <trkpt lat="44.47606" lon="2.92881">
        <ele>461</ele>
        <time>2021-08-27T10:19:10Z</time>
      </trkpt>
      <trkpt lat="44.47654" lon="2.92842">
        <ele>462</ele>
        <time>2021-08-27T10:19:30Z</time>
      </trkpt>
      <trkpt lat="44.47658" lon="2.92838">
        <ele>462</ele>
        <time>2021-08-27T10:19:32Z</time>
      </trkpt>
      <trkpt lat="44.47668" lon="2.92829">
        <ele>463</ele>
        <time>2021-08-27T10:19:36Z</time>
      </trkpt>
      <trkpt lat="44.47747" lon="2.92833">
        <ele>471</ele>
        <time>2021-08-27T10:20:06Z</time>
      </trkpt>
      <trkpt lat="44.47835" lon="2.92871">
        <ele>480</ele>
        <time>2021-08-27T10:20:38Z</time>
      </trkpt>
      <trkpt lat="44.47854" lon="2.92883">
        <ele>483</ele>
        <time>2021-08-27T10:20:44Z</time>
      </trkpt>
      <trkpt lat="44.47867" lon="2.92887">
        <ele>484</ele>
        <time>2021-08-27T10:20:49Z</time>
      </trkpt>
      <trkpt lat="44.47882" lon="2.92883">
        <ele>485</ele>
        <time>2021-08-27T10:20:52Z</time>
      </trkpt>
      <trkpt lat="44.4793" lon="2.92862">
        <ele>488</ele>
        <time>2021-08-27T10:21:04Z</time>
      </trkpt>
      <trkpt lat="44.4797" lon="2.92866">
        <ele>487</ele>
        <time>2021-08-27T10:21:13Z</time>
      </trkpt>
      <trkpt lat="44.48101" lon="2.92899">
        <ele>499</ele>
        <time>2021-08-27T10:21:43Z</time>
      </trkpt>
      <trkpt lat="44.48223" lon="2.92936">
        <ele>496</ele>
        <time>2021-08-27T10:22:11Z</time>
      </trkpt>
      <trkpt lat="44.48281" lon="2.92955">
        <ele>491</ele>
        <time>2021-08-27T10:22:23Z</time>
      </trkpt>
      <trkpt lat="44.48303" lon="2.92976">
        <ele>492</ele>
        <time>2021-08-27T10:22:29Z</time>
      </trkpt>
      <trkpt lat="44.48367" lon="2.93055">
        <ele>490</ele>
        <time>2021-08-27T10:22:48Z</time>
      </trkpt>
      <trkpt lat="44.48477" lon="2.93123">
        <ele>495</ele>
        <time>2021-08-27T10:23:20Z</time>
      </trkpt>
      <trkpt lat="44.48514" lon="2.9314">
        <ele>501</ele>
        <time>2021-08-27T10:23:32Z</time>
      </trkpt>
      <trkpt lat="44.48582" lon="2.93155">
        <ele>510</ele>
        <time>2021-08-27T10:23:52Z</time>
      </trkpt>
      <trkpt lat="44.48667" lon="2.93227">
        <ele>527</ele>
        <time>2021-08-27T10:24:22Z</time>
      </trkpt>
      <trkpt lat="44.48717" lon="2.93268">
        <ele>525</ele>
        <time>2021-08-27T10:24:38Z</time>
      </trkpt>
      <trkpt lat="44.4875" lon="2.93293">
        <ele>523</ele>
        <time>2021-08-27T10:24:48Z</time>
      </trkpt>
      <trkpt lat="44.48843" lon="2.93317">
        <ele>520</ele>
        <time>2021-08-27T10:25:18Z</time>
      </trkpt>
      <trkpt lat="44.48936" lon="2.93284">
        <ele>522</ele>
        <time>2021-08-27T10:25:50Z</time>
      </trkpt>
      <trkpt lat="44.49003" lon="2.93203">
        <ele>526</ele>
        <time>2021-08-27T10:26:20Z</time>
      </trkpt>
      <trkpt lat="44.49057" lon="2.93145">
        <ele>524</ele>
        <time>2021-08-27T10:26:42Z</time>
      </trkpt>
      <trkpt lat="44.49122" lon="2.93047">
        <ele>525</ele>
        <time>2021-08-27T10:27:05Z</time>
      </trkpt>
      <trkpt lat="44.492" lon="2.92856">
        <ele>522</ele>
        <time>2021-08-27T10:27:36Z</time>
      </trkpt>
      <trkpt lat="44.49238" lon="2.92779">
        <ele>525</ele>
        <time>2021-08-27T10:27:49Z</time>
      </trkpt>
      <trkpt lat="44.49257" lon="2.92719">
        <ele>529</ele>
        <time>2021-08-27T10:28:03Z</time>
      </trkpt>
      <trkpt lat="44.49286" lon="2.9267">
        <ele>532</ele>
        <time>2021-08-27T10:28:19Z</time>
      </trkpt>
      <trkpt lat="44.49291" lon="2.92665">
        <ele>533</ele>
        <time>2021-08-27T10:28:21Z</time>
      </trkpt>
      <trkpt lat="44.49309" lon="2.92634">
        <ele>534</ele>
        <time>2021-08-27T10:28:31Z</time>
      </trkpt>
      <trkpt lat="44.49331" lon="2.92562">
        <ele>538</ele>
        <time>2021-08-27T10:28:51Z</time>
      </trkpt>
      <trkpt lat="44.49347" lon="2.92541">
        <ele>539</ele>
        <time>2021-08-27T10:28:59Z</time>
      </trkpt>
      <trkpt lat="44.49429" lon="2.92468">
        <ele>543</ele>
        <time>2021-08-27T10:29:31Z</time>
      </trkpt>
      <trkpt lat="44.49459" lon="2.92441">
        <ele>544</ele>
        <time>2021-08-27T10:29:41Z</time>
      </trkpt>
      <trkpt lat="44.49473" lon="2.92432">
        <ele>544</ele>
        <time>2021-08-27T10:29:45Z</time>
      </trkpt>
      <trkpt lat="44.49488" lon="2.92426">
        <ele>545</ele>
        <time>2021-08-27T10:29:49Z</time>
      </trkpt>
      <trkpt lat="44.49521" lon="2.92427">
        <ele>546</ele>
        <time>2021-08-27T10:29:57Z</time>
      </trkpt>
      <trkpt lat="44.49599" lon="2.92466">
        <ele>550</ele>
        <time>2021-08-27T10:30:14Z</time>
      </trkpt>
      <trkpt lat="44.49624" lon="2.92496">
        <ele>549</ele>
        <time>2021-08-27T10:30:20Z</time>
      </trkpt>
      <trkpt lat="44.49657" lon="2.92555">
        <ele>548</ele>
        <time>2021-08-27T10:30:30Z</time>
      </trkpt>
      <trkpt lat="44.49683" lon="2.9258">
        <ele>549</ele>
        <time>2021-08-27T10:30:37Z</time>
      </trkpt>
      <trkpt lat="44.49688" lon="2.92582">
        <ele>549</ele>
        <time>2021-08-27T10:30:38Z</time>
      </trkpt>
      <trkpt lat="44.49698" lon="2.92589">
        <ele>550</ele>
        <time>2021-08-27T10:30:40Z</time>
      </trkpt>
      <trkpt lat="44.49708" lon="2.92595">
        <ele>551</ele>
        <time>2021-08-27T10:30:42Z</time>
      </trkpt>
      <trkpt lat="44.49727" lon="2.92624">
        <ele>550</ele>
        <time>2021-08-27T10:30:47Z</time>
      </trkpt>
      <trkpt lat="44.49739" lon="2.92647">
        <ele>549</ele>
        <time>2021-08-27T10:30:51Z</time>
      </trkpt>
      <trkpt lat="44.49785" lon="2.92769">
        <ele>556</ele>
        <time>2021-08-27T10:31:08Z</time>
      </trkpt>
      <trkpt lat="44.49801" lon="2.9279">
        <ele>559</ele>
        <time>2021-08-27T10:31:12Z</time>
      </trkpt>
      <trkpt lat="44.49824" lon="2.92806">
        <ele>562</ele>
        <time>2021-08-27T10:31:16Z</time>
      </trkpt>
      <trkpt lat="44.49865" lon="2.92826">
        <ele>566</ele>
        <time>2021-08-27T10:31:23Z</time>
      </trkpt>
      <trkpt lat="44.49881" lon="2.92844">
        <ele>565</ele>
        <time>2021-08-27T10:31:26Z</time>
      </trkpt>
      <trkpt lat="44.49889" lon="2.92861">
        <ele>564</ele>
        <time>2021-08-27T10:31:28Z</time>
      </trkpt>
      <trkpt lat="44.49897" lon="2.92889">
        <ele>563</ele>
        <time>2021-08-27T10:31:31Z</time>
      </trkpt>
      <trkpt lat="44.49913" lon="2.93023">
        <ele>561</ele>
        <time>2021-08-27T10:31:45Z</time>
      </trkpt>
      <trkpt lat="44.49941" lon="2.93096">
        <ele>560</ele>
        <time>2021-08-27T10:31:55Z</time>
      </trkpt>
      <trkpt lat="44.49941" lon="2.93113">
        <ele>560</ele>
        <time>2021-08-27T10:31:57Z</time>
      </trkpt>
      <trkpt lat="44.49941" lon="2.9312">
        <ele>560</ele>
        <time>2021-08-27T10:31:58Z</time>
      </trkpt>
      <trkpt lat="44.49945" lon="2.93145">
        <ele>559</ele>
        <time>2021-08-27T10:32:02Z</time>
      </trkpt>
      <trkpt lat="44.49946" lon="2.93161">
        <ele>559</ele>
        <time>2021-08-27T10:32:04Z</time>
      </trkpt>
      <trkpt lat="44.4995" lon="2.9318">
        <ele>559</ele>
        <time>2021-08-27T10:32:06Z</time>
      </trkpt>
      <trkpt lat="44.49961" lon="2.93208">
        <ele>559</ele>
        <time>2021-08-27T10:32:09Z</time>
      </trkpt>
      <trkpt lat="44.50032" lon="2.93317">
        <ele>562</ele>
        <time>2021-08-27T10:32:26Z</time>
      </trkpt>
      <trkpt lat="44.50044" lon="2.93333">
        <ele>560</ele>
        <time>2021-08-27T10:32:29Z</time>
      </trkpt>
      <trkpt lat="44.50061" lon="2.93341">
        <ele>558</ele>
        <time>2021-08-27T10:32:33Z</time>
      </trkpt>
      <trkpt lat="44.50075" lon="2.93342">
        <ele>556</ele>
        <time>2021-08-27T10:32:37Z</time>
      </trkpt>
      <trkpt lat="44.50088" lon="2.93337">
        <ele>556</ele>
        <time>2021-08-27T10:32:41Z</time>
      </trkpt>
      <trkpt lat="44.50096" lon="2.93326">
        <ele>557</ele>
        <time>2021-08-27T10:32:45Z</time>
      </trkpt>
      <trkpt lat="44.50098" lon="2.9332">
        <ele>557</ele>
        <time>2021-08-27T10:32:47Z</time>
      </trkpt>
      <trkpt lat="44.501" lon="2.93298">
        <ele>556</ele>
        <time>2021-08-27T10:32:54Z</time>
      </trkpt>
      <trkpt lat="44.501" lon="2.93289">
        <ele>556</ele>
        <time>2021-08-27T10:32:57Z</time>
      </trkpt>
      <trkpt lat="44.50103" lon="2.93274">
        <ele>557</ele>
        <time>2021-08-27T10:33:02Z</time>
      </trkpt>
      <trkpt lat="44.50116" lon="2.93222">
        <ele>559</ele>
        <time>2021-08-27T10:33:22Z</time>
      </trkpt>
      <trkpt lat="44.50115" lon="2.93216">
        <ele>558</ele>
        <time>2021-08-27T10:33:24Z</time>
      </trkpt>
      <trkpt lat="44.50114" lon="2.93207">
        <ele>558</ele>
        <time>2021-08-27T10:33:27Z</time>
      </trkpt>
      <trkpt lat="44.50106" lon="2.93188">
        <ele>560</ele>
        <time>2021-08-27T10:33:36Z</time>
      </trkpt>
      <trkpt lat="44.50093" lon="2.93176">
        <ele>558</ele>
        <time>2021-08-27T10:33:45Z</time>
      </trkpt>
      <trkpt lat="44.50079" lon="2.93161">
        <ele>557</ele>
        <time>2021-08-27T10:33:54Z</time>
      </trkpt>
      <trkpt lat="44.5007" lon="2.93137">
        <ele>557</ele>
        <time>2021-08-27T10:34:02Z</time>
      </trkpt>
      <trkpt lat="44.50066" lon="2.93116">
        <ele>558</ele>
        <time>2021-08-27T10:34:09Z</time>
      </trkpt>
      <trkpt lat="44.50064" lon="2.93073">
        <ele>560</ele>
        <time>2021-08-27T10:34:24Z</time>
      </trkpt>
      <trkpt lat="44.50063" lon="2.93024">
        <ele>562</ele>
        <time>2021-08-27T10:34:39Z</time>
      </trkpt>
      <trkpt lat="44.50062" lon="2.93018">
        <ele>563</ele>
        <time>2021-08-27T10:34:41Z</time>
      </trkpt>
      <trkpt lat="44.50061" lon="2.93009">
        <ele>563</ele>
        <time>2021-08-27T10:34:44Z</time>
      </trkpt>
      <trkpt lat="44.50061" lon="2.93">
        <ele>564</ele>
        <time>2021-08-27T10:34:47Z</time>
      </trkpt>
      <trkpt lat="44.50063" lon="2.92983">
        <ele>566</ele>
        <time>2021-08-27T10:34:53Z</time>
      </trkpt>
      <trkpt lat="44.50064" lon="2.92975">
        <ele>567</ele>
        <time>2021-08-27T10:34:56Z</time>
      </trkpt>
      <trkpt lat="44.50062" lon="2.92935">
        <ele>568</ele>
        <time>2021-08-27T10:35:09Z</time>
      </trkpt>
      <trkpt lat="44.50063" lon="2.92914">
        <ele>566</ele>
        <time>2021-08-27T10:35:18Z</time>
      </trkpt>
      <trkpt lat="44.50075" lon="2.92856">
        <ele>569</ele>
        <time>2021-08-27T10:35:39Z</time>
      </trkpt>
      <trkpt lat="44.50075" lon="2.92849">
        <ele>570</ele>
        <time>2021-08-27T10:35:41Z</time>
      </trkpt>
      <trkpt lat="44.50076" lon="2.9284">
        <ele>570</ele>
        <time>2021-08-27T10:35:44Z</time>
      </trkpt>
      <trkpt lat="44.5007" lon="2.92806">
        <ele>573</ele>
        <time>2021-08-27T10:35:55Z</time>
      </trkpt>
      <trkpt lat="44.50051" lon="2.9272">
        <ele>577</ele>
        <time>2021-08-27T10:36:27Z</time>
      </trkpt>
      <trkpt lat="44.5005" lon="2.92706">
        <ele>580</ele>
        <time>2021-08-27T10:36:32Z</time>
      </trkpt>
      <trkpt lat="44.50056" lon="2.92667">
        <ele>585</ele>
        <time>2021-08-27T10:36:46Z</time>
      </trkpt>
      <trkpt lat="44.50059" lon="2.92649">
        <ele>586</ele>
        <time>2021-08-27T10:36:52Z</time>
      </trkpt>
      <trkpt lat="44.50066" lon="2.9256">
        <ele>591</ele>
        <time>2021-08-27T10:37:22Z</time>
      </trkpt>
      <trkpt lat="44.50064" lon="2.92491">
        <ele>592</ele>
        <time>2021-08-27T10:37:45Z</time>
      </trkpt>
      <trkpt lat="44.50064" lon="2.92475">
        <ele>592</ele>
        <time>2021-08-27T10:37:50Z</time>
      </trkpt>
      <trkpt lat="44.50061" lon="2.92456">
        <ele>593</ele>
        <time>2021-08-27T10:37:56Z</time>
      </trkpt>
      <trkpt lat="44.50039" lon="2.92365">
        <ele>598</ele>
        <time>2021-08-27T10:38:28Z</time>
      </trkpt>
      <trkpt lat="44.50031" lon="2.92333">
        <ele>601</ele>
        <time>2021-08-27T10:38:40Z</time>
      </trkpt>
      <trkpt lat="44.49994" lon="2.92271">
        <ele>611</ele>
        <time>2021-08-27T10:39:09Z</time>
      </trkpt>
      <trkpt lat="44.4999" lon="2.92256">
        <ele>612</ele>
        <time>2021-08-27T10:39:14Z</time>
      </trkpt>
      <trkpt lat="44.49988" lon="2.92244">
        <ele>613</ele>
        <time>2021-08-27T10:39:18Z</time>
      </trkpt>
      <trkpt lat="44.4999" lon="2.92235">
        <ele>613</ele>
        <time>2021-08-27T10:39:21Z</time>
      </trkpt>
      <trkpt lat="44.49992" lon="2.92227">
        <ele>614</ele>
        <time>2021-08-27T10:39:24Z</time>
      </trkpt>
      <trkpt lat="44.49996" lon="2.92221">
        <ele>614</ele>
        <time>2021-08-27T10:39:27Z</time>
      </trkpt>
      <trkpt lat="44.50013" lon="2.92208">
        <ele>615</ele>
        <time>2021-08-27T10:39:36Z</time>
      </trkpt>
      <trkpt lat="44.50031" lon="2.92206">
        <ele>616</ele>
        <time>2021-08-27T10:39:44Z</time>
      </trkpt>
      <trkpt lat="44.50097" lon="2.92223">
        <ele>623</ele>
        <time>2021-08-27T10:40:14Z</time>
      </trkpt>
      <trkpt lat="44.50171" lon="2.92237">
        <ele>627</ele>
        <time>2021-08-27T10:40:44Z</time>
      </trkpt>
      <trkpt lat="44.50203" lon="2.92248">
        <ele>629</ele>
        <time>2021-08-27T10:40:56Z</time>
      </trkpt>
      <trkpt lat="44.50278" lon="2.92293">
        <ele>634</ele>
        <time>2021-08-27T10:41:28Z</time>
      </trkpt>
      <trkpt lat="44.50283" lon="2.92296">
        <ele>635</ele>
        <time>2021-08-27T10:41:30Z</time>
      </trkpt>
      <trkpt lat="44.50294" lon="2.92302">
        <ele>636</ele>
        <time>2021-08-27T10:41:34Z</time>
      </trkpt>
      <trkpt lat="44.50303" lon="2.9231">
        <ele>637</ele>
        <time>2021-08-27T10:41:38Z</time>
      </trkpt>
      <trkpt lat="44.50356" lon="2.92328">
        <ele>641</ele>
        <time>2021-08-27T10:42:00Z</time>
      </trkpt>
      <trkpt lat="44.50433" lon="2.9233">
        <ele>648</ele>
        <time>2021-08-27T10:42:31Z</time>
      </trkpt>
      <trkpt lat="44.50469" lon="2.92346">
        <ele>649</ele>
        <time>2021-08-27T10:42:45Z</time>
      </trkpt>
      <trkpt lat="44.50525" lon="2.92385">
        <ele>652</ele>
        <time>2021-08-27T10:43:07Z</time>
      </trkpt>
      <trkpt lat="44.50605" lon="2.92455">
        <ele>654</ele>
        <time>2021-08-27T10:43:37Z</time>
      </trkpt>
      <trkpt lat="44.50655" lon="2.92501">
        <ele>658</ele>
        <time>2021-08-27T10:43:57Z</time>
      </trkpt>
      <trkpt lat="44.50666" lon="2.92507">
        <ele>659</ele>
        <time>2021-08-27T10:44:01Z</time>
      </trkpt>
      <trkpt lat="44.50703" lon="2.92489">
        <ele>660</ele>
        <time>2021-08-27T10:44:18Z</time>
      </trkpt>
      <trkpt lat="44.50706" lon="2.92365">
        <ele>671</ele>
        <time>2021-08-27T10:44:50Z</time>
      </trkpt>
      <trkpt lat="44.50711" lon="2.92345">
        <ele>671</ele>
        <time>2021-08-27T10:44:54Z</time>
      </trkpt>
      <trkpt lat="44.50744" lon="2.92282">
        <ele>669</ele>
        <time>2021-08-27T10:45:06Z</time>
      </trkpt>
      <trkpt lat="44.50746" lon="2.92276">
        <ele>669</ele>
        <time>2021-08-27T10:45:07Z</time>
      </trkpt>
      <trkpt lat="44.50744" lon="2.92242">
        <ele>669</ele>
        <time>2021-08-27T10:45:12Z</time>
      </trkpt>
      <trkpt lat="44.50726" lon="2.92161">
        <ele>669</ele>
        <time>2021-08-27T10:45:27Z</time>
      </trkpt>
      <trkpt lat="44.50726" lon="2.92151">
        <ele>669</ele>
        <time>2021-08-27T10:45:29Z</time>
      </trkpt>
      <trkpt lat="44.50729" lon="2.92132">
        <ele>670</ele>
        <time>2021-08-27T10:45:33Z</time>
      </trkpt>
      <trkpt lat="44.50791" lon="2.92031">
        <ele>674</ele>
        <time>2021-08-27T10:46:01Z</time>
      </trkpt>
      <trkpt lat="44.50843" lon="2.91953">
        <ele>671</ele>
        <time>2021-08-27T10:46:21Z</time>
      </trkpt>
      <trkpt lat="44.50908" lon="2.91823">
        <ele>673</ele>
        <time>2021-08-27T10:46:51Z</time>
      </trkpt>
      <trkpt lat="44.5098" lon="2.91692">
        <ele>676</ele>
        <time>2021-08-27T10:47:23Z</time>
      </trkpt>
      <trkpt lat="44.51042" lon="2.91566">
        <ele>676</ele>
        <time>2021-08-27T10:47:53Z</time>
      </trkpt>
      <trkpt lat="44.51112" lon="2.91482">
        <ele>679</ele>
        <time>2021-08-27T10:48:17Z</time>
      </trkpt>
      <trkpt lat="44.51194" lon="2.91428">
        <ele>681</ele>
        <time>2021-08-27T10:48:39Z</time>
      </trkpt>
      <trkpt lat="44.51255" lon="2.91392">
        <ele>684</ele>
        <time>2021-08-27T10:48:55Z</time>
      </trkpt>
      <trkpt lat="44.51283" lon="2.9137">
        <ele>684</ele>
        <time>2021-08-27T10:49:03Z</time>
      </trkpt>
      <trkpt lat="44.51342" lon="2.91286">
        <ele>686</ele>
        <time>2021-08-27T10:49:25Z</time>
      </trkpt>
      <trkpt lat="44.51362" lon="2.9127">
        <ele>687</ele>
        <time>2021-08-27T10:49:31Z</time>
      </trkpt>
      <trkpt lat="44.51473" lon="2.91226">
        <ele>692</ele>
        <time>2021-08-27T10:50:01Z</time>
      </trkpt>
      <trkpt lat="44.51557" lon="2.91224">
        <ele>696</ele>
        <time>2021-08-27T10:50:23Z</time>
      </trkpt>
      <trkpt lat="44.51603" lon="2.91225">
        <ele>699</ele>
        <time>2021-08-27T10:50:35Z</time>
      </trkpt>
      <trkpt lat="44.51684" lon="2.91197">
        <ele>703</ele>
        <time>2021-08-27T10:50:57Z</time>
      </trkpt>
      <trkpt lat="44.51703" lon="2.91187">
        <ele>705</ele>
        <time>2021-08-27T10:51:03Z</time>
      </trkpt>
      <trkpt lat="44.51721" lon="2.9118">
        <ele>706</ele>
        <time>2021-08-27T10:51:09Z</time>
      </trkpt>
      <trkpt lat="44.51745" lon="2.91168">
        <ele>708</ele>
        <time>2021-08-27T10:51:17Z</time>
      </trkpt>
      <trkpt lat="44.5179" lon="2.91135">
        <ele>712</ele>
        <time>2021-08-27T10:51:33Z</time>
      </trkpt>
      <trkpt lat="44.51842" lon="2.91139">
        <ele>716</ele>
        <time>2021-08-27T10:51:51Z</time>
      </trkpt>
      <trkpt lat="44.51886" lon="2.91247">
        <ele>716</ele>
        <time>2021-08-27T10:52:21Z</time>
      </trkpt>
      <trkpt lat="44.51925" lon="2.91358">
        <ele>716</ele>
        <time>2021-08-27T10:52:51Z</time>
      </trkpt>
      <trkpt lat="44.51956" lon="2.91487">
        <ele>722</ele>
        <time>2021-08-27T10:53:23Z</time>
      </trkpt>
      <trkpt lat="44.51996" lon="2.91608">
        <ele>728</ele>
        <time>2021-08-27T10:53:53Z</time>
      </trkpt>
      <trkpt lat="44.52026" lon="2.91728">
        <ele>734</ele>
        <time>2021-08-27T10:54:23Z</time>
      </trkpt>
      <trkpt lat="44.52044" lon="2.91875">
        <ele>740</ele>
        <time>2021-08-27T10:54:53Z</time>
      </trkpt>
      <trkpt lat="44.52026" lon="2.92008">
        <ele>740</ele>
        <time>2021-08-27T10:55:24Z</time>
      </trkpt>
      <trkpt lat="44.52" lon="2.92134">
        <ele>742</ele>
        <time>2021-08-27T10:55:54Z</time>
      </trkpt>
      <trkpt lat="44.51987" lon="2.92251">
        <ele>741</ele>
        <time>2021-08-27T10:56:25Z</time>
      </trkpt>
      <trkpt lat="44.51947" lon="2.92384">
        <ele>744</ele>
        <time>2021-08-27T10:56:56Z</time>
      </trkpt>
      <trkpt lat="44.51901" lon="2.92506">
        <ele>748</ele>
        <time>2021-08-27T10:57:26Z</time>
      </trkpt>
      <trkpt lat="44.51828" lon="2.92601">
        <ele>737</ele>
        <time>2021-08-27T10:57:58Z</time>
      </trkpt>
      <trkpt lat="44.51823" lon="2.92608">
        <ele>735</ele>
        <time>2021-08-27T10:58:01Z</time>
      </trkpt>
      <trkpt lat="44.51812" lon="2.92621">
        <ele>733</ele>
        <time>2021-08-27T10:58:06Z</time>
      </trkpt>
      <trkpt lat="44.51785" lon="2.9266">
        <ele>730</ele>
        <time>2021-08-27T10:58:18Z</time>
      </trkpt>
      <trkpt lat="44.51774" lon="2.92685">
        <ele>732</ele>
        <time>2021-08-27T10:58:24Z</time>
      </trkpt>
      <trkpt lat="44.51766" lon="2.92724">
        <ele>738</ele>
        <time>2021-08-27T10:58:30Z</time>
      </trkpt>
      <trkpt lat="44.51765" lon="2.92731">
        <ele>740</ele>
        <time>2021-08-27T10:58:31Z</time>
      </trkpt>
      <trkpt lat="44.51765" lon="2.92743">
        <ele>744</ele>
        <time>2021-08-27T10:58:33Z</time>
      </trkpt>
      <trkpt lat="44.51766" lon="2.92753">
        <ele>747</ele>
        <time>2021-08-27T10:58:35Z</time>
      </trkpt>
      <trkpt lat="44.51767" lon="2.92762">
        <ele>748</ele>
        <time>2021-08-27T10:58:37Z</time>
      </trkpt>
      <trkpt lat="44.5177" lon="2.92771">
        <ele>751</ele>
        <time>2021-08-27T10:58:39Z</time>
      </trkpt>
      <trkpt lat="44.5179" lon="2.9281">
        <ele>760</ele>
        <time>2021-08-27T10:58:49Z</time>
      </trkpt>
      <trkpt lat="44.51817" lon="2.92842">
        <ele>766</ele>
        <time>2021-08-27T10:59:01Z</time>
      </trkpt>
      <trkpt lat="44.51895" lon="2.9291">
        <ele>776</ele>
        <time>2021-08-27T10:59:31Z</time>
      </trkpt>
      <trkpt lat="44.51943" lon="2.92953">
        <ele>780</ele>
        <time>2021-08-27T10:59:49Z</time>
      </trkpt>
      <trkpt lat="44.51995" lon="2.93037">
        <ele>785</ele>
        <time>2021-08-27T11:00:15Z</time>
      </trkpt>
      <trkpt lat="44.52018" lon="2.93078">
        <ele>787</ele>
        <time>2021-08-27T11:00:27Z</time>
      </trkpt>
      <trkpt lat="44.52038" lon="2.931">
        <ele>788</ele>
        <time>2021-08-27T11:00:35Z</time>
      </trkpt>
      <trkpt lat="44.52066" lon="2.93122">
        <ele>791</ele>
        <time>2021-08-27T11:00:45Z</time>
      </trkpt>
      <trkpt lat="44.52133" lon="2.93143">
        <ele>793</ele>
        <time>2021-08-27T11:01:07Z</time>
      </trkpt>
      <trkpt lat="44.52159" lon="2.93161">
        <ele>795</ele>
        <time>2021-08-27T11:01:17Z</time>
      </trkpt>
      <trkpt lat="44.52173" lon="2.93176">
        <ele>796</ele>
        <time>2021-08-27T11:01:23Z</time>
      </trkpt>
      <trkpt lat="44.5223" lon="2.93274">
        <ele>800</ele>
        <time>2021-08-27T11:01:53Z</time>
      </trkpt>
      <trkpt lat="44.52286" lon="2.93382">
        <ele>804</ele>
        <time>2021-08-27T11:02:23Z</time>
      </trkpt>
      <trkpt lat="44.5233" lon="2.9347">
        <ele>808</ele>
        <time>2021-08-27T11:02:47Z</time>
      </trkpt>
      <trkpt lat="44.52374" lon="2.93522">
        <ele>811</ele>
        <time>2021-08-27T11:03:05Z</time>
      </trkpt>
      <trkpt lat="44.52427" lon="2.93559">
        <ele>814</ele>
        <time>2021-08-27T11:03:23Z</time>
      </trkpt>
      <trkpt lat="44.52515" lon="2.93588">
        <ele>820</ele>
        <time>2021-08-27T11:03:51Z</time>
      </trkpt>
      <trkpt lat="44.52553" lon="2.93616">
        <ele>823</ele>
        <time>2021-08-27T11:04:05Z</time>
      </trkpt>
      <trkpt lat="44.52587" lon="2.93665">
        <ele>825</ele>
        <time>2021-08-27T11:04:21Z</time>
      </trkpt>
      <trkpt lat="44.52612" lon="2.93725">
        <ele>827</ele>
        <time>2021-08-27T11:04:37Z</time>
      </trkpt>
      <trkpt lat="44.52625" lon="2.93783">
        <ele>827</ele>
        <time>2021-08-27T11:04:49Z</time>
      </trkpt>
      <trkpt lat="44.52628" lon="2.93825">
        <ele>827</ele>
        <time>2021-08-27T11:04:57Z</time>
      </trkpt>
      <trkpt lat="44.5262" lon="2.93893">
        <ele>829</ele>
        <time>2021-08-27T11:05:11Z</time>
      </trkpt>
      <trkpt lat="44.52576" lon="2.94031">
        <ele>829</ele>
        <time>2021-08-27T11:05:41Z</time>
      </trkpt>
      <trkpt lat="44.52565" lon="2.94065">
        <ele>829</ele>
        <time>2021-08-27T11:05:49Z</time>
      </trkpt>
      <trkpt lat="44.5255" lon="2.94095">
        <ele>829</ele>
        <time>2021-08-27T11:05:57Z</time>
      </trkpt>
      <trkpt lat="44.52545" lon="2.94102">
        <ele>829</ele>
        <time>2021-08-27T11:05:59Z</time>
      </trkpt>
      <trkpt lat="44.52541" lon="2.9411">
        <ele>830</ele>
        <time>2021-08-27T11:06:01Z</time>
      </trkpt>
      <trkpt lat="44.52526" lon="2.94133">
        <ele>830</ele>
        <time>2021-08-27T11:06:07Z</time>
      </trkpt>
      <trkpt lat="44.52514" lon="2.94157">
        <ele>832</ele>
        <time>2021-08-27T11:06:13Z</time>
      </trkpt>
      <trkpt lat="44.52508" lon="2.94186">
        <ele>833</ele>
        <time>2021-08-27T11:06:19Z</time>
      </trkpt>
      <trkpt lat="44.52509" lon="2.94218">
        <ele>834</ele>
        <time>2021-08-27T11:06:25Z</time>
      </trkpt>
      <trkpt lat="44.52514" lon="2.94238">
        <ele>834</ele>
        <time>2021-08-27T11:06:29Z</time>
      </trkpt>
      <trkpt lat="44.52524" lon="2.94255">
        <ele>835</ele>
        <time>2021-08-27T11:06:33Z</time>
      </trkpt>
      <trkpt lat="44.52631" lon="2.94335">
        <ele>841</ele>
        <time>2021-08-27T11:07:05Z</time>
      </trkpt>
      <trkpt lat="44.52674" lon="2.94359">
        <ele>845</ele>
        <time>2021-08-27T11:07:17Z</time>
      </trkpt>
      <trkpt lat="44.5269" lon="2.94366">
        <ele>846</ele>
        <time>2021-08-27T11:07:21Z</time>
      </trkpt>
      <trkpt lat="44.527" lon="2.94366">
        <ele>847</ele>
        <time>2021-08-27T11:07:23Z</time>
      </trkpt>
      <trkpt lat="44.52742" lon="2.94347">
        <ele>847</ele>
        <time>2021-08-27T11:07:31Z</time>
      </trkpt>
      <trkpt lat="44.52875" lon="2.94349">
        <ele>847</ele>
        <time>2021-08-27T11:07:55Z</time>
      </trkpt>
      <trkpt lat="44.52893" lon="2.94355">
        <ele>847</ele>
        <time>2021-08-27T11:07:59Z</time>
      </trkpt>
      <trkpt lat="44.52959" lon="2.94398">
        <ele>852</ele>
        <time>2021-08-27T11:08:19Z</time>
      </trkpt>
      <trkpt lat="44.52976" lon="2.94414">
        <ele>852</ele>
        <time>2021-08-27T11:08:25Z</time>
      </trkpt>
      <trkpt lat="44.53067" lon="2.94477">
        <ele>850</ele>
        <time>2021-08-27T11:08:55Z</time>
      </trkpt>
      <trkpt lat="44.53142" lon="2.94532">
        <ele>854</ele>
        <time>2021-08-27T11:09:17Z</time>
      </trkpt>
      <trkpt lat="44.53156" lon="2.94539">
        <ele>855</ele>
        <time>2021-08-27T11:09:21Z</time>
      </trkpt>
      <trkpt lat="44.5317" lon="2.94541">
        <ele>855</ele>
        <time>2021-08-27T11:09:25Z</time>
      </trkpt>
      <trkpt lat="44.53243" lon="2.9451">
        <ele>854</ele>
        <time>2021-08-27T11:09:45Z</time>
      </trkpt>
      <trkpt lat="44.5327" lon="2.94487">
        <ele>854</ele>
        <time>2021-08-27T11:09:53Z</time>
      </trkpt>
      <trkpt lat="44.53288" lon="2.94459">
        <ele>854</ele>
        <time>2021-08-27T11:10:00Z</time>
      </trkpt>
      <trkpt lat="44.53342" lon="2.94305">
        <ele>860</ele>
        <time>2021-08-27T11:10:31Z</time>
      </trkpt>
      <trkpt lat="44.53375" lon="2.94186">
        <ele>865</ele>
        <time>2021-08-27T11:10:59Z</time>
      </trkpt>
      <trkpt lat="44.53377" lon="2.94134">
        <ele>867</ele>
        <time>2021-08-27T11:11:11Z</time>
      </trkpt>
      <trkpt lat="44.53359" lon="2.9401">
        <ele>874</ele>
        <time>2021-08-27T11:11:41Z</time>
      </trkpt>
      <trkpt lat="44.53356" lon="2.93986">
        <ele>875</ele>
        <time>2021-08-27T11:11:47Z</time>
      </trkpt>
      <trkpt lat="44.53355" lon="2.93978">
        <ele>875</ele>
        <time>2021-08-27T11:11:49Z</time>
      </trkpt>
      <trkpt lat="44.53343" lon="2.93936">
        <ele>873</ele>
        <time>2021-08-27T11:12:02Z</time>
      </trkpt>
      <trkpt lat="44.53339" lon="2.93935">
        <ele>874</ele>
        <time>2021-08-27T11:12:34Z</time>
      </trkpt>
      <trkpt lat="44.53333" lon="2.9393">
        <ele>873</ele>
        <time>2021-08-27T11:12:37Z</time>
      </trkpt>
      <trkpt lat="44.53325" lon="2.93929">
        <ele>872</ele>
        <time>2021-08-27T11:12:39Z</time>
      </trkpt>
      <trkpt lat="44.53313" lon="2.93925">
        <ele>870</ele>
        <time>2021-08-27T11:12:44Z</time>
      </trkpt>
      <trkpt lat="44.53312" lon="2.93916">
        <ele>869</ele>
        <time>2021-08-27T11:12:46Z</time>
      </trkpt>
      <trkpt lat="44.53311" lon="2.93908">
        <ele>868</ele>
        <time>2021-08-27T11:12:48Z</time>
      </trkpt>
      <trkpt lat="44.53314" lon="2.93907">
        <ele>865</ele>
        <time>2021-08-27T11:12:58Z</time>
      </trkpt>
      <trkpt lat="44.53318" lon="2.93915">
        <ele>865</ele>
        <time>2021-08-27T11:13:01Z</time>
      </trkpt>
      <trkpt lat="44.5333" lon="2.93916">
        <ele>860</ele>
        <time>2021-08-27T11:13:08Z</time>
      </trkpt>
      <trkpt lat="44.53333" lon="2.93924">
        <ele>862</ele>
        <time>2021-08-27T11:13:10Z</time>
      </trkpt>
      <trkpt lat="44.53338" lon="2.9393">
        <ele>865</ele>
        <time>2021-08-27T11:13:13Z</time>
      </trkpt>
      <trkpt lat="44.53343" lon="2.93931">
        <ele>866</ele>
        <time>2021-08-27T11:13:17Z</time>
      </trkpt>
      <trkpt lat="44.53343" lon="2.93914">
        <ele>869</ele>
        <time>2021-08-27T11:13:23Z</time>
      </trkpt>
      <trkpt lat="44.53339" lon="2.93898">
        <ele>869</ele>
        <time>2021-08-27T11:13:29Z</time>
      </trkpt>
      <trkpt lat="44.53336" lon="2.93893">
        <ele>869</ele>
        <time>2021-08-27T11:13:31Z</time>
      </trkpt>
      <trkpt lat="44.53333" lon="2.93886">
        <ele>867</ele>
        <time>2021-08-27T11:13:34Z</time>
      </trkpt>
      <trkpt lat="44.53331" lon="2.93876">
        <ele>868</ele>
        <time>2021-08-27T11:13:37Z</time>
      </trkpt>
      <trkpt lat="44.53332" lon="2.93869">
        <ele>868</ele>
        <time>2021-08-27T11:13:40Z</time>
      </trkpt>
      <trkpt lat="44.53336" lon="2.93878">
        <ele>866</ele>
        <time>2021-08-27T11:13:48Z</time>
      </trkpt>
      <trkpt lat="44.53346" lon="2.93902">
        <ele>863</ele>
        <time>2021-08-27T11:13:55Z</time>
      </trkpt>
      <trkpt lat="44.5335" lon="2.93904">
        <ele>864</ele>
        <time>2021-08-27T11:17:42Z</time>
      </trkpt>
      <trkpt lat="44.53352" lon="2.93911">
        <ele>864</ele>
        <time>2021-08-27T11:17:53Z</time>
      </trkpt>
      <trkpt lat="44.53354" lon="2.93917">
        <ele>864</ele>
        <time>2021-08-27T11:18:06Z</time>
      </trkpt>
      <trkpt lat="44.53349" lon="2.93918">
        <ele>862</ele>
        <time>2021-08-27T11:18:30Z</time>
      </trkpt>
      <trkpt lat="44.53349" lon="2.9391">
        <ele>865</ele>
        <time>2021-08-27T11:19:01Z</time>
      </trkpt>
      <trkpt lat="44.53351" lon="2.93913">
        <ele>867</ele>
        <time>2021-08-27T11:24:08Z</time>
      </trkpt>
      <trkpt lat="44.53343" lon="2.93905">
        <ele>866</ele>
        <time>2021-08-27T11:24:44Z</time>
      </trkpt>
      <trkpt lat="44.53347" lon="2.93899">
        <ele>861</ele>
        <time>2021-08-27T11:25:41Z</time>
      </trkpt>
      <trkpt lat="44.53347" lon="2.93899">
        <ele>859</ele>
        <time>2021-08-27T11:29:11Z</time>
      </trkpt>
      <trkpt lat="44.53352" lon="2.93906">
        <ele>859</ele>
        <time>2021-08-27T11:30:34Z</time>
      </trkpt>
      <trkpt lat="44.53355" lon="2.939">
        <ele>863</ele>
        <time>2021-08-27T11:31:12Z</time>
      </trkpt>
      <trkpt lat="44.53356" lon="2.93881">
        <ele>861</ele>
        <time>2021-08-27T11:32:01Z</time>
      </trkpt>
      <trkpt lat="44.53353" lon="2.93887">
        <ele>845</ele>
        <time>2021-08-27T11:32:29Z</time>
      </trkpt>
      <trkpt lat="44.53354" lon="2.93902">
        <ele>860</ele>
        <time>2021-08-27T11:33:16Z</time>
      </trkpt>
      <trkpt lat="44.53354" lon="2.93906">
        <ele>862</ele>
        <time>2021-08-27T11:34:04Z</time>
      </trkpt>
      <trkpt lat="44.5336" lon="2.93905">
        <ele>869</ele>
        <time>2021-08-27T11:34:34Z</time>
      </trkpt>
      <trkpt lat="44.5336" lon="2.93915">
        <ele>875</ele>
        <time>2021-08-27T11:36:35Z</time>
      </trkpt>
      <trkpt lat="44.53357" lon="2.93922">
        <ele>876</ele>
        <time>2021-08-27T11:36:37Z</time>
      </trkpt>
      <trkpt lat="44.53358" lon="2.93947">
        <ele>876</ele>
        <time>2021-08-27T11:36:43Z</time>
      </trkpt>
      <trkpt lat="44.53361" lon="2.93963">
        <ele>877</ele>
        <time>2021-08-27T11:36:47Z</time>
      </trkpt>
      <trkpt lat="44.53362" lon="2.9397">
        <ele>876</ele>
        <time>2021-08-27T11:36:49Z</time>
      </trkpt>
      <trkpt lat="44.53361" lon="2.9397">
        <ele>878</ele>
        <time>2021-08-27T11:38:13Z</time>
      </trkpt>
      <trkpt lat="44.53358" lon="2.93973">
        <ele>880</ele>
        <time>2021-08-27T11:40:28Z</time>
      </trkpt>
      <trkpt lat="44.53356" lon="2.93972">
        <ele>880</ele>
        <time>2021-08-27T11:48:59Z</time>
      </trkpt>
      <trkpt lat="44.53352" lon="2.93977">
        <ele>881</ele>
        <time>2021-08-27T11:49:48Z</time>
      </trkpt>
      <trkpt lat="44.5335" lon="2.93973">
        <ele>879</ele>
        <time>2021-08-27T11:55:03Z</time>
      </trkpt>
      <trkpt lat="44.53345" lon="2.93958">
        <ele>880</ele>
        <time>2021-08-27T11:55:07Z</time>
      </trkpt>
      <trkpt lat="44.53343" lon="2.93945">
        <ele>882</ele>
        <time>2021-08-27T11:55:11Z</time>
      </trkpt>
      <trkpt lat="44.53341" lon="2.93929">
        <ele>883</ele>
        <time>2021-08-27T11:55:16Z</time>
      </trkpt>
      <trkpt lat="44.53339" lon="2.93922">
        <ele>883</ele>
        <time>2021-08-27T11:55:19Z</time>
      </trkpt>
      <trkpt lat="44.53339" lon="2.93908">
        <ele>882</ele>
        <time>2021-08-27T11:55:25Z</time>
      </trkpt>
      <trkpt lat="44.53338" lon="2.939">
        <ele>882</ele>
        <time>2021-08-27T11:55:28Z</time>
      </trkpt>
      <trkpt lat="44.53327" lon="2.93835">
        <ele>881</ele>
        <time>2021-08-27T11:55:54Z</time>
      </trkpt>
      <trkpt lat="44.53308" lon="2.93771">
        <ele>883</ele>
        <time>2021-08-27T11:56:15Z</time>
      </trkpt>
      <trkpt lat="44.53286" lon="2.93688">
        <ele>881</ele>
        <time>2021-08-27T11:56:43Z</time>
      </trkpt>
      <trkpt lat="44.53286" lon="2.93674">
        <ele>882</ele>
        <time>2021-08-27T11:56:47Z</time>
      </trkpt>
      <trkpt lat="44.53294" lon="2.93655">
        <ele>883</ele>
        <time>2021-08-27T11:56:53Z</time>
      </trkpt>
      <trkpt lat="44.53304" lon="2.93649">
        <ele>884</ele>
        <time>2021-08-27T11:56:57Z</time>
      </trkpt>
      <trkpt lat="44.53318" lon="2.93647">
        <ele>885</ele>
        <time>2021-08-27T11:57:03Z</time>
      </trkpt>
      <trkpt lat="44.53364" lon="2.93749">
        <ele>894</ele>
        <time>2021-08-27T11:57:35Z</time>
      </trkpt>
      <trkpt lat="44.53425" lon="2.93829">
        <ele>898</ele>
        <time>2021-08-27T11:58:06Z</time>
      </trkpt>
      <trkpt lat="44.53479" lon="2.93893">
        <ele>903</ele>
        <time>2021-08-27T11:58:39Z</time>
      </trkpt>
      <trkpt lat="44.53529" lon="2.93961">
        <ele>904</ele>
        <time>2021-08-27T11:59:12Z</time>
      </trkpt>
      <trkpt lat="44.53574" lon="2.94025">
        <ele>907</ele>
        <time>2021-08-27T11:59:42Z</time>
      </trkpt>
      <trkpt lat="44.53584" lon="2.9404">
        <ele>908</ele>
        <time>2021-08-27T11:59:48Z</time>
      </trkpt>
      <trkpt lat="44.53602" lon="2.94074">
        <ele>909</ele>
        <time>2021-08-27T12:00:02Z</time>
      </trkpt>
      <trkpt lat="44.53631" lon="2.94157">
        <ele>912</ele>
        <time>2021-08-27T12:00:33Z</time>
      </trkpt>
      <trkpt lat="44.53633" lon="2.94166">
        <ele>913</ele>
        <time>2021-08-27T12:00:36Z</time>
      </trkpt>
      <trkpt lat="44.53636" lon="2.94173">
        <ele>913</ele>
        <time>2021-08-27T12:00:39Z</time>
      </trkpt>
      <trkpt lat="44.53639" lon="2.94181">
        <ele>914</ele>
        <time>2021-08-27T12:00:42Z</time>
      </trkpt>
      <trkpt lat="44.53641" lon="2.94189">
        <ele>914</ele>
        <time>2021-08-27T12:00:45Z</time>
      </trkpt>
      <trkpt lat="44.53653" lon="2.94228">
        <ele>916</ele>
        <time>2021-08-27T12:00:59Z</time>
      </trkpt>
      <trkpt lat="44.53656" lon="2.94245">
        <ele>917</ele>
        <time>2021-08-27T12:01:05Z</time>
      </trkpt>
      <trkpt lat="44.5368" lon="2.94326">
        <ele>923</ele>
        <time>2021-08-27T12:01:35Z</time>
      </trkpt>
      <trkpt lat="44.53683" lon="2.94335">
        <ele>923</ele>
        <time>2021-08-27T12:01:38Z</time>
      </trkpt>
      <trkpt lat="44.53714" lon="2.94412">
        <ele>927</ele>
        <time>2021-08-27T12:02:07Z</time>
      </trkpt>
      <trkpt lat="44.53733" lon="2.94468">
        <ele>931</ele>
        <time>2021-08-27T12:02:25Z</time>
      </trkpt>
      <trkpt lat="44.53741" lon="2.94566">
        <ele>932</ele>
        <time>2021-08-27T12:02:49Z</time>
      </trkpt>
      <trkpt lat="44.53726" lon="2.94702">
        <ele>930</ele>
        <time>2021-08-27T12:03:21Z</time>
      </trkpt>
      <trkpt lat="44.53723" lon="2.94774">
        <ele>930</ele>
        <time>2021-08-27T12:03:37Z</time>
      </trkpt>
      <trkpt lat="44.53733" lon="2.94873">
        <ele>934</ele>
        <time>2021-08-27T12:03:59Z</time>
      </trkpt>
      <trkpt lat="44.5377" lon="2.94996">
        <ele>940</ele>
        <time>2021-08-27T12:04:29Z</time>
      </trkpt>
      <trkpt lat="44.53814" lon="2.95108">
        <ele>944</ele>
        <time>2021-08-27T12:04:59Z</time>
      </trkpt>
      <trkpt lat="44.53835" lon="2.95153">
        <ele>947</ele>
        <time>2021-08-27T12:05:11Z</time>
      </trkpt>
      <trkpt lat="44.53861" lon="2.95196">
        <ele>948</ele>
        <time>2021-08-27T12:05:23Z</time>
      </trkpt>
      <trkpt lat="44.53911" lon="2.95247">
        <ele>951</ele>
        <time>2021-08-27T12:05:43Z</time>
      </trkpt>
      <trkpt lat="44.5401" lon="2.95299">
        <ele>955</ele>
        <time>2021-08-27T12:06:15Z</time>
      </trkpt>
      <trkpt lat="44.54058" lon="2.95309">
        <ele>957</ele>
        <time>2021-08-27T12:06:29Z</time>
      </trkpt>
      <trkpt lat="44.54087" lon="2.95307">
        <ele>958</ele>
        <time>2021-08-27T12:06:37Z</time>
      </trkpt>
      <trkpt lat="44.54195" lon="2.95262">
        <ele>960</ele>
        <time>2021-08-27T12:07:09Z</time>
      </trkpt>
      <trkpt lat="44.54223" lon="2.95255">
        <ele>960</ele>
        <time>2021-08-27T12:07:17Z</time>
      </trkpt>
      <trkpt lat="44.5432" lon="2.95282">
        <ele>964</ele>
        <time>2021-08-27T12:07:47Z</time>
      </trkpt>
      <trkpt lat="44.54398" lon="2.9533">
        <ele>968</ele>
        <time>2021-08-27T12:08:17Z</time>
      </trkpt>
      <trkpt lat="44.54475" lon="2.95423">
        <ele>971</ele>
        <time>2021-08-27T12:08:49Z</time>
      </trkpt>
      <trkpt lat="44.54501" lon="2.95453">
        <ele>972</ele>
        <time>2021-08-27T12:08:59Z</time>
      </trkpt>
      <trkpt lat="44.54599" lon="2.95536">
        <ele>974</ele>
        <time>2021-08-27T12:09:31Z</time>
      </trkpt>
      <trkpt lat="44.54614" lon="2.95553">
        <ele>975</ele>
        <time>2021-08-27T12:09:37Z</time>
      </trkpt>
      <trkpt lat="44.54654" lon="2.95637">
        <ele>978</ele>
        <time>2021-08-27T12:09:59Z</time>
      </trkpt>
      <trkpt lat="44.54656" lon="2.95644">
        <ele>978</ele>
        <time>2021-08-27T12:10:01Z</time>
      </trkpt>
      <trkpt lat="44.54675" lon="2.95678">
        <ele>981</ele>
        <time>2021-08-27T12:10:14Z</time>
      </trkpt>
      <trkpt lat="44.54721" lon="2.95734">
        <ele>984</ele>
        <time>2021-08-27T12:10:37Z</time>
      </trkpt>
      <trkpt lat="44.54755" lon="2.95797">
        <ele>988</ele>
        <time>2021-08-27T12:10:57Z</time>
      </trkpt>
      <trkpt lat="44.54775" lon="2.95813">
        <ele>989</ele>
        <time>2021-08-27T12:11:05Z</time>
      </trkpt>
      <trkpt lat="44.54848" lon="2.9585">
        <ele>992</ele>
        <time>2021-08-27T12:11:31Z</time>
      </trkpt>
      <trkpt lat="44.54885" lon="2.95884">
        <ele>992</ele>
        <time>2021-08-27T12:11:45Z</time>
      </trkpt>
      <trkpt lat="44.549" lon="2.95902">
        <ele>992</ele>
        <time>2021-08-27T12:11:51Z</time>
      </trkpt>
      <trkpt lat="44.54909" lon="2.95918">
        <ele>992</ele>
        <time>2021-08-27T12:11:55Z</time>
      </trkpt>
      <trkpt lat="44.54911" lon="2.95926">
        <ele>992</ele>
        <time>2021-08-27T12:11:57Z</time>
      </trkpt>
      <trkpt lat="44.5491" lon="2.95962">
        <ele>993</ele>
        <time>2021-08-27T12:12:05Z</time>
      </trkpt>
      <trkpt lat="44.54905" lon="2.95998">
        <ele>994</ele>
        <time>2021-08-27T12:12:15Z</time>
      </trkpt>
      <trkpt lat="44.54916" lon="2.96119">
        <ele>999</ele>
        <time>2021-08-27T12:12:45Z</time>
      </trkpt>
      <trkpt lat="44.54921" lon="2.9616">
        <ele>999</ele>
        <time>2021-08-27T12:12:55Z</time>
      </trkpt>
      <trkpt lat="44.54927" lon="2.96179">
        <ele>999</ele>
        <time>2021-08-27T12:12:59Z</time>
      </trkpt>
      <trkpt lat="44.55028" lon="2.96363">
        <ele>991</ele>
        <time>2021-08-27T12:13:23Z</time>
      </trkpt>
      <trkpt lat="44.55069" lon="2.96408">
        <ele>989</ele>
        <time>2021-08-27T12:13:29Z</time>
      </trkpt>
      <trkpt lat="44.55187" lon="2.96485">
        <ele>991</ele>
        <time>2021-08-27T12:13:52Z</time>
      </trkpt>
      <trkpt lat="44.55208" lon="2.96496">
        <ele>993</ele>
        <time>2021-08-27T12:14:00Z</time>
      </trkpt>
      <trkpt lat="44.55232" lon="2.96512">
        <ele>996</ele>
        <time>2021-08-27T12:14:10Z</time>
      </trkpt>
      <trkpt lat="44.55237" lon="2.96514">
        <ele>996</ele>
        <time>2021-08-27T12:14:12Z</time>
      </trkpt>
      <trkpt lat="44.5527" lon="2.96536">
        <ele>998</ele>
        <time>2021-08-27T12:14:26Z</time>
      </trkpt>
      <trkpt lat="44.55276" lon="2.96546">
        <ele>999</ele>
        <time>2021-08-27T12:14:30Z</time>
      </trkpt>
      <trkpt lat="44.55282" lon="2.96564">
        <ele>1000</ele>
        <time>2021-08-27T12:14:36Z</time>
      </trkpt>
      <trkpt lat="44.55289" lon="2.96659">
        <ele>1006</ele>
        <time>2021-08-27T12:15:09Z</time>
      </trkpt>
      <trkpt lat="44.55294" lon="2.96692">
        <ele>1008</ele>
        <time>2021-08-27T12:15:19Z</time>
      </trkpt>
      <trkpt lat="44.55305" lon="2.96726">
        <ele>1009</ele>
        <time>2021-08-27T12:15:29Z</time>
      </trkpt>
      <trkpt lat="44.55366" lon="2.96858">
        <ele>1008</ele>
        <time>2021-08-27T12:16:01Z</time>
      </trkpt>
      <trkpt lat="44.55437" lon="2.96982">
        <ele>1010</ele>
        <time>2021-08-27T12:16:31Z</time>
      </trkpt>
      <trkpt lat="44.55443" lon="2.96998">
        <ele>1011</ele>
        <time>2021-08-27T12:16:35Z</time>
      </trkpt>
      <trkpt lat="44.55461" lon="2.97114">
        <ele>1017</ele>
        <time>2021-08-27T12:17:07Z</time>
      </trkpt>
      <trkpt lat="44.55478" lon="2.97218">
        <ele>1023</ele>
        <time>2021-08-27T12:17:37Z</time>
      </trkpt>
      <trkpt lat="44.55492" lon="2.97302">
        <ele>1026</ele>
        <time>2021-08-27T12:18:01Z</time>
      </trkpt>
      <trkpt lat="44.55493" lon="2.97309">
        <ele>1025</ele>
        <time>2021-08-27T12:18:03Z</time>
      </trkpt>
      <trkpt lat="44.55493" lon="2.97315">
        <ele>1026</ele>
        <time>2021-08-27T12:18:06Z</time>
      </trkpt>
      <trkpt lat="44.55496" lon="2.97322">
        <ele>1027</ele>
        <time>2021-08-27T12:19:44Z</time>
      </trkpt>
      <trkpt lat="44.555" lon="2.97377">
        <ele>1028</ele>
        <time>2021-08-27T12:20:02Z</time>
      </trkpt>
      <trkpt lat="44.55505" lon="2.97411">
        <ele>1029</ele>
        <time>2021-08-27T12:20:13Z</time>
      </trkpt>
      <trkpt lat="44.55506" lon="2.9742">
        <ele>1030</ele>
        <time>2021-08-27T12:20:16Z</time>
      </trkpt>
      <trkpt lat="44.55506" lon="2.97426">
        <ele>1030</ele>
        <time>2021-08-27T12:20:18Z</time>
      </trkpt>
      <trkpt lat="44.55507" lon="2.97434">
        <ele>1031</ele>
        <time>2021-08-27T12:20:21Z</time>
      </trkpt>
      <trkpt lat="44.55508" lon="2.97442">
        <ele>1032</ele>
        <time>2021-08-27T12:20:24Z</time>
      </trkpt>
      <trkpt lat="44.55509" lon="2.9745">
        <ele>1032</ele>
        <time>2021-08-27T12:20:27Z</time>
      </trkpt>
      <trkpt lat="44.55515" lon="2.9747">
        <ele>1034</ele>
        <time>2021-08-27T12:20:36Z</time>
      </trkpt>
      <trkpt lat="44.55562" lon="2.97527">
        <ele>1044</ele>
        <time>2021-08-27T12:21:06Z</time>
      </trkpt>
      <trkpt lat="44.55567" lon="2.97532">
        <ele>1044</ele>
        <time>2021-08-27T12:21:09Z</time>
      </trkpt>
      <trkpt lat="44.55572" lon="2.97537">
        <ele>1045</ele>
        <time>2021-08-27T12:21:12Z</time>
      </trkpt>
      <trkpt lat="44.55591" lon="2.97554">
        <ele>1047</ele>
        <time>2021-08-27T12:21:24Z</time>
      </trkpt>
      <trkpt lat="44.55617" lon="2.97564">
        <ele>1050</ele>
        <time>2021-08-27T12:21:43Z</time>
      </trkpt>
      <trkpt lat="44.55628" lon="2.97568">
        <ele>1052</ele>
        <time>2021-08-27T12:21:49Z</time>
      </trkpt>
      <trkpt lat="44.55632" lon="2.97572">
        <ele>1053</ele>
        <time>2021-08-27T12:21:52Z</time>
      </trkpt>
      <trkpt lat="44.55637" lon="2.97575">
        <ele>1053</ele>
        <time>2021-08-27T12:21:55Z</time>
      </trkpt>
      <trkpt lat="44.55648" lon="2.97579">
        <ele>1055</ele>
        <time>2021-08-27T12:22:01Z</time>
      </trkpt>
      <trkpt lat="44.55659" lon="2.97583">
        <ele>1057</ele>
        <time>2021-08-27T12:22:07Z</time>
      </trkpt>
      <trkpt lat="44.55665" lon="2.97586">
        <ele>1057</ele>
        <time>2021-08-27T12:22:10Z</time>
      </trkpt>
      <trkpt lat="44.55675" lon="2.97593">
        <ele>1057</ele>
        <time>2021-08-27T12:22:16Z</time>
      </trkpt>
      <trkpt lat="44.55685" lon="2.97596">
        <ele>1058</ele>
        <time>2021-08-27T12:22:21Z</time>
      </trkpt>
      <trkpt lat="44.55702" lon="2.97605">
        <ele>1062</ele>
        <time>2021-08-27T12:22:30Z</time>
      </trkpt>
      <trkpt lat="44.55717" lon="2.97618">
        <ele>1061</ele>
        <time>2021-08-27T12:22:39Z</time>
      </trkpt>
      <trkpt lat="44.55729" lon="2.97636">
        <ele>1063</ele>
        <time>2021-08-27T12:22:47Z</time>
      </trkpt>
      <trkpt lat="44.55732" lon="2.97649">
        <ele>1064</ele>
        <time>2021-08-27T12:22:51Z</time>
      </trkpt>
      <trkpt lat="44.55736" lon="2.9769">
        <ele>1067</ele>
        <time>2021-08-27T12:23:05Z</time>
      </trkpt>
      <trkpt lat="44.55736" lon="2.97698">
        <ele>1067</ele>
        <time>2021-08-27T12:23:08Z</time>
      </trkpt>
      <trkpt lat="44.55741" lon="2.9775">
        <ele>1070</ele>
        <time>2021-08-27T12:23:26Z</time>
      </trkpt>
      <trkpt lat="44.55743" lon="2.97776">
        <ele>1071</ele>
        <time>2021-08-27T12:23:35Z</time>
      </trkpt>
      <trkpt lat="44.55743" lon="2.97792">
        <ele>1072</ele>
        <time>2021-08-27T12:23:41Z</time>
      </trkpt>
      <trkpt lat="44.55742" lon="2.97807">
        <ele>1075</ele>
        <time>2021-08-27T12:23:47Z</time>
      </trkpt>
      <trkpt lat="44.55742" lon="2.97817">
        <ele>1076</ele>
        <time>2021-08-27T12:23:50Z</time>
      </trkpt>
      <trkpt lat="44.55741" lon="2.97824">
        <ele>1076</ele>
        <time>2021-08-27T12:23:53Z</time>
      </trkpt>
      <trkpt lat="44.55748" lon="2.97914">
        <ele>1080</ele>
        <time>2021-08-27T12:24:22Z</time>
      </trkpt>
      <trkpt lat="44.55756" lon="2.97963">
        <ele>1085</ele>
        <time>2021-08-27T12:24:40Z</time>
      </trkpt>
      <trkpt lat="44.55761" lon="2.9801">
        <ele>1086</ele>
        <time>2021-08-27T12:24:55Z</time>
      </trkpt>
      <trkpt lat="44.55764" lon="2.98051">
        <ele>1088</ele>
        <time>2021-08-27T12:25:08Z</time>
      </trkpt>
      <trkpt lat="44.55773" lon="2.98138">
        <ele>1093</ele>
        <time>2021-08-27T12:25:38Z</time>
      </trkpt>
      <trkpt lat="44.55774" lon="2.98145">
        <ele>1094</ele>
        <time>2021-08-27T12:25:41Z</time>
      </trkpt>
      <trkpt lat="44.55802" lon="2.98204">
        <ele>1098</ele>
        <time>2021-08-27T12:26:05Z</time>
      </trkpt>
      <trkpt lat="44.55805" lon="2.98211">
        <ele>1099</ele>
        <time>2021-08-27T12:26:08Z</time>
      </trkpt>
      <trkpt lat="44.55835" lon="2.98271">
        <ele>1104</ele>
        <time>2021-08-27T12:26:38Z</time>
      </trkpt>
      <trkpt lat="44.55858" lon="2.98318">
        <ele>1105</ele>
        <time>2021-08-27T12:26:56Z</time>
      </trkpt>
      <trkpt lat="44.55866" lon="2.98332">
        <ele>1106</ele>
        <time>2021-08-27T12:27:02Z</time>
      </trkpt>
      <trkpt lat="44.55883" lon="2.98349">
        <ele>1107</ele>
        <time>2021-08-27T12:27:11Z</time>
      </trkpt>
      <trkpt lat="44.55893" lon="2.98357">
        <ele>1107</ele>
        <time>2021-08-27T12:27:15Z</time>
      </trkpt>
      <trkpt lat="44.55903" lon="2.98365">
        <ele>1105</ele>
        <time>2021-08-27T12:27:21Z</time>
      </trkpt>
      <trkpt lat="44.55939" lon="2.98394">
        <ele>1109</ele>
        <time>2021-08-27T12:27:43Z</time>
      </trkpt>
      <trkpt lat="44.55944" lon="2.98398">
        <ele>1109</ele>
        <time>2021-08-27T12:27:46Z</time>
      </trkpt>
      <trkpt lat="44.55959" lon="2.9841">
        <ele>1110</ele>
        <time>2021-08-27T12:27:56Z</time>
      </trkpt>
      <trkpt lat="44.55967" lon="2.98418">
        <ele>1110</ele>
        <time>2021-08-27T12:28:02Z</time>
      </trkpt>
      <trkpt lat="44.55972" lon="2.98422">
        <ele>1111</ele>
        <time>2021-08-27T12:28:05Z</time>
      </trkpt>
      <trkpt lat="44.55981" lon="2.98429">
        <ele>1112</ele>
        <time>2021-08-27T12:28:11Z</time>
      </trkpt>
      <trkpt lat="44.55991" lon="2.98436">
        <ele>1114</ele>
        <time>2021-08-27T12:28:17Z</time>
      </trkpt>
      <trkpt lat="44.55995" lon="2.98441">
        <ele>1114</ele>
        <time>2021-08-27T12:28:20Z</time>
      </trkpt>
      <trkpt lat="44.56013" lon="2.98456">
        <ele>1115</ele>
        <time>2021-08-27T12:28:31Z</time>
      </trkpt>
      <trkpt lat="44.56018" lon="2.9846">
        <ele>1115</ele>
        <time>2021-08-27T12:28:34Z</time>
      </trkpt>
      <trkpt lat="44.56022" lon="2.98463">
        <ele>1116</ele>
        <time>2021-08-27T12:28:37Z</time>
      </trkpt>
      <trkpt lat="44.56027" lon="2.98468">
        <ele>1116</ele>
        <time>2021-08-27T12:28:40Z</time>
      </trkpt>
      <trkpt lat="44.56052" lon="2.98487">
        <ele>1118</ele>
        <time>2021-08-27T12:28:55Z</time>
      </trkpt>
      <trkpt lat="44.56062" lon="2.98495">
        <ele>1120</ele>
        <time>2021-08-27T12:29:01Z</time>
      </trkpt>
      <trkpt lat="44.56067" lon="2.98499">
        <ele>1120</ele>
        <time>2021-08-27T12:29:04Z</time>
      </trkpt>
      <trkpt lat="44.56094" lon="2.98519">
        <ele>1122</ele>
        <time>2021-08-27T12:29:19Z</time>
      </trkpt>
      <trkpt lat="44.561" lon="2.98523">
        <ele>1122</ele>
        <time>2021-08-27T12:29:22Z</time>
      </trkpt>
      <trkpt lat="44.56106" lon="2.98525">
        <ele>1123</ele>
        <time>2021-08-27T12:29:25Z</time>
      </trkpt>
      <trkpt lat="44.56141" lon="2.98555">
        <ele>1127</ele>
        <time>2021-08-27T12:29:46Z</time>
      </trkpt>
      <trkpt lat="44.56145" lon="2.9856">
        <ele>1127</ele>
        <time>2021-08-27T12:29:49Z</time>
      </trkpt>
      <trkpt lat="44.56146" lon="2.98568">
        <ele>1128</ele>
        <time>2021-08-27T12:29:52Z</time>
      </trkpt>
      <trkpt lat="44.56146" lon="2.98577">
        <ele>1128</ele>
        <time>2021-08-27T12:29:55Z</time>
      </trkpt>
      <trkpt lat="44.56142" lon="2.98582">
        <ele>1128</ele>
        <time>2021-08-27T12:29:58Z</time>
      </trkpt>
      <trkpt lat="44.56137" lon="2.98584">
        <ele>1128</ele>
        <time>2021-08-27T12:30:00Z</time>
      </trkpt>
      <trkpt lat="44.56133" lon="2.98586">
        <ele>1129</ele>
        <time>2021-08-27T12:30:02Z</time>
      </trkpt>
      <trkpt lat="44.56122" lon="2.98593">
        <ele>1128</ele>
        <time>2021-08-27T12:30:08Z</time>
      </trkpt>
      <trkpt lat="44.561" lon="2.98601">
        <ele>1128</ele>
        <time>2021-08-27T12:30:18Z</time>
      </trkpt>
      <trkpt lat="44.56096" lon="2.98604">
        <ele>1128</ele>
        <time>2021-08-27T12:30:20Z</time>
      </trkpt>
      <trkpt lat="44.56087" lon="2.98612">
        <ele>1128</ele>
        <time>2021-08-27T12:30:25Z</time>
      </trkpt>
      <trkpt lat="44.56082" lon="2.98618">
        <ele>1129</ele>
        <time>2021-08-27T12:30:28Z</time>
      </trkpt>
      <trkpt lat="44.56077" lon="2.98622">
        <ele>1129</ele>
        <time>2021-08-27T12:30:31Z</time>
      </trkpt>
      <trkpt lat="44.56065" lon="2.98641">
        <ele>1131</ele>
        <time>2021-08-27T12:30:40Z</time>
      </trkpt>
      <trkpt lat="44.5606" lon="2.98656">
        <ele>1132</ele>
        <time>2021-08-27T12:30:46Z</time>
      </trkpt>
      <trkpt lat="44.56059" lon="2.98665">
        <ele>1133</ele>
        <time>2021-08-27T12:30:49Z</time>
      </trkpt>
      <trkpt lat="44.56059" lon="2.98674">
        <ele>1134</ele>
        <time>2021-08-27T12:30:52Z</time>
      </trkpt>
      <trkpt lat="44.56069" lon="2.98704">
        <ele>1136</ele>
        <time>2021-08-27T12:31:04Z</time>
      </trkpt>
      <trkpt lat="44.56074" lon="2.98718">
        <ele>1137</ele>
        <time>2021-08-27T12:31:10Z</time>
      </trkpt>
      <trkpt lat="44.56076" lon="2.98725">
        <ele>1138</ele>
        <time>2021-08-27T12:31:13Z</time>
      </trkpt>
      <trkpt lat="44.5608" lon="2.98742">
        <ele>1140</ele>
        <time>2021-08-27T12:31:19Z</time>
      </trkpt>
      <trkpt lat="44.56083" lon="2.9875">
        <ele>1140</ele>
        <time>2021-08-27T12:31:22Z</time>
      </trkpt>
      <trkpt lat="44.56095" lon="2.98778">
        <ele>1142</ele>
        <time>2021-08-27T12:31:33Z</time>
      </trkpt>
      <trkpt lat="44.56126" lon="2.98797">
        <ele>1146</ele>
        <time>2021-08-27T12:31:51Z</time>
      </trkpt>
      <trkpt lat="44.56132" lon="2.98799">
        <ele>1146</ele>
        <time>2021-08-27T12:31:54Z</time>
      </trkpt>
      <trkpt lat="44.56139" lon="2.98802">
        <ele>1147</ele>
        <time>2021-08-27T12:31:57Z</time>
      </trkpt>
      <trkpt lat="44.5615" lon="2.98808">
        <ele>1148</ele>
        <time>2021-08-27T12:32:03Z</time>
      </trkpt>
      <trkpt lat="44.56193" lon="2.98828">
        <ele>1151</ele>
        <time>2021-08-27T12:32:23Z</time>
      </trkpt>
      <trkpt lat="44.56199" lon="2.98832">
        <ele>1152</ele>
        <time>2021-08-27T12:32:26Z</time>
      </trkpt>
      <trkpt lat="44.56216" lon="2.98839">
        <ele>1153</ele>
        <time>2021-08-27T12:32:34Z</time>
      </trkpt>
      <trkpt lat="44.56222" lon="2.98843">
        <ele>1154</ele>
        <time>2021-08-27T12:32:37Z</time>
      </trkpt>
      <trkpt lat="44.56239" lon="2.98852">
        <ele>1154</ele>
        <time>2021-08-27T12:32:45Z</time>
      </trkpt>
      <trkpt lat="44.56244" lon="2.98854">
        <ele>1155</ele>
        <time>2021-08-27T12:32:47Z</time>
      </trkpt>
      <trkpt lat="44.56257" lon="2.98859">
        <ele>1155</ele>
        <time>2021-08-27T12:32:53Z</time>
      </trkpt>
      <trkpt lat="44.56262" lon="2.98862">
        <ele>1156</ele>
        <time>2021-08-27T12:32:55Z</time>
      </trkpt>
      <trkpt lat="44.56271" lon="2.98866">
        <ele>1156</ele>
        <time>2021-08-27T12:32:59Z</time>
      </trkpt>
      <trkpt lat="44.56285" lon="2.98876">
        <ele>1157</ele>
        <time>2021-08-27T12:33:06Z</time>
      </trkpt>
      <trkpt lat="44.56299" lon="2.98889">
        <ele>1160</ele>
        <time>2021-08-27T12:33:14Z</time>
      </trkpt>
      <trkpt lat="44.56336" lon="2.98965">
        <ele>1166</ele>
        <time>2021-08-27T12:34:13Z</time>
      </trkpt>
      <trkpt lat="44.56383" lon="2.99088">
        <ele>1172</ele>
        <time>2021-08-27T12:34:44Z</time>
      </trkpt>
      <trkpt lat="44.56437" lon="2.99236">
        <ele>1178</ele>
        <time>2021-08-27T12:35:16Z</time>
      </trkpt>
      <trkpt lat="44.56453" lon="2.99261">
        <ele>1179</ele>
        <time>2021-08-27T12:35:22Z</time>
      </trkpt>
      <trkpt lat="44.56485" lon="2.99293">
        <ele>1180</ele>
        <time>2021-08-27T12:35:32Z</time>
      </trkpt>
      <trkpt lat="44.56596" lon="2.99364">
        <ele>1191</ele>
        <time>2021-08-27T12:36:04Z</time>
      </trkpt>
      <trkpt lat="44.567" lon="2.99432">
        <ele>1195</ele>
        <time>2021-08-27T12:36:34Z</time>
      </trkpt>
      <trkpt lat="44.56719" lon="2.99448">
        <ele>1196</ele>
        <time>2021-08-27T12:36:40Z</time>
      </trkpt>
      <trkpt lat="44.568" lon="2.99538">
        <ele>1200</ele>
        <time>2021-08-27T12:37:12Z</time>
      </trkpt>
      <trkpt lat="44.56843" lon="2.99587">
        <ele>1199</ele>
        <time>2021-08-27T12:37:34Z</time>
      </trkpt>
      <trkpt lat="44.56864" lon="2.99601">
        <ele>1197</ele>
        <time>2021-08-27T12:37:44Z</time>
      </trkpt>
      <trkpt lat="44.56869" lon="2.99603">
        <ele>1196</ele>
        <time>2021-08-27T12:37:46Z</time>
      </trkpt>
      <trkpt lat="44.56875" lon="2.99606">
        <ele>1196</ele>
        <time>2021-08-27T12:37:49Z</time>
      </trkpt>
      <trkpt lat="44.569" lon="2.99608">
        <ele>1195</ele>
        <time>2021-08-27T12:37:59Z</time>
      </trkpt>
      <trkpt lat="44.56904" lon="2.99609">
        <ele>1195</ele>
        <time>2021-08-27T12:38:01Z</time>
      </trkpt>
      <trkpt lat="44.5692" lon="2.99614">
        <ele>1195</ele>
        <time>2021-08-27T12:38:09Z</time>
      </trkpt>
      <trkpt lat="44.56957" lon="2.99634">
        <ele>1194</ele>
        <time>2021-08-27T12:38:26Z</time>
      </trkpt>
      <trkpt lat="44.56963" lon="2.99637">
        <ele>1194</ele>
        <time>2021-08-27T12:38:29Z</time>
      </trkpt>
      <trkpt lat="44.56969" lon="2.99639">
        <ele>1194</ele>
        <time>2021-08-27T12:38:32Z</time>
      </trkpt>
      <trkpt lat="44.5702" lon="2.9966">
        <ele>1195</ele>
        <time>2021-08-27T12:38:56Z</time>
      </trkpt>
      <trkpt lat="44.57024" lon="2.99662">
        <ele>1195</ele>
        <time>2021-08-27T12:38:58Z</time>
      </trkpt>
      <trkpt lat="44.57041" lon="2.99669">
        <ele>1196</ele>
        <time>2021-08-27T12:39:06Z</time>
      </trkpt>
      <trkpt lat="44.57053" lon="2.99669">
        <ele>1197</ele>
        <time>2021-08-27T12:39:12Z</time>
      </trkpt>
      <trkpt lat="44.57062" lon="2.99656">
        <ele>1198</ele>
        <time>2021-08-27T12:39:18Z</time>
      </trkpt>
      <trkpt lat="44.5708" lon="2.99622">
        <ele>1200</ele>
        <time>2021-08-27T12:39:31Z</time>
      </trkpt>
      <trkpt lat="44.57088" lon="2.99613">
        <ele>1201</ele>
        <time>2021-08-27T12:39:35Z</time>
      </trkpt>
      <trkpt lat="44.57098" lon="2.99612">
        <ele>1201</ele>
        <time>2021-08-27T12:39:39Z</time>
      </trkpt>
      <trkpt lat="44.57103" lon="2.99613">
        <ele>1201</ele>
        <time>2021-08-27T12:39:41Z</time>
      </trkpt>
      <trkpt lat="44.57108" lon="2.99614">
        <ele>1202</ele>
        <time>2021-08-27T12:39:43Z</time>
      </trkpt>
      <trkpt lat="44.57112" lon="2.99618">
        <ele>1202</ele>
        <time>2021-08-27T12:39:45Z</time>
      </trkpt>
      <trkpt lat="44.57117" lon="2.99622">
        <ele>1202</ele>
        <time>2021-08-27T12:39:47Z</time>
      </trkpt>
      <trkpt lat="44.5713" lon="2.99633">
        <ele>1204</ele>
        <time>2021-08-27T12:39:55Z</time>
      </trkpt>
      <trkpt lat="44.57174" lon="2.9967">
        <ele>1210</ele>
        <time>2021-08-27T12:40:19Z</time>
      </trkpt>
      <trkpt lat="44.57178" lon="2.99674">
        <ele>1210</ele>
        <time>2021-08-27T12:40:22Z</time>
      </trkpt>
      <trkpt lat="44.57215" lon="2.99704">
        <ele>1210</ele>
        <time>2021-08-27T12:40:39Z</time>
      </trkpt>
      <trkpt lat="44.57224" lon="2.99713">
        <ele>1210</ele>
        <time>2021-08-27T12:40:45Z</time>
      </trkpt>
      <trkpt lat="44.57227" lon="2.99719">
        <ele>1212</ele>
        <time>2021-08-27T12:40:48Z</time>
      </trkpt>
      <trkpt lat="44.57232" lon="2.99724">
        <ele>1214</ele>
        <time>2021-08-27T12:40:51Z</time>
      </trkpt>
      <trkpt lat="44.57285" lon="2.99772">
        <ele>1224</ele>
        <time>2021-08-27T12:41:18Z</time>
      </trkpt>
      <trkpt lat="44.57289" lon="2.99779">
        <ele>1225</ele>
        <time>2021-08-27T12:41:21Z</time>
      </trkpt>
      <trkpt lat="44.57293" lon="2.998">
        <ele>1227</ele>
        <time>2021-08-27T12:41:30Z</time>
      </trkpt>
      <trkpt lat="44.57298" lon="2.9985">
        <ele>1231</ele>
        <time>2021-08-27T12:41:48Z</time>
      </trkpt>
      <trkpt lat="44.57299" lon="2.99859">
        <ele>1232</ele>
        <time>2021-08-27T12:41:51Z</time>
      </trkpt>
      <trkpt lat="44.57298" lon="2.99867">
        <ele>1232</ele>
        <time>2021-08-27T12:41:55Z</time>
      </trkpt>
      <trkpt lat="44.57298" lon="2.99905">
        <ele>1237</ele>
        <time>2021-08-27T12:42:06Z</time>
      </trkpt>
      <trkpt lat="44.57307" lon="2.99974">
        <ele>1238</ele>
        <time>2021-08-27T12:42:28Z</time>
      </trkpt>
      <trkpt lat="44.57314" lon="2.99998">
        <ele>1240</ele>
        <time>2021-08-27T12:42:37Z</time>
      </trkpt>
      <trkpt lat="44.57317" lon="3.00004">
        <ele>1240</ele>
        <time>2021-08-27T12:42:39Z</time>
      </trkpt>
      <trkpt lat="44.57319" lon="3.0001">
        <ele>1241</ele>
        <time>2021-08-27T12:42:41Z</time>
      </trkpt>
      <trkpt lat="44.5733" lon="3.00034">
        <ele>1241</ele>
        <time>2021-08-27T12:42:49Z</time>
      </trkpt>
      <trkpt lat="44.57337" lon="3.00046">
        <ele>1242</ele>
        <time>2021-08-27T12:42:54Z</time>
      </trkpt>
      <trkpt lat="44.57342" lon="3.00052">
        <ele>1244</ele>
        <time>2021-08-27T12:42:57Z</time>
      </trkpt>
      <trkpt lat="44.57366" lon="3.00093">
        <ele>1248</ele>
        <time>2021-08-27T12:43:15Z</time>
      </trkpt>
      <trkpt lat="44.57371" lon="3.00098">
        <ele>1248</ele>
        <time>2021-08-27T12:43:18Z</time>
      </trkpt>
      <trkpt lat="44.57379" lon="3.00107">
        <ele>1248</ele>
        <time>2021-08-27T12:43:23Z</time>
      </trkpt>
      <trkpt lat="44.57417" lon="3.00153">
        <ele>1247</ele>
        <time>2021-08-27T12:43:49Z</time>
      </trkpt>
      <trkpt lat="44.57421" lon="3.00157">
        <ele>1248</ele>
        <time>2021-08-27T12:43:51Z</time>
      </trkpt>
      <trkpt lat="44.57435" lon="3.00174">
        <ele>1248</ele>
        <time>2021-08-27T12:43:59Z</time>
      </trkpt>
      <trkpt lat="44.57439" lon="3.00178">
        <ele>1248</ele>
        <time>2021-08-27T12:44:02Z</time>
      </trkpt>
      <trkpt lat="44.57443" lon="3.00182">
        <ele>1248</ele>
        <time>2021-08-27T12:44:04Z</time>
      </trkpt>
      <trkpt lat="44.57448" lon="3.00187">
        <ele>1248</ele>
        <time>2021-08-27T12:44:07Z</time>
      </trkpt>
      <trkpt lat="44.57467" lon="3.00206">
        <ele>1248</ele>
        <time>2021-08-27T12:44:17Z</time>
      </trkpt>
      <trkpt lat="44.5747" lon="3.0021">
        <ele>1250</ele>
        <time>2021-08-27T12:44:19Z</time>
      </trkpt>
      <trkpt lat="44.57496" lon="3.00244">
        <ele>1252</ele>
        <time>2021-08-27T12:44:35Z</time>
      </trkpt>
      <trkpt lat="44.57499" lon="3.00249">
        <ele>1253</ele>
        <time>2021-08-27T12:44:37Z</time>
      </trkpt>
      <trkpt lat="44.57548" lon="3.00319">
        <ele>1263</ele>
        <time>2021-08-27T12:45:07Z</time>
      </trkpt>
      <trkpt lat="44.57605" lon="3.00373">
        <ele>1261</ele>
        <time>2021-08-27T12:45:38Z</time>
      </trkpt>
      <trkpt lat="44.57648" lon="3.00413">
        <ele>1259</ele>
        <time>2021-08-27T12:46:02Z</time>
      </trkpt>
      <trkpt lat="44.57713" lon="3.00447">
        <ele>1259</ele>
        <time>2021-08-27T12:46:33Z</time>
      </trkpt>
      <trkpt lat="44.57728" lon="3.00459">
        <ele>1259</ele>
        <time>2021-08-27T12:46:40Z</time>
      </trkpt>
      <trkpt lat="44.57762" lon="3.00494">
        <ele>1262</ele>
        <time>2021-08-27T12:46:59Z</time>
      </trkpt>
      <trkpt lat="44.57769" lon="3.00504">
        <ele>1263</ele>
        <time>2021-08-27T12:47:03Z</time>
      </trkpt>
      <trkpt lat="44.57773" lon="3.00508">
        <ele>1263</ele>
        <time>2021-08-27T12:47:05Z</time>
      </trkpt>
      <trkpt lat="44.57785" lon="3.00523">
        <ele>1264</ele>
        <time>2021-08-27T12:47:12Z</time>
      </trkpt>
      <trkpt lat="44.57797" lon="3.00535">
        <ele>1264</ele>
        <time>2021-08-27T12:47:18Z</time>
      </trkpt>
      <trkpt lat="44.5781" lon="3.00548">
        <ele>1265</ele>
        <time>2021-08-27T12:47:25Z</time>
      </trkpt>
      <trkpt lat="44.57872" lon="3.00598">
        <ele>1275</ele>
        <time>2021-08-27T12:47:58Z</time>
      </trkpt>
      <trkpt lat="44.57886" lon="3.00607">
        <ele>1277</ele>
        <time>2021-08-27T12:48:04Z</time>
      </trkpt>
      <trkpt lat="44.579" lon="3.00634">
        <ele>1282</ele>
        <time>2021-08-27T12:48:14Z</time>
      </trkpt>
      <trkpt lat="44.57906" lon="3.0067">
        <ele>1285</ele>
        <time>2021-08-27T12:48:25Z</time>
      </trkpt>
      <trkpt lat="44.579" lon="3.00777">
        <ele>1287</ele>
        <time>2021-08-27T12:48:55Z</time>
      </trkpt>
      <trkpt lat="44.57891" lon="3.00869">
        <ele>1288</ele>
        <time>2021-08-27T12:49:19Z</time>
      </trkpt>
      <trkpt lat="44.57858" lon="3.00987">
        <ele>1299</ele>
        <time>2021-08-27T12:49:49Z</time>
      </trkpt>
      <trkpt lat="44.57856" lon="3.01004">
        <ele>1301</ele>
        <time>2021-08-27T12:49:53Z</time>
      </trkpt>
      <trkpt lat="44.57871" lon="3.01176">
        <ele>1306</ele>
        <time>2021-08-27T12:50:23Z</time>
      </trkpt>
      <trkpt lat="44.57879" lon="3.01217">
        <ele>1305</ele>
        <time>2021-08-27T12:50:29Z</time>
      </trkpt>
      <trkpt lat="44.57932" lon="3.01381">
        <ele>1308</ele>
        <time>2021-08-27T12:50:59Z</time>
      </trkpt>
      <trkpt lat="44.57943" lon="3.01439">
        <ele>1306</ele>
        <time>2021-08-27T12:51:09Z</time>
      </trkpt>
      <trkpt lat="44.57968" lon="3.0153">
        <ele>1305</ele>
        <time>2021-08-27T12:51:23Z</time>
      </trkpt>
      <trkpt lat="44.57979" lon="3.0155">
        <ele>1304</ele>
        <time>2021-08-27T12:51:27Z</time>
      </trkpt>
      <trkpt lat="44.58017" lon="3.01592">
        <ele>1305</ele>
        <time>2021-08-27T12:51:38Z</time>
      </trkpt>
      <trkpt lat="44.58032" lon="3.01617">
        <ele>1304</ele>
        <time>2021-08-27T12:51:43Z</time>
      </trkpt>
      <trkpt lat="44.58102" lon="3.01786">
        <ele>1299</ele>
        <time>2021-08-27T12:52:13Z</time>
      </trkpt>
      <trkpt lat="44.58134" lon="3.01912">
        <ele>1297</ele>
        <time>2021-08-27T12:52:34Z</time>
      </trkpt>
      <trkpt lat="44.5816" lon="3.01982">
        <ele>1296</ele>
        <time>2021-08-27T12:52:48Z</time>
      </trkpt>
      <trkpt lat="44.58193" lon="3.02079">
        <ele>1298</ele>
        <time>2021-08-27T12:53:10Z</time>
      </trkpt>
      <trkpt lat="44.58216" lon="3.02131">
        <ele>1302</ele>
        <time>2021-08-27T12:53:22Z</time>
      </trkpt>
      <trkpt lat="44.58245" lon="3.02163">
        <ele>1304</ele>
        <time>2021-08-27T12:53:32Z</time>
      </trkpt>
      <trkpt lat="44.58337" lon="3.02253">
        <ele>1313</ele>
        <time>2021-08-27T12:54:02Z</time>
      </trkpt>
      <trkpt lat="44.5839" lon="3.02285">
        <ele>1316</ele>
        <time>2021-08-27T12:54:18Z</time>
      </trkpt>
      <trkpt lat="44.58427" lon="3.02296">
        <ele>1318</ele>
        <time>2021-08-27T12:54:30Z</time>
      </trkpt>
      <trkpt lat="44.58507" lon="3.02246">
        <ele>1320</ele>
        <time>2021-08-27T12:55:00Z</time>
      </trkpt>
      <trkpt lat="44.5857" lon="3.02189">
        <ele>1320</ele>
        <time>2021-08-27T12:55:32Z</time>
      </trkpt>
      <trkpt lat="44.58573" lon="3.02185">
        <ele>1320</ele>
        <time>2021-08-27T12:59:24Z</time>
      </trkpt>
      <trkpt lat="44.58577" lon="3.0218">
        <ele>1320</ele>
        <time>2021-08-27T12:59:34Z</time>
      </trkpt>
      <trkpt lat="44.58625" lon="3.02167">
        <ele>1318</ele>
        <time>2021-08-27T12:59:49Z</time>
      </trkpt>
      <trkpt lat="44.58685" lon="3.02123">
        <ele>1317</ele>
        <time>2021-08-27T12:59:59Z</time>
      </trkpt>
      <trkpt lat="44.5869" lon="3.02115">
        <ele>1317</ele>
        <time>2021-08-27T13:00:00Z</time>
      </trkpt>
      <trkpt lat="44.58697" lon="3.02096">
        <ele>1316</ele>
        <time>2021-08-27T13:00:02Z</time>
      </trkpt>
      <trkpt lat="44.58699" lon="3.02074">
        <ele>1317</ele>
        <time>2021-08-27T13:00:04Z</time>
      </trkpt>
      <trkpt lat="44.58697" lon="3.02051">
        <ele>1317</ele>
        <time>2021-08-27T13:00:06Z</time>
      </trkpt>
      <trkpt lat="44.5869" lon="3.02017">
        <ele>1315</ele>
        <time>2021-08-27T13:00:09Z</time>
      </trkpt>
      <trkpt lat="44.58689" lon="3.01991">
        <ele>1314</ele>
        <time>2021-08-27T13:00:11Z</time>
      </trkpt>
      <trkpt lat="44.58707" lon="3.0189">
        <ele>1309</ele>
        <time>2021-08-27T13:00:19Z</time>
      </trkpt>
      <trkpt lat="44.58705" lon="3.01865">
        <ele>1308</ele>
        <time>2021-08-27T13:00:21Z</time>
      </trkpt>
      <trkpt lat="44.58673" lon="3.01725">
        <ele>1306</ele>
        <time>2021-08-27T13:00:32Z</time>
      </trkpt>
      <trkpt lat="44.58667" lon="3.01666">
        <ele>1300</ele>
        <time>2021-08-27T13:00:37Z</time>
      </trkpt>
      <trkpt lat="44.58649" lon="3.01632">
        <ele>1301</ele>
        <time>2021-08-27T13:00:41Z</time>
      </trkpt>
      <trkpt lat="44.58639" lon="3.01615">
        <ele>1301</ele>
        <time>2021-08-27T13:00:43Z</time>
      </trkpt>
      <trkpt lat="44.58634" lon="3.01608">
        <ele>1301</ele>
        <time>2021-08-27T13:00:44Z</time>
      </trkpt>
      <trkpt lat="44.58607" lon="3.01593">
        <ele>1298</ele>
        <time>2021-08-27T13:00:48Z</time>
      </trkpt>
      <trkpt lat="44.58525" lon="3.01549">
        <ele>1284</ele>
        <time>2021-08-27T13:00:59Z</time>
      </trkpt>
      <trkpt lat="44.58514" lon="3.01538">
        <ele>1282</ele>
        <time>2021-08-27T13:01:01Z</time>
      </trkpt>
      <trkpt lat="44.58509" lon="3.01535">
        <ele>1282</ele>
        <time>2021-08-27T13:01:02Z</time>
      </trkpt>
      <trkpt lat="44.58504" lon="3.01533">
        <ele>1281</ele>
        <time>2021-08-27T13:01:03Z</time>
      </trkpt>
      <trkpt lat="44.58499" lon="3.01533">
        <ele>1280</ele>
        <time>2021-08-27T13:01:04Z</time>
      </trkpt>
      <trkpt lat="44.58488" lon="3.01542">
        <ele>1281</ele>
        <time>2021-08-27T13:01:06Z</time>
      </trkpt>
      <trkpt lat="44.5844" lon="3.01686">
        <ele>1283</ele>
        <time>2021-08-27T13:01:24Z</time>
      </trkpt>
      <trkpt lat="44.58436" lon="3.01691">
        <ele>1282</ele>
        <time>2021-08-27T13:01:25Z</time>
      </trkpt>
      <trkpt lat="44.58429" lon="3.01703">
        <ele>1276</ele>
        <time>2021-08-27T13:01:29Z</time>
      </trkpt>
      <trkpt lat="44.58424" lon="3.01702">
        <ele>1274</ele>
        <time>2021-08-27T13:01:31Z</time>
      </trkpt>
      <trkpt lat="44.58418" lon="3.01698">
        <ele>1272</ele>
        <time>2021-08-27T13:01:33Z</time>
      </trkpt>
      <trkpt lat="44.58409" lon="3.01688">
        <ele>1269</ele>
        <time>2021-08-27T13:01:37Z</time>
      </trkpt>
      <trkpt lat="44.58405" lon="3.01682">
        <ele>1269</ele>
        <time>2021-08-27T13:01:39Z</time>
      </trkpt>
      <trkpt lat="44.58407" lon="3.01674">
        <ele>1261</ele>
        <time>2021-08-27T13:03:14Z</time>
      </trkpt>
      <trkpt lat="44.58406" lon="3.01668">
        <ele>1260</ele>
        <time>2021-08-27T13:03:16Z</time>
      </trkpt>
      <trkpt lat="44.584" lon="3.01628">
        <ele>1256</ele>
        <time>2021-08-27T13:03:24Z</time>
      </trkpt>
      <trkpt lat="44.58399" lon="3.01612">
        <ele>1256</ele>
        <time>2021-08-27T13:03:26Z</time>
      </trkpt>
      <trkpt lat="44.58404" lon="3.01588">
        <ele>1254</ele>
        <time>2021-08-27T13:03:29Z</time>
      </trkpt>
      <trkpt lat="44.58474" lon="3.01364">
        <ele>1242</ele>
        <time>2021-08-27T13:03:51Z</time>
      </trkpt>
      <trkpt lat="44.58493" lon="3.0124">
        <ele>1236</ele>
        <time>2021-08-27T13:04:01Z</time>
      </trkpt>
      <trkpt lat="44.58535" lon="3.01151">
        <ele>1229</ele>
        <time>2021-08-27T13:04:09Z</time>
      </trkpt>
      <trkpt lat="44.5856" lon="3.01117">
        <ele>1225</ele>
        <time>2021-08-27T13:04:13Z</time>
      </trkpt>
      <trkpt lat="44.58569" lon="3.01097">
        <ele>1223</ele>
        <time>2021-08-27T13:04:15Z</time>
      </trkpt>
      <trkpt lat="44.58574" lon="3.01073">
        <ele>1222</ele>
        <time>2021-08-27T13:04:17Z</time>
      </trkpt>
      <trkpt lat="44.58577" lon="3.01035">
        <ele>1222</ele>
        <time>2021-08-27T13:04:20Z</time>
      </trkpt>
      <trkpt lat="44.58592" lon="3.00937">
        <ele>1218</ele>
        <time>2021-08-27T13:04:28Z</time>
      </trkpt>
      <trkpt lat="44.58625" lon="3.00837">
        <ele>1212</ele>
        <time>2021-08-27T13:04:37Z</time>
      </trkpt>
      <trkpt lat="44.58639" lon="3.00716">
        <ele>1205</ele>
        <time>2021-08-27T13:04:47Z</time>
      </trkpt>
      <trkpt lat="44.58642" lon="3.00664">
        <ele>1202</ele>
        <time>2021-08-27T13:04:51Z</time>
      </trkpt>
      <trkpt lat="44.58644" lon="3.00641">
        <ele>1200</ele>
        <time>2021-08-27T13:04:53Z</time>
      </trkpt>
      <trkpt lat="44.58646" lon="3.00551">
        <ele>1195</ele>
        <time>2021-08-27T13:05:00Z</time>
      </trkpt>
      <trkpt lat="44.5865" lon="3.00526">
        <ele>1194</ele>
        <time>2021-08-27T13:05:02Z</time>
      </trkpt>
      <trkpt lat="44.58666" lon="3.00476">
        <ele>1190</ele>
        <time>2021-08-27T13:05:06Z</time>
      </trkpt>
      <trkpt lat="44.58669" lon="3.00439">
        <ele>1189</ele>
        <time>2021-08-27T13:05:09Z</time>
      </trkpt>
      <trkpt lat="44.58656" lon="3.0027">
        <ele>1188</ele>
        <time>2021-08-27T13:05:23Z</time>
      </trkpt>
      <trkpt lat="44.58633" lon="3.0015">
        <ele>1184</ele>
        <time>2021-08-27T13:05:33Z</time>
      </trkpt>
      <trkpt lat="44.58634" lon="3.00106">
        <ele>1182</ele>
        <time>2021-08-27T13:05:37Z</time>
      </trkpt>
      <trkpt lat="44.58643" lon="3.00069">
        <ele>1181</ele>
        <time>2021-08-27T13:05:40Z</time>
      </trkpt>
      <trkpt lat="44.58677" lon="2.99982">
        <ele>1178</ele>
        <time>2021-08-27T13:05:49Z</time>
      </trkpt>
      <trkpt lat="44.5868" lon="2.99964">
        <ele>1178</ele>
        <time>2021-08-27T13:05:51Z</time>
      </trkpt>
      <trkpt lat="44.58679" lon="2.99947">
        <ele>1177</ele>
        <time>2021-08-27T13:05:53Z</time>
      </trkpt>
      <trkpt lat="44.58666" lon="2.99913">
        <ele>1180</ele>
        <time>2021-08-27T13:05:58Z</time>
      </trkpt>
      <trkpt lat="44.5854" lon="2.99711">
        <ele>1183</ele>
        <time>2021-08-27T13:06:24Z</time>
      </trkpt>
      <trkpt lat="44.58534" lon="2.99684">
        <ele>1182</ele>
        <time>2021-08-27T13:06:26Z</time>
      </trkpt>
      <trkpt lat="44.58533" lon="2.9967">
        <ele>1181</ele>
        <time>2021-08-27T13:06:27Z</time>
      </trkpt>
      <trkpt lat="44.58534" lon="2.99655">
        <ele>1177</ele>
        <time>2021-08-27T13:06:28Z</time>
      </trkpt>
      <trkpt lat="44.58541" lon="2.99627">
        <ele>1173</ele>
        <time>2021-08-27T13:06:30Z</time>
      </trkpt>
      <trkpt lat="44.58567" lon="2.99544">
        <ele>1167</ele>
        <time>2021-08-27T13:06:37Z</time>
      </trkpt>
      <trkpt lat="44.58569" lon="2.99533">
        <ele>1166</ele>
        <time>2021-08-27T13:06:38Z</time>
      </trkpt>
      <trkpt lat="44.58569" lon="2.99521">
        <ele>1166</ele>
        <time>2021-08-27T13:06:39Z</time>
      </trkpt>
      <trkpt lat="44.58562" lon="2.99497">
        <ele>1163</ele>
        <time>2021-08-27T13:06:41Z</time>
      </trkpt>
      <trkpt lat="44.58551" lon="2.99478">
        <ele>1161</ele>
        <time>2021-08-27T13:06:43Z</time>
      </trkpt>
      <trkpt lat="44.585" lon="2.99439">
        <ele>1155</ele>
        <time>2021-08-27T13:06:49Z</time>
      </trkpt>
      <trkpt lat="44.58483" lon="2.99431">
        <ele>1153</ele>
        <time>2021-08-27T13:06:51Z</time>
      </trkpt>
      <trkpt lat="44.58396" lon="2.99435">
        <ele>1144</ele>
        <time>2021-08-27T13:07:00Z</time>
      </trkpt>
      <trkpt lat="44.58387" lon="2.99433">
        <ele>1142</ele>
        <time>2021-08-27T13:07:01Z</time>
      </trkpt>
      <trkpt lat="44.58342" lon="2.99418">
        <ele>1135</ele>
        <time>2021-08-27T13:07:06Z</time>
      </trkpt>
      <trkpt lat="44.58317" lon="2.9942">
        <ele>1131</ele>
        <time>2021-08-27T13:07:09Z</time>
      </trkpt>
      <trkpt lat="44.5829" lon="2.99428">
        <ele>1128</ele>
        <time>2021-08-27T13:07:12Z</time>
      </trkpt>
      <trkpt lat="44.58281" lon="2.99429">
        <ele>1127</ele>
        <time>2021-08-27T13:07:13Z</time>
      </trkpt>
      <trkpt lat="44.58145" lon="2.99396">
        <ele>1102</ele>
        <time>2021-08-27T13:07:28Z</time>
      </trkpt>
      <trkpt lat="44.58031" lon="2.99383">
        <ele>1080</ele>
        <time>2021-08-27T13:07:40Z</time>
      </trkpt>
      <trkpt lat="44.57947" lon="2.99352">
        <ele>1074</ele>
        <time>2021-08-27T13:07:50Z</time>
      </trkpt>
      <trkpt lat="44.57921" lon="2.9933">
        <ele>1067</ele>
        <time>2021-08-27T13:07:56Z</time>
      </trkpt>
      <trkpt lat="44.57885" lon="2.99286">
        <ele>1062</ele>
        <time>2021-08-27T13:08:03Z</time>
      </trkpt>
      <trkpt lat="44.57871" lon="2.99279">
        <ele>1060</ele>
        <time>2021-08-27T13:08:05Z</time>
      </trkpt>
      <trkpt lat="44.57827" lon="2.99276">
        <ele>1056</ele>
        <time>2021-08-27T13:08:13Z</time>
      </trkpt>
      <trkpt lat="44.57748" lon="2.99222">
        <ele>1053</ele>
        <time>2021-08-27T13:08:23Z</time>
      </trkpt>
      <trkpt lat="44.57614" lon="2.99081">
        <ele>1047</ele>
        <time>2021-08-27T13:08:42Z</time>
      </trkpt>
      <trkpt lat="44.57608" lon="2.99079">
        <ele>1047</ele>
        <time>2021-08-27T13:08:45Z</time>
      </trkpt>
      <trkpt lat="44.57603" lon="2.99076">
        <ele>1050</ele>
        <time>2021-08-27T13:08:47Z</time>
      </trkpt>
      <trkpt lat="44.57601" lon="2.99071">
        <ele>1050</ele>
        <time>2021-08-27T13:08:49Z</time>
      </trkpt>
      <trkpt lat="44.57597" lon="2.99066">
        <ele>1050</ele>
        <time>2021-08-27T13:09:41Z</time>
      </trkpt>
      <trkpt lat="44.57591" lon="2.99054">
        <ele>1050</ele>
        <time>2021-08-27T13:09:47Z</time>
      </trkpt>
      <trkpt lat="44.57582" lon="2.98973">
        <ele>1051</ele>
        <time>2021-08-27T13:10:05Z</time>
      </trkpt>
      <trkpt lat="44.57588" lon="2.98876">
        <ele>1049</ele>
        <time>2021-08-27T13:10:21Z</time>
      </trkpt>
      <trkpt lat="44.57596" lon="2.98844">
        <ele>1048</ele>
        <time>2021-08-27T13:10:25Z</time>
      </trkpt>
      <trkpt lat="44.57598" lon="2.98827">
        <ele>1047</ele>
        <time>2021-08-27T13:10:27Z</time>
      </trkpt>
      <trkpt lat="44.57593" lon="2.98793">
        <ele>1047</ele>
        <time>2021-08-27T13:10:31Z</time>
      </trkpt>
      <trkpt lat="44.57579" lon="2.98745">
        <ele>1049</ele>
        <time>2021-08-27T13:10:36Z</time>
      </trkpt>
      <trkpt lat="44.57545" lon="2.98662">
        <ele>1053</ele>
        <time>2021-08-27T13:10:44Z</time>
      </trkpt>
      <trkpt lat="44.57542" lon="2.98642">
        <ele>1053</ele>
        <time>2021-08-27T13:10:46Z</time>
      </trkpt>
      <trkpt lat="44.57542" lon="2.98621">
        <ele>1051</ele>
        <time>2021-08-27T13:10:48Z</time>
      </trkpt>
      <trkpt lat="44.57552" lon="2.98559">
        <ele>1049</ele>
        <time>2021-08-27T13:10:54Z</time>
      </trkpt>
      <trkpt lat="44.5755" lon="2.9853">
        <ele>1051</ele>
        <time>2021-08-27T13:10:57Z</time>
      </trkpt>
      <trkpt lat="44.57521" lon="2.98444">
        <ele>1055</ele>
        <time>2021-08-27T13:11:11Z</time>
      </trkpt>
      <trkpt lat="44.57512" lon="2.9842">
        <ele>1056</ele>
        <time>2021-08-27T13:11:15Z</time>
      </trkpt>
      <trkpt lat="44.57495" lon="2.98331">
        <ele>1060</ele>
        <time>2021-08-27T13:11:28Z</time>
      </trkpt>
      <trkpt lat="44.57495" lon="2.98256">
        <ele>1060</ele>
        <time>2021-08-27T13:11:40Z</time>
      </trkpt>
      <trkpt lat="44.57512" lon="2.98109">
        <ele>1057</ele>
        <time>2021-08-27T13:12:01Z</time>
      </trkpt>
      <trkpt lat="44.5751" lon="2.98083">
        <ele>1057</ele>
        <time>2021-08-27T13:12:04Z</time>
      </trkpt>
      <trkpt lat="44.57503" lon="2.9806">
        <ele>1058</ele>
        <time>2021-08-27T13:12:07Z</time>
      </trkpt>
      <trkpt lat="44.57464" lon="2.97995">
        <ele>1059</ele>
        <time>2021-08-27T13:12:17Z</time>
      </trkpt>
      <trkpt lat="44.57458" lon="2.97975">
        <ele>1059</ele>
        <time>2021-08-27T13:12:20Z</time>
      </trkpt>
      <trkpt lat="44.57451" lon="2.97919">
        <ele>1059</ele>
        <time>2021-08-27T13:12:27Z</time>
      </trkpt>
      <trkpt lat="44.57447" lon="2.97897">
        <ele>1059</ele>
        <time>2021-08-27T13:12:30Z</time>
      </trkpt>
      <trkpt lat="44.57442" lon="2.97886">
        <ele>1060</ele>
        <time>2021-08-27T13:12:32Z</time>
      </trkpt>
      <trkpt lat="44.57389" lon="2.97825">
        <ele>1057</ele>
        <time>2021-08-27T13:12:45Z</time>
      </trkpt>
      <trkpt lat="44.57311" lon="2.97759">
        <ele>1046</ele>
        <time>2021-08-27T13:13:05Z</time>
      </trkpt>
      <trkpt lat="44.57305" lon="2.97751">
        <ele>1045</ele>
        <time>2021-08-27T13:13:07Z</time>
      </trkpt>
      <trkpt lat="44.57297" lon="2.97721">
        <ele>1044</ele>
        <time>2021-08-27T13:13:15Z</time>
      </trkpt>
      <trkpt lat="44.57284" lon="2.97648">
        <ele>1043</ele>
        <time>2021-08-27T13:13:27Z</time>
      </trkpt>
      <trkpt lat="44.57288" lon="2.97621">
        <ele>1042</ele>
        <time>2021-08-27T13:13:30Z</time>
      </trkpt>
      <trkpt lat="44.57307" lon="2.97566">
        <ele>1039</ele>
        <time>2021-08-27T13:13:36Z</time>
      </trkpt>
      <trkpt lat="44.57309" lon="2.97548">
        <ele>1039</ele>
        <time>2021-08-27T13:13:38Z</time>
      </trkpt>
      <trkpt lat="44.57308" lon="2.97539">
        <ele>1039</ele>
        <time>2021-08-27T13:13:39Z</time>
      </trkpt>
      <trkpt lat="44.57301" lon="2.97512">
        <ele>1041</ele>
        <time>2021-08-27T13:13:42Z</time>
      </trkpt>
      <trkpt lat="44.57291" lon="2.97491">
        <ele>1042</ele>
        <time>2021-08-27T13:13:45Z</time>
      </trkpt>
      <trkpt lat="44.57272" lon="2.97474">
        <ele>1042</ele>
        <time>2021-08-27T13:13:49Z</time>
      </trkpt>
      <trkpt lat="44.57256" lon="2.97464">
        <ele>1042</ele>
        <time>2021-08-27T13:13:53Z</time>
      </trkpt>
      <trkpt lat="44.57063" lon="2.97408">
        <ele>1025</ele>
        <time>2021-08-27T13:14:24Z</time>
      </trkpt>
      <trkpt lat="44.57006" lon="2.97395">
        <ele>1019</ele>
        <time>2021-08-27T13:14:30Z</time>
      </trkpt>
      <trkpt lat="44.56926" lon="2.97413">
        <ele>1012</ele>
        <time>2021-08-27T13:14:38Z</time>
      </trkpt>
      <trkpt lat="44.56812" lon="2.97394">
        <ele>1001</ele>
        <time>2021-08-27T13:14:48Z</time>
      </trkpt>
      <trkpt lat="44.56663" lon="2.97339">
        <ele>984</ele>
        <time>2021-08-27T13:15:03Z</time>
      </trkpt>
      <trkpt lat="44.56643" lon="2.97324">
        <ele>986</ele>
        <time>2021-08-27T13:15:05Z</time>
      </trkpt>
      <trkpt lat="44.56609" lon="2.97285">
        <ele>992</ele>
        <time>2021-08-27T13:15:10Z</time>
      </trkpt>
      <trkpt lat="44.56545" lon="2.97201">
        <ele>997</ele>
        <time>2021-08-27T13:15:36Z</time>
      </trkpt>
      <trkpt lat="44.56473" lon="2.97124">
        <ele>999</ele>
        <time>2021-08-27T13:16:08Z</time>
      </trkpt>
      <trkpt lat="44.56401" lon="2.97044">
        <ele>1004</ele>
        <time>2021-08-27T13:16:38Z</time>
      </trkpt>
      <trkpt lat="44.56389" lon="2.9702">
        <ele>1007</ele>
        <time>2021-08-27T13:16:44Z</time>
      </trkpt>
      <trkpt lat="44.56386" lon="2.97002">
        <ele>1008</ele>
        <time>2021-08-27T13:16:48Z</time>
      </trkpt>
      <trkpt lat="44.56392" lon="2.96956">
        <ele>1011</ele>
        <time>2021-08-27T13:16:58Z</time>
      </trkpt>
      <trkpt lat="44.56405" lon="2.96901">
        <ele>1014</ele>
        <time>2021-08-27T13:17:10Z</time>
      </trkpt>
      <trkpt lat="44.56407" lon="2.96862">
        <ele>1016</ele>
        <time>2021-08-27T13:17:18Z</time>
      </trkpt>
      <trkpt lat="44.56401" lon="2.96826">
        <ele>1017</ele>
        <time>2021-08-27T13:17:26Z</time>
      </trkpt>
      <trkpt lat="44.5639" lon="2.96806">
        <ele>1019</ele>
        <time>2021-08-27T13:17:32Z</time>
      </trkpt>
      <trkpt lat="44.56369" lon="2.96774">
        <ele>1021</ele>
        <time>2021-08-27T13:17:42Z</time>
      </trkpt>
      <trkpt lat="44.56357" lon="2.96753">
        <ele>1022</ele>
        <time>2021-08-27T13:17:48Z</time>
      </trkpt>
      <trkpt lat="44.56352" lon="2.96738">
        <ele>1023</ele>
        <time>2021-08-27T13:17:52Z</time>
      </trkpt>
      <trkpt lat="44.5635" lon="2.96719">
        <ele>1025</ele>
        <time>2021-08-27T13:17:56Z</time>
      </trkpt>
      <trkpt lat="44.56352" lon="2.96701">
        <ele>1026</ele>
        <time>2021-08-27T13:18:00Z</time>
      </trkpt>
      <trkpt lat="44.56366" lon="2.96651">
        <ele>1028</ele>
        <time>2021-08-27T13:18:12Z</time>
      </trkpt>
      <trkpt lat="44.56368" lon="2.96622">
        <ele>1031</ele>
        <time>2021-08-27T13:18:18Z</time>
      </trkpt>
      <trkpt lat="44.56349" lon="2.96426">
        <ele>1026</ele>
        <time>2021-08-27T13:18:50Z</time>
      </trkpt>
      <trkpt lat="44.56331" lon="2.96355">
        <ele>1027</ele>
        <time>2021-08-27T13:19:01Z</time>
      </trkpt>
      <trkpt lat="44.5633" lon="2.96333">
        <ele>1028</ele>
        <time>2021-08-27T13:19:04Z</time>
      </trkpt>
      <trkpt lat="44.56334" lon="2.96312">
        <ele>1028</ele>
        <time>2021-08-27T13:19:07Z</time>
      </trkpt>
      <trkpt lat="44.56337" lon="2.963">
        <ele>1028</ele>
        <time>2021-08-27T13:19:09Z</time>
      </trkpt>
      <trkpt lat="44.56356" lon="2.96271">
        <ele>1029</ele>
        <time>2021-08-27T13:19:15Z</time>
      </trkpt>
      <trkpt lat="44.56371" lon="2.96256">
        <ele>1029</ele>
        <time>2021-08-27T13:19:19Z</time>
      </trkpt>
      <trkpt lat="44.56384" lon="2.96248">
        <ele>1029</ele>
        <time>2021-08-27T13:19:22Z</time>
      </trkpt>
      <trkpt lat="44.56409" lon="2.96244">
        <ele>1029</ele>
        <time>2021-08-27T13:19:28Z</time>
      </trkpt>
      <trkpt lat="44.56519" lon="2.96251">
        <ele>1028</ele>
        <time>2021-08-27T13:19:58Z</time>
      </trkpt>
      <trkpt lat="44.56604" lon="2.96254">
        <ele>1029</ele>
        <time>2021-08-27T13:20:22Z</time>
      </trkpt>
      <trkpt lat="44.56648" lon="2.96236">
        <ele>1029</ele>
        <time>2021-08-27T13:20:34Z</time>
      </trkpt>
      <trkpt lat="44.56739" lon="2.9616">
        <ele>1030</ele>
        <time>2021-08-27T13:21:02Z</time>
      </trkpt>
      <trkpt lat="44.56815" lon="2.96084">
        <ele>1034</ele>
        <time>2021-08-27T13:21:32Z</time>
      </trkpt>
      <trkpt lat="44.56882" lon="2.96023">
        <ele>1036</ele>
        <time>2021-08-27T13:21:58Z</time>
      </trkpt>
      <trkpt lat="44.56887" lon="2.96016">
        <ele>1036</ele>
        <time>2021-08-27T13:22:00Z</time>
      </trkpt>
      <trkpt lat="44.57001" lon="2.95908">
        <ele>1032</ele>
        <time>2021-08-27T13:22:30Z</time>
      </trkpt>
      <trkpt lat="44.57054" lon="2.9586">
        <ele>1028</ele>
        <time>2021-08-27T13:22:39Z</time>
      </trkpt>
      <trkpt lat="44.57069" lon="2.95852">
        <ele>1027</ele>
        <time>2021-08-27T13:22:41Z</time>
      </trkpt>
      <trkpt lat="44.57106" lon="2.95847">
        <ele>1024</ele>
        <time>2021-08-27T13:22:45Z</time>
      </trkpt>
      <trkpt lat="44.57184" lon="2.95865">
        <ele>1018</ele>
        <time>2021-08-27T13:22:53Z</time>
      </trkpt>
      <trkpt lat="44.57213" lon="2.9586">
        <ele>1015</ele>
        <time>2021-08-27T13:22:56Z</time>
      </trkpt>
      <trkpt lat="44.57242" lon="2.95847">
        <ele>1013</ele>
        <time>2021-08-27T13:22:59Z</time>
      </trkpt>
      <trkpt lat="44.57276" lon="2.95814">
        <ele>1009</ele>
        <time>2021-08-27T13:23:03Z</time>
      </trkpt>
      <trkpt lat="44.57298" lon="2.9578">
        <ele>1006</ele>
        <time>2021-08-27T13:23:06Z</time>
      </trkpt>
      <trkpt lat="44.5731" lon="2.95752">
        <ele>1004</ele>
        <time>2021-08-27T13:23:08Z</time>
      </trkpt>
      <trkpt lat="44.57323" lon="2.9569">
        <ele>1001</ele>
        <time>2021-08-27T13:23:12Z</time>
      </trkpt>
      <trkpt lat="44.57319" lon="2.95622">
        <ele>999</ele>
        <time>2021-08-27T13:23:17Z</time>
      </trkpt>
      <trkpt lat="44.57283" lon="2.9546">
        <ele>1014</ele>
        <time>2021-08-27T13:23:48Z</time>
      </trkpt>
      <trkpt lat="44.57264" lon="2.95363">
        <ele>1022</ele>
        <time>2021-08-27T13:24:19Z</time>
      </trkpt>
      <trkpt lat="44.57249" lon="2.95299">
        <ele>1026</ele>
        <time>2021-08-27T13:24:39Z</time>
      </trkpt>
      <trkpt lat="44.57238" lon="2.95191">
        <ele>1030</ele>
        <time>2021-08-27T13:25:09Z</time>
      </trkpt>
      <trkpt lat="44.57228" lon="2.95047">
        <ele>1032</ele>
        <time>2021-08-27T13:25:41Z</time>
      </trkpt>
      <trkpt lat="44.57215" lon="2.94866">
        <ele>1032</ele>
        <time>2021-08-27T13:26:12Z</time>
      </trkpt>
      <trkpt lat="44.57206" lon="2.94709">
        <ele>1035</ele>
        <time>2021-08-27T13:26:42Z</time>
      </trkpt>
      <trkpt lat="44.57197" lon="2.94628">
        <ele>1038</ele>
        <time>2021-08-27T13:27:00Z</time>
      </trkpt>
      <trkpt lat="44.57157" lon="2.94501">
        <ele>1045</ele>
        <time>2021-08-27T13:27:32Z</time>
      </trkpt>
      <trkpt lat="44.57084" lon="2.94377">
        <ele>1047</ele>
        <time>2021-08-27T13:28:02Z</time>
      </trkpt>
      <trkpt lat="44.57062" lon="2.94321">
        <ele>1046</ele>
        <time>2021-08-27T13:28:12Z</time>
      </trkpt>
      <trkpt lat="44.57058" lon="2.94307">
        <ele>1046</ele>
        <time>2021-08-27T13:28:14Z</time>
      </trkpt>
      <trkpt lat="44.57037" lon="2.94267">
        <ele>1045</ele>
        <time>2021-08-27T13:28:20Z</time>
      </trkpt>
      <trkpt lat="44.56983" lon="2.94209">
        <ele>1043</ele>
        <time>2021-08-27T13:28:30Z</time>
      </trkpt>
      <trkpt lat="44.56933" lon="2.94167">
        <ele>1037</ele>
        <time>2021-08-27T13:28:39Z</time>
      </trkpt>
      <trkpt lat="44.56917" lon="2.9415">
        <ele>1036</ele>
        <time>2021-08-27T13:28:45Z</time>
      </trkpt>
      <trkpt lat="44.56914" lon="2.94142">
        <ele>1035</ele>
        <time>2021-08-27T13:28:47Z</time>
      </trkpt>
      <trkpt lat="44.56913" lon="2.94136">
        <ele>1034</ele>
        <time>2021-08-27T13:28:49Z</time>
      </trkpt>
      <trkpt lat="44.56913" lon="2.94114">
        <ele>1033</ele>
        <time>2021-08-27T13:29:17Z</time>
      </trkpt>
      <trkpt lat="44.56915" lon="2.94109">
        <ele>1032</ele>
        <time>2021-08-27T13:29:21Z</time>
      </trkpt>
      <trkpt lat="44.56918" lon="2.94101">
        <ele>1032</ele>
        <time>2021-08-27T13:29:24Z</time>
      </trkpt>
      <trkpt lat="44.5692" lon="2.94094">
        <ele>1032</ele>
        <time>2021-08-27T13:29:27Z</time>
      </trkpt>
      <trkpt lat="44.56918" lon="2.94086">
        <ele>1032</ele>
        <time>2021-08-27T13:29:30Z</time>
      </trkpt>
      <trkpt lat="44.56913" lon="2.94085">
        <ele>1032</ele>
        <time>2021-08-27T13:29:36Z</time>
      </trkpt>
      <trkpt lat="44.56907" lon="2.94085">
        <ele>1031</ele>
        <time>2021-08-27T13:30:10Z</time>
      </trkpt>
      <trkpt lat="44.56904" lon="2.94077">
        <ele>1031</ele>
        <time>2021-08-27T13:30:13Z</time>
      </trkpt>
      <trkpt lat="44.56903" lon="2.94069">
        <ele>1031</ele>
        <time>2021-08-27T13:30:15Z</time>
      </trkpt>
      <trkpt lat="44.56905" lon="2.94052">
        <ele>1030</ele>
        <time>2021-08-27T13:30:19Z</time>
      </trkpt>
      <trkpt lat="44.56907" lon="2.94043">
        <ele>1030</ele>
        <time>2021-08-27T13:30:21Z</time>
      </trkpt>
      <trkpt lat="44.56919" lon="2.94023">
        <ele>1030</ele>
        <time>2021-08-27T13:30:27Z</time>
      </trkpt>
      <trkpt lat="44.56929" lon="2.94016">
        <ele>1029</ele>
        <time>2021-08-27T13:30:33Z</time>
      </trkpt>
      <trkpt lat="44.56934" lon="2.94013">
        <ele>1029</ele>
        <time>2021-08-27T13:30:35Z</time>
      </trkpt>
      <trkpt lat="44.5699" lon="2.93984">
        <ele>1024</ele>
        <time>2021-08-27T13:30:55Z</time>
      </trkpt>
      <trkpt lat="44.5702" lon="2.93946">
        <ele>1022</ele>
        <time>2021-08-27T13:31:05Z</time>
      </trkpt>
      <trkpt lat="44.57053" lon="2.93878">
        <ele>1020</ele>
        <time>2021-08-27T13:31:17Z</time>
      </trkpt>
      <trkpt lat="44.57079" lon="2.93847">
        <ele>1018</ele>
        <time>2021-08-27T13:31:24Z</time>
      </trkpt>
      <trkpt lat="44.57109" lon="2.93823">
        <ele>1019</ele>
        <time>2021-08-27T13:31:31Z</time>
      </trkpt>
      <trkpt lat="44.57123" lon="2.93804">
        <ele>1020</ele>
        <time>2021-08-27T13:31:35Z</time>
      </trkpt>
      <trkpt lat="44.57132" lon="2.93788">
        <ele>1020</ele>
        <time>2021-08-27T13:31:38Z</time>
      </trkpt>
      <trkpt lat="44.57139" lon="2.93761">
        <ele>1019</ele>
        <time>2021-08-27T13:31:42Z</time>
      </trkpt>
      <trkpt lat="44.57141" lon="2.93731">
        <ele>1018</ele>
        <time>2021-08-27T13:31:46Z</time>
      </trkpt>
      <trkpt lat="44.57138" lon="2.93685">
        <ele>1019</ele>
        <time>2021-08-27T13:31:52Z</time>
      </trkpt>
      <trkpt lat="44.57126" lon="2.93641">
        <ele>1019</ele>
        <time>2021-08-27T13:31:58Z</time>
      </trkpt>
      <trkpt lat="44.5705" lon="2.93455">
        <ele>1021</ele>
        <time>2021-08-27T13:32:23Z</time>
      </trkpt>
      <trkpt lat="44.57045" lon="2.93427">
        <ele>1020</ele>
        <time>2021-08-27T13:32:26Z</time>
      </trkpt>
      <trkpt lat="44.57043" lon="2.93408">
        <ele>1020</ele>
        <time>2021-08-27T13:32:28Z</time>
      </trkpt>
      <trkpt lat="44.57049" lon="2.93371">
        <ele>1020</ele>
        <time>2021-08-27T13:32:32Z</time>
      </trkpt>
      <trkpt lat="44.57055" lon="2.93355">
        <ele>1019</ele>
        <time>2021-08-27T13:32:34Z</time>
      </trkpt>
      <trkpt lat="44.57064" lon="2.9334">
        <ele>1019</ele>
        <time>2021-08-27T13:32:36Z</time>
      </trkpt>
      <trkpt lat="44.57081" lon="2.93322">
        <ele>1018</ele>
        <time>2021-08-27T13:32:39Z</time>
      </trkpt>
      <trkpt lat="44.57094" lon="2.93314">
        <ele>1017</ele>
        <time>2021-08-27T13:32:41Z</time>
      </trkpt>
      <trkpt lat="44.57116" lon="2.93308">
        <ele>1016</ele>
        <time>2021-08-27T13:32:44Z</time>
      </trkpt>
      <trkpt lat="44.57136" lon="2.9331">
        <ele>1016</ele>
        <time>2021-08-27T13:32:47Z</time>
      </trkpt>
      <trkpt lat="44.5725" lon="2.93372">
        <ele>1013</ele>
        <time>2021-08-27T13:33:06Z</time>
      </trkpt>
      <trkpt lat="44.57291" lon="2.9337">
        <ele>1011</ele>
        <time>2021-08-27T13:33:12Z</time>
      </trkpt>
      <trkpt lat="44.57345" lon="2.93342">
        <ele>1008</ele>
        <time>2021-08-27T13:33:20Z</time>
      </trkpt>
      <trkpt lat="44.57506" lon="2.93237">
        <ele>997</ele>
        <time>2021-08-27T13:33:41Z</time>
      </trkpt>
      <trkpt lat="44.5752" lon="2.93219">
        <ele>996</ele>
        <time>2021-08-27T13:33:43Z</time>
      </trkpt>
      <trkpt lat="44.57531" lon="2.93195">
        <ele>995</ele>
        <time>2021-08-27T13:33:45Z</time>
      </trkpt>
      <trkpt lat="44.57538" lon="2.93168">
        <ele>994</ele>
        <time>2021-08-27T13:33:47Z</time>
      </trkpt>
      <trkpt lat="44.57538" lon="2.9314">
        <ele>994</ele>
        <time>2021-08-27T13:33:49Z</time>
      </trkpt>
      <trkpt lat="44.57532" lon="2.93115">
        <ele>993</ele>
        <time>2021-08-27T13:33:51Z</time>
      </trkpt>
      <trkpt lat="44.57523" lon="2.93089">
        <ele>993</ele>
        <time>2021-08-27T13:33:53Z</time>
      </trkpt>
      <trkpt lat="44.57503" lon="2.9306">
        <ele>993</ele>
        <time>2021-08-27T13:33:56Z</time>
      </trkpt>
      <trkpt lat="44.57481" lon="2.93037">
        <ele>993</ele>
        <time>2021-08-27T13:33:59Z</time>
      </trkpt>
      <trkpt lat="44.57458" lon="2.92999">
        <ele>992</ele>
        <time>2021-08-27T13:34:03Z</time>
      </trkpt>
      <trkpt lat="44.57447" lon="2.92968">
        <ele>992</ele>
        <time>2021-08-27T13:34:06Z</time>
      </trkpt>
      <trkpt lat="44.57437" lon="2.92912">
        <ele>991</ele>
        <time>2021-08-27T13:34:11Z</time>
      </trkpt>
      <trkpt lat="44.57437" lon="2.92848">
        <ele>990</ele>
        <time>2021-08-27T13:34:17Z</time>
      </trkpt>
      <trkpt lat="44.57462" lon="2.92701">
        <ele>985</ele>
        <time>2021-08-27T13:34:32Z</time>
      </trkpt>
      <trkpt lat="44.57483" lon="2.9266">
        <ele>983</ele>
        <time>2021-08-27T13:34:37Z</time>
      </trkpt>
      <trkpt lat="44.57505" lon="2.92629">
        <ele>980</ele>
        <time>2021-08-27T13:34:41Z</time>
      </trkpt>
      <trkpt lat="44.57535" lon="2.92601">
        <ele>976</ele>
        <time>2021-08-27T13:34:45Z</time>
      </trkpt>
      <trkpt lat="44.57602" lon="2.92576">
        <ele>970</ele>
        <time>2021-08-27T13:34:52Z</time>
      </trkpt>
      <trkpt lat="44.57827" lon="2.92531">
        <ele>947</ele>
        <time>2021-08-27T13:35:15Z</time>
      </trkpt>
      <trkpt lat="44.57845" lon="2.9252">
        <ele>945</ele>
        <time>2021-08-27T13:35:17Z</time>
      </trkpt>
      <trkpt lat="44.57875" lon="2.92486">
        <ele>942</ele>
        <time>2021-08-27T13:35:21Z</time>
      </trkpt>
      <trkpt lat="44.57892" lon="2.92454">
        <ele>941</ele>
        <time>2021-08-27T13:35:24Z</time>
      </trkpt>
      <trkpt lat="44.57902" lon="2.92419">
        <ele>939</ele>
        <time>2021-08-27T13:35:27Z</time>
      </trkpt>
      <trkpt lat="44.57906" lon="2.92376">
        <ele>937</ele>
        <time>2021-08-27T13:35:31Z</time>
      </trkpt>
      <trkpt lat="44.57902" lon="2.92335">
        <ele>935</ele>
        <time>2021-08-27T13:35:35Z</time>
      </trkpt>
      <trkpt lat="44.57879" lon="2.92237">
        <ele>928</ele>
        <time>2021-08-27T13:35:43Z</time>
      </trkpt>
      <trkpt lat="44.57877" lon="2.92132">
        <ele>923</ele>
        <time>2021-08-27T13:35:51Z</time>
      </trkpt>
      <trkpt lat="44.57888" lon="2.92067">
        <ele>920</ele>
        <time>2021-08-27T13:35:57Z</time>
      </trkpt>
      <trkpt lat="44.57904" lon="2.92021">
        <ele>917</ele>
        <time>2021-08-27T13:36:02Z</time>
      </trkpt>
      <trkpt lat="44.57959" lon="2.91927">
        <ele>913</ele>
        <time>2021-08-27T13:36:13Z</time>
      </trkpt>
      <trkpt lat="44.57992" lon="2.91892">
        <ele>910</ele>
        <time>2021-08-27T13:36:18Z</time>
      </trkpt>
      <trkpt lat="44.58088" lon="2.91838">
        <ele>903</ele>
        <time>2021-08-27T13:36:30Z</time>
      </trkpt>
      <trkpt lat="44.58129" lon="2.91826">
        <ele>899</ele>
        <time>2021-08-27T13:36:35Z</time>
      </trkpt>
      <trkpt lat="44.58199" lon="2.91828">
        <ele>894</ele>
        <time>2021-08-27T13:36:43Z</time>
      </trkpt>
      <trkpt lat="44.58251" lon="2.91844">
        <ele>890</ele>
        <time>2021-08-27T13:36:51Z</time>
      </trkpt>
      <trkpt lat="44.58408" lon="2.91932">
        <ele>885</ele>
        <time>2021-08-27T13:37:13Z</time>
      </trkpt>
      <trkpt lat="44.58568" lon="2.91972">
        <ele>878</ele>
        <time>2021-08-27T13:37:30Z</time>
      </trkpt>
      <trkpt lat="44.58575" lon="2.91976">
        <ele>878</ele>
        <time>2021-08-27T13:37:31Z</time>
      </trkpt>
      <trkpt lat="44.58601" lon="2.92005">
        <ele>876</ele>
        <time>2021-08-27T13:37:36Z</time>
      </trkpt>
      <trkpt lat="44.58606" lon="2.92013">
        <ele>875</ele>
        <time>2021-08-27T13:37:37Z</time>
      </trkpt>
      <trkpt lat="44.58614" lon="2.92028">
        <ele>872</ele>
        <time>2021-08-27T13:37:39Z</time>
      </trkpt>
      <trkpt lat="44.58646" lon="2.92064">
        <ele>868</ele>
        <time>2021-08-27T13:37:45Z</time>
      </trkpt>
      <trkpt lat="44.58698" lon="2.92105">
        <ele>865</ele>
        <time>2021-08-27T13:37:53Z</time>
      </trkpt>
      <trkpt lat="44.58708" lon="2.92119">
        <ele>863</ele>
        <time>2021-08-27T13:37:55Z</time>
      </trkpt>
      <trkpt lat="44.58747" lon="2.92179">
        <ele>855</ele>
        <time>2021-08-27T13:38:03Z</time>
      </trkpt>
      <trkpt lat="44.58859" lon="2.92307">
        <ele>849</ele>
        <time>2021-08-27T13:38:18Z</time>
      </trkpt>
      <trkpt lat="44.5895" lon="2.92509">
        <ele>846</ele>
        <time>2021-08-27T13:38:41Z</time>
      </trkpt>
      <trkpt lat="44.5903" lon="2.92679">
        <ele>825</ele>
        <time>2021-08-27T13:39:00Z</time>
      </trkpt>
      <trkpt lat="44.59048" lon="2.92707">
        <ele>823</ele>
        <time>2021-08-27T13:39:04Z</time>
      </trkpt>
      <trkpt lat="44.59064" lon="2.92721">
        <ele>822</ele>
        <time>2021-08-27T13:39:08Z</time>
      </trkpt>
      <trkpt lat="44.59081" lon="2.92727">
        <ele>822</ele>
        <time>2021-08-27T13:39:16Z</time>
      </trkpt>
      <trkpt lat="44.59092" lon="2.92725">
        <ele>821</ele>
        <time>2021-08-27T13:39:20Z</time>
      </trkpt>
      <trkpt lat="44.59142" lon="2.92712">
        <ele>821</ele>
        <time>2021-08-27T13:39:34Z</time>
      </trkpt>
      <trkpt lat="44.59148" lon="2.92709">
        <ele>821</ele>
        <time>2021-08-27T13:39:36Z</time>
      </trkpt>
      <trkpt lat="44.59162" lon="2.92691">
        <ele>821</ele>
        <time>2021-08-27T13:39:42Z</time>
      </trkpt>
      <trkpt lat="44.59166" lon="2.92684">
        <ele>821</ele>
        <time>2021-08-27T13:39:44Z</time>
      </trkpt>
      <trkpt lat="44.5917" lon="2.92653">
        <ele>820</ele>
        <time>2021-08-27T13:39:52Z</time>
      </trkpt>
      <trkpt lat="44.5917" lon="2.92645">
        <ele>820</ele>
        <time>2021-08-27T13:39:54Z</time>
      </trkpt>
      <trkpt lat="44.5917" lon="2.92637">
        <ele>819</ele>
        <time>2021-08-27T13:39:56Z</time>
      </trkpt>
      <trkpt lat="44.5917" lon="2.92628">
        <ele>819</ele>
        <time>2021-08-27T13:39:59Z</time>
      </trkpt>
      <trkpt lat="44.59166" lon="2.92615">
        <ele>819</ele>
        <time>2021-08-27T13:40:05Z</time>
      </trkpt>
      <trkpt lat="44.59155" lon="2.92554">
        <ele>819</ele>
        <time>2021-08-27T13:40:24Z</time>
      </trkpt>
      <trkpt lat="44.59156" lon="2.92515">
        <ele>819</ele>
        <time>2021-08-27T13:40:34Z</time>
      </trkpt>
      <trkpt lat="44.59161" lon="2.92475">
        <ele>821</ele>
        <time>2021-08-27T13:40:44Z</time>
      </trkpt>
      <trkpt lat="44.59159" lon="2.92445">
        <ele>821</ele>
        <time>2021-08-27T13:40:52Z</time>
      </trkpt>
      <trkpt lat="44.59141" lon="2.92409">
        <ele>825</ele>
        <time>2021-08-27T13:41:04Z</time>
      </trkpt>
      <trkpt lat="44.59139" lon="2.92404">
        <ele>825</ele>
        <time>2021-08-27T13:41:06Z</time>
      </trkpt>
      <trkpt lat="44.59137" lon="2.92395">
        <ele>825</ele>
        <time>2021-08-27T13:41:09Z</time>
      </trkpt>
      <trkpt lat="44.59115" lon="2.92353">
        <ele>828</ele>
        <time>2021-08-27T13:41:25Z</time>
      </trkpt>
      <trkpt lat="44.59112" lon="2.92347">
        <ele>829</ele>
        <time>2021-08-27T13:41:28Z</time>
      </trkpt>
      <trkpt lat="44.5911" lon="2.92341">
        <ele>829</ele>
        <time>2021-08-27T13:41:31Z</time>
      </trkpt>
      <trkpt lat="44.59107" lon="2.9232">
        <ele>830</ele>
        <time>2021-08-27T13:41:45Z</time>
      </trkpt>
      <trkpt lat="44.59106" lon="2.92343">
        <ele>828</ele>
        <time>2021-08-27T13:42:10Z</time>
      </trkpt>
      <trkpt lat="44.59111" lon="2.92345">
        <ele>827</ele>
        <time>2021-08-27T13:46:38Z</time>
      </trkpt>
      <trkpt lat="44.59153" lon="2.92427">
        <ele>824</ele>
        <time>2021-08-27T13:47:10Z</time>
      </trkpt>
      <trkpt lat="44.59157" lon="2.92439">
        <ele>824</ele>
        <time>2021-08-27T13:47:12Z</time>
      </trkpt>
      <trkpt lat="44.59159" lon="2.92453">
        <ele>823</ele>
        <time>2021-08-27T13:47:14Z</time>
      </trkpt>
      <trkpt lat="44.59159" lon="2.92475">
        <ele>823</ele>
        <time>2021-08-27T13:47:17Z</time>
      </trkpt>
      <trkpt lat="44.59153" lon="2.92522">
        <ele>823</ele>
        <time>2021-08-27T13:47:23Z</time>
      </trkpt>
      <trkpt lat="44.59153" lon="2.92543">
        <ele>822</ele>
        <time>2021-08-27T13:47:26Z</time>
      </trkpt>
      <trkpt lat="44.59163" lon="2.92589">
        <ele>823</ele>
        <time>2021-08-27T13:47:34Z</time>
      </trkpt>
      <trkpt lat="44.59165" lon="2.92598">
        <ele>823</ele>
        <time>2021-08-27T13:47:36Z</time>
      </trkpt>
      <trkpt lat="44.59168" lon="2.92622">
        <ele>824</ele>
        <time>2021-08-27T13:47:44Z</time>
      </trkpt>
      <trkpt lat="44.59167" lon="2.9263">
        <ele>824</ele>
        <time>2021-08-27T13:47:46Z</time>
      </trkpt>
      <trkpt lat="44.59165" lon="2.92638">
        <ele>824</ele>
        <time>2021-08-27T13:47:48Z</time>
      </trkpt>
      <trkpt lat="44.59168" lon="2.92655">
        <ele>825</ele>
        <time>2021-08-27T13:48:19Z</time>
      </trkpt>
      <trkpt lat="44.59168" lon="2.92663">
        <ele>825</ele>
        <time>2021-08-27T13:48:21Z</time>
      </trkpt>
      <trkpt lat="44.59165" lon="2.92672">
        <ele>825</ele>
        <time>2021-08-27T13:48:23Z</time>
      </trkpt>
      <trkpt lat="44.59148" lon="2.92703">
        <ele>824</ele>
        <time>2021-08-27T13:48:30Z</time>
      </trkpt>
      <trkpt lat="44.59133" lon="2.92713">
        <ele>823</ele>
        <time>2021-08-27T13:48:34Z</time>
      </trkpt>
      <trkpt lat="44.59088" lon="2.92722">
        <ele>822</ele>
        <time>2021-08-27T13:48:46Z</time>
      </trkpt>
      <trkpt lat="44.59081" lon="2.92723">
        <ele>822</ele>
        <time>2021-08-27T13:48:48Z</time>
      </trkpt>
      <trkpt lat="44.59077" lon="2.92723">
        <ele>822</ele>
        <time>2021-08-27T13:48:50Z</time>
      </trkpt>
      <trkpt lat="44.59073" lon="2.92717">
        <ele>822</ele>
        <time>2021-08-27T13:48:53Z</time>
      </trkpt>
      <trkpt lat="44.59072" lon="2.92702">
        <ele>821</ele>
        <time>2021-08-27T13:48:57Z</time>
      </trkpt>
      <trkpt lat="44.59076" lon="2.92673">
        <ele>820</ele>
        <time>2021-08-27T13:49:03Z</time>
      </trkpt>
      <trkpt lat="44.59075" lon="2.92644">
        <ele>817</ele>
        <time>2021-08-27T13:49:09Z</time>
      </trkpt>
      <trkpt lat="44.59064" lon="2.92602">
        <ele>815</ele>
        <time>2021-08-27T13:49:21Z</time>
      </trkpt>
      <trkpt lat="44.59063" lon="2.92595">
        <ele>815</ele>
        <time>2021-08-27T13:49:30Z</time>
      </trkpt>
      <trkpt lat="44.59063" lon="2.92588">
        <ele>815</ele>
        <time>2021-08-27T13:49:46Z</time>
      </trkpt>
      <trkpt lat="44.59069" lon="2.92575">
        <ele>815</ele>
        <time>2021-08-27T13:49:57Z</time>
      </trkpt>
      <trkpt lat="44.59073" lon="2.92573">
        <ele>815</ele>
        <time>2021-08-27T13:50:00Z</time>
      </trkpt>
      <trkpt lat="44.59077" lon="2.92578">
        <ele>816</ele>
        <time>2021-08-27T13:50:26Z</time>
      </trkpt>
      <trkpt lat="44.59073" lon="2.92582">
        <ele>816</ele>
        <time>2021-08-27T14:00:34Z</time>
      </trkpt>
      <trkpt lat="44.59065" lon="2.92568">
        <ele>816</ele>
        <time>2021-08-27T14:01:03Z</time>
      </trkpt>
      <trkpt lat="44.59062" lon="2.92573">
        <ele>816</ele>
        <time>2021-08-27T14:03:28Z</time>
      </trkpt>
      <trkpt lat="44.59063" lon="2.92573">
        <ele>814</ele>
        <time>2021-08-27T14:05:06Z</time>
      </trkpt>
      <trkpt lat="44.59055" lon="2.9258">
        <ele>809</ele>
        <time>2021-08-27T14:06:52Z</time>
      </trkpt>
      <trkpt lat="44.59059" lon="2.92578">
        <ele>809</ele>
        <time>2021-08-27T14:06:56Z</time>
      </trkpt>
      <trkpt lat="44.59067" lon="2.92565">
        <ele>809</ele>
        <time>2021-08-27T14:07:27Z</time>
      </trkpt>
      <trkpt lat="44.59065" lon="2.92565">
        <ele>817</ele>
        <time>2021-08-27T14:08:29Z</time>
      </trkpt>
      <trkpt lat="44.59061" lon="2.92577">
        <ele>816</ele>
        <time>2021-08-27T14:08:47Z</time>
      </trkpt>
      <trkpt lat="44.59059" lon="2.92577">
        <ele>809</ele>
        <time>2021-08-27T14:09:05Z</time>
      </trkpt>
      <trkpt lat="44.59053" lon="2.9258">
        <ele>808</ele>
        <time>2021-08-27T14:09:08Z</time>
      </trkpt>
      <trkpt lat="44.59049" lon="2.92585">
        <ele>807</ele>
        <time>2021-08-27T14:09:12Z</time>
      </trkpt>
      <trkpt lat="44.59055" lon="2.92588">
        <ele>806</ele>
        <time>2021-08-27T14:09:27Z</time>
      </trkpt>
      <trkpt lat="44.59058" lon="2.9258">
        <ele>800</ele>
        <time>2021-08-27T14:09:54Z</time>
      </trkpt>
      <trkpt lat="44.59064" lon="2.92584">
        <ele>798</ele>
        <time>2021-08-27T14:09:58Z</time>
      </trkpt>
      <trkpt lat="44.59059" lon="2.92592">
        <ele>794</ele>
        <time>2021-08-27T14:10:14Z</time>
      </trkpt>
    </trkseg>
  </trk>
  <trk>
    <name><![CDATA[j2]]></name>
    <desc><![CDATA[comment ...]]></desc>
    <extensions>
      <line xmlns="http://www.topografix.com/GPX/gpx_style/0/2">
        <color>FF0000</color>
        <width>4</width>
      </line>
    </extensions>
    <trkseg>
      <trkpt lat="44.59076" lon="2.9259">
        <ele>773</ele>
        <time>2021-08-28T07:03:55Z</time>
      </trkpt>
      <trkpt lat="44.59098" lon="2.92618">
        <ele>767</ele>
        <time>2021-08-28T07:03:58Z</time>
      </trkpt>
      <trkpt lat="44.59084" lon="2.9259">
        <ele>768</ele>
        <time>2021-08-28T07:03:58Z</time>
      </trkpt>
      <trkpt lat="44.59079" lon="2.92588">
        <ele>789</ele>
        <time>2021-08-28T07:04:01Z</time>
      </trkpt>
      <trkpt lat="44.59072" lon="2.92577">
        <ele>796</ele>
        <time>2021-08-28T07:04:03Z</time>
      </trkpt>
      <trkpt lat="44.59069" lon="2.92572">
        <ele>804</ele>
        <time>2021-08-28T07:04:17Z</time>
      </trkpt>
      <trkpt lat="44.59064" lon="2.9257">
        <ele>803</ele>
        <time>2021-08-28T07:04:19Z</time>
      </trkpt>
      <trkpt lat="44.59061" lon="2.92587">
        <ele>802</ele>
        <time>2021-08-28T07:04:23Z</time>
      </trkpt>
      <trkpt lat="44.59058" lon="2.92596">
        <ele>803</ele>
        <time>2021-08-28T07:04:26Z</time>
      </trkpt>
      <trkpt lat="44.59059" lon="2.92604">
        <ele>805</ele>
        <time>2021-08-28T07:04:29Z</time>
      </trkpt>
      <trkpt lat="44.59073" lon="2.92654">
        <ele>806</ele>
        <time>2021-08-28T07:04:44Z</time>
      </trkpt>
      <trkpt lat="44.59074" lon="2.92669">
        <ele>806</ele>
        <time>2021-08-28T07:04:49Z</time>
      </trkpt>
      <trkpt lat="44.59073" lon="2.92676">
        <ele>807</ele>
        <time>2021-08-28T07:04:51Z</time>
      </trkpt>
      <trkpt lat="44.59072" lon="2.92684">
        <ele>808</ele>
        <time>2021-08-28T07:04:53Z</time>
      </trkpt>
      <trkpt lat="44.5907" lon="2.9269">
        <ele>809</ele>
        <time>2021-08-28T07:04:55Z</time>
      </trkpt>
      <trkpt lat="44.59068" lon="2.92699">
        <ele>810</ele>
        <time>2021-08-28T07:04:58Z</time>
      </trkpt>
      <trkpt lat="44.59067" lon="2.92707">
        <ele>811</ele>
        <time>2021-08-28T07:05:01Z</time>
      </trkpt>
      <trkpt lat="44.59071" lon="2.9272">
        <ele>814</ele>
        <time>2021-08-28T07:05:10Z</time>
      </trkpt>
      <trkpt lat="44.59076" lon="2.92722">
        <ele>811</ele>
        <time>2021-08-28T07:05:12Z</time>
      </trkpt>
      <trkpt lat="44.59129" lon="2.92713">
        <ele>801</ele>
        <time>2021-08-28T07:05:26Z</time>
      </trkpt>
      <trkpt lat="44.5916" lon="2.92692">
        <ele>801</ele>
        <time>2021-08-28T07:05:34Z</time>
      </trkpt>
      <trkpt lat="44.59164" lon="2.92687">
        <ele>801</ele>
        <time>2021-08-28T07:05:36Z</time>
      </trkpt>
      <trkpt lat="44.59167" lon="2.9268">
        <ele>801</ele>
        <time>2021-08-28T07:05:38Z</time>
      </trkpt>
      <trkpt lat="44.59167" lon="2.92668">
        <ele>801</ele>
        <time>2021-08-28T07:05:40Z</time>
      </trkpt>
      <trkpt lat="44.59167" lon="2.92662">
        <ele>801</ele>
        <time>2021-08-28T07:05:41Z</time>
      </trkpt>
      <trkpt lat="44.59166" lon="2.92652">
        <ele>806</ele>
        <time>2021-08-28T07:05:43Z</time>
      </trkpt>
      <trkpt lat="44.59165" lon="2.92645">
        <ele>806</ele>
        <time>2021-08-28T07:05:45Z</time>
      </trkpt>
      <trkpt lat="44.59165" lon="2.92605">
        <ele>808</ele>
        <time>2021-08-28T07:05:55Z</time>
      </trkpt>
      <trkpt lat="44.59157" lon="2.92589">
        <ele>810</ele>
        <time>2021-08-28T07:05:59Z</time>
      </trkpt>
      <trkpt lat="44.59151" lon="2.92549">
        <ele>811</ele>
        <time>2021-08-28T07:06:09Z</time>
      </trkpt>
      <trkpt lat="44.59153" lon="2.92514">
        <ele>811</ele>
        <time>2021-08-28T07:06:19Z</time>
      </trkpt>
      <trkpt lat="44.59156" lon="2.92492">
        <ele>811</ele>
        <time>2021-08-28T07:06:25Z</time>
      </trkpt>
      <trkpt lat="44.5916" lon="2.92479">
        <ele>811</ele>
        <time>2021-08-28T07:06:29Z</time>
      </trkpt>
      <trkpt lat="44.59161" lon="2.92459">
        <ele>812</ele>
        <time>2021-08-28T07:06:35Z</time>
      </trkpt>
      <trkpt lat="44.59157" lon="2.92441">
        <ele>813</ele>
        <time>2021-08-28T07:06:41Z</time>
      </trkpt>
      <trkpt lat="44.59153" lon="2.92434">
        <ele>813</ele>
        <time>2021-08-28T07:06:44Z</time>
      </trkpt>
      <trkpt lat="44.59152" lon="2.92427">
        <ele>813</ele>
        <time>2021-08-28T07:06:46Z</time>
      </trkpt>
      <trkpt lat="44.59138" lon="2.92408">
        <ele>813</ele>
        <time>2021-08-28T07:06:54Z</time>
      </trkpt>
      <trkpt lat="44.59134" lon="2.92404">
        <ele>814</ele>
        <time>2021-08-28T07:06:56Z</time>
      </trkpt>
      <trkpt lat="44.59114" lon="2.92358">
        <ele>814</ele>
        <time>2021-08-28T07:07:13Z</time>
      </trkpt>
      <trkpt lat="44.59112" lon="2.92316">
        <ele>816</ele>
        <time>2021-08-28T07:07:25Z</time>
      </trkpt>
      <trkpt lat="44.59112" lon="2.92309">
        <ele>816</ele>
        <time>2021-08-28T07:07:27Z</time>
      </trkpt>
      <trkpt lat="44.59111" lon="2.92295">
        <ele>813</ele>
        <time>2021-08-28T07:07:31Z</time>
      </trkpt>
      <trkpt lat="44.59109" lon="2.92288">
        <ele>813</ele>
        <time>2021-08-28T07:07:33Z</time>
      </trkpt>
      <trkpt lat="44.59107" lon="2.92281">
        <ele>812</ele>
        <time>2021-08-28T07:07:35Z</time>
      </trkpt>
      <trkpt lat="44.59105" lon="2.92258">
        <ele>812</ele>
        <time>2021-08-28T07:07:41Z</time>
      </trkpt>
      <trkpt lat="44.59102" lon="2.92243">
        <ele>811</ele>
        <time>2021-08-28T07:07:45Z</time>
      </trkpt>
      <trkpt lat="44.591" lon="2.92236">
        <ele>810</ele>
        <time>2021-08-28T07:07:48Z</time>
      </trkpt>
      <trkpt lat="44.59101" lon="2.92229">
        <ele>811</ele>
        <time>2021-08-28T07:07:52Z</time>
      </trkpt>
      <trkpt lat="44.59102" lon="2.92223">
        <ele>812</ele>
        <time>2021-08-28T07:09:57Z</time>
      </trkpt>
      <trkpt lat="44.59102" lon="2.92215">
        <ele>811</ele>
        <time>2021-08-28T07:13:21Z</time>
      </trkpt>
      <trkpt lat="44.591" lon="2.92207">
        <ele>812</ele>
        <time>2021-08-28T07:13:24Z</time>
      </trkpt>
      <trkpt lat="44.59098" lon="2.922">
        <ele>812</ele>
        <time>2021-08-28T07:13:26Z</time>
      </trkpt>
      <trkpt lat="44.59096" lon="2.92191">
        <ele>812</ele>
        <time>2021-08-28T07:13:28Z</time>
      </trkpt>
      <trkpt lat="44.59092" lon="2.92175">
        <ele>813</ele>
        <time>2021-08-28T07:13:32Z</time>
      </trkpt>
      <trkpt lat="44.59093" lon="2.92168">
        <ele>814</ele>
        <time>2021-08-28T07:13:34Z</time>
      </trkpt>
      <trkpt lat="44.59093" lon="2.92161">
        <ele>814</ele>
        <time>2021-08-28T07:13:36Z</time>
      </trkpt>
      <trkpt lat="44.59082" lon="2.92098">
        <ele>812</ele>
        <time>2021-08-28T07:13:55Z</time>
      </trkpt>
      <trkpt lat="44.59079" lon="2.92091">
        <ele>812</ele>
        <time>2021-08-28T07:13:57Z</time>
      </trkpt>
      <trkpt lat="44.59077" lon="2.92084">
        <ele>811</ele>
        <time>2021-08-28T07:13:59Z</time>
      </trkpt>
      <trkpt lat="44.59078" lon="2.92074">
        <ele>812</ele>
        <time>2021-08-28T07:14:02Z</time>
      </trkpt>
      <trkpt lat="44.59075" lon="2.92057">
        <ele>810</ele>
        <time>2021-08-28T07:14:08Z</time>
      </trkpt>
      <trkpt lat="44.59074" lon="2.9205">
        <ele>810</ele>
        <time>2021-08-28T07:14:10Z</time>
      </trkpt>
      <trkpt lat="44.59073" lon="2.92043">
        <ele>809</ele>
        <time>2021-08-28T07:14:12Z</time>
      </trkpt>
      <trkpt lat="44.59077" lon="2.92027">
        <ele>810</ele>
        <time>2021-08-28T07:14:17Z</time>
      </trkpt>
      <trkpt lat="44.59077" lon="2.92021">
        <ele>810</ele>
        <time>2021-08-28T07:14:19Z</time>
      </trkpt>
      <trkpt lat="44.59082" lon="2.91962">
        <ele>814</ele>
        <time>2021-08-28T07:14:39Z</time>
      </trkpt>
      <trkpt lat="44.59087" lon="2.91937">
        <ele>818</ele>
        <time>2021-08-28T07:14:48Z</time>
      </trkpt>
      <trkpt lat="44.59093" lon="2.91906">
        <ele>820</ele>
        <time>2021-08-28T07:14:59Z</time>
      </trkpt>
      <trkpt lat="44.59096" lon="2.91889">
        <ele>821</ele>
        <time>2021-08-28T07:15:05Z</time>
      </trkpt>
      <trkpt lat="44.59094" lon="2.91865">
        <ele>823</ele>
        <time>2021-08-28T07:15:14Z</time>
      </trkpt>
      <trkpt lat="44.59087" lon="2.91844">
        <ele>823</ele>
        <time>2021-08-28T07:15:22Z</time>
      </trkpt>
      <trkpt lat="44.5908" lon="2.91832">
        <ele>823</ele>
        <time>2021-08-28T07:15:28Z</time>
      </trkpt>
      <trkpt lat="44.59078" lon="2.91824">
        <ele>819</ele>
        <time>2021-08-28T07:15:31Z</time>
      </trkpt>
      <trkpt lat="44.59071" lon="2.91811">
        <ele>816</ele>
        <time>2021-08-28T07:15:37Z</time>
      </trkpt>
      <trkpt lat="44.59054" lon="2.91769">
        <ele>806</ele>
        <time>2021-08-28T07:15:55Z</time>
      </trkpt>
      <trkpt lat="44.59051" lon="2.91763">
        <ele>806</ele>
        <time>2021-08-28T07:15:58Z</time>
      </trkpt>
      <trkpt lat="44.59049" lon="2.91757">
        <ele>803</ele>
        <time>2021-08-28T07:16:01Z</time>
      </trkpt>
      <trkpt lat="44.59044" lon="2.91751">
        <ele>803</ele>
        <time>2021-08-28T07:16:04Z</time>
      </trkpt>
      <trkpt lat="44.59026" lon="2.91706">
        <ele>811</ele>
        <time>2021-08-28T07:16:25Z</time>
      </trkpt>
      <trkpt lat="44.59024" lon="2.91691">
        <ele>813</ele>
        <time>2021-08-28T07:16:31Z</time>
      </trkpt>
      <trkpt lat="44.59019" lon="2.9167">
        <ele>814</ele>
        <time>2021-08-28T07:16:40Z</time>
      </trkpt>
      <trkpt lat="44.59014" lon="2.9163">
        <ele>817</ele>
        <time>2021-08-28T07:16:55Z</time>
      </trkpt>
      <trkpt lat="44.59014" lon="2.91623">
        <ele>817</ele>
        <time>2021-08-28T07:16:58Z</time>
      </trkpt>
      <trkpt lat="44.5901" lon="2.91577">
        <ele>821</ele>
        <time>2021-08-28T07:17:16Z</time>
      </trkpt>
      <trkpt lat="44.59004" lon="2.91488">
        <ele>830</ele>
        <time>2021-08-28T07:17:49Z</time>
      </trkpt>
      <trkpt lat="44.59002" lon="2.91472">
        <ele>831</ele>
        <time>2021-08-28T07:17:55Z</time>
      </trkpt>
      <trkpt lat="44.59002" lon="2.91454">
        <ele>831</ele>
        <time>2021-08-28T07:18:01Z</time>
      </trkpt>
      <trkpt lat="44.59002" lon="2.91447">
        <ele>831</ele>
        <time>2021-08-28T07:18:03Z</time>
      </trkpt>
      <trkpt lat="44.59002" lon="2.91441">
        <ele>831</ele>
        <time>2021-08-28T07:18:05Z</time>
      </trkpt>
      <trkpt lat="44.58996" lon="2.91391">
        <ele>837</ele>
        <time>2021-08-28T07:18:26Z</time>
      </trkpt>
      <trkpt lat="44.58995" lon="2.91384">
        <ele>837</ele>
        <time>2021-08-28T07:18:29Z</time>
      </trkpt>
      <trkpt lat="44.58992" lon="2.91376">
        <ele>836</ele>
        <time>2021-08-28T07:18:33Z</time>
      </trkpt>
      <trkpt lat="44.58985" lon="2.91364">
        <ele>837</ele>
        <time>2021-08-28T07:18:38Z</time>
      </trkpt>
      <trkpt lat="44.58977" lon="2.91353">
        <ele>839</ele>
        <time>2021-08-28T07:18:43Z</time>
      </trkpt>
      <trkpt lat="44.58973" lon="2.9135">
        <ele>840</ele>
        <time>2021-08-28T07:18:45Z</time>
      </trkpt>
      <trkpt lat="44.58968" lon="2.91346">
        <ele>842</ele>
        <time>2021-08-28T07:18:48Z</time>
      </trkpt>
      <trkpt lat="44.58945" lon="2.91344">
        <ele>846</ele>
        <time>2021-08-28T07:19:00Z</time>
      </trkpt>
      <trkpt lat="44.5894" lon="2.91349">
        <ele>847</ele>
        <time>2021-08-28T07:19:03Z</time>
      </trkpt>
      <trkpt lat="44.58935" lon="2.91353">
        <ele>848</ele>
        <time>2021-08-28T07:19:05Z</time>
      </trkpt>
      <trkpt lat="44.58885" lon="2.91384">
        <ele>859</ele>
        <time>2021-08-28T07:19:36Z</time>
      </trkpt>
      <trkpt lat="44.58865" lon="2.91389">
        <ele>863</ele>
        <time>2021-08-28T07:19:48Z</time>
      </trkpt>
      <trkpt lat="44.58844" lon="2.91391">
        <ele>866</ele>
        <time>2021-08-28T07:20:00Z</time>
      </trkpt>
      <trkpt lat="44.58819" lon="2.91386">
        <ele>871</ele>
        <time>2021-08-28T07:20:15Z</time>
      </trkpt>
      <trkpt lat="44.58798" lon="2.91374">
        <ele>872</ele>
        <time>2021-08-28T07:20:26Z</time>
      </trkpt>
      <trkpt lat="44.58794" lon="2.91368">
        <ele>872</ele>
        <time>2021-08-28T07:20:29Z</time>
      </trkpt>
      <trkpt lat="44.58787" lon="2.91366">
        <ele>873</ele>
        <time>2021-08-28T07:20:32Z</time>
      </trkpt>
      <trkpt lat="44.58745" lon="2.91344">
        <ele>876</ele>
        <time>2021-08-28T07:20:53Z</time>
      </trkpt>
      <trkpt lat="44.58682" lon="2.91322">
        <ele>881</ele>
        <time>2021-08-28T07:21:23Z</time>
      </trkpt>
      <trkpt lat="44.58671" lon="2.91317">
        <ele>884</ele>
        <time>2021-08-28T07:21:29Z</time>
      </trkpt>
      <trkpt lat="44.58666" lon="2.91316">
        <ele>886</ele>
        <time>2021-08-28T07:21:32Z</time>
      </trkpt>
      <trkpt lat="44.58633" lon="2.91292">
        <ele>888</ele>
        <time>2021-08-28T07:21:48Z</time>
      </trkpt>
      <trkpt lat="44.58624" lon="2.91283">
        <ele>889</ele>
        <time>2021-08-28T07:21:54Z</time>
      </trkpt>
      <trkpt lat="44.5862" lon="2.91279">
        <ele>890</ele>
        <time>2021-08-28T07:21:57Z</time>
      </trkpt>
      <trkpt lat="44.58616" lon="2.91275">
        <ele>891</ele>
        <time>2021-08-28T07:22:00Z</time>
      </trkpt>
      <trkpt lat="44.58606" lon="2.91267">
        <ele>892</ele>
        <time>2021-08-28T07:22:05Z</time>
      </trkpt>
      <trkpt lat="44.58545" lon="2.91237">
        <ele>894</ele>
        <time>2021-08-28T07:22:37Z</time>
      </trkpt>
      <trkpt lat="44.58487" lon="2.91208">
        <ele>898</ele>
        <time>2021-08-28T07:23:07Z</time>
      </trkpt>
      <trkpt lat="44.58454" lon="2.91186">
        <ele>899</ele>
        <time>2021-08-28T07:23:25Z</time>
      </trkpt>
      <trkpt lat="44.58449" lon="2.91181">
        <ele>899</ele>
        <time>2021-08-28T07:23:28Z</time>
      </trkpt>
      <trkpt lat="44.58439" lon="2.91171">
        <ele>898</ele>
        <time>2021-08-28T07:23:34Z</time>
      </trkpt>
      <trkpt lat="44.5842" lon="2.91152">
        <ele>900</ele>
        <time>2021-08-28T07:23:45Z</time>
      </trkpt>
      <trkpt lat="44.58413" lon="2.9114">
        <ele>900</ele>
        <time>2021-08-28T07:23:50Z</time>
      </trkpt>
      <trkpt lat="44.58409" lon="2.91133">
        <ele>900</ele>
        <time>2021-08-28T07:23:53Z</time>
      </trkpt>
      <trkpt lat="44.58406" lon="2.91118">
        <ele>901</ele>
        <time>2021-08-28T07:23:58Z</time>
      </trkpt>
      <trkpt lat="44.58407" lon="2.91108">
        <ele>901</ele>
        <time>2021-08-28T07:24:01Z</time>
      </trkpt>
      <trkpt lat="44.58409" lon="2.91087">
        <ele>901</ele>
        <time>2021-08-28T07:24:08Z</time>
      </trkpt>
      <trkpt lat="44.58412" lon="2.91079">
        <ele>900</ele>
        <time>2021-08-28T07:24:12Z</time>
      </trkpt>
      <trkpt lat="44.5842" lon="2.9107">
        <ele>899</ele>
        <time>2021-08-28T07:24:16Z</time>
      </trkpt>
      <trkpt lat="44.5843" lon="2.91063">
        <ele>900</ele>
        <time>2021-08-28T07:24:22Z</time>
      </trkpt>
      <trkpt lat="44.58442" lon="2.91059">
        <ele>900</ele>
        <time>2021-08-28T07:24:28Z</time>
      </trkpt>
      <trkpt lat="44.58457" lon="2.91061">
        <ele>903</ele>
        <time>2021-08-28T07:24:35Z</time>
      </trkpt>
      <trkpt lat="44.58513" lon="2.91119">
        <ele>908</ele>
        <time>2021-08-28T07:25:07Z</time>
      </trkpt>
      <trkpt lat="44.58535" lon="2.91144">
        <ele>909</ele>
        <time>2021-08-28T07:25:20Z</time>
      </trkpt>
      <trkpt lat="44.5854" lon="2.91148">
        <ele>909</ele>
        <time>2021-08-28T07:25:22Z</time>
      </trkpt>
      <trkpt lat="44.58544" lon="2.91152">
        <ele>909</ele>
        <time>2021-08-28T07:25:24Z</time>
      </trkpt>
      <trkpt lat="44.58616" lon="2.91205">
        <ele>912</ele>
        <time>2021-08-28T07:25:56Z</time>
      </trkpt>
      <trkpt lat="44.58649" lon="2.91225">
        <ele>914</ele>
        <time>2021-08-28T07:26:11Z</time>
      </trkpt>
      <trkpt lat="44.58684" lon="2.91239">
        <ele>918</ele>
        <time>2021-08-28T07:26:25Z</time>
      </trkpt>
      <trkpt lat="44.58769" lon="2.91222">
        <ele>919</ele>
        <time>2021-08-28T07:26:57Z</time>
      </trkpt>
      <trkpt lat="44.58834" lon="2.91162">
        <ele>923</ele>
        <time>2021-08-28T07:27:29Z</time>
      </trkpt>
      <trkpt lat="44.58852" lon="2.91061">
        <ele>928</ele>
        <time>2021-08-28T07:27:59Z</time>
      </trkpt>
      <trkpt lat="44.58882" lon="2.9097">
        <ele>931</ele>
        <time>2021-08-28T07:28:31Z</time>
      </trkpt>
      <trkpt lat="44.58885" lon="2.90965">
        <ele>931</ele>
        <time>2021-08-28T07:28:33Z</time>
      </trkpt>
      <trkpt lat="44.58922" lon="2.90926">
        <ele>934</ele>
        <time>2021-08-28T07:28:51Z</time>
      </trkpt>
      <trkpt lat="44.58939" lon="2.90912">
        <ele>936</ele>
        <time>2021-08-28T07:28:59Z</time>
      </trkpt>
      <trkpt lat="44.58963" lon="2.90903">
        <ele>937</ele>
        <time>2021-08-28T07:29:10Z</time>
      </trkpt>
      <trkpt lat="44.58983" lon="2.90897">
        <ele>939</ele>
        <time>2021-08-28T07:29:18Z</time>
      </trkpt>
      <trkpt lat="44.59007" lon="2.90887">
        <ele>941</ele>
        <time>2021-08-28T07:29:28Z</time>
      </trkpt>
      <trkpt lat="44.59069" lon="2.90827">
        <ele>946</ele>
        <time>2021-08-28T07:29:59Z</time>
      </trkpt>
      <trkpt lat="44.59124" lon="2.90758">
        <ele>949</ele>
        <time>2021-08-28T07:30:30Z</time>
      </trkpt>
      <trkpt lat="44.59171" lon="2.90673">
        <ele>949</ele>
        <time>2021-08-28T07:31:00Z</time>
      </trkpt>
      <trkpt lat="44.59222" lon="2.90609">
        <ele>952</ele>
        <time>2021-08-28T07:31:26Z</time>
      </trkpt>
      <trkpt lat="44.59268" lon="2.90514">
        <ele>956</ele>
        <time>2021-08-28T07:31:57Z</time>
      </trkpt>
      <trkpt lat="44.59316" lon="2.90399">
        <ele>958</ele>
        <time>2021-08-28T07:32:29Z</time>
      </trkpt>
      <trkpt lat="44.59333" lon="2.90348">
        <ele>960</ele>
        <time>2021-08-28T07:32:41Z</time>
      </trkpt>
      <trkpt lat="44.59344" lon="2.90276">
        <ele>960</ele>
        <time>2021-08-28T07:32:54Z</time>
      </trkpt>
      <trkpt lat="44.59356" lon="2.90062">
        <ele>954</ele>
        <time>2021-08-28T07:33:24Z</time>
      </trkpt>
      <trkpt lat="44.59363" lon="2.8985">
        <ele>955</ele>
        <time>2021-08-28T07:33:55Z</time>
      </trkpt>
      <trkpt lat="44.59372" lon="2.89655">
        <ele>956</ele>
        <time>2021-08-28T07:34:26Z</time>
      </trkpt>
      <trkpt lat="44.59381" lon="2.89471">
        <ele>959</ele>
        <time>2021-08-28T07:34:58Z</time>
      </trkpt>
      <trkpt lat="44.5939" lon="2.89364">
        <ele>957</ele>
        <time>2021-08-28T07:35:15Z</time>
      </trkpt>
      <trkpt lat="44.5941" lon="2.89267">
        <ele>952</ele>
        <time>2021-08-28T07:35:30Z</time>
      </trkpt>
      <trkpt lat="44.59422" lon="2.89249">
        <ele>950</ele>
        <time>2021-08-28T07:35:36Z</time>
      </trkpt>
      <trkpt lat="44.59426" lon="2.89244">
        <ele>951</ele>
        <time>2021-08-28T07:35:38Z</time>
      </trkpt>
      <trkpt lat="44.59428" lon="2.89235">
        <ele>950</ele>
        <time>2021-08-28T07:35:40Z</time>
      </trkpt>
      <trkpt lat="44.59427" lon="2.89218">
        <ele>950</ele>
        <time>2021-08-28T07:35:44Z</time>
      </trkpt>
      <trkpt lat="44.59435" lon="2.88982">
        <ele>938</ele>
        <time>2021-08-28T07:36:14Z</time>
      </trkpt>
      <trkpt lat="44.59436" lon="2.88902">
        <ele>937</ele>
        <time>2021-08-28T07:36:25Z</time>
      </trkpt>
      <trkpt lat="44.59419" lon="2.88822">
        <ele>938</ele>
        <time>2021-08-28T07:36:37Z</time>
      </trkpt>
      <trkpt lat="44.5937" lon="2.8863">
        <ele>932</ele>
        <time>2021-08-28T07:37:07Z</time>
      </trkpt>
      <trkpt lat="44.5934" lon="2.88536">
        <ele>928</ele>
        <time>2021-08-28T07:37:17Z</time>
      </trkpt>
      <trkpt lat="44.59204" lon="2.88255">
        <ele>921</ele>
        <time>2021-08-28T07:37:47Z</time>
      </trkpt>
      <trkpt lat="44.59166" lon="2.88204">
        <ele>921</ele>
        <time>2021-08-28T07:37:56Z</time>
      </trkpt>
      <trkpt lat="44.59022" lon="2.8808">
        <ele>928</ele>
        <time>2021-08-28T07:38:27Z</time>
      </trkpt>
      <trkpt lat="44.5886" lon="2.8795">
        <ele>919</ele>
        <time>2021-08-28T07:38:57Z</time>
      </trkpt>
      <trkpt lat="44.5881" lon="2.87908">
        <ele>917</ele>
        <time>2021-08-28T07:39:05Z</time>
      </trkpt>
      <trkpt lat="44.58774" lon="2.87861">
        <ele>914</ele>
        <time>2021-08-28T07:39:11Z</time>
      </trkpt>
      <trkpt lat="44.58712" lon="2.87727">
        <ele>908</ele>
        <time>2021-08-28T07:39:23Z</time>
      </trkpt>
      <trkpt lat="44.58628" lon="2.87423">
        <ele>903</ele>
        <time>2021-08-28T07:39:54Z</time>
      </trkpt>
      <trkpt lat="44.5857" lon="2.87178">
        <ele>897</ele>
        <time>2021-08-28T07:40:24Z</time>
      </trkpt>
      <trkpt lat="44.58511" lon="2.86907">
        <ele>886</ele>
        <time>2021-08-28T07:40:48Z</time>
      </trkpt>
      <trkpt lat="44.58466" lon="2.86795">
        <ele>881</ele>
        <time>2021-08-28T07:40:57Z</time>
      </trkpt>
      <trkpt lat="44.58444" lon="2.86763">
        <ele>879</ele>
        <time>2021-08-28T07:41:00Z</time>
      </trkpt>
      <trkpt lat="44.58238" lon="2.8656">
        <ele>876</ele>
        <time>2021-08-28T07:41:31Z</time>
      </trkpt>
      <trkpt lat="44.58131" lon="2.86453">
        <ele>885</ele>
        <time>2021-08-28T07:42:02Z</time>
      </trkpt>
      <trkpt lat="44.58047" lon="2.86372">
        <ele>893</ele>
        <time>2021-08-28T07:42:32Z</time>
      </trkpt>
      <trkpt lat="44.57968" lon="2.86315">
        <ele>898</ele>
        <time>2021-08-28T07:42:58Z</time>
      </trkpt>
      <trkpt lat="44.57962" lon="2.86312">
        <ele>899</ele>
        <time>2021-08-28T07:43:00Z</time>
      </trkpt>
      <trkpt lat="44.5787" lon="2.8626">
        <ele>903</ele>
        <time>2021-08-28T07:43:30Z</time>
      </trkpt>
      <trkpt lat="44.57771" lon="2.862">
        <ele>908</ele>
        <time>2021-08-28T07:44:02Z</time>
      </trkpt>
      <trkpt lat="44.57656" lon="2.86126">
        <ele>908</ele>
        <time>2021-08-28T07:44:34Z</time>
      </trkpt>
      <trkpt lat="44.57635" lon="2.86114">
        <ele>907</ele>
        <time>2021-08-28T07:46:10Z</time>
      </trkpt>
      <trkpt lat="44.57566" lon="2.86073">
        <ele>904</ele>
        <time>2021-08-28T07:46:29Z</time>
      </trkpt>
      <trkpt lat="44.57562" lon="2.86068">
        <ele>904</ele>
        <time>2021-08-28T07:46:31Z</time>
      </trkpt>
      <trkpt lat="44.57561" lon="2.8606">
        <ele>904</ele>
        <time>2021-08-28T07:48:03Z</time>
      </trkpt>
      <trkpt lat="44.5756" lon="2.86044">
        <ele>904</ele>
        <time>2021-08-28T07:48:08Z</time>
      </trkpt>
      <trkpt lat="44.57565" lon="2.8603">
        <ele>903</ele>
        <time>2021-08-28T07:48:13Z</time>
      </trkpt>
      <trkpt lat="44.57567" lon="2.86017">
        <ele>903</ele>
        <time>2021-08-28T07:48:17Z</time>
      </trkpt>
      <trkpt lat="44.57563" lon="2.85997">
        <ele>903</ele>
        <time>2021-08-28T07:48:23Z</time>
      </trkpt>
      <trkpt lat="44.57522" lon="2.85849">
        <ele>899</ele>
        <time>2021-08-28T07:48:54Z</time>
      </trkpt>
      <trkpt lat="44.57496" lon="2.8575">
        <ele>900</ele>
        <time>2021-08-28T07:49:14Z</time>
      </trkpt>
      <trkpt lat="44.57494" lon="2.85721">
        <ele>901</ele>
        <time>2021-08-28T07:49:20Z</time>
      </trkpt>
      <trkpt lat="44.57496" lon="2.85712">
        <ele>901</ele>
        <time>2021-08-28T07:49:22Z</time>
      </trkpt>
      <trkpt lat="44.57506" lon="2.85683">
        <ele>903</ele>
        <time>2021-08-28T07:49:30Z</time>
      </trkpt>
      <trkpt lat="44.5753" lon="2.85638">
        <ele>906</ele>
        <time>2021-08-28T07:49:44Z</time>
      </trkpt>
      <trkpt lat="44.57578" lon="2.85479">
        <ele>902</ele>
        <time>2021-08-28T07:50:14Z</time>
      </trkpt>
      <trkpt lat="44.57584" lon="2.85462">
        <ele>902</ele>
        <time>2021-08-28T07:50:19Z</time>
      </trkpt>
      <trkpt lat="44.57586" lon="2.85456">
        <ele>901</ele>
        <time>2021-08-28T07:51:08Z</time>
      </trkpt>
      <trkpt lat="44.57605" lon="2.85398">
        <ele>900</ele>
        <time>2021-08-28T07:51:20Z</time>
      </trkpt>
      <trkpt lat="44.57638" lon="2.85219">
        <ele>896</ele>
        <time>2021-08-28T07:51:40Z</time>
      </trkpt>
      <trkpt lat="44.57639" lon="2.85202">
        <ele>896</ele>
        <time>2021-08-28T07:51:42Z</time>
      </trkpt>
      <trkpt lat="44.57637" lon="2.85185">
        <ele>895</ele>
        <time>2021-08-28T07:51:44Z</time>
      </trkpt>
      <trkpt lat="44.57628" lon="2.85163">
        <ele>894</ele>
        <time>2021-08-28T07:51:47Z</time>
      </trkpt>
      <trkpt lat="44.57614" lon="2.85138">
        <ele>893</ele>
        <time>2021-08-28T07:51:52Z</time>
      </trkpt>
      <trkpt lat="44.57612" lon="2.85131">
        <ele>892</ele>
        <time>2021-08-28T07:51:54Z</time>
      </trkpt>
      <trkpt lat="44.5761" lon="2.85124">
        <ele>891</ele>
        <time>2021-08-28T07:52:49Z</time>
      </trkpt>
      <trkpt lat="44.57606" lon="2.85117">
        <ele>891</ele>
        <time>2021-08-28T07:52:51Z</time>
      </trkpt>
      <trkpt lat="44.57592" lon="2.85106">
        <ele>891</ele>
        <time>2021-08-28T07:52:55Z</time>
      </trkpt>
      <trkpt lat="44.57577" lon="2.85098">
        <ele>891</ele>
        <time>2021-08-28T07:52:59Z</time>
      </trkpt>
      <trkpt lat="44.57552" lon="2.85082">
        <ele>892</ele>
        <time>2021-08-28T07:53:07Z</time>
      </trkpt>
      <trkpt lat="44.57547" lon="2.85077">
        <ele>893</ele>
        <time>2021-08-28T07:53:10Z</time>
      </trkpt>
      <trkpt lat="44.5753" lon="2.85044">
        <ele>888</ele>
        <time>2021-08-28T07:53:19Z</time>
      </trkpt>
      <trkpt lat="44.57511" lon="2.85011">
        <ele>886</ele>
        <time>2021-08-28T07:53:24Z</time>
      </trkpt>
      <trkpt lat="44.57505" lon="2.84993">
        <ele>886</ele>
        <time>2021-08-28T07:53:26Z</time>
      </trkpt>
      <trkpt lat="44.57503" lon="2.84971">
        <ele>886</ele>
        <time>2021-08-28T07:53:28Z</time>
      </trkpt>
      <trkpt lat="44.57506" lon="2.8493">
        <ele>887</ele>
        <time>2021-08-28T07:53:32Z</time>
      </trkpt>
      <trkpt lat="44.57522" lon="2.84838">
        <ele>886</ele>
        <time>2021-08-28T07:53:44Z</time>
      </trkpt>
      <trkpt lat="44.57523" lon="2.84804">
        <ele>885</ele>
        <time>2021-08-28T07:53:49Z</time>
      </trkpt>
      <trkpt lat="44.57508" lon="2.84722">
        <ele>884</ele>
        <time>2021-08-28T07:54:06Z</time>
      </trkpt>
      <trkpt lat="44.57506" lon="2.84708">
        <ele>883</ele>
        <time>2021-08-28T07:54:12Z</time>
      </trkpt>
      <trkpt lat="44.57504" lon="2.847">
        <ele>883</ele>
        <time>2021-08-28T07:54:16Z</time>
      </trkpt>
      <trkpt lat="44.57502" lon="2.84693">
        <ele>883</ele>
        <time>2021-08-28T07:54:20Z</time>
      </trkpt>
      <trkpt lat="44.575" lon="2.84686">
        <ele>882</ele>
        <time>2021-08-28T07:55:02Z</time>
      </trkpt>
      <trkpt lat="44.57498" lon="2.8468">
        <ele>882</ele>
        <time>2021-08-28T07:55:04Z</time>
      </trkpt>
      <trkpt lat="44.57472" lon="2.84621">
        <ele>879</ele>
        <time>2021-08-28T07:55:16Z</time>
      </trkpt>
      <trkpt lat="44.5746" lon="2.84607">
        <ele>878</ele>
        <time>2021-08-28T07:55:19Z</time>
      </trkpt>
      <trkpt lat="44.57452" lon="2.84601">
        <ele>878</ele>
        <time>2021-08-28T07:55:21Z</time>
      </trkpt>
      <trkpt lat="44.57367" lon="2.84566">
        <ele>875</ele>
        <time>2021-08-28T07:55:36Z</time>
      </trkpt>
      <trkpt lat="44.57358" lon="2.84556">
        <ele>875</ele>
        <time>2021-08-28T07:55:38Z</time>
      </trkpt>
      <trkpt lat="44.57352" lon="2.84543">
        <ele>874</ele>
        <time>2021-08-28T07:55:40Z</time>
      </trkpt>
      <trkpt lat="44.57351" lon="2.84535">
        <ele>874</ele>
        <time>2021-08-28T07:55:41Z</time>
      </trkpt>
      <trkpt lat="44.57349" lon="2.84412">
        <ele>869</ele>
        <time>2021-08-28T07:55:55Z</time>
      </trkpt>
      <trkpt lat="44.57339" lon="2.84278">
        <ele>865</ele>
        <time>2021-08-28T07:56:09Z</time>
      </trkpt>
      <trkpt lat="44.57342" lon="2.84248">
        <ele>864</ele>
        <time>2021-08-28T07:56:12Z</time>
      </trkpt>
      <trkpt lat="44.57362" lon="2.84169">
        <ele>859</ele>
        <time>2021-08-28T07:56:21Z</time>
      </trkpt>
      <trkpt lat="44.57363" lon="2.84151">
        <ele>859</ele>
        <time>2021-08-28T07:56:23Z</time>
      </trkpt>
      <trkpt lat="44.5735" lon="2.84077">
        <ele>860</ele>
        <time>2021-08-28T07:56:32Z</time>
      </trkpt>
      <trkpt lat="44.57342" lon="2.84053">
        <ele>859</ele>
        <time>2021-08-28T07:56:35Z</time>
      </trkpt>
      <trkpt lat="44.57334" lon="2.84039">
        <ele>858</ele>
        <time>2021-08-28T07:56:37Z</time>
      </trkpt>
      <trkpt lat="44.57316" lon="2.84022">
        <ele>857</ele>
        <time>2021-08-28T07:56:40Z</time>
      </trkpt>
      <trkpt lat="44.57288" lon="2.84003">
        <ele>856</ele>
        <time>2021-08-28T07:56:44Z</time>
      </trkpt>
      <trkpt lat="44.57276" lon="2.83989">
        <ele>856</ele>
        <time>2021-08-28T07:56:46Z</time>
      </trkpt>
      <trkpt lat="44.57268" lon="2.83972">
        <ele>855</ele>
        <time>2021-08-28T07:56:48Z</time>
      </trkpt>
      <trkpt lat="44.57266" lon="2.83962">
        <ele>854</ele>
        <time>2021-08-28T07:56:49Z</time>
      </trkpt>
      <trkpt lat="44.57274" lon="2.83813">
        <ele>850</ele>
        <time>2021-08-28T07:57:02Z</time>
      </trkpt>
      <trkpt lat="44.57219" lon="2.83519">
        <ele>846</ele>
        <time>2021-08-28T07:57:32Z</time>
      </trkpt>
      <trkpt lat="44.57177" lon="2.83319">
        <ele>841</ele>
        <time>2021-08-28T07:57:53Z</time>
      </trkpt>
      <trkpt lat="44.57069" lon="2.83084">
        <ele>836</ele>
        <time>2021-08-28T07:58:24Z</time>
      </trkpt>
      <trkpt lat="44.56994" lon="2.82915">
        <ele>832</ele>
        <time>2021-08-28T07:58:44Z</time>
      </trkpt>
      <trkpt lat="44.56972" lon="2.82826">
        <ele>832</ele>
        <time>2021-08-28T07:58:55Z</time>
      </trkpt>
      <trkpt lat="44.56967" lon="2.82775">
        <ele>831</ele>
        <time>2021-08-28T07:59:01Z</time>
      </trkpt>
      <trkpt lat="44.56966" lon="2.8267">
        <ele>830</ele>
        <time>2021-08-28T07:59:12Z</time>
      </trkpt>
      <trkpt lat="44.56882" lon="2.82399">
        <ele>824</ele>
        <time>2021-08-28T07:59:42Z</time>
      </trkpt>
      <trkpt lat="44.56797" lon="2.82133">
        <ele>819</ele>
        <time>2021-08-28T08:00:13Z</time>
      </trkpt>
      <trkpt lat="44.56733" lon="2.81917">
        <ele>812</ele>
        <time>2021-08-28T08:00:38Z</time>
      </trkpt>
      <trkpt lat="44.56721" lon="2.81841">
        <ele>811</ele>
        <time>2021-08-28T08:00:45Z</time>
      </trkpt>
      <trkpt lat="44.56715" lon="2.81822">
        <ele>811</ele>
        <time>2021-08-28T08:00:47Z</time>
      </trkpt>
      <trkpt lat="44.56705" lon="2.81806">
        <ele>809</ele>
        <time>2021-08-28T08:00:49Z</time>
      </trkpt>
      <trkpt lat="44.56539" lon="2.81689">
        <ele>808</ele>
        <time>2021-08-28T08:01:19Z</time>
      </trkpt>
      <trkpt lat="44.56412" lon="2.81591">
        <ele>803</ele>
        <time>2021-08-28T08:01:50Z</time>
      </trkpt>
      <trkpt lat="44.56363" lon="2.81556">
        <ele>798</ele>
        <time>2021-08-28T08:02:01Z</time>
      </trkpt>
      <trkpt lat="44.5634" lon="2.81549">
        <ele>795</ele>
        <time>2021-08-28T08:02:06Z</time>
      </trkpt>
      <trkpt lat="44.56221" lon="2.81544">
        <ele>799</ele>
        <time>2021-08-28T08:02:32Z</time>
      </trkpt>
      <trkpt lat="44.56205" lon="2.81545">
        <ele>801</ele>
        <time>2021-08-28T08:02:36Z</time>
      </trkpt>
      <trkpt lat="44.56191" lon="2.81552">
        <ele>802</ele>
        <time>2021-08-28T08:02:40Z</time>
      </trkpt>
      <trkpt lat="44.56168" lon="2.81578">
        <ele>802</ele>
        <time>2021-08-28T08:02:48Z</time>
      </trkpt>
      <trkpt lat="44.56147" lon="2.81593">
        <ele>803</ele>
        <time>2021-08-28T08:02:54Z</time>
      </trkpt>
      <trkpt lat="44.56141" lon="2.81595">
        <ele>804</ele>
        <time>2021-08-28T08:02:56Z</time>
      </trkpt>
      <trkpt lat="44.56115" lon="2.81595">
        <ele>805</ele>
        <time>2021-08-28T08:03:04Z</time>
      </trkpt>
      <trkpt lat="44.56108" lon="2.81594">
        <ele>806</ele>
        <time>2021-08-28T08:03:06Z</time>
      </trkpt>
      <trkpt lat="44.56093" lon="2.81591">
        <ele>807</ele>
        <time>2021-08-28T08:03:12Z</time>
      </trkpt>
      <trkpt lat="44.56068" lon="2.81576">
        <ele>808</ele>
        <time>2021-08-28T08:03:24Z</time>
      </trkpt>
      <trkpt lat="44.56064" lon="2.81576">
        <ele>808</ele>
        <time>2021-08-28T08:03:26Z</time>
      </trkpt>
      <trkpt lat="44.56059" lon="2.81575">
        <ele>806</ele>
        <time>2021-08-28T08:03:30Z</time>
      </trkpt>
      <trkpt lat="44.56052" lon="2.81572">
        <ele>803</ele>
        <time>2021-08-28T08:04:42Z</time>
      </trkpt>
      <trkpt lat="44.56016" lon="2.81543">
        <ele>803</ele>
        <time>2021-08-28T08:04:52Z</time>
      </trkpt>
      <trkpt lat="44.56005" lon="2.81529">
        <ele>801</ele>
        <time>2021-08-28T08:04:55Z</time>
      </trkpt>
      <trkpt lat="44.56001" lon="2.81522">
        <ele>801</ele>
        <time>2021-08-28T08:04:56Z</time>
      </trkpt>
      <trkpt lat="44.55996" lon="2.81506">
        <ele>800</ele>
        <time>2021-08-28T08:04:58Z</time>
      </trkpt>
      <trkpt lat="44.55994" lon="2.81467">
        <ele>798</ele>
        <time>2021-08-28T08:05:02Z</time>
      </trkpt>
      <trkpt lat="44.55993" lon="2.81442">
        <ele>798</ele>
        <time>2021-08-28T08:05:05Z</time>
      </trkpt>
      <trkpt lat="44.55989" lon="2.81425">
        <ele>798</ele>
        <time>2021-08-28T08:05:07Z</time>
      </trkpt>
      <trkpt lat="44.55974" lon="2.814">
        <ele>798</ele>
        <time>2021-08-28T08:05:10Z</time>
      </trkpt>
      <trkpt lat="44.55944" lon="2.8137">
        <ele>795</ele>
        <time>2021-08-28T08:05:14Z</time>
      </trkpt>
      <trkpt lat="44.55926" lon="2.81361">
        <ele>795</ele>
        <time>2021-08-28T08:05:16Z</time>
      </trkpt>
      <trkpt lat="44.55865" lon="2.81348">
        <ele>794</ele>
        <time>2021-08-28T08:05:23Z</time>
      </trkpt>
      <trkpt lat="44.55736" lon="2.81241">
        <ele>789</ele>
        <time>2021-08-28T08:05:43Z</time>
      </trkpt>
      <trkpt lat="44.55671" lon="2.81158">
        <ele>783</ele>
        <time>2021-08-28T08:05:58Z</time>
      </trkpt>
      <trkpt lat="44.55639" lon="2.81107">
        <ele>778</ele>
        <time>2021-08-28T08:06:07Z</time>
      </trkpt>
      <trkpt lat="44.55619" lon="2.81082">
        <ele>776</ele>
        <time>2021-08-28T08:06:12Z</time>
      </trkpt>
      <trkpt lat="44.55604" lon="2.81068">
        <ele>774</ele>
        <time>2021-08-28T08:06:18Z</time>
      </trkpt>
      <trkpt lat="44.55593" lon="2.81061">
        <ele>773</ele>
        <time>2021-08-28T08:06:24Z</time>
      </trkpt>
      <trkpt lat="44.55589" lon="2.81058">
        <ele>773</ele>
        <time>2021-08-28T08:06:34Z</time>
      </trkpt>
      <trkpt lat="44.55583" lon="2.81058">
        <ele>773</ele>
        <time>2021-08-28T08:08:28Z</time>
      </trkpt>
      <trkpt lat="44.55379" lon="2.81051">
        <ele>753</ele>
        <time>2021-08-28T08:08:59Z</time>
      </trkpt>
      <trkpt lat="44.55098" lon="2.81012">
        <ele>735</ele>
        <time>2021-08-28T08:09:29Z</time>
      </trkpt>
      <trkpt lat="44.54972" lon="2.80968">
        <ele>726</ele>
        <time>2021-08-28T08:09:43Z</time>
      </trkpt>
      <trkpt lat="44.54966" lon="2.80964">
        <ele>726</ele>
        <time>2021-08-28T08:09:44Z</time>
      </trkpt>
      <trkpt lat="44.54954" lon="2.80952">
        <ele>725</ele>
        <time>2021-08-28T08:09:46Z</time>
      </trkpt>
      <trkpt lat="44.54951" lon="2.80945">
        <ele>725</ele>
        <time>2021-08-28T08:09:47Z</time>
      </trkpt>
      <trkpt lat="44.54948" lon="2.80927">
        <ele>724</ele>
        <time>2021-08-28T08:09:49Z</time>
      </trkpt>
      <trkpt lat="44.54949" lon="2.80894">
        <ele>721</ele>
        <time>2021-08-28T08:09:54Z</time>
      </trkpt>
      <trkpt lat="44.54947" lon="2.80871">
        <ele>719</ele>
        <time>2021-08-28T08:09:58Z</time>
      </trkpt>
      <trkpt lat="44.54938" lon="2.80858">
        <ele>716</ele>
        <time>2021-08-28T08:10:00Z</time>
      </trkpt>
      <trkpt lat="44.54909" lon="2.80841">
        <ele>712</ele>
        <time>2021-08-28T08:10:04Z</time>
      </trkpt>
      <trkpt lat="44.54878" lon="2.80831">
        <ele>708</ele>
        <time>2021-08-28T08:10:08Z</time>
      </trkpt>
      <trkpt lat="44.54836" lon="2.80825">
        <ele>703</ele>
        <time>2021-08-28T08:10:11Z</time>
      </trkpt>
      <trkpt lat="44.54775" lon="2.80799">
        <ele>692</ele>
        <time>2021-08-28T08:10:20Z</time>
      </trkpt>
      <trkpt lat="44.54765" lon="2.80794">
        <ele>688</ele>
        <time>2021-08-28T08:10:22Z</time>
      </trkpt>
      <trkpt lat="44.54759" lon="2.80792">
        <ele>686</ele>
        <time>2021-08-28T08:10:23Z</time>
      </trkpt>
      <trkpt lat="44.54745" lon="2.80791">
        <ele>684</ele>
        <time>2021-08-28T08:10:28Z</time>
      </trkpt>
      <trkpt lat="44.54725" lon="2.80793">
        <ele>676</ele>
        <time>2021-08-28T08:10:31Z</time>
      </trkpt>
      <trkpt lat="44.54701" lon="2.80798">
        <ele>675</ele>
        <time>2021-08-28T08:10:34Z</time>
      </trkpt>
      <trkpt lat="44.54689" lon="2.80806">
        <ele>673</ele>
        <time>2021-08-28T08:10:36Z</time>
      </trkpt>
      <trkpt lat="44.54677" lon="2.80825">
        <ele>670</ele>
        <time>2021-08-28T08:10:40Z</time>
      </trkpt>
      <trkpt lat="44.54673" lon="2.80833">
        <ele>670</ele>
        <time>2021-08-28T08:10:42Z</time>
      </trkpt>
      <trkpt lat="44.54658" lon="2.80851">
        <ele>669</ele>
        <time>2021-08-28T08:10:47Z</time>
      </trkpt>
      <trkpt lat="44.54644" lon="2.80862">
        <ele>668</ele>
        <time>2021-08-28T08:10:50Z</time>
      </trkpt>
      <trkpt lat="44.54632" lon="2.80868">
        <ele>668</ele>
        <time>2021-08-28T08:10:52Z</time>
      </trkpt>
      <trkpt lat="44.54617" lon="2.80868">
        <ele>669</ele>
        <time>2021-08-28T08:10:55Z</time>
      </trkpt>
      <trkpt lat="44.54611" lon="2.80864">
        <ele>669</ele>
        <time>2021-08-28T08:10:56Z</time>
      </trkpt>
      <trkpt lat="44.54592" lon="2.80836">
        <ele>671</ele>
        <time>2021-08-28T08:11:00Z</time>
      </trkpt>
      <trkpt lat="44.54577" lon="2.80812">
        <ele>670</ele>
        <time>2021-08-28T08:11:03Z</time>
      </trkpt>
      <trkpt lat="44.54509" lon="2.80734">
        <ele>660</ele>
        <time>2021-08-28T08:11:16Z</time>
      </trkpt>
      <trkpt lat="44.54472" lon="2.80671">
        <ele>659</ele>
        <time>2021-08-28T08:11:23Z</time>
      </trkpt>
      <trkpt lat="44.54421" lon="2.80597">
        <ele>652</ele>
        <time>2021-08-28T08:11:33Z</time>
      </trkpt>
      <trkpt lat="44.54415" lon="2.80593">
        <ele>651</ele>
        <time>2021-08-28T08:11:34Z</time>
      </trkpt>
      <trkpt lat="44.54391" lon="2.80587">
        <ele>646</ele>
        <time>2021-08-28T08:11:38Z</time>
      </trkpt>
      <trkpt lat="44.54373" lon="2.80586">
        <ele>649</ele>
        <time>2021-08-28T08:11:42Z</time>
      </trkpt>
      <trkpt lat="44.54318" lon="2.80617">
        <ele>651</ele>
        <time>2021-08-28T08:11:51Z</time>
      </trkpt>
      <trkpt lat="44.54261" lon="2.80631">
        <ele>649</ele>
        <time>2021-08-28T08:11:59Z</time>
      </trkpt>
      <trkpt lat="44.54242" lon="2.80644">
        <ele>646</ele>
        <time>2021-08-28T08:12:03Z</time>
      </trkpt>
      <trkpt lat="44.54229" lon="2.80664">
        <ele>645</ele>
        <time>2021-08-28T08:12:07Z</time>
      </trkpt>
      <trkpt lat="44.54217" lon="2.80693">
        <ele>647</ele>
        <time>2021-08-28T08:12:12Z</time>
      </trkpt>
      <trkpt lat="44.54204" lon="2.8074">
        <ele>647</ele>
        <time>2021-08-28T08:12:19Z</time>
      </trkpt>
      <trkpt lat="44.542" lon="2.80749">
        <ele>647</ele>
        <time>2021-08-28T08:12:21Z</time>
      </trkpt>
      <trkpt lat="44.54195" lon="2.80754">
        <ele>647</ele>
        <time>2021-08-28T08:12:23Z</time>
      </trkpt>
      <trkpt lat="44.54189" lon="2.80754">
        <ele>647</ele>
        <time>2021-08-28T08:12:25Z</time>
      </trkpt>
      <trkpt lat="44.54183" lon="2.80752">
        <ele>646</ele>
        <time>2021-08-28T08:12:28Z</time>
      </trkpt>
      <trkpt lat="44.54176" lon="2.80747">
        <ele>645</ele>
        <time>2021-08-28T08:12:30Z</time>
      </trkpt>
      <trkpt lat="44.54168" lon="2.80736">
        <ele>644</ele>
        <time>2021-08-28T08:12:32Z</time>
      </trkpt>
      <trkpt lat="44.54164" lon="2.80723">
        <ele>643</ele>
        <time>2021-08-28T08:12:34Z</time>
      </trkpt>
      <trkpt lat="44.54161" lon="2.807">
        <ele>643</ele>
        <time>2021-08-28T08:12:37Z</time>
      </trkpt>
      <trkpt lat="44.5417" lon="2.80585">
        <ele>636</ele>
        <time>2021-08-28T08:12:49Z</time>
      </trkpt>
      <trkpt lat="44.54175" lon="2.80566">
        <ele>635</ele>
        <time>2021-08-28T08:12:51Z</time>
      </trkpt>
      <trkpt lat="44.54198" lon="2.80533">
        <ele>631</ele>
        <time>2021-08-28T08:12:56Z</time>
      </trkpt>
      <trkpt lat="44.54202" lon="2.80524">
        <ele>630</ele>
        <time>2021-08-28T08:12:57Z</time>
      </trkpt>
      <trkpt lat="44.54204" lon="2.80516">
        <ele>630</ele>
        <time>2021-08-28T08:12:58Z</time>
      </trkpt>
      <trkpt lat="44.54204" lon="2.80507">
        <ele>630</ele>
        <time>2021-08-28T08:12:59Z</time>
      </trkpt>
      <trkpt lat="44.54202" lon="2.80499">
        <ele>629</ele>
        <time>2021-08-28T08:13:00Z</time>
      </trkpt>
      <trkpt lat="44.54198" lon="2.80491">
        <ele>628</ele>
        <time>2021-08-28T08:13:01Z</time>
      </trkpt>
      <trkpt lat="44.54188" lon="2.80478">
        <ele>627</ele>
        <time>2021-08-28T08:13:03Z</time>
      </trkpt>
      <trkpt lat="44.54146" lon="2.80449">
        <ele>623</ele>
        <time>2021-08-28T08:13:09Z</time>
      </trkpt>
      <trkpt lat="44.5414" lon="2.80442">
        <ele>623</ele>
        <time>2021-08-28T08:13:10Z</time>
      </trkpt>
      <trkpt lat="44.5413" lon="2.80429">
        <ele>622</ele>
        <time>2021-08-28T08:13:12Z</time>
      </trkpt>
      <trkpt lat="44.5412" lon="2.8038">
        <ele>622</ele>
        <time>2021-08-28T08:13:18Z</time>
      </trkpt>
      <trkpt lat="44.54116" lon="2.80372">
        <ele>622</ele>
        <time>2021-08-28T08:13:19Z</time>
      </trkpt>
      <trkpt lat="44.54024" lon="2.80254">
        <ele>609</ele>
        <time>2021-08-28T08:13:37Z</time>
      </trkpt>
      <trkpt lat="44.54014" lon="2.80245">
        <ele>607</ele>
        <time>2021-08-28T08:13:39Z</time>
      </trkpt>
      <trkpt lat="44.54003" lon="2.80241">
        <ele>606</ele>
        <time>2021-08-28T08:13:41Z</time>
      </trkpt>
      <trkpt lat="44.53992" lon="2.8024">
        <ele>606</ele>
        <time>2021-08-28T08:13:43Z</time>
      </trkpt>
      <trkpt lat="44.5398" lon="2.80243">
        <ele>605</ele>
        <time>2021-08-28T08:13:45Z</time>
      </trkpt>
      <trkpt lat="44.53939" lon="2.80276">
        <ele>603</ele>
        <time>2021-08-28T08:13:53Z</time>
      </trkpt>
      <trkpt lat="44.5392" lon="2.80311">
        <ele>601</ele>
        <time>2021-08-28T08:14:01Z</time>
      </trkpt>
      <trkpt lat="44.53919" lon="2.80318">
        <ele>600</ele>
        <time>2021-08-28T08:14:04Z</time>
      </trkpt>
      <trkpt lat="44.53916" lon="2.80325">
        <ele>599</ele>
        <time>2021-08-28T08:14:07Z</time>
      </trkpt>
      <trkpt lat="44.53906" lon="2.80352">
        <ele>597</ele>
        <time>2021-08-28T08:14:16Z</time>
      </trkpt>
      <trkpt lat="44.53878" lon="2.80426">
        <ele>591</ele>
        <time>2021-08-28T08:14:33Z</time>
      </trkpt>
      <trkpt lat="44.53875" lon="2.80437">
        <ele>591</ele>
        <time>2021-08-28T08:14:35Z</time>
      </trkpt>
      <trkpt lat="44.53873" lon="2.80455">
        <ele>589</ele>
        <time>2021-08-28T08:14:38Z</time>
      </trkpt>
      <trkpt lat="44.53882" lon="2.80483">
        <ele>587</ele>
        <time>2021-08-28T08:14:43Z</time>
      </trkpt>
      <trkpt lat="44.53905" lon="2.80511">
        <ele>584</ele>
        <time>2021-08-28T08:14:48Z</time>
      </trkpt>
      <trkpt lat="44.53927" lon="2.80529">
        <ele>582</ele>
        <time>2021-08-28T08:14:52Z</time>
      </trkpt>
      <trkpt lat="44.53938" lon="2.80535">
        <ele>581</ele>
        <time>2021-08-28T08:14:54Z</time>
      </trkpt>
      <trkpt lat="44.53943" lon="2.80539">
        <ele>580</ele>
        <time>2021-08-28T08:14:55Z</time>
      </trkpt>
      <trkpt lat="44.53948" lon="2.80549">
        <ele>579</ele>
        <time>2021-08-28T08:14:57Z</time>
      </trkpt>
      <trkpt lat="44.53946" lon="2.80562">
        <ele>579</ele>
        <time>2021-08-28T08:14:59Z</time>
      </trkpt>
      <trkpt lat="44.53943" lon="2.80568">
        <ele>579</ele>
        <time>2021-08-28T08:15:00Z</time>
      </trkpt>
      <trkpt lat="44.53727" lon="2.80622">
        <ele>564</ele>
        <time>2021-08-28T08:15:30Z</time>
      </trkpt>
      <trkpt lat="44.53639" lon="2.80645">
        <ele>557</ele>
        <time>2021-08-28T08:15:41Z</time>
      </trkpt>
      <trkpt lat="44.53633" lon="2.8065">
        <ele>557</ele>
        <time>2021-08-28T08:15:42Z</time>
      </trkpt>
      <trkpt lat="44.53616" lon="2.80677">
        <ele>555</ele>
        <time>2021-08-28T08:15:46Z</time>
      </trkpt>
      <trkpt lat="44.53607" lon="2.80678">
        <ele>555</ele>
        <time>2021-08-28T08:15:48Z</time>
      </trkpt>
      <trkpt lat="44.53603" lon="2.80674">
        <ele>554</ele>
        <time>2021-08-28T08:15:49Z</time>
      </trkpt>
      <trkpt lat="44.536" lon="2.80668">
        <ele>554</ele>
        <time>2021-08-28T08:15:50Z</time>
      </trkpt>
      <trkpt lat="44.53599" lon="2.80662">
        <ele>553</ele>
        <time>2021-08-28T08:15:51Z</time>
      </trkpt>
      <trkpt lat="44.53602" lon="2.80654">
        <ele>553</ele>
        <time>2021-08-28T08:15:52Z</time>
      </trkpt>
      <trkpt lat="44.53623" lon="2.80628">
        <ele>549</ele>
        <time>2021-08-28T08:15:56Z</time>
      </trkpt>
      <trkpt lat="44.537" lon="2.80558">
        <ele>540</ele>
        <time>2021-08-28T08:16:09Z</time>
      </trkpt>
      <trkpt lat="44.53705" lon="2.80553">
        <ele>539</ele>
        <time>2021-08-28T08:16:10Z</time>
      </trkpt>
      <trkpt lat="44.53708" lon="2.80546">
        <ele>539</ele>
        <time>2021-08-28T08:16:11Z</time>
      </trkpt>
      <trkpt lat="44.53709" lon="2.80537">
        <ele>539</ele>
        <time>2021-08-28T08:16:12Z</time>
      </trkpt>
      <trkpt lat="44.53709" lon="2.80531">
        <ele>538</ele>
        <time>2021-08-28T08:16:13Z</time>
      </trkpt>
      <trkpt lat="44.53702" lon="2.80522">
        <ele>538</ele>
        <time>2021-08-28T08:16:15Z</time>
      </trkpt>
      <trkpt lat="44.53555" lon="2.80524">
        <ele>525</ele>
        <time>2021-08-28T08:16:36Z</time>
      </trkpt>
      <trkpt lat="44.53481" lon="2.80542">
        <ele>519</ele>
        <time>2021-08-28T08:16:46Z</time>
      </trkpt>
      <trkpt lat="44.53468" lon="2.80542">
        <ele>519</ele>
        <time>2021-08-28T08:16:48Z</time>
      </trkpt>
      <trkpt lat="44.53457" lon="2.80539">
        <ele>519</ele>
        <time>2021-08-28T08:16:50Z</time>
      </trkpt>
      <trkpt lat="44.5344" lon="2.80527">
        <ele>517</ele>
        <time>2021-08-28T08:16:53Z</time>
      </trkpt>
      <trkpt lat="44.53422" lon="2.80496">
        <ele>513</ele>
        <time>2021-08-28T08:16:57Z</time>
      </trkpt>
      <trkpt lat="44.53417" lon="2.80479">
        <ele>511</ele>
        <time>2021-08-28T08:16:59Z</time>
      </trkpt>
      <trkpt lat="44.53407" lon="2.80408">
        <ele>508</ele>
        <time>2021-08-28T08:17:06Z</time>
      </trkpt>
      <trkpt lat="44.53406" lon="2.80375">
        <ele>506</ele>
        <time>2021-08-28T08:17:09Z</time>
      </trkpt>
      <trkpt lat="44.53418" lon="2.80283">
        <ele>501</ele>
        <time>2021-08-28T08:17:18Z</time>
      </trkpt>
      <trkpt lat="44.53419" lon="2.80275">
        <ele>499</ele>
        <time>2021-08-28T08:17:19Z</time>
      </trkpt>
      <trkpt lat="44.53418" lon="2.80267">
        <ele>499</ele>
        <time>2021-08-28T08:17:20Z</time>
      </trkpt>
      <trkpt lat="44.53416" lon="2.8026">
        <ele>498</ele>
        <time>2021-08-28T08:17:21Z</time>
      </trkpt>
      <trkpt lat="44.53407" lon="2.80246">
        <ele>497</ele>
        <time>2021-08-28T08:17:23Z</time>
      </trkpt>
      <trkpt lat="44.53356" lon="2.80195">
        <ele>492</ele>
        <time>2021-08-28T08:17:34Z</time>
      </trkpt>
      <trkpt lat="44.5335" lon="2.80184">
        <ele>491</ele>
        <time>2021-08-28T08:17:36Z</time>
      </trkpt>
      <trkpt lat="44.53338" lon="2.80139">
        <ele>489</ele>
        <time>2021-08-28T08:17:42Z</time>
      </trkpt>
      <trkpt lat="44.53313" lon="2.80099">
        <ele>486</ele>
        <time>2021-08-28T08:17:49Z</time>
      </trkpt>
      <trkpt lat="44.53286" lon="2.80067">
        <ele>484</ele>
        <time>2021-08-28T08:17:55Z</time>
      </trkpt>
      <trkpt lat="44.53256" lon="2.80043">
        <ele>482</ele>
        <time>2021-08-28T08:18:01Z</time>
      </trkpt>
      <trkpt lat="44.53227" lon="2.80028">
        <ele>482</ele>
        <time>2021-08-28T08:18:07Z</time>
      </trkpt>
      <trkpt lat="44.53206" lon="2.80025">
        <ele>483</ele>
        <time>2021-08-28T08:18:11Z</time>
      </trkpt>
      <trkpt lat="44.53184" lon="2.80031">
        <ele>483</ele>
        <time>2021-08-28T08:18:16Z</time>
      </trkpt>
      <trkpt lat="44.53179" lon="2.80033">
        <ele>483</ele>
        <time>2021-08-28T08:18:18Z</time>
      </trkpt>
      <trkpt lat="44.53175" lon="2.80034">
        <ele>484</ele>
        <time>2021-08-28T08:18:21Z</time>
      </trkpt>
      <trkpt lat="44.53169" lon="2.80037">
        <ele>484</ele>
        <time>2021-08-28T08:18:25Z</time>
      </trkpt>
      <trkpt lat="44.53165" lon="2.80043">
        <ele>484</ele>
        <time>2021-08-28T08:19:27Z</time>
      </trkpt>
      <trkpt lat="44.53099" lon="2.80106">
        <ele>482</ele>
        <time>2021-08-28T08:19:45Z</time>
      </trkpt>
      <trkpt lat="44.53088" lon="2.80111">
        <ele>481</ele>
        <time>2021-08-28T08:19:47Z</time>
      </trkpt>
      <trkpt lat="44.53075" lon="2.8011">
        <ele>480</ele>
        <time>2021-08-28T08:19:49Z</time>
      </trkpt>
      <trkpt lat="44.53049" lon="2.80098">
        <ele>479</ele>
        <time>2021-08-28T08:19:53Z</time>
      </trkpt>
      <trkpt lat="44.53038" lon="2.80089">
        <ele>479</ele>
        <time>2021-08-28T08:19:55Z</time>
      </trkpt>
      <trkpt lat="44.53029" lon="2.80075">
        <ele>479</ele>
        <time>2021-08-28T08:19:57Z</time>
      </trkpt>
      <trkpt lat="44.53014" lon="2.80044">
        <ele>479</ele>
        <time>2021-08-28T08:20:02Z</time>
      </trkpt>
      <trkpt lat="44.53004" lon="2.80031">
        <ele>480</ele>
        <time>2021-08-28T08:20:05Z</time>
      </trkpt>
      <trkpt lat="44.53001" lon="2.80027">
        <ele>480</ele>
        <time>2021-08-28T08:20:06Z</time>
      </trkpt>
      <trkpt lat="44.52909" lon="2.7998">
        <ele>480</ele>
        <time>2021-08-28T08:20:28Z</time>
      </trkpt>
      <trkpt lat="44.52892" lon="2.79966">
        <ele>479</ele>
        <time>2021-08-28T08:20:32Z</time>
      </trkpt>
      <trkpt lat="44.5288" lon="2.79948">
        <ele>479</ele>
        <time>2021-08-28T08:20:36Z</time>
      </trkpt>
      <trkpt lat="44.52786" lon="2.79886">
        <ele>470</ele>
        <time>2021-08-28T08:20:53Z</time>
      </trkpt>
      <trkpt lat="44.52773" lon="2.79866">
        <ele>469</ele>
        <time>2021-08-28T08:20:56Z</time>
      </trkpt>
      <trkpt lat="44.52764" lon="2.79843">
        <ele>467</ele>
        <time>2021-08-28T08:20:59Z</time>
      </trkpt>
      <trkpt lat="44.52761" lon="2.79836">
        <ele>466</ele>
        <time>2021-08-28T08:21:00Z</time>
      </trkpt>
      <trkpt lat="44.52756" lon="2.79831">
        <ele>465</ele>
        <time>2021-08-28T08:21:01Z</time>
      </trkpt>
      <trkpt lat="44.52751" lon="2.79829">
        <ele>464</ele>
        <time>2021-08-28T08:21:02Z</time>
      </trkpt>
      <trkpt lat="44.52737" lon="2.79827">
        <ele>463</ele>
        <time>2021-08-28T08:21:04Z</time>
      </trkpt>
      <trkpt lat="44.52717" lon="2.79836">
        <ele>463</ele>
        <time>2021-08-28T08:21:09Z</time>
      </trkpt>
      <trkpt lat="44.52709" lon="2.79836">
        <ele>463</ele>
        <time>2021-08-28T08:21:11Z</time>
      </trkpt>
      <trkpt lat="44.52657" lon="2.79807">
        <ele>458</ele>
        <time>2021-08-28T08:21:22Z</time>
      </trkpt>
      <trkpt lat="44.52573" lon="2.79743">
        <ele>451</ele>
        <time>2021-08-28T08:21:34Z</time>
      </trkpt>
      <trkpt lat="44.52559" lon="2.7974">
        <ele>451</ele>
        <time>2021-08-28T08:21:36Z</time>
      </trkpt>
      <trkpt lat="44.52519" lon="2.79745">
        <ele>450</ele>
        <time>2021-08-28T08:21:42Z</time>
      </trkpt>
      <trkpt lat="44.52507" lon="2.79742">
        <ele>449</ele>
        <time>2021-08-28T08:21:44Z</time>
      </trkpt>
      <trkpt lat="44.52496" lon="2.79735">
        <ele>449</ele>
        <time>2021-08-28T08:21:46Z</time>
      </trkpt>
      <trkpt lat="44.52422" lon="2.79663">
        <ele>440</ele>
        <time>2021-08-28T08:21:59Z</time>
      </trkpt>
      <trkpt lat="44.52415" lon="2.79658">
        <ele>440</ele>
        <time>2021-08-28T08:22:00Z</time>
      </trkpt>
      <trkpt lat="44.52392" lon="2.79654">
        <ele>441</ele>
        <time>2021-08-28T08:22:03Z</time>
      </trkpt>
      <trkpt lat="44.52372" lon="2.79658">
        <ele>441</ele>
        <time>2021-08-28T08:22:06Z</time>
      </trkpt>
      <trkpt lat="44.52353" lon="2.79654">
        <ele>439</ele>
        <time>2021-08-28T08:22:09Z</time>
      </trkpt>
      <trkpt lat="44.52347" lon="2.79651">
        <ele>438</ele>
        <time>2021-08-28T08:22:10Z</time>
      </trkpt>
      <trkpt lat="44.52332" lon="2.79635">
        <ele>436</ele>
        <time>2021-08-28T08:22:13Z</time>
      </trkpt>
      <trkpt lat="44.52284" lon="2.79527">
        <ele>427</ele>
        <time>2021-08-28T08:22:26Z</time>
      </trkpt>
      <trkpt lat="44.52264" lon="2.79478">
        <ele>423</ele>
        <time>2021-08-28T08:22:31Z</time>
      </trkpt>
      <trkpt lat="44.52253" lon="2.79461">
        <ele>422</ele>
        <time>2021-08-28T08:22:33Z</time>
      </trkpt>
      <trkpt lat="44.52219" lon="2.79431">
        <ele>420</ele>
        <time>2021-08-28T08:22:38Z</time>
      </trkpt>
      <trkpt lat="44.52206" lon="2.79422">
        <ele>420</ele>
        <time>2021-08-28T08:22:40Z</time>
      </trkpt>
      <trkpt lat="44.52193" lon="2.7942">
        <ele>421</ele>
        <time>2021-08-28T08:22:42Z</time>
      </trkpt>
      <trkpt lat="44.52144" lon="2.79436">
        <ele>420</ele>
        <time>2021-08-28T08:22:50Z</time>
      </trkpt>
      <trkpt lat="44.52139" lon="2.79439">
        <ele>420</ele>
        <time>2021-08-28T08:22:51Z</time>
      </trkpt>
      <trkpt lat="44.52115" lon="2.79445">
        <ele>418</ele>
        <time>2021-08-28T08:22:55Z</time>
      </trkpt>
      <trkpt lat="44.52102" lon="2.79445">
        <ele>418</ele>
        <time>2021-08-28T08:22:57Z</time>
      </trkpt>
      <trkpt lat="44.52013" lon="2.79386">
        <ele>411</ele>
        <time>2021-08-28T08:23:10Z</time>
      </trkpt>
      <trkpt lat="44.52008" lon="2.79381">
        <ele>410</ele>
        <time>2021-08-28T08:23:11Z</time>
      </trkpt>
      <trkpt lat="44.52" lon="2.79368">
        <ele>408</ele>
        <time>2021-08-28T08:23:13Z</time>
      </trkpt>
      <trkpt lat="44.51998" lon="2.79361">
        <ele>408</ele>
        <time>2021-08-28T08:23:14Z</time>
      </trkpt>
      <trkpt lat="44.51996" lon="2.79329">
        <ele>407</ele>
        <time>2021-08-28T08:23:18Z</time>
      </trkpt>
      <trkpt lat="44.51994" lon="2.79323">
        <ele>407</ele>
        <time>2021-08-28T08:23:19Z</time>
      </trkpt>
      <trkpt lat="44.5199" lon="2.79318">
        <ele>407</ele>
        <time>2021-08-28T08:23:21Z</time>
      </trkpt>
      <trkpt lat="44.51979" lon="2.79319">
        <ele>407</ele>
        <time>2021-08-28T08:23:26Z</time>
      </trkpt>
      <trkpt lat="44.51975" lon="2.79325">
        <ele>407</ele>
        <time>2021-08-28T08:23:29Z</time>
      </trkpt>
      <trkpt lat="44.51974" lon="2.79332">
        <ele>410</ele>
        <time>2021-08-28T08:24:17Z</time>
      </trkpt>
      <trkpt lat="44.51973" lon="2.79346">
        <ele>409</ele>
        <time>2021-08-28T08:24:21Z</time>
      </trkpt>
      <trkpt lat="44.51973" lon="2.79355">
        <ele>409</ele>
        <time>2021-08-28T08:24:23Z</time>
      </trkpt>
      <trkpt lat="44.51978" lon="2.79372">
        <ele>408</ele>
        <time>2021-08-28T08:24:27Z</time>
      </trkpt>
      <trkpt lat="44.51982" lon="2.7938">
        <ele>405</ele>
        <time>2021-08-28T08:24:29Z</time>
      </trkpt>
      <trkpt lat="44.51996" lon="2.79409">
        <ele>399</ele>
        <time>2021-08-28T08:24:34Z</time>
      </trkpt>
      <trkpt lat="44.52013" lon="2.79438">
        <ele>393</ele>
        <time>2021-08-28T08:24:39Z</time>
      </trkpt>
      <trkpt lat="44.52017" lon="2.79443">
        <ele>392</ele>
        <time>2021-08-28T08:24:40Z</time>
      </trkpt>
      <trkpt lat="44.52026" lon="2.79462">
        <ele>387</ele>
        <time>2021-08-28T08:24:43Z</time>
      </trkpt>
      <trkpt lat="44.5204" lon="2.79489">
        <ele>380</ele>
        <time>2021-08-28T08:24:47Z</time>
      </trkpt>
      <trkpt lat="44.52065" lon="2.79516">
        <ele>375</ele>
        <time>2021-08-28T08:24:51Z</time>
      </trkpt>
      <trkpt lat="44.52134" lon="2.79562">
        <ele>369</ele>
        <time>2021-08-28T08:25:01Z</time>
      </trkpt>
      <trkpt lat="44.52155" lon="2.79586">
        <ele>371</ele>
        <time>2021-08-28T08:25:04Z</time>
      </trkpt>
      <trkpt lat="44.52172" lon="2.79613">
        <ele>371</ele>
        <time>2021-08-28T08:25:07Z</time>
      </trkpt>
      <trkpt lat="44.52207" lon="2.79754">
        <ele>368</ele>
        <time>2021-08-28T08:25:20Z</time>
      </trkpt>
      <trkpt lat="44.52217" lon="2.79854">
        <ele>363</ele>
        <time>2021-08-28T08:25:29Z</time>
      </trkpt>
      <trkpt lat="44.52228" lon="2.79896">
        <ele>361</ele>
        <time>2021-08-28T08:25:33Z</time>
      </trkpt>
      <trkpt lat="44.52233" lon="2.79944">
        <ele>359</ele>
        <time>2021-08-28T08:25:37Z</time>
      </trkpt>
      <trkpt lat="44.52232" lon="2.79966">
        <ele>359</ele>
        <time>2021-08-28T08:25:39Z</time>
      </trkpt>
      <trkpt lat="44.52228" lon="2.79987">
        <ele>359</ele>
        <time>2021-08-28T08:25:41Z</time>
      </trkpt>
      <trkpt lat="44.52224" lon="2.79994">
        <ele>359</ele>
        <time>2021-08-28T08:25:42Z</time>
      </trkpt>
      <trkpt lat="44.52214" lon="2.8">
        <ele>359</ele>
        <time>2021-08-28T08:25:44Z</time>
      </trkpt>
      <trkpt lat="44.52114" lon="2.80007">
        <ele>369</ele>
        <time>2021-08-28T08:26:16Z</time>
      </trkpt>
      <trkpt lat="44.52088" lon="2.8001">
        <ele>371</ele>
        <time>2021-08-28T08:26:24Z</time>
      </trkpt>
      <trkpt lat="44.52043" lon="2.80004">
        <ele>371</ele>
        <time>2021-08-28T08:26:32Z</time>
      </trkpt>
      <trkpt lat="44.51989" lon="2.79981">
        <ele>370</ele>
        <time>2021-08-28T08:26:42Z</time>
      </trkpt>
      <trkpt lat="44.51977" lon="2.79982">
        <ele>370</ele>
        <time>2021-08-28T08:26:45Z</time>
      </trkpt>
      <trkpt lat="44.51962" lon="2.79985">
        <ele>370</ele>
        <time>2021-08-28T08:26:49Z</time>
      </trkpt>
      <trkpt lat="44.51955" lon="2.79985">
        <ele>370</ele>
        <time>2021-08-28T08:26:51Z</time>
      </trkpt>
      <trkpt lat="44.51836" lon="2.79907">
        <ele>368</ele>
        <time>2021-08-28T08:27:16Z</time>
      </trkpt>
      <trkpt lat="44.5166" lon="2.79812">
        <ele>364</ele>
        <time>2021-08-28T08:27:46Z</time>
      </trkpt>
      <trkpt lat="44.51616" lon="2.79808">
        <ele>362</ele>
        <time>2021-08-28T08:27:58Z</time>
      </trkpt>
      <trkpt lat="44.51612" lon="2.79804">
        <ele>361</ele>
        <time>2021-08-28T08:29:00Z</time>
      </trkpt>
      <trkpt lat="44.51608" lon="2.79809">
        <ele>361</ele>
        <time>2021-08-28T08:29:08Z</time>
      </trkpt>
      <trkpt lat="44.51604" lon="2.79813">
        <ele>360</ele>
        <time>2021-08-28T08:31:23Z</time>
      </trkpt>
      <trkpt lat="44.516" lon="2.79817">
        <ele>360</ele>
        <time>2021-08-28T08:31:26Z</time>
      </trkpt>
      <trkpt lat="44.51603" lon="2.79949">
        <ele>359</ele>
        <time>2021-08-28T08:31:52Z</time>
      </trkpt>
      <trkpt lat="44.5157" lon="2.80142">
        <ele>358</ele>
        <time>2021-08-28T08:32:22Z</time>
      </trkpt>
      <trkpt lat="44.51561" lon="2.80216">
        <ele>358</ele>
        <time>2021-08-28T08:32:33Z</time>
      </trkpt>
      <trkpt lat="44.51561" lon="2.80293">
        <ele>357</ele>
        <time>2021-08-28T08:32:44Z</time>
      </trkpt>
      <trkpt lat="44.5157" lon="2.80347">
        <ele>357</ele>
        <time>2021-08-28T08:32:52Z</time>
      </trkpt>
      <trkpt lat="44.51641" lon="2.80542">
        <ele>359</ele>
        <time>2021-08-28T08:33:22Z</time>
      </trkpt>
      <trkpt lat="44.51664" lon="2.80634">
        <ele>360</ele>
        <time>2021-08-28T08:33:36Z</time>
      </trkpt>
      <trkpt lat="44.51671" lon="2.80725">
        <ele>360</ele>
        <time>2021-08-28T08:33:49Z</time>
      </trkpt>
      <trkpt lat="44.51665" lon="2.80829">
        <ele>361</ele>
        <time>2021-08-28T08:34:04Z</time>
      </trkpt>
      <trkpt lat="44.51632" lon="2.81036">
        <ele>364</ele>
        <time>2021-08-28T08:34:35Z</time>
      </trkpt>
      <trkpt lat="44.51601" lon="2.81227">
        <ele>364</ele>
        <time>2021-08-28T08:35:05Z</time>
      </trkpt>
      <trkpt lat="44.51571" lon="2.81388">
        <ele>360</ele>
        <time>2021-08-28T08:35:32Z</time>
      </trkpt>
      <trkpt lat="44.51569" lon="2.81396">
        <ele>358</ele>
        <time>2021-08-28T08:35:34Z</time>
      </trkpt>
      <trkpt lat="44.51568" lon="2.81403">
        <ele>358</ele>
        <time>2021-08-28T08:35:36Z</time>
      </trkpt>
      <trkpt lat="44.51566" lon="2.81408">
        <ele>357</ele>
        <time>2021-08-28T08:35:40Z</time>
      </trkpt>
      <trkpt lat="44.51561" lon="2.81411">
        <ele>356</ele>
        <time>2021-08-28T08:35:45Z</time>
      </trkpt>
      <trkpt lat="44.51559" lon="2.81418">
        <ele>357</ele>
        <time>2021-08-28T08:36:32Z</time>
      </trkpt>
      <trkpt lat="44.51546" lon="2.81421">
        <ele>361</ele>
        <time>2021-08-28T08:36:40Z</time>
      </trkpt>
      <trkpt lat="44.51539" lon="2.8142">
        <ele>364</ele>
        <time>2021-08-28T08:36:44Z</time>
      </trkpt>
      <trkpt lat="44.51523" lon="2.81414">
        <ele>368</ele>
        <time>2021-08-28T08:36:52Z</time>
      </trkpt>
      <trkpt lat="44.51518" lon="2.81412">
        <ele>368</ele>
        <time>2021-08-28T08:36:54Z</time>
      </trkpt>
      <trkpt lat="44.51513" lon="2.81411">
        <ele>369</ele>
        <time>2021-08-28T08:36:57Z</time>
      </trkpt>
      <trkpt lat="44.51508" lon="2.81413">
        <ele>370</ele>
        <time>2021-08-28T08:37:05Z</time>
      </trkpt>
      <trkpt lat="44.51504" lon="2.81419">
        <ele>369</ele>
        <time>2021-08-28T08:37:08Z</time>
      </trkpt>
      <trkpt lat="44.51511" lon="2.81421">
        <ele>370</ele>
        <time>2021-08-28T08:37:14Z</time>
      </trkpt>
      <trkpt lat="44.51514" lon="2.81446">
        <ele>368</ele>
        <time>2021-08-28T08:37:46Z</time>
      </trkpt>
      <trkpt lat="44.51513" lon="2.8146">
        <ele>368</ele>
        <time>2021-08-28T08:37:55Z</time>
      </trkpt>
      <trkpt lat="44.51512" lon="2.81469">
        <ele>367</ele>
        <time>2021-08-28T08:38:05Z</time>
      </trkpt>
      <trkpt lat="44.51512" lon="2.81476">
        <ele>369</ele>
        <time>2021-08-28T08:38:15Z</time>
      </trkpt>
      <trkpt lat="44.51516" lon="2.81481">
        <ele>370</ele>
        <time>2021-08-28T08:38:24Z</time>
      </trkpt>
      <trkpt lat="44.51517" lon="2.81487">
        <ele>372</ele>
        <time>2021-08-28T08:38:30Z</time>
      </trkpt>
      <trkpt lat="44.51519" lon="2.81494">
        <ele>372</ele>
        <time>2021-08-28T08:38:34Z</time>
      </trkpt>
      <trkpt lat="44.51519" lon="2.81503">
        <ele>372</ele>
        <time>2021-08-28T08:39:30Z</time>
      </trkpt>
      <trkpt lat="44.51516" lon="2.81499">
        <ele>375</ele>
        <time>2021-08-28T08:44:07Z</time>
      </trkpt>
      <trkpt lat="44.51514" lon="2.81493">
        <ele>375</ele>
        <time>2021-08-28T08:44:12Z</time>
      </trkpt>
      <trkpt lat="44.5151" lon="2.81491">
        <ele>375</ele>
        <time>2021-08-28T08:44:25Z</time>
      </trkpt>
      <trkpt lat="44.515" lon="2.81494">
        <ele>376</ele>
        <time>2021-08-28T08:44:42Z</time>
      </trkpt>
      <trkpt lat="44.51495" lon="2.81497">
        <ele>375</ele>
        <time>2021-08-28T08:44:47Z</time>
      </trkpt>
      <trkpt lat="44.51493" lon="2.81506">
        <ele>372</ele>
        <time>2021-08-28T08:44:54Z</time>
      </trkpt>
      <trkpt lat="44.51488" lon="2.81506">
        <ele>370</ele>
        <time>2021-08-28T08:45:28Z</time>
      </trkpt>
      <trkpt lat="44.51483" lon="2.81503">
        <ele>369</ele>
        <time>2021-08-28T08:45:36Z</time>
      </trkpt>
      <trkpt lat="44.51479" lon="2.81506">
        <ele>369</ele>
        <time>2021-08-28T08:45:45Z</time>
      </trkpt>
      <trkpt lat="44.51472" lon="2.81508">
        <ele>366</ele>
        <time>2021-08-28T08:45:53Z</time>
      </trkpt>
      <trkpt lat="44.51466" lon="2.81507">
        <ele>364</ele>
        <time>2021-08-28T08:46:00Z</time>
      </trkpt>
      <trkpt lat="44.51464" lon="2.81513">
        <ele>364</ele>
        <time>2021-08-28T08:46:20Z</time>
      </trkpt>
      <trkpt lat="44.51459" lon="2.81514">
        <ele>368</ele>
        <time>2021-08-28T08:46:31Z</time>
      </trkpt>
      <trkpt lat="44.51456" lon="2.8151">
        <ele>370</ele>
        <time>2021-08-28T08:47:16Z</time>
      </trkpt>
      <trkpt lat="44.51453" lon="2.81522">
        <ele>370</ele>
        <time>2021-08-28T08:47:53Z</time>
      </trkpt>
      <trkpt lat="44.51452" lon="2.81537">
        <ele>372</ele>
        <time>2021-08-28T08:47:59Z</time>
      </trkpt>
      <trkpt lat="44.51435" lon="2.81565">
        <ele>373</ele>
        <time>2021-08-28T08:48:11Z</time>
      </trkpt>
      <trkpt lat="44.5143" lon="2.81571">
        <ele>372</ele>
        <time>2021-08-28T08:48:13Z</time>
      </trkpt>
      <trkpt lat="44.51418" lon="2.81596">
        <ele>370</ele>
        <time>2021-08-28T08:48:20Z</time>
      </trkpt>
      <trkpt lat="44.51413" lon="2.81612">
        <ele>367</ele>
        <time>2021-08-28T08:48:24Z</time>
      </trkpt>
      <trkpt lat="44.51408" lon="2.81639">
        <ele>364</ele>
        <time>2021-08-28T08:48:32Z</time>
      </trkpt>
      <trkpt lat="44.51403" lon="2.81651">
        <ele>363</ele>
        <time>2021-08-28T08:48:37Z</time>
      </trkpt>
      <trkpt lat="44.51392" lon="2.81653">
        <ele>362</ele>
        <time>2021-08-28T08:48:41Z</time>
      </trkpt>
      <trkpt lat="44.51379" lon="2.81658">
        <ele>361</ele>
        <time>2021-08-28T08:48:48Z</time>
      </trkpt>
      <trkpt lat="44.51368" lon="2.81663">
        <ele>361</ele>
        <time>2021-08-28T08:48:51Z</time>
      </trkpt>
      <trkpt lat="44.51358" lon="2.81663">
        <ele>361</ele>
        <time>2021-08-28T08:48:53Z</time>
      </trkpt>
      <trkpt lat="44.51222" lon="2.81613">
        <ele>353</ele>
        <time>2021-08-28T08:49:24Z</time>
      </trkpt>
      <trkpt lat="44.51213" lon="2.81609">
        <ele>352</ele>
        <time>2021-08-28T08:49:27Z</time>
      </trkpt>
      <trkpt lat="44.51215" lon="2.81605">
        <ele>351</ele>
        <time>2021-08-28T08:50:42Z</time>
      </trkpt>
      <trkpt lat="44.51215" lon="2.81607">
        <ele>348</ele>
        <time>2021-08-28T08:52:39Z</time>
      </trkpt>
      <trkpt lat="44.51217" lon="2.816">
        <ele>347</ele>
        <time>2021-08-28T08:53:12Z</time>
      </trkpt>
      <trkpt lat="44.5121" lon="2.81572">
        <ele>344</ele>
        <time>2021-08-28T08:53:21Z</time>
      </trkpt>
      <trkpt lat="44.51178" lon="2.81443">
        <ele>342</ele>
        <time>2021-08-28T08:53:51Z</time>
      </trkpt>
      <trkpt lat="44.51141" lon="2.81321">
        <ele>338</ele>
        <time>2021-08-28T08:54:17Z</time>
      </trkpt>
      <trkpt lat="44.5114" lon="2.81315">
        <ele>338</ele>
        <time>2021-08-28T08:54:58Z</time>
      </trkpt>
      <trkpt lat="44.51096" lon="2.81185">
        <ele>337</ele>
        <time>2021-08-28T08:55:28Z</time>
      </trkpt>
      <trkpt lat="44.51065" lon="2.81101">
        <ele>336</ele>
        <time>2021-08-28T08:55:48Z</time>
      </trkpt>
      <trkpt lat="44.51057" lon="2.81073">
        <ele>334</ele>
        <time>2021-08-28T08:55:56Z</time>
      </trkpt>
      <trkpt lat="44.51033" lon="2.80991">
        <ele>330</ele>
        <time>2021-08-28T08:56:11Z</time>
      </trkpt>
      <trkpt lat="44.51019" lon="2.80968">
        <ele>330</ele>
        <time>2021-08-28T08:56:15Z</time>
      </trkpt>
      <trkpt lat="44.50913" lon="2.80866">
        <ele>336</ele>
        <time>2021-08-28T08:56:46Z</time>
      </trkpt>
      <trkpt lat="44.50878" lon="2.80836">
        <ele>336</ele>
        <time>2021-08-28T08:56:58Z</time>
      </trkpt>
      <trkpt lat="44.50836" lon="2.80782">
        <ele>337</ele>
        <time>2021-08-28T08:57:14Z</time>
      </trkpt>
      <trkpt lat="44.50818" lon="2.80742">
        <ele>336</ele>
        <time>2021-08-28T08:57:24Z</time>
      </trkpt>
      <trkpt lat="44.50814" lon="2.80733">
        <ele>336</ele>
        <time>2021-08-28T08:57:26Z</time>
      </trkpt>
      <trkpt lat="44.50791" lon="2.80685">
        <ele>333</ele>
        <time>2021-08-28T08:57:35Z</time>
      </trkpt>
      <trkpt lat="44.5077" lon="2.80639">
        <ele>330</ele>
        <time>2021-08-28T08:57:45Z</time>
      </trkpt>
      <trkpt lat="44.50768" lon="2.80633">
        <ele>331</ele>
        <time>2021-08-28T08:57:47Z</time>
      </trkpt>
      <trkpt lat="44.5076" lon="2.80618">
        <ele>330</ele>
        <time>2021-08-28T08:57:51Z</time>
      </trkpt>
      <trkpt lat="44.50759" lon="2.80609">
        <ele>330</ele>
        <time>2021-08-28T08:57:53Z</time>
      </trkpt>
      <trkpt lat="44.50757" lon="2.80601">
        <ele>329</ele>
        <time>2021-08-28T08:57:55Z</time>
      </trkpt>
      <trkpt lat="44.50756" lon="2.80594">
        <ele>327</ele>
        <time>2021-08-28T08:57:57Z</time>
      </trkpt>
      <trkpt lat="44.50746" lon="2.80555">
        <ele>323</ele>
        <time>2021-08-28T08:58:05Z</time>
      </trkpt>
      <trkpt lat="44.50736" lon="2.80502">
        <ele>324</ele>
        <time>2021-08-28T08:58:15Z</time>
      </trkpt>
      <trkpt lat="44.50734" lon="2.8049">
        <ele>324</ele>
        <time>2021-08-28T08:58:17Z</time>
      </trkpt>
      <trkpt lat="44.50734" lon="2.80463">
        <ele>323</ele>
        <time>2021-08-28T08:58:21Z</time>
      </trkpt>
      <trkpt lat="44.50734" lon="2.80409">
        <ele>318</ele>
        <time>2021-08-28T08:58:28Z</time>
      </trkpt>
      <trkpt lat="44.50733" lon="2.80393">
        <ele>317</ele>
        <time>2021-08-28T08:58:30Z</time>
      </trkpt>
      <trkpt lat="44.50725" lon="2.80358">
        <ele>322</ele>
        <time>2021-08-28T08:58:34Z</time>
      </trkpt>
      <trkpt lat="44.50691" lon="2.80294">
        <ele>332</ele>
        <time>2021-08-28T08:58:47Z</time>
      </trkpt>
      <trkpt lat="44.50686" lon="2.80288">
        <ele>332</ele>
        <time>2021-08-28T08:58:49Z</time>
      </trkpt>
      <trkpt lat="44.50679" lon="2.80273">
        <ele>333</ele>
        <time>2021-08-28T08:58:53Z</time>
      </trkpt>
      <trkpt lat="44.50676" lon="2.80262">
        <ele>334</ele>
        <time>2021-08-28T08:58:56Z</time>
      </trkpt>
      <trkpt lat="44.50678" lon="2.80219">
        <ele>340</ele>
        <time>2021-08-28T08:59:06Z</time>
      </trkpt>
      <trkpt lat="44.50701" lon="2.80173">
        <ele>346</ele>
        <time>2021-08-28T08:59:18Z</time>
      </trkpt>
      <trkpt lat="44.50709" lon="2.80135">
        <ele>346</ele>
        <time>2021-08-28T08:59:26Z</time>
      </trkpt>
      <trkpt lat="44.50714" lon="2.80088">
        <ele>341</ele>
        <time>2021-08-28T08:59:36Z</time>
      </trkpt>
      <trkpt lat="44.50714" lon="2.80061">
        <ele>338</ele>
        <time>2021-08-28T08:59:42Z</time>
      </trkpt>
      <trkpt lat="44.50712" lon="2.79978">
        <ele>339</ele>
        <time>2021-08-28T08:59:56Z</time>
      </trkpt>
      <trkpt lat="44.50713" lon="2.79854">
        <ele>343</ele>
        <time>2021-08-28T09:00:20Z</time>
      </trkpt>
      <trkpt lat="44.50737" lon="2.79738">
        <ele>340</ele>
        <time>2021-08-28T09:00:46Z</time>
      </trkpt>
      <trkpt lat="44.50737" lon="2.79729">
        <ele>340</ele>
        <time>2021-08-28T09:00:48Z</time>
      </trkpt>
      <trkpt lat="44.50737" lon="2.7972">
        <ele>338</ele>
        <time>2021-08-28T09:00:50Z</time>
      </trkpt>
      <trkpt lat="44.50744" lon="2.7969">
        <ele>335</ele>
        <time>2021-08-28T09:00:56Z</time>
      </trkpt>
      <trkpt lat="44.50758" lon="2.79659">
        <ele>332</ele>
        <time>2021-08-28T09:01:02Z</time>
      </trkpt>
      <trkpt lat="44.50761" lon="2.79651">
        <ele>331</ele>
        <time>2021-08-28T09:01:04Z</time>
      </trkpt>
      <trkpt lat="44.5077" lon="2.79633">
        <ele>331</ele>
        <time>2021-08-28T09:01:08Z</time>
      </trkpt>
      <trkpt lat="44.50775" lon="2.79622">
        <ele>330</ele>
        <time>2021-08-28T09:01:10Z</time>
      </trkpt>
      <trkpt lat="44.5078" lon="2.79586">
        <ele>328</ele>
        <time>2021-08-28T09:01:16Z</time>
      </trkpt>
      <trkpt lat="44.50829" lon="2.79468">
        <ele>333</ele>
        <time>2021-08-28T09:01:35Z</time>
      </trkpt>
      <trkpt lat="44.50831" lon="2.7946">
        <ele>334</ele>
        <time>2021-08-28T09:01:37Z</time>
      </trkpt>
      <trkpt lat="44.50837" lon="2.79442">
        <ele>336</ele>
        <time>2021-08-28T09:01:41Z</time>
      </trkpt>
      <trkpt lat="44.50846" lon="2.79373">
        <ele>337</ele>
        <time>2021-08-28T09:01:57Z</time>
      </trkpt>
      <trkpt lat="44.50856" lon="2.79329">
        <ele>337</ele>
        <time>2021-08-28T09:02:07Z</time>
      </trkpt>
      <trkpt lat="44.50882" lon="2.79283">
        <ele>337</ele>
        <time>2021-08-28T09:02:17Z</time>
      </trkpt>
      <trkpt lat="44.50931" lon="2.79233">
        <ele>339</ele>
        <time>2021-08-28T09:02:28Z</time>
      </trkpt>
      <trkpt lat="44.50974" lon="2.79181">
        <ele>337</ele>
        <time>2021-08-28T09:02:37Z</time>
      </trkpt>
      <trkpt lat="44.51037" lon="2.79128">
        <ele>344</ele>
        <time>2021-08-28T09:02:49Z</time>
      </trkpt>
      <trkpt lat="44.51099" lon="2.79019">
        <ele>349</ele>
        <time>2021-08-28T09:03:05Z</time>
      </trkpt>
      <trkpt lat="44.51116" lon="2.78964">
        <ele>344</ele>
        <time>2021-08-28T09:03:11Z</time>
      </trkpt>
      <trkpt lat="44.51125" lon="2.78949">
        <ele>345</ele>
        <time>2021-08-28T09:03:13Z</time>
      </trkpt>
      <trkpt lat="44.51136" lon="2.78936">
        <ele>344</ele>
        <time>2021-08-28T09:03:15Z</time>
      </trkpt>
      <trkpt lat="44.5115" lon="2.78928">
        <ele>345</ele>
        <time>2021-08-28T09:03:17Z</time>
      </trkpt>
      <trkpt lat="44.51203" lon="2.78923">
        <ele>349</ele>
        <time>2021-08-28T09:03:24Z</time>
      </trkpt>
      <trkpt lat="44.51226" lon="2.78911">
        <ele>349</ele>
        <time>2021-08-28T09:03:28Z</time>
      </trkpt>
      <trkpt lat="44.51262" lon="2.78881">
        <ele>348</ele>
        <time>2021-08-28T09:03:35Z</time>
      </trkpt>
      <trkpt lat="44.51342" lon="2.78791">
        <ele>345</ele>
        <time>2021-08-28T09:03:54Z</time>
      </trkpt>
      <trkpt lat="44.51371" lon="2.78774">
        <ele>344</ele>
        <time>2021-08-28T09:04:01Z</time>
      </trkpt>
      <trkpt lat="44.51414" lon="2.78763">
        <ele>343</ele>
        <time>2021-08-28T09:04:10Z</time>
      </trkpt>
      <trkpt lat="44.51422" lon="2.78764">
        <ele>343</ele>
        <time>2021-08-28T09:04:12Z</time>
      </trkpt>
      <trkpt lat="44.51539" lon="2.78723">
        <ele>342</ele>
        <time>2021-08-28T09:04:42Z</time>
      </trkpt>
      <trkpt lat="44.51567" lon="2.78707">
        <ele>341</ele>
        <time>2021-08-28T09:05:51Z</time>
      </trkpt>
      <trkpt lat="44.51653" lon="2.78642">
        <ele>340</ele>
        <time>2021-08-28T09:06:22Z</time>
      </trkpt>
      <trkpt lat="44.51658" lon="2.78637">
        <ele>340</ele>
        <time>2021-08-28T09:06:24Z</time>
      </trkpt>
      <trkpt lat="44.51676" lon="2.7859">
        <ele>340</ele>
        <time>2021-08-28T09:06:34Z</time>
      </trkpt>
      <trkpt lat="44.51686" lon="2.78548">
        <ele>338</ele>
        <time>2021-08-28T09:06:42Z</time>
      </trkpt>
      <trkpt lat="44.51709" lon="2.78409">
        <ele>329</ele>
        <time>2021-08-28T09:07:07Z</time>
      </trkpt>
      <trkpt lat="44.51711" lon="2.784">
        <ele>327</ele>
        <time>2021-08-28T09:07:09Z</time>
      </trkpt>
      <trkpt lat="44.51713" lon="2.78392">
        <ele>326</ele>
        <time>2021-08-28T09:07:11Z</time>
      </trkpt>
      <trkpt lat="44.51712" lon="2.78382">
        <ele>324</ele>
        <time>2021-08-28T09:07:13Z</time>
      </trkpt>
      <trkpt lat="44.51712" lon="2.78373">
        <ele>323</ele>
        <time>2021-08-28T09:07:15Z</time>
      </trkpt>
      <trkpt lat="44.51713" lon="2.78363">
        <ele>322</ele>
        <time>2021-08-28T09:07:17Z</time>
      </trkpt>
      <trkpt lat="44.51723" lon="2.78334">
        <ele>322</ele>
        <time>2021-08-28T09:07:23Z</time>
      </trkpt>
      <trkpt lat="44.51724" lon="2.78324">
        <ele>321</ele>
        <time>2021-08-28T09:07:25Z</time>
      </trkpt>
      <trkpt lat="44.51733" lon="2.78296">
        <ele>320</ele>
        <time>2021-08-28T09:07:31Z</time>
      </trkpt>
      <trkpt lat="44.51741" lon="2.78276">
        <ele>319</ele>
        <time>2021-08-28T09:07:35Z</time>
      </trkpt>
      <trkpt lat="44.51743" lon="2.78267">
        <ele>318</ele>
        <time>2021-08-28T09:07:37Z</time>
      </trkpt>
      <trkpt lat="44.51747" lon="2.78257">
        <ele>317</ele>
        <time>2021-08-28T09:07:39Z</time>
      </trkpt>
      <trkpt lat="44.51754" lon="2.78238">
        <ele>316</ele>
        <time>2021-08-28T09:07:43Z</time>
      </trkpt>
      <trkpt lat="44.51756" lon="2.78229">
        <ele>315</ele>
        <time>2021-08-28T09:07:45Z</time>
      </trkpt>
      <trkpt lat="44.51756" lon="2.7822">
        <ele>314</ele>
        <time>2021-08-28T09:07:47Z</time>
      </trkpt>
      <trkpt lat="44.51759" lon="2.78211">
        <ele>313</ele>
        <time>2021-08-28T09:07:49Z</time>
      </trkpt>
      <trkpt lat="44.51763" lon="2.78201">
        <ele>311</ele>
        <time>2021-08-28T09:07:51Z</time>
      </trkpt>
      <trkpt lat="44.51769" lon="2.78167">
        <ele>309</ele>
        <time>2021-08-28T09:07:57Z</time>
      </trkpt>
      <trkpt lat="44.51772" lon="2.78156">
        <ele>310</ele>
        <time>2021-08-28T09:07:59Z</time>
      </trkpt>
      <trkpt lat="44.51788" lon="2.78129">
        <ele>309</ele>
        <time>2021-08-28T09:08:04Z</time>
      </trkpt>
      <trkpt lat="44.51792" lon="2.78119">
        <ele>310</ele>
        <time>2021-08-28T09:08:06Z</time>
      </trkpt>
      <trkpt lat="44.51796" lon="2.78108">
        <ele>312</ele>
        <time>2021-08-28T09:08:08Z</time>
      </trkpt>
      <trkpt lat="44.51805" lon="2.78095">
        <ele>312</ele>
        <time>2021-08-28T09:08:11Z</time>
      </trkpt>
      <trkpt lat="44.51808" lon="2.78084">
        <ele>311</ele>
        <time>2021-08-28T09:08:13Z</time>
      </trkpt>
      <trkpt lat="44.5183" lon="2.78029">
        <ele>306</ele>
        <time>2021-08-28T09:08:23Z</time>
      </trkpt>
      <trkpt lat="44.51839" lon="2.78011">
        <ele>303</ele>
        <time>2021-08-28T09:08:27Z</time>
      </trkpt>
      <trkpt lat="44.5189" lon="2.77899">
        <ele>298</ele>
        <time>2021-08-28T09:08:57Z</time>
      </trkpt>
      <trkpt lat="44.51892" lon="2.7789">
        <ele>298</ele>
        <time>2021-08-28T09:09:00Z</time>
      </trkpt>
      <trkpt lat="44.5191" lon="2.77844">
        <ele>295</ele>
        <time>2021-08-28T09:09:13Z</time>
      </trkpt>
      <trkpt lat="44.51948" lon="2.7774">
        <ele>302</ele>
        <time>2021-08-28T09:09:35Z</time>
      </trkpt>
      <trkpt lat="44.5197" lon="2.77692">
        <ele>303</ele>
        <time>2021-08-28T09:09:45Z</time>
      </trkpt>
      <trkpt lat="44.52006" lon="2.77604">
        <ele>304</ele>
        <time>2021-08-28T09:10:03Z</time>
      </trkpt>
      <trkpt lat="44.52089" lon="2.77454">
        <ele>310</ele>
        <time>2021-08-28T09:10:35Z</time>
      </trkpt>
      <trkpt lat="44.52116" lon="2.77376">
        <ele>315</ele>
        <time>2021-08-28T09:10:51Z</time>
      </trkpt>
      <trkpt lat="44.5213" lon="2.77326">
        <ele>316</ele>
        <time>2021-08-28T09:11:03Z</time>
      </trkpt>
      <trkpt lat="44.5213" lon="2.77319">
        <ele>317</ele>
        <time>2021-08-28T09:11:06Z</time>
      </trkpt>
      <trkpt lat="44.52132" lon="2.77313">
        <ele>319</ele>
        <time>2021-08-28T09:11:13Z</time>
      </trkpt>
      <trkpt lat="44.52136" lon="2.7731">
        <ele>320</ele>
        <time>2021-08-28T09:11:17Z</time>
      </trkpt>
      <trkpt lat="44.52139" lon="2.77316">
        <ele>321</ele>
        <time>2021-08-28T09:11:24Z</time>
      </trkpt>
      <trkpt lat="44.52144" lon="2.77318">
        <ele>324</ele>
        <time>2021-08-28T09:11:27Z</time>
      </trkpt>
      <trkpt lat="44.52182" lon="2.77305">
        <ele>324</ele>
        <time>2021-08-28T09:11:39Z</time>
      </trkpt>
      <trkpt lat="44.52188" lon="2.77301">
        <ele>324</ele>
        <time>2021-08-28T09:11:41Z</time>
      </trkpt>
      <trkpt lat="44.52194" lon="2.77296">
        <ele>323</ele>
        <time>2021-08-28T09:11:43Z</time>
      </trkpt>
      <trkpt lat="44.52205" lon="2.77278">
        <ele>325</ele>
        <time>2021-08-28T09:11:49Z</time>
      </trkpt>
      <trkpt lat="44.52256" lon="2.77214">
        <ele>324</ele>
        <time>2021-08-28T09:12:11Z</time>
      </trkpt>
      <trkpt lat="44.52266" lon="2.77188">
        <ele>323</ele>
        <time>2021-08-28T09:12:16Z</time>
      </trkpt>
      <trkpt lat="44.52269" lon="2.77178">
        <ele>322</ele>
        <time>2021-08-28T09:12:18Z</time>
      </trkpt>
      <trkpt lat="44.52272" lon="2.77168">
        <ele>319</ele>
        <time>2021-08-28T09:12:20Z</time>
      </trkpt>
      <trkpt lat="44.52275" lon="2.7715">
        <ele>317</ele>
        <time>2021-08-28T09:12:24Z</time>
      </trkpt>
      <trkpt lat="44.52278" lon="2.77142">
        <ele>314</ele>
        <time>2021-08-28T09:12:26Z</time>
      </trkpt>
      <trkpt lat="44.52281" lon="2.77134">
        <ele>313</ele>
        <time>2021-08-28T09:12:28Z</time>
      </trkpt>
      <trkpt lat="44.52281" lon="2.77123">
        <ele>313</ele>
        <time>2021-08-28T09:12:30Z</time>
      </trkpt>
      <trkpt lat="44.5228" lon="2.77111">
        <ele>313</ele>
        <time>2021-08-28T09:12:32Z</time>
      </trkpt>
      <trkpt lat="44.52265" lon="2.76976">
        <ele>317</ele>
        <time>2021-08-28T09:13:00Z</time>
      </trkpt>
      <trkpt lat="44.52261" lon="2.7695">
        <ele>315</ele>
        <time>2021-08-28T09:13:07Z</time>
      </trkpt>
      <trkpt lat="44.52259" lon="2.76944">
        <ele>316</ele>
        <time>2021-08-28T09:13:09Z</time>
      </trkpt>
      <trkpt lat="44.52257" lon="2.76937">
        <ele>315</ele>
        <time>2021-08-28T09:13:11Z</time>
      </trkpt>
      <trkpt lat="44.52251" lon="2.76915">
        <ele>317</ele>
        <time>2021-08-28T09:13:17Z</time>
      </trkpt>
      <trkpt lat="44.52245" lon="2.769">
        <ele>318</ele>
        <time>2021-08-28T09:13:22Z</time>
      </trkpt>
      <trkpt lat="44.52227" lon="2.76845">
        <ele>322</ele>
        <time>2021-08-28T09:13:36Z</time>
      </trkpt>
      <trkpt lat="44.52225" lon="2.76838">
        <ele>322</ele>
        <time>2021-08-28T09:13:38Z</time>
      </trkpt>
      <trkpt lat="44.52221" lon="2.7683">
        <ele>322</ele>
        <time>2021-08-28T09:13:40Z</time>
      </trkpt>
      <trkpt lat="44.52216" lon="2.76822">
        <ele>323</ele>
        <time>2021-08-28T09:13:42Z</time>
      </trkpt>
      <trkpt lat="44.52208" lon="2.76809">
        <ele>325</ele>
        <time>2021-08-28T09:13:46Z</time>
      </trkpt>
      <trkpt lat="44.52207" lon="2.76803">
        <ele>326</ele>
        <time>2021-08-28T09:13:48Z</time>
      </trkpt>
      <trkpt lat="44.52203" lon="2.76798">
        <ele>326</ele>
        <time>2021-08-28T09:13:51Z</time>
      </trkpt>
      <trkpt lat="44.522" lon="2.76793">
        <ele>327</ele>
        <time>2021-08-28T09:13:53Z</time>
      </trkpt>
      <trkpt lat="44.52196" lon="2.76787">
        <ele>327</ele>
        <time>2021-08-28T09:13:55Z</time>
      </trkpt>
      <trkpt lat="44.52193" lon="2.7678">
        <ele>327</ele>
        <time>2021-08-28T09:13:57Z</time>
      </trkpt>
      <trkpt lat="44.52189" lon="2.76774">
        <ele>327</ele>
        <time>2021-08-28T09:13:59Z</time>
      </trkpt>
      <trkpt lat="44.52184" lon="2.76769">
        <ele>327</ele>
        <time>2021-08-28T09:14:01Z</time>
      </trkpt>
      <trkpt lat="44.52179" lon="2.76764">
        <ele>327</ele>
        <time>2021-08-28T09:14:04Z</time>
      </trkpt>
      <trkpt lat="44.5217" lon="2.76744">
        <ele>326</ele>
        <time>2021-08-28T09:14:11Z</time>
      </trkpt>
      <trkpt lat="44.52168" lon="2.76738">
        <ele>326</ele>
        <time>2021-08-28T09:14:13Z</time>
      </trkpt>
      <trkpt lat="44.52164" lon="2.76724">
        <ele>326</ele>
        <time>2021-08-28T09:14:17Z</time>
      </trkpt>
      <trkpt lat="44.52163" lon="2.76718">
        <ele>326</ele>
        <time>2021-08-28T09:14:19Z</time>
      </trkpt>
      <trkpt lat="44.52159" lon="2.76698">
        <ele>325</ele>
        <time>2021-08-28T09:14:25Z</time>
      </trkpt>
      <trkpt lat="44.52153" lon="2.76667">
        <ele>324</ele>
        <time>2021-08-28T09:14:33Z</time>
      </trkpt>
      <trkpt lat="44.5213" lon="2.7656">
        <ele>333</ele>
        <time>2021-08-28T09:14:57Z</time>
      </trkpt>
      <trkpt lat="44.52128" lon="2.76553">
        <ele>334</ele>
        <time>2021-08-28T09:14:59Z</time>
      </trkpt>
      <trkpt lat="44.5212" lon="2.76523">
        <ele>334</ele>
        <time>2021-08-28T09:15:07Z</time>
      </trkpt>
      <trkpt lat="44.5212" lon="2.76508">
        <ele>333</ele>
        <time>2021-08-28T09:15:11Z</time>
      </trkpt>
      <trkpt lat="44.52119" lon="2.765">
        <ele>332</ele>
        <time>2021-08-28T09:15:13Z</time>
      </trkpt>
      <trkpt lat="44.52118" lon="2.76486">
        <ele>331</ele>
        <time>2021-08-28T09:15:17Z</time>
      </trkpt>
      <trkpt lat="44.52118" lon="2.76478">
        <ele>331</ele>
        <time>2021-08-28T09:15:19Z</time>
      </trkpt>
      <trkpt lat="44.52122" lon="2.76472">
        <ele>332</ele>
        <time>2021-08-28T09:15:22Z</time>
      </trkpt>
      <trkpt lat="44.52122" lon="2.76465">
        <ele>333</ele>
        <time>2021-08-28T09:15:59Z</time>
      </trkpt>
      <trkpt lat="44.52112" lon="2.76461">
        <ele>334</ele>
        <time>2021-08-28T09:16:08Z</time>
      </trkpt>
      <trkpt lat="44.52111" lon="2.76454">
        <ele>333</ele>
        <time>2021-08-28T09:16:11Z</time>
      </trkpt>
      <trkpt lat="44.52113" lon="2.76446">
        <ele>332</ele>
        <time>2021-08-28T09:16:14Z</time>
      </trkpt>
      <trkpt lat="44.52114" lon="2.76432">
        <ele>331</ele>
        <time>2021-08-28T09:16:20Z</time>
      </trkpt>
      <trkpt lat="44.52114" lon="2.76426">
        <ele>330</ele>
        <time>2021-08-28T09:16:23Z</time>
      </trkpt>
      <trkpt lat="44.5212" lon="2.76415">
        <ele>329</ele>
        <time>2021-08-28T09:16:32Z</time>
      </trkpt>
      <trkpt lat="44.52126" lon="2.76408">
        <ele>328</ele>
        <time>2021-08-28T09:16:37Z</time>
      </trkpt>
      <trkpt lat="44.52141" lon="2.76379">
        <ele>323</ele>
        <time>2021-08-28T09:16:52Z</time>
      </trkpt>
      <trkpt lat="44.52144" lon="2.76374">
        <ele>321</ele>
        <time>2021-08-28T09:16:56Z</time>
      </trkpt>
      <trkpt lat="44.52149" lon="2.76376">
        <ele>320</ele>
        <time>2021-08-28T09:17:18Z</time>
      </trkpt>
      <trkpt lat="44.52162" lon="2.76365">
        <ele>321</ele>
        <time>2021-08-28T09:17:40Z</time>
      </trkpt>
      <trkpt lat="44.52165" lon="2.76359">
        <ele>320</ele>
        <time>2021-08-28T09:17:45Z</time>
      </trkpt>
      <trkpt lat="44.5217" lon="2.76355">
        <ele>318</ele>
        <time>2021-08-28T09:17:53Z</time>
      </trkpt>
      <trkpt lat="44.52175" lon="2.76355">
        <ele>318</ele>
        <time>2021-08-28T09:17:55Z</time>
      </trkpt>
      <trkpt lat="44.5218" lon="2.76355">
        <ele>319</ele>
        <time>2021-08-28T09:17:57Z</time>
      </trkpt>
      <trkpt lat="44.52185" lon="2.76356">
        <ele>321</ele>
        <time>2021-08-28T09:18:01Z</time>
      </trkpt>
      <trkpt lat="44.52189" lon="2.76351">
        <ele>322</ele>
        <time>2021-08-28T09:18:06Z</time>
      </trkpt>
      <trkpt lat="44.52193" lon="2.76347">
        <ele>324</ele>
        <time>2021-08-28T09:18:13Z</time>
      </trkpt>
      <trkpt lat="44.52198" lon="2.76343">
        <ele>323</ele>
        <time>2021-08-28T09:18:18Z</time>
      </trkpt>
      <trkpt lat="44.52204" lon="2.7633">
        <ele>317</ele>
        <time>2021-08-28T09:18:43Z</time>
      </trkpt>
      <trkpt lat="44.52218" lon="2.76343">
        <ele>328</ele>
        <time>2021-08-28T09:19:06Z</time>
      </trkpt>
      <trkpt lat="44.52222" lon="2.76348">
        <ele>331</ele>
        <time>2021-08-28T09:19:12Z</time>
      </trkpt>
      <trkpt lat="44.52229" lon="2.76356">
        <ele>334</ele>
        <time>2021-08-28T09:19:21Z</time>
      </trkpt>
      <trkpt lat="44.5223" lon="2.76353">
        <ele>335</ele>
        <time>2021-08-28T09:36:19Z</time>
      </trkpt>
      <trkpt lat="44.52219" lon="2.7634">
        <ele>337</ele>
        <time>2021-08-28T09:36:43Z</time>
      </trkpt>
      <trkpt lat="44.52213" lon="2.76338">
        <ele>337</ele>
        <time>2021-08-28T09:36:51Z</time>
      </trkpt>
      <trkpt lat="44.52201" lon="2.76325">
        <ele>335</ele>
        <time>2021-08-28T09:37:06Z</time>
      </trkpt>
      <trkpt lat="44.52196" lon="2.76323">
        <ele>336</ele>
        <time>2021-08-28T09:37:13Z</time>
      </trkpt>
      <trkpt lat="44.52168" lon="2.763">
        <ele>336</ele>
        <time>2021-08-28T09:37:44Z</time>
      </trkpt>
      <trkpt lat="44.52165" lon="2.76296">
        <ele>338</ele>
        <time>2021-08-28T09:37:50Z</time>
      </trkpt>
      <trkpt lat="44.52161" lon="2.76291">
        <ele>338</ele>
        <time>2021-08-28T09:37:56Z</time>
      </trkpt>
      <trkpt lat="44.52157" lon="2.76289">
        <ele>336</ele>
        <time>2021-08-28T09:38:02Z</time>
      </trkpt>
      <trkpt lat="44.52163" lon="2.76277">
        <ele>336</ele>
        <time>2021-08-28T09:38:31Z</time>
      </trkpt>
      <trkpt lat="44.52178" lon="2.76256">
        <ele>336</ele>
        <time>2021-08-28T09:38:41Z</time>
      </trkpt>
      <trkpt lat="44.52181" lon="2.7625">
        <ele>335</ele>
        <time>2021-08-28T09:38:44Z</time>
      </trkpt>
      <trkpt lat="44.52181" lon="2.7624">
        <ele>335</ele>
        <time>2021-08-28T09:38:48Z</time>
      </trkpt>
      <trkpt lat="44.52182" lon="2.76234">
        <ele>336</ele>
        <time>2021-08-28T09:38:52Z</time>
      </trkpt>
      <trkpt lat="44.52185" lon="2.76227">
        <ele>337</ele>
        <time>2021-08-28T09:39:09Z</time>
      </trkpt>
      <trkpt lat="44.52181" lon="2.7622">
        <ele>336</ele>
        <time>2021-08-28T09:39:13Z</time>
      </trkpt>
      <trkpt lat="44.52167" lon="2.7621">
        <ele>337</ele>
        <time>2021-08-28T09:39:25Z</time>
      </trkpt>
      <trkpt lat="44.52162" lon="2.76205">
        <ele>337</ele>
        <time>2021-08-28T09:39:27Z</time>
      </trkpt>
      <trkpt lat="44.5216" lon="2.76199">
        <ele>338</ele>
        <time>2021-08-28T09:39:30Z</time>
      </trkpt>
      <trkpt lat="44.52161" lon="2.76204">
        <ele>338</ele>
        <time>2021-08-28T09:40:47Z</time>
      </trkpt>
      <trkpt lat="44.52159" lon="2.76211">
        <ele>338</ele>
        <time>2021-08-28T09:40:52Z</time>
      </trkpt>
      <trkpt lat="44.52139" lon="2.76203">
        <ele>338</ele>
        <time>2021-08-28T09:41:14Z</time>
      </trkpt>
      <trkpt lat="44.52136" lon="2.76209">
        <ele>339</ele>
        <time>2021-08-28T09:41:23Z</time>
      </trkpt>
      <trkpt lat="44.52136" lon="2.76216">
        <ele>339</ele>
        <time>2021-08-28T09:41:27Z</time>
      </trkpt>
      <trkpt lat="44.52134" lon="2.76222">
        <ele>339</ele>
        <time>2021-08-28T09:41:30Z</time>
      </trkpt>
      <trkpt lat="44.52128" lon="2.76222">
        <ele>341</ele>
        <time>2021-08-28T09:41:34Z</time>
      </trkpt>
      <trkpt lat="44.52124" lon="2.76232">
        <ele>342</ele>
        <time>2021-08-28T09:41:44Z</time>
      </trkpt>
      <trkpt lat="44.52118" lon="2.76234">
        <ele>342</ele>
        <time>2021-08-28T09:41:49Z</time>
      </trkpt>
      <trkpt lat="44.52116" lon="2.76243">
        <ele>341</ele>
        <time>2021-08-28T09:41:54Z</time>
      </trkpt>
      <trkpt lat="44.52111" lon="2.76244">
        <ele>333</ele>
        <time>2021-08-28T09:42:00Z</time>
      </trkpt>
      <trkpt lat="44.52106" lon="2.76242">
        <ele>330</ele>
        <time>2021-08-28T09:42:10Z</time>
      </trkpt>
      <trkpt lat="44.52102" lon="2.76238">
        <ele>326</ele>
        <time>2021-08-28T09:42:16Z</time>
      </trkpt>
      <trkpt lat="44.52097" lon="2.76236">
        <ele>327</ele>
        <time>2021-08-28T09:42:21Z</time>
      </trkpt>
      <trkpt lat="44.52089" lon="2.76229">
        <ele>329</ele>
        <time>2021-08-28T09:42:31Z</time>
      </trkpt>
      <trkpt lat="44.52085" lon="2.76226">
        <ele>329</ele>
        <time>2021-08-28T09:42:38Z</time>
      </trkpt>
      <trkpt lat="44.52081" lon="2.76222">
        <ele>330</ele>
        <time>2021-08-28T09:42:44Z</time>
      </trkpt>
      <trkpt lat="44.52074" lon="2.76221">
        <ele>329</ele>
        <time>2021-08-28T09:42:55Z</time>
      </trkpt>
      <trkpt lat="44.5207" lon="2.76217">
        <ele>328</ele>
        <time>2021-08-28T09:42:59Z</time>
      </trkpt>
      <trkpt lat="44.52057" lon="2.76202">
        <ele>331</ele>
        <time>2021-08-28T09:43:21Z</time>
      </trkpt>
      <trkpt lat="44.52052" lon="2.76202">
        <ele>331</ele>
        <time>2021-08-28T09:43:26Z</time>
      </trkpt>
      <trkpt lat="44.52048" lon="2.76208">
        <ele>333</ele>
        <time>2021-08-28T09:43:30Z</time>
      </trkpt>
      <trkpt lat="44.52048" lon="2.76214">
        <ele>335</ele>
        <time>2021-08-28T09:44:23Z</time>
      </trkpt>
      <trkpt lat="44.52049" lon="2.76212">
        <ele>338</ele>
        <time>2021-08-28T09:47:30Z</time>
      </trkpt>
      <trkpt lat="44.52047" lon="2.76203">
        <ele>341</ele>
        <time>2021-08-28T09:47:36Z</time>
      </trkpt>
      <trkpt lat="44.52048" lon="2.76195">
        <ele>343</ele>
        <time>2021-08-28T09:47:39Z</time>
      </trkpt>
      <trkpt lat="44.52069" lon="2.76163">
        <ele>348</ele>
        <time>2021-08-28T09:47:50Z</time>
      </trkpt>
      <trkpt lat="44.52074" lon="2.76158">
        <ele>349</ele>
        <time>2021-08-28T09:47:52Z</time>
      </trkpt>
      <trkpt lat="44.52076" lon="2.76153">
        <ele>350</ele>
        <time>2021-08-28T09:47:54Z</time>
      </trkpt>
      <trkpt lat="44.52079" lon="2.76145">
        <ele>348</ele>
        <time>2021-08-28T09:47:58Z</time>
      </trkpt>
      <trkpt lat="44.52074" lon="2.76138">
        <ele>345</ele>
        <time>2021-08-28T09:48:04Z</time>
      </trkpt>
      <trkpt lat="44.52073" lon="2.76138">
        <ele>337</ele>
        <time>2021-08-28T09:49:07Z</time>
      </trkpt>
      <trkpt lat="44.52072" lon="2.76131">
        <ele>337</ele>
        <time>2021-08-28T09:49:53Z</time>
      </trkpt>
      <trkpt lat="44.5207" lon="2.76124">
        <ele>338</ele>
        <time>2021-08-28T09:49:56Z</time>
      </trkpt>
      <trkpt lat="44.52068" lon="2.76118">
        <ele>338</ele>
        <time>2021-08-28T09:49:58Z</time>
      </trkpt>
      <trkpt lat="44.52014" lon="2.76075">
        <ele>337</ele>
        <time>2021-08-28T09:50:30Z</time>
      </trkpt>
      <trkpt lat="44.5201" lon="2.76071">
        <ele>337</ele>
        <time>2021-08-28T09:50:32Z</time>
      </trkpt>
      <trkpt lat="44.5199" lon="2.76048">
        <ele>337</ele>
        <time>2021-08-28T09:50:44Z</time>
      </trkpt>
      <trkpt lat="44.51986" lon="2.76041">
        <ele>337</ele>
        <time>2021-08-28T09:50:47Z</time>
      </trkpt>
      <trkpt lat="44.51982" lon="2.76034">
        <ele>336</ele>
        <time>2021-08-28T09:50:50Z</time>
      </trkpt>
      <trkpt lat="44.5198" lon="2.76028">
        <ele>336</ele>
        <time>2021-08-28T09:50:52Z</time>
      </trkpt>
      <trkpt lat="44.51981" lon="2.76021">
        <ele>336</ele>
        <time>2021-08-28T09:50:54Z</time>
      </trkpt>
      <trkpt lat="44.51982" lon="2.76014">
        <ele>337</ele>
        <time>2021-08-28T09:50:56Z</time>
      </trkpt>
      <trkpt lat="44.51992" lon="2.75954">
        <ele>339</ele>
        <time>2021-08-28T09:51:10Z</time>
      </trkpt>
      <trkpt lat="44.51994" lon="2.75946">
        <ele>340</ele>
        <time>2021-08-28T09:51:12Z</time>
      </trkpt>
      <trkpt lat="44.52004" lon="2.75907">
        <ele>341</ele>
        <time>2021-08-28T09:51:20Z</time>
      </trkpt>
      <trkpt lat="44.52021" lon="2.75865">
        <ele>344</ele>
        <time>2021-08-28T09:51:30Z</time>
      </trkpt>
      <trkpt lat="44.52089" lon="2.75773">
        <ele>339</ele>
        <time>2021-08-28T09:51:58Z</time>
      </trkpt>
      <trkpt lat="44.52168" lon="2.75724">
        <ele>341</ele>
        <time>2021-08-28T09:52:28Z</time>
      </trkpt>
      <trkpt lat="44.52215" lon="2.75684">
        <ele>345</ele>
        <time>2021-08-28T09:52:48Z</time>
      </trkpt>
      <trkpt lat="44.52233" lon="2.75656">
        <ele>347</ele>
        <time>2021-08-28T09:52:58Z</time>
      </trkpt>
      <trkpt lat="44.52251" lon="2.75605">
        <ele>349</ele>
        <time>2021-08-28T09:53:13Z</time>
      </trkpt>
      <trkpt lat="44.52272" lon="2.75522">
        <ele>352</ele>
        <time>2021-08-28T09:53:34Z</time>
      </trkpt>
      <trkpt lat="44.523" lon="2.75423">
        <ele>350</ele>
        <time>2021-08-28T09:53:56Z</time>
      </trkpt>
      <trkpt lat="44.52302" lon="2.75412">
        <ele>349</ele>
        <time>2021-08-28T09:53:58Z</time>
      </trkpt>
      <trkpt lat="44.52326" lon="2.7532">
        <ele>347</ele>
        <time>2021-08-28T09:54:18Z</time>
      </trkpt>
      <trkpt lat="44.52338" lon="2.75254">
        <ele>347</ele>
        <time>2021-08-28T09:54:32Z</time>
      </trkpt>
      <trkpt lat="44.52334" lon="2.75109">
        <ele>351</ele>
        <time>2021-08-28T09:55:00Z</time>
      </trkpt>
      <trkpt lat="44.52346" lon="2.75017">
        <ele>351</ele>
        <time>2021-08-28T09:55:18Z</time>
      </trkpt>
      <trkpt lat="44.524" lon="2.74828">
        <ele>349</ele>
        <time>2021-08-28T09:55:49Z</time>
      </trkpt>
      <trkpt lat="44.52434" lon="2.74688">
        <ele>349</ele>
        <time>2021-08-28T09:56:15Z</time>
      </trkpt>
      <trkpt lat="44.52457" lon="2.74488">
        <ele>347</ele>
        <time>2021-08-28T09:56:46Z</time>
      </trkpt>
      <trkpt lat="44.52475" lon="2.74389">
        <ele>347</ele>
        <time>2021-08-28T09:56:58Z</time>
      </trkpt>
      <trkpt lat="44.52486" lon="2.74351">
        <ele>346</ele>
        <time>2021-08-28T09:57:04Z</time>
      </trkpt>
      <trkpt lat="44.52539" lon="2.74266">
        <ele>346</ele>
        <time>2021-08-28T09:57:22Z</time>
      </trkpt>
      <trkpt lat="44.52637" lon="2.74144">
        <ele>340</ele>
        <time>2021-08-28T09:57:45Z</time>
      </trkpt>
      <trkpt lat="44.52753" lon="2.73853">
        <ele>331</ele>
        <time>2021-08-28T09:58:15Z</time>
      </trkpt>
      <trkpt lat="44.52824" lon="2.73607">
        <ele>328</ele>
        <time>2021-08-28T09:58:37Z</time>
      </trkpt>
      <trkpt lat="44.52832" lon="2.73571">
        <ele>329</ele>
        <time>2021-08-28T09:58:43Z</time>
      </trkpt>
      <trkpt lat="44.52834" lon="2.73561">
        <ele>329</ele>
        <time>2021-08-28T09:58:54Z</time>
      </trkpt>
      <trkpt lat="44.52835" lon="2.73554">
        <ele>328</ele>
        <time>2021-08-28T09:59:58Z</time>
      </trkpt>
      <trkpt lat="44.52833" lon="2.73547">
        <ele>329</ele>
        <time>2021-08-28T10:00:01Z</time>
      </trkpt>
      <trkpt lat="44.52829" lon="2.73543">
        <ele>330</ele>
        <time>2021-08-28T10:00:04Z</time>
      </trkpt>
      <trkpt lat="44.52824" lon="2.7354">
        <ele>331</ele>
        <time>2021-08-28T10:00:07Z</time>
      </trkpt>
      <trkpt lat="44.52823" lon="2.73533">
        <ele>331</ele>
        <time>2021-08-28T10:00:10Z</time>
      </trkpt>
      <trkpt lat="44.52788" lon="2.73469">
        <ele>334</ele>
        <time>2021-08-28T10:00:34Z</time>
      </trkpt>
      <trkpt lat="44.52784" lon="2.73464">
        <ele>334</ele>
        <time>2021-08-28T10:00:36Z</time>
      </trkpt>
      <trkpt lat="44.52778" lon="2.7346">
        <ele>334</ele>
        <time>2021-08-28T10:00:39Z</time>
      </trkpt>
      <trkpt lat="44.52775" lon="2.73456">
        <ele>334</ele>
        <time>2021-08-28T10:01:52Z</time>
      </trkpt>
      <trkpt lat="44.52746" lon="2.73338">
        <ele>339</ele>
        <time>2021-08-28T10:02:19Z</time>
      </trkpt>
      <trkpt lat="44.5273" lon="2.73262">
        <ele>339</ele>
        <time>2021-08-28T10:02:35Z</time>
      </trkpt>
      <trkpt lat="44.52708" lon="2.73214">
        <ele>340</ele>
        <time>2021-08-28T10:02:47Z</time>
      </trkpt>
      <trkpt lat="44.52704" lon="2.73208">
        <ele>340</ele>
        <time>2021-08-28T10:02:49Z</time>
      </trkpt>
      <trkpt lat="44.5269" lon="2.73179">
        <ele>340</ele>
        <time>2021-08-28T10:02:57Z</time>
      </trkpt>
      <trkpt lat="44.52688" lon="2.73172">
        <ele>339</ele>
        <time>2021-08-28T10:02:59Z</time>
      </trkpt>
      <trkpt lat="44.52675" lon="2.73137">
        <ele>339</ele>
        <time>2021-08-28T10:03:12Z</time>
      </trkpt>
      <trkpt lat="44.52626" lon="2.73058">
        <ele>334</ele>
        <time>2021-08-28T10:03:40Z</time>
      </trkpt>
      <trkpt lat="44.52613" lon="2.73011">
        <ele>331</ele>
        <time>2021-08-28T10:03:49Z</time>
      </trkpt>
      <trkpt lat="44.52613" lon="2.72992">
        <ele>329</ele>
        <time>2021-08-28T10:03:53Z</time>
      </trkpt>
      <trkpt lat="44.52612" lon="2.72976">
        <ele>329</ele>
        <time>2021-08-28T10:03:58Z</time>
      </trkpt>
      <trkpt lat="44.52607" lon="2.72954">
        <ele>327</ele>
        <time>2021-08-28T10:04:04Z</time>
      </trkpt>
      <trkpt lat="44.52605" lon="2.72934">
        <ele>326</ele>
        <time>2021-08-28T10:04:08Z</time>
      </trkpt>
      <trkpt lat="44.52581" lon="2.72818">
        <ele>327</ele>
        <time>2021-08-28T10:04:39Z</time>
      </trkpt>
      <trkpt lat="44.52583" lon="2.72805">
        <ele>327</ele>
        <time>2021-08-28T10:04:44Z</time>
      </trkpt>
      <trkpt lat="44.52589" lon="2.72795">
        <ele>329</ele>
        <time>2021-08-28T10:05:15Z</time>
      </trkpt>
      <trkpt lat="44.5259" lon="2.72789">
        <ele>329</ele>
        <time>2021-08-28T10:05:24Z</time>
      </trkpt>
      <trkpt lat="44.52587" lon="2.72784">
        <ele>329</ele>
        <time>2021-08-28T10:06:48Z</time>
      </trkpt>
      <trkpt lat="44.52583" lon="2.72779">
        <ele>329</ele>
        <time>2021-08-28T10:06:53Z</time>
      </trkpt>
      <trkpt lat="44.52578" lon="2.72769">
        <ele>328</ele>
        <time>2021-08-28T10:07:06Z</time>
      </trkpt>
      <trkpt lat="44.5258" lon="2.72766">
        <ele>327</ele>
        <time>2021-08-28T10:07:39Z</time>
      </trkpt>
      <trkpt lat="44.52583" lon="2.72772">
        <ele>327</ele>
        <time>2021-08-28T10:07:42Z</time>
      </trkpt>
      <trkpt lat="44.52586" lon="2.72776">
        <ele>324</ele>
        <time>2021-08-28T10:08:01Z</time>
      </trkpt>
      <trkpt lat="44.52588" lon="2.72783">
        <ele>322</ele>
        <time>2021-08-28T10:08:06Z</time>
      </trkpt>
      <trkpt lat="44.52591" lon="2.72789">
        <ele>319</ele>
        <time>2021-08-28T10:08:11Z</time>
      </trkpt>
      <trkpt lat="44.52587" lon="2.7279">
        <ele>317</ele>
        <time>2021-08-28T10:08:35Z</time>
      </trkpt>
      <trkpt lat="44.52583" lon="2.72786">
        <ele>322</ele>
        <time>2021-08-28T10:11:04Z</time>
      </trkpt>
      <trkpt lat="44.52582" lon="2.72797">
        <ele>356</ele>
        <time>2021-08-28T10:20:22Z</time>
      </trkpt>
      <trkpt lat="44.52591" lon="2.72798">
        <ele>355</ele>
        <time>2021-08-28T10:22:08Z</time>
      </trkpt>
      <trkpt lat="44.52587" lon="2.72803">
        <ele>340</ele>
        <time>2021-08-28T10:23:01Z</time>
      </trkpt>
      <trkpt lat="44.5259" lon="2.72805">
        <ele>340</ele>
        <time>2021-08-28T10:23:25Z</time>
      </trkpt>
      <trkpt lat="44.52592" lon="2.72794">
        <ele>339</ele>
        <time>2021-08-28T10:25:57Z</time>
      </trkpt>
      <trkpt lat="44.52575" lon="2.72807">
        <ele>341</ele>
        <time>2021-08-28T10:29:09Z</time>
      </trkpt>
      <trkpt lat="44.52583" lon="2.728">
        <ele>341</ele>
        <time>2021-08-28T10:29:11Z</time>
      </trkpt>
      <trkpt lat="44.52587" lon="2.728">
        <ele>341</ele>
        <time>2021-08-28T10:29:57Z</time>
      </trkpt>
      <trkpt lat="44.5259" lon="2.72792">
        <ele>341</ele>
        <time>2021-08-28T10:30:30Z</time>
      </trkpt>
      <trkpt lat="44.52589" lon="2.72791">
        <ele>335</ele>
        <time>2021-08-28T10:49:02Z</time>
      </trkpt>
      <trkpt lat="44.52595" lon="2.72792">
        <ele>335</ele>
        <time>2021-08-28T10:51:31Z</time>
      </trkpt>
      <trkpt lat="44.52606" lon="2.72802">
        <ele>335</ele>
        <time>2021-08-28T10:51:37Z</time>
      </trkpt>
      <trkpt lat="44.52623" lon="2.72814">
        <ele>335</ele>
        <time>2021-08-28T10:51:46Z</time>
      </trkpt>
      <trkpt lat="44.5268" lon="2.72876">
        <ele>330</ele>
        <time>2021-08-28T10:52:10Z</time>
      </trkpt>
      <trkpt lat="44.52686" lon="2.72879">
        <ele>327</ele>
        <time>2021-08-28T10:52:12Z</time>
      </trkpt>
      <trkpt lat="44.52693" lon="2.72882">
        <ele>325</ele>
        <time>2021-08-28T10:52:14Z</time>
      </trkpt>
      <trkpt lat="44.52712" lon="2.72887">
        <ele>320</ele>
        <time>2021-08-28T10:52:18Z</time>
      </trkpt>
      <trkpt lat="44.52723" lon="2.72893">
        <ele>319</ele>
        <time>2021-08-28T10:52:20Z</time>
      </trkpt>
      <trkpt lat="44.52728" lon="2.72898">
        <ele>318</ele>
        <time>2021-08-28T10:52:21Z</time>
      </trkpt>
      <trkpt lat="44.52763" lon="2.72954">
        <ele>312</ele>
        <time>2021-08-28T10:52:30Z</time>
      </trkpt>
      <trkpt lat="44.52826" lon="2.73031">
        <ele>315</ele>
        <time>2021-08-28T10:52:52Z</time>
      </trkpt>
      <trkpt lat="44.52831" lon="2.73039">
        <ele>316</ele>
        <time>2021-08-28T10:52:54Z</time>
      </trkpt>
      <trkpt lat="44.52836" lon="2.73059">
        <ele>317</ele>
        <time>2021-08-28T10:52:58Z</time>
      </trkpt>
      <trkpt lat="44.5284" lon="2.73065">
        <ele>318</ele>
        <time>2021-08-28T10:53:01Z</time>
      </trkpt>
      <trkpt lat="44.52846" lon="2.73067">
        <ele>318</ele>
        <time>2021-08-28T10:53:03Z</time>
      </trkpt>
      <trkpt lat="44.52883" lon="2.73069">
        <ele>324</ele>
        <time>2021-08-28T10:53:17Z</time>
      </trkpt>
      <trkpt lat="44.52957" lon="2.73049">
        <ele>329</ele>
        <time>2021-08-28T10:53:48Z</time>
      </trkpt>
      <trkpt lat="44.53009" lon="2.72978">
        <ele>331</ele>
        <time>2021-08-28T10:54:19Z</time>
      </trkpt>
      <trkpt lat="44.53031" lon="2.72942">
        <ele>335</ele>
        <time>2021-08-28T10:54:32Z</time>
      </trkpt>
      <trkpt lat="44.53105" lon="2.72844">
        <ele>346</ele>
        <time>2021-08-28T10:55:04Z</time>
      </trkpt>
      <trkpt lat="44.53128" lon="2.72825">
        <ele>346</ele>
        <time>2021-08-28T10:55:09Z</time>
      </trkpt>
      <trkpt lat="44.53237" lon="2.7278">
        <ele>338</ele>
        <time>2021-08-28T10:55:25Z</time>
      </trkpt>
      <trkpt lat="44.53399" lon="2.72638">
        <ele>327</ele>
        <time>2021-08-28T10:55:51Z</time>
      </trkpt>
      <trkpt lat="44.53421" lon="2.72604">
        <ele>327</ele>
        <time>2021-08-28T10:55:57Z</time>
      </trkpt>
      <trkpt lat="44.53476" lon="2.72505">
        <ele>332</ele>
        <time>2021-08-28T10:56:16Z</time>
      </trkpt>
      <trkpt lat="44.53482" lon="2.72486">
        <ele>332</ele>
        <time>2021-08-28T10:56:20Z</time>
      </trkpt>
      <trkpt lat="44.53493" lon="2.72388">
        <ele>336</ele>
        <time>2021-08-28T10:56:38Z</time>
      </trkpt>
      <trkpt lat="44.5351" lon="2.72351">
        <ele>336</ele>
        <time>2021-08-28T10:56:46Z</time>
      </trkpt>
      <trkpt lat="44.53594" lon="2.72209">
        <ele>337</ele>
        <time>2021-08-28T10:57:14Z</time>
      </trkpt>
      <trkpt lat="44.53643" lon="2.72143">
        <ele>336</ele>
        <time>2021-08-28T10:57:26Z</time>
      </trkpt>
      <trkpt lat="44.53653" lon="2.72124">
        <ele>336</ele>
        <time>2021-08-28T10:57:29Z</time>
      </trkpt>
      <trkpt lat="44.53695" lon="2.71949">
        <ele>339</ele>
        <time>2021-08-28T10:57:58Z</time>
      </trkpt>
      <trkpt lat="44.53702" lon="2.7193">
        <ele>340</ele>
        <time>2021-08-28T10:58:02Z</time>
      </trkpt>
      <trkpt lat="44.53734" lon="2.71785">
        <ele>343</ele>
        <time>2021-08-28T10:58:33Z</time>
      </trkpt>
      <trkpt lat="44.53749" lon="2.71747">
        <ele>343</ele>
        <time>2021-08-28T10:58:41Z</time>
      </trkpt>
      <trkpt lat="44.53768" lon="2.71715">
        <ele>343</ele>
        <time>2021-08-28T10:58:49Z</time>
      </trkpt>
      <trkpt lat="44.53779" lon="2.71703">
        <ele>343</ele>
        <time>2021-08-28T10:58:53Z</time>
      </trkpt>
      <trkpt lat="44.53786" lon="2.71698">
        <ele>344</ele>
        <time>2021-08-28T10:58:55Z</time>
      </trkpt>
      <trkpt lat="44.53803" lon="2.71692">
        <ele>344</ele>
        <time>2021-08-28T10:58:59Z</time>
      </trkpt>
      <trkpt lat="44.53848" lon="2.7169">
        <ele>340</ele>
        <time>2021-08-28T10:59:07Z</time>
      </trkpt>
      <trkpt lat="44.53883" lon="2.71674">
        <ele>339</ele>
        <time>2021-08-28T10:59:12Z</time>
      </trkpt>
      <trkpt lat="44.53951" lon="2.71626">
        <ele>335</ele>
        <time>2021-08-28T10:59:24Z</time>
      </trkpt>
      <trkpt lat="44.54045" lon="2.7152">
        <ele>326</ele>
        <time>2021-08-28T10:59:45Z</time>
      </trkpt>
      <trkpt lat="44.54078" lon="2.71442">
        <ele>335</ele>
        <time>2021-08-28T11:00:11Z</time>
      </trkpt>
      <trkpt lat="44.54099" lon="2.71366">
        <ele>341</ele>
        <time>2021-08-28T11:00:42Z</time>
      </trkpt>
      <trkpt lat="44.54107" lon="2.71345">
        <ele>342</ele>
        <time>2021-08-28T11:00:50Z</time>
      </trkpt>
      <trkpt lat="44.54108" lon="2.71339">
        <ele>343</ele>
        <time>2021-08-28T11:00:52Z</time>
      </trkpt>
      <trkpt lat="44.54119" lon="2.71314">
        <ele>346</ele>
        <time>2021-08-28T11:01:02Z</time>
      </trkpt>
      <trkpt lat="44.54145" lon="2.71243">
        <ele>356</ele>
        <time>2021-08-28T11:01:32Z</time>
      </trkpt>
      <trkpt lat="44.5415" lon="2.71204">
        <ele>359</ele>
        <time>2021-08-28T11:01:47Z</time>
      </trkpt>
      <trkpt lat="44.54151" lon="2.71195">
        <ele>360</ele>
        <time>2021-08-28T11:01:50Z</time>
      </trkpt>
      <trkpt lat="44.54156" lon="2.71141">
        <ele>366</ele>
        <time>2021-08-28T11:02:11Z</time>
      </trkpt>
      <trkpt lat="44.54157" lon="2.71133">
        <ele>366</ele>
        <time>2021-08-28T11:02:14Z</time>
      </trkpt>
      <trkpt lat="44.5416" lon="2.71119">
        <ele>366</ele>
        <time>2021-08-28T11:02:21Z</time>
      </trkpt>
      <trkpt lat="44.54161" lon="2.71105">
        <ele>367</ele>
        <time>2021-08-28T11:02:27Z</time>
      </trkpt>
      <trkpt lat="44.54164" lon="2.71088">
        <ele>368</ele>
        <time>2021-08-28T11:02:33Z</time>
      </trkpt>
      <trkpt lat="44.54167" lon="2.71072">
        <ele>369</ele>
        <time>2021-08-28T11:02:39Z</time>
      </trkpt>
      <trkpt lat="44.54166" lon="2.71063">
        <ele>369</ele>
        <time>2021-08-28T11:02:42Z</time>
      </trkpt>
      <trkpt lat="44.54166" lon="2.71056">
        <ele>370</ele>
        <time>2021-08-28T11:02:44Z</time>
      </trkpt>
      <trkpt lat="44.54168" lon="2.71038">
        <ele>372</ele>
        <time>2021-08-28T11:02:50Z</time>
      </trkpt>
      <trkpt lat="44.54169" lon="2.71029">
        <ele>373</ele>
        <time>2021-08-28T11:02:53Z</time>
      </trkpt>
      <trkpt lat="44.54172" lon="2.71005">
        <ele>376</ele>
        <time>2021-08-28T11:03:01Z</time>
      </trkpt>
      <trkpt lat="44.54172" lon="2.70998">
        <ele>376</ele>
        <time>2021-08-28T11:03:03Z</time>
      </trkpt>
      <trkpt lat="44.54172" lon="2.7099">
        <ele>377</ele>
        <time>2021-08-28T11:03:06Z</time>
      </trkpt>
      <trkpt lat="44.54186" lon="2.70939">
        <ele>378</ele>
        <time>2021-08-28T11:03:24Z</time>
      </trkpt>
      <trkpt lat="44.54188" lon="2.7091">
        <ele>378</ele>
        <time>2021-08-28T11:03:35Z</time>
      </trkpt>
      <trkpt lat="44.54194" lon="2.70875">
        <ele>377</ele>
        <time>2021-08-28T11:03:47Z</time>
      </trkpt>
      <trkpt lat="44.54195" lon="2.70866">
        <ele>377</ele>
        <time>2021-08-28T11:03:50Z</time>
      </trkpt>
      <trkpt lat="44.54195" lon="2.70858">
        <ele>377</ele>
        <time>2021-08-28T11:03:53Z</time>
      </trkpt>
      <trkpt lat="44.54195" lon="2.70826">
        <ele>381</ele>
        <time>2021-08-28T11:04:05Z</time>
      </trkpt>
      <trkpt lat="44.54194" lon="2.70817">
        <ele>381</ele>
        <time>2021-08-28T11:04:08Z</time>
      </trkpt>
      <trkpt lat="44.54194" lon="2.70808">
        <ele>381</ele>
        <time>2021-08-28T11:04:11Z</time>
      </trkpt>
      <trkpt lat="44.54197" lon="2.70767">
        <ele>381</ele>
        <time>2021-08-28T11:04:24Z</time>
      </trkpt>
      <trkpt lat="44.54199" lon="2.7076">
        <ele>382</ele>
        <time>2021-08-28T11:04:26Z</time>
      </trkpt>
      <trkpt lat="44.54201" lon="2.70745">
        <ele>382</ele>
        <time>2021-08-28T11:04:30Z</time>
      </trkpt>
      <trkpt lat="44.54226" lon="2.70598">
        <ele>386</ele>
        <time>2021-08-28T11:05:02Z</time>
      </trkpt>
      <trkpt lat="44.54232" lon="2.70554">
        <ele>384</ele>
        <time>2021-08-28T11:05:08Z</time>
      </trkpt>
      <trkpt lat="44.54253" lon="2.70465">
        <ele>379</ele>
        <time>2021-08-28T11:05:16Z</time>
      </trkpt>
      <trkpt lat="44.54266" lon="2.70141">
        <ele>367</ele>
        <time>2021-08-28T11:05:45Z</time>
      </trkpt>
      <trkpt lat="44.54231" lon="2.69992">
        <ele>358</ele>
        <time>2021-08-28T11:05:56Z</time>
      </trkpt>
      <trkpt lat="44.54221" lon="2.69971">
        <ele>357</ele>
        <time>2021-08-28T11:05:58Z</time>
      </trkpt>
      <trkpt lat="44.54206" lon="2.6995">
        <ele>356</ele>
        <time>2021-08-28T11:06:00Z</time>
      </trkpt>
      <trkpt lat="44.54162" lon="2.69916">
        <ele>354</ele>
        <time>2021-08-28T11:06:05Z</time>
      </trkpt>
      <trkpt lat="44.54145" lon="2.6991">
        <ele>352</ele>
        <time>2021-08-28T11:06:07Z</time>
      </trkpt>
      <trkpt lat="44.54138" lon="2.69906">
        <ele>351</ele>
        <time>2021-08-28T11:06:08Z</time>
      </trkpt>
      <trkpt lat="44.54133" lon="2.69898">
        <ele>351</ele>
        <time>2021-08-28T11:06:09Z</time>
      </trkpt>
      <trkpt lat="44.5413" lon="2.69886">
        <ele>350</ele>
        <time>2021-08-28T11:06:10Z</time>
      </trkpt>
      <trkpt lat="44.54128" lon="2.69862">
        <ele>349</ele>
        <time>2021-08-28T11:06:12Z</time>
      </trkpt>
      <trkpt lat="44.54131" lon="2.69843">
        <ele>351</ele>
        <time>2021-08-28T11:06:14Z</time>
      </trkpt>
      <trkpt lat="44.54133" lon="2.69835">
        <ele>352</ele>
        <time>2021-08-28T11:06:15Z</time>
      </trkpt>
      <trkpt lat="44.54191" lon="2.69727">
        <ele>350</ele>
        <time>2021-08-28T11:06:46Z</time>
      </trkpt>
      <trkpt lat="44.54211" lon="2.69682">
        <ele>350</ele>
        <time>2021-08-28T11:07:00Z</time>
      </trkpt>
      <trkpt lat="44.54226" lon="2.69606">
        <ele>350</ele>
        <time>2021-08-28T11:07:18Z</time>
      </trkpt>
      <trkpt lat="44.54248" lon="2.6947">
        <ele>354</ele>
        <time>2021-08-28T11:07:50Z</time>
      </trkpt>
      <trkpt lat="44.54251" lon="2.69443">
        <ele>354</ele>
        <time>2021-08-28T11:07:56Z</time>
      </trkpt>
      <trkpt lat="44.5425" lon="2.69415">
        <ele>355</ele>
        <time>2021-08-28T11:08:02Z</time>
      </trkpt>
      <trkpt lat="44.54213" lon="2.69227">
        <ele>353</ele>
        <time>2021-08-28T11:08:33Z</time>
      </trkpt>
      <trkpt lat="44.5421" lon="2.69203">
        <ele>353</ele>
        <time>2021-08-28T11:08:36Z</time>
      </trkpt>
      <trkpt lat="44.54208" lon="2.68947">
        <ele>347</ele>
        <time>2021-08-28T11:09:06Z</time>
      </trkpt>
      <trkpt lat="44.54194" lon="2.68852">
        <ele>343</ele>
        <time>2021-08-28T11:09:15Z</time>
      </trkpt>
      <trkpt lat="44.54194" lon="2.68808">
        <ele>341</ele>
        <time>2021-08-28T11:09:18Z</time>
      </trkpt>
      <trkpt lat="44.54199" lon="2.68779">
        <ele>340</ele>
        <time>2021-08-28T11:09:20Z</time>
      </trkpt>
      <trkpt lat="44.54204" lon="2.68766">
        <ele>339</ele>
        <time>2021-08-28T11:09:21Z</time>
      </trkpt>
      <trkpt lat="44.54224" lon="2.68739">
        <ele>339</ele>
        <time>2021-08-28T11:09:24Z</time>
      </trkpt>
      <trkpt lat="44.5424" lon="2.68723">
        <ele>340</ele>
        <time>2021-08-28T11:09:27Z</time>
      </trkpt>
      <trkpt lat="44.54251" lon="2.68703">
        <ele>339</ele>
        <time>2021-08-28T11:09:31Z</time>
      </trkpt>
      <trkpt lat="44.54258" lon="2.68684">
        <ele>337</ele>
        <time>2021-08-28T11:09:35Z</time>
      </trkpt>
      <trkpt lat="44.54264" lon="2.68655">
        <ele>336</ele>
        <time>2021-08-28T11:09:40Z</time>
      </trkpt>
      <trkpt lat="44.54261" lon="2.68522">
        <ele>337</ele>
        <time>2021-08-28T11:10:07Z</time>
      </trkpt>
      <trkpt lat="44.54263" lon="2.68514">
        <ele>337</ele>
        <time>2021-08-28T11:10:19Z</time>
      </trkpt>
      <trkpt lat="44.54267" lon="2.68508">
        <ele>337</ele>
        <time>2021-08-28T11:11:11Z</time>
      </trkpt>
      <trkpt lat="44.54325" lon="2.68408">
        <ele>337</ele>
        <time>2021-08-28T11:11:32Z</time>
      </trkpt>
      <trkpt lat="44.54363" lon="2.68303">
        <ele>333</ele>
        <time>2021-08-28T11:11:42Z</time>
      </trkpt>
      <trkpt lat="44.54371" lon="2.6825">
        <ele>332</ele>
        <time>2021-08-28T11:11:46Z</time>
      </trkpt>
      <trkpt lat="44.54386" lon="2.68213">
        <ele>330</ele>
        <time>2021-08-28T11:11:49Z</time>
      </trkpt>
      <trkpt lat="44.54405" lon="2.68185">
        <ele>332</ele>
        <time>2021-08-28T11:11:52Z</time>
      </trkpt>
      <trkpt lat="44.5442" lon="2.68174">
        <ele>332</ele>
        <time>2021-08-28T11:11:54Z</time>
      </trkpt>
      <trkpt lat="44.54434" lon="2.68169">
        <ele>332</ele>
        <time>2021-08-28T11:11:56Z</time>
      </trkpt>
      <trkpt lat="44.54463" lon="2.68168">
        <ele>334</ele>
        <time>2021-08-28T11:12:02Z</time>
      </trkpt>
      <trkpt lat="44.5447" lon="2.68159">
        <ele>333</ele>
        <time>2021-08-28T11:12:51Z</time>
      </trkpt>
      <trkpt lat="44.54506" lon="2.68145">
        <ele>335</ele>
        <time>2021-08-28T11:13:07Z</time>
      </trkpt>
      <trkpt lat="44.54546" lon="2.68146">
        <ele>342</ele>
        <time>2021-08-28T11:13:21Z</time>
      </trkpt>
      <trkpt lat="44.54558" lon="2.68152">
        <ele>345</ele>
        <time>2021-08-28T11:13:25Z</time>
      </trkpt>
      <trkpt lat="44.54598" lon="2.68168">
        <ele>357</ele>
        <time>2021-08-28T11:13:37Z</time>
      </trkpt>
      <trkpt lat="44.54607" lon="2.68175">
        <ele>356</ele>
        <time>2021-08-28T11:13:39Z</time>
      </trkpt>
      <trkpt lat="44.54616" lon="2.68184">
        <ele>352</ele>
        <time>2021-08-28T11:13:41Z</time>
      </trkpt>
      <trkpt lat="44.54622" lon="2.68195">
        <ele>349</ele>
        <time>2021-08-28T11:13:43Z</time>
      </trkpt>
      <trkpt lat="44.54628" lon="2.68206">
        <ele>347</ele>
        <time>2021-08-28T11:13:45Z</time>
      </trkpt>
      <trkpt lat="44.54634" lon="2.68216">
        <ele>343</ele>
        <time>2021-08-28T11:13:47Z</time>
      </trkpt>
      <trkpt lat="44.54643" lon="2.68235">
        <ele>339</ele>
        <time>2021-08-28T11:13:51Z</time>
      </trkpt>
      <trkpt lat="44.54665" lon="2.68286">
        <ele>331</ele>
        <time>2021-08-28T11:14:03Z</time>
      </trkpt>
      <trkpt lat="44.54707" lon="2.68348">
        <ele>323</ele>
        <time>2021-08-28T11:14:17Z</time>
      </trkpt>
      <trkpt lat="44.54772" lon="2.6855">
        <ele>295</ele>
        <time>2021-08-28T11:14:48Z</time>
      </trkpt>
      <trkpt lat="44.54777" lon="2.68564">
        <ele>294</ele>
        <time>2021-08-28T11:14:50Z</time>
      </trkpt>
      <trkpt lat="44.54824" lon="2.68667">
        <ele>283</ele>
        <time>2021-08-28T11:15:06Z</time>
      </trkpt>
      <trkpt lat="44.5483" lon="2.68678">
        <ele>281</ele>
        <time>2021-08-28T11:15:08Z</time>
      </trkpt>
      <trkpt lat="44.54862" lon="2.68722">
        <ele>281</ele>
        <time>2021-08-28T11:15:16Z</time>
      </trkpt>
      <trkpt lat="44.54866" lon="2.68729">
        <ele>282</ele>
        <time>2021-08-28T11:15:17Z</time>
      </trkpt>
      <trkpt lat="44.54894" lon="2.68761">
        <ele>291</ele>
        <time>2021-08-28T11:15:23Z</time>
      </trkpt>
      <trkpt lat="44.54904" lon="2.68768">
        <ele>293</ele>
        <time>2021-08-28T11:15:25Z</time>
      </trkpt>
      <trkpt lat="44.54909" lon="2.68769">
        <ele>294</ele>
        <time>2021-08-28T11:15:26Z</time>
      </trkpt>
      <trkpt lat="44.54921" lon="2.68768">
        <ele>295</ele>
        <time>2021-08-28T11:15:28Z</time>
      </trkpt>
      <trkpt lat="44.54926" lon="2.68765">
        <ele>295</ele>
        <time>2021-08-28T11:15:29Z</time>
      </trkpt>
      <trkpt lat="44.54934" lon="2.68755">
        <ele>297</ele>
        <time>2021-08-28T11:15:31Z</time>
      </trkpt>
      <trkpt lat="44.54943" lon="2.68719">
        <ele>303</ele>
        <time>2021-08-28T11:15:36Z</time>
      </trkpt>
      <trkpt lat="44.54944" lon="2.68711">
        <ele>304</ele>
        <time>2021-08-28T11:15:37Z</time>
      </trkpt>
      <trkpt lat="44.54942" lon="2.68687">
        <ele>305</ele>
        <time>2021-08-28T11:15:40Z</time>
      </trkpt>
      <trkpt lat="44.5493" lon="2.68644">
        <ele>305</ele>
        <time>2021-08-28T11:15:47Z</time>
      </trkpt>
      <trkpt lat="44.5493" lon="2.68617">
        <ele>303</ele>
        <time>2021-08-28T11:15:50Z</time>
      </trkpt>
      <trkpt lat="44.54933" lon="2.68577">
        <ele>301</ele>
        <time>2021-08-28T11:15:55Z</time>
      </trkpt>
      <trkpt lat="44.54931" lon="2.68564">
        <ele>299</ele>
        <time>2021-08-28T11:15:57Z</time>
      </trkpt>
      <trkpt lat="44.54926" lon="2.68553">
        <ele>299</ele>
        <time>2021-08-28T11:15:59Z</time>
      </trkpt>
      <trkpt lat="44.5492" lon="2.68542">
        <ele>298</ele>
        <time>2021-08-28T11:16:01Z</time>
      </trkpt>
      <trkpt lat="44.54914" lon="2.68532">
        <ele>297</ele>
        <time>2021-08-28T11:16:03Z</time>
      </trkpt>
      <trkpt lat="44.54909" lon="2.6852">
        <ele>296</ele>
        <time>2021-08-28T11:16:05Z</time>
      </trkpt>
      <trkpt lat="44.54901" lon="2.68472">
        <ele>295</ele>
        <time>2021-08-28T11:16:11Z</time>
      </trkpt>
      <trkpt lat="44.54899" lon="2.68458">
        <ele>294</ele>
        <time>2021-08-28T11:16:13Z</time>
      </trkpt>
      <trkpt lat="44.54896" lon="2.68447">
        <ele>293</ele>
        <time>2021-08-28T11:16:15Z</time>
      </trkpt>
      <trkpt lat="44.54898" lon="2.68385">
        <ele>291</ele>
        <time>2021-08-28T11:16:23Z</time>
      </trkpt>
      <trkpt lat="44.54894" lon="2.68369">
        <ele>290</ele>
        <time>2021-08-28T11:16:25Z</time>
      </trkpt>
      <trkpt lat="44.5489" lon="2.68354">
        <ele>289</ele>
        <time>2021-08-28T11:16:27Z</time>
      </trkpt>
      <trkpt lat="44.54892" lon="2.68305">
        <ele>290</ele>
        <time>2021-08-28T11:16:33Z</time>
      </trkpt>
      <trkpt lat="44.54881" lon="2.68275">
        <ele>292</ele>
        <time>2021-08-28T11:16:37Z</time>
      </trkpt>
      <trkpt lat="44.54857" lon="2.68203">
        <ele>289</ele>
        <time>2021-08-28T11:16:47Z</time>
      </trkpt>
      <trkpt lat="44.54853" lon="2.68195">
        <ele>289</ele>
        <time>2021-08-28T11:16:49Z</time>
      </trkpt>
      <trkpt lat="44.5485" lon="2.68177">
        <ele>289</ele>
        <time>2021-08-28T11:16:53Z</time>
      </trkpt>
      <trkpt lat="44.54848" lon="2.68171">
        <ele>290</ele>
        <time>2021-08-28T11:16:55Z</time>
      </trkpt>
      <trkpt lat="44.5485" lon="2.68164">
        <ele>291</ele>
        <time>2021-08-28T11:17:38Z</time>
      </trkpt>
      <trkpt lat="44.54834" lon="2.68118">
        <ele>298</ele>
        <time>2021-08-28T11:17:50Z</time>
      </trkpt>
      <trkpt lat="44.54831" lon="2.68107">
        <ele>300</ele>
        <time>2021-08-28T11:17:52Z</time>
      </trkpt>
      <trkpt lat="44.54832" lon="2.6801">
        <ele>299</ele>
        <time>2021-08-28T11:18:07Z</time>
      </trkpt>
      <trkpt lat="44.54837" lon="2.67983">
        <ele>301</ele>
        <time>2021-08-28T11:18:11Z</time>
      </trkpt>
      <trkpt lat="44.54846" lon="2.67957">
        <ele>302</ele>
        <time>2021-08-28T11:18:16Z</time>
      </trkpt>
      <trkpt lat="44.5487" lon="2.67909">
        <ele>305</ele>
        <time>2021-08-28T11:18:24Z</time>
      </trkpt>
      <trkpt lat="44.55006" lon="2.67767">
        <ele>308</ele>
        <time>2021-08-28T11:18:48Z</time>
      </trkpt>
      <trkpt lat="44.55064" lon="2.67674">
        <ele>307</ele>
        <time>2021-08-28T11:19:07Z</time>
      </trkpt>
      <trkpt lat="44.55073" lon="2.67646">
        <ele>307</ele>
        <time>2021-08-28T11:19:13Z</time>
      </trkpt>
      <trkpt lat="44.55075" lon="2.67636">
        <ele>306</ele>
        <time>2021-08-28T11:19:15Z</time>
      </trkpt>
      <trkpt lat="44.55074" lon="2.67605">
        <ele>305</ele>
        <time>2021-08-28T11:19:23Z</time>
      </trkpt>
      <trkpt lat="44.55083" lon="2.67582">
        <ele>305</ele>
        <time>2021-08-28T11:19:27Z</time>
      </trkpt>
      <trkpt lat="44.55094" lon="2.67554">
        <ele>306</ele>
        <time>2021-08-28T11:19:34Z</time>
      </trkpt>
      <trkpt lat="44.5516" lon="2.67466">
        <ele>306</ele>
        <time>2021-08-28T11:19:56Z</time>
      </trkpt>
      <trkpt lat="44.55187" lon="2.67442">
        <ele>304</ele>
        <time>2021-08-28T11:20:10Z</time>
      </trkpt>
      <trkpt lat="44.55198" lon="2.67427">
        <ele>305</ele>
        <time>2021-08-28T11:21:21Z</time>
      </trkpt>
      <trkpt lat="44.55201" lon="2.67421">
        <ele>306</ele>
        <time>2021-08-28T11:21:27Z</time>
      </trkpt>
      <trkpt lat="44.55208" lon="2.67413">
        <ele>307</ele>
        <time>2021-08-28T11:21:35Z</time>
      </trkpt>
      <trkpt lat="44.55216" lon="2.674">
        <ele>308</ele>
        <time>2021-08-28T11:22:01Z</time>
      </trkpt>
      <trkpt lat="44.55219" lon="2.67396">
        <ele>309</ele>
        <time>2021-08-28T11:22:03Z</time>
      </trkpt>
      <trkpt lat="44.55223" lon="2.67387">
        <ele>309</ele>
        <time>2021-08-28T11:22:06Z</time>
      </trkpt>
      <trkpt lat="44.55226" lon="2.67381">
        <ele>309</ele>
        <time>2021-08-28T11:22:09Z</time>
      </trkpt>
      <trkpt lat="44.55226" lon="2.67374">
        <ele>310</ele>
        <time>2021-08-28T11:22:14Z</time>
      </trkpt>
      <trkpt lat="44.55228" lon="2.67367">
        <ele>312</ele>
        <time>2021-08-28T11:23:09Z</time>
      </trkpt>
      <trkpt lat="44.55229" lon="2.67357">
        <ele>313</ele>
        <time>2021-08-28T11:23:17Z</time>
      </trkpt>
      <trkpt lat="44.55228" lon="2.67259">
        <ele>312</ele>
        <time>2021-08-28T11:23:39Z</time>
      </trkpt>
      <trkpt lat="44.55228" lon="2.67242">
        <ele>312</ele>
        <time>2021-08-28T11:23:44Z</time>
      </trkpt>
      <trkpt lat="44.55224" lon="2.67222">
        <ele>311</ele>
        <time>2021-08-28T11:23:53Z</time>
      </trkpt>
      <trkpt lat="44.55227" lon="2.67214">
        <ele>311</ele>
        <time>2021-08-28T11:23:56Z</time>
      </trkpt>
      <trkpt lat="44.5523" lon="2.67209">
        <ele>311</ele>
        <time>2021-08-28T11:23:58Z</time>
      </trkpt>
      <trkpt lat="44.55242" lon="2.67205">
        <ele>311</ele>
        <time>2021-08-28T11:24:02Z</time>
      </trkpt>
      <trkpt lat="44.55248" lon="2.67201">
        <ele>311</ele>
        <time>2021-08-28T11:24:04Z</time>
      </trkpt>
      <trkpt lat="44.55272" lon="2.67195">
        <ele>314</ele>
        <time>2021-08-28T11:24:35Z</time>
      </trkpt>
      <trkpt lat="44.55322" lon="2.67178">
        <ele>317</ele>
        <time>2021-08-28T11:24:56Z</time>
      </trkpt>
      <trkpt lat="44.55333" lon="2.67176">
        <ele>314</ele>
        <time>2021-08-28T11:25:04Z</time>
      </trkpt>
      <trkpt lat="44.55344" lon="2.672">
        <ele>319</ele>
        <time>2021-08-28T11:25:28Z</time>
      </trkpt>
      <trkpt lat="44.55341" lon="2.67194">
        <ele>320</ele>
        <time>2021-08-28T11:25:56Z</time>
      </trkpt>
      <trkpt lat="44.5534" lon="2.67196">
        <ele>323</ele>
        <time>2021-08-28T11:30:31Z</time>
      </trkpt>
      <trkpt lat="44.55347" lon="2.67199">
        <ele>323</ele>
        <time>2021-08-28T11:30:38Z</time>
      </trkpt>
      <trkpt lat="44.55356" lon="2.67208">
        <ele>323</ele>
        <time>2021-08-28T11:30:50Z</time>
      </trkpt>
      <trkpt lat="44.5536" lon="2.67203">
        <ele>322</ele>
        <time>2021-08-28T11:31:11Z</time>
      </trkpt>
      <trkpt lat="44.55364" lon="2.67199">
        <ele>322</ele>
        <time>2021-08-28T11:31:17Z</time>
      </trkpt>
      <trkpt lat="44.55369" lon="2.67197">
        <ele>325</ele>
        <time>2021-08-28T11:31:55Z</time>
      </trkpt>
      <trkpt lat="44.55382" lon="2.67195">
        <ele>328</ele>
        <time>2021-08-28T11:32:32Z</time>
      </trkpt>
      <trkpt lat="44.55388" lon="2.67195">
        <ele>334</ele>
        <time>2021-08-28T11:32:41Z</time>
      </trkpt>
      <trkpt lat="44.55393" lon="2.67199">
        <ele>335</ele>
        <time>2021-08-28T11:32:46Z</time>
      </trkpt>
      <trkpt lat="44.55395" lon="2.67209">
        <ele>335</ele>
        <time>2021-08-28T11:32:59Z</time>
      </trkpt>
      <trkpt lat="44.55397" lon="2.67223">
        <ele>333</ele>
        <time>2021-08-28T11:33:21Z</time>
      </trkpt>
      <trkpt lat="44.55402" lon="2.67238">
        <ele>323</ele>
        <time>2021-08-28T11:33:30Z</time>
      </trkpt>
      <trkpt lat="44.55396" lon="2.67243">
        <ele>319</ele>
        <time>2021-08-28T11:34:06Z</time>
      </trkpt>
      <trkpt lat="44.554" lon="2.67249">
        <ele>319</ele>
        <time>2021-08-28T11:35:16Z</time>
      </trkpt>
      <trkpt lat="44.55405" lon="2.67253">
        <ele>321</ele>
        <time>2021-08-28T11:35:50Z</time>
      </trkpt>
      <trkpt lat="44.55409" lon="2.67259">
        <ele>321</ele>
        <time>2021-08-28T11:36:02Z</time>
      </trkpt>
      <trkpt lat="44.55417" lon="2.6727">
        <ele>318</ele>
        <time>2021-08-28T11:36:16Z</time>
      </trkpt>
      <trkpt lat="44.55425" lon="2.67276">
        <ele>317</ele>
        <time>2021-08-28T11:36:22Z</time>
      </trkpt>
      <trkpt lat="44.55443" lon="2.6729">
        <ele>312</ele>
        <time>2021-08-28T11:36:44Z</time>
      </trkpt>
      <trkpt lat="44.55448" lon="2.67293">
        <ele>314</ele>
        <time>2021-08-28T11:36:53Z</time>
      </trkpt>
      <trkpt lat="44.55449" lon="2.673">
        <ele>313</ele>
        <time>2021-08-28T11:36:59Z</time>
      </trkpt>
      <trkpt lat="44.55453" lon="2.67304">
        <ele>310</ele>
        <time>2021-08-28T11:37:05Z</time>
      </trkpt>
      <trkpt lat="44.55454" lon="2.6731">
        <ele>309</ele>
        <time>2021-08-28T11:37:11Z</time>
      </trkpt>
      <trkpt lat="44.55457" lon="2.67316">
        <ele>310</ele>
        <time>2021-08-28T11:37:16Z</time>
      </trkpt>
      <trkpt lat="44.55461" lon="2.6732">
        <ele>313</ele>
        <time>2021-08-28T11:37:22Z</time>
      </trkpt>
      <trkpt lat="44.55463" lon="2.67331">
        <ele>315</ele>
        <time>2021-08-28T11:37:38Z</time>
      </trkpt>
      <trkpt lat="44.55466" lon="2.67337">
        <ele>315</ele>
        <time>2021-08-28T11:38:03Z</time>
      </trkpt>
      <trkpt lat="44.55465" lon="2.67336">
        <ele>316</ele>
        <time>2021-08-28T11:39:32Z</time>
      </trkpt>
      <trkpt lat="44.55468" lon="2.67331">
        <ele>316</ele>
        <time>2021-08-28T11:39:45Z</time>
      </trkpt>
      <trkpt lat="44.55482" lon="2.67334">
        <ele>315</ele>
        <time>2021-08-28T11:40:10Z</time>
      </trkpt>
      <trkpt lat="44.55495" lon="2.67335">
        <ele>312</ele>
        <time>2021-08-28T11:40:19Z</time>
      </trkpt>
      <trkpt lat="44.55498" lon="2.67331">
        <ele>314</ele>
        <time>2021-08-28T11:40:28Z</time>
      </trkpt>
      <trkpt lat="44.55494" lon="2.67327">
        <ele>315</ele>
        <time>2021-08-28T11:40:37Z</time>
      </trkpt>
      <trkpt lat="44.5549" lon="2.67322">
        <ele>315</ele>
        <time>2021-08-28T11:40:43Z</time>
      </trkpt>
      <trkpt lat="44.5549" lon="2.67315">
        <ele>316</ele>
        <time>2021-08-28T11:40:48Z</time>
      </trkpt>
      <trkpt lat="44.55487" lon="2.67308">
        <ele>319</ele>
        <time>2021-08-28T11:41:01Z</time>
      </trkpt>
      <trkpt lat="44.55484" lon="2.67304">
        <ele>324</ele>
        <time>2021-08-28T11:41:23Z</time>
      </trkpt>
      <trkpt lat="44.5548" lon="2.67298">
        <ele>324</ele>
        <time>2021-08-28T11:41:54Z</time>
      </trkpt>
      <trkpt lat="44.55474" lon="2.67284">
        <ele>326</ele>
        <time>2021-08-28T11:42:23Z</time>
      </trkpt>
      <trkpt lat="44.55461" lon="2.67269">
        <ele>326</ele>
        <time>2021-08-28T11:42:49Z</time>
      </trkpt>
      <trkpt lat="44.55463" lon="2.67263">
        <ele>327</ele>
        <time>2021-08-28T11:43:08Z</time>
      </trkpt>
      <trkpt lat="44.55471" lon="2.67253">
        <ele>327</ele>
        <time>2021-08-28T11:43:18Z</time>
      </trkpt>
      <trkpt lat="44.55473" lon="2.67246">
        <ele>327</ele>
        <time>2021-08-28T11:43:22Z</time>
      </trkpt>
      <trkpt lat="44.55475" lon="2.67241">
        <ele>324</ele>
        <time>2021-08-28T11:43:37Z</time>
      </trkpt>
      <trkpt lat="44.55475" lon="2.67234">
        <ele>324</ele>
        <time>2021-08-28T11:43:43Z</time>
      </trkpt>
      <trkpt lat="44.55483" lon="2.67232">
        <ele>326</ele>
        <time>2021-08-28T11:44:45Z</time>
      </trkpt>
      <trkpt lat="44.55473" lon="2.67222">
        <ele>326</ele>
        <time>2021-08-28T11:45:00Z</time>
      </trkpt>
      <trkpt lat="44.55466" lon="2.6722">
        <ele>332</ele>
        <time>2021-08-28T11:45:03Z</time>
      </trkpt>
      <trkpt lat="44.55464" lon="2.67215">
        <ele>335</ele>
        <time>2021-08-28T11:45:09Z</time>
      </trkpt>
      <trkpt lat="44.5548" lon="2.67211">
        <ele>336</ele>
        <time>2021-08-28T11:45:26Z</time>
      </trkpt>
      <trkpt lat="44.55501" lon="2.67216">
        <ele>344</ele>
        <time>2021-08-28T11:45:53Z</time>
      </trkpt>
      <trkpt lat="44.55506" lon="2.67219">
        <ele>344</ele>
        <time>2021-08-28T11:45:55Z</time>
      </trkpt>
      <trkpt lat="44.55511" lon="2.67209">
        <ele>343</ele>
        <time>2021-08-28T11:46:18Z</time>
      </trkpt>
      <trkpt lat="44.55511" lon="2.67201">
        <ele>343</ele>
        <time>2021-08-28T11:46:22Z</time>
      </trkpt>
      <trkpt lat="44.55507" lon="2.67191">
        <ele>343</ele>
        <time>2021-08-28T11:46:28Z</time>
      </trkpt>
      <trkpt lat="44.55509" lon="2.67179">
        <ele>338</ele>
        <time>2021-08-28T11:46:38Z</time>
      </trkpt>
      <trkpt lat="44.55515" lon="2.67167">
        <ele>336</ele>
        <time>2021-08-28T11:46:48Z</time>
      </trkpt>
      <trkpt lat="44.55518" lon="2.67162">
        <ele>332</ele>
        <time>2021-08-28T11:46:53Z</time>
      </trkpt>
      <trkpt lat="44.55511" lon="2.6716">
        <ele>330</ele>
        <time>2021-08-28T11:47:00Z</time>
      </trkpt>
      <trkpt lat="44.55506" lon="2.67153">
        <ele>329</ele>
        <time>2021-08-28T11:47:13Z</time>
      </trkpt>
      <trkpt lat="44.555" lon="2.67155">
        <ele>329</ele>
        <time>2021-08-28T11:47:18Z</time>
      </trkpt>
      <trkpt lat="44.55494" lon="2.67156">
        <ele>329</ele>
        <time>2021-08-28T11:47:25Z</time>
      </trkpt>
      <trkpt lat="44.55491" lon="2.67162">
        <ele>329</ele>
        <time>2021-08-28T11:47:31Z</time>
      </trkpt>
      <trkpt lat="44.55486" lon="2.67162">
        <ele>330</ele>
        <time>2021-08-28T11:47:37Z</time>
      </trkpt>
      <trkpt lat="44.55482" lon="2.67165">
        <ele>330</ele>
        <time>2021-08-28T11:47:44Z</time>
      </trkpt>
      <trkpt lat="44.55477" lon="2.67171">
        <ele>330</ele>
        <time>2021-08-28T11:47:55Z</time>
      </trkpt>
      <trkpt lat="44.55475" lon="2.67178">
        <ele>331</ele>
        <time>2021-08-28T11:47:59Z</time>
      </trkpt>
      <trkpt lat="44.55469" lon="2.67185">
        <ele>331</ele>
        <time>2021-08-28T11:48:05Z</time>
      </trkpt>
      <trkpt lat="44.55463" lon="2.67188">
        <ele>331</ele>
        <time>2021-08-28T11:48:09Z</time>
      </trkpt>
      <trkpt lat="44.55458" lon="2.67194">
        <ele>328</ele>
        <time>2021-08-28T11:48:14Z</time>
      </trkpt>
      <trkpt lat="44.55449" lon="2.67191">
        <ele>330</ele>
        <time>2021-08-28T11:48:32Z</time>
      </trkpt>
      <trkpt lat="44.55444" lon="2.67194">
        <ele>331</ele>
        <time>2021-08-28T11:48:56Z</time>
      </trkpt>
      <trkpt lat="44.5544" lon="2.67198">
        <ele>329</ele>
        <time>2021-08-28T11:49:01Z</time>
      </trkpt>
      <trkpt lat="44.55432" lon="2.67195">
        <ele>326</ele>
        <time>2021-08-28T11:49:12Z</time>
      </trkpt>
      <trkpt lat="44.55427" lon="2.67198">
        <ele>324</ele>
        <time>2021-08-28T11:49:19Z</time>
      </trkpt>
      <trkpt lat="44.55419" lon="2.67203">
        <ele>324</ele>
        <time>2021-08-28T11:49:33Z</time>
      </trkpt>
      <trkpt lat="44.55408" lon="2.672">
        <ele>326</ele>
        <time>2021-08-28T11:49:52Z</time>
      </trkpt>
      <trkpt lat="44.55403" lon="2.67203">
        <ele>319</ele>
        <time>2021-08-28T11:50:10Z</time>
      </trkpt>
      <trkpt lat="44.55391" lon="2.67205">
        <ele>316</ele>
        <time>2021-08-28T11:50:27Z</time>
      </trkpt>
      <trkpt lat="44.55385" lon="2.67204">
        <ele>315</ele>
        <time>2021-08-28T11:50:33Z</time>
      </trkpt>
      <trkpt lat="44.55379" lon="2.67209">
        <ele>314</ele>
        <time>2021-08-28T11:50:40Z</time>
      </trkpt>
      <trkpt lat="44.55371" lon="2.67211">
        <ele>312</ele>
        <time>2021-08-28T11:50:51Z</time>
      </trkpt>
      <trkpt lat="44.55358" lon="2.67207">
        <ele>311</ele>
        <time>2021-08-28T11:51:04Z</time>
      </trkpt>
      <trkpt lat="44.55346" lon="2.67207">
        <ele>309</ele>
        <time>2021-08-28T11:51:26Z</time>
      </trkpt>
      <trkpt lat="44.55341" lon="2.67218">
        <ele>312</ele>
        <time>2021-08-28T11:52:06Z</time>
      </trkpt>
      <trkpt lat="44.55336" lon="2.67238">
        <ele>314</ele>
        <time>2021-08-28T11:52:40Z</time>
      </trkpt>
      <trkpt lat="44.55333" lon="2.67248">
        <ele>311</ele>
        <time>2021-08-28T11:52:49Z</time>
      </trkpt>
      <trkpt lat="44.55331" lon="2.67258">
        <ele>309</ele>
        <time>2021-08-28T11:52:56Z</time>
      </trkpt>
      <trkpt lat="44.55332" lon="2.67269">
        <ele>305</ele>
        <time>2021-08-28T11:53:04Z</time>
      </trkpt>
      <trkpt lat="44.55331" lon="2.67268">
        <ele>312</ele>
        <time>2021-08-28T11:54:09Z</time>
      </trkpt>
      <trkpt lat="44.55338" lon="2.67239">
        <ele>325</ele>
        <time>2021-08-28T11:54:42Z</time>
      </trkpt>
      <trkpt lat="44.55338" lon="2.67212">
        <ele>332</ele>
        <time>2021-08-28T11:55:13Z</time>
      </trkpt>
      <trkpt lat="44.55335" lon="2.67203">
        <ele>333</ele>
        <time>2021-08-28T12:00:02Z</time>
      </trkpt>
      <trkpt lat="44.55338" lon="2.67189">
        <ele>332</ele>
        <time>2021-08-28T12:00:16Z</time>
      </trkpt>
      <trkpt lat="44.55333" lon="2.67183">
        <ele>332</ele>
        <time>2021-08-28T12:00:26Z</time>
      </trkpt>
      <trkpt lat="44.55329" lon="2.67181">
        <ele>331</ele>
        <time>2021-08-28T12:00:28Z</time>
      </trkpt>
      <trkpt lat="44.55291" lon="2.67186">
        <ele>333</ele>
        <time>2021-08-28T12:00:44Z</time>
      </trkpt>
      <trkpt lat="44.55287" lon="2.67189">
        <ele>331</ele>
        <time>2021-08-28T12:00:48Z</time>
      </trkpt>
      <trkpt lat="44.55282" lon="2.67191">
        <ele>330</ele>
        <time>2021-08-28T12:01:00Z</time>
      </trkpt>
      <trkpt lat="44.55256" lon="2.67199">
        <ele>328</ele>
        <time>2021-08-28T12:01:12Z</time>
      </trkpt>
      <trkpt lat="44.5524" lon="2.67205">
        <ele>324</ele>
        <time>2021-08-28T12:01:19Z</time>
      </trkpt>
      <trkpt lat="44.55235" lon="2.67206">
        <ele>324</ele>
        <time>2021-08-28T12:01:21Z</time>
      </trkpt>
      <trkpt lat="44.5522" lon="2.67205">
        <ele>323</ele>
        <time>2021-08-28T12:01:27Z</time>
      </trkpt>
      <trkpt lat="44.55155" lon="2.67204">
        <ele>320</ele>
        <time>2021-08-28T12:01:57Z</time>
      </trkpt>
      <trkpt lat="44.55107" lon="2.67196">
        <ele>320</ele>
        <time>2021-08-28T12:02:24Z</time>
      </trkpt>
      <trkpt lat="44.55102" lon="2.67194">
        <ele>320</ele>
        <time>2021-08-28T12:02:27Z</time>
      </trkpt>
      <trkpt lat="44.55085" lon="2.67188">
        <ele>321</ele>
        <time>2021-08-28T12:02:36Z</time>
      </trkpt>
      <trkpt lat="44.55051" lon="2.67183">
        <ele>328</ele>
        <time>2021-08-28T12:02:56Z</time>
      </trkpt>
      <trkpt lat="44.55046" lon="2.67184">
        <ele>328</ele>
        <time>2021-08-28T12:02:59Z</time>
      </trkpt>
      <trkpt lat="44.55041" lon="2.67181">
        <ele>329</ele>
        <time>2021-08-28T12:03:02Z</time>
      </trkpt>
      <trkpt lat="44.55037" lon="2.67175">
        <ele>331</ele>
        <time>2021-08-28T12:03:06Z</time>
      </trkpt>
      <trkpt lat="44.55036" lon="2.67168">
        <ele>334</ele>
        <time>2021-08-28T12:03:10Z</time>
      </trkpt>
      <trkpt lat="44.55032" lon="2.67162">
        <ele>336</ele>
        <time>2021-08-28T12:03:14Z</time>
      </trkpt>
      <trkpt lat="44.55029" lon="2.67155">
        <ele>338</ele>
        <time>2021-08-28T12:03:18Z</time>
      </trkpt>
      <trkpt lat="44.5501" lon="2.67147">
        <ele>342</ele>
        <time>2021-08-28T12:03:26Z</time>
      </trkpt>
      <trkpt lat="44.55004" lon="2.67148">
        <ele>342</ele>
        <time>2021-08-28T12:03:28Z</time>
      </trkpt>
      <trkpt lat="44.54997" lon="2.67147">
        <ele>342</ele>
        <time>2021-08-28T12:03:30Z</time>
      </trkpt>
      <trkpt lat="44.54992" lon="2.67148">
        <ele>343</ele>
        <time>2021-08-28T12:03:32Z</time>
      </trkpt>
      <trkpt lat="44.54939" lon="2.6719">
        <ele>352</ele>
        <time>2021-08-28T12:04:03Z</time>
      </trkpt>
      <trkpt lat="44.54935" lon="2.67195">
        <ele>351</ele>
        <time>2021-08-28T12:04:06Z</time>
      </trkpt>
      <trkpt lat="44.5493" lon="2.67199">
        <ele>351</ele>
        <time>2021-08-28T12:04:09Z</time>
      </trkpt>
      <trkpt lat="44.54926" lon="2.67203">
        <ele>351</ele>
        <time>2021-08-28T12:04:12Z</time>
      </trkpt>
      <trkpt lat="44.54922" lon="2.67207">
        <ele>352</ele>
        <time>2021-08-28T12:04:15Z</time>
      </trkpt>
      <trkpt lat="44.54899" lon="2.67226">
        <ele>353</ele>
        <time>2021-08-28T12:04:32Z</time>
      </trkpt>
      <trkpt lat="44.54893" lon="2.67227">
        <ele>353</ele>
        <time>2021-08-28T12:04:36Z</time>
      </trkpt>
      <trkpt lat="44.54888" lon="2.6723">
        <ele>353</ele>
        <time>2021-08-28T12:04:39Z</time>
      </trkpt>
      <trkpt lat="44.54848" lon="2.67245">
        <ele>355</ele>
        <time>2021-08-28T12:05:03Z</time>
      </trkpt>
      <trkpt lat="44.54842" lon="2.67247">
        <ele>355</ele>
        <time>2021-08-28T12:05:06Z</time>
      </trkpt>
      <trkpt lat="44.54792" lon="2.67257">
        <ele>358</ele>
        <time>2021-08-28T12:05:33Z</time>
      </trkpt>
      <trkpt lat="44.5474" lon="2.67238">
        <ele>368</ele>
        <time>2021-08-28T12:06:04Z</time>
      </trkpt>
      <trkpt lat="44.54712" lon="2.67216">
        <ele>378</ele>
        <time>2021-08-28T12:06:21Z</time>
      </trkpt>
      <trkpt lat="44.54706" lon="2.67213">
        <ele>379</ele>
        <time>2021-08-28T12:06:25Z</time>
      </trkpt>
      <trkpt lat="44.54703" lon="2.67208">
        <ele>381</ele>
        <time>2021-08-28T12:06:28Z</time>
      </trkpt>
      <trkpt lat="44.54698" lon="2.67202">
        <ele>381</ele>
        <time>2021-08-28T12:06:30Z</time>
      </trkpt>
      <trkpt lat="44.5468" lon="2.67173">
        <ele>382</ele>
        <time>2021-08-28T12:06:39Z</time>
      </trkpt>
      <trkpt lat="44.54674" lon="2.67161">
        <ele>383</ele>
        <time>2021-08-28T12:06:46Z</time>
      </trkpt>
      <trkpt lat="44.54672" lon="2.67153">
        <ele>385</ele>
        <time>2021-08-28T12:06:50Z</time>
      </trkpt>
      <trkpt lat="44.5467" lon="2.67146">
        <ele>386</ele>
        <time>2021-08-28T12:06:53Z</time>
      </trkpt>
      <trkpt lat="44.54668" lon="2.67138">
        <ele>387</ele>
        <time>2021-08-28T12:06:56Z</time>
      </trkpt>
      <trkpt lat="44.54663" lon="2.67124">
        <ele>387</ele>
        <time>2021-08-28T12:07:01Z</time>
      </trkpt>
      <trkpt lat="44.54657" lon="2.67103">
        <ele>389</ele>
        <time>2021-08-28T12:07:08Z</time>
      </trkpt>
      <trkpt lat="44.54655" lon="2.67097">
        <ele>390</ele>
        <time>2021-08-28T12:07:10Z</time>
      </trkpt>
      <trkpt lat="44.54653" lon="2.6709">
        <ele>391</ele>
        <time>2021-08-28T12:07:12Z</time>
      </trkpt>
      <trkpt lat="44.54654" lon="2.67067">
        <ele>392</ele>
        <time>2021-08-28T12:07:18Z</time>
      </trkpt>
      <trkpt lat="44.54653" lon="2.67052">
        <ele>392</ele>
        <time>2021-08-28T12:07:22Z</time>
      </trkpt>
      <trkpt lat="44.54651" lon="2.67045">
        <ele>391</ele>
        <time>2021-08-28T12:07:25Z</time>
      </trkpt>
      <trkpt lat="44.54647" lon="2.66993">
        <ele>387</ele>
        <time>2021-08-28T12:07:46Z</time>
      </trkpt>
      <trkpt lat="44.54646" lon="2.66986">
        <ele>387</ele>
        <time>2021-08-28T12:07:49Z</time>
      </trkpt>
      <trkpt lat="44.5464" lon="2.66964">
        <ele>388</ele>
        <time>2021-08-28T12:07:58Z</time>
      </trkpt>
      <trkpt lat="44.54633" lon="2.66945">
        <ele>386</ele>
        <time>2021-08-28T12:08:05Z</time>
      </trkpt>
      <trkpt lat="44.54634" lon="2.669">
        <ele>384</ele>
        <time>2021-08-28T12:08:20Z</time>
      </trkpt>
      <trkpt lat="44.54633" lon="2.66891">
        <ele>384</ele>
        <time>2021-08-28T12:08:23Z</time>
      </trkpt>
      <trkpt lat="44.54628" lon="2.66879">
        <ele>384</ele>
        <time>2021-08-28T12:08:30Z</time>
      </trkpt>
      <trkpt lat="44.5462" lon="2.66859">
        <ele>383</ele>
        <time>2021-08-28T12:08:39Z</time>
      </trkpt>
      <trkpt lat="44.54617" lon="2.66852">
        <ele>383</ele>
        <time>2021-08-28T12:08:42Z</time>
      </trkpt>
      <trkpt lat="44.54613" lon="2.66846">
        <ele>383</ele>
        <time>2021-08-28T12:08:45Z</time>
      </trkpt>
      <trkpt lat="44.54606" lon="2.66833">
        <ele>383</ele>
        <time>2021-08-28T12:08:51Z</time>
      </trkpt>
      <trkpt lat="44.54603" lon="2.66827">
        <ele>383</ele>
        <time>2021-08-28T12:08:54Z</time>
      </trkpt>
      <trkpt lat="44.54599" lon="2.66823">
        <ele>384</ele>
        <time>2021-08-28T12:08:57Z</time>
      </trkpt>
      <trkpt lat="44.54596" lon="2.66816">
        <ele>384</ele>
        <time>2021-08-28T12:09:00Z</time>
      </trkpt>
      <trkpt lat="44.54585" lon="2.66781">
        <ele>390</ele>
        <time>2021-08-28T12:09:14Z</time>
      </trkpt>
      <trkpt lat="44.54583" lon="2.66772">
        <ele>391</ele>
        <time>2021-08-28T12:09:17Z</time>
      </trkpt>
      <trkpt lat="44.54568" lon="2.66736">
        <ele>390</ele>
        <time>2021-08-28T12:09:29Z</time>
      </trkpt>
      <trkpt lat="44.54555" lon="2.66686">
        <ele>389</ele>
        <time>2021-08-28T12:09:44Z</time>
      </trkpt>
      <trkpt lat="44.54554" lon="2.6668">
        <ele>389</ele>
        <time>2021-08-28T12:09:46Z</time>
      </trkpt>
      <trkpt lat="44.54546" lon="2.66659">
        <ele>391</ele>
        <time>2021-08-28T12:09:56Z</time>
      </trkpt>
      <trkpt lat="44.54531" lon="2.6665">
        <ele>391</ele>
        <time>2021-08-28T12:10:04Z</time>
      </trkpt>
      <trkpt lat="44.54525" lon="2.66645">
        <ele>391</ele>
        <time>2021-08-28T12:10:07Z</time>
      </trkpt>
      <trkpt lat="44.54502" lon="2.66626">
        <ele>391</ele>
        <time>2021-08-28T12:10:19Z</time>
      </trkpt>
      <trkpt lat="44.54498" lon="2.6662">
        <ele>390</ele>
        <time>2021-08-28T12:10:22Z</time>
      </trkpt>
      <trkpt lat="44.54496" lon="2.66614">
        <ele>390</ele>
        <time>2021-08-28T12:10:24Z</time>
      </trkpt>
      <trkpt lat="44.54492" lon="2.66607">
        <ele>391</ele>
        <time>2021-08-28T12:10:26Z</time>
      </trkpt>
      <trkpt lat="44.54489" lon="2.6659">
        <ele>394</ele>
        <time>2021-08-28T12:10:30Z</time>
      </trkpt>
      <trkpt lat="44.54492" lon="2.66575">
        <ele>394</ele>
        <time>2021-08-28T12:10:34Z</time>
      </trkpt>
      <trkpt lat="44.54498" lon="2.66562">
        <ele>395</ele>
        <time>2021-08-28T12:10:39Z</time>
      </trkpt>
      <trkpt lat="44.54504" lon="2.66546">
        <ele>395</ele>
        <time>2021-08-28T12:10:45Z</time>
      </trkpt>
      <trkpt lat="44.54508" lon="2.66525">
        <ele>395</ele>
        <time>2021-08-28T12:10:52Z</time>
      </trkpt>
      <trkpt lat="44.54506" lon="2.66479">
        <ele>392</ele>
        <time>2021-08-28T12:11:07Z</time>
      </trkpt>
      <trkpt lat="44.545" lon="2.66445">
        <ele>390</ele>
        <time>2021-08-28T12:11:19Z</time>
      </trkpt>
      <trkpt lat="44.54497" lon="2.66432">
        <ele>390</ele>
        <time>2021-08-28T12:11:23Z</time>
      </trkpt>
      <trkpt lat="44.54496" lon="2.66418">
        <ele>391</ele>
        <time>2021-08-28T12:11:27Z</time>
      </trkpt>
      <trkpt lat="44.54493" lon="2.66388">
        <ele>389</ele>
        <time>2021-08-28T12:11:37Z</time>
      </trkpt>
      <trkpt lat="44.54481" lon="2.66328">
        <ele>390</ele>
        <time>2021-08-28T12:11:58Z</time>
      </trkpt>
      <trkpt lat="44.54475" lon="2.66296">
        <ele>394</ele>
        <time>2021-08-28T12:12:10Z</time>
      </trkpt>
      <trkpt lat="44.54472" lon="2.66289">
        <ele>394</ele>
        <time>2021-08-28T12:12:13Z</time>
      </trkpt>
      <trkpt lat="44.5447" lon="2.66283">
        <ele>395</ele>
        <time>2021-08-28T12:12:16Z</time>
      </trkpt>
      <trkpt lat="44.54465" lon="2.66269">
        <ele>396</ele>
        <time>2021-08-28T12:12:22Z</time>
      </trkpt>
      <trkpt lat="44.54462" lon="2.6626">
        <ele>398</ele>
        <time>2021-08-28T12:12:28Z</time>
      </trkpt>
      <trkpt lat="44.54457" lon="2.66251">
        <ele>399</ele>
        <time>2021-08-28T12:12:33Z</time>
      </trkpt>
      <trkpt lat="44.54455" lon="2.66244">
        <ele>401</ele>
        <time>2021-08-28T12:12:37Z</time>
      </trkpt>
      <trkpt lat="44.54448" lon="2.66233">
        <ele>402</ele>
        <time>2021-08-28T12:12:42Z</time>
      </trkpt>
      <trkpt lat="44.54446" lon="2.66227">
        <ele>403</ele>
        <time>2021-08-28T12:12:44Z</time>
      </trkpt>
      <trkpt lat="44.54438" lon="2.66215">
        <ele>403</ele>
        <time>2021-08-28T12:12:49Z</time>
      </trkpt>
      <trkpt lat="44.54435" lon="2.66211">
        <ele>404</ele>
        <time>2021-08-28T12:12:52Z</time>
      </trkpt>
      <trkpt lat="44.54407" lon="2.66163">
        <ele>412</ele>
        <time>2021-08-28T12:13:14Z</time>
      </trkpt>
      <trkpt lat="44.54396" lon="2.6615">
        <ele>413</ele>
        <time>2021-08-28T12:13:20Z</time>
      </trkpt>
      <trkpt lat="44.54373" lon="2.66113">
        <ele>418</ele>
        <time>2021-08-28T12:13:33Z</time>
      </trkpt>
      <trkpt lat="44.5435" lon="2.6607">
        <ele>422</ele>
        <time>2021-08-28T12:13:48Z</time>
      </trkpt>
      <trkpt lat="44.54323" lon="2.66013">
        <ele>424</ele>
        <time>2021-08-28T12:14:11Z</time>
      </trkpt>
      <trkpt lat="44.54321" lon="2.66006">
        <ele>425</ele>
        <time>2021-08-28T12:14:14Z</time>
      </trkpt>
      <trkpt lat="44.54318" lon="2.65998">
        <ele>425</ele>
        <time>2021-08-28T12:14:18Z</time>
      </trkpt>
      <trkpt lat="44.54284" lon="2.65922">
        <ele>432</ele>
        <time>2021-08-28T12:14:49Z</time>
      </trkpt>
      <trkpt lat="44.5428" lon="2.65905">
        <ele>434</ele>
        <time>2021-08-28T12:14:55Z</time>
      </trkpt>
      <trkpt lat="44.54276" lon="2.65864">
        <ele>439</ele>
        <time>2021-08-28T12:15:10Z</time>
      </trkpt>
      <trkpt lat="44.54279" lon="2.6584">
        <ele>441</ele>
        <time>2021-08-28T12:15:19Z</time>
      </trkpt>
      <trkpt lat="44.54281" lon="2.65832">
        <ele>441</ele>
        <time>2021-08-28T12:15:23Z</time>
      </trkpt>
      <trkpt lat="44.54285" lon="2.65818">
        <ele>442</ele>
        <time>2021-08-28T12:15:29Z</time>
      </trkpt>
      <trkpt lat="44.54294" lon="2.65791">
        <ele>444</ele>
        <time>2021-08-28T12:15:41Z</time>
      </trkpt>
      <trkpt lat="44.543" lon="2.65771">
        <ele>445</ele>
        <time>2021-08-28T12:15:50Z</time>
      </trkpt>
      <trkpt lat="44.54301" lon="2.65764">
        <ele>445</ele>
        <time>2021-08-28T12:15:53Z</time>
      </trkpt>
      <trkpt lat="44.54305" lon="2.65734">
        <ele>446</ele>
        <time>2021-08-28T12:16:05Z</time>
      </trkpt>
      <trkpt lat="44.54305" lon="2.65726">
        <ele>446</ele>
        <time>2021-08-28T12:16:08Z</time>
      </trkpt>
      <trkpt lat="44.54305" lon="2.65703">
        <ele>446</ele>
        <time>2021-08-28T12:16:17Z</time>
      </trkpt>
      <trkpt lat="44.54305" lon="2.65696">
        <ele>446</ele>
        <time>2021-08-28T12:16:20Z</time>
      </trkpt>
      <trkpt lat="44.54302" lon="2.65681">
        <ele>448</ele>
        <time>2021-08-28T12:16:27Z</time>
      </trkpt>
      <trkpt lat="44.54291" lon="2.65646">
        <ele>450</ele>
        <time>2021-08-28T12:16:42Z</time>
      </trkpt>
      <trkpt lat="44.54277" lon="2.65624">
        <ele>452</ele>
        <time>2021-08-28T12:16:54Z</time>
      </trkpt>
      <trkpt lat="44.54274" lon="2.65619">
        <ele>452</ele>
        <time>2021-08-28T12:16:57Z</time>
      </trkpt>
      <trkpt lat="44.5427" lon="2.65614">
        <ele>453</ele>
        <time>2021-08-28T12:17:00Z</time>
      </trkpt>
      <trkpt lat="44.54265" lon="2.65608">
        <ele>453</ele>
        <time>2021-08-28T12:17:03Z</time>
      </trkpt>
      <trkpt lat="44.54248" lon="2.65577">
        <ele>457</ele>
        <time>2021-08-28T12:17:18Z</time>
      </trkpt>
      <trkpt lat="44.54241" lon="2.65545">
        <ele>460</ele>
        <time>2021-08-28T12:17:30Z</time>
      </trkpt>
      <trkpt lat="44.54234" lon="2.65489">
        <ele>464</ele>
        <time>2021-08-28T12:17:51Z</time>
      </trkpt>
      <trkpt lat="44.54232" lon="2.6548">
        <ele>464</ele>
        <time>2021-08-28T12:17:54Z</time>
      </trkpt>
      <trkpt lat="44.54227" lon="2.65463">
        <ele>464</ele>
        <time>2021-08-28T12:18:00Z</time>
      </trkpt>
      <trkpt lat="44.54196" lon="2.65397">
        <ele>456</ele>
        <time>2021-08-28T12:18:30Z</time>
      </trkpt>
      <trkpt lat="44.54177" lon="2.6536">
        <ele>458</ele>
        <time>2021-08-28T12:18:45Z</time>
      </trkpt>
      <trkpt lat="44.54159" lon="2.65327">
        <ele>459</ele>
        <time>2021-08-28T12:18:59Z</time>
      </trkpt>
      <trkpt lat="44.54156" lon="2.65321">
        <ele>460</ele>
        <time>2021-08-28T12:19:02Z</time>
      </trkpt>
      <trkpt lat="44.5415" lon="2.65309">
        <ele>460</ele>
        <time>2021-08-28T12:19:08Z</time>
      </trkpt>
      <trkpt lat="44.54145" lon="2.65295">
        <ele>460</ele>
        <time>2021-08-28T12:19:13Z</time>
      </trkpt>
      <trkpt lat="44.54136" lon="2.65269">
        <ele>463</ele>
        <time>2021-08-28T12:19:21Z</time>
      </trkpt>
      <trkpt lat="44.54134" lon="2.65234">
        <ele>469</ele>
        <time>2021-08-28T12:19:34Z</time>
      </trkpt>
      <trkpt lat="44.54135" lon="2.65226">
        <ele>470</ele>
        <time>2021-08-28T12:19:37Z</time>
      </trkpt>
      <trkpt lat="44.5414" lon="2.65212">
        <ele>473</ele>
        <time>2021-08-28T12:19:42Z</time>
      </trkpt>
      <trkpt lat="44.54168" lon="2.65149">
        <ele>483</ele>
        <time>2021-08-28T12:20:09Z</time>
      </trkpt>
      <trkpt lat="44.54169" lon="2.65126">
        <ele>486</ele>
        <time>2021-08-28T12:20:18Z</time>
      </trkpt>
      <trkpt lat="44.54167" lon="2.65111">
        <ele>488</ele>
        <time>2021-08-28T12:20:23Z</time>
      </trkpt>
      <trkpt lat="44.54162" lon="2.65096">
        <ele>490</ele>
        <time>2021-08-28T12:20:29Z</time>
      </trkpt>
      <trkpt lat="44.54149" lon="2.65077">
        <ele>493</ele>
        <time>2021-08-28T12:20:39Z</time>
      </trkpt>
      <trkpt lat="44.54117" lon="2.65055">
        <ele>495</ele>
        <time>2021-08-28T12:20:57Z</time>
      </trkpt>
      <trkpt lat="44.54101" lon="2.65042">
        <ele>496</ele>
        <time>2021-08-28T12:21:05Z</time>
      </trkpt>
      <trkpt lat="44.54098" lon="2.65037">
        <ele>496</ele>
        <time>2021-08-28T12:21:07Z</time>
      </trkpt>
      <trkpt lat="44.54094" lon="2.65032">
        <ele>496</ele>
        <time>2021-08-28T12:21:09Z</time>
      </trkpt>
      <trkpt lat="44.54091" lon="2.65027">
        <ele>496</ele>
        <time>2021-08-28T12:21:11Z</time>
      </trkpt>
      <trkpt lat="44.54088" lon="2.65021">
        <ele>496</ele>
        <time>2021-08-28T12:21:13Z</time>
      </trkpt>
      <trkpt lat="44.54074" lon="2.64993">
        <ele>498</ele>
        <time>2021-08-28T12:21:23Z</time>
      </trkpt>
      <trkpt lat="44.54063" lon="2.64975">
        <ele>499</ele>
        <time>2021-08-28T12:21:29Z</time>
      </trkpt>
      <trkpt lat="44.54038" lon="2.64958">
        <ele>500</ele>
        <time>2021-08-28T12:21:39Z</time>
      </trkpt>
      <trkpt lat="44.54033" lon="2.64956">
        <ele>500</ele>
        <time>2021-08-28T12:21:41Z</time>
      </trkpt>
      <trkpt lat="44.54028" lon="2.64953">
        <ele>500</ele>
        <time>2021-08-28T12:21:43Z</time>
      </trkpt>
      <trkpt lat="44.54023" lon="2.64948">
        <ele>500</ele>
        <time>2021-08-28T12:21:46Z</time>
      </trkpt>
      <trkpt lat="44.53993" lon="2.6485">
        <ele>498</ele>
        <time>2021-08-28T12:22:09Z</time>
      </trkpt>
      <trkpt lat="44.53982" lon="2.64799">
        <ele>499</ele>
        <time>2021-08-28T12:22:17Z</time>
      </trkpt>
      <trkpt lat="44.53983" lon="2.64776">
        <ele>501</ele>
        <time>2021-08-28T12:22:21Z</time>
      </trkpt>
      <trkpt lat="44.53986" lon="2.64767">
        <ele>502</ele>
        <time>2021-08-28T12:22:23Z</time>
      </trkpt>
      <trkpt lat="44.53989" lon="2.6476">
        <ele>503</ele>
        <time>2021-08-28T12:22:25Z</time>
      </trkpt>
      <trkpt lat="44.53994" lon="2.64754">
        <ele>504</ele>
        <time>2021-08-28T12:22:27Z</time>
      </trkpt>
      <trkpt lat="44.54007" lon="2.6475">
        <ele>503</ele>
        <time>2021-08-28T12:22:31Z</time>
      </trkpt>
      <trkpt lat="44.54037" lon="2.64745">
        <ele>508</ele>
        <time>2021-08-28T12:22:39Z</time>
      </trkpt>
      <trkpt lat="44.54043" lon="2.64743">
        <ele>509</ele>
        <time>2021-08-28T12:22:41Z</time>
      </trkpt>
      <trkpt lat="44.54078" lon="2.64706">
        <ele>506</ele>
        <time>2021-08-28T12:22:55Z</time>
      </trkpt>
      <trkpt lat="44.54098" lon="2.64701">
        <ele>509</ele>
        <time>2021-08-28T12:23:01Z</time>
      </trkpt>
      <trkpt lat="44.54111" lon="2.64693">
        <ele>510</ele>
        <time>2021-08-28T12:23:05Z</time>
      </trkpt>
      <trkpt lat="44.54117" lon="2.64688">
        <ele>510</ele>
        <time>2021-08-28T12:23:07Z</time>
      </trkpt>
      <trkpt lat="44.54126" lon="2.64672">
        <ele>511</ele>
        <time>2021-08-28T12:23:11Z</time>
      </trkpt>
      <trkpt lat="44.54134" lon="2.64626">
        <ele>513</ele>
        <time>2021-08-28T12:23:21Z</time>
      </trkpt>
      <trkpt lat="44.54137" lon="2.64617">
        <ele>513</ele>
        <time>2021-08-28T12:23:23Z</time>
      </trkpt>
      <trkpt lat="44.54145" lon="2.64602">
        <ele>514</ele>
        <time>2021-08-28T12:23:27Z</time>
      </trkpt>
      <trkpt lat="44.54151" lon="2.64595">
        <ele>514</ele>
        <time>2021-08-28T12:23:29Z</time>
      </trkpt>
      <trkpt lat="44.54157" lon="2.64592">
        <ele>514</ele>
        <time>2021-08-28T12:23:31Z</time>
      </trkpt>
      <trkpt lat="44.54198" lon="2.64589">
        <ele>515</ele>
        <time>2021-08-28T12:23:43Z</time>
      </trkpt>
      <trkpt lat="44.54213" lon="2.64584">
        <ele>515</ele>
        <time>2021-08-28T12:23:47Z</time>
      </trkpt>
      <trkpt lat="44.5422" lon="2.6458">
        <ele>515</ele>
        <time>2021-08-28T12:23:49Z</time>
      </trkpt>
      <trkpt lat="44.54232" lon="2.64567">
        <ele>515</ele>
        <time>2021-08-28T12:23:53Z</time>
      </trkpt>
      <trkpt lat="44.54241" lon="2.6455">
        <ele>514</ele>
        <time>2021-08-28T12:23:57Z</time>
      </trkpt>
      <trkpt lat="44.54248" lon="2.64517">
        <ele>514</ele>
        <time>2021-08-28T12:24:03Z</time>
      </trkpt>
      <trkpt lat="44.54247" lon="2.64493">
        <ele>515</ele>
        <time>2021-08-28T12:24:07Z</time>
      </trkpt>
      <trkpt lat="44.54239" lon="2.64469">
        <ele>515</ele>
        <time>2021-08-28T12:24:11Z</time>
      </trkpt>
      <trkpt lat="44.5423" lon="2.64454">
        <ele>516</ele>
        <time>2021-08-28T12:24:14Z</time>
      </trkpt>
      <trkpt lat="44.54218" lon="2.64444">
        <ele>516</ele>
        <time>2021-08-28T12:24:17Z</time>
      </trkpt>
      <trkpt lat="44.54193" lon="2.64435">
        <ele>516</ele>
        <time>2021-08-28T12:24:22Z</time>
      </trkpt>
      <trkpt lat="44.54144" lon="2.64426">
        <ele>515</ele>
        <time>2021-08-28T12:24:31Z</time>
      </trkpt>
      <trkpt lat="44.54133" lon="2.64422">
        <ele>515</ele>
        <time>2021-08-28T12:24:33Z</time>
      </trkpt>
      <trkpt lat="44.54123" lon="2.64414">
        <ele>515</ele>
        <time>2021-08-28T12:24:35Z</time>
      </trkpt>
      <trkpt lat="44.54119" lon="2.64408">
        <ele>515</ele>
        <time>2021-08-28T12:24:36Z</time>
      </trkpt>
      <trkpt lat="44.54116" lon="2.64401">
        <ele>515</ele>
        <time>2021-08-28T12:24:37Z</time>
      </trkpt>
      <trkpt lat="44.54113" lon="2.64385">
        <ele>515</ele>
        <time>2021-08-28T12:24:39Z</time>
      </trkpt>
      <trkpt lat="44.54113" lon="2.64378">
        <ele>515</ele>
        <time>2021-08-28T12:24:40Z</time>
      </trkpt>
      <trkpt lat="44.54116" lon="2.64363">
        <ele>515</ele>
        <time>2021-08-28T12:24:42Z</time>
      </trkpt>
      <trkpt lat="44.5412" lon="2.6435">
        <ele>516</ele>
        <time>2021-08-28T12:24:44Z</time>
      </trkpt>
      <trkpt lat="44.54127" lon="2.64339">
        <ele>517</ele>
        <time>2021-08-28T12:24:46Z</time>
      </trkpt>
      <trkpt lat="44.54143" lon="2.64327">
        <ele>518</ele>
        <time>2021-08-28T12:24:50Z</time>
      </trkpt>
      <trkpt lat="44.5415" lon="2.64321">
        <ele>519</ele>
        <time>2021-08-28T12:24:52Z</time>
      </trkpt>
      <trkpt lat="44.54164" lon="2.64292">
        <ele>518</ele>
        <time>2021-08-28T12:24:58Z</time>
      </trkpt>
      <trkpt lat="44.54211" lon="2.64132">
        <ele>517</ele>
        <time>2021-08-28T12:25:28Z</time>
      </trkpt>
      <trkpt lat="44.54214" lon="2.64125">
        <ele>518</ele>
        <time>2021-08-28T12:25:30Z</time>
      </trkpt>
      <trkpt lat="44.54217" lon="2.64119">
        <ele>518</ele>
        <time>2021-08-28T12:25:32Z</time>
      </trkpt>
      <trkpt lat="44.54214" lon="2.64113">
        <ele>519</ele>
        <time>2021-08-28T12:26:42Z</time>
      </trkpt>
      <trkpt lat="44.54215" lon="2.64106">
        <ele>518</ele>
        <time>2021-08-28T12:26:45Z</time>
      </trkpt>
      <trkpt lat="44.5422" lon="2.64093">
        <ele>519</ele>
        <time>2021-08-28T12:26:50Z</time>
      </trkpt>
      <trkpt lat="44.54222" lon="2.64085">
        <ele>519</ele>
        <time>2021-08-28T12:26:52Z</time>
      </trkpt>
      <trkpt lat="44.54224" lon="2.64077">
        <ele>519</ele>
        <time>2021-08-28T12:26:54Z</time>
      </trkpt>
      <trkpt lat="44.54235" lon="2.64038">
        <ele>521</ele>
        <time>2021-08-28T12:27:02Z</time>
      </trkpt>
      <trkpt lat="44.54236" lon="2.64027">
        <ele>520</ele>
        <time>2021-08-28T12:27:04Z</time>
      </trkpt>
      <trkpt lat="44.54225" lon="2.63979">
        <ele>521</ele>
        <time>2021-08-28T12:27:12Z</time>
      </trkpt>
      <trkpt lat="44.54227" lon="2.63959">
        <ele>520</ele>
        <time>2021-08-28T12:27:15Z</time>
      </trkpt>
      <trkpt lat="44.54235" lon="2.63937">
        <ele>520</ele>
        <time>2021-08-28T12:27:19Z</time>
      </trkpt>
      <trkpt lat="44.54241" lon="2.63927">
        <ele>520</ele>
        <time>2021-08-28T12:27:21Z</time>
      </trkpt>
      <trkpt lat="44.54256" lon="2.63915">
        <ele>519</ele>
        <time>2021-08-28T12:27:25Z</time>
      </trkpt>
      <trkpt lat="44.54271" lon="2.63909">
        <ele>518</ele>
        <time>2021-08-28T12:27:29Z</time>
      </trkpt>
      <trkpt lat="44.54294" lon="2.63895">
        <ele>518</ele>
        <time>2021-08-28T12:27:35Z</time>
      </trkpt>
      <trkpt lat="44.54307" lon="2.63881">
        <ele>516</ele>
        <time>2021-08-28T12:27:39Z</time>
      </trkpt>
      <trkpt lat="44.54312" lon="2.63872">
        <ele>516</ele>
        <time>2021-08-28T12:27:41Z</time>
      </trkpt>
      <trkpt lat="44.54315" lon="2.63852">
        <ele>515</ele>
        <time>2021-08-28T12:27:45Z</time>
      </trkpt>
      <trkpt lat="44.54321" lon="2.63791">
        <ele>516</ele>
        <time>2021-08-28T12:27:54Z</time>
      </trkpt>
      <trkpt lat="44.54322" lon="2.63785">
        <ele>516</ele>
        <time>2021-08-28T12:27:55Z</time>
      </trkpt>
      <trkpt lat="44.54327" lon="2.63774">
        <ele>516</ele>
        <time>2021-08-28T12:27:57Z</time>
      </trkpt>
      <trkpt lat="44.5438" lon="2.63707">
        <ele>519</ele>
        <time>2021-08-28T12:28:13Z</time>
      </trkpt>
      <trkpt lat="44.54388" lon="2.63686">
        <ele>521</ele>
        <time>2021-08-28T12:28:17Z</time>
      </trkpt>
      <trkpt lat="44.54397" lon="2.63653">
        <ele>523</ele>
        <time>2021-08-28T12:28:23Z</time>
      </trkpt>
      <trkpt lat="44.54398" lon="2.63647">
        <ele>523</ele>
        <time>2021-08-28T12:28:24Z</time>
      </trkpt>
      <trkpt lat="44.54399" lon="2.63636">
        <ele>523</ele>
        <time>2021-08-28T12:28:26Z</time>
      </trkpt>
      <trkpt lat="44.54394" lon="2.63624">
        <ele>524</ele>
        <time>2021-08-28T12:28:28Z</time>
      </trkpt>
      <trkpt lat="44.54388" lon="2.63617">
        <ele>524</ele>
        <time>2021-08-28T12:28:30Z</time>
      </trkpt>
      <trkpt lat="44.5435" lon="2.63599">
        <ele>521</ele>
        <time>2021-08-28T12:28:40Z</time>
      </trkpt>
      <trkpt lat="44.54343" lon="2.6359">
        <ele>520</ele>
        <time>2021-08-28T12:28:42Z</time>
      </trkpt>
      <trkpt lat="44.5434" lon="2.63584">
        <ele>520</ele>
        <time>2021-08-28T12:28:43Z</time>
      </trkpt>
      <trkpt lat="44.54337" lon="2.63572">
        <ele>521</ele>
        <time>2021-08-28T12:28:45Z</time>
      </trkpt>
      <trkpt lat="44.54336" lon="2.63559">
        <ele>521</ele>
        <time>2021-08-28T12:28:47Z</time>
      </trkpt>
      <trkpt lat="44.54338" lon="2.63542">
        <ele>521</ele>
        <time>2021-08-28T12:28:50Z</time>
      </trkpt>
      <trkpt lat="44.54342" lon="2.63533">
        <ele>520</ele>
        <time>2021-08-28T12:28:52Z</time>
      </trkpt>
      <trkpt lat="44.54347" lon="2.63523">
        <ele>519</ele>
        <time>2021-08-28T12:28:54Z</time>
      </trkpt>
      <trkpt lat="44.54354" lon="2.63515">
        <ele>518</ele>
        <time>2021-08-28T12:28:56Z</time>
      </trkpt>
      <trkpt lat="44.54436" lon="2.63453">
        <ele>517</ele>
        <time>2021-08-28T12:29:17Z</time>
      </trkpt>
      <trkpt lat="44.54444" lon="2.63444">
        <ele>517</ele>
        <time>2021-08-28T12:29:19Z</time>
      </trkpt>
      <trkpt lat="44.54451" lon="2.63433">
        <ele>518</ele>
        <time>2021-08-28T12:29:21Z</time>
      </trkpt>
      <trkpt lat="44.54453" lon="2.63427">
        <ele>518</ele>
        <time>2021-08-28T12:29:22Z</time>
      </trkpt>
      <trkpt lat="44.54452" lon="2.63415">
        <ele>518</ele>
        <time>2021-08-28T12:29:24Z</time>
      </trkpt>
      <trkpt lat="44.54449" lon="2.63409">
        <ele>518</ele>
        <time>2021-08-28T12:29:25Z</time>
      </trkpt>
      <trkpt lat="44.54445" lon="2.63403">
        <ele>518</ele>
        <time>2021-08-28T12:29:26Z</time>
      </trkpt>
      <trkpt lat="44.54431" lon="2.63392">
        <ele>518</ele>
        <time>2021-08-28T12:29:29Z</time>
      </trkpt>
      <trkpt lat="44.54426" lon="2.63387">
        <ele>519</ele>
        <time>2021-08-28T12:29:30Z</time>
      </trkpt>
      <trkpt lat="44.54422" lon="2.63381">
        <ele>519</ele>
        <time>2021-08-28T12:29:31Z</time>
      </trkpt>
      <trkpt lat="44.54414" lon="2.63346">
        <ele>521</ele>
        <time>2021-08-28T12:29:36Z</time>
      </trkpt>
      <trkpt lat="44.54408" lon="2.63302">
        <ele>523</ele>
        <time>2021-08-28T12:29:42Z</time>
      </trkpt>
      <trkpt lat="44.54403" lon="2.63291">
        <ele>524</ele>
        <time>2021-08-28T12:29:44Z</time>
      </trkpt>
      <trkpt lat="44.54395" lon="2.63287">
        <ele>523</ele>
        <time>2021-08-28T12:29:46Z</time>
      </trkpt>
      <trkpt lat="44.54353" lon="2.63293">
        <ele>519</ele>
        <time>2021-08-28T12:29:55Z</time>
      </trkpt>
      <trkpt lat="44.54334" lon="2.63283">
        <ele>519</ele>
        <time>2021-08-28T12:29:59Z</time>
      </trkpt>
      <trkpt lat="44.54324" lon="2.63284">
        <ele>520</ele>
        <time>2021-08-28T12:30:01Z</time>
      </trkpt>
      <trkpt lat="44.54299" lon="2.63299">
        <ele>520</ele>
        <time>2021-08-28T12:30:07Z</time>
      </trkpt>
      <trkpt lat="44.54284" lon="2.63305">
        <ele>518</ele>
        <time>2021-08-28T12:30:10Z</time>
      </trkpt>
      <trkpt lat="44.54279" lon="2.63306">
        <ele>518</ele>
        <time>2021-08-28T12:30:11Z</time>
      </trkpt>
      <trkpt lat="44.54273" lon="2.63305">
        <ele>518</ele>
        <time>2021-08-28T12:30:12Z</time>
      </trkpt>
      <trkpt lat="44.54266" lon="2.63298">
        <ele>515</ele>
        <time>2021-08-28T12:30:14Z</time>
      </trkpt>
      <trkpt lat="44.54239" lon="2.63231">
        <ele>509</ele>
        <time>2021-08-28T12:30:24Z</time>
      </trkpt>
      <trkpt lat="44.54213" lon="2.63193">
        <ele>512</ele>
        <time>2021-08-28T12:30:30Z</time>
      </trkpt>
      <trkpt lat="44.54203" lon="2.63171">
        <ele>513</ele>
        <time>2021-08-28T12:30:33Z</time>
      </trkpt>
      <trkpt lat="44.54195" lon="2.63139">
        <ele>514</ele>
        <time>2021-08-28T12:30:37Z</time>
      </trkpt>
      <trkpt lat="44.54193" lon="2.63132">
        <ele>513</ele>
        <time>2021-08-28T12:30:38Z</time>
      </trkpt>
      <trkpt lat="44.5419" lon="2.63126">
        <ele>513</ele>
        <time>2021-08-28T12:30:39Z</time>
      </trkpt>
      <trkpt lat="44.54185" lon="2.63122">
        <ele>513</ele>
        <time>2021-08-28T12:30:40Z</time>
      </trkpt>
      <trkpt lat="44.54153" lon="2.63115">
        <ele>516</ele>
        <time>2021-08-28T12:30:46Z</time>
      </trkpt>
      <trkpt lat="44.54134" lon="2.63115">
        <ele>517</ele>
        <time>2021-08-28T12:30:50Z</time>
      </trkpt>
      <trkpt lat="44.54129" lon="2.63116">
        <ele>517</ele>
        <time>2021-08-28T12:30:51Z</time>
      </trkpt>
      <trkpt lat="44.54106" lon="2.63129">
        <ele>517</ele>
        <time>2021-08-28T12:30:57Z</time>
      </trkpt>
      <trkpt lat="44.54061" lon="2.63184">
        <ele>512</ele>
        <time>2021-08-28T12:31:15Z</time>
      </trkpt>
      <trkpt lat="44.54054" lon="2.63198">
        <ele>510</ele>
        <time>2021-08-28T12:31:19Z</time>
      </trkpt>
      <trkpt lat="44.54039" lon="2.63218">
        <ele>508</ele>
        <time>2021-08-28T12:31:25Z</time>
      </trkpt>
      <trkpt lat="44.54032" lon="2.63223">
        <ele>508</ele>
        <time>2021-08-28T12:31:27Z</time>
      </trkpt>
      <trkpt lat="44.54026" lon="2.63229">
        <ele>507</ele>
        <time>2021-08-28T12:31:29Z</time>
      </trkpt>
      <trkpt lat="44.54" lon="2.63252">
        <ele>502</ele>
        <time>2021-08-28T12:31:39Z</time>
      </trkpt>
      <trkpt lat="44.53984" lon="2.63264">
        <ele>500</ele>
        <time>2021-08-28T12:31:45Z</time>
      </trkpt>
      <trkpt lat="44.53979" lon="2.63264">
        <ele>500</ele>
        <time>2021-08-28T12:31:47Z</time>
      </trkpt>
      <trkpt lat="44.53968" lon="2.63262">
        <ele>500</ele>
        <time>2021-08-28T12:31:52Z</time>
      </trkpt>
      <trkpt lat="44.5395" lon="2.63262">
        <ele>501</ele>
        <time>2021-08-28T12:31:58Z</time>
      </trkpt>
      <trkpt lat="44.5394" lon="2.63267">
        <ele>502</ele>
        <time>2021-08-28T12:32:02Z</time>
      </trkpt>
      <trkpt lat="44.53915" lon="2.63301">
        <ele>505</ele>
        <time>2021-08-28T12:32:14Z</time>
      </trkpt>
      <trkpt lat="44.53909" lon="2.63305">
        <ele>507</ele>
        <time>2021-08-28T12:32:16Z</time>
      </trkpt>
      <trkpt lat="44.53903" lon="2.63306">
        <ele>508</ele>
        <time>2021-08-28T12:32:18Z</time>
      </trkpt>
      <trkpt lat="44.53876" lon="2.63295">
        <ele>513</ele>
        <time>2021-08-28T12:32:30Z</time>
      </trkpt>
      <trkpt lat="44.53865" lon="2.63295">
        <ele>514</ele>
        <time>2021-08-28T12:32:34Z</time>
      </trkpt>
      <trkpt lat="44.5382" lon="2.63327">
        <ele>520</ele>
        <time>2021-08-28T12:32:52Z</time>
      </trkpt>
      <trkpt lat="44.53801" lon="2.63342">
        <ele>522</ele>
        <time>2021-08-28T12:33:00Z</time>
      </trkpt>
      <trkpt lat="44.53797" lon="2.63346">
        <ele>522</ele>
        <time>2021-08-28T12:33:02Z</time>
      </trkpt>
      <trkpt lat="44.53788" lon="2.63353">
        <ele>522</ele>
        <time>2021-08-28T12:33:06Z</time>
      </trkpt>
      <trkpt lat="44.53773" lon="2.63362">
        <ele>524</ele>
        <time>2021-08-28T12:33:12Z</time>
      </trkpt>
      <trkpt lat="44.53748" lon="2.63364">
        <ele>527</ele>
        <time>2021-08-28T12:33:22Z</time>
      </trkpt>
      <trkpt lat="44.53733" lon="2.63359">
        <ele>528</ele>
        <time>2021-08-28T12:33:28Z</time>
      </trkpt>
      <trkpt lat="44.53724" lon="2.63353">
        <ele>528</ele>
        <time>2021-08-28T12:33:32Z</time>
      </trkpt>
      <trkpt lat="44.5372" lon="2.63348">
        <ele>528</ele>
        <time>2021-08-28T12:33:34Z</time>
      </trkpt>
      <trkpt lat="44.53717" lon="2.63343">
        <ele>529</ele>
        <time>2021-08-28T12:33:36Z</time>
      </trkpt>
      <trkpt lat="44.53715" lon="2.63335">
        <ele>528</ele>
        <time>2021-08-28T12:33:38Z</time>
      </trkpt>
      <trkpt lat="44.53716" lon="2.63327">
        <ele>528</ele>
        <time>2021-08-28T12:33:40Z</time>
      </trkpt>
      <trkpt lat="44.5372" lon="2.6332">
        <ele>529</ele>
        <time>2021-08-28T12:33:42Z</time>
      </trkpt>
      <trkpt lat="44.5375" lon="2.63306">
        <ele>530</ele>
        <time>2021-08-28T12:33:54Z</time>
      </trkpt>
      <trkpt lat="44.5376" lon="2.6329">
        <ele>531</ele>
        <time>2021-08-28T12:34:00Z</time>
      </trkpt>
      <trkpt lat="44.53763" lon="2.63275">
        <ele>532</ele>
        <time>2021-08-28T12:34:04Z</time>
      </trkpt>
      <trkpt lat="44.53763" lon="2.6326">
        <ele>533</ele>
        <time>2021-08-28T12:34:08Z</time>
      </trkpt>
      <trkpt lat="44.53758" lon="2.63245">
        <ele>536</ele>
        <time>2021-08-28T12:34:12Z</time>
      </trkpt>
      <trkpt lat="44.53718" lon="2.63192">
        <ele>537</ele>
        <time>2021-08-28T12:34:32Z</time>
      </trkpt>
      <trkpt lat="44.53711" lon="2.63177">
        <ele>538</ele>
        <time>2021-08-28T12:34:36Z</time>
      </trkpt>
      <trkpt lat="44.53702" lon="2.63072">
        <ele>545</ele>
        <time>2021-08-28T12:35:00Z</time>
      </trkpt>
      <trkpt lat="44.537" lon="2.63022">
        <ele>549</ele>
        <time>2021-08-28T12:35:12Z</time>
      </trkpt>
      <trkpt lat="44.53699" lon="2.63006">
        <ele>550</ele>
        <time>2021-08-28T12:35:16Z</time>
      </trkpt>
      <trkpt lat="44.537" lon="2.62991">
        <ele>551</ele>
        <time>2021-08-28T12:35:20Z</time>
      </trkpt>
      <trkpt lat="44.53702" lon="2.62975">
        <ele>551</ele>
        <time>2021-08-28T12:35:24Z</time>
      </trkpt>
      <trkpt lat="44.53714" lon="2.62948">
        <ele>553</ele>
        <time>2021-08-28T12:35:32Z</time>
      </trkpt>
      <trkpt lat="44.53721" lon="2.62899">
        <ele>555</ele>
        <time>2021-08-28T12:35:43Z</time>
      </trkpt>
      <trkpt lat="44.53714" lon="2.62737">
        <ele>557</ele>
        <time>2021-08-28T12:36:13Z</time>
      </trkpt>
      <trkpt lat="44.53733" lon="2.6262">
        <ele>556</ele>
        <time>2021-08-28T12:36:32Z</time>
      </trkpt>
      <trkpt lat="44.53729" lon="2.62572">
        <ele>557</ele>
        <time>2021-08-28T12:36:40Z</time>
      </trkpt>
      <trkpt lat="44.53724" lon="2.62552">
        <ele>557</ele>
        <time>2021-08-28T12:36:44Z</time>
      </trkpt>
      <trkpt lat="44.53716" lon="2.62495">
        <ele>559</ele>
        <time>2021-08-28T12:36:54Z</time>
      </trkpt>
      <trkpt lat="44.53723" lon="2.62463">
        <ele>561</ele>
        <time>2021-08-28T12:37:00Z</time>
      </trkpt>
      <trkpt lat="44.53751" lon="2.62393">
        <ele>562</ele>
        <time>2021-08-28T12:37:16Z</time>
      </trkpt>
      <trkpt lat="44.53756" lon="2.62375">
        <ele>562</ele>
        <time>2021-08-28T12:37:20Z</time>
      </trkpt>
      <trkpt lat="44.53757" lon="2.62345">
        <ele>561</ele>
        <time>2021-08-28T12:37:26Z</time>
      </trkpt>
      <trkpt lat="44.53753" lon="2.62325">
        <ele>562</ele>
        <time>2021-08-28T12:37:30Z</time>
      </trkpt>
      <trkpt lat="44.53749" lon="2.62315">
        <ele>562</ele>
        <time>2021-08-28T12:37:32Z</time>
      </trkpt>
      <trkpt lat="44.53733" lon="2.62296">
        <ele>562</ele>
        <time>2021-08-28T12:37:38Z</time>
      </trkpt>
      <trkpt lat="44.53676" lon="2.62251">
        <ele>561</ele>
        <time>2021-08-28T12:37:56Z</time>
      </trkpt>
      <trkpt lat="44.53659" lon="2.62232">
        <ele>561</ele>
        <time>2021-08-28T12:38:02Z</time>
      </trkpt>
      <trkpt lat="44.53649" lon="2.62214">
        <ele>562</ele>
        <time>2021-08-28T12:38:06Z</time>
      </trkpt>
      <trkpt lat="44.53646" lon="2.62205">
        <ele>562</ele>
        <time>2021-08-28T12:38:08Z</time>
      </trkpt>
      <trkpt lat="44.53644" lon="2.62186">
        <ele>563</ele>
        <time>2021-08-28T12:38:12Z</time>
      </trkpt>
      <trkpt lat="44.53644" lon="2.62176">
        <ele>564</ele>
        <time>2021-08-28T12:38:14Z</time>
      </trkpt>
      <trkpt lat="44.53676" lon="2.6205">
        <ele>570</ele>
        <time>2021-08-28T12:38:40Z</time>
      </trkpt>
      <trkpt lat="44.53678" lon="2.6203">
        <ele>571</ele>
        <time>2021-08-28T12:38:44Z</time>
      </trkpt>
      <trkpt lat="44.53675" lon="2.62007">
        <ele>570</ele>
        <time>2021-08-28T12:38:48Z</time>
      </trkpt>
      <trkpt lat="44.53663" lon="2.61973">
        <ele>569</ele>
        <time>2021-08-28T12:38:54Z</time>
      </trkpt>
      <trkpt lat="44.53648" lon="2.61894">
        <ele>569</ele>
        <time>2021-08-28T12:39:07Z</time>
      </trkpt>
      <trkpt lat="44.5362" lon="2.6184">
        <ele>569</ele>
        <time>2021-08-28T12:39:17Z</time>
      </trkpt>
      <trkpt lat="44.53617" lon="2.61828">
        <ele>569</ele>
        <time>2021-08-28T12:39:19Z</time>
      </trkpt>
      <trkpt lat="44.53621" lon="2.61752">
        <ele>570</ele>
        <time>2021-08-28T12:39:32Z</time>
      </trkpt>
      <trkpt lat="44.53621" lon="2.61745">
        <ele>571</ele>
        <time>2021-08-28T12:39:35Z</time>
      </trkpt>
      <trkpt lat="44.53621" lon="2.61738">
        <ele>572</ele>
        <time>2021-08-28T12:40:24Z</time>
      </trkpt>
      <trkpt lat="44.53621" lon="2.61629">
        <ele>569</ele>
        <time>2021-08-28T12:40:40Z</time>
      </trkpt>
      <trkpt lat="44.5361" lon="2.61473">
        <ele>565</ele>
        <time>2021-08-28T12:40:57Z</time>
      </trkpt>
      <trkpt lat="44.53585" lon="2.6139">
        <ele>566</ele>
        <time>2021-08-28T12:41:06Z</time>
      </trkpt>
      <trkpt lat="44.53523" lon="2.61232">
        <ele>566</ele>
        <time>2021-08-28T12:41:29Z</time>
      </trkpt>
      <trkpt lat="44.53521" lon="2.61223">
        <ele>567</ele>
        <time>2021-08-28T12:41:31Z</time>
      </trkpt>
      <trkpt lat="44.53521" lon="2.61215">
        <ele>567</ele>
        <time>2021-08-28T12:41:33Z</time>
      </trkpt>
      <trkpt lat="44.53523" lon="2.61209">
        <ele>567</ele>
        <time>2021-08-28T12:41:35Z</time>
      </trkpt>
      <trkpt lat="44.53606" lon="2.6112">
        <ele>566</ele>
        <time>2021-08-28T12:42:05Z</time>
      </trkpt>
      <trkpt lat="44.53695" lon="2.61018">
        <ele>568</ele>
        <time>2021-08-28T12:42:35Z</time>
      </trkpt>
      <trkpt lat="44.53789" lon="2.60949">
        <ele>564</ele>
        <time>2021-08-28T12:42:58Z</time>
      </trkpt>
      <trkpt lat="44.53914" lon="2.60881">
        <ele>558</ele>
        <time>2021-08-28T12:43:20Z</time>
      </trkpt>
      <trkpt lat="44.53937" lon="2.60859">
        <ele>557</ele>
        <time>2021-08-28T12:43:24Z</time>
      </trkpt>
      <trkpt lat="44.53953" lon="2.60828">
        <ele>556</ele>
        <time>2021-08-28T12:43:28Z</time>
      </trkpt>
      <trkpt lat="44.53975" lon="2.60715">
        <ele>556</ele>
        <time>2021-08-28T12:43:41Z</time>
      </trkpt>
      <trkpt lat="44.53993" lon="2.60565">
        <ele>558</ele>
        <time>2021-08-28T12:43:59Z</time>
      </trkpt>
      <trkpt lat="44.53992" lon="2.60533">
        <ele>559</ele>
        <time>2021-08-28T12:44:03Z</time>
      </trkpt>
      <trkpt lat="44.53977" lon="2.60425">
        <ele>561</ele>
        <time>2021-08-28T12:44:16Z</time>
      </trkpt>
      <trkpt lat="44.53982" lon="2.60345">
        <ele>563</ele>
        <time>2021-08-28T12:44:26Z</time>
      </trkpt>
      <trkpt lat="44.53994" lon="2.60309">
        <ele>563</ele>
        <time>2021-08-28T12:44:31Z</time>
      </trkpt>
      <trkpt lat="44.54011" lon="2.60281">
        <ele>562</ele>
        <time>2021-08-28T12:44:36Z</time>
      </trkpt>
      <trkpt lat="44.54079" lon="2.60217">
        <ele>558</ele>
        <time>2021-08-28T12:44:51Z</time>
      </trkpt>
      <trkpt lat="44.54104" lon="2.60206">
        <ele>557</ele>
        <time>2021-08-28T12:44:56Z</time>
      </trkpt>
      <trkpt lat="44.54192" lon="2.60191">
        <ele>555</ele>
        <time>2021-08-28T12:45:14Z</time>
      </trkpt>
      <trkpt lat="44.54229" lon="2.60167">
        <ele>554</ele>
        <time>2021-08-28T12:45:22Z</time>
      </trkpt>
      <trkpt lat="44.54267" lon="2.60135">
        <ele>554</ele>
        <time>2021-08-28T12:45:34Z</time>
      </trkpt>
      <trkpt lat="44.54297" lon="2.60122">
        <ele>555</ele>
        <time>2021-08-28T12:45:46Z</time>
      </trkpt>
      <trkpt lat="44.54378" lon="2.60119">
        <ele>560</ele>
        <time>2021-08-28T12:46:17Z</time>
      </trkpt>
      <trkpt lat="44.54468" lon="2.60164">
        <ele>559</ele>
        <time>2021-08-28T12:46:47Z</time>
      </trkpt>
      <trkpt lat="44.54497" lon="2.60171">
        <ele>559</ele>
        <time>2021-08-28T12:46:55Z</time>
      </trkpt>
      <trkpt lat="44.54518" lon="2.6017">
        <ele>560</ele>
        <time>2021-08-28T12:47:00Z</time>
      </trkpt>
      <trkpt lat="44.54565" lon="2.60155">
        <ele>562</ele>
        <time>2021-08-28T12:47:12Z</time>
      </trkpt>
      <trkpt lat="44.54635" lon="2.60133">
        <ele>570</ele>
        <time>2021-08-28T12:47:36Z</time>
      </trkpt>
      <trkpt lat="44.54713" lon="2.60108">
        <ele>579</ele>
        <time>2021-08-28T12:48:08Z</time>
      </trkpt>
      <trkpt lat="44.54782" lon="2.60082">
        <ele>578</ele>
        <time>2021-08-28T12:48:32Z</time>
      </trkpt>
      <trkpt lat="44.54896" lon="2.59997">
        <ele>575</ele>
        <time>2021-08-28T12:49:03Z</time>
      </trkpt>
      <trkpt lat="44.54927" lon="2.59974">
        <ele>573</ele>
        <time>2021-08-28T12:49:11Z</time>
      </trkpt>
      <trkpt lat="44.54958" lon="2.59961">
        <ele>571</ele>
        <time>2021-08-28T12:49:18Z</time>
      </trkpt>
      <trkpt lat="44.55002" lon="2.59959">
        <ele>566</ele>
        <time>2021-08-28T12:49:26Z</time>
      </trkpt>
      <trkpt lat="44.55202" lon="2.60016">
        <ele>562</ele>
        <time>2021-08-28T12:49:52Z</time>
      </trkpt>
      <trkpt lat="44.55276" lon="2.60004">
        <ele>569</ele>
        <time>2021-08-28T12:50:07Z</time>
      </trkpt>
      <trkpt lat="44.55362" lon="2.59963">
        <ele>579</ele>
        <time>2021-08-28T12:50:37Z</time>
      </trkpt>
      <trkpt lat="44.55419" lon="2.59929">
        <ele>584</ele>
        <time>2021-08-28T12:51:02Z</time>
      </trkpt>
      <trkpt lat="44.55423" lon="2.59926">
        <ele>584</ele>
        <time>2021-08-28T12:51:04Z</time>
      </trkpt>
      <trkpt lat="44.55463" lon="2.59905">
        <ele>585</ele>
        <time>2021-08-28T12:51:23Z</time>
      </trkpt>
      <trkpt lat="44.55497" lon="2.59887">
        <ele>585</ele>
        <time>2021-08-28T12:51:41Z</time>
      </trkpt>
      <trkpt lat="44.55508" lon="2.5988">
        <ele>586</ele>
        <time>2021-08-28T12:51:47Z</time>
      </trkpt>
      <trkpt lat="44.55514" lon="2.59877">
        <ele>586</ele>
        <time>2021-08-28T12:51:50Z</time>
      </trkpt>
      <trkpt lat="44.5557" lon="2.59845">
        <ele>588</ele>
        <time>2021-08-28T12:52:20Z</time>
      </trkpt>
      <trkpt lat="44.55596" lon="2.59832">
        <ele>589</ele>
        <time>2021-08-28T12:52:32Z</time>
      </trkpt>
      <trkpt lat="44.5567" lon="2.59817">
        <ele>593</ele>
        <time>2021-08-28T12:53:04Z</time>
      </trkpt>
      <trkpt lat="44.55737" lon="2.59801">
        <ele>601</ele>
        <time>2021-08-28T12:53:36Z</time>
      </trkpt>
      <trkpt lat="44.55799" lon="2.59793">
        <ele>605</ele>
        <time>2021-08-28T12:54:06Z</time>
      </trkpt>
      <trkpt lat="44.55851" lon="2.59783">
        <ele>609</ele>
        <time>2021-08-28T12:54:37Z</time>
      </trkpt>
      <trkpt lat="44.559" lon="2.59782">
        <ele>615</ele>
        <time>2021-08-28T12:55:00Z</time>
      </trkpt>
      <trkpt lat="44.55942" lon="2.59797">
        <ele>619</ele>
        <time>2021-08-28T12:55:21Z</time>
      </trkpt>
      <trkpt lat="44.55983" lon="2.59819">
        <ele>622</ele>
        <time>2021-08-28T12:55:40Z</time>
      </trkpt>
      <trkpt lat="44.55987" lon="2.59821">
        <ele>622</ele>
        <time>2021-08-28T12:55:42Z</time>
      </trkpt>
      <trkpt lat="44.56056" lon="2.59866">
        <ele>625</ele>
        <time>2021-08-28T12:56:12Z</time>
      </trkpt>
      <trkpt lat="44.56116" lon="2.59904">
        <ele>624</ele>
        <time>2021-08-28T12:56:32Z</time>
      </trkpt>
      <trkpt lat="44.56193" lon="2.5999">
        <ele>622</ele>
        <time>2021-08-28T12:56:58Z</time>
      </trkpt>
      <trkpt lat="44.56242" lon="2.60004">
        <ele>623</ele>
        <time>2021-08-28T12:57:12Z</time>
      </trkpt>
      <trkpt lat="44.56335" lon="2.59995">
        <ele>629</ele>
        <time>2021-08-28T12:57:42Z</time>
      </trkpt>
      <trkpt lat="44.56419" lon="2.59986">
        <ele>634</ele>
        <time>2021-08-28T12:58:13Z</time>
      </trkpt>
      <trkpt lat="44.56443" lon="2.59993">
        <ele>635</ele>
        <time>2021-08-28T12:58:23Z</time>
      </trkpt>
      <trkpt lat="44.56487" lon="2.60018">
        <ele>636</ele>
        <time>2021-08-28T12:58:41Z</time>
      </trkpt>
      <trkpt lat="44.56558" lon="2.60079">
        <ele>640</ele>
        <time>2021-08-28T12:59:13Z</time>
      </trkpt>
      <trkpt lat="44.56603" lon="2.60096">
        <ele>640</ele>
        <time>2021-08-28T12:59:29Z</time>
      </trkpt>
      <trkpt lat="44.56663" lon="2.601">
        <ele>641</ele>
        <time>2021-08-28T12:59:47Z</time>
      </trkpt>
      <trkpt lat="44.56782" lon="2.60071">
        <ele>644</ele>
        <time>2021-08-28T13:00:19Z</time>
      </trkpt>
      <trkpt lat="44.56893" lon="2.60043">
        <ele>647</ele>
        <time>2021-08-28T13:00:49Z</time>
      </trkpt>
      <trkpt lat="44.57004" lon="2.60015">
        <ele>649</ele>
        <time>2021-08-28T13:01:19Z</time>
      </trkpt>
      <trkpt lat="44.57111" lon="2.59987">
        <ele>647</ele>
        <time>2021-08-28T13:01:49Z</time>
      </trkpt>
      <trkpt lat="44.57153" lon="2.59977">
        <ele>645</ele>
        <time>2021-08-28T13:02:01Z</time>
      </trkpt>
      <trkpt lat="44.5718" lon="2.59984">
        <ele>645</ele>
        <time>2021-08-28T13:02:09Z</time>
      </trkpt>
      <trkpt lat="44.57219" lon="2.60013">
        <ele>644</ele>
        <time>2021-08-28T13:02:21Z</time>
      </trkpt>
      <trkpt lat="44.57251" lon="2.60024">
        <ele>646</ele>
        <time>2021-08-28T13:02:29Z</time>
      </trkpt>
      <trkpt lat="44.57303" lon="2.60009">
        <ele>648</ele>
        <time>2021-08-28T13:02:43Z</time>
      </trkpt>
      <trkpt lat="44.5741" lon="2.59971">
        <ele>651</ele>
        <time>2021-08-28T13:03:13Z</time>
      </trkpt>
      <trkpt lat="44.5754" lon="2.59926">
        <ele>652</ele>
        <time>2021-08-28T13:03:43Z</time>
      </trkpt>
      <trkpt lat="44.57616" lon="2.59914">
        <ele>648</ele>
        <time>2021-08-28T13:03:57Z</time>
      </trkpt>
      <trkpt lat="44.57752" lon="2.59934">
        <ele>656</ele>
        <time>2021-08-28T13:04:29Z</time>
      </trkpt>
      <trkpt lat="44.57886" lon="2.59962">
        <ele>656</ele>
        <time>2021-08-28T13:04:59Z</time>
      </trkpt>
      <trkpt lat="44.58053" lon="2.5996">
        <ele>657</ele>
        <time>2021-08-28T13:05:30Z</time>
      </trkpt>
      <trkpt lat="44.58125" lon="2.59953">
        <ele>656</ele>
        <time>2021-08-28T13:05:43Z</time>
      </trkpt>
      <trkpt lat="44.58215" lon="2.59908">
        <ele>658</ele>
        <time>2021-08-28T13:06:03Z</time>
      </trkpt>
      <trkpt lat="44.58336" lon="2.59826">
        <ele>663</ele>
        <time>2021-08-28T13:06:35Z</time>
      </trkpt>
      <trkpt lat="44.58441" lon="2.59733">
        <ele>666</ele>
        <time>2021-08-28T13:07:05Z</time>
      </trkpt>
      <trkpt lat="44.58539" lon="2.59618">
        <ele>666</ele>
        <time>2021-08-28T13:07:36Z</time>
      </trkpt>
      <trkpt lat="44.58642" lon="2.59497">
        <ele>665</ele>
        <time>2021-08-28T13:08:07Z</time>
      </trkpt>
      <trkpt lat="44.58676" lon="2.59466">
        <ele>663</ele>
        <time>2021-08-28T13:08:15Z</time>
      </trkpt>
      <trkpt lat="44.58816" lon="2.59406">
        <ele>662</ele>
        <time>2021-08-28T13:08:45Z</time>
      </trkpt>
      <trkpt lat="44.58923" lon="2.59326">
        <ele>657</ele>
        <time>2021-08-28T13:09:04Z</time>
      </trkpt>
      <trkpt lat="44.58983" lon="2.59257">
        <ele>654</ele>
        <time>2021-08-28T13:09:14Z</time>
      </trkpt>
      <trkpt lat="44.59009" lon="2.59204">
        <ele>652</ele>
        <time>2021-08-28T13:09:20Z</time>
      </trkpt>
      <trkpt lat="44.59017" lon="2.59173">
        <ele>652</ele>
        <time>2021-08-28T13:09:23Z</time>
      </trkpt>
      <trkpt lat="44.59036" lon="2.5903">
        <ele>649</ele>
        <time>2021-08-28T13:09:35Z</time>
      </trkpt>
      <trkpt lat="44.59047" lon="2.59">
        <ele>649</ele>
        <time>2021-08-28T13:09:38Z</time>
      </trkpt>
      <trkpt lat="44.59058" lon="2.58984">
        <ele>649</ele>
        <time>2021-08-28T13:09:40Z</time>
      </trkpt>
      <trkpt lat="44.591" lon="2.58942">
        <ele>646</ele>
        <time>2021-08-28T13:09:47Z</time>
      </trkpt>
      <trkpt lat="44.59117" lon="2.5891">
        <ele>645</ele>
        <time>2021-08-28T13:09:51Z</time>
      </trkpt>
      <trkpt lat="44.5915" lon="2.5878">
        <ele>645</ele>
        <time>2021-08-28T13:10:05Z</time>
      </trkpt>
      <trkpt lat="44.5923" lon="2.58641">
        <ele>640</ele>
        <time>2021-08-28T13:10:21Z</time>
      </trkpt>
      <trkpt lat="44.59255" lon="2.5861">
        <ele>638</ele>
        <time>2021-08-28T13:10:25Z</time>
      </trkpt>
      <trkpt lat="44.59326" lon="2.58564">
        <ele>636</ele>
        <time>2021-08-28T13:10:36Z</time>
      </trkpt>
      <trkpt lat="44.59351" lon="2.58534">
        <ele>636</ele>
        <time>2021-08-28T13:10:41Z</time>
      </trkpt>
      <trkpt lat="44.59385" lon="2.58473">
        <ele>635</ele>
        <time>2021-08-28T13:10:50Z</time>
      </trkpt>
      <trkpt lat="44.59457" lon="2.58274">
        <ele>632</ele>
        <time>2021-08-28T13:11:16Z</time>
      </trkpt>
      <trkpt lat="44.5949" lon="2.58233">
        <ele>631</ele>
        <time>2021-08-28T13:11:23Z</time>
      </trkpt>
      <trkpt lat="44.59552" lon="2.58191">
        <ele>633</ele>
        <time>2021-08-28T13:11:36Z</time>
      </trkpt>
      <trkpt lat="44.59607" lon="2.58172">
        <ele>635</ele>
        <time>2021-08-28T13:11:49Z</time>
      </trkpt>
      <trkpt lat="44.59705" lon="2.58159">
        <ele>638</ele>
        <time>2021-08-28T13:12:19Z</time>
      </trkpt>
      <trkpt lat="44.59779" lon="2.58156">
        <ele>642</ele>
        <time>2021-08-28T13:12:41Z</time>
      </trkpt>
      <trkpt lat="44.59796" lon="2.58149">
        <ele>643</ele>
        <time>2021-08-28T13:12:47Z</time>
      </trkpt>
      <trkpt lat="44.59877" lon="2.58065">
        <ele>647</ele>
        <time>2021-08-28T13:13:19Z</time>
      </trkpt>
      <trkpt lat="44.59925" lon="2.58014">
        <ele>652</ele>
        <time>2021-08-28T13:13:42Z</time>
      </trkpt>
      <trkpt lat="44.59929" lon="2.58008">
        <ele>652</ele>
        <time>2021-08-28T13:13:44Z</time>
      </trkpt>
      <trkpt lat="44.59933" lon="2.58003">
        <ele>653</ele>
        <time>2021-08-28T13:13:46Z</time>
      </trkpt>
      <trkpt lat="44.59957" lon="2.57976">
        <ele>655</ele>
        <time>2021-08-28T13:13:58Z</time>
      </trkpt>
      <trkpt lat="44.5998" lon="2.57957">
        <ele>657</ele>
        <time>2021-08-28T13:14:08Z</time>
      </trkpt>
      <trkpt lat="44.5999" lon="2.57952">
        <ele>657</ele>
        <time>2021-08-28T13:14:12Z</time>
      </trkpt>
      <trkpt lat="44.60049" lon="2.58001">
        <ele>661</ele>
        <time>2021-08-28T13:14:43Z</time>
      </trkpt>
      <trkpt lat="44.60064" lon="2.58034">
        <ele>660</ele>
        <time>2021-08-28T13:15:00Z</time>
      </trkpt>
      <trkpt lat="44.60079" lon="2.5809">
        <ele>659</ele>
        <time>2021-08-28T13:15:09Z</time>
      </trkpt>
      <trkpt lat="44.60173" lon="2.58259">
        <ele>657</ele>
        <time>2021-08-28T13:15:30Z</time>
      </trkpt>
      <trkpt lat="44.60209" lon="2.58298">
        <ele>655</ele>
        <time>2021-08-28T13:15:37Z</time>
      </trkpt>
      <trkpt lat="44.60217" lon="2.58311">
        <ele>655</ele>
        <time>2021-08-28T13:15:39Z</time>
      </trkpt>
      <trkpt lat="44.6022" lon="2.58319">
        <ele>656</ele>
        <time>2021-08-28T13:15:40Z</time>
      </trkpt>
      <trkpt lat="44.60229" lon="2.58418">
        <ele>655</ele>
        <time>2021-08-28T13:15:53Z</time>
      </trkpt>
      <trkpt lat="44.60233" lon="2.58431">
        <ele>653</ele>
        <time>2021-08-28T13:15:55Z</time>
      </trkpt>
      <trkpt lat="44.60243" lon="2.58446">
        <ele>652</ele>
        <time>2021-08-28T13:15:59Z</time>
      </trkpt>
      <trkpt lat="44.6026" lon="2.58457">
        <ele>651</ele>
        <time>2021-08-28T13:16:03Z</time>
      </trkpt>
      <trkpt lat="44.60278" lon="2.58459">
        <ele>650</ele>
        <time>2021-08-28T13:16:07Z</time>
      </trkpt>
      <trkpt lat="44.60304" lon="2.58452">
        <ele>649</ele>
        <time>2021-08-28T13:16:14Z</time>
      </trkpt>
      <trkpt lat="44.60308" lon="2.58449">
        <ele>649</ele>
        <time>2021-08-28T13:16:16Z</time>
      </trkpt>
      <trkpt lat="44.60313" lon="2.58446">
        <ele>648</ele>
        <time>2021-08-28T13:16:21Z</time>
      </trkpt>
      <trkpt lat="44.60313" lon="2.58454">
        <ele>648</ele>
        <time>2021-08-28T13:17:02Z</time>
      </trkpt>
      <trkpt lat="44.60308" lon="2.58453">
        <ele>648</ele>
        <time>2021-08-28T13:17:04Z</time>
      </trkpt>
      <trkpt lat="44.60306" lon="2.58445">
        <ele>648</ele>
        <time>2021-08-28T13:17:06Z</time>
      </trkpt>
      <trkpt lat="44.603" lon="2.58429">
        <ele>649</ele>
        <time>2021-08-28T13:17:12Z</time>
      </trkpt>
      <trkpt lat="44.60296" lon="2.58426">
        <ele>650</ele>
        <time>2021-08-28T13:17:15Z</time>
      </trkpt>
      <trkpt lat="44.60287" lon="2.58421">
        <ele>651</ele>
        <time>2021-08-28T13:17:21Z</time>
      </trkpt>
      <trkpt lat="44.60282" lon="2.58422">
        <ele>651</ele>
        <time>2021-08-28T13:17:24Z</time>
      </trkpt>
      <trkpt lat="44.60278" lon="2.58419">
        <ele>651</ele>
        <time>2021-08-28T13:17:27Z</time>
      </trkpt>
      <trkpt lat="44.60271" lon="2.58406">
        <ele>652</ele>
        <time>2021-08-28T13:17:33Z</time>
      </trkpt>
      <trkpt lat="44.60268" lon="2.58392">
        <ele>654</ele>
        <time>2021-08-28T13:17:39Z</time>
      </trkpt>
      <trkpt lat="44.60269" lon="2.58385">
        <ele>655</ele>
        <time>2021-08-28T13:17:42Z</time>
      </trkpt>
      <trkpt lat="44.60287" lon="2.58358">
        <ele>658</ele>
        <time>2021-08-28T13:17:58Z</time>
      </trkpt>
      <trkpt lat="44.60286" lon="2.58352">
        <ele>658</ele>
        <time>2021-08-28T13:18:01Z</time>
      </trkpt>
      <trkpt lat="44.60278" lon="2.58349">
        <ele>658</ele>
        <time>2021-08-28T13:18:06Z</time>
      </trkpt>
      <trkpt lat="44.60272" lon="2.58344">
        <ele>659</ele>
        <time>2021-08-28T13:18:12Z</time>
      </trkpt>
      <trkpt lat="44.6027" lon="2.58338">
        <ele>661</ele>
        <time>2021-08-28T13:18:12Z</time>
      </trkpt>
      <trkpt lat="44.60268" lon="2.58331">
        <ele>663</ele>
        <time>2021-08-28T13:18:15Z</time>
      </trkpt>
      <trkpt lat="44.60271" lon="2.58325">
        <ele>664</ele>
        <time>2021-08-28T13:18:18Z</time>
      </trkpt>
      <trkpt lat="44.60274" lon="2.5832">
        <ele>665</ele>
        <time>2021-08-28T13:18:22Z</time>
      </trkpt>
      <trkpt lat="44.60277" lon="2.58306">
        <ele>669</ele>
        <time>2021-08-28T13:18:28Z</time>
      </trkpt>
      <trkpt lat="44.60274" lon="2.58274">
        <ele>673</ele>
        <time>2021-08-28T13:18:39Z</time>
      </trkpt>
      <trkpt lat="44.60273" lon="2.58267">
        <ele>674</ele>
        <time>2021-08-28T13:18:42Z</time>
      </trkpt>
      <trkpt lat="44.60273" lon="2.58259">
        <ele>676</ele>
        <time>2021-08-28T13:18:45Z</time>
      </trkpt>
      <trkpt lat="44.60281" lon="2.5825">
        <ele>670</ele>
        <time>2021-08-28T13:18:50Z</time>
      </trkpt>
      <trkpt lat="44.60283" lon="2.58243">
        <ele>671</ele>
        <time>2021-08-28T13:18:53Z</time>
      </trkpt>
      <trkpt lat="44.60291" lon="2.58222">
        <ele>676</ele>
        <time>2021-08-28T13:19:02Z</time>
      </trkpt>
      <trkpt lat="44.60292" lon="2.58215">
        <ele>676</ele>
        <time>2021-08-28T13:19:05Z</time>
      </trkpt>
      <trkpt lat="44.60297" lon="2.58203">
        <ele>677</ele>
        <time>2021-08-28T13:19:11Z</time>
      </trkpt>
      <trkpt lat="44.603" lon="2.58197">
        <ele>676</ele>
        <time>2021-08-28T13:19:15Z</time>
      </trkpt>
      <trkpt lat="44.60307" lon="2.58185">
        <ele>675</ele>
        <time>2021-08-28T13:19:22Z</time>
      </trkpt>
      <trkpt lat="44.60311" lon="2.5818">
        <ele>674</ele>
        <time>2021-08-28T13:19:25Z</time>
      </trkpt>
      <trkpt lat="44.60316" lon="2.58178">
        <ele>673</ele>
        <time>2021-08-28T13:19:28Z</time>
      </trkpt>
      <trkpt lat="44.60315" lon="2.58169">
        <ele>673</ele>
        <time>2021-08-28T13:19:31Z</time>
      </trkpt>
      <trkpt lat="44.60319" lon="2.58165">
        <ele>669</ele>
        <time>2021-08-28T13:20:10Z</time>
      </trkpt>
      <trkpt lat="44.60323" lon="2.58161">
        <ele>668</ele>
        <time>2021-08-28T13:20:15Z</time>
      </trkpt>
      <trkpt lat="44.60335" lon="2.58111">
        <ele>663</ele>
        <time>2021-08-28T13:20:46Z</time>
      </trkpt>
      <trkpt lat="44.6036" lon="2.58041">
        <ele>661</ele>
        <time>2021-08-28T13:21:09Z</time>
      </trkpt>
      <trkpt lat="44.60372" lon="2.57904">
        <ele>661</ele>
        <time>2021-08-28T13:21:33Z</time>
      </trkpt>
      <trkpt lat="44.60377" lon="2.57889">
        <ele>660</ele>
        <time>2021-08-28T13:21:38Z</time>
      </trkpt>
      <trkpt lat="44.60386" lon="2.57882">
        <ele>661</ele>
        <time>2021-08-28T13:21:47Z</time>
      </trkpt>
      <trkpt lat="44.60386" lon="2.57889">
        <ele>662</ele>
        <time>2021-08-28T13:21:53Z</time>
      </trkpt>
      <trkpt lat="44.6038" lon="2.57887">
        <ele>662</ele>
        <time>2021-08-28T13:21:56Z</time>
      </trkpt>
      <trkpt lat="44.60376" lon="2.57882">
        <ele>663</ele>
        <time>2021-08-28T13:22:07Z</time>
      </trkpt>
      <trkpt lat="44.60373" lon="2.57889">
        <ele>663</ele>
        <time>2021-08-28T13:22:10Z</time>
      </trkpt>
      <trkpt lat="44.60395" lon="2.57889">
        <ele>667</ele>
        <time>2021-08-28T13:22:21Z</time>
      </trkpt>
      <trkpt lat="44.60392" lon="2.5789">
        <ele>666</ele>
        <time>2021-08-28T13:22:30Z</time>
      </trkpt>
      <trkpt lat="44.60389" lon="2.57886">
        <ele>666</ele>
        <time>2021-08-28T13:22:33Z</time>
      </trkpt>
      <trkpt lat="44.60388" lon="2.57877">
        <ele>665</ele>
        <time>2021-08-28T13:22:36Z</time>
      </trkpt>
      <trkpt lat="44.60391" lon="2.57872">
        <ele>665</ele>
        <time>2021-08-28T13:22:39Z</time>
      </trkpt>
    </trkseg>
  </trk>
  <trk>
    <name><![CDATA[j3]]></name>
    <desc><![CDATA[comment ...]]></desc>
    <extensions>
      <line xmlns="http://www.topografix.com/GPX/gpx_style/0/2">
        <color>00ff00</color>
        <width>4</width>
      </line>
    </extensions>
    <trkseg>
      <trkpt lat="44.60413" lon="2.57933">
        <ele>686</ele>
        <time>2021-08-29T07:16:21Z</time>
      </trkpt>
      <trkpt lat="44.60413" lon="2.57933">
        <ele>686</ele>
        <time>2021-08-29T07:16:23Z</time>
      </trkpt>
      <trkpt lat="44.60415" lon="2.57927">
        <ele>683</ele>
        <time>2021-08-29T07:16:39Z</time>
      </trkpt>
      <trkpt lat="44.60418" lon="2.57912">
        <ele>680</ele>
        <time>2021-08-29T07:16:47Z</time>
      </trkpt>
      <trkpt lat="44.60421" lon="2.57907">
        <ele>679</ele>
        <time>2021-08-29T07:16:50Z</time>
      </trkpt>
      <trkpt lat="44.60425" lon="2.57903">
        <ele>679</ele>
        <time>2021-08-29T07:16:54Z</time>
      </trkpt>
      <trkpt lat="44.60428" lon="2.57897">
        <ele>680</ele>
        <time>2021-08-29T07:16:59Z</time>
      </trkpt>
      <trkpt lat="44.60425" lon="2.57893">
        <ele>680</ele>
        <time>2021-08-29T07:17:05Z</time>
      </trkpt>
      <trkpt lat="44.60388" lon="2.57887">
        <ele>680</ele>
        <time>2021-08-29T07:17:37Z</time>
      </trkpt>
      <trkpt lat="44.60382" lon="2.57887">
        <ele>680</ele>
        <time>2021-08-29T07:17:40Z</time>
      </trkpt>
      <trkpt lat="44.60378" lon="2.57884">
        <ele>681</ele>
        <time>2021-08-29T07:17:42Z</time>
      </trkpt>
      <trkpt lat="44.60375" lon="2.5787">
        <ele>681</ele>
        <time>2021-08-29T07:17:46Z</time>
      </trkpt>
      <trkpt lat="44.60374" lon="2.57862">
        <ele>681</ele>
        <time>2021-08-29T07:17:48Z</time>
      </trkpt>
      <trkpt lat="44.60375" lon="2.57856">
        <ele>682</ele>
        <time>2021-08-29T07:17:50Z</time>
      </trkpt>
      <trkpt lat="44.60374" lon="2.57841">
        <ele>681</ele>
        <time>2021-08-29T07:17:54Z</time>
      </trkpt>
      <trkpt lat="44.60373" lon="2.57782">
        <ele>682</ele>
        <time>2021-08-29T07:18:08Z</time>
      </trkpt>
      <trkpt lat="44.60374" lon="2.57747">
        <ele>681</ele>
        <time>2021-08-29T07:18:16Z</time>
      </trkpt>
      <trkpt lat="44.60373" lon="2.5774">
        <ele>681</ele>
        <time>2021-08-29T07:18:18Z</time>
      </trkpt>
      <trkpt lat="44.60371" lon="2.57733">
        <ele>680</ele>
        <time>2021-08-29T07:18:21Z</time>
      </trkpt>
      <trkpt lat="44.60364" lon="2.57732">
        <ele>680</ele>
        <time>2021-08-29T07:18:23Z</time>
      </trkpt>
      <trkpt lat="44.60348" lon="2.57745">
        <ele>680</ele>
        <time>2021-08-29T07:18:28Z</time>
      </trkpt>
      <trkpt lat="44.60281" lon="2.57795">
        <ele>678</ele>
        <time>2021-08-29T07:18:45Z</time>
      </trkpt>
      <trkpt lat="44.60275" lon="2.57798">
        <ele>678</ele>
        <time>2021-08-29T07:18:47Z</time>
      </trkpt>
      <trkpt lat="44.60269" lon="2.57794">
        <ele>678</ele>
        <time>2021-08-29T07:18:50Z</time>
      </trkpt>
      <trkpt lat="44.60269" lon="2.57783">
        <ele>678</ele>
        <time>2021-08-29T07:18:54Z</time>
      </trkpt>
      <trkpt lat="44.60277" lon="2.57768">
        <ele>677</ele>
        <time>2021-08-29T07:18:58Z</time>
      </trkpt>
      <trkpt lat="44.60291" lon="2.57722">
        <ele>675</ele>
        <time>2021-08-29T07:19:08Z</time>
      </trkpt>
      <trkpt lat="44.6029" lon="2.57695">
        <ele>674</ele>
        <time>2021-08-29T07:19:12Z</time>
      </trkpt>
      <trkpt lat="44.60279" lon="2.57652">
        <ele>672</ele>
        <time>2021-08-29T07:19:18Z</time>
      </trkpt>
      <trkpt lat="44.60241" lon="2.57548">
        <ele>667</ele>
        <time>2021-08-29T07:19:30Z</time>
      </trkpt>
      <trkpt lat="44.60231" lon="2.57533">
        <ele>665</ele>
        <time>2021-08-29T07:19:32Z</time>
      </trkpt>
      <trkpt lat="44.60186" lon="2.57497">
        <ele>663</ele>
        <time>2021-08-29T07:19:38Z</time>
      </trkpt>
      <trkpt lat="44.60106" lon="2.57455">
        <ele>654</ele>
        <time>2021-08-29T07:19:48Z</time>
      </trkpt>
      <trkpt lat="44.60094" lon="2.57444">
        <ele>653</ele>
        <time>2021-08-29T07:19:50Z</time>
      </trkpt>
      <trkpt lat="44.60078" lon="2.57415">
        <ele>650</ele>
        <time>2021-08-29T07:19:53Z</time>
      </trkpt>
      <trkpt lat="44.60075" lon="2.57405">
        <ele>650</ele>
        <time>2021-08-29T07:19:54Z</time>
      </trkpt>
      <trkpt lat="44.60076" lon="2.57353">
        <ele>647</ele>
        <time>2021-08-29T07:19:58Z</time>
      </trkpt>
      <trkpt lat="44.6008" lon="2.5722">
        <ele>641</ele>
        <time>2021-08-29T07:20:08Z</time>
      </trkpt>
      <trkpt lat="44.60173" lon="2.57054">
        <ele>645</ele>
        <time>2021-08-29T07:20:29Z</time>
      </trkpt>
      <trkpt lat="44.60198" lon="2.57022">
        <ele>643</ele>
        <time>2021-08-29T07:20:36Z</time>
      </trkpt>
      <trkpt lat="44.60245" lon="2.56989">
        <ele>641</ele>
        <time>2021-08-29T07:20:48Z</time>
      </trkpt>
      <trkpt lat="44.60303" lon="2.56959">
        <ele>640</ele>
        <time>2021-08-29T07:21:04Z</time>
      </trkpt>
      <trkpt lat="44.60321" lon="2.56955">
        <ele>640</ele>
        <time>2021-08-29T07:22:06Z</time>
      </trkpt>
      <trkpt lat="44.60326" lon="2.5695">
        <ele>638</ele>
        <time>2021-08-29T07:22:08Z</time>
      </trkpt>
      <trkpt lat="44.60368" lon="2.5679">
        <ele>639</ele>
        <time>2021-08-29T07:22:40Z</time>
      </trkpt>
      <trkpt lat="44.6037" lon="2.56747">
        <ele>638</ele>
        <time>2021-08-29T07:22:46Z</time>
      </trkpt>
      <trkpt lat="44.6036" lon="2.56508">
        <ele>633</ele>
        <time>2021-08-29T07:23:16Z</time>
      </trkpt>
      <trkpt lat="44.60366" lon="2.56475">
        <ele>633</ele>
        <time>2021-08-29T07:23:20Z</time>
      </trkpt>
      <trkpt lat="44.60407" lon="2.56354">
        <ele>631</ele>
        <time>2021-08-29T07:23:36Z</time>
      </trkpt>
      <trkpt lat="44.60409" lon="2.56325">
        <ele>632</ele>
        <time>2021-08-29T07:23:40Z</time>
      </trkpt>
      <trkpt lat="44.60406" lon="2.56295">
        <ele>633</ele>
        <time>2021-08-29T07:23:45Z</time>
      </trkpt>
      <trkpt lat="44.60395" lon="2.56219">
        <ele>630</ele>
        <time>2021-08-29T07:24:01Z</time>
      </trkpt>
      <trkpt lat="44.60416" lon="2.56052">
        <ele>633</ele>
        <time>2021-08-29T07:24:33Z</time>
      </trkpt>
      <trkpt lat="44.60417" lon="2.55894">
        <ele>641</ele>
        <time>2021-08-29T07:25:02Z</time>
      </trkpt>
      <trkpt lat="44.60426" lon="2.55864">
        <ele>642</ele>
        <time>2021-08-29T07:25:08Z</time>
      </trkpt>
      <trkpt lat="44.60435" lon="2.55847">
        <ele>643</ele>
        <time>2021-08-29T07:25:12Z</time>
      </trkpt>
      <trkpt lat="44.60454" lon="2.5583">
        <ele>643</ele>
        <time>2021-08-29T07:25:18Z</time>
      </trkpt>
      <trkpt lat="44.60567" lon="2.55778">
        <ele>644</ele>
        <time>2021-08-29T07:25:50Z</time>
      </trkpt>
      <trkpt lat="44.60582" lon="2.55771">
        <ele>644</ele>
        <time>2021-08-29T07:25:54Z</time>
      </trkpt>
      <trkpt lat="44.60633" lon="2.55763">
        <ele>643</ele>
        <time>2021-08-29T07:26:05Z</time>
      </trkpt>
      <trkpt lat="44.60652" lon="2.55746">
        <ele>641</ele>
        <time>2021-08-29T07:26:11Z</time>
      </trkpt>
      <trkpt lat="44.60719" lon="2.55662">
        <ele>633</ele>
        <time>2021-08-29T07:26:26Z</time>
      </trkpt>
      <trkpt lat="44.60761" lon="2.55627">
        <ele>629</ele>
        <time>2021-08-29T07:26:32Z</time>
      </trkpt>
      <trkpt lat="44.60823" lon="2.55527">
        <ele>622</ele>
        <time>2021-08-29T07:26:42Z</time>
      </trkpt>
      <trkpt lat="44.60833" lon="2.55504">
        <ele>621</ele>
        <time>2021-08-29T07:26:44Z</time>
      </trkpt>
      <trkpt lat="44.60901" lon="2.5523">
        <ele>622</ele>
        <time>2021-08-29T07:27:15Z</time>
      </trkpt>
      <trkpt lat="44.60948" lon="2.55019">
        <ele>619</ele>
        <time>2021-08-29T07:27:43Z</time>
      </trkpt>
      <trkpt lat="44.60974" lon="2.54783">
        <ele>617</ele>
        <time>2021-08-29T07:28:14Z</time>
      </trkpt>
      <trkpt lat="44.60981" lon="2.5474">
        <ele>617</ele>
        <time>2021-08-29T07:28:20Z</time>
      </trkpt>
      <trkpt lat="44.60991" lon="2.54714">
        <ele>617</ele>
        <time>2021-08-29T07:28:24Z</time>
      </trkpt>
      <trkpt lat="44.61005" lon="2.54694">
        <ele>617</ele>
        <time>2021-08-29T07:28:28Z</time>
      </trkpt>
      <trkpt lat="44.61024" lon="2.54675">
        <ele>616</ele>
        <time>2021-08-29T07:28:33Z</time>
      </trkpt>
      <trkpt lat="44.61153" lon="2.54616">
        <ele>616</ele>
        <time>2021-08-29T07:29:03Z</time>
      </trkpt>
      <trkpt lat="44.61286" lon="2.54546">
        <ele>615</ele>
        <time>2021-08-29T07:29:33Z</time>
      </trkpt>
      <trkpt lat="44.61322" lon="2.54521">
        <ele>614</ele>
        <time>2021-08-29T07:29:41Z</time>
      </trkpt>
      <trkpt lat="44.61335" lon="2.54507">
        <ele>614</ele>
        <time>2021-08-29T07:29:44Z</time>
      </trkpt>
      <trkpt lat="44.61346" lon="2.54491">
        <ele>615</ele>
        <time>2021-08-29T07:29:47Z</time>
      </trkpt>
      <trkpt lat="44.61395" lon="2.54356">
        <ele>613</ele>
        <time>2021-08-29T07:30:08Z</time>
      </trkpt>
      <trkpt lat="44.614" lon="2.54327">
        <ele>614</ele>
        <time>2021-08-29T07:30:12Z</time>
      </trkpt>
      <trkpt lat="44.61402" lon="2.54298">
        <ele>614</ele>
        <time>2021-08-29T07:30:16Z</time>
      </trkpt>
      <trkpt lat="44.61397" lon="2.54268">
        <ele>615</ele>
        <time>2021-08-29T07:30:21Z</time>
      </trkpt>
      <trkpt lat="44.61327" lon="2.541">
        <ele>613</ele>
        <time>2021-08-29T07:30:51Z</time>
      </trkpt>
      <trkpt lat="44.61301" lon="2.53981">
        <ele>612</ele>
        <time>2021-08-29T07:31:11Z</time>
      </trkpt>
      <trkpt lat="44.6129" lon="2.53955">
        <ele>613</ele>
        <time>2021-08-29T07:31:15Z</time>
      </trkpt>
      <trkpt lat="44.6127" lon="2.53931">
        <ele>613</ele>
        <time>2021-08-29T07:31:20Z</time>
      </trkpt>
      <trkpt lat="44.61219" lon="2.53886">
        <ele>617</ele>
        <time>2021-08-29T07:31:33Z</time>
      </trkpt>
      <trkpt lat="44.61203" lon="2.5386">
        <ele>617</ele>
        <time>2021-08-29T07:31:39Z</time>
      </trkpt>
      <trkpt lat="44.61194" lon="2.53827">
        <ele>617</ele>
        <time>2021-08-29T07:31:45Z</time>
      </trkpt>
      <trkpt lat="44.6119" lon="2.5378">
        <ele>619</ele>
        <time>2021-08-29T07:31:53Z</time>
      </trkpt>
      <trkpt lat="44.61193" lon="2.53735">
        <ele>619</ele>
        <time>2021-08-29T07:32:01Z</time>
      </trkpt>
      <trkpt lat="44.61202" lon="2.53704">
        <ele>620</ele>
        <time>2021-08-29T07:32:07Z</time>
      </trkpt>
      <trkpt lat="44.61216" lon="2.53678">
        <ele>620</ele>
        <time>2021-08-29T07:32:13Z</time>
      </trkpt>
      <trkpt lat="44.61302" lon="2.53579">
        <ele>621</ele>
        <time>2021-08-29T07:32:44Z</time>
      </trkpt>
      <trkpt lat="44.61352" lon="2.53521">
        <ele>623</ele>
        <time>2021-08-29T07:33:02Z</time>
      </trkpt>
      <trkpt lat="44.61381" lon="2.53504">
        <ele>623</ele>
        <time>2021-08-29T07:33:10Z</time>
      </trkpt>
      <trkpt lat="44.61476" lon="2.53502">
        <ele>631</ele>
        <time>2021-08-29T07:33:42Z</time>
      </trkpt>
      <trkpt lat="44.61558" lon="2.53519">
        <ele>631</ele>
        <time>2021-08-29T07:34:04Z</time>
      </trkpt>
      <trkpt lat="44.61695" lon="2.53458">
        <ele>627</ele>
        <time>2021-08-29T07:34:35Z</time>
      </trkpt>
      <trkpt lat="44.61749" lon="2.53448">
        <ele>627</ele>
        <time>2021-08-29T07:34:43Z</time>
      </trkpt>
      <trkpt lat="44.61773" lon="2.53438">
        <ele>625</ele>
        <time>2021-08-29T07:34:46Z</time>
      </trkpt>
      <trkpt lat="44.61794" lon="2.53416">
        <ele>624</ele>
        <time>2021-08-29T07:34:49Z</time>
      </trkpt>
      <trkpt lat="44.61905" lon="2.53207">
        <ele>619</ele>
        <time>2021-08-29T07:35:14Z</time>
      </trkpt>
      <trkpt lat="44.61934" lon="2.53015">
        <ele>612</ele>
        <time>2021-08-29T07:35:32Z</time>
      </trkpt>
      <trkpt lat="44.61935" lon="2.52981">
        <ele>612</ele>
        <time>2021-08-29T07:35:35Z</time>
      </trkpt>
      <trkpt lat="44.6193" lon="2.52949">
        <ele>611</ele>
        <time>2021-08-29T07:35:38Z</time>
      </trkpt>
      <trkpt lat="44.61919" lon="2.52904">
        <ele>609</ele>
        <time>2021-08-29T07:35:42Z</time>
      </trkpt>
      <trkpt lat="44.61917" lon="2.52892">
        <ele>609</ele>
        <time>2021-08-29T07:35:43Z</time>
      </trkpt>
      <trkpt lat="44.61921" lon="2.52868">
        <ele>608</ele>
        <time>2021-08-29T07:35:45Z</time>
      </trkpt>
      <trkpt lat="44.61925" lon="2.52858">
        <ele>608</ele>
        <time>2021-08-29T07:35:46Z</time>
      </trkpt>
      <trkpt lat="44.61937" lon="2.5284">
        <ele>607</ele>
        <time>2021-08-29T07:35:48Z</time>
      </trkpt>
      <trkpt lat="44.61952" lon="2.52829">
        <ele>607</ele>
        <time>2021-08-29T07:35:50Z</time>
      </trkpt>
      <trkpt lat="44.61975" lon="2.52825">
        <ele>606</ele>
        <time>2021-08-29T07:35:53Z</time>
      </trkpt>
      <trkpt lat="44.62017" lon="2.52834">
        <ele>604</ele>
        <time>2021-08-29T07:35:59Z</time>
      </trkpt>
      <trkpt lat="44.62038" lon="2.52832">
        <ele>603</ele>
        <time>2021-08-29T07:36:02Z</time>
      </trkpt>
      <trkpt lat="44.62047" lon="2.5283">
        <ele>603</ele>
        <time>2021-08-29T07:36:03Z</time>
      </trkpt>
      <trkpt lat="44.62061" lon="2.52819">
        <ele>603</ele>
        <time>2021-08-29T07:36:05Z</time>
      </trkpt>
      <trkpt lat="44.62071" lon="2.52804">
        <ele>603</ele>
        <time>2021-08-29T07:36:07Z</time>
      </trkpt>
      <trkpt lat="44.62096" lon="2.52665">
        <ele>602</ele>
        <time>2021-08-29T07:36:21Z</time>
      </trkpt>
      <trkpt lat="44.62096" lon="2.52601">
        <ele>601</ele>
        <time>2021-08-29T07:36:28Z</time>
      </trkpt>
      <trkpt lat="44.62093" lon="2.52579">
        <ele>600</ele>
        <time>2021-08-29T07:36:31Z</time>
      </trkpt>
      <trkpt lat="44.6209" lon="2.52568">
        <ele>600</ele>
        <time>2021-08-29T07:36:33Z</time>
      </trkpt>
      <trkpt lat="44.62088" lon="2.52562">
        <ele>600</ele>
        <time>2021-08-29T07:36:35Z</time>
      </trkpt>
      <trkpt lat="44.62086" lon="2.52556">
        <ele>599</ele>
        <time>2021-08-29T07:37:20Z</time>
      </trkpt>
      <trkpt lat="44.62063" lon="2.52539">
        <ele>597</ele>
        <time>2021-08-29T07:37:32Z</time>
      </trkpt>
      <trkpt lat="44.62022" lon="2.52522">
        <ele>597</ele>
        <time>2021-08-29T07:37:41Z</time>
      </trkpt>
      <trkpt lat="44.61993" lon="2.52522">
        <ele>598</ele>
        <time>2021-08-29T07:37:46Z</time>
      </trkpt>
      <trkpt lat="44.61907" lon="2.52555">
        <ele>598</ele>
        <time>2021-08-29T07:38:00Z</time>
      </trkpt>
      <trkpt lat="44.61886" lon="2.52552">
        <ele>597</ele>
        <time>2021-08-29T07:38:03Z</time>
      </trkpt>
      <trkpt lat="44.61865" lon="2.52543">
        <ele>596</ele>
        <time>2021-08-29T07:38:06Z</time>
      </trkpt>
      <trkpt lat="44.6179" lon="2.52472">
        <ele>590</ele>
        <time>2021-08-29T07:38:17Z</time>
      </trkpt>
      <trkpt lat="44.61779" lon="2.52452">
        <ele>588</ele>
        <time>2021-08-29T07:38:19Z</time>
      </trkpt>
      <trkpt lat="44.61772" lon="2.52429">
        <ele>587</ele>
        <time>2021-08-29T07:38:21Z</time>
      </trkpt>
      <trkpt lat="44.6177" lon="2.52402">
        <ele>587</ele>
        <time>2021-08-29T07:38:23Z</time>
      </trkpt>
      <trkpt lat="44.61774" lon="2.52375">
        <ele>586</ele>
        <time>2021-08-29T07:38:25Z</time>
      </trkpt>
      <trkpt lat="44.61788" lon="2.52339">
        <ele>585</ele>
        <time>2021-08-29T07:38:28Z</time>
      </trkpt>
      <trkpt lat="44.61823" lon="2.52291">
        <ele>582</ele>
        <time>2021-08-29T07:38:33Z</time>
      </trkpt>
      <trkpt lat="44.61837" lon="2.52254">
        <ele>579</ele>
        <time>2021-08-29T07:38:36Z</time>
      </trkpt>
      <trkpt lat="44.6184" lon="2.52229">
        <ele>578</ele>
        <time>2021-08-29T07:38:38Z</time>
      </trkpt>
      <trkpt lat="44.61837" lon="2.52203">
        <ele>576</ele>
        <time>2021-08-29T07:38:40Z</time>
      </trkpt>
      <trkpt lat="44.61807" lon="2.52135">
        <ele>572</ele>
        <time>2021-08-29T07:38:46Z</time>
      </trkpt>
      <trkpt lat="44.61801" lon="2.52108">
        <ele>571</ele>
        <time>2021-08-29T07:38:48Z</time>
      </trkpt>
      <trkpt lat="44.61803" lon="2.52067">
        <ele>567</ele>
        <time>2021-08-29T07:38:51Z</time>
      </trkpt>
      <trkpt lat="44.61817" lon="2.52">
        <ele>563</ele>
        <time>2021-08-29T07:38:56Z</time>
      </trkpt>
      <trkpt lat="44.61826" lon="2.51972">
        <ele>564</ele>
        <time>2021-08-29T07:38:58Z</time>
      </trkpt>
      <trkpt lat="44.61855" lon="2.5193">
        <ele>565</ele>
        <time>2021-08-29T07:39:02Z</time>
      </trkpt>
      <trkpt lat="44.61863" lon="2.51922">
        <ele>564</ele>
        <time>2021-08-29T07:39:03Z</time>
      </trkpt>
      <trkpt lat="44.61875" lon="2.51904">
        <ele>563</ele>
        <time>2021-08-29T07:39:05Z</time>
      </trkpt>
      <trkpt lat="44.61885" lon="2.51868">
        <ele>560</ele>
        <time>2021-08-29T07:39:08Z</time>
      </trkpt>
      <trkpt lat="44.61897" lon="2.51775">
        <ele>554</ele>
        <time>2021-08-29T07:39:15Z</time>
      </trkpt>
      <trkpt lat="44.61897" lon="2.51746">
        <ele>552</ele>
        <time>2021-08-29T07:39:17Z</time>
      </trkpt>
      <trkpt lat="44.61866" lon="2.51613">
        <ele>542</ele>
        <time>2021-08-29T07:39:27Z</time>
      </trkpt>
      <trkpt lat="44.61865" lon="2.51586">
        <ele>540</ele>
        <time>2021-08-29T07:39:29Z</time>
      </trkpt>
      <trkpt lat="44.61868" lon="2.5156">
        <ele>538</ele>
        <time>2021-08-29T07:39:31Z</time>
      </trkpt>
      <trkpt lat="44.61877" lon="2.51535">
        <ele>537</ele>
        <time>2021-08-29T07:39:33Z</time>
      </trkpt>
      <trkpt lat="44.61896" lon="2.51505">
        <ele>536</ele>
        <time>2021-08-29T07:39:36Z</time>
      </trkpt>
      <trkpt lat="44.61949" lon="2.51456">
        <ele>532</ele>
        <time>2021-08-29T07:39:43Z</time>
      </trkpt>
      <trkpt lat="44.62094" lon="2.51377">
        <ele>517</ele>
        <time>2021-08-29T07:39:59Z</time>
      </trkpt>
      <trkpt lat="44.62101" lon="2.51369">
        <ele>515</ele>
        <time>2021-08-29T07:40:00Z</time>
      </trkpt>
      <trkpt lat="44.62112" lon="2.51349">
        <ele>513</ele>
        <time>2021-08-29T07:40:02Z</time>
      </trkpt>
      <trkpt lat="44.62117" lon="2.51325">
        <ele>511</ele>
        <time>2021-08-29T07:40:04Z</time>
      </trkpt>
      <trkpt lat="44.62117" lon="2.51295">
        <ele>513</ele>
        <time>2021-08-29T07:40:06Z</time>
      </trkpt>
      <trkpt lat="44.62107" lon="2.5125">
        <ele>509</ele>
        <time>2021-08-29T07:40:10Z</time>
      </trkpt>
      <trkpt lat="44.62107" lon="2.51212">
        <ele>507</ele>
        <time>2021-08-29T07:40:13Z</time>
      </trkpt>
      <trkpt lat="44.62111" lon="2.51187">
        <ele>506</ele>
        <time>2021-08-29T07:40:15Z</time>
      </trkpt>
      <trkpt lat="44.62114" lon="2.51176">
        <ele>505</ele>
        <time>2021-08-29T07:40:16Z</time>
      </trkpt>
      <trkpt lat="44.62128" lon="2.51144">
        <ele>499</ele>
        <time>2021-08-29T07:40:19Z</time>
      </trkpt>
      <trkpt lat="44.62199" lon="2.51068">
        <ele>490</ele>
        <time>2021-08-29T07:40:28Z</time>
      </trkpt>
      <trkpt lat="44.6224" lon="2.50993">
        <ele>484</ele>
        <time>2021-08-29T07:40:36Z</time>
      </trkpt>
      <trkpt lat="44.62244" lon="2.50978">
        <ele>482</ele>
        <time>2021-08-29T07:40:38Z</time>
      </trkpt>
      <trkpt lat="44.62243" lon="2.50969">
        <ele>481</ele>
        <time>2021-08-29T07:40:40Z</time>
      </trkpt>
      <trkpt lat="44.62241" lon="2.50962">
        <ele>480</ele>
        <time>2021-08-29T07:40:43Z</time>
      </trkpt>
      <trkpt lat="44.62241" lon="2.50956">
        <ele>478</ele>
        <time>2021-08-29T07:40:49Z</time>
      </trkpt>
      <trkpt lat="44.62234" lon="2.50957">
        <ele>477</ele>
        <time>2021-08-29T07:41:03Z</time>
      </trkpt>
      <trkpt lat="44.62226" lon="2.50958">
        <ele>476</ele>
        <time>2021-08-29T07:41:05Z</time>
      </trkpt>
      <trkpt lat="44.62205" lon="2.50962">
        <ele>474</ele>
        <time>2021-08-29T07:41:09Z</time>
      </trkpt>
      <trkpt lat="44.62139" lon="2.51012">
        <ele>470</ele>
        <time>2021-08-29T07:41:19Z</time>
      </trkpt>
      <trkpt lat="44.61962" lon="2.51075">
        <ele>457</ele>
        <time>2021-08-29T07:41:41Z</time>
      </trkpt>
      <trkpt lat="44.61945" lon="2.51074">
        <ele>456</ele>
        <time>2021-08-29T07:41:43Z</time>
      </trkpt>
      <trkpt lat="44.61885" lon="2.51042">
        <ele>448</ele>
        <time>2021-08-29T07:41:50Z</time>
      </trkpt>
      <trkpt lat="44.61857" lon="2.5104">
        <ele>444</ele>
        <time>2021-08-29T07:41:53Z</time>
      </trkpt>
      <trkpt lat="44.61755" lon="2.51065">
        <ele>435</ele>
        <time>2021-08-29T07:42:04Z</time>
      </trkpt>
      <trkpt lat="44.61704" lon="2.51092">
        <ele>430</ele>
        <time>2021-08-29T07:42:10Z</time>
      </trkpt>
      <trkpt lat="44.61686" lon="2.51092">
        <ele>427</ele>
        <time>2021-08-29T07:42:12Z</time>
      </trkpt>
      <trkpt lat="44.6166" lon="2.5108">
        <ele>425</ele>
        <time>2021-08-29T07:42:15Z</time>
      </trkpt>
      <trkpt lat="44.61646" lon="2.51069">
        <ele>423</ele>
        <time>2021-08-29T07:42:17Z</time>
      </trkpt>
      <trkpt lat="44.61637" lon="2.51065">
        <ele>421</ele>
        <time>2021-08-29T07:42:18Z</time>
      </trkpt>
      <trkpt lat="44.6161" lon="2.51063">
        <ele>418</ele>
        <time>2021-08-29T07:42:21Z</time>
      </trkpt>
      <trkpt lat="44.61549" lon="2.51084">
        <ele>415</ele>
        <time>2021-08-29T07:42:28Z</time>
      </trkpt>
      <trkpt lat="44.61533" lon="2.51082">
        <ele>414</ele>
        <time>2021-08-29T07:42:30Z</time>
      </trkpt>
      <trkpt lat="44.61482" lon="2.51056">
        <ele>406</ele>
        <time>2021-08-29T07:42:40Z</time>
      </trkpt>
      <trkpt lat="44.61463" lon="2.51056">
        <ele>406</ele>
        <time>2021-08-29T07:42:44Z</time>
      </trkpt>
      <trkpt lat="44.61358" lon="2.51081">
        <ele>397</ele>
        <time>2021-08-29T07:43:09Z</time>
      </trkpt>
      <trkpt lat="44.61348" lon="2.51081">
        <ele>397</ele>
        <time>2021-08-29T07:43:11Z</time>
      </trkpt>
      <trkpt lat="44.61341" lon="2.51077">
        <ele>396</ele>
        <time>2021-08-29T07:43:13Z</time>
      </trkpt>
      <trkpt lat="44.61334" lon="2.51072">
        <ele>396</ele>
        <time>2021-08-29T07:43:15Z</time>
      </trkpt>
      <trkpt lat="44.61331" lon="2.51067">
        <ele>396</ele>
        <time>2021-08-29T07:43:16Z</time>
      </trkpt>
      <trkpt lat="44.61319" lon="2.51041">
        <ele>394</ele>
        <time>2021-08-29T07:43:21Z</time>
      </trkpt>
      <trkpt lat="44.61315" lon="2.51033">
        <ele>394</ele>
        <time>2021-08-29T07:43:23Z</time>
      </trkpt>
      <trkpt lat="44.61309" lon="2.51025">
        <ele>394</ele>
        <time>2021-08-29T07:43:25Z</time>
      </trkpt>
      <trkpt lat="44.61303" lon="2.51021">
        <ele>394</ele>
        <time>2021-08-29T07:43:27Z</time>
      </trkpt>
      <trkpt lat="44.61264" lon="2.5102">
        <ele>391</ele>
        <time>2021-08-29T07:43:37Z</time>
      </trkpt>
      <trkpt lat="44.61257" lon="2.51016">
        <ele>391</ele>
        <time>2021-08-29T07:43:39Z</time>
      </trkpt>
      <trkpt lat="44.6125" lon="2.51001">
        <ele>388</ele>
        <time>2021-08-29T07:43:44Z</time>
      </trkpt>
      <trkpt lat="44.61239" lon="2.50936">
        <ele>385</ele>
        <time>2021-08-29T07:43:58Z</time>
      </trkpt>
      <trkpt lat="44.61238" lon="2.50912">
        <ele>383</ele>
        <time>2021-08-29T07:44:04Z</time>
      </trkpt>
      <trkpt lat="44.61234" lon="2.5089">
        <ele>381</ele>
        <time>2021-08-29T07:44:08Z</time>
      </trkpt>
      <trkpt lat="44.61233" lon="2.50881">
        <ele>381</ele>
        <time>2021-08-29T07:44:10Z</time>
      </trkpt>
      <trkpt lat="44.61219" lon="2.50863">
        <ele>380</ele>
        <time>2021-08-29T07:44:14Z</time>
      </trkpt>
      <trkpt lat="44.61209" lon="2.50857">
        <ele>380</ele>
        <time>2021-08-29T07:44:16Z</time>
      </trkpt>
      <trkpt lat="44.61198" lon="2.50854">
        <ele>380</ele>
        <time>2021-08-29T07:44:18Z</time>
      </trkpt>
      <trkpt lat="44.61187" lon="2.50854">
        <ele>379</ele>
        <time>2021-08-29T07:44:20Z</time>
      </trkpt>
      <trkpt lat="44.61165" lon="2.50861">
        <ele>378</ele>
        <time>2021-08-29T07:44:24Z</time>
      </trkpt>
      <trkpt lat="44.61156" lon="2.50867">
        <ele>378</ele>
        <time>2021-08-29T07:44:26Z</time>
      </trkpt>
      <trkpt lat="44.61135" lon="2.50894">
        <ele>377</ele>
        <time>2021-08-29T07:44:31Z</time>
      </trkpt>
      <trkpt lat="44.61129" lon="2.50913">
        <ele>376</ele>
        <time>2021-08-29T07:44:34Z</time>
      </trkpt>
      <trkpt lat="44.61129" lon="2.50919">
        <ele>376</ele>
        <time>2021-08-29T07:44:35Z</time>
      </trkpt>
      <trkpt lat="44.61134" lon="2.50959">
        <ele>377</ele>
        <time>2021-08-29T07:44:41Z</time>
      </trkpt>
      <trkpt lat="44.61139" lon="2.50974">
        <ele>377</ele>
        <time>2021-08-29T07:44:43Z</time>
      </trkpt>
      <trkpt lat="44.61154" lon="2.51018">
        <ele>378</ele>
        <time>2021-08-29T07:44:52Z</time>
      </trkpt>
      <trkpt lat="44.61157" lon="2.51025">
        <ele>378</ele>
        <time>2021-08-29T07:44:54Z</time>
      </trkpt>
      <trkpt lat="44.61168" lon="2.51047">
        <ele>378</ele>
        <time>2021-08-29T07:45:00Z</time>
      </trkpt>
      <trkpt lat="44.61174" lon="2.51064">
        <ele>378</ele>
        <time>2021-08-29T07:45:03Z</time>
      </trkpt>
      <trkpt lat="44.61174" lon="2.51088">
        <ele>377</ele>
        <time>2021-08-29T07:45:07Z</time>
      </trkpt>
      <trkpt lat="44.61172" lon="2.51095">
        <ele>377</ele>
        <time>2021-08-29T07:45:08Z</time>
      </trkpt>
      <trkpt lat="44.61167" lon="2.51104">
        <ele>376</ele>
        <time>2021-08-29T07:45:10Z</time>
      </trkpt>
      <trkpt lat="44.61092" lon="2.51147">
        <ele>373</ele>
        <time>2021-08-29T07:45:34Z</time>
      </trkpt>
      <trkpt lat="44.61079" lon="2.51161">
        <ele>374</ele>
        <time>2021-08-29T07:45:41Z</time>
      </trkpt>
      <trkpt lat="44.61063" lon="2.51206">
        <ele>374</ele>
        <time>2021-08-29T07:45:55Z</time>
      </trkpt>
      <trkpt lat="44.61046" lon="2.51233">
        <ele>374</ele>
        <time>2021-08-29T07:46:03Z</time>
      </trkpt>
      <trkpt lat="44.61022" lon="2.5125">
        <ele>374</ele>
        <time>2021-08-29T07:46:10Z</time>
      </trkpt>
      <trkpt lat="44.60878" lon="2.51297">
        <ele>371</ele>
        <time>2021-08-29T07:46:41Z</time>
      </trkpt>
      <trkpt lat="44.60868" lon="2.51302">
        <ele>370</ele>
        <time>2021-08-29T07:46:43Z</time>
      </trkpt>
      <trkpt lat="44.60853" lon="2.51305">
        <ele>370</ele>
        <time>2021-08-29T07:46:46Z</time>
      </trkpt>
      <trkpt lat="44.60843" lon="2.51303">
        <ele>369</ele>
        <time>2021-08-29T07:46:48Z</time>
      </trkpt>
      <trkpt lat="44.60834" lon="2.51296">
        <ele>368</ele>
        <time>2021-08-29T07:46:50Z</time>
      </trkpt>
      <trkpt lat="44.60818" lon="2.51275">
        <ele>365</ele>
        <time>2021-08-29T07:46:54Z</time>
      </trkpt>
      <trkpt lat="44.60805" lon="2.51246">
        <ele>364</ele>
        <time>2021-08-29T07:46:58Z</time>
      </trkpt>
      <trkpt lat="44.60791" lon="2.51179">
        <ele>364</ele>
        <time>2021-08-29T07:47:06Z</time>
      </trkpt>
      <trkpt lat="44.60789" lon="2.51153">
        <ele>367</ele>
        <time>2021-08-29T07:47:10Z</time>
      </trkpt>
      <trkpt lat="44.60789" lon="2.51137">
        <ele>369</ele>
        <time>2021-08-29T07:47:14Z</time>
      </trkpt>
      <trkpt lat="44.60792" lon="2.5111">
        <ele>371</ele>
        <time>2021-08-29T07:47:20Z</time>
      </trkpt>
      <trkpt lat="44.60804" lon="2.51082">
        <ele>373</ele>
        <time>2021-08-29T07:47:30Z</time>
      </trkpt>
      <trkpt lat="44.60813" lon="2.51048">
        <ele>375</ele>
        <time>2021-08-29T07:47:40Z</time>
      </trkpt>
      <trkpt lat="44.60818" lon="2.51026">
        <ele>377</ele>
        <time>2021-08-29T07:47:46Z</time>
      </trkpt>
      <trkpt lat="44.60814" lon="2.50992">
        <ele>378</ele>
        <time>2021-08-29T07:47:56Z</time>
      </trkpt>
      <trkpt lat="44.60797" lon="2.50968">
        <ele>377</ele>
        <time>2021-08-29T07:48:07Z</time>
      </trkpt>
      <trkpt lat="44.60752" lon="2.50929">
        <ele>372</ele>
        <time>2021-08-29T07:48:29Z</time>
      </trkpt>
      <trkpt lat="44.60742" lon="2.50913">
        <ele>371</ele>
        <time>2021-08-29T07:48:35Z</time>
      </trkpt>
      <trkpt lat="44.60738" lon="2.509">
        <ele>371</ele>
        <time>2021-08-29T07:48:39Z</time>
      </trkpt>
      <trkpt lat="44.60735" lon="2.50877">
        <ele>373</ele>
        <time>2021-08-29T07:48:45Z</time>
      </trkpt>
      <trkpt lat="44.60739" lon="2.50854">
        <ele>374</ele>
        <time>2021-08-29T07:48:51Z</time>
      </trkpt>
      <trkpt lat="44.60767" lon="2.50783">
        <ele>381</ele>
        <time>2021-08-29T07:49:13Z</time>
      </trkpt>
      <trkpt lat="44.60777" lon="2.50701">
        <ele>384</ele>
        <time>2021-08-29T07:49:35Z</time>
      </trkpt>
      <trkpt lat="44.60778" lon="2.50664">
        <ele>386</ele>
        <time>2021-08-29T07:49:46Z</time>
      </trkpt>
      <trkpt lat="44.6076" lon="2.50598">
        <ele>387</ele>
        <time>2021-08-29T07:50:04Z</time>
      </trkpt>
      <trkpt lat="44.60758" lon="2.50543">
        <ele>391</ele>
        <time>2021-08-29T07:50:18Z</time>
      </trkpt>
      <trkpt lat="44.60753" lon="2.50512">
        <ele>392</ele>
        <time>2021-08-29T07:50:28Z</time>
      </trkpt>
      <trkpt lat="44.6074" lon="2.50492">
        <ele>391</ele>
        <time>2021-08-29T07:50:36Z</time>
      </trkpt>
      <trkpt lat="44.60711" lon="2.50448">
        <ele>391</ele>
        <time>2021-08-29T07:50:54Z</time>
      </trkpt>
      <trkpt lat="44.60686" lon="2.50432">
        <ele>392</ele>
        <time>2021-08-29T07:51:06Z</time>
      </trkpt>
      <trkpt lat="44.60663" lon="2.50422">
        <ele>393</ele>
        <time>2021-08-29T07:51:16Z</time>
      </trkpt>
      <trkpt lat="44.60654" lon="2.50415">
        <ele>394</ele>
        <time>2021-08-29T07:51:20Z</time>
      </trkpt>
      <trkpt lat="44.60646" lon="2.50403">
        <ele>395</ele>
        <time>2021-08-29T07:51:24Z</time>
      </trkpt>
      <trkpt lat="44.60633" lon="2.50368">
        <ele>399</ele>
        <time>2021-08-29T07:51:34Z</time>
      </trkpt>
      <trkpt lat="44.6063" lon="2.50343">
        <ele>401</ele>
        <time>2021-08-29T07:51:40Z</time>
      </trkpt>
      <trkpt lat="44.60629" lon="2.50297">
        <ele>404</ele>
        <time>2021-08-29T07:51:50Z</time>
      </trkpt>
      <trkpt lat="44.60627" lon="2.50272">
        <ele>405</ele>
        <time>2021-08-29T07:51:56Z</time>
      </trkpt>
      <trkpt lat="44.60633" lon="2.50148">
        <ele>412</ele>
        <time>2021-08-29T07:52:26Z</time>
      </trkpt>
      <trkpt lat="44.60634" lon="2.50108">
        <ele>410</ele>
        <time>2021-08-29T07:52:36Z</time>
      </trkpt>
      <trkpt lat="44.60631" lon="2.50084">
        <ele>410</ele>
        <time>2021-08-29T07:52:42Z</time>
      </trkpt>
      <trkpt lat="44.60625" lon="2.50069">
        <ele>410</ele>
        <time>2021-08-29T07:52:46Z</time>
      </trkpt>
      <trkpt lat="44.60622" lon="2.50063">
        <ele>410</ele>
        <time>2021-08-29T07:52:48Z</time>
      </trkpt>
      <trkpt lat="44.60601" lon="2.50041">
        <ele>410</ele>
        <time>2021-08-29T07:52:56Z</time>
      </trkpt>
      <trkpt lat="44.60521" lon="2.49983">
        <ele>413</ele>
        <time>2021-08-29T07:53:22Z</time>
      </trkpt>
      <trkpt lat="44.60504" lon="2.49965">
        <ele>411</ele>
        <time>2021-08-29T07:53:28Z</time>
      </trkpt>
      <trkpt lat="44.60496" lon="2.49949">
        <ele>411</ele>
        <time>2021-08-29T07:53:32Z</time>
      </trkpt>
      <trkpt lat="44.60491" lon="2.49929">
        <ele>411</ele>
        <time>2021-08-29T07:53:36Z</time>
      </trkpt>
      <trkpt lat="44.60482" lon="2.49782">
        <ele>409</ele>
        <time>2021-08-29T07:54:01Z</time>
      </trkpt>
      <trkpt lat="44.60488" lon="2.49742">
        <ele>408</ele>
        <time>2021-08-29T07:54:06Z</time>
      </trkpt>
      <trkpt lat="44.60515" lon="2.49647">
        <ele>406</ele>
        <time>2021-08-29T07:54:18Z</time>
      </trkpt>
      <trkpt lat="44.6052" lon="2.49623">
        <ele>405</ele>
        <time>2021-08-29T07:54:21Z</time>
      </trkpt>
      <trkpt lat="44.60529" lon="2.49604">
        <ele>408</ele>
        <time>2021-08-29T07:54:24Z</time>
      </trkpt>
      <trkpt lat="44.60536" lon="2.49594">
        <ele>410</ele>
        <time>2021-08-29T07:54:26Z</time>
      </trkpt>
      <trkpt lat="44.6061" lon="2.49549">
        <ele>419</ele>
        <time>2021-08-29T07:54:56Z</time>
      </trkpt>
      <trkpt lat="44.60637" lon="2.49534">
        <ele>422</ele>
        <time>2021-08-29T07:55:06Z</time>
      </trkpt>
      <trkpt lat="44.60646" lon="2.49524">
        <ele>424</ele>
        <time>2021-08-29T07:55:10Z</time>
      </trkpt>
      <trkpt lat="44.60652" lon="2.49511">
        <ele>425</ele>
        <time>2021-08-29T07:55:14Z</time>
      </trkpt>
      <trkpt lat="44.60654" lon="2.49497">
        <ele>426</ele>
        <time>2021-08-29T07:55:18Z</time>
      </trkpt>
      <trkpt lat="44.60651" lon="2.49484">
        <ele>426</ele>
        <time>2021-08-29T07:55:22Z</time>
      </trkpt>
      <trkpt lat="44.60649" lon="2.49478">
        <ele>426</ele>
        <time>2021-08-29T07:55:24Z</time>
      </trkpt>
      <trkpt lat="44.60617" lon="2.49434">
        <ele>425</ele>
        <time>2021-08-29T07:55:44Z</time>
      </trkpt>
      <trkpt lat="44.60608" lon="2.49409">
        <ele>426</ele>
        <time>2021-08-29T07:55:53Z</time>
      </trkpt>
      <trkpt lat="44.60581" lon="2.49318">
        <ele>428</ele>
        <time>2021-08-29T07:56:24Z</time>
      </trkpt>
      <trkpt lat="44.60564" lon="2.49235">
        <ele>434</ele>
        <time>2021-08-29T07:56:52Z</time>
      </trkpt>
      <trkpt lat="44.60559" lon="2.49179">
        <ele>438</ele>
        <time>2021-08-29T07:57:11Z</time>
      </trkpt>
      <trkpt lat="44.60569" lon="2.49095">
        <ele>442</ele>
        <time>2021-08-29T07:57:41Z</time>
      </trkpt>
      <trkpt lat="44.60574" lon="2.49057">
        <ele>438</ele>
        <time>2021-08-29T07:57:55Z</time>
      </trkpt>
      <trkpt lat="44.60577" lon="2.4905">
        <ele>437</ele>
        <time>2021-08-29T07:57:58Z</time>
      </trkpt>
      <trkpt lat="44.60581" lon="2.49027">
        <ele>436</ele>
        <time>2021-08-29T07:58:06Z</time>
      </trkpt>
      <trkpt lat="44.60597" lon="2.49007">
        <ele>439</ele>
        <time>2021-08-29T07:58:16Z</time>
      </trkpt>
      <trkpt lat="44.60608" lon="2.48985">
        <ele>442</ele>
        <time>2021-08-29T07:58:24Z</time>
      </trkpt>
      <trkpt lat="44.60611" lon="2.48979">
        <ele>443</ele>
        <time>2021-08-29T07:58:26Z</time>
      </trkpt>
      <trkpt lat="44.60629" lon="2.48949">
        <ele>451</ele>
        <time>2021-08-29T07:58:39Z</time>
      </trkpt>
      <trkpt lat="44.60631" lon="2.48943">
        <ele>452</ele>
        <time>2021-08-29T07:58:41Z</time>
      </trkpt>
      <trkpt lat="44.60654" lon="2.48898">
        <ele>458</ele>
        <time>2021-08-29T07:58:59Z</time>
      </trkpt>
      <trkpt lat="44.6068" lon="2.48872">
        <ele>464</ele>
        <time>2021-08-29T07:59:13Z</time>
      </trkpt>
      <trkpt lat="44.60716" lon="2.48854">
        <ele>467</ele>
        <time>2021-08-29T07:59:30Z</time>
      </trkpt>
      <trkpt lat="44.60732" lon="2.48832">
        <ele>468</ele>
        <time>2021-08-29T07:59:40Z</time>
      </trkpt>
      <trkpt lat="44.60745" lon="2.48815">
        <ele>469</ele>
        <time>2021-08-29T07:59:49Z</time>
      </trkpt>
      <trkpt lat="44.60758" lon="2.48779">
        <ele>468</ele>
        <time>2021-08-29T08:00:02Z</time>
      </trkpt>
      <trkpt lat="44.60761" lon="2.48771">
        <ele>467</ele>
        <time>2021-08-29T08:00:04Z</time>
      </trkpt>
      <trkpt lat="44.60767" lon="2.48751">
        <ele>468</ele>
        <time>2021-08-29T08:00:10Z</time>
      </trkpt>
      <trkpt lat="44.60767" lon="2.48731">
        <ele>469</ele>
        <time>2021-08-29T08:00:16Z</time>
      </trkpt>
      <trkpt lat="44.60761" lon="2.48711">
        <ele>471</ele>
        <time>2021-08-29T08:00:23Z</time>
      </trkpt>
      <trkpt lat="44.60754" lon="2.48696">
        <ele>472</ele>
        <time>2021-08-29T08:00:29Z</time>
      </trkpt>
      <trkpt lat="44.60742" lon="2.48685">
        <ele>473</ele>
        <time>2021-08-29T08:00:35Z</time>
      </trkpt>
      <trkpt lat="44.6072" lon="2.48671">
        <ele>474</ele>
        <time>2021-08-29T08:00:45Z</time>
      </trkpt>
      <trkpt lat="44.60715" lon="2.48669">
        <ele>474</ele>
        <time>2021-08-29T08:00:47Z</time>
      </trkpt>
      <trkpt lat="44.60683" lon="2.4865">
        <ele>478</ele>
        <time>2021-08-29T08:01:03Z</time>
      </trkpt>
      <trkpt lat="44.60677" lon="2.48645">
        <ele>479</ele>
        <time>2021-08-29T08:01:06Z</time>
      </trkpt>
      <trkpt lat="44.60673" lon="2.48639">
        <ele>479</ele>
        <time>2021-08-29T08:01:09Z</time>
      </trkpt>
      <trkpt lat="44.60668" lon="2.48627">
        <ele>478</ele>
        <time>2021-08-29T08:01:13Z</time>
      </trkpt>
      <trkpt lat="44.60665" lon="2.4862">
        <ele>477</ele>
        <time>2021-08-29T08:01:16Z</time>
      </trkpt>
      <trkpt lat="44.60664" lon="2.486">
        <ele>476</ele>
        <time>2021-08-29T08:01:22Z</time>
      </trkpt>
      <trkpt lat="44.60669" lon="2.48576">
        <ele>479</ele>
        <time>2021-08-29T08:01:31Z</time>
      </trkpt>
      <trkpt lat="44.60677" lon="2.48553">
        <ele>481</ele>
        <time>2021-08-29T08:01:39Z</time>
      </trkpt>
      <trkpt lat="44.6068" lon="2.48538">
        <ele>482</ele>
        <time>2021-08-29T08:01:44Z</time>
      </trkpt>
      <trkpt lat="44.60681" lon="2.48525">
        <ele>482</ele>
        <time>2021-08-29T08:01:48Z</time>
      </trkpt>
      <trkpt lat="44.6068" lon="2.48516">
        <ele>481</ele>
        <time>2021-08-29T08:01:51Z</time>
      </trkpt>
      <trkpt lat="44.60677" lon="2.4851">
        <ele>482</ele>
        <time>2021-08-29T08:01:53Z</time>
      </trkpt>
      <trkpt lat="44.60673" lon="2.48506">
        <ele>483</ele>
        <time>2021-08-29T08:01:55Z</time>
      </trkpt>
      <trkpt lat="44.60669" lon="2.48503">
        <ele>486</ele>
        <time>2021-08-29T08:01:57Z</time>
      </trkpt>
      <trkpt lat="44.60648" lon="2.48502">
        <ele>488</ele>
        <time>2021-08-29T08:02:06Z</time>
      </trkpt>
      <trkpt lat="44.60632" lon="2.48508">
        <ele>490</ele>
        <time>2021-08-29T08:02:13Z</time>
      </trkpt>
      <trkpt lat="44.60614" lon="2.48519">
        <ele>493</ele>
        <time>2021-08-29T08:02:21Z</time>
      </trkpt>
      <trkpt lat="44.60591" lon="2.48542">
        <ele>498</ele>
        <time>2021-08-29T08:02:33Z</time>
      </trkpt>
      <trkpt lat="44.60574" lon="2.48547">
        <ele>502</ele>
        <time>2021-08-29T08:02:41Z</time>
      </trkpt>
      <trkpt lat="44.60563" lon="2.48547">
        <ele>503</ele>
        <time>2021-08-29T08:02:47Z</time>
      </trkpt>
      <trkpt lat="44.60543" lon="2.48533">
        <ele>505</ele>
        <time>2021-08-29T08:02:57Z</time>
      </trkpt>
      <trkpt lat="44.60538" lon="2.48529">
        <ele>506</ele>
        <time>2021-08-29T08:03:00Z</time>
      </trkpt>
      <trkpt lat="44.60533" lon="2.48528">
        <ele>506</ele>
        <time>2021-08-29T08:03:03Z</time>
      </trkpt>
      <trkpt lat="44.60529" lon="2.48534">
        <ele>505</ele>
        <time>2021-08-29T08:03:05Z</time>
      </trkpt>
      <trkpt lat="44.60528" lon="2.48564">
        <ele>503</ele>
        <time>2021-08-29T08:03:17Z</time>
      </trkpt>
      <trkpt lat="44.60527" lon="2.48571">
        <ele>505</ele>
        <time>2021-08-29T08:04:35Z</time>
      </trkpt>
      <trkpt lat="44.60532" lon="2.48574">
        <ele>505</ele>
        <time>2021-08-29T08:04:38Z</time>
      </trkpt>
      <trkpt lat="44.60532" lon="2.4859">
        <ele>505</ele>
        <time>2021-08-29T08:04:45Z</time>
      </trkpt>
      <trkpt lat="44.60531" lon="2.48597">
        <ele>504</ele>
        <time>2021-08-29T08:04:49Z</time>
      </trkpt>
      <trkpt lat="44.60525" lon="2.486">
        <ele>501</ele>
        <time>2021-08-29T08:05:05Z</time>
      </trkpt>
      <trkpt lat="44.60524" lon="2.48594">
        <ele>501</ele>
        <time>2021-08-29T08:08:28Z</time>
      </trkpt>
      <trkpt lat="44.60523" lon="2.4859">
        <ele>506</ele>
        <time>2021-08-29T08:11:17Z</time>
      </trkpt>
      <trkpt lat="44.60527" lon="2.48587">
        <ele>507</ele>
        <time>2021-08-29T08:12:17Z</time>
      </trkpt>
      <trkpt lat="44.60529" lon="2.4858">
        <ele>509</ele>
        <time>2021-08-29T08:12:20Z</time>
      </trkpt>
      <trkpt lat="44.6053" lon="2.48573">
        <ele>509</ele>
        <time>2021-08-29T08:12:23Z</time>
      </trkpt>
      <trkpt lat="44.60529" lon="2.48567">
        <ele>507</ele>
        <time>2021-08-29T08:12:29Z</time>
      </trkpt>
      <trkpt lat="44.60526" lon="2.48561">
        <ele>504</ele>
        <time>2021-08-29T08:12:35Z</time>
      </trkpt>
      <trkpt lat="44.60526" lon="2.48553">
        <ele>503</ele>
        <time>2021-08-29T08:12:39Z</time>
      </trkpt>
      <trkpt lat="44.60526" lon="2.48544">
        <ele>504</ele>
        <time>2021-08-29T08:12:42Z</time>
      </trkpt>
      <trkpt lat="44.60529" lon="2.48539">
        <ele>504</ele>
        <time>2021-08-29T08:12:44Z</time>
      </trkpt>
      <trkpt lat="44.60532" lon="2.48532">
        <ele>503</ele>
        <time>2021-08-29T08:12:47Z</time>
      </trkpt>
      <trkpt lat="44.60533" lon="2.48525">
        <ele>502</ele>
        <time>2021-08-29T08:12:50Z</time>
      </trkpt>
      <trkpt lat="44.60531" lon="2.48517">
        <ele>501</ele>
        <time>2021-08-29T08:12:53Z</time>
      </trkpt>
      <trkpt lat="44.60502" lon="2.48475">
        <ele>496</ele>
        <time>2021-08-29T08:13:07Z</time>
      </trkpt>
      <trkpt lat="44.60499" lon="2.48468">
        <ele>496</ele>
        <time>2021-08-29T08:13:09Z</time>
      </trkpt>
      <trkpt lat="44.60496" lon="2.48458">
        <ele>495</ele>
        <time>2021-08-29T08:13:12Z</time>
      </trkpt>
      <trkpt lat="44.60496" lon="2.48451">
        <ele>495</ele>
        <time>2021-08-29T08:13:14Z</time>
      </trkpt>
      <trkpt lat="44.60495" lon="2.48443">
        <ele>493</ele>
        <time>2021-08-29T08:13:16Z</time>
      </trkpt>
      <trkpt lat="44.60497" lon="2.48437">
        <ele>492</ele>
        <time>2021-08-29T08:13:19Z</time>
      </trkpt>
      <trkpt lat="44.60502" lon="2.48426">
        <ele>488</ele>
        <time>2021-08-29T08:13:23Z</time>
      </trkpt>
      <trkpt lat="44.60502" lon="2.48418">
        <ele>490</ele>
        <time>2021-08-29T08:13:25Z</time>
      </trkpt>
      <trkpt lat="44.6051" lon="2.48407">
        <ele>492</ele>
        <time>2021-08-29T08:13:30Z</time>
      </trkpt>
      <trkpt lat="44.60512" lon="2.484">
        <ele>494</ele>
        <time>2021-08-29T08:13:32Z</time>
      </trkpt>
      <trkpt lat="44.6056" lon="2.48324">
        <ele>508</ele>
        <time>2021-08-29T08:14:03Z</time>
      </trkpt>
      <trkpt lat="44.60563" lon="2.48317">
        <ele>509</ele>
        <time>2021-08-29T08:14:06Z</time>
      </trkpt>
      <trkpt lat="44.6057" lon="2.48304">
        <ele>509</ele>
        <time>2021-08-29T08:14:12Z</time>
      </trkpt>
      <trkpt lat="44.60601" lon="2.48249">
        <ele>514</ele>
        <time>2021-08-29T08:14:36Z</time>
      </trkpt>
      <trkpt lat="44.6061" lon="2.48228">
        <ele>513</ele>
        <time>2021-08-29T08:14:45Z</time>
      </trkpt>
      <trkpt lat="44.60612" lon="2.48222">
        <ele>513</ele>
        <time>2021-08-29T08:14:48Z</time>
      </trkpt>
      <trkpt lat="44.60622" lon="2.48194">
        <ele>511</ele>
        <time>2021-08-29T08:14:59Z</time>
      </trkpt>
      <trkpt lat="44.60624" lon="2.48185">
        <ele>510</ele>
        <time>2021-08-29T08:15:02Z</time>
      </trkpt>
      <trkpt lat="44.6063" lon="2.48174">
        <ele>511</ele>
        <time>2021-08-29T08:15:06Z</time>
      </trkpt>
      <trkpt lat="44.6069" lon="2.48122">
        <ele>518</ele>
        <time>2021-08-29T08:15:37Z</time>
      </trkpt>
      <trkpt lat="44.60699" lon="2.48117">
        <ele>520</ele>
        <time>2021-08-29T08:15:41Z</time>
      </trkpt>
      <trkpt lat="44.60728" lon="2.48082">
        <ele>525</ele>
        <time>2021-08-29T08:15:59Z</time>
      </trkpt>
      <trkpt lat="44.60769" lon="2.47997">
        <ele>531</ele>
        <time>2021-08-29T08:16:32Z</time>
      </trkpt>
      <trkpt lat="44.60779" lon="2.47966">
        <ele>534</ele>
        <time>2021-08-29T08:16:44Z</time>
      </trkpt>
      <trkpt lat="44.60787" lon="2.47915">
        <ele>533</ele>
        <time>2021-08-29T08:17:01Z</time>
      </trkpt>
      <trkpt lat="44.60786" lon="2.47909">
        <ele>534</ele>
        <time>2021-08-29T08:17:03Z</time>
      </trkpt>
      <trkpt lat="44.60785" lon="2.47893">
        <ele>535</ele>
        <time>2021-08-29T08:17:08Z</time>
      </trkpt>
      <trkpt lat="44.60784" lon="2.47884">
        <ele>534</ele>
        <time>2021-08-29T08:17:11Z</time>
      </trkpt>
      <trkpt lat="44.60783" lon="2.47877">
        <ele>533</ele>
        <time>2021-08-29T08:17:13Z</time>
      </trkpt>
      <trkpt lat="44.60782" lon="2.47871">
        <ele>533</ele>
        <time>2021-08-29T08:17:15Z</time>
      </trkpt>
      <trkpt lat="44.60778" lon="2.47836">
        <ele>532</ele>
        <time>2021-08-29T08:17:26Z</time>
      </trkpt>
      <trkpt lat="44.6078" lon="2.478">
        <ele>532</ele>
        <time>2021-08-29T08:17:37Z</time>
      </trkpt>
      <trkpt lat="44.60783" lon="2.47786">
        <ele>533</ele>
        <time>2021-08-29T08:17:41Z</time>
      </trkpt>
      <trkpt lat="44.60791" lon="2.47777">
        <ele>535</ele>
        <time>2021-08-29T08:17:48Z</time>
      </trkpt>
      <trkpt lat="44.608" lon="2.47773">
        <ele>535</ele>
        <time>2021-08-29T08:17:52Z</time>
      </trkpt>
      <trkpt lat="44.60812" lon="2.47759">
        <ele>534</ele>
        <time>2021-08-29T08:17:59Z</time>
      </trkpt>
      <trkpt lat="44.60816" lon="2.47752">
        <ele>535</ele>
        <time>2021-08-29T08:18:02Z</time>
      </trkpt>
      <trkpt lat="44.60821" lon="2.47741">
        <ele>536</ele>
        <time>2021-08-29T08:18:06Z</time>
      </trkpt>
      <trkpt lat="44.60821" lon="2.47727">
        <ele>537</ele>
        <time>2021-08-29T08:18:11Z</time>
      </trkpt>
      <trkpt lat="44.60821" lon="2.47721">
        <ele>537</ele>
        <time>2021-08-29T08:18:13Z</time>
      </trkpt>
      <trkpt lat="44.60812" lon="2.47686">
        <ele>536</ele>
        <time>2021-08-29T08:18:24Z</time>
      </trkpt>
      <trkpt lat="44.60811" lon="2.47671">
        <ele>536</ele>
        <time>2021-08-29T08:18:29Z</time>
      </trkpt>
      <trkpt lat="44.60811" lon="2.47664">
        <ele>536</ele>
        <time>2021-08-29T08:18:31Z</time>
      </trkpt>
      <trkpt lat="44.60815" lon="2.47651">
        <ele>537</ele>
        <time>2021-08-29T08:18:35Z</time>
      </trkpt>
      <trkpt lat="44.60819" lon="2.47647">
        <ele>538</ele>
        <time>2021-08-29T08:18:37Z</time>
      </trkpt>
      <trkpt lat="44.60836" lon="2.47628">
        <ele>541</ele>
        <time>2021-08-29T08:18:47Z</time>
      </trkpt>
      <trkpt lat="44.60847" lon="2.47604">
        <ele>544</ele>
        <time>2021-08-29T08:18:55Z</time>
      </trkpt>
      <trkpt lat="44.60856" lon="2.47556">
        <ele>555</ele>
        <time>2021-08-29T08:19:11Z</time>
      </trkpt>
      <trkpt lat="44.60859" lon="2.47549">
        <ele>555</ele>
        <time>2021-08-29T08:19:14Z</time>
      </trkpt>
      <trkpt lat="44.60862" lon="2.47545">
        <ele>557</ele>
        <time>2021-08-29T08:20:14Z</time>
      </trkpt>
      <trkpt lat="44.60857" lon="2.47541">
        <ele>555</ele>
        <time>2021-08-29T08:21:02Z</time>
      </trkpt>
      <trkpt lat="44.60851" lon="2.47538">
        <ele>556</ele>
        <time>2021-08-29T08:21:04Z</time>
      </trkpt>
      <trkpt lat="44.60848" lon="2.47534">
        <ele>557</ele>
        <time>2021-08-29T08:21:06Z</time>
      </trkpt>
      <trkpt lat="44.60847" lon="2.47525">
        <ele>558</ele>
        <time>2021-08-29T08:21:09Z</time>
      </trkpt>
      <trkpt lat="44.60847" lon="2.47516">
        <ele>558</ele>
        <time>2021-08-29T08:21:12Z</time>
      </trkpt>
      <trkpt lat="44.60848" lon="2.47502">
        <ele>557</ele>
        <time>2021-08-29T08:21:16Z</time>
      </trkpt>
      <trkpt lat="44.60847" lon="2.47495">
        <ele>557</ele>
        <time>2021-08-29T08:21:19Z</time>
      </trkpt>
      <trkpt lat="44.60843" lon="2.47479">
        <ele>556</ele>
        <time>2021-08-29T08:21:25Z</time>
      </trkpt>
      <trkpt lat="44.60842" lon="2.4747">
        <ele>556</ele>
        <time>2021-08-29T08:21:28Z</time>
      </trkpt>
      <trkpt lat="44.60838" lon="2.47458">
        <ele>557</ele>
        <time>2021-08-29T08:21:32Z</time>
      </trkpt>
      <trkpt lat="44.60835" lon="2.47452">
        <ele>558</ele>
        <time>2021-08-29T08:21:34Z</time>
      </trkpt>
      <trkpt lat="44.60833" lon="2.47445">
        <ele>558</ele>
        <time>2021-08-29T08:21:36Z</time>
      </trkpt>
      <trkpt lat="44.60831" lon="2.47439">
        <ele>559</ele>
        <time>2021-08-29T08:21:38Z</time>
      </trkpt>
      <trkpt lat="44.60828" lon="2.47434">
        <ele>560</ele>
        <time>2021-08-29T08:21:40Z</time>
      </trkpt>
      <trkpt lat="44.60788" lon="2.47386">
        <ele>563</ele>
        <time>2021-08-29T08:22:00Z</time>
      </trkpt>
      <trkpt lat="44.60758" lon="2.47338">
        <ele>565</ele>
        <time>2021-08-29T08:22:18Z</time>
      </trkpt>
      <trkpt lat="44.60741" lon="2.47316">
        <ele>565</ele>
        <time>2021-08-29T08:22:29Z</time>
      </trkpt>
      <trkpt lat="44.60733" lon="2.47304">
        <ele>565</ele>
        <time>2021-08-29T08:22:34Z</time>
      </trkpt>
      <trkpt lat="44.60731" lon="2.47299">
        <ele>565</ele>
        <time>2021-08-29T08:22:36Z</time>
      </trkpt>
      <trkpt lat="44.60728" lon="2.47294">
        <ele>565</ele>
        <time>2021-08-29T08:22:38Z</time>
      </trkpt>
      <trkpt lat="44.60693" lon="2.47258">
        <ele>563</ele>
        <time>2021-08-29T08:22:58Z</time>
      </trkpt>
      <trkpt lat="44.60685" lon="2.47247">
        <ele>563</ele>
        <time>2021-08-29T08:23:02Z</time>
      </trkpt>
      <trkpt lat="44.60681" lon="2.47233">
        <ele>563</ele>
        <time>2021-08-29T08:23:06Z</time>
      </trkpt>
      <trkpt lat="44.6068" lon="2.47226">
        <ele>564</ele>
        <time>2021-08-29T08:23:08Z</time>
      </trkpt>
      <trkpt lat="44.60679" lon="2.47219">
        <ele>565</ele>
        <time>2021-08-29T08:23:10Z</time>
      </trkpt>
      <trkpt lat="44.60683" lon="2.47204">
        <ele>566</ele>
        <time>2021-08-29T08:23:15Z</time>
      </trkpt>
      <trkpt lat="44.60685" lon="2.47179">
        <ele>568</ele>
        <time>2021-08-29T08:23:24Z</time>
      </trkpt>
      <trkpt lat="44.60681" lon="2.4716">
        <ele>569</ele>
        <time>2021-08-29T08:23:30Z</time>
      </trkpt>
      <trkpt lat="44.60673" lon="2.47121">
        <ele>566</ele>
        <time>2021-08-29T08:23:43Z</time>
      </trkpt>
      <trkpt lat="44.60669" lon="2.47107">
        <ele>565</ele>
        <time>2021-08-29T08:23:49Z</time>
      </trkpt>
      <trkpt lat="44.60659" lon="2.47071">
        <ele>563</ele>
        <time>2021-08-29T08:24:02Z</time>
      </trkpt>
      <trkpt lat="44.60657" lon="2.47062">
        <ele>564</ele>
        <time>2021-08-29T08:24:04Z</time>
      </trkpt>
      <trkpt lat="44.60655" lon="2.47054">
        <ele>567</ele>
        <time>2021-08-29T08:24:06Z</time>
      </trkpt>
      <trkpt lat="44.60654" lon="2.47046">
        <ele>568</ele>
        <time>2021-08-29T08:24:08Z</time>
      </trkpt>
      <trkpt lat="44.60656" lon="2.47029">
        <ele>571</ele>
        <time>2021-08-29T08:24:14Z</time>
      </trkpt>
      <trkpt lat="44.60655" lon="2.4702">
        <ele>572</ele>
        <time>2021-08-29T08:24:17Z</time>
      </trkpt>
      <trkpt lat="44.60651" lon="2.46998">
        <ele>573</ele>
        <time>2021-08-29T08:24:25Z</time>
      </trkpt>
      <trkpt lat="44.60632" lon="2.46971">
        <ele>576</ele>
        <time>2021-08-29T08:24:36Z</time>
      </trkpt>
      <trkpt lat="44.60629" lon="2.46966">
        <ele>576</ele>
        <time>2021-08-29T08:24:38Z</time>
      </trkpt>
      <trkpt lat="44.60626" lon="2.46952">
        <ele>579</ele>
        <time>2021-08-29T08:24:43Z</time>
      </trkpt>
      <trkpt lat="44.60625" lon="2.46917">
        <ele>582</ele>
        <time>2021-08-29T08:24:55Z</time>
      </trkpt>
      <trkpt lat="44.60622" lon="2.46901">
        <ele>583</ele>
        <time>2021-08-29T08:25:01Z</time>
      </trkpt>
      <trkpt lat="44.60617" lon="2.46886">
        <ele>585</ele>
        <time>2021-08-29T08:25:07Z</time>
      </trkpt>
      <trkpt lat="44.60613" lon="2.4687">
        <ele>587</ele>
        <time>2021-08-29T08:25:12Z</time>
      </trkpt>
      <trkpt lat="44.60612" lon="2.46863">
        <ele>589</ele>
        <time>2021-08-29T08:25:14Z</time>
      </trkpt>
      <trkpt lat="44.60613" lon="2.46849">
        <ele>593</ele>
        <time>2021-08-29T08:25:19Z</time>
      </trkpt>
      <trkpt lat="44.60629" lon="2.46816">
        <ele>599</ele>
        <time>2021-08-29T08:25:34Z</time>
      </trkpt>
      <trkpt lat="44.60638" lon="2.46806">
        <ele>601</ele>
        <time>2021-08-29T08:25:40Z</time>
      </trkpt>
      <trkpt lat="44.60663" lon="2.46791">
        <ele>603</ele>
        <time>2021-08-29T08:25:53Z</time>
      </trkpt>
      <trkpt lat="44.60686" lon="2.46767">
        <ele>605</ele>
        <time>2021-08-29T08:26:06Z</time>
      </trkpt>
      <trkpt lat="44.60695" lon="2.46751">
        <ele>607</ele>
        <time>2021-08-29T08:26:12Z</time>
      </trkpt>
      <trkpt lat="44.60708" lon="2.46691">
        <ele>610</ele>
        <time>2021-08-29T08:26:31Z</time>
      </trkpt>
      <trkpt lat="44.60714" lon="2.4668">
        <ele>611</ele>
        <time>2021-08-29T08:26:35Z</time>
      </trkpt>
      <trkpt lat="44.60731" lon="2.46653">
        <ele>613</ele>
        <time>2021-08-29T08:26:45Z</time>
      </trkpt>
      <trkpt lat="44.60747" lon="2.46628">
        <ele>613</ele>
        <time>2021-08-29T08:26:53Z</time>
      </trkpt>
      <trkpt lat="44.6076" lon="2.46612">
        <ele>613</ele>
        <time>2021-08-29T08:26:59Z</time>
      </trkpt>
      <trkpt lat="44.60773" lon="2.46591">
        <ele>615</ele>
        <time>2021-08-29T08:27:05Z</time>
      </trkpt>
      <trkpt lat="44.6078" lon="2.46573">
        <ele>615</ele>
        <time>2021-08-29T08:27:09Z</time>
      </trkpt>
      <trkpt lat="44.60782" lon="2.46554">
        <ele>614</ele>
        <time>2021-08-29T08:27:13Z</time>
      </trkpt>
      <trkpt lat="44.60779" lon="2.46534">
        <ele>613</ele>
        <time>2021-08-29T08:27:17Z</time>
      </trkpt>
      <trkpt lat="44.60748" lon="2.46428">
        <ele>614</ele>
        <time>2021-08-29T08:27:39Z</time>
      </trkpt>
      <trkpt lat="44.60718" lon="2.46276">
        <ele>610</ele>
        <time>2021-08-29T08:28:09Z</time>
      </trkpt>
      <trkpt lat="44.60708" lon="2.46203">
        <ele>608</ele>
        <time>2021-08-29T08:28:23Z</time>
      </trkpt>
      <trkpt lat="44.60706" lon="2.46151">
        <ele>611</ele>
        <time>2021-08-29T08:28:33Z</time>
      </trkpt>
      <trkpt lat="44.6071" lon="2.46128">
        <ele>613</ele>
        <time>2021-08-29T08:28:39Z</time>
      </trkpt>
      <trkpt lat="44.60741" lon="2.46047">
        <ele>615</ele>
        <time>2021-08-29T08:28:55Z</time>
      </trkpt>
      <trkpt lat="44.60762" lon="2.46022">
        <ele>616</ele>
        <time>2021-08-29T08:29:00Z</time>
      </trkpt>
      <trkpt lat="44.60846" lon="2.4598">
        <ele>614</ele>
        <time>2021-08-29T08:29:13Z</time>
      </trkpt>
      <trkpt lat="44.60863" lon="2.45956">
        <ele>613</ele>
        <time>2021-08-29T08:29:16Z</time>
      </trkpt>
      <trkpt lat="44.60872" lon="2.45937">
        <ele>613</ele>
        <time>2021-08-29T08:29:18Z</time>
      </trkpt>
      <trkpt lat="44.60919" lon="2.45701">
        <ele>605</ele>
        <time>2021-08-29T08:29:37Z</time>
      </trkpt>
      <trkpt lat="44.6093" lon="2.45677">
        <ele>605</ele>
        <time>2021-08-29T08:29:39Z</time>
      </trkpt>
      <trkpt lat="44.60946" lon="2.4566">
        <ele>604</ele>
        <time>2021-08-29T08:29:41Z</time>
      </trkpt>
      <trkpt lat="44.60954" lon="2.45654">
        <ele>604</ele>
        <time>2021-08-29T08:29:42Z</time>
      </trkpt>
      <trkpt lat="44.60973" lon="2.45651">
        <ele>603</ele>
        <time>2021-08-29T08:29:44Z</time>
      </trkpt>
      <trkpt lat="44.6099" lon="2.45658">
        <ele>602</ele>
        <time>2021-08-29T08:29:46Z</time>
      </trkpt>
      <trkpt lat="44.6101" lon="2.45679">
        <ele>599</ele>
        <time>2021-08-29T08:29:49Z</time>
      </trkpt>
      <trkpt lat="44.61017" lon="2.45683">
        <ele>598</ele>
        <time>2021-08-29T08:29:50Z</time>
      </trkpt>
      <trkpt lat="44.61024" lon="2.45685">
        <ele>598</ele>
        <time>2021-08-29T08:29:51Z</time>
      </trkpt>
      <trkpt lat="44.61031" lon="2.45684">
        <ele>597</ele>
        <time>2021-08-29T08:29:52Z</time>
      </trkpt>
      <trkpt lat="44.61038" lon="2.45678">
        <ele>598</ele>
        <time>2021-08-29T08:29:53Z</time>
      </trkpt>
      <trkpt lat="44.61048" lon="2.45658">
        <ele>599</ele>
        <time>2021-08-29T08:29:55Z</time>
      </trkpt>
      <trkpt lat="44.6107" lon="2.4556">
        <ele>596</ele>
        <time>2021-08-29T08:30:04Z</time>
      </trkpt>
      <trkpt lat="44.6107" lon="2.45536">
        <ele>595</ele>
        <time>2021-08-29T08:30:06Z</time>
      </trkpt>
      <trkpt lat="44.61068" lon="2.45525">
        <ele>594</ele>
        <time>2021-08-29T08:30:07Z</time>
      </trkpt>
      <trkpt lat="44.61058" lon="2.45504">
        <ele>594</ele>
        <time>2021-08-29T08:30:09Z</time>
      </trkpt>
      <trkpt lat="44.61005" lon="2.45454">
        <ele>598</ele>
        <time>2021-08-29T08:30:18Z</time>
      </trkpt>
      <trkpt lat="44.60999" lon="2.45441">
        <ele>597</ele>
        <time>2021-08-29T08:30:20Z</time>
      </trkpt>
      <trkpt lat="44.60997" lon="2.45427">
        <ele>597</ele>
        <time>2021-08-29T08:30:22Z</time>
      </trkpt>
      <trkpt lat="44.61008" lon="2.45297">
        <ele>599</ele>
        <time>2021-08-29T08:30:43Z</time>
      </trkpt>
      <trkpt lat="44.61008" lon="2.45291">
        <ele>599</ele>
        <time>2021-08-29T08:30:44Z</time>
      </trkpt>
      <trkpt lat="44.61001" lon="2.4527">
        <ele>599</ele>
        <time>2021-08-29T08:30:48Z</time>
      </trkpt>
      <trkpt lat="44.60967" lon="2.4522">
        <ele>598</ele>
        <time>2021-08-29T08:31:00Z</time>
      </trkpt>
      <trkpt lat="44.60962" lon="2.45197">
        <ele>599</ele>
        <time>2021-08-29T08:31:04Z</time>
      </trkpt>
      <trkpt lat="44.60963" lon="2.45172">
        <ele>600</ele>
        <time>2021-08-29T08:31:08Z</time>
      </trkpt>
      <trkpt lat="44.6098" lon="2.45098">
        <ele>601</ele>
        <time>2021-08-29T08:31:21Z</time>
      </trkpt>
      <trkpt lat="44.60981" lon="2.45044">
        <ele>602</ele>
        <time>2021-08-29T08:31:30Z</time>
      </trkpt>
      <trkpt lat="44.60976" lon="2.4502">
        <ele>602</ele>
        <time>2021-08-29T08:31:34Z</time>
      </trkpt>
      <trkpt lat="44.6097" lon="2.45004">
        <ele>602</ele>
        <time>2021-08-29T08:31:37Z</time>
      </trkpt>
      <trkpt lat="44.60955" lon="2.44982">
        <ele>602</ele>
        <time>2021-08-29T08:31:42Z</time>
      </trkpt>
      <trkpt lat="44.60936" lon="2.44965">
        <ele>602</ele>
        <time>2021-08-29T08:31:47Z</time>
      </trkpt>
      <trkpt lat="44.60923" lon="2.44949">
        <ele>602</ele>
        <time>2021-08-29T08:31:51Z</time>
      </trkpt>
      <trkpt lat="44.60896" lon="2.44879">
        <ele>599</ele>
        <time>2021-08-29T08:32:04Z</time>
      </trkpt>
      <trkpt lat="44.60873" lon="2.44849">
        <ele>600</ele>
        <time>2021-08-29T08:32:11Z</time>
      </trkpt>
      <trkpt lat="44.60868" lon="2.44839">
        <ele>600</ele>
        <time>2021-08-29T08:32:13Z</time>
      </trkpt>
      <trkpt lat="44.60866" lon="2.44828">
        <ele>601</ele>
        <time>2021-08-29T08:32:15Z</time>
      </trkpt>
      <trkpt lat="44.60869" lon="2.44805">
        <ele>601</ele>
        <time>2021-08-29T08:32:19Z</time>
      </trkpt>
      <trkpt lat="44.6089" lon="2.44739">
        <ele>602</ele>
        <time>2021-08-29T08:32:29Z</time>
      </trkpt>
      <trkpt lat="44.60933" lon="2.44652">
        <ele>603</ele>
        <time>2021-08-29T08:32:42Z</time>
      </trkpt>
      <trkpt lat="44.60938" lon="2.44626">
        <ele>602</ele>
        <time>2021-08-29T08:32:45Z</time>
      </trkpt>
      <trkpt lat="44.60943" lon="2.4459">
        <ele>601</ele>
        <time>2021-08-29T08:32:49Z</time>
      </trkpt>
      <trkpt lat="44.60966" lon="2.44505">
        <ele>599</ele>
        <time>2021-08-29T08:32:58Z</time>
      </trkpt>
      <trkpt lat="44.60967" lon="2.44484">
        <ele>599</ele>
        <time>2021-08-29T08:33:00Z</time>
      </trkpt>
      <trkpt lat="44.60965" lon="2.44474">
        <ele>598</ele>
        <time>2021-08-29T08:33:01Z</time>
      </trkpt>
      <trkpt lat="44.60962" lon="2.44465">
        <ele>598</ele>
        <time>2021-08-29T08:33:02Z</time>
      </trkpt>
      <trkpt lat="44.6095" lon="2.44451">
        <ele>598</ele>
        <time>2021-08-29T08:33:04Z</time>
      </trkpt>
      <trkpt lat="44.60924" lon="2.44429">
        <ele>597</ele>
        <time>2021-08-29T08:33:08Z</time>
      </trkpt>
      <trkpt lat="44.60918" lon="2.44421">
        <ele>596</ele>
        <time>2021-08-29T08:33:09Z</time>
      </trkpt>
      <trkpt lat="44.60915" lon="2.44412">
        <ele>596</ele>
        <time>2021-08-29T08:33:10Z</time>
      </trkpt>
      <trkpt lat="44.60913" lon="2.44391">
        <ele>596</ele>
        <time>2021-08-29T08:33:12Z</time>
      </trkpt>
      <trkpt lat="44.60929" lon="2.44309">
        <ele>593</ele>
        <time>2021-08-29T08:33:20Z</time>
      </trkpt>
      <trkpt lat="44.60966" lon="2.4421">
        <ele>591</ele>
        <time>2021-08-29T08:33:30Z</time>
      </trkpt>
      <trkpt lat="44.60969" lon="2.44189">
        <ele>591</ele>
        <time>2021-08-29T08:33:32Z</time>
      </trkpt>
      <trkpt lat="44.60967" lon="2.44168">
        <ele>589</ele>
        <time>2021-08-29T08:33:34Z</time>
      </trkpt>
      <trkpt lat="44.60956" lon="2.44139">
        <ele>588</ele>
        <time>2021-08-29T08:33:37Z</time>
      </trkpt>
      <trkpt lat="44.60941" lon="2.44112">
        <ele>587</ele>
        <time>2021-08-29T08:33:40Z</time>
      </trkpt>
      <trkpt lat="44.60938" lon="2.44102">
        <ele>586</ele>
        <time>2021-08-29T08:33:41Z</time>
      </trkpt>
      <trkpt lat="44.60936" lon="2.44091">
        <ele>586</ele>
        <time>2021-08-29T08:33:42Z</time>
      </trkpt>
      <trkpt lat="44.60937" lon="2.44067">
        <ele>586</ele>
        <time>2021-08-29T08:33:44Z</time>
      </trkpt>
      <trkpt lat="44.60964" lon="2.43975">
        <ele>583</ele>
        <time>2021-08-29T08:33:53Z</time>
      </trkpt>
      <trkpt lat="44.60964" lon="2.43945">
        <ele>582</ele>
        <time>2021-08-29T08:33:56Z</time>
      </trkpt>
      <trkpt lat="44.60952" lon="2.43886">
        <ele>581</ele>
        <time>2021-08-29T08:34:02Z</time>
      </trkpt>
      <trkpt lat="44.60952" lon="2.43875">
        <ele>581</ele>
        <time>2021-08-29T08:34:03Z</time>
      </trkpt>
      <trkpt lat="44.60954" lon="2.43863">
        <ele>581</ele>
        <time>2021-08-29T08:34:04Z</time>
      </trkpt>
      <trkpt lat="44.60963" lon="2.43844">
        <ele>581</ele>
        <time>2021-08-29T08:34:06Z</time>
      </trkpt>
      <trkpt lat="44.60979" lon="2.43824">
        <ele>580</ele>
        <time>2021-08-29T08:34:09Z</time>
      </trkpt>
      <trkpt lat="44.60982" lon="2.43816">
        <ele>580</ele>
        <time>2021-08-29T08:34:10Z</time>
      </trkpt>
      <trkpt lat="44.60987" lon="2.43798">
        <ele>580</ele>
        <time>2021-08-29T08:34:12Z</time>
      </trkpt>
      <trkpt lat="44.60988" lon="2.43755">
        <ele>580</ele>
        <time>2021-08-29T08:34:16Z</time>
      </trkpt>
      <trkpt lat="44.60992" lon="2.43734">
        <ele>580</ele>
        <time>2021-08-29T08:34:18Z</time>
      </trkpt>
      <trkpt lat="44.61001" lon="2.43715">
        <ele>580</ele>
        <time>2021-08-29T08:34:20Z</time>
      </trkpt>
      <trkpt lat="44.61014" lon="2.43704">
        <ele>580</ele>
        <time>2021-08-29T08:34:22Z</time>
      </trkpt>
      <trkpt lat="44.61071" lon="2.43675">
        <ele>579</ele>
        <time>2021-08-29T08:34:31Z</time>
      </trkpt>
      <trkpt lat="44.61085" lon="2.4366">
        <ele>578</ele>
        <time>2021-08-29T08:34:34Z</time>
      </trkpt>
      <trkpt lat="44.61105" lon="2.43614">
        <ele>577</ele>
        <time>2021-08-29T08:34:40Z</time>
      </trkpt>
      <trkpt lat="44.61109" lon="2.43596">
        <ele>577</ele>
        <time>2021-08-29T08:34:42Z</time>
      </trkpt>
      <trkpt lat="44.61104" lon="2.4348">
        <ele>578</ele>
        <time>2021-08-29T08:34:54Z</time>
      </trkpt>
      <trkpt lat="44.61097" lon="2.4343">
        <ele>577</ele>
        <time>2021-08-29T08:34:59Z</time>
      </trkpt>
      <trkpt lat="44.61064" lon="2.43341">
        <ele>576</ele>
        <time>2021-08-29T08:35:09Z</time>
      </trkpt>
      <trkpt lat="44.61062" lon="2.4331">
        <ele>576</ele>
        <time>2021-08-29T08:35:13Z</time>
      </trkpt>
      <trkpt lat="44.61067" lon="2.43248">
        <ele>575</ele>
        <time>2021-08-29T08:35:21Z</time>
      </trkpt>
      <trkpt lat="44.61076" lon="2.43211">
        <ele>574</ele>
        <time>2021-08-29T08:35:26Z</time>
      </trkpt>
      <trkpt lat="44.61089" lon="2.43178">
        <ele>574</ele>
        <time>2021-08-29T08:35:31Z</time>
      </trkpt>
      <trkpt lat="44.61168" lon="2.43074">
        <ele>569</ele>
        <time>2021-08-29T08:35:58Z</time>
      </trkpt>
      <trkpt lat="44.61175" lon="2.43054">
        <ele>569</ele>
        <time>2021-08-29T08:36:02Z</time>
      </trkpt>
      <trkpt lat="44.61177" lon="2.43045">
        <ele>569</ele>
        <time>2021-08-29T08:36:04Z</time>
      </trkpt>
      <trkpt lat="44.61175" lon="2.43026">
        <ele>568</ele>
        <time>2021-08-29T08:36:08Z</time>
      </trkpt>
      <trkpt lat="44.61171" lon="2.43007">
        <ele>567</ele>
        <time>2021-08-29T08:36:12Z</time>
      </trkpt>
      <trkpt lat="44.61167" lon="2.42997">
        <ele>567</ele>
        <time>2021-08-29T08:36:14Z</time>
      </trkpt>
      <trkpt lat="44.61149" lon="2.42977">
        <ele>565</ele>
        <time>2021-08-29T08:36:19Z</time>
      </trkpt>
      <trkpt lat="44.61008" lon="2.42899">
        <ele>557</ele>
        <time>2021-08-29T08:36:49Z</time>
      </trkpt>
      <trkpt lat="44.61003" lon="2.42894">
        <ele>556</ele>
        <time>2021-08-29T08:36:50Z</time>
      </trkpt>
      <trkpt lat="44.60997" lon="2.42882">
        <ele>555</ele>
        <time>2021-08-29T08:36:52Z</time>
      </trkpt>
      <trkpt lat="44.60981" lon="2.42821">
        <ele>552</ele>
        <time>2021-08-29T08:37:02Z</time>
      </trkpt>
      <trkpt lat="44.60971" lon="2.42798">
        <ele>550</ele>
        <time>2021-08-29T08:37:08Z</time>
      </trkpt>
      <trkpt lat="44.60967" lon="2.42794">
        <ele>553</ele>
        <time>2021-08-29T08:37:11Z</time>
      </trkpt>
      <trkpt lat="44.60962" lon="2.42791">
        <ele>555</ele>
        <time>2021-08-29T08:37:15Z</time>
      </trkpt>
      <trkpt lat="44.60957" lon="2.42789">
        <ele>558</ele>
        <time>2021-08-29T08:38:10Z</time>
      </trkpt>
      <trkpt lat="44.60953" lon="2.42787">
        <ele>559</ele>
        <time>2021-08-29T08:38:12Z</time>
      </trkpt>
      <trkpt lat="44.60945" lon="2.42787">
        <ele>560</ele>
        <time>2021-08-29T08:38:14Z</time>
      </trkpt>
      <trkpt lat="44.60934" lon="2.4279">
        <ele>560</ele>
        <time>2021-08-29T08:38:20Z</time>
      </trkpt>
      <trkpt lat="44.60929" lon="2.42792">
        <ele>561</ele>
        <time>2021-08-29T08:38:23Z</time>
      </trkpt>
      <trkpt lat="44.60889" lon="2.42831">
        <ele>557</ele>
        <time>2021-08-29T08:38:35Z</time>
      </trkpt>
      <trkpt lat="44.60851" lon="2.42887">
        <ele>550</ele>
        <time>2021-08-29T08:38:44Z</time>
      </trkpt>
      <trkpt lat="44.60841" lon="2.42896">
        <ele>548</ele>
        <time>2021-08-29T08:38:46Z</time>
      </trkpt>
      <trkpt lat="44.60827" lon="2.42899">
        <ele>547</ele>
        <time>2021-08-29T08:38:48Z</time>
      </trkpt>
      <trkpt lat="44.60789" lon="2.42899">
        <ele>545</ele>
        <time>2021-08-29T08:38:53Z</time>
      </trkpt>
      <trkpt lat="44.60755" lon="2.42905">
        <ele>542</ele>
        <time>2021-08-29T08:38:58Z</time>
      </trkpt>
      <trkpt lat="44.60694" lon="2.42884">
        <ele>533</ele>
        <time>2021-08-29T08:39:09Z</time>
      </trkpt>
      <trkpt lat="44.60684" lon="2.42882">
        <ele>532</ele>
        <time>2021-08-29T08:39:11Z</time>
      </trkpt>
      <trkpt lat="44.60678" lon="2.42883">
        <ele>532</ele>
        <time>2021-08-29T08:39:12Z</time>
      </trkpt>
      <trkpt lat="44.60671" lon="2.42886">
        <ele>531</ele>
        <time>2021-08-29T08:39:13Z</time>
      </trkpt>
      <trkpt lat="44.60657" lon="2.42897">
        <ele>533</ele>
        <time>2021-08-29T08:39:15Z</time>
      </trkpt>
      <trkpt lat="44.60651" lon="2.42904">
        <ele>534</ele>
        <time>2021-08-29T08:39:16Z</time>
      </trkpt>
      <trkpt lat="44.60648" lon="2.42912">
        <ele>535</ele>
        <time>2021-08-29T08:39:17Z</time>
      </trkpt>
      <trkpt lat="44.60645" lon="2.42992">
        <ele>535</ele>
        <time>2021-08-29T08:39:26Z</time>
      </trkpt>
      <trkpt lat="44.60642" lon="2.4301">
        <ele>534</ele>
        <time>2021-08-29T08:39:28Z</time>
      </trkpt>
      <trkpt lat="44.60636" lon="2.43026">
        <ele>533</ele>
        <time>2021-08-29T08:39:30Z</time>
      </trkpt>
      <trkpt lat="44.60622" lon="2.43048">
        <ele>532</ele>
        <time>2021-08-29T08:39:33Z</time>
      </trkpt>
      <trkpt lat="44.60607" lon="2.43061">
        <ele>532</ele>
        <time>2021-08-29T08:39:35Z</time>
      </trkpt>
      <trkpt lat="44.60591" lon="2.43066">
        <ele>532</ele>
        <time>2021-08-29T08:39:37Z</time>
      </trkpt>
      <trkpt lat="44.60567" lon="2.43061">
        <ele>531</ele>
        <time>2021-08-29T08:39:40Z</time>
      </trkpt>
      <trkpt lat="44.60552" lon="2.43053">
        <ele>531</ele>
        <time>2021-08-29T08:39:42Z</time>
      </trkpt>
      <trkpt lat="44.60542" lon="2.43038">
        <ele>530</ele>
        <time>2021-08-29T08:39:44Z</time>
      </trkpt>
      <trkpt lat="44.60526" lon="2.42989">
        <ele>528</ele>
        <time>2021-08-29T08:39:49Z</time>
      </trkpt>
      <trkpt lat="44.60522" lon="2.42983">
        <ele>528</ele>
        <time>2021-08-29T08:39:50Z</time>
      </trkpt>
      <trkpt lat="44.60459" lon="2.42945">
        <ele>526</ele>
        <time>2021-08-29T08:39:59Z</time>
      </trkpt>
      <trkpt lat="44.60441" lon="2.42943">
        <ele>526</ele>
        <time>2021-08-29T08:40:01Z</time>
      </trkpt>
      <trkpt lat="44.60413" lon="2.42944">
        <ele>523</ele>
        <time>2021-08-29T08:40:05Z</time>
      </trkpt>
      <trkpt lat="44.60408" lon="2.42946">
        <ele>521</ele>
        <time>2021-08-29T08:40:06Z</time>
      </trkpt>
      <trkpt lat="44.60397" lon="2.42959">
        <ele>521</ele>
        <time>2021-08-29T08:40:08Z</time>
      </trkpt>
      <trkpt lat="44.6039" lon="2.42983">
        <ele>519</ele>
        <time>2021-08-29T08:40:11Z</time>
      </trkpt>
      <trkpt lat="44.60388" lon="2.42991">
        <ele>517</ele>
        <time>2021-08-29T08:40:12Z</time>
      </trkpt>
      <trkpt lat="44.60384" lon="2.42998">
        <ele>516</ele>
        <time>2021-08-29T08:40:13Z</time>
      </trkpt>
      <trkpt lat="44.60378" lon="2.43002">
        <ele>515</ele>
        <time>2021-08-29T08:40:14Z</time>
      </trkpt>
      <trkpt lat="44.60359" lon="2.43004">
        <ele>516</ele>
        <time>2021-08-29T08:40:17Z</time>
      </trkpt>
      <trkpt lat="44.60332" lon="2.42994">
        <ele>515</ele>
        <time>2021-08-29T08:40:21Z</time>
      </trkpt>
      <trkpt lat="44.60325" lon="2.42993">
        <ele>515</ele>
        <time>2021-08-29T08:40:22Z</time>
      </trkpt>
      <trkpt lat="44.60313" lon="2.42996">
        <ele>514</ele>
        <time>2021-08-29T08:40:24Z</time>
      </trkpt>
      <trkpt lat="44.60297" lon="2.4301">
        <ele>512</ele>
        <time>2021-08-29T08:40:27Z</time>
      </trkpt>
      <trkpt lat="44.60286" lon="2.43036">
        <ele>511</ele>
        <time>2021-08-29T08:40:30Z</time>
      </trkpt>
      <trkpt lat="44.60279" lon="2.43075">
        <ele>508</ele>
        <time>2021-08-29T08:40:34Z</time>
      </trkpt>
      <trkpt lat="44.60257" lon="2.43105">
        <ele>504</ele>
        <time>2021-08-29T08:40:38Z</time>
      </trkpt>
      <trkpt lat="44.6012" lon="2.43241">
        <ele>501</ele>
        <time>2021-08-29T08:40:59Z</time>
      </trkpt>
      <trkpt lat="44.60114" lon="2.43244">
        <ele>501</ele>
        <time>2021-08-29T08:41:00Z</time>
      </trkpt>
      <trkpt lat="44.60109" lon="2.43244">
        <ele>501</ele>
        <time>2021-08-29T08:41:01Z</time>
      </trkpt>
      <trkpt lat="44.60103" lon="2.43242">
        <ele>501</ele>
        <time>2021-08-29T08:41:02Z</time>
      </trkpt>
      <trkpt lat="44.60098" lon="2.43236">
        <ele>501</ele>
        <time>2021-08-29T08:41:03Z</time>
      </trkpt>
      <trkpt lat="44.60095" lon="2.43228">
        <ele>502</ele>
        <time>2021-08-29T08:41:04Z</time>
      </trkpt>
      <trkpt lat="44.60094" lon="2.4322">
        <ele>502</ele>
        <time>2021-08-29T08:41:05Z</time>
      </trkpt>
      <trkpt lat="44.60112" lon="2.43171">
        <ele>502</ele>
        <time>2021-08-29T08:41:11Z</time>
      </trkpt>
      <trkpt lat="44.60137" lon="2.4311">
        <ele>499</ele>
        <time>2021-08-29T08:41:18Z</time>
      </trkpt>
      <trkpt lat="44.60142" lon="2.4308">
        <ele>497</ele>
        <time>2021-08-29T08:41:21Z</time>
      </trkpt>
      <trkpt lat="44.6012" lon="2.42818">
        <ele>473</ele>
        <time>2021-08-29T08:41:47Z</time>
      </trkpt>
      <trkpt lat="44.60119" lon="2.42807">
        <ele>471</ele>
        <time>2021-08-29T08:41:49Z</time>
      </trkpt>
      <trkpt lat="44.60116" lon="2.428">
        <ele>470</ele>
        <time>2021-08-29T08:41:50Z</time>
      </trkpt>
      <trkpt lat="44.60107" lon="2.42789">
        <ele>468</ele>
        <time>2021-08-29T08:41:52Z</time>
      </trkpt>
      <trkpt lat="44.60096" lon="2.42786">
        <ele>468</ele>
        <time>2021-08-29T08:41:54Z</time>
      </trkpt>
      <trkpt lat="44.6006" lon="2.42819">
        <ele>465</ele>
        <time>2021-08-29T08:42:01Z</time>
      </trkpt>
      <trkpt lat="44.6004" lon="2.42827">
        <ele>463</ele>
        <time>2021-08-29T08:42:04Z</time>
      </trkpt>
      <trkpt lat="44.60018" lon="2.42828">
        <ele>463</ele>
        <time>2021-08-29T08:42:07Z</time>
      </trkpt>
      <trkpt lat="44.59958" lon="2.42807">
        <ele>460</ele>
        <time>2021-08-29T08:42:16Z</time>
      </trkpt>
      <trkpt lat="44.59953" lon="2.42804">
        <ele>460</ele>
        <time>2021-08-29T08:42:17Z</time>
      </trkpt>
      <trkpt lat="44.59946" lon="2.42794">
        <ele>459</ele>
        <time>2021-08-29T08:42:19Z</time>
      </trkpt>
      <trkpt lat="44.59944" lon="2.42787">
        <ele>459</ele>
        <time>2021-08-29T08:42:20Z</time>
      </trkpt>
      <trkpt lat="44.59943" lon="2.42773">
        <ele>459</ele>
        <time>2021-08-29T08:42:22Z</time>
      </trkpt>
      <trkpt lat="44.59945" lon="2.42757">
        <ele>460</ele>
        <time>2021-08-29T08:42:24Z</time>
      </trkpt>
      <trkpt lat="44.60007" lon="2.4257">
        <ele>457</ele>
        <time>2021-08-29T08:42:47Z</time>
      </trkpt>
      <trkpt lat="44.60008" lon="2.42562">
        <ele>457</ele>
        <time>2021-08-29T08:42:48Z</time>
      </trkpt>
      <trkpt lat="44.60008" lon="2.42554">
        <ele>457</ele>
        <time>2021-08-29T08:42:49Z</time>
      </trkpt>
      <trkpt lat="44.59996" lon="2.42526">
        <ele>454</ele>
        <time>2021-08-29T08:42:53Z</time>
      </trkpt>
      <trkpt lat="44.59985" lon="2.42512">
        <ele>454</ele>
        <time>2021-08-29T08:42:55Z</time>
      </trkpt>
      <trkpt lat="44.59874" lon="2.42457">
        <ele>452</ele>
        <time>2021-08-29T08:43:12Z</time>
      </trkpt>
      <trkpt lat="44.5987" lon="2.42452">
        <ele>452</ele>
        <time>2021-08-29T08:43:13Z</time>
      </trkpt>
      <trkpt lat="44.59866" lon="2.42438">
        <ele>451</ele>
        <time>2021-08-29T08:43:15Z</time>
      </trkpt>
      <trkpt lat="44.59865" lon="2.4243">
        <ele>450</ele>
        <time>2021-08-29T08:43:16Z</time>
      </trkpt>
      <trkpt lat="44.59883" lon="2.4231">
        <ele>449</ele>
        <time>2021-08-29T08:43:29Z</time>
      </trkpt>
      <trkpt lat="44.59896" lon="2.42243">
        <ele>446</ele>
        <time>2021-08-29T08:43:36Z</time>
      </trkpt>
      <trkpt lat="44.59904" lon="2.42136">
        <ele>442</ele>
        <time>2021-08-29T08:43:47Z</time>
      </trkpt>
      <trkpt lat="44.59884" lon="2.42029">
        <ele>435</ele>
        <time>2021-08-29T08:43:58Z</time>
      </trkpt>
      <trkpt lat="44.59881" lon="2.42021">
        <ele>435</ele>
        <time>2021-08-29T08:43:59Z</time>
      </trkpt>
      <trkpt lat="44.59877" lon="2.42013">
        <ele>434</ele>
        <time>2021-08-29T08:44:00Z</time>
      </trkpt>
      <trkpt lat="44.59848" lon="2.41984">
        <ele>431</ele>
        <time>2021-08-29T08:44:05Z</time>
      </trkpt>
      <trkpt lat="44.59772" lon="2.41913">
        <ele>427</ele>
        <time>2021-08-29T08:44:18Z</time>
      </trkpt>
      <trkpt lat="44.59768" lon="2.41907">
        <ele>427</ele>
        <time>2021-08-29T08:44:19Z</time>
      </trkpt>
      <trkpt lat="44.5975" lon="2.41881">
        <ele>422</ele>
        <time>2021-08-29T08:44:24Z</time>
      </trkpt>
      <trkpt lat="44.5974" lon="2.41873">
        <ele>421</ele>
        <time>2021-08-29T08:44:28Z</time>
      </trkpt>
      <trkpt lat="44.59716" lon="2.41873">
        <ele>424</ele>
        <time>2021-08-29T08:44:38Z</time>
      </trkpt>
      <trkpt lat="44.59712" lon="2.41869">
        <ele>424</ele>
        <time>2021-08-29T08:44:40Z</time>
      </trkpt>
      <trkpt lat="44.59707" lon="2.41866">
        <ele>424</ele>
        <time>2021-08-29T08:44:42Z</time>
      </trkpt>
      <trkpt lat="44.59704" lon="2.41859">
        <ele>423</ele>
        <time>2021-08-29T08:44:45Z</time>
      </trkpt>
      <trkpt lat="44.597" lon="2.41855">
        <ele>423</ele>
        <time>2021-08-29T08:44:48Z</time>
      </trkpt>
      <trkpt lat="44.59696" lon="2.41856">
        <ele>422</ele>
        <time>2021-08-29T08:44:54Z</time>
      </trkpt>
      <trkpt lat="44.59696" lon="2.41849">
        <ele>423</ele>
        <time>2021-08-29T08:46:01Z</time>
      </trkpt>
      <trkpt lat="44.59696" lon="2.41843">
        <ele>423</ele>
        <time>2021-08-29T08:46:03Z</time>
      </trkpt>
      <trkpt lat="44.59707" lon="2.41808">
        <ele>422</ele>
        <time>2021-08-29T08:46:09Z</time>
      </trkpt>
      <trkpt lat="44.59773" lon="2.41638">
        <ele>412</ele>
        <time>2021-08-29T08:46:29Z</time>
      </trkpt>
      <trkpt lat="44.59778" lon="2.41596">
        <ele>409</ele>
        <time>2021-08-29T08:46:33Z</time>
      </trkpt>
      <trkpt lat="44.59776" lon="2.41553">
        <ele>407</ele>
        <time>2021-08-29T08:46:37Z</time>
      </trkpt>
      <trkpt lat="44.59766" lon="2.41472">
        <ele>401</ele>
        <time>2021-08-29T08:46:46Z</time>
      </trkpt>
      <trkpt lat="44.59767" lon="2.41462">
        <ele>400</ele>
        <time>2021-08-29T08:46:48Z</time>
      </trkpt>
      <trkpt lat="44.59776" lon="2.41447">
        <ele>399</ele>
        <time>2021-08-29T08:46:52Z</time>
      </trkpt>
      <trkpt lat="44.59815" lon="2.41427">
        <ele>395</ele>
        <time>2021-08-29T08:47:01Z</time>
      </trkpt>
      <trkpt lat="44.5982" lon="2.41425">
        <ele>395</ele>
        <time>2021-08-29T08:47:02Z</time>
      </trkpt>
      <trkpt lat="44.59871" lon="2.41391">
        <ele>391</ele>
        <time>2021-08-29T08:47:11Z</time>
      </trkpt>
      <trkpt lat="44.59938" lon="2.41384">
        <ele>390</ele>
        <time>2021-08-29T08:47:23Z</time>
      </trkpt>
      <trkpt lat="44.59973" lon="2.41404">
        <ele>384</ele>
        <time>2021-08-29T08:47:31Z</time>
      </trkpt>
      <trkpt lat="44.59989" lon="2.41408">
        <ele>384</ele>
        <time>2021-08-29T08:47:34Z</time>
      </trkpt>
      <trkpt lat="44.60021" lon="2.41405">
        <ele>384</ele>
        <time>2021-08-29T08:47:39Z</time>
      </trkpt>
      <trkpt lat="44.60025" lon="2.41406">
        <ele>383</ele>
        <time>2021-08-29T08:47:40Z</time>
      </trkpt>
      <trkpt lat="44.6003" lon="2.4141">
        <ele>383</ele>
        <time>2021-08-29T08:47:41Z</time>
      </trkpt>
      <trkpt lat="44.60034" lon="2.41414">
        <ele>383</ele>
        <time>2021-08-29T08:47:42Z</time>
      </trkpt>
      <trkpt lat="44.60037" lon="2.4142">
        <ele>383</ele>
        <time>2021-08-29T08:47:43Z</time>
      </trkpt>
      <trkpt lat="44.60045" lon="2.41459">
        <ele>381</ele>
        <time>2021-08-29T08:47:48Z</time>
      </trkpt>
      <trkpt lat="44.6005" lon="2.41469">
        <ele>380</ele>
        <time>2021-08-29T08:47:50Z</time>
      </trkpt>
      <trkpt lat="44.60058" lon="2.4147">
        <ele>381</ele>
        <time>2021-08-29T08:47:52Z</time>
      </trkpt>
      <trkpt lat="44.60067" lon="2.41459">
        <ele>384</ele>
        <time>2021-08-29T08:47:54Z</time>
      </trkpt>
      <trkpt lat="44.60079" lon="2.41356">
        <ele>381</ele>
        <time>2021-08-29T08:48:06Z</time>
      </trkpt>
      <trkpt lat="44.60076" lon="2.41345">
        <ele>380</ele>
        <time>2021-08-29T08:48:08Z</time>
      </trkpt>
      <trkpt lat="44.60068" lon="2.41336">
        <ele>379</ele>
        <time>2021-08-29T08:48:10Z</time>
      </trkpt>
      <trkpt lat="44.60026" lon="2.41332">
        <ele>377</ele>
        <time>2021-08-29T08:48:17Z</time>
      </trkpt>
      <trkpt lat="44.60009" lon="2.41322">
        <ele>375</ele>
        <time>2021-08-29T08:48:20Z</time>
      </trkpt>
      <trkpt lat="44.59983" lon="2.41255">
        <ele>371</ele>
        <time>2021-08-29T08:48:28Z</time>
      </trkpt>
      <trkpt lat="44.5997" lon="2.41234">
        <ele>370</ele>
        <time>2021-08-29T08:48:31Z</time>
      </trkpt>
      <trkpt lat="44.5994" lon="2.41202">
        <ele>367</ele>
        <time>2021-08-29T08:48:36Z</time>
      </trkpt>
      <trkpt lat="44.59886" lon="2.41086">
        <ele>362</ele>
        <time>2021-08-29T08:48:51Z</time>
      </trkpt>
      <trkpt lat="44.59878" lon="2.4107">
        <ele>361</ele>
        <time>2021-08-29T08:48:55Z</time>
      </trkpt>
      <trkpt lat="44.59876" lon="2.41064">
        <ele>361</ele>
        <time>2021-08-29T08:48:57Z</time>
      </trkpt>
      <trkpt lat="44.5988" lon="2.41046">
        <ele>359</ele>
        <time>2021-08-29T08:49:01Z</time>
      </trkpt>
      <trkpt lat="44.59883" lon="2.41038">
        <ele>359</ele>
        <time>2021-08-29T08:49:03Z</time>
      </trkpt>
      <trkpt lat="44.59882" lon="2.4103">
        <ele>360</ele>
        <time>2021-08-29T08:49:21Z</time>
      </trkpt>
      <trkpt lat="44.59916" lon="2.40972">
        <ele>358</ele>
        <time>2021-08-29T08:49:32Z</time>
      </trkpt>
      <trkpt lat="44.5992" lon="2.40955">
        <ele>357</ele>
        <time>2021-08-29T08:49:34Z</time>
      </trkpt>
      <trkpt lat="44.59928" lon="2.40855">
        <ele>351</ele>
        <time>2021-08-29T08:49:44Z</time>
      </trkpt>
      <trkpt lat="44.59944" lon="2.40808">
        <ele>349</ele>
        <time>2021-08-29T08:49:49Z</time>
      </trkpt>
      <trkpt lat="44.59945" lon="2.40799">
        <ele>348</ele>
        <time>2021-08-29T08:49:50Z</time>
      </trkpt>
      <trkpt lat="44.59945" lon="2.40789">
        <ele>348</ele>
        <time>2021-08-29T08:49:51Z</time>
      </trkpt>
      <trkpt lat="44.59942" lon="2.4078">
        <ele>347</ele>
        <time>2021-08-29T08:49:52Z</time>
      </trkpt>
      <trkpt lat="44.59937" lon="2.40771">
        <ele>346</ele>
        <time>2021-08-29T08:49:53Z</time>
      </trkpt>
      <trkpt lat="44.59899" lon="2.40735">
        <ele>345</ele>
        <time>2021-08-29T08:49:59Z</time>
      </trkpt>
      <trkpt lat="44.5989" lon="2.40721">
        <ele>344</ele>
        <time>2021-08-29T08:50:01Z</time>
      </trkpt>
      <trkpt lat="44.59883" lon="2.40706">
        <ele>343</ele>
        <time>2021-08-29T08:50:03Z</time>
      </trkpt>
      <trkpt lat="44.5988" lon="2.40693">
        <ele>341</ele>
        <time>2021-08-29T08:50:05Z</time>
      </trkpt>
      <trkpt lat="44.5988" lon="2.40674">
        <ele>342</ele>
        <time>2021-08-29T08:50:07Z</time>
      </trkpt>
      <trkpt lat="44.59886" lon="2.4065">
        <ele>342</ele>
        <time>2021-08-29T08:50:10Z</time>
      </trkpt>
      <trkpt lat="44.59927" lon="2.40561">
        <ele>335</ele>
        <time>2021-08-29T08:50:23Z</time>
      </trkpt>
      <trkpt lat="44.59934" lon="2.40552">
        <ele>334</ele>
        <time>2021-08-29T08:50:25Z</time>
      </trkpt>
      <trkpt lat="44.59941" lon="2.40545">
        <ele>334</ele>
        <time>2021-08-29T08:50:27Z</time>
      </trkpt>
      <trkpt lat="44.59948" lon="2.40536">
        <ele>333</ele>
        <time>2021-08-29T08:50:29Z</time>
      </trkpt>
      <trkpt lat="44.59951" lon="2.40495">
        <ele>328</ele>
        <time>2021-08-29T08:50:36Z</time>
      </trkpt>
      <trkpt lat="44.59952" lon="2.40483">
        <ele>326</ele>
        <time>2021-08-29T08:50:38Z</time>
      </trkpt>
      <trkpt lat="44.59949" lon="2.40466">
        <ele>322</ele>
        <time>2021-08-29T08:50:41Z</time>
      </trkpt>
      <trkpt lat="44.59938" lon="2.40449">
        <ele>320</ele>
        <time>2021-08-29T08:50:44Z</time>
      </trkpt>
      <trkpt lat="44.59901" lon="2.40421">
        <ele>323</ele>
        <time>2021-08-29T08:50:57Z</time>
      </trkpt>
      <trkpt lat="44.59897" lon="2.40416">
        <ele>323</ele>
        <time>2021-08-29T08:51:01Z</time>
      </trkpt>
      <trkpt lat="44.59892" lon="2.40412">
        <ele>322</ele>
        <time>2021-08-29T08:51:03Z</time>
      </trkpt>
      <trkpt lat="44.59889" lon="2.40406">
        <ele>322</ele>
        <time>2021-08-29T08:51:05Z</time>
      </trkpt>
      <trkpt lat="44.59886" lon="2.40398">
        <ele>320</ele>
        <time>2021-08-29T08:51:08Z</time>
      </trkpt>
      <trkpt lat="44.59884" lon="2.4039">
        <ele>320</ele>
        <time>2021-08-29T08:51:10Z</time>
      </trkpt>
      <trkpt lat="44.59884" lon="2.40382">
        <ele>320</ele>
        <time>2021-08-29T08:51:12Z</time>
      </trkpt>
      <trkpt lat="44.59887" lon="2.40367">
        <ele>321</ele>
        <time>2021-08-29T08:51:16Z</time>
      </trkpt>
      <trkpt lat="44.59895" lon="2.40355">
        <ele>319</ele>
        <time>2021-08-29T08:51:21Z</time>
      </trkpt>
      <trkpt lat="44.59903" lon="2.40348">
        <ele>318</ele>
        <time>2021-08-29T08:51:27Z</time>
      </trkpt>
      <trkpt lat="44.59925" lon="2.40311">
        <ele>315</ele>
        <time>2021-08-29T08:51:44Z</time>
      </trkpt>
      <trkpt lat="44.59927" lon="2.40304">
        <ele>314</ele>
        <time>2021-08-29T08:51:46Z</time>
      </trkpt>
      <trkpt lat="44.59928" lon="2.40289">
        <ele>312</ele>
        <time>2021-08-29T08:51:50Z</time>
      </trkpt>
      <trkpt lat="44.59929" lon="2.40282">
        <ele>311</ele>
        <time>2021-08-29T08:51:52Z</time>
      </trkpt>
      <trkpt lat="44.59933" lon="2.40199">
        <ele>303</ele>
        <time>2021-08-29T08:52:15Z</time>
      </trkpt>
      <trkpt lat="44.59932" lon="2.40191">
        <ele>303</ele>
        <time>2021-08-29T08:52:17Z</time>
      </trkpt>
      <trkpt lat="44.59927" lon="2.40185">
        <ele>303</ele>
        <time>2021-08-29T08:52:20Z</time>
      </trkpt>
      <trkpt lat="44.59924" lon="2.40179">
        <ele>303</ele>
        <time>2021-08-29T08:52:23Z</time>
      </trkpt>
      <trkpt lat="44.59925" lon="2.40173">
        <ele>302</ele>
        <time>2021-08-29T08:52:28Z</time>
      </trkpt>
      <trkpt lat="44.59923" lon="2.40167">
        <ele>302</ele>
        <time>2021-08-29T08:52:31Z</time>
      </trkpt>
      <trkpt lat="44.59921" lon="2.40161">
        <ele>301</ele>
        <time>2021-08-29T08:52:34Z</time>
      </trkpt>
      <trkpt lat="44.59921" lon="2.40146">
        <ele>301</ele>
        <time>2021-08-29T08:52:39Z</time>
      </trkpt>
      <trkpt lat="44.59922" lon="2.40139">
        <ele>301</ele>
        <time>2021-08-29T08:52:41Z</time>
      </trkpt>
      <trkpt lat="44.59923" lon="2.4013">
        <ele>301</ele>
        <time>2021-08-29T08:52:44Z</time>
      </trkpt>
      <trkpt lat="44.59927" lon="2.40043">
        <ele>299</ele>
        <time>2021-08-29T08:53:14Z</time>
      </trkpt>
      <trkpt lat="44.59919" lon="2.40006">
        <ele>297</ele>
        <time>2021-08-29T08:53:30Z</time>
      </trkpt>
      <trkpt lat="44.59918" lon="2.39991">
        <ele>296</ele>
        <time>2021-08-29T08:53:36Z</time>
      </trkpt>
      <trkpt lat="44.59917" lon="2.39983">
        <ele>296</ele>
        <time>2021-08-29T08:53:40Z</time>
      </trkpt>
      <trkpt lat="44.59913" lon="2.39976">
        <ele>296</ele>
        <time>2021-08-29T08:53:44Z</time>
      </trkpt>
      <trkpt lat="44.59912" lon="2.39968">
        <ele>297</ele>
        <time>2021-08-29T08:53:59Z</time>
      </trkpt>
      <trkpt lat="44.5992" lon="2.39929">
        <ele>296</ele>
        <time>2021-08-29T08:54:15Z</time>
      </trkpt>
      <trkpt lat="44.59919" lon="2.39921">
        <ele>295</ele>
        <time>2021-08-29T08:54:19Z</time>
      </trkpt>
      <trkpt lat="44.59925" lon="2.3991">
        <ele>295</ele>
        <time>2021-08-29T08:54:28Z</time>
      </trkpt>
      <trkpt lat="44.59922" lon="2.39909">
        <ele>297</ele>
        <time>2021-08-29T08:54:51Z</time>
      </trkpt>
      <trkpt lat="44.59919" lon="2.39916">
        <ele>298</ele>
        <time>2021-08-29T08:54:56Z</time>
      </trkpt>
      <trkpt lat="44.59916" lon="2.39925">
        <ele>298</ele>
        <time>2021-08-29T08:55:11Z</time>
      </trkpt>
      <trkpt lat="44.59917" lon="2.39931">
        <ele>298</ele>
        <time>2021-08-29T08:55:18Z</time>
      </trkpt>
      <trkpt lat="44.59917" lon="2.39939">
        <ele>299</ele>
        <time>2021-08-29T08:55:27Z</time>
      </trkpt>
      <trkpt lat="44.59916" lon="2.39947">
        <ele>298</ele>
        <time>2021-08-29T08:55:30Z</time>
      </trkpt>
      <trkpt lat="44.59912" lon="2.39953">
        <ele>298</ele>
        <time>2021-08-29T08:55:33Z</time>
      </trkpt>
      <trkpt lat="44.59908" lon="2.39957">
        <ele>298</ele>
        <time>2021-08-29T08:55:35Z</time>
      </trkpt>
      <trkpt lat="44.59906" lon="2.3997">
        <ele>301</ele>
        <time>2021-08-29T08:55:39Z</time>
      </trkpt>
      <trkpt lat="44.5991" lon="2.39985">
        <ele>299</ele>
        <time>2021-08-29T08:55:44Z</time>
      </trkpt>
      <trkpt lat="44.59913" lon="2.39991">
        <ele>297</ele>
        <time>2021-08-29T08:55:46Z</time>
      </trkpt>
      <trkpt lat="44.59916" lon="2.39997">
        <ele>296</ele>
        <time>2021-08-29T08:55:48Z</time>
      </trkpt>
      <trkpt lat="44.59918" lon="2.40004">
        <ele>295</ele>
        <time>2021-08-29T08:55:50Z</time>
      </trkpt>
      <trkpt lat="44.59924" lon="2.40041">
        <ele>292</ele>
        <time>2021-08-29T08:56:01Z</time>
      </trkpt>
      <trkpt lat="44.59928" lon="2.40048">
        <ele>288</ele>
        <time>2021-08-29T08:56:04Z</time>
      </trkpt>
      <trkpt lat="44.59927" lon="2.40046">
        <ele>292</ele>
        <time>2021-08-29T09:02:38Z</time>
      </trkpt>
      <trkpt lat="44.59923" lon="2.40037">
        <ele>292</ele>
        <time>2021-08-29T09:02:45Z</time>
      </trkpt>
      <trkpt lat="44.59924" lon="2.4002">
        <ele>291</ele>
        <time>2021-08-29T09:02:58Z</time>
      </trkpt>
      <trkpt lat="44.59925" lon="2.40002">
        <ele>291</ele>
        <time>2021-08-29T09:03:16Z</time>
      </trkpt>
      <trkpt lat="44.5992" lon="2.39996">
        <ele>295</ele>
        <time>2021-08-29T09:03:25Z</time>
      </trkpt>
      <trkpt lat="44.59919" lon="2.39988">
        <ele>299</ele>
        <time>2021-08-29T09:03:30Z</time>
      </trkpt>
      <trkpt lat="44.59915" lon="2.39976">
        <ele>301</ele>
        <time>2021-08-29T09:03:40Z</time>
      </trkpt>
      <trkpt lat="44.59914" lon="2.3997">
        <ele>301</ele>
        <time>2021-08-29T09:03:44Z</time>
      </trkpt>
      <trkpt lat="44.59907" lon="2.39969">
        <ele>303</ele>
        <time>2021-08-29T09:03:56Z</time>
      </trkpt>
      <trkpt lat="44.59929" lon="2.40048">
        <ele>312</ele>
        <time>2021-08-29T10:48:39Z</time>
      </trkpt>
      <trkpt lat="44.59929" lon="2.4005">
        <ele>312</ele>
        <time>2021-08-29T10:48:40Z</time>
      </trkpt>
      <trkpt lat="44.59932" lon="2.40043">
        <ele>311</ele>
        <time>2021-08-29T10:49:39Z</time>
      </trkpt>
      <trkpt lat="44.5993" lon="2.40036">
        <ele>306</ele>
        <time>2021-08-29T10:55:14Z</time>
      </trkpt>
      <trkpt lat="44.59925" lon="2.40022">
        <ele>305</ele>
        <time>2021-08-29T10:55:20Z</time>
      </trkpt>
      <trkpt lat="44.59924" lon="2.40013">
        <ele>305</ele>
        <time>2021-08-29T10:55:22Z</time>
      </trkpt>
      <trkpt lat="44.59913" lon="2.39964">
        <ele>300</ele>
        <time>2021-08-29T10:55:37Z</time>
      </trkpt>
      <trkpt lat="44.59913" lon="2.39958">
        <ele>300</ele>
        <time>2021-08-29T10:55:39Z</time>
      </trkpt>
      <trkpt lat="44.59915" lon="2.39952">
        <ele>299</ele>
        <time>2021-08-29T10:55:41Z</time>
      </trkpt>
      <trkpt lat="44.59918" lon="2.39919">
        <ele>298</ele>
        <time>2021-08-29T10:55:49Z</time>
      </trkpt>
      <trkpt lat="44.59945" lon="2.3985">
        <ele>307</ele>
        <time>2021-08-29T10:56:07Z</time>
      </trkpt>
      <trkpt lat="44.59948" lon="2.39839">
        <ele>309</ele>
        <time>2021-08-29T10:56:09Z</time>
      </trkpt>
      <trkpt lat="44.59949" lon="2.39799">
        <ele>310</ele>
        <time>2021-08-29T10:56:17Z</time>
      </trkpt>
      <trkpt lat="44.59942" lon="2.39767">
        <ele>312</ele>
        <time>2021-08-29T10:56:27Z</time>
      </trkpt>
      <trkpt lat="44.59935" lon="2.39738">
        <ele>313</ele>
        <time>2021-08-29T10:56:37Z</time>
      </trkpt>
      <trkpt lat="44.59933" lon="2.39732">
        <ele>312</ele>
        <time>2021-08-29T10:56:40Z</time>
      </trkpt>
      <trkpt lat="44.59927" lon="2.3973">
        <ele>311</ele>
        <time>2021-08-29T10:56:43Z</time>
      </trkpt>
      <trkpt lat="44.59923" lon="2.39725">
        <ele>309</ele>
        <time>2021-08-29T10:56:46Z</time>
      </trkpt>
      <trkpt lat="44.59921" lon="2.39717">
        <ele>308</ele>
        <time>2021-08-29T10:56:49Z</time>
      </trkpt>
      <trkpt lat="44.59919" lon="2.3971">
        <ele>304</ele>
        <time>2021-08-29T10:56:52Z</time>
      </trkpt>
      <trkpt lat="44.59919" lon="2.39699">
        <ele>302</ele>
        <time>2021-08-29T10:56:55Z</time>
      </trkpt>
      <trkpt lat="44.59913" lon="2.39612">
        <ele>288</ele>
        <time>2021-08-29T10:57:23Z</time>
      </trkpt>
      <trkpt lat="44.59913" lon="2.39603">
        <ele>288</ele>
        <time>2021-08-29T10:57:25Z</time>
      </trkpt>
      <trkpt lat="44.59913" lon="2.39584">
        <ele>283</ele>
        <time>2021-08-29T10:57:30Z</time>
      </trkpt>
      <trkpt lat="44.59914" lon="2.39578">
        <ele>282</ele>
        <time>2021-08-29T10:57:32Z</time>
      </trkpt>
      <trkpt lat="44.59913" lon="2.39559">
        <ele>280</ele>
        <time>2021-08-29T10:57:37Z</time>
      </trkpt>
      <trkpt lat="44.59905" lon="2.39538">
        <ele>277</ele>
        <time>2021-08-29T10:57:43Z</time>
      </trkpt>
      <trkpt lat="44.59902" lon="2.39531">
        <ele>276</ele>
        <time>2021-08-29T10:57:45Z</time>
      </trkpt>
      <trkpt lat="44.59872" lon="2.39498">
        <ele>275</ele>
        <time>2021-08-29T10:57:59Z</time>
      </trkpt>
      <trkpt lat="44.59873" lon="2.39492">
        <ele>281</ele>
        <time>2021-08-29T10:59:06Z</time>
      </trkpt>
      <trkpt lat="44.5987" lon="2.39487">
        <ele>281</ele>
        <time>2021-08-29T10:59:16Z</time>
      </trkpt>
      <trkpt lat="44.59858" lon="2.39442">
        <ele>278</ele>
        <time>2021-08-29T10:59:28Z</time>
      </trkpt>
      <trkpt lat="44.59857" lon="2.39435">
        <ele>277</ele>
        <time>2021-08-29T10:59:32Z</time>
      </trkpt>
      <trkpt lat="44.59857" lon="2.39428">
        <ele>277</ele>
        <time>2021-08-29T10:59:35Z</time>
      </trkpt>
      <trkpt lat="44.59862" lon="2.39425">
        <ele>278</ele>
        <time>2021-08-29T10:59:40Z</time>
      </trkpt>
      <trkpt lat="44.59866" lon="2.39421">
        <ele>277</ele>
        <time>2021-08-29T10:59:43Z</time>
      </trkpt>
      <trkpt lat="44.59869" lon="2.39414">
        <ele>278</ele>
        <time>2021-08-29T10:59:47Z</time>
      </trkpt>
      <trkpt lat="44.59871" lon="2.39406">
        <ele>278</ele>
        <time>2021-08-29T10:59:51Z</time>
      </trkpt>
      <trkpt lat="44.59872" lon="2.39399">
        <ele>278</ele>
        <time>2021-08-29T10:59:53Z</time>
      </trkpt>
      <trkpt lat="44.59875" lon="2.39393">
        <ele>279</ele>
        <time>2021-08-29T10:59:55Z</time>
      </trkpt>
      <trkpt lat="44.59879" lon="2.39388">
        <ele>279</ele>
        <time>2021-08-29T10:59:57Z</time>
      </trkpt>
      <trkpt lat="44.59891" lon="2.39382">
        <ele>278</ele>
        <time>2021-08-29T11:00:00Z</time>
      </trkpt>
      <trkpt lat="44.5991" lon="2.39384">
        <ele>277</ele>
        <time>2021-08-29T11:00:03Z</time>
      </trkpt>
      <trkpt lat="44.59982" lon="2.39353">
        <ele>269</ele>
        <time>2021-08-29T11:00:13Z</time>
      </trkpt>
      <trkpt lat="44.59988" lon="2.39349">
        <ele>268</ele>
        <time>2021-08-29T11:00:14Z</time>
      </trkpt>
      <trkpt lat="44.60023" lon="2.39306">
        <ele>262</ele>
        <time>2021-08-29T11:00:20Z</time>
      </trkpt>
      <trkpt lat="44.60029" lon="2.39287">
        <ele>261</ele>
        <time>2021-08-29T11:00:22Z</time>
      </trkpt>
      <trkpt lat="44.60042" lon="2.39246">
        <ele>256</ele>
        <time>2021-08-29T11:00:27Z</time>
      </trkpt>
      <trkpt lat="44.60044" lon="2.39238">
        <ele>255</ele>
        <time>2021-08-29T11:00:28Z</time>
      </trkpt>
      <trkpt lat="44.60041" lon="2.39223">
        <ele>254</ele>
        <time>2021-08-29T11:00:30Z</time>
      </trkpt>
      <trkpt lat="44.60041" lon="2.39216">
        <ele>254</ele>
        <time>2021-08-29T11:00:31Z</time>
      </trkpt>
      <trkpt lat="44.6004" lon="2.39183">
        <ele>254</ele>
        <time>2021-08-29T11:00:35Z</time>
      </trkpt>
      <trkpt lat="44.6004" lon="2.39163">
        <ele>257</ele>
        <time>2021-08-29T11:00:37Z</time>
      </trkpt>
      <trkpt lat="44.60056" lon="2.39098">
        <ele>254</ele>
        <time>2021-08-29T11:00:43Z</time>
      </trkpt>
      <trkpt lat="44.60066" lon="2.39076">
        <ele>252</ele>
        <time>2021-08-29T11:00:45Z</time>
      </trkpt>
      <trkpt lat="44.60098" lon="2.39042">
        <ele>249</ele>
        <time>2021-08-29T11:00:49Z</time>
      </trkpt>
      <trkpt lat="44.60107" lon="2.39036">
        <ele>248</ele>
        <time>2021-08-29T11:00:50Z</time>
      </trkpt>
      <trkpt lat="44.60126" lon="2.39031">
        <ele>245</ele>
        <time>2021-08-29T11:00:52Z</time>
      </trkpt>
      <trkpt lat="44.60164" lon="2.39046">
        <ele>242</ele>
        <time>2021-08-29T11:00:56Z</time>
      </trkpt>
      <trkpt lat="44.60247" lon="2.39039">
        <ele>235</ele>
        <time>2021-08-29T11:01:05Z</time>
      </trkpt>
      <trkpt lat="44.60258" lon="2.39035">
        <ele>234</ele>
        <time>2021-08-29T11:01:07Z</time>
      </trkpt>
      <trkpt lat="44.60264" lon="2.39029">
        <ele>232</ele>
        <time>2021-08-29T11:01:09Z</time>
      </trkpt>
      <trkpt lat="44.60258" lon="2.39024">
        <ele>228</ele>
        <time>2021-08-29T11:02:11Z</time>
      </trkpt>
      <trkpt lat="44.60195" lon="2.39033">
        <ele>230</ele>
        <time>2021-08-29T11:02:29Z</time>
      </trkpt>
      <trkpt lat="44.60187" lon="2.39031">
        <ele>230</ele>
        <time>2021-08-29T11:02:32Z</time>
      </trkpt>
      <trkpt lat="44.60108" lon="2.38997">
        <ele>227</ele>
        <time>2021-08-29T11:02:52Z</time>
      </trkpt>
      <trkpt lat="44.60076" lon="2.39">
        <ele>225</ele>
        <time>2021-08-29T11:03:00Z</time>
      </trkpt>
      <trkpt lat="44.60061" lon="2.39008">
        <ele>224</ele>
        <time>2021-08-29T11:03:04Z</time>
      </trkpt>
      <trkpt lat="44.60042" lon="2.39036">
        <ele>223</ele>
        <time>2021-08-29T11:03:10Z</time>
      </trkpt>
      <trkpt lat="44.60025" lon="2.39061">
        <ele>226</ele>
        <time>2021-08-29T11:03:16Z</time>
      </trkpt>
      <trkpt lat="44.60016" lon="2.39083">
        <ele>228</ele>
        <time>2021-08-29T11:03:20Z</time>
      </trkpt>
      <trkpt lat="44.60014" lon="2.39093">
        <ele>229</ele>
        <time>2021-08-29T11:03:22Z</time>
      </trkpt>
      <trkpt lat="44.60008" lon="2.39126">
        <ele>227</ele>
        <time>2021-08-29T11:03:28Z</time>
      </trkpt>
      <trkpt lat="44.59994" lon="2.39181">
        <ele>233</ele>
        <time>2021-08-29T11:03:41Z</time>
      </trkpt>
      <trkpt lat="44.59987" lon="2.39202">
        <ele>234</ele>
        <time>2021-08-29T11:03:45Z</time>
      </trkpt>
      <trkpt lat="44.59986" lon="2.3921">
        <ele>234</ele>
        <time>2021-08-29T11:03:47Z</time>
      </trkpt>
      <trkpt lat="44.59987" lon="2.39218">
        <ele>234</ele>
        <time>2021-08-29T11:03:49Z</time>
      </trkpt>
      <trkpt lat="44.59984" lon="2.3923">
        <ele>230</ele>
        <time>2021-08-29T11:03:52Z</time>
      </trkpt>
      <trkpt lat="44.59981" lon="2.39239">
        <ele>222</ele>
        <time>2021-08-29T11:03:54Z</time>
      </trkpt>
      <trkpt lat="44.59964" lon="2.39257">
        <ele>213</ele>
        <time>2021-08-29T11:03:59Z</time>
      </trkpt>
      <trkpt lat="44.59952" lon="2.39266">
        <ele>210</ele>
        <time>2021-08-29T11:04:02Z</time>
      </trkpt>
      <trkpt lat="44.59938" lon="2.39276">
        <ele>202</ele>
        <time>2021-08-29T11:04:05Z</time>
      </trkpt>
      <trkpt lat="44.59924" lon="2.39281">
        <ele>196</ele>
        <time>2021-08-29T11:04:08Z</time>
      </trkpt>
      <trkpt lat="44.5991" lon="2.39285">
        <ele>189</ele>
        <time>2021-08-29T11:04:11Z</time>
      </trkpt>
      <trkpt lat="44.59895" lon="2.39284">
        <ele>193</ele>
        <time>2021-08-29T11:04:14Z</time>
      </trkpt>
      <trkpt lat="44.59887" lon="2.39284">
        <ele>196</ele>
        <time>2021-08-29T11:04:16Z</time>
      </trkpt>
      <trkpt lat="44.59836" lon="2.39293">
        <ele>206</ele>
        <time>2021-08-29T11:04:30Z</time>
      </trkpt>
      <trkpt lat="44.59812" lon="2.3929">
        <ele>208</ele>
        <time>2021-08-29T11:04:37Z</time>
      </trkpt>
      <trkpt lat="44.59765" lon="2.39269">
        <ele>205</ele>
        <time>2021-08-29T11:04:52Z</time>
      </trkpt>
      <trkpt lat="44.59743" lon="2.39267">
        <ele>201</ele>
        <time>2021-08-29T11:04:58Z</time>
      </trkpt>
      <trkpt lat="44.59721" lon="2.39276">
        <ele>203</ele>
        <time>2021-08-29T11:05:04Z</time>
      </trkpt>
      <trkpt lat="44.59685" lon="2.39305">
        <ele>200</ele>
        <time>2021-08-29T11:05:14Z</time>
      </trkpt>
      <trkpt lat="44.59666" lon="2.39322">
        <ele>199</ele>
        <time>2021-08-29T11:05:19Z</time>
      </trkpt>
      <trkpt lat="44.59659" lon="2.39327">
        <ele>198</ele>
        <time>2021-08-29T11:05:21Z</time>
      </trkpt>
      <trkpt lat="44.59653" lon="2.39332">
        <ele>198</ele>
        <time>2021-08-29T11:05:23Z</time>
      </trkpt>
      <trkpt lat="44.59618" lon="2.39358">
        <ele>201</ele>
        <time>2021-08-29T11:05:33Z</time>
      </trkpt>
      <trkpt lat="44.59593" lon="2.39365">
        <ele>200</ele>
        <time>2021-08-29T11:05:40Z</time>
      </trkpt>
      <trkpt lat="44.59582" lon="2.39366">
        <ele>197</ele>
        <time>2021-08-29T11:05:43Z</time>
      </trkpt>
      <trkpt lat="44.59525" lon="2.39386">
        <ele>198</ele>
        <time>2021-08-29T11:05:57Z</time>
      </trkpt>
      <trkpt lat="44.59529" lon="2.39383">
        <ele>200</ele>
        <time>2021-08-29T11:06:53Z</time>
      </trkpt>
      <trkpt lat="44.596" lon="2.39376">
        <ele>203</ele>
        <time>2021-08-29T11:07:11Z</time>
      </trkpt>
      <trkpt lat="44.59707" lon="2.39293">
        <ele>204</ele>
        <time>2021-08-29T11:07:43Z</time>
      </trkpt>
      <trkpt lat="44.59726" lon="2.39286">
        <ele>202</ele>
        <time>2021-08-29T11:07:48Z</time>
      </trkpt>
      <trkpt lat="44.5975" lon="2.39287">
        <ele>202</ele>
        <time>2021-08-29T11:07:54Z</time>
      </trkpt>
      <trkpt lat="44.5979" lon="2.39302">
        <ele>203</ele>
        <time>2021-08-29T11:08:05Z</time>
      </trkpt>
      <trkpt lat="44.59797" lon="2.39304">
        <ele>204</ele>
        <time>2021-08-29T11:08:07Z</time>
      </trkpt>
      <trkpt lat="44.59802" lon="2.39307">
        <ele>204</ele>
        <time>2021-08-29T11:08:09Z</time>
      </trkpt>
      <trkpt lat="44.5981" lon="2.39301">
        <ele>210</ele>
        <time>2021-08-29T11:08:14Z</time>
      </trkpt>
      <trkpt lat="44.59806" lon="2.39297">
        <ele>215</ele>
        <time>2021-08-29T11:08:17Z</time>
      </trkpt>
      <trkpt lat="44.59805" lon="2.3929">
        <ele>219</ele>
        <time>2021-08-29T11:08:20Z</time>
      </trkpt>
      <trkpt lat="44.59805" lon="2.39282">
        <ele>221</ele>
        <time>2021-08-29T11:08:23Z</time>
      </trkpt>
      <trkpt lat="44.59817" lon="2.39191">
        <ele>229</ele>
        <time>2021-08-29T11:08:53Z</time>
      </trkpt>
      <trkpt lat="44.59791" lon="2.39116">
        <ele>232</ele>
        <time>2021-08-29T11:09:24Z</time>
      </trkpt>
      <trkpt lat="44.59786" lon="2.39111">
        <ele>232</ele>
        <time>2021-08-29T11:09:27Z</time>
      </trkpt>
      <trkpt lat="44.59776" lon="2.39102">
        <ele>229</ele>
        <time>2021-08-29T11:09:34Z</time>
      </trkpt>
      <trkpt lat="44.59774" lon="2.39095">
        <ele>228</ele>
        <time>2021-08-29T11:09:37Z</time>
      </trkpt>
      <trkpt lat="44.59778" lon="2.39089">
        <ele>229</ele>
        <time>2021-08-29T11:09:42Z</time>
      </trkpt>
      <trkpt lat="44.59785" lon="2.39094">
        <ele>229</ele>
        <time>2021-08-29T11:09:45Z</time>
      </trkpt>
      <trkpt lat="44.5979" lon="2.39099">
        <ele>226</ele>
        <time>2021-08-29T11:09:48Z</time>
      </trkpt>
      <trkpt lat="44.59799" lon="2.39102">
        <ele>224</ele>
        <time>2021-08-29T11:09:52Z</time>
      </trkpt>
      <trkpt lat="44.59805" lon="2.39109">
        <ele>226</ele>
        <time>2021-08-29T11:09:56Z</time>
      </trkpt>
      <trkpt lat="44.59812" lon="2.39115">
        <ele>228</ele>
        <time>2021-08-29T11:10:00Z</time>
      </trkpt>
      <trkpt lat="44.59832" lon="2.39142">
        <ele>228</ele>
        <time>2021-08-29T11:10:15Z</time>
      </trkpt>
      <trkpt lat="44.59837" lon="2.39147">
        <ele>229</ele>
        <time>2021-08-29T11:10:18Z</time>
      </trkpt>
      <trkpt lat="44.59868" lon="2.39134">
        <ele>229</ele>
        <time>2021-08-29T11:10:35Z</time>
      </trkpt>
      <trkpt lat="44.5987" lon="2.39128">
        <ele>230</ele>
        <time>2021-08-29T11:10:39Z</time>
      </trkpt>
      <trkpt lat="44.59883" lon="2.39086">
        <ele>234</ele>
        <time>2021-08-29T11:11:00Z</time>
      </trkpt>
      <trkpt lat="44.59885" lon="2.39079">
        <ele>235</ele>
        <time>2021-08-29T11:11:03Z</time>
      </trkpt>
      <trkpt lat="44.59889" lon="2.39072">
        <ele>237</ele>
        <time>2021-08-29T11:11:06Z</time>
      </trkpt>
      <trkpt lat="44.59892" lon="2.39066">
        <ele>238</ele>
        <time>2021-08-29T11:11:09Z</time>
      </trkpt>
      <trkpt lat="44.59905" lon="2.3904">
        <ele>243</ele>
        <time>2021-08-29T11:11:21Z</time>
      </trkpt>
      <trkpt lat="44.59908" lon="2.39034">
        <ele>244</ele>
        <time>2021-08-29T11:11:24Z</time>
      </trkpt>
      <trkpt lat="44.59912" lon="2.39027">
        <ele>246</ele>
        <time>2021-08-29T11:11:27Z</time>
      </trkpt>
      <trkpt lat="44.59921" lon="2.39009">
        <ele>248</ele>
        <time>2021-08-29T11:11:36Z</time>
      </trkpt>
      <trkpt lat="44.59934" lon="2.38995">
        <ele>247</ele>
        <time>2021-08-29T11:11:45Z</time>
      </trkpt>
      <trkpt lat="44.59937" lon="2.38989">
        <ele>248</ele>
        <time>2021-08-29T11:11:48Z</time>
      </trkpt>
      <trkpt lat="44.59938" lon="2.3898">
        <ele>249</ele>
        <time>2021-08-29T11:11:51Z</time>
      </trkpt>
      <trkpt lat="44.59935" lon="2.38976">
        <ele>251</ele>
        <time>2021-08-29T11:11:54Z</time>
      </trkpt>
      <trkpt lat="44.59929" lon="2.38977">
        <ele>252</ele>
        <time>2021-08-29T11:11:57Z</time>
      </trkpt>
      <trkpt lat="44.59911" lon="2.39005">
        <ele>252</ele>
        <time>2021-08-29T11:12:10Z</time>
      </trkpt>
      <trkpt lat="44.59898" lon="2.39021">
        <ele>253</ele>
        <time>2021-08-29T11:12:18Z</time>
      </trkpt>
      <trkpt lat="44.59894" lon="2.39028">
        <ele>254</ele>
        <time>2021-08-29T11:12:21Z</time>
      </trkpt>
      <trkpt lat="44.5989" lon="2.39033">
        <ele>256</ele>
        <time>2021-08-29T11:12:25Z</time>
      </trkpt>
      <trkpt lat="44.59886" lon="2.39036">
        <ele>257</ele>
        <time>2021-08-29T11:12:28Z</time>
      </trkpt>
      <trkpt lat="44.5988" lon="2.39037">
        <ele>258</ele>
        <time>2021-08-29T11:12:31Z</time>
      </trkpt>
      <trkpt lat="44.59866" lon="2.3905">
        <ele>261</ele>
        <time>2021-08-29T11:12:42Z</time>
      </trkpt>
      <trkpt lat="44.59826" lon="2.39071">
        <ele>264</ele>
        <time>2021-08-29T11:13:06Z</time>
      </trkpt>
      <trkpt lat="44.59822" lon="2.39069">
        <ele>265</ele>
        <time>2021-08-29T11:13:09Z</time>
      </trkpt>
      <trkpt lat="44.59818" lon="2.39061">
        <ele>265</ele>
        <time>2021-08-29T11:13:12Z</time>
      </trkpt>
      <trkpt lat="44.59816" lon="2.39044">
        <ele>267</ele>
        <time>2021-08-29T11:13:18Z</time>
      </trkpt>
      <trkpt lat="44.59805" lon="2.39016">
        <ele>269</ele>
        <time>2021-08-29T11:13:30Z</time>
      </trkpt>
      <trkpt lat="44.59774" lon="2.38981">
        <ele>267</ele>
        <time>2021-08-29T11:13:51Z</time>
      </trkpt>
      <trkpt lat="44.59742" lon="2.38938">
        <ele>266</ele>
        <time>2021-08-29T11:14:17Z</time>
      </trkpt>
      <trkpt lat="44.59735" lon="2.38928">
        <ele>269</ele>
        <time>2021-08-29T11:14:22Z</time>
      </trkpt>
      <trkpt lat="44.59725" lon="2.3891">
        <ele>271</ele>
        <time>2021-08-29T11:14:31Z</time>
      </trkpt>
      <trkpt lat="44.59715" lon="2.38888">
        <ele>276</ele>
        <time>2021-08-29T11:14:41Z</time>
      </trkpt>
      <trkpt lat="44.59707" lon="2.38868">
        <ele>277</ele>
        <time>2021-08-29T11:14:50Z</time>
      </trkpt>
      <trkpt lat="44.59695" lon="2.38861">
        <ele>286</ele>
        <time>2021-08-29T11:14:55Z</time>
      </trkpt>
      <trkpt lat="44.59687" lon="2.38873">
        <ele>285</ele>
        <time>2021-08-29T11:15:03Z</time>
      </trkpt>
      <trkpt lat="44.59684" lon="2.38888">
        <ele>282</ele>
        <time>2021-08-29T11:15:08Z</time>
      </trkpt>
      <trkpt lat="44.59689" lon="2.38921">
        <ele>282</ele>
        <time>2021-08-29T11:15:22Z</time>
      </trkpt>
      <trkpt lat="44.59688" lon="2.38928">
        <ele>282</ele>
        <time>2021-08-29T11:15:25Z</time>
      </trkpt>
      <trkpt lat="44.59677" lon="2.38961">
        <ele>284</ele>
        <time>2021-08-29T11:15:36Z</time>
      </trkpt>
      <trkpt lat="44.59665" lon="2.39">
        <ele>281</ele>
        <time>2021-08-29T11:15:48Z</time>
      </trkpt>
      <trkpt lat="44.59661" lon="2.39014">
        <ele>280</ele>
        <time>2021-08-29T11:15:52Z</time>
      </trkpt>
      <trkpt lat="44.59659" lon="2.39045">
        <ele>277</ele>
        <time>2021-08-29T11:16:02Z</time>
      </trkpt>
      <trkpt lat="44.59662" lon="2.39061">
        <ele>278</ele>
        <time>2021-08-29T11:16:08Z</time>
      </trkpt>
      <trkpt lat="44.59661" lon="2.39069">
        <ele>279</ele>
        <time>2021-08-29T11:16:11Z</time>
      </trkpt>
      <trkpt lat="44.5966" lon="2.39076">
        <ele>279</ele>
        <time>2021-08-29T11:16:14Z</time>
      </trkpt>
      <trkpt lat="44.59655" lon="2.3908">
        <ele>280</ele>
        <time>2021-08-29T11:16:17Z</time>
      </trkpt>
      <trkpt lat="44.59651" lon="2.39077">
        <ele>286</ele>
        <time>2021-08-29T11:16:27Z</time>
      </trkpt>
      <trkpt lat="44.59645" lon="2.39079">
        <ele>293</ele>
        <time>2021-08-29T11:16:31Z</time>
      </trkpt>
      <trkpt lat="44.59619" lon="2.39099">
        <ele>297</ele>
        <time>2021-08-29T11:16:46Z</time>
      </trkpt>
      <trkpt lat="44.59615" lon="2.39103">
        <ele>298</ele>
        <time>2021-08-29T11:16:57Z</time>
      </trkpt>
      <trkpt lat="44.59609" lon="2.39102">
        <ele>298</ele>
        <time>2021-08-29T11:17:00Z</time>
      </trkpt>
      <trkpt lat="44.59599" lon="2.391">
        <ele>300</ele>
        <time>2021-08-29T11:17:04Z</time>
      </trkpt>
      <trkpt lat="44.59594" lon="2.39101">
        <ele>301</ele>
        <time>2021-08-29T11:17:06Z</time>
      </trkpt>
      <trkpt lat="44.59589" lon="2.39102">
        <ele>301</ele>
        <time>2021-08-29T11:17:08Z</time>
      </trkpt>
      <trkpt lat="44.59539" lon="2.39155">
        <ele>303</ele>
        <time>2021-08-29T11:17:38Z</time>
      </trkpt>
      <trkpt lat="44.59534" lon="2.39158">
        <ele>305</ele>
        <time>2021-08-29T11:17:43Z</time>
      </trkpt>
      <trkpt lat="44.59528" lon="2.39156">
        <ele>307</ele>
        <time>2021-08-29T11:17:47Z</time>
      </trkpt>
      <trkpt lat="44.59523" lon="2.39152">
        <ele>309</ele>
        <time>2021-08-29T11:17:50Z</time>
      </trkpt>
      <trkpt lat="44.59518" lon="2.3915">
        <ele>307</ele>
        <time>2021-08-29T11:18:04Z</time>
      </trkpt>
      <trkpt lat="44.5952" lon="2.39144">
        <ele>304</ele>
        <time>2021-08-29T11:21:10Z</time>
      </trkpt>
      <trkpt lat="44.59525" lon="2.39149">
        <ele>303</ele>
        <time>2021-08-29T11:24:15Z</time>
      </trkpt>
      <trkpt lat="44.59528" lon="2.39157">
        <ele>304</ele>
        <time>2021-08-29T11:24:17Z</time>
      </trkpt>
      <trkpt lat="44.59532" lon="2.39162">
        <ele>304</ele>
        <time>2021-08-29T11:24:19Z</time>
      </trkpt>
      <trkpt lat="44.59541" lon="2.39155">
        <ele>304</ele>
        <time>2021-08-29T11:24:23Z</time>
      </trkpt>
      <trkpt lat="44.59545" lon="2.39148">
        <ele>303</ele>
        <time>2021-08-29T11:24:26Z</time>
      </trkpt>
      <trkpt lat="44.59579" lon="2.39106">
        <ele>297</ele>
        <time>2021-08-29T11:24:39Z</time>
      </trkpt>
      <trkpt lat="44.59585" lon="2.39106">
        <ele>296</ele>
        <time>2021-08-29T11:24:41Z</time>
      </trkpt>
      <trkpt lat="44.59599" lon="2.39111">
        <ele>294</ele>
        <time>2021-08-29T11:24:44Z</time>
      </trkpt>
      <trkpt lat="44.59614" lon="2.39099">
        <ele>292</ele>
        <time>2021-08-29T11:24:47Z</time>
      </trkpt>
      <trkpt lat="44.59641" lon="2.39081">
        <ele>288</ele>
        <time>2021-08-29T11:24:52Z</time>
      </trkpt>
      <trkpt lat="44.59652" lon="2.39079">
        <ele>287</ele>
        <time>2021-08-29T11:24:54Z</time>
      </trkpt>
      <trkpt lat="44.59657" lon="2.39078">
        <ele>286</ele>
        <time>2021-08-29T11:24:55Z</time>
      </trkpt>
      <trkpt lat="44.59661" lon="2.39073">
        <ele>286</ele>
        <time>2021-08-29T11:24:56Z</time>
      </trkpt>
      <trkpt lat="44.59665" lon="2.39068">
        <ele>286</ele>
        <time>2021-08-29T11:24:57Z</time>
      </trkpt>
      <trkpt lat="44.59659" lon="2.38981">
        <ele>284</ele>
        <time>2021-08-29T11:25:08Z</time>
      </trkpt>
      <trkpt lat="44.59669" lon="2.38945">
        <ele>282</ele>
        <time>2021-08-29T11:25:12Z</time>
      </trkpt>
      <trkpt lat="44.5967" lon="2.38936">
        <ele>282</ele>
        <time>2021-08-29T11:25:13Z</time>
      </trkpt>
      <trkpt lat="44.59672" lon="2.3889">
        <ele>280</ele>
        <time>2021-08-29T11:25:18Z</time>
      </trkpt>
      <trkpt lat="44.59673" lon="2.38883">
        <ele>279</ele>
        <time>2021-08-29T11:25:19Z</time>
      </trkpt>
      <trkpt lat="44.59681" lon="2.38875">
        <ele>279</ele>
        <time>2021-08-29T11:25:21Z</time>
      </trkpt>
      <trkpt lat="44.59687" lon="2.38877">
        <ele>279</ele>
        <time>2021-08-29T11:25:22Z</time>
      </trkpt>
      <trkpt lat="44.59707" lon="2.38894">
        <ele>278</ele>
        <time>2021-08-29T11:25:25Z</time>
      </trkpt>
      <trkpt lat="44.59713" lon="2.38904">
        <ele>277</ele>
        <time>2021-08-29T11:25:27Z</time>
      </trkpt>
      <trkpt lat="44.59713" lon="2.38935">
        <ele>275</ele>
        <time>2021-08-29T11:25:32Z</time>
      </trkpt>
      <trkpt lat="44.59719" lon="2.38949">
        <ele>273</ele>
        <time>2021-08-29T11:25:35Z</time>
      </trkpt>
      <trkpt lat="44.59726" lon="2.38964">
        <ele>271</ele>
        <time>2021-08-29T11:25:39Z</time>
      </trkpt>
      <trkpt lat="44.59728" lon="2.3898">
        <ele>267</ele>
        <time>2021-08-29T11:25:44Z</time>
      </trkpt>
      <trkpt lat="44.59726" lon="2.3899">
        <ele>264</ele>
        <time>2021-08-29T11:25:46Z</time>
      </trkpt>
      <trkpt lat="44.59732" lon="2.38997">
        <ele>261</ele>
        <time>2021-08-29T11:25:52Z</time>
      </trkpt>
      <trkpt lat="44.59741" lon="2.39">
        <ele>258</ele>
        <time>2021-08-29T11:26:48Z</time>
      </trkpt>
      <trkpt lat="44.59749" lon="2.39005">
        <ele>259</ele>
        <time>2021-08-29T11:26:50Z</time>
      </trkpt>
      <trkpt lat="44.59787" lon="2.39034">
        <ele>262</ele>
        <time>2021-08-29T11:26:57Z</time>
      </trkpt>
      <trkpt lat="44.59793" lon="2.39047">
        <ele>262</ele>
        <time>2021-08-29T11:26:59Z</time>
      </trkpt>
      <trkpt lat="44.598" lon="2.39059">
        <ele>262</ele>
        <time>2021-08-29T11:27:01Z</time>
      </trkpt>
      <trkpt lat="44.59803" lon="2.39066">
        <ele>262</ele>
        <time>2021-08-29T11:27:02Z</time>
      </trkpt>
      <trkpt lat="44.59803" lon="2.39075">
        <ele>261</ele>
        <time>2021-08-29T11:27:03Z</time>
      </trkpt>
      <trkpt lat="44.59804" lon="2.39084">
        <ele>260</ele>
        <time>2021-08-29T11:27:04Z</time>
      </trkpt>
      <trkpt lat="44.59807" lon="2.39088">
        <ele>259</ele>
        <time>2021-08-29T11:27:06Z</time>
      </trkpt>
      <trkpt lat="44.59816" lon="2.39085">
        <ele>258</ele>
        <time>2021-08-29T11:27:08Z</time>
      </trkpt>
      <trkpt lat="44.59894" lon="2.39019">
        <ele>251</ele>
        <time>2021-08-29T11:27:21Z</time>
      </trkpt>
      <trkpt lat="44.5992" lon="2.3899">
        <ele>249</ele>
        <time>2021-08-29T11:27:26Z</time>
      </trkpt>
      <trkpt lat="44.59926" lon="2.38983">
        <ele>248</ele>
        <time>2021-08-29T11:27:28Z</time>
      </trkpt>
      <trkpt lat="44.59932" lon="2.38988">
        <ele>248</ele>
        <time>2021-08-29T11:27:30Z</time>
      </trkpt>
      <trkpt lat="44.59929" lon="2.38999">
        <ele>248</ele>
        <time>2021-08-29T11:27:32Z</time>
      </trkpt>
      <trkpt lat="44.59924" lon="2.39005">
        <ele>247</ele>
        <time>2021-08-29T11:27:33Z</time>
      </trkpt>
      <trkpt lat="44.59916" lon="2.39019">
        <ele>247</ele>
        <time>2021-08-29T11:27:35Z</time>
      </trkpt>
      <trkpt lat="44.59868" lon="2.39139">
        <ele>244</ele>
        <time>2021-08-29T11:27:47Z</time>
      </trkpt>
      <trkpt lat="44.59858" lon="2.39151">
        <ele>244</ele>
        <time>2021-08-29T11:27:49Z</time>
      </trkpt>
      <trkpt lat="44.59852" lon="2.39155">
        <ele>244</ele>
        <time>2021-08-29T11:27:50Z</time>
      </trkpt>
      <trkpt lat="44.59845" lon="2.39157">
        <ele>243</ele>
        <time>2021-08-29T11:27:51Z</time>
      </trkpt>
      <trkpt lat="44.59838" lon="2.39156">
        <ele>242</ele>
        <time>2021-08-29T11:27:52Z</time>
      </trkpt>
      <trkpt lat="44.59831" lon="2.39152">
        <ele>241</ele>
        <time>2021-08-29T11:27:53Z</time>
      </trkpt>
      <trkpt lat="44.5981" lon="2.39118">
        <ele>239</ele>
        <time>2021-08-29T11:27:57Z</time>
      </trkpt>
      <trkpt lat="44.59795" lon="2.39104">
        <ele>237</ele>
        <time>2021-08-29T11:28:00Z</time>
      </trkpt>
      <trkpt lat="44.59789" lon="2.39096">
        <ele>237</ele>
        <time>2021-08-29T11:28:02Z</time>
      </trkpt>
      <trkpt lat="44.59781" lon="2.39088">
        <ele>237</ele>
        <time>2021-08-29T11:28:05Z</time>
      </trkpt>
      <trkpt lat="44.59776" lon="2.39111">
        <ele>240</ele>
        <time>2021-08-29T11:28:08Z</time>
      </trkpt>
      <trkpt lat="44.59816" lon="2.39143">
        <ele>239</ele>
        <time>2021-08-29T11:28:15Z</time>
      </trkpt>
      <trkpt lat="44.59822" lon="2.39147">
        <ele>238</ele>
        <time>2021-08-29T11:28:16Z</time>
      </trkpt>
      <trkpt lat="44.59832" lon="2.39172">
        <ele>233</ele>
        <time>2021-08-29T11:28:20Z</time>
      </trkpt>
      <trkpt lat="44.59833" lon="2.39182">
        <ele>232</ele>
        <time>2021-08-29T11:28:22Z</time>
      </trkpt>
      <trkpt lat="44.59832" lon="2.39193">
        <ele>229</ele>
        <time>2021-08-29T11:28:25Z</time>
      </trkpt>
      <trkpt lat="44.59828" lon="2.39214">
        <ele>225</ele>
        <time>2021-08-29T11:28:30Z</time>
      </trkpt>
      <trkpt lat="44.59826" lon="2.39221">
        <ele>226</ele>
        <time>2021-08-29T11:28:34Z</time>
      </trkpt>
      <trkpt lat="44.59824" lon="2.39235">
        <ele>227</ele>
        <time>2021-08-29T11:29:30Z</time>
      </trkpt>
      <trkpt lat="44.59822" lon="2.39246">
        <ele>229</ele>
        <time>2021-08-29T11:29:33Z</time>
      </trkpt>
      <trkpt lat="44.59815" lon="2.39262">
        <ele>231</ele>
        <time>2021-08-29T11:29:40Z</time>
      </trkpt>
      <trkpt lat="44.59812" lon="2.39275">
        <ele>232</ele>
        <time>2021-08-29T11:29:46Z</time>
      </trkpt>
      <trkpt lat="44.5981" lon="2.39282">
        <ele>232</ele>
        <time>2021-08-29T11:29:50Z</time>
      </trkpt>
      <trkpt lat="44.59806" lon="2.39288">
        <ele>231</ele>
        <time>2021-08-29T11:29:55Z</time>
      </trkpt>
      <trkpt lat="44.59789" lon="2.39282">
        <ele>234</ele>
        <time>2021-08-29T11:30:01Z</time>
      </trkpt>
      <trkpt lat="44.59782" lon="2.39275">
        <ele>236</ele>
        <time>2021-08-29T11:30:03Z</time>
      </trkpt>
      <trkpt lat="44.59757" lon="2.39262">
        <ele>236</ele>
        <time>2021-08-29T11:30:10Z</time>
      </trkpt>
      <trkpt lat="44.59727" lon="2.39269">
        <ele>237</ele>
        <time>2021-08-29T11:30:18Z</time>
      </trkpt>
      <trkpt lat="44.59705" lon="2.39281">
        <ele>238</ele>
        <time>2021-08-29T11:30:23Z</time>
      </trkpt>
      <trkpt lat="44.59619" lon="2.3936">
        <ele>244</ele>
        <time>2021-08-29T11:30:47Z</time>
      </trkpt>
      <trkpt lat="44.59598" lon="2.3937">
        <ele>246</ele>
        <time>2021-08-29T11:30:52Z</time>
      </trkpt>
      <trkpt lat="44.59532" lon="2.39382">
        <ele>247</ele>
        <time>2021-08-29T11:31:05Z</time>
      </trkpt>
      <trkpt lat="44.5949" lon="2.3941">
        <ele>252</ele>
        <time>2021-08-29T11:31:15Z</time>
      </trkpt>
      <trkpt lat="44.59361" lon="2.39512">
        <ele>259</ele>
        <time>2021-08-29T11:31:45Z</time>
      </trkpt>
      <trkpt lat="44.59353" lon="2.39519">
        <ele>261</ele>
        <time>2021-08-29T11:31:47Z</time>
      </trkpt>
      <trkpt lat="44.5934" lon="2.39535">
        <ele>260</ele>
        <time>2021-08-29T11:31:51Z</time>
      </trkpt>
      <trkpt lat="44.59332" lon="2.39543">
        <ele>259</ele>
        <time>2021-08-29T11:31:53Z</time>
      </trkpt>
      <trkpt lat="44.59286" lon="2.39622">
        <ele>261</ele>
        <time>2021-08-29T11:32:12Z</time>
      </trkpt>
      <trkpt lat="44.59283" lon="2.39631">
        <ele>261</ele>
        <time>2021-08-29T11:32:14Z</time>
      </trkpt>
      <trkpt lat="44.59217" lon="2.39729">
        <ele>260</ele>
        <time>2021-08-29T11:32:40Z</time>
      </trkpt>
      <trkpt lat="44.59209" lon="2.39747">
        <ele>258</ele>
        <time>2021-08-29T11:32:44Z</time>
      </trkpt>
      <trkpt lat="44.59195" lon="2.39772">
        <ele>259</ele>
        <time>2021-08-29T11:32:50Z</time>
      </trkpt>
      <trkpt lat="44.59186" lon="2.39779">
        <ele>262</ele>
        <time>2021-08-29T11:32:52Z</time>
      </trkpt>
      <trkpt lat="44.59169" lon="2.39788">
        <ele>267</ele>
        <time>2021-08-29T11:32:56Z</time>
      </trkpt>
      <trkpt lat="44.59148" lon="2.39793">
        <ele>265</ele>
        <time>2021-08-29T11:33:00Z</time>
      </trkpt>
      <trkpt lat="44.59095" lon="2.39805">
        <ele>260</ele>
        <time>2021-08-29T11:33:12Z</time>
      </trkpt>
      <trkpt lat="44.59071" lon="2.39798">
        <ele>258</ele>
        <time>2021-08-29T11:33:17Z</time>
      </trkpt>
      <trkpt lat="44.59053" lon="2.39784">
        <ele>257</ele>
        <time>2021-08-29T11:33:21Z</time>
      </trkpt>
      <trkpt lat="44.58961" lon="2.39693">
        <ele>251</ele>
        <time>2021-08-29T11:33:40Z</time>
      </trkpt>
      <trkpt lat="44.5895" lon="2.39684">
        <ele>251</ele>
        <time>2021-08-29T11:33:42Z</time>
      </trkpt>
      <trkpt lat="44.58901" lon="2.39633">
        <ele>241</ele>
        <time>2021-08-29T11:33:52Z</time>
      </trkpt>
      <trkpt lat="44.58895" lon="2.39629">
        <ele>240</ele>
        <time>2021-08-29T11:33:53Z</time>
      </trkpt>
      <trkpt lat="44.58883" lon="2.39625">
        <ele>239</ele>
        <time>2021-08-29T11:33:55Z</time>
      </trkpt>
      <trkpt lat="44.58865" lon="2.39627">
        <ele>238</ele>
        <time>2021-08-29T11:33:58Z</time>
      </trkpt>
      <trkpt lat="44.58849" lon="2.39636">
        <ele>236</ele>
        <time>2021-08-29T11:34:01Z</time>
      </trkpt>
      <trkpt lat="44.58838" lon="2.39645">
        <ele>234</ele>
        <time>2021-08-29T11:34:03Z</time>
      </trkpt>
      <trkpt lat="44.58823" lon="2.39662">
        <ele>231</ele>
        <time>2021-08-29T11:34:06Z</time>
      </trkpt>
      <trkpt lat="44.58814" lon="2.39682">
        <ele>229</ele>
        <time>2021-08-29T11:34:09Z</time>
      </trkpt>
      <trkpt lat="44.5881" lon="2.39706">
        <ele>229</ele>
        <time>2021-08-29T11:34:12Z</time>
      </trkpt>
      <trkpt lat="44.58812" lon="2.39729">
        <ele>227</ele>
        <time>2021-08-29T11:34:15Z</time>
      </trkpt>
      <trkpt lat="44.58824" lon="2.39782">
        <ele>225</ele>
        <time>2021-08-29T11:34:22Z</time>
      </trkpt>
      <trkpt lat="44.5883" lon="2.39795">
        <ele>223</ele>
        <time>2021-08-29T11:34:24Z</time>
      </trkpt>
      <trkpt lat="44.58835" lon="2.39808">
        <ele>222</ele>
        <time>2021-08-29T11:34:26Z</time>
      </trkpt>
      <trkpt lat="44.58843" lon="2.39813">
        <ele>223</ele>
        <time>2021-08-29T11:34:27Z</time>
      </trkpt>
      <trkpt lat="44.58854" lon="2.39888">
        <ele>226</ele>
        <time>2021-08-29T11:34:42Z</time>
      </trkpt>
      <trkpt lat="44.58852" lon="2.39898">
        <ele>226</ele>
        <time>2021-08-29T11:34:45Z</time>
      </trkpt>
      <trkpt lat="44.5885" lon="2.39907">
        <ele>226</ele>
        <time>2021-08-29T11:34:47Z</time>
      </trkpt>
      <trkpt lat="44.58843" lon="2.39943">
        <ele>222</ele>
        <time>2021-08-29T11:34:53Z</time>
      </trkpt>
      <trkpt lat="44.58822" lon="2.40007">
        <ele>223</ele>
        <time>2021-08-29T11:35:03Z</time>
      </trkpt>
      <trkpt lat="44.58808" lon="2.40032">
        <ele>225</ele>
        <time>2021-08-29T11:35:07Z</time>
      </trkpt>
      <trkpt lat="44.58799" lon="2.40045">
        <ele>232</ele>
        <time>2021-08-29T11:35:09Z</time>
      </trkpt>
      <trkpt lat="44.58761" lon="2.40098">
        <ele>241</ele>
        <time>2021-08-29T11:35:18Z</time>
      </trkpt>
      <trkpt lat="44.5871" lon="2.40165">
        <ele>247</ele>
        <time>2021-08-29T11:35:32Z</time>
      </trkpt>
      <trkpt lat="44.58698" lon="2.40183">
        <ele>244</ele>
        <time>2021-08-29T11:35:36Z</time>
      </trkpt>
      <trkpt lat="44.58691" lon="2.4019">
        <ele>242</ele>
        <time>2021-08-29T11:35:38Z</time>
      </trkpt>
      <trkpt lat="44.58682" lon="2.40196">
        <ele>238</ele>
        <time>2021-08-29T11:35:40Z</time>
      </trkpt>
      <trkpt lat="44.58674" lon="2.40201">
        <ele>234</ele>
        <time>2021-08-29T11:35:42Z</time>
      </trkpt>
      <trkpt lat="44.58629" lon="2.40219">
        <ele>228</ele>
        <time>2021-08-29T11:35:52Z</time>
      </trkpt>
      <trkpt lat="44.5861" lon="2.40222">
        <ele>225</ele>
        <time>2021-08-29T11:35:56Z</time>
      </trkpt>
      <trkpt lat="44.58591" lon="2.40225">
        <ele>221</ele>
        <time>2021-08-29T11:36:00Z</time>
      </trkpt>
      <trkpt lat="44.58475" lon="2.40225">
        <ele>224</ele>
        <time>2021-08-29T11:36:22Z</time>
      </trkpt>
      <trkpt lat="44.58353" lon="2.40242">
        <ele>231</ele>
        <time>2021-08-29T11:36:47Z</time>
      </trkpt>
      <trkpt lat="44.58308" lon="2.40265">
        <ele>233</ele>
        <time>2021-08-29T11:36:57Z</time>
      </trkpt>
      <trkpt lat="44.5822" lon="2.40327">
        <ele>240</ele>
        <time>2021-08-29T11:37:16Z</time>
      </trkpt>
      <trkpt lat="44.58201" lon="2.40355">
        <ele>244</ele>
        <time>2021-08-29T11:37:21Z</time>
      </trkpt>
      <trkpt lat="44.58194" lon="2.40397">
        <ele>242</ele>
        <time>2021-08-29T11:37:27Z</time>
      </trkpt>
      <trkpt lat="44.5818" lon="2.40517">
        <ele>240</ele>
        <time>2021-08-29T11:37:43Z</time>
      </trkpt>
      <trkpt lat="44.58171" lon="2.40546">
        <ele>241</ele>
        <time>2021-08-29T11:37:47Z</time>
      </trkpt>
      <trkpt lat="44.58158" lon="2.40571">
        <ele>241</ele>
        <time>2021-08-29T11:37:51Z</time>
      </trkpt>
      <trkpt lat="44.5812" lon="2.40607">
        <ele>243</ele>
        <time>2021-08-29T11:37:59Z</time>
      </trkpt>
      <trkpt lat="44.57961" lon="2.40714">
        <ele>225</ele>
        <time>2021-08-29T11:38:31Z</time>
      </trkpt>
      <trkpt lat="44.57903" lon="2.40758">
        <ele>224</ele>
        <time>2021-08-29T11:38:43Z</time>
      </trkpt>
      <trkpt lat="44.57863" lon="2.40781">
        <ele>218</ele>
        <time>2021-08-29T11:38:51Z</time>
      </trkpt>
      <trkpt lat="44.57851" lon="2.4079">
        <ele>216</ele>
        <time>2021-08-29T11:38:54Z</time>
      </trkpt>
      <trkpt lat="44.5781" lon="2.40806">
        <ele>208</ele>
        <time>2021-08-29T11:39:02Z</time>
      </trkpt>
      <trkpt lat="44.57691" lon="2.40816">
        <ele>208</ele>
        <time>2021-08-29T11:39:23Z</time>
      </trkpt>
      <trkpt lat="44.57647" lon="2.40805">
        <ele>213</ele>
        <time>2021-08-29T11:39:30Z</time>
      </trkpt>
      <trkpt lat="44.57619" lon="2.40791">
        <ele>215</ele>
        <time>2021-08-29T11:39:35Z</time>
      </trkpt>
      <trkpt lat="44.57573" lon="2.40749">
        <ele>217</ele>
        <time>2021-08-29T11:39:44Z</time>
      </trkpt>
      <trkpt lat="44.57541" lon="2.40717">
        <ele>220</ele>
        <time>2021-08-29T11:39:51Z</time>
      </trkpt>
      <trkpt lat="44.57524" lon="2.40704">
        <ele>222</ele>
        <time>2021-08-29T11:39:55Z</time>
      </trkpt>
      <trkpt lat="44.57506" lon="2.40702">
        <ele>226</ele>
        <time>2021-08-29T11:39:59Z</time>
      </trkpt>
      <trkpt lat="44.5749" lon="2.40705">
        <ele>228</ele>
        <time>2021-08-29T11:40:02Z</time>
      </trkpt>
      <trkpt lat="44.57475" lon="2.40714">
        <ele>229</ele>
        <time>2021-08-29T11:40:05Z</time>
      </trkpt>
      <trkpt lat="44.57325" lon="2.4083">
        <ele>242</ele>
        <time>2021-08-29T11:40:36Z</time>
      </trkpt>
      <trkpt lat="44.57289" lon="2.40846">
        <ele>245</ele>
        <time>2021-08-29T11:40:42Z</time>
      </trkpt>
      <trkpt lat="44.57267" lon="2.40849">
        <ele>247</ele>
        <time>2021-08-29T11:40:45Z</time>
      </trkpt>
      <trkpt lat="44.5721" lon="2.40836">
        <ele>250</ele>
        <time>2021-08-29T11:40:55Z</time>
      </trkpt>
      <trkpt lat="44.57142" lon="2.40782">
        <ele>250</ele>
        <time>2021-08-29T11:41:10Z</time>
      </trkpt>
      <trkpt lat="44.57062" lon="2.40707">
        <ele>248</ele>
        <time>2021-08-29T11:41:28Z</time>
      </trkpt>
      <trkpt lat="44.56951" lon="2.40544">
        <ele>243</ele>
        <time>2021-08-29T11:41:55Z</time>
      </trkpt>
      <trkpt lat="44.56939" lon="2.40536">
        <ele>243</ele>
        <time>2021-08-29T11:41:57Z</time>
      </trkpt>
      <trkpt lat="44.56932" lon="2.40533">
        <ele>244</ele>
        <time>2021-08-29T11:41:58Z</time>
      </trkpt>
      <trkpt lat="44.56927" lon="2.40533">
        <ele>246</ele>
        <time>2021-08-29T11:41:59Z</time>
      </trkpt>
      <trkpt lat="44.56921" lon="2.40535">
        <ele>247</ele>
        <time>2021-08-29T11:42:00Z</time>
      </trkpt>
      <trkpt lat="44.56911" lon="2.40544">
        <ele>248</ele>
        <time>2021-08-29T11:42:02Z</time>
      </trkpt>
      <trkpt lat="44.56879" lon="2.40588">
        <ele>250</ele>
        <time>2021-08-29T11:42:10Z</time>
      </trkpt>
      <trkpt lat="44.56871" lon="2.40595">
        <ele>250</ele>
        <time>2021-08-29T11:42:12Z</time>
      </trkpt>
      <trkpt lat="44.56823" lon="2.4061">
        <ele>254</ele>
        <time>2021-08-29T11:42:22Z</time>
      </trkpt>
      <trkpt lat="44.56794" lon="2.4064">
        <ele>257</ele>
        <time>2021-08-29T11:42:30Z</time>
      </trkpt>
      <trkpt lat="44.56751" lon="2.40652">
        <ele>262</ele>
        <time>2021-08-29T11:42:38Z</time>
      </trkpt>
      <trkpt lat="44.56729" lon="2.40647">
        <ele>263</ele>
        <time>2021-08-29T11:42:42Z</time>
      </trkpt>
      <trkpt lat="44.56687" lon="2.40609">
        <ele>265</ele>
        <time>2021-08-29T11:42:51Z</time>
      </trkpt>
      <trkpt lat="44.56682" lon="2.40607">
        <ele>264</ele>
        <time>2021-08-29T11:42:52Z</time>
      </trkpt>
      <trkpt lat="44.56677" lon="2.40607">
        <ele>264</ele>
        <time>2021-08-29T11:42:53Z</time>
      </trkpt>
      <trkpt lat="44.56672" lon="2.40608">
        <ele>264</ele>
        <time>2021-08-29T11:42:54Z</time>
      </trkpt>
      <trkpt lat="44.56667" lon="2.40611">
        <ele>264</ele>
        <time>2021-08-29T11:42:55Z</time>
      </trkpt>
      <trkpt lat="44.56658" lon="2.40622">
        <ele>264</ele>
        <time>2021-08-29T11:42:57Z</time>
      </trkpt>
      <trkpt lat="44.56652" lon="2.40636">
        <ele>264</ele>
        <time>2021-08-29T11:42:59Z</time>
      </trkpt>
      <trkpt lat="44.5661" lon="2.40775">
        <ele>271</ele>
        <time>2021-08-29T11:43:18Z</time>
      </trkpt>
      <trkpt lat="44.56578" lon="2.40836">
        <ele>274</ele>
        <time>2021-08-29T11:43:28Z</time>
      </trkpt>
      <trkpt lat="44.56533" lon="2.4089">
        <ele>280</ele>
        <time>2021-08-29T11:43:38Z</time>
      </trkpt>
      <trkpt lat="44.56522" lon="2.40898">
        <ele>280</ele>
        <time>2021-08-29T11:43:40Z</time>
      </trkpt>
      <trkpt lat="44.56503" lon="2.40902">
        <ele>279</ele>
        <time>2021-08-29T11:43:43Z</time>
      </trkpt>
      <trkpt lat="44.56462" lon="2.40908">
        <ele>274</ele>
        <time>2021-08-29T11:43:50Z</time>
      </trkpt>
      <trkpt lat="44.56427" lon="2.40898">
        <ele>272</ele>
        <time>2021-08-29T11:43:56Z</time>
      </trkpt>
      <trkpt lat="44.56267" lon="2.40854">
        <ele>267</ele>
        <time>2021-08-29T11:44:20Z</time>
      </trkpt>
      <trkpt lat="44.56238" lon="2.40854">
        <ele>267</ele>
        <time>2021-08-29T11:44:25Z</time>
      </trkpt>
      <trkpt lat="44.56207" lon="2.40865">
        <ele>265</ele>
        <time>2021-08-29T11:44:31Z</time>
      </trkpt>
      <trkpt lat="44.56182" lon="2.4088">
        <ele>265</ele>
        <time>2021-08-29T11:44:37Z</time>
      </trkpt>
      <trkpt lat="44.56177" lon="2.40881">
        <ele>265</ele>
        <time>2021-08-29T11:44:38Z</time>
      </trkpt>
      <trkpt lat="44.56171" lon="2.40881">
        <ele>266</ele>
        <time>2021-08-29T11:44:39Z</time>
      </trkpt>
      <trkpt lat="44.56165" lon="2.4088">
        <ele>265</ele>
        <time>2021-08-29T11:44:40Z</time>
      </trkpt>
      <trkpt lat="44.56155" lon="2.40879">
        <ele>264</ele>
        <time>2021-08-29T11:44:43Z</time>
      </trkpt>
      <trkpt lat="44.5615" lon="2.40883">
        <ele>263</ele>
        <time>2021-08-29T11:44:52Z</time>
      </trkpt>
      <trkpt lat="44.56147" lon="2.4089">
        <ele>262</ele>
        <time>2021-08-29T11:46:17Z</time>
      </trkpt>
      <trkpt lat="44.56142" lon="2.40889">
        <ele>258</ele>
        <time>2021-08-29T11:47:08Z</time>
      </trkpt>
      <trkpt lat="44.5609" lon="2.40858">
        <ele>255</ele>
        <time>2021-08-29T11:47:24Z</time>
      </trkpt>
      <trkpt lat="44.56073" lon="2.40855">
        <ele>255</ele>
        <time>2021-08-29T11:47:28Z</time>
      </trkpt>
      <trkpt lat="44.56047" lon="2.40858">
        <ele>257</ele>
        <time>2021-08-29T11:47:34Z</time>
      </trkpt>
      <trkpt lat="44.56" lon="2.40884">
        <ele>255</ele>
        <time>2021-08-29T11:47:46Z</time>
      </trkpt>
      <trkpt lat="44.55974" lon="2.40904">
        <ele>251</ele>
        <time>2021-08-29T11:47:53Z</time>
      </trkpt>
      <trkpt lat="44.55949" lon="2.40919">
        <ele>248</ele>
        <time>2021-08-29T11:47:59Z</time>
      </trkpt>
      <trkpt lat="44.55928" lon="2.40936">
        <ele>249</ele>
        <time>2021-08-29T11:48:04Z</time>
      </trkpt>
      <trkpt lat="44.55897" lon="2.40954">
        <ele>242</ele>
        <time>2021-08-29T11:48:11Z</time>
      </trkpt>
      <trkpt lat="44.55841" lon="2.4099">
        <ele>241</ele>
        <time>2021-08-29T11:48:22Z</time>
      </trkpt>
      <trkpt lat="44.55674" lon="2.41032">
        <ele>239</ele>
        <time>2021-08-29T11:48:52Z</time>
      </trkpt>
      <trkpt lat="44.55518" lon="2.41068">
        <ele>237</ele>
        <time>2021-08-29T11:49:22Z</time>
      </trkpt>
      <trkpt lat="44.55364" lon="2.41104">
        <ele>230</ele>
        <time>2021-08-29T11:49:52Z</time>
      </trkpt>
      <trkpt lat="44.55335" lon="2.41107">
        <ele>230</ele>
        <time>2021-08-29T11:49:58Z</time>
      </trkpt>
      <trkpt lat="44.55271" lon="2.41096">
        <ele>228</ele>
        <time>2021-08-29T11:50:13Z</time>
      </trkpt>
      <trkpt lat="44.55262" lon="2.41094">
        <ele>228</ele>
        <time>2021-08-29T11:50:16Z</time>
      </trkpt>
      <trkpt lat="44.55258" lon="2.41091">
        <ele>229</ele>
        <time>2021-08-29T11:50:18Z</time>
      </trkpt>
      <trkpt lat="44.5525" lon="2.41089">
        <ele>233</ele>
        <time>2021-08-29T11:50:20Z</time>
      </trkpt>
      <trkpt lat="44.55245" lon="2.41089">
        <ele>235</ele>
        <time>2021-08-29T11:51:00Z</time>
      </trkpt>
      <trkpt lat="44.55238" lon="2.41087">
        <ele>236</ele>
        <time>2021-08-29T11:51:02Z</time>
      </trkpt>
      <trkpt lat="44.55217" lon="2.41083">
        <ele>237</ele>
        <time>2021-08-29T11:51:08Z</time>
      </trkpt>
      <trkpt lat="44.55083" lon="2.41065">
        <ele>237</ele>
        <time>2021-08-29T11:51:37Z</time>
      </trkpt>
      <trkpt lat="44.54986" lon="2.41091">
        <ele>229</ele>
        <time>2021-08-29T11:51:56Z</time>
      </trkpt>
      <trkpt lat="44.54905" lon="2.41089">
        <ele>225</ele>
        <time>2021-08-29T11:52:12Z</time>
      </trkpt>
      <trkpt lat="44.54768" lon="2.41035">
        <ele>216</ele>
        <time>2021-08-29T11:52:42Z</time>
      </trkpt>
      <trkpt lat="44.54719" lon="2.41029">
        <ele>205</ele>
        <time>2021-08-29T11:52:54Z</time>
      </trkpt>
      <trkpt lat="44.54713" lon="2.41028">
        <ele>204</ele>
        <time>2021-08-29T11:52:56Z</time>
      </trkpt>
      <trkpt lat="44.54706" lon="2.41028">
        <ele>203</ele>
        <time>2021-08-29T11:52:59Z</time>
      </trkpt>
      <trkpt lat="44.547" lon="2.41032">
        <ele>203</ele>
        <time>2021-08-29T11:53:05Z</time>
      </trkpt>
      <trkpt lat="44.54695" lon="2.41033">
        <ele>203</ele>
        <time>2021-08-29T11:53:40Z</time>
      </trkpt>
      <trkpt lat="44.54685" lon="2.41028">
        <ele>205</ele>
        <time>2021-08-29T11:53:44Z</time>
      </trkpt>
      <trkpt lat="44.54679" lon="2.41025">
        <ele>206</ele>
        <time>2021-08-29T11:53:46Z</time>
      </trkpt>
      <trkpt lat="44.54649" lon="2.41022">
        <ele>210</ele>
        <time>2021-08-29T11:53:54Z</time>
      </trkpt>
      <trkpt lat="44.54632" lon="2.41019">
        <ele>214</ele>
        <time>2021-08-29T11:53:58Z</time>
      </trkpt>
      <trkpt lat="44.54616" lon="2.41015">
        <ele>217</ele>
        <time>2021-08-29T11:54:02Z</time>
      </trkpt>
      <trkpt lat="44.54611" lon="2.41013">
        <ele>217</ele>
        <time>2021-08-29T11:54:04Z</time>
      </trkpt>
      <trkpt lat="44.5461" lon="2.41006">
        <ele>220</ele>
        <time>2021-08-29T11:54:07Z</time>
      </trkpt>
      <trkpt lat="44.54607" lon="2.41012">
        <ele>225</ele>
        <time>2021-08-29T11:56:26Z</time>
      </trkpt>
      <trkpt lat="44.54604" lon="2.41019">
        <ele>225</ele>
        <time>2021-08-29T11:56:30Z</time>
      </trkpt>
      <trkpt lat="44.54602" lon="2.41025">
        <ele>224</ele>
        <time>2021-08-29T11:56:32Z</time>
      </trkpt>
      <trkpt lat="44.54598" lon="2.41041">
        <ele>224</ele>
        <time>2021-08-29T11:56:37Z</time>
      </trkpt>
      <trkpt lat="44.5458" lon="2.41113">
        <ele>224</ele>
        <time>2021-08-29T11:56:53Z</time>
      </trkpt>
      <trkpt lat="44.54579" lon="2.4112">
        <ele>224</ele>
        <time>2021-08-29T11:56:54Z</time>
      </trkpt>
      <trkpt lat="44.54576" lon="2.41133">
        <ele>221</ele>
        <time>2021-08-29T11:56:56Z</time>
      </trkpt>
      <trkpt lat="44.54574" lon="2.41145">
        <ele>219</ele>
        <time>2021-08-29T11:56:58Z</time>
      </trkpt>
      <trkpt lat="44.54538" lon="2.41278">
        <ele>212</ele>
        <time>2021-08-29T11:57:28Z</time>
      </trkpt>
      <trkpt lat="44.54534" lon="2.41286">
        <ele>211</ele>
        <time>2021-08-29T11:57:30Z</time>
      </trkpt>
      <trkpt lat="44.54529" lon="2.41314">
        <ele>209</ele>
        <time>2021-08-29T11:57:36Z</time>
      </trkpt>
      <trkpt lat="44.54511" lon="2.41371">
        <ele>210</ele>
        <time>2021-08-29T11:57:48Z</time>
      </trkpt>
      <trkpt lat="44.54508" lon="2.41381">
        <ele>213</ele>
        <time>2021-08-29T11:57:50Z</time>
      </trkpt>
      <trkpt lat="44.54497" lon="2.41425">
        <ele>220</ele>
        <time>2021-08-29T11:58:00Z</time>
      </trkpt>
      <trkpt lat="44.54494" lon="2.41433">
        <ele>223</ele>
        <time>2021-08-29T12:00:08Z</time>
      </trkpt>
      <trkpt lat="44.54491" lon="2.4144">
        <ele>223</ele>
        <time>2021-08-29T12:01:12Z</time>
      </trkpt>
      <trkpt lat="44.54495" lon="2.41473">
        <ele>225</ele>
        <time>2021-08-29T12:01:20Z</time>
      </trkpt>
      <trkpt lat="44.54527" lon="2.41569">
        <ele>232</ele>
        <time>2021-08-29T12:01:42Z</time>
      </trkpt>
      <trkpt lat="44.54528" lon="2.41577">
        <ele>232</ele>
        <time>2021-08-29T12:01:44Z</time>
      </trkpt>
      <trkpt lat="44.54529" lon="2.41605">
        <ele>235</ele>
        <time>2021-08-29T12:01:53Z</time>
      </trkpt>
      <trkpt lat="44.54529" lon="2.41613">
        <ele>236</ele>
        <time>2021-08-29T12:01:56Z</time>
      </trkpt>
      <trkpt lat="44.54515" lon="2.4164">
        <ele>238</ele>
        <time>2021-08-29T12:02:07Z</time>
      </trkpt>
      <trkpt lat="44.54512" lon="2.41645">
        <ele>239</ele>
        <time>2021-08-29T12:02:09Z</time>
      </trkpt>
      <trkpt lat="44.54508" lon="2.41651">
        <ele>240</ele>
        <time>2021-08-29T12:02:11Z</time>
      </trkpt>
      <trkpt lat="44.54469" lon="2.417">
        <ele>247</ele>
        <time>2021-08-29T12:02:40Z</time>
      </trkpt>
      <trkpt lat="44.54465" lon="2.41705">
        <ele>248</ele>
        <time>2021-08-29T12:02:43Z</time>
      </trkpt>
      <trkpt lat="44.54458" lon="2.41715">
        <ele>249</ele>
        <time>2021-08-29T12:02:49Z</time>
      </trkpt>
      <trkpt lat="44.54449" lon="2.41733">
        <ele>251</ele>
        <time>2021-08-29T12:02:58Z</time>
      </trkpt>
      <trkpt lat="44.54448" lon="2.41748">
        <ele>254</ele>
        <time>2021-08-29T12:03:04Z</time>
      </trkpt>
      <trkpt lat="44.54447" lon="2.41766">
        <ele>256</ele>
        <time>2021-08-29T12:03:10Z</time>
      </trkpt>
      <trkpt lat="44.54448" lon="2.41775">
        <ele>257</ele>
        <time>2021-08-29T12:03:13Z</time>
      </trkpt>
      <trkpt lat="44.54451" lon="2.41791">
        <ele>259</ele>
        <time>2021-08-29T12:03:19Z</time>
      </trkpt>
      <trkpt lat="44.54457" lon="2.41806">
        <ele>262</ele>
        <time>2021-08-29T12:03:27Z</time>
      </trkpt>
      <trkpt lat="44.54468" lon="2.41819">
        <ele>264</ele>
        <time>2021-08-29T12:03:36Z</time>
      </trkpt>
      <trkpt lat="44.54478" lon="2.41824">
        <ele>265</ele>
        <time>2021-08-29T12:03:42Z</time>
      </trkpt>
      <trkpt lat="44.54483" lon="2.41827">
        <ele>265</ele>
        <time>2021-08-29T12:03:45Z</time>
      </trkpt>
      <trkpt lat="44.54487" lon="2.4183">
        <ele>266</ele>
        <time>2021-08-29T12:03:48Z</time>
      </trkpt>
      <trkpt lat="44.54491" lon="2.41833">
        <ele>266</ele>
        <time>2021-08-29T12:03:51Z</time>
      </trkpt>
      <trkpt lat="44.54504" lon="2.41842">
        <ele>269</ele>
        <time>2021-08-29T12:04:00Z</time>
      </trkpt>
      <trkpt lat="44.54508" lon="2.41846">
        <ele>270</ele>
        <time>2021-08-29T12:04:03Z</time>
      </trkpt>
      <trkpt lat="44.54512" lon="2.41849">
        <ele>270</ele>
        <time>2021-08-29T12:04:06Z</time>
      </trkpt>
      <trkpt lat="44.5452" lon="2.41858">
        <ele>270</ele>
        <time>2021-08-29T12:04:11Z</time>
      </trkpt>
      <trkpt lat="44.54526" lon="2.41863">
        <ele>270</ele>
        <time>2021-08-29T12:04:14Z</time>
      </trkpt>
      <trkpt lat="44.54547" lon="2.41898">
        <ele>273</ele>
        <time>2021-08-29T12:04:33Z</time>
      </trkpt>
      <trkpt lat="44.54554" lon="2.41909">
        <ele>274</ele>
        <time>2021-08-29T12:04:39Z</time>
      </trkpt>
      <trkpt lat="44.54578" lon="2.41926">
        <ele>277</ele>
        <time>2021-08-29T12:04:54Z</time>
      </trkpt>
      <trkpt lat="44.54589" lon="2.41929">
        <ele>278</ele>
        <time>2021-08-29T12:05:00Z</time>
      </trkpt>
      <trkpt lat="44.54621" lon="2.41933">
        <ele>283</ele>
        <time>2021-08-29T12:05:15Z</time>
      </trkpt>
      <trkpt lat="44.54639" lon="2.41927">
        <ele>286</ele>
        <time>2021-08-29T12:05:24Z</time>
      </trkpt>
      <trkpt lat="44.54658" lon="2.41911">
        <ele>289</ele>
        <time>2021-08-29T12:05:35Z</time>
      </trkpt>
      <trkpt lat="44.54675" lon="2.41887">
        <ele>292</ele>
        <time>2021-08-29T12:05:47Z</time>
      </trkpt>
      <trkpt lat="44.54701" lon="2.4182">
        <ele>299</ele>
        <time>2021-08-29T12:06:17Z</time>
      </trkpt>
      <trkpt lat="44.54704" lon="2.41813">
        <ele>300</ele>
        <time>2021-08-29T12:06:20Z</time>
      </trkpt>
      <trkpt lat="44.54706" lon="2.41807">
        <ele>300</ele>
        <time>2021-08-29T12:06:22Z</time>
      </trkpt>
      <trkpt lat="44.54719" lon="2.41793">
        <ele>303</ele>
        <time>2021-08-29T12:06:30Z</time>
      </trkpt>
      <trkpt lat="44.54735" lon="2.41783">
        <ele>304</ele>
        <time>2021-08-29T12:06:39Z</time>
      </trkpt>
      <trkpt lat="44.54775" lon="2.41777">
        <ele>309</ele>
        <time>2021-08-29T12:06:58Z</time>
      </trkpt>
      <trkpt lat="44.54794" lon="2.41767">
        <ele>311</ele>
        <time>2021-08-29T12:07:06Z</time>
      </trkpt>
      <trkpt lat="44.54808" lon="2.41754">
        <ele>312</ele>
        <time>2021-08-29T12:07:14Z</time>
      </trkpt>
      <trkpt lat="44.54849" lon="2.41722">
        <ele>316</ele>
        <time>2021-08-29T12:07:35Z</time>
      </trkpt>
      <trkpt lat="44.54855" lon="2.41721">
        <ele>316</ele>
        <time>2021-08-29T12:07:38Z</time>
      </trkpt>
      <trkpt lat="44.54862" lon="2.41723">
        <ele>317</ele>
        <time>2021-08-29T12:07:41Z</time>
      </trkpt>
      <trkpt lat="44.54867" lon="2.41729">
        <ele>317</ele>
        <time>2021-08-29T12:07:44Z</time>
      </trkpt>
      <trkpt lat="44.5487" lon="2.41735">
        <ele>318</ele>
        <time>2021-08-29T12:07:46Z</time>
      </trkpt>
      <trkpt lat="44.5487" lon="2.41782">
        <ele>319</ele>
        <time>2021-08-29T12:07:58Z</time>
      </trkpt>
      <trkpt lat="44.54868" lon="2.41795">
        <ele>320</ele>
        <time>2021-08-29T12:08:01Z</time>
      </trkpt>
      <trkpt lat="44.54865" lon="2.41908">
        <ele>326</ele>
        <time>2021-08-29T12:08:23Z</time>
      </trkpt>
      <trkpt lat="44.54859" lon="2.41968">
        <ele>327</ele>
        <time>2021-08-29T12:08:35Z</time>
      </trkpt>
      <trkpt lat="44.54864" lon="2.42027">
        <ele>328</ele>
        <time>2021-08-29T12:08:47Z</time>
      </trkpt>
      <trkpt lat="44.54887" lon="2.42105">
        <ele>331</ele>
        <time>2021-08-29T12:09:05Z</time>
      </trkpt>
      <trkpt lat="44.54918" lon="2.42167">
        <ele>333</ele>
        <time>2021-08-29T12:09:25Z</time>
      </trkpt>
      <trkpt lat="44.5497" lon="2.42254">
        <ele>335</ele>
        <time>2021-08-29T12:09:55Z</time>
      </trkpt>
      <trkpt lat="44.55038" lon="2.4235">
        <ele>336</ele>
        <time>2021-08-29T12:10:27Z</time>
      </trkpt>
      <trkpt lat="44.55105" lon="2.42436">
        <ele>338</ele>
        <time>2021-08-29T12:10:59Z</time>
      </trkpt>
      <trkpt lat="44.55125" lon="2.42466">
        <ele>337</ele>
        <time>2021-08-29T12:11:11Z</time>
      </trkpt>
      <trkpt lat="44.55135" lon="2.42495">
        <ele>336</ele>
        <time>2021-08-29T12:11:19Z</time>
      </trkpt>
      <trkpt lat="44.55151" lon="2.4259">
        <ele>342</ele>
        <time>2021-08-29T12:11:46Z</time>
      </trkpt>
      <trkpt lat="44.55153" lon="2.42596">
        <ele>343</ele>
        <time>2021-08-29T12:11:48Z</time>
      </trkpt>
      <trkpt lat="44.55181" lon="2.4264">
        <ele>346</ele>
        <time>2021-08-29T12:12:04Z</time>
      </trkpt>
      <trkpt lat="44.55199" lon="2.42668">
        <ele>347</ele>
        <time>2021-08-29T12:12:14Z</time>
      </trkpt>
      <trkpt lat="44.55207" lon="2.42685">
        <ele>349</ele>
        <time>2021-08-29T12:12:20Z</time>
      </trkpt>
      <trkpt lat="44.55214" lon="2.42713">
        <ele>351</ele>
        <time>2021-08-29T12:12:28Z</time>
      </trkpt>
      <trkpt lat="44.5522" lon="2.42743">
        <ele>353</ele>
        <time>2021-08-29T12:12:36Z</time>
      </trkpt>
      <trkpt lat="44.55216" lon="2.42784">
        <ele>358</ele>
        <time>2021-08-29T12:12:48Z</time>
      </trkpt>
      <trkpt lat="44.55207" lon="2.42816">
        <ele>362</ele>
        <time>2021-08-29T12:12:58Z</time>
      </trkpt>
      <trkpt lat="44.55203" lon="2.42828">
        <ele>364</ele>
        <time>2021-08-29T12:13:02Z</time>
      </trkpt>
      <trkpt lat="44.55201" lon="2.42868">
        <ele>367</ele>
        <time>2021-08-29T12:13:12Z</time>
      </trkpt>
      <trkpt lat="44.55203" lon="2.42926">
        <ele>368</ele>
        <time>2021-08-29T12:13:28Z</time>
      </trkpt>
      <trkpt lat="44.55204" lon="2.42934">
        <ele>368</ele>
        <time>2021-08-29T12:13:30Z</time>
      </trkpt>
      <trkpt lat="44.55205" lon="2.42943">
        <ele>368</ele>
        <time>2021-08-29T12:13:33Z</time>
      </trkpt>
      <trkpt lat="44.55216" lon="2.43021">
        <ele>371</ele>
        <time>2021-08-29T12:13:55Z</time>
      </trkpt>
      <trkpt lat="44.55219" lon="2.43071">
        <ele>373</ele>
        <time>2021-08-29T12:14:09Z</time>
      </trkpt>
      <trkpt lat="44.55228" lon="2.431">
        <ele>374</ele>
        <time>2021-08-29T12:14:17Z</time>
      </trkpt>
      <trkpt lat="44.55235" lon="2.4311">
        <ele>375</ele>
        <time>2021-08-29T12:14:21Z</time>
      </trkpt>
      <trkpt lat="44.55239" lon="2.43114">
        <ele>376</ele>
        <time>2021-08-29T12:14:23Z</time>
      </trkpt>
      <trkpt lat="44.55248" lon="2.43123">
        <ele>377</ele>
        <time>2021-08-29T12:14:28Z</time>
      </trkpt>
      <trkpt lat="44.55304" lon="2.43169">
        <ele>381</ele>
        <time>2021-08-29T12:14:59Z</time>
      </trkpt>
      <trkpt lat="44.55309" lon="2.43173">
        <ele>382</ele>
        <time>2021-08-29T12:15:03Z</time>
      </trkpt>
      <trkpt lat="44.55317" lon="2.43187">
        <ele>384</ele>
        <time>2021-08-29T12:15:10Z</time>
      </trkpt>
      <trkpt lat="44.55323" lon="2.43213">
        <ele>386</ele>
        <time>2021-08-29T12:15:19Z</time>
      </trkpt>
      <trkpt lat="44.55324" lon="2.43222">
        <ele>385</ele>
        <time>2021-08-29T12:15:22Z</time>
      </trkpt>
      <trkpt lat="44.55322" lon="2.43238">
        <ele>386</ele>
        <time>2021-08-29T12:15:28Z</time>
      </trkpt>
      <trkpt lat="44.55315" lon="2.43261">
        <ele>388</ele>
        <time>2021-08-29T12:15:37Z</time>
      </trkpt>
      <trkpt lat="44.55291" lon="2.43307">
        <ele>395</ele>
        <time>2021-08-29T12:15:57Z</time>
      </trkpt>
      <trkpt lat="44.55288" lon="2.43314">
        <ele>395</ele>
        <time>2021-08-29T12:16:00Z</time>
      </trkpt>
      <trkpt lat="44.55282" lon="2.43331">
        <ele>396</ele>
        <time>2021-08-29T12:16:06Z</time>
      </trkpt>
      <trkpt lat="44.55277" lon="2.43345">
        <ele>398</ele>
        <time>2021-08-29T12:16:12Z</time>
      </trkpt>
      <trkpt lat="44.5528" lon="2.43362">
        <ele>399</ele>
        <time>2021-08-29T12:16:18Z</time>
      </trkpt>
      <trkpt lat="44.55286" lon="2.43374">
        <ele>401</ele>
        <time>2021-08-29T12:16:23Z</time>
      </trkpt>
      <trkpt lat="44.55295" lon="2.43383">
        <ele>402</ele>
        <time>2021-08-29T12:16:28Z</time>
      </trkpt>
      <trkpt lat="44.55308" lon="2.4339">
        <ele>404</ele>
        <time>2021-08-29T12:16:34Z</time>
      </trkpt>
      <trkpt lat="44.55313" lon="2.43394">
        <ele>404</ele>
        <time>2021-08-29T12:16:37Z</time>
      </trkpt>
      <trkpt lat="44.55318" lon="2.43398">
        <ele>403</ele>
        <time>2021-08-29T12:16:40Z</time>
      </trkpt>
      <trkpt lat="44.55323" lon="2.43399">
        <ele>404</ele>
        <time>2021-08-29T12:17:16Z</time>
      </trkpt>
      <trkpt lat="44.55338" lon="2.43407">
        <ele>407</ele>
        <time>2021-08-29T12:17:22Z</time>
      </trkpt>
      <trkpt lat="44.55343" lon="2.43409">
        <ele>407</ele>
        <time>2021-08-29T12:17:24Z</time>
      </trkpt>
      <trkpt lat="44.55363" lon="2.43422">
        <ele>406</ele>
        <time>2021-08-29T12:17:32Z</time>
      </trkpt>
      <trkpt lat="44.55368" lon="2.43426">
        <ele>406</ele>
        <time>2021-08-29T12:17:34Z</time>
      </trkpt>
      <trkpt lat="44.55419" lon="2.43461">
        <ele>407</ele>
        <time>2021-08-29T12:17:54Z</time>
      </trkpt>
      <trkpt lat="44.5544" lon="2.43478">
        <ele>406</ele>
        <time>2021-08-29T12:18:03Z</time>
      </trkpt>
      <trkpt lat="44.55458" lon="2.43489">
        <ele>403</ele>
        <time>2021-08-29T12:18:10Z</time>
      </trkpt>
      <trkpt lat="44.55467" lon="2.43495">
        <ele>403</ele>
        <time>2021-08-29T12:18:14Z</time>
      </trkpt>
      <trkpt lat="44.55494" lon="2.43513">
        <ele>398</ele>
        <time>2021-08-29T12:18:24Z</time>
      </trkpt>
      <trkpt lat="44.55501" lon="2.4352">
        <ele>398</ele>
        <time>2021-08-29T12:18:27Z</time>
      </trkpt>
      <trkpt lat="44.55505" lon="2.43534">
        <ele>398</ele>
        <time>2021-08-29T12:18:30Z</time>
      </trkpt>
      <trkpt lat="44.55506" lon="2.4355">
        <ele>399</ele>
        <time>2021-08-29T12:18:33Z</time>
      </trkpt>
      <trkpt lat="44.55501" lon="2.4356">
        <ele>401</ele>
        <time>2021-08-29T12:18:36Z</time>
      </trkpt>
      <trkpt lat="44.55496" lon="2.43563">
        <ele>401</ele>
        <time>2021-08-29T12:18:38Z</time>
      </trkpt>
      <trkpt lat="44.55441" lon="2.4357">
        <ele>418</ele>
        <time>2021-08-29T12:18:58Z</time>
      </trkpt>
      <trkpt lat="44.5536" lon="2.43591">
        <ele>431</ele>
        <time>2021-08-29T12:19:26Z</time>
      </trkpt>
      <trkpt lat="44.55355" lon="2.43593">
        <ele>431</ele>
        <time>2021-08-29T12:19:28Z</time>
      </trkpt>
      <trkpt lat="44.55275" lon="2.43618">
        <ele>435</ele>
        <time>2021-08-29T12:19:58Z</time>
      </trkpt>
      <trkpt lat="44.5527" lon="2.43619">
        <ele>436</ele>
        <time>2021-08-29T12:20:00Z</time>
      </trkpt>
      <trkpt lat="44.55263" lon="2.43618">
        <ele>437</ele>
        <time>2021-08-29T12:20:03Z</time>
      </trkpt>
      <trkpt lat="44.55242" lon="2.43625">
        <ele>441</ele>
        <time>2021-08-29T12:20:11Z</time>
      </trkpt>
      <trkpt lat="44.55237" lon="2.43628">
        <ele>442</ele>
        <time>2021-08-29T12:20:13Z</time>
      </trkpt>
      <trkpt lat="44.55226" lon="2.43644">
        <ele>443</ele>
        <time>2021-08-29T12:20:19Z</time>
      </trkpt>
      <trkpt lat="44.55221" lon="2.43663">
        <ele>444</ele>
        <time>2021-08-29T12:20:25Z</time>
      </trkpt>
      <trkpt lat="44.55211" lon="2.43723">
        <ele>445</ele>
        <time>2021-08-29T12:20:43Z</time>
      </trkpt>
      <trkpt lat="44.55214" lon="2.43764">
        <ele>445</ele>
        <time>2021-08-29T12:20:55Z</time>
      </trkpt>
      <trkpt lat="44.5522" lon="2.4382">
        <ele>450</ele>
        <time>2021-08-29T12:21:14Z</time>
      </trkpt>
      <trkpt lat="44.55222" lon="2.43877">
        <ele>453</ele>
        <time>2021-08-29T12:21:31Z</time>
      </trkpt>
      <trkpt lat="44.55221" lon="2.43883">
        <ele>453</ele>
        <time>2021-08-29T12:21:33Z</time>
      </trkpt>
      <trkpt lat="44.5522" lon="2.43896">
        <ele>453</ele>
        <time>2021-08-29T12:21:37Z</time>
      </trkpt>
      <trkpt lat="44.55204" lon="2.43995">
        <ele>459</ele>
        <time>2021-08-29T12:22:09Z</time>
      </trkpt>
      <trkpt lat="44.55201" lon="2.44033">
        <ele>462</ele>
        <time>2021-08-29T12:22:21Z</time>
      </trkpt>
      <trkpt lat="44.55207" lon="2.44063">
        <ele>464</ele>
        <time>2021-08-29T12:22:30Z</time>
      </trkpt>
      <trkpt lat="44.55209" lon="2.44069">
        <ele>464</ele>
        <time>2021-08-29T12:22:32Z</time>
      </trkpt>
      <trkpt lat="44.55217" lon="2.44086">
        <ele>464</ele>
        <time>2021-08-29T12:22:38Z</time>
      </trkpt>
      <trkpt lat="44.55229" lon="2.44101">
        <ele>464</ele>
        <time>2021-08-29T12:22:45Z</time>
      </trkpt>
      <trkpt lat="44.55242" lon="2.44108">
        <ele>464</ele>
        <time>2021-08-29T12:22:51Z</time>
      </trkpt>
      <trkpt lat="44.553" lon="2.4412">
        <ele>468</ele>
        <time>2021-08-29T12:23:19Z</time>
      </trkpt>
      <trkpt lat="44.55306" lon="2.4412">
        <ele>468</ele>
        <time>2021-08-29T12:23:21Z</time>
      </trkpt>
      <trkpt lat="44.55311" lon="2.4412">
        <ele>468</ele>
        <time>2021-08-29T12:23:23Z</time>
      </trkpt>
      <trkpt lat="44.55317" lon="2.4412">
        <ele>469</ele>
        <time>2021-08-29T12:23:25Z</time>
      </trkpt>
      <trkpt lat="44.55321" lon="2.44119">
        <ele>469</ele>
        <time>2021-08-29T12:23:27Z</time>
      </trkpt>
      <trkpt lat="44.55326" lon="2.44119">
        <ele>469</ele>
        <time>2021-08-29T12:23:29Z</time>
      </trkpt>
      <trkpt lat="44.55332" lon="2.44119">
        <ele>470</ele>
        <time>2021-08-29T12:23:32Z</time>
      </trkpt>
      <trkpt lat="44.55338" lon="2.44119">
        <ele>470</ele>
        <time>2021-08-29T12:23:35Z</time>
      </trkpt>
      <trkpt lat="44.55343" lon="2.44117">
        <ele>470</ele>
        <time>2021-08-29T12:23:37Z</time>
      </trkpt>
      <trkpt lat="44.55374" lon="2.44099">
        <ele>475</ele>
        <time>2021-08-29T12:23:52Z</time>
      </trkpt>
      <trkpt lat="44.55436" lon="2.44152">
        <ele>487</ele>
        <time>2021-08-29T12:24:23Z</time>
      </trkpt>
      <trkpt lat="44.55491" lon="2.44208">
        <ele>488</ele>
        <time>2021-08-29T12:24:53Z</time>
      </trkpt>
      <trkpt lat="44.55554" lon="2.44268">
        <ele>482</ele>
        <time>2021-08-29T12:25:25Z</time>
      </trkpt>
      <trkpt lat="44.55564" lon="2.44293">
        <ele>485</ele>
        <time>2021-08-29T12:25:34Z</time>
      </trkpt>
      <trkpt lat="44.5556" lon="2.44326">
        <ele>488</ele>
        <time>2021-08-29T12:25:44Z</time>
      </trkpt>
      <trkpt lat="44.55505" lon="2.44381">
        <ele>487</ele>
        <time>2021-08-29T12:26:15Z</time>
      </trkpt>
      <trkpt lat="44.55469" lon="2.44449">
        <ele>493</ele>
        <time>2021-08-29T12:26:43Z</time>
      </trkpt>
      <trkpt lat="44.55455" lon="2.44535">
        <ele>501</ele>
        <time>2021-08-29T12:27:11Z</time>
      </trkpt>
      <trkpt lat="44.55433" lon="2.44553">
        <ele>504</ele>
        <time>2021-08-29T12:27:21Z</time>
      </trkpt>
      <trkpt lat="44.55397" lon="2.44569">
        <ele>509</ele>
        <time>2021-08-29T12:27:37Z</time>
      </trkpt>
      <trkpt lat="44.5537" lon="2.44594">
        <ele>511</ele>
        <time>2021-08-29T12:27:49Z</time>
      </trkpt>
      <trkpt lat="44.55335" lon="2.44632">
        <ele>519</ele>
        <time>2021-08-29T12:28:07Z</time>
      </trkpt>
      <trkpt lat="44.55331" lon="2.44645">
        <ele>520</ele>
        <time>2021-08-29T12:28:11Z</time>
      </trkpt>
      <trkpt lat="44.55329" lon="2.44659">
        <ele>520</ele>
        <time>2021-08-29T12:28:15Z</time>
      </trkpt>
      <trkpt lat="44.55332" lon="2.44674">
        <ele>521</ele>
        <time>2021-08-29T12:28:20Z</time>
      </trkpt>
      <trkpt lat="44.55336" lon="2.44686">
        <ele>521</ele>
        <time>2021-08-29T12:28:24Z</time>
      </trkpt>
      <trkpt lat="44.55345" lon="2.44698">
        <ele>521</ele>
        <time>2021-08-29T12:28:30Z</time>
      </trkpt>
      <trkpt lat="44.55406" lon="2.44751">
        <ele>525</ele>
        <time>2021-08-29T12:29:02Z</time>
      </trkpt>
      <trkpt lat="44.5543" lon="2.44777">
        <ele>523</ele>
        <time>2021-08-29T12:29:14Z</time>
      </trkpt>
      <trkpt lat="44.55441" lon="2.44794">
        <ele>522</ele>
        <time>2021-08-29T12:29:21Z</time>
      </trkpt>
      <trkpt lat="44.55447" lon="2.44808">
        <ele>521</ele>
        <time>2021-08-29T12:29:26Z</time>
      </trkpt>
      <trkpt lat="44.55449" lon="2.44821">
        <ele>522</ele>
        <time>2021-08-29T12:29:30Z</time>
      </trkpt>
      <trkpt lat="44.55448" lon="2.44842">
        <ele>524</ele>
        <time>2021-08-29T12:29:36Z</time>
      </trkpt>
      <trkpt lat="44.55439" lon="2.44869">
        <ele>524</ele>
        <time>2021-08-29T12:29:45Z</time>
      </trkpt>
      <trkpt lat="44.55398" lon="2.44929">
        <ele>532</ele>
        <time>2021-08-29T12:30:11Z</time>
      </trkpt>
      <trkpt lat="44.55371" lon="2.44959">
        <ele>536</ele>
        <time>2021-08-29T12:30:27Z</time>
      </trkpt>
      <trkpt lat="44.55344" lon="2.44992">
        <ele>542</ele>
        <time>2021-08-29T12:30:42Z</time>
      </trkpt>
      <trkpt lat="44.5532" lon="2.45058">
        <ele>543</ele>
        <time>2021-08-29T12:31:05Z</time>
      </trkpt>
      <trkpt lat="44.55313" lon="2.45092">
        <ele>545</ele>
        <time>2021-08-29T12:31:16Z</time>
      </trkpt>
      <trkpt lat="44.55311" lon="2.45102">
        <ele>546</ele>
        <time>2021-08-29T12:31:19Z</time>
      </trkpt>
      <trkpt lat="44.55311" lon="2.45109">
        <ele>547</ele>
        <time>2021-08-29T12:31:21Z</time>
      </trkpt>
      <trkpt lat="44.55306" lon="2.45212">
        <ele>556</ele>
        <time>2021-08-29T12:31:53Z</time>
      </trkpt>
      <trkpt lat="44.55305" lon="2.45325">
        <ele>564</ele>
        <time>2021-08-29T12:32:25Z</time>
      </trkpt>
      <trkpt lat="44.55298" lon="2.45411">
        <ele>569</ele>
        <time>2021-08-29T12:32:49Z</time>
      </trkpt>
      <trkpt lat="44.55298" lon="2.45465">
        <ele>572</ele>
        <time>2021-08-29T12:33:03Z</time>
      </trkpt>
      <trkpt lat="44.55291" lon="2.45493">
        <ele>572</ele>
        <time>2021-08-29T12:33:11Z</time>
      </trkpt>
      <trkpt lat="44.55276" lon="2.45524">
        <ele>574</ele>
        <time>2021-08-29T12:33:21Z</time>
      </trkpt>
      <trkpt lat="44.55236" lon="2.45578">
        <ele>577</ele>
        <time>2021-08-29T12:33:43Z</time>
      </trkpt>
      <trkpt lat="44.55227" lon="2.45585">
        <ele>577</ele>
        <time>2021-08-29T12:33:47Z</time>
      </trkpt>
      <trkpt lat="44.55186" lon="2.45598">
        <ele>575</ele>
        <time>2021-08-29T12:34:03Z</time>
      </trkpt>
      <trkpt lat="44.55177" lon="2.45606">
        <ele>574</ele>
        <time>2021-08-29T12:34:07Z</time>
      </trkpt>
      <trkpt lat="44.55165" lon="2.45622">
        <ele>573</ele>
        <time>2021-08-29T12:34:13Z</time>
      </trkpt>
      <trkpt lat="44.5516" lon="2.45635">
        <ele>573</ele>
        <time>2021-08-29T12:34:17Z</time>
      </trkpt>
      <trkpt lat="44.55157" lon="2.45659">
        <ele>573</ele>
        <time>2021-08-29T12:34:23Z</time>
      </trkpt>
      <trkpt lat="44.5516" lon="2.45711">
        <ele>575</ele>
        <time>2021-08-29T12:34:37Z</time>
      </trkpt>
      <trkpt lat="44.55163" lon="2.45733">
        <ele>576</ele>
        <time>2021-08-29T12:34:43Z</time>
      </trkpt>
      <trkpt lat="44.55168" lon="2.45747">
        <ele>576</ele>
        <time>2021-08-29T12:34:47Z</time>
      </trkpt>
      <trkpt lat="44.55176" lon="2.4577">
        <ele>576</ele>
        <time>2021-08-29T12:34:53Z</time>
      </trkpt>
      <trkpt lat="44.55179" lon="2.45778">
        <ele>577</ele>
        <time>2021-08-29T12:34:55Z</time>
      </trkpt>
      <trkpt lat="44.55181" lon="2.45786">
        <ele>577</ele>
        <time>2021-08-29T12:34:57Z</time>
      </trkpt>
      <trkpt lat="44.55182" lon="2.45803">
        <ele>577</ele>
        <time>2021-08-29T12:35:01Z</time>
      </trkpt>
      <trkpt lat="44.55181" lon="2.4581">
        <ele>577</ele>
        <time>2021-08-29T12:35:03Z</time>
      </trkpt>
      <trkpt lat="44.55171" lon="2.45829">
        <ele>575</ele>
        <time>2021-08-29T12:35:09Z</time>
      </trkpt>
      <trkpt lat="44.55135" lon="2.45875">
        <ele>580</ele>
        <time>2021-08-29T12:35:25Z</time>
      </trkpt>
      <trkpt lat="44.55125" lon="2.45897">
        <ele>582</ele>
        <time>2021-08-29T12:35:31Z</time>
      </trkpt>
      <trkpt lat="44.5512" lon="2.45912">
        <ele>582</ele>
        <time>2021-08-29T12:35:35Z</time>
      </trkpt>
      <trkpt lat="44.55119" lon="2.45928">
        <ele>583</ele>
        <time>2021-08-29T12:35:39Z</time>
      </trkpt>
      <trkpt lat="44.55124" lon="2.4595">
        <ele>585</ele>
        <time>2021-08-29T12:35:45Z</time>
      </trkpt>
      <trkpt lat="44.55129" lon="2.45963">
        <ele>586</ele>
        <time>2021-08-29T12:35:49Z</time>
      </trkpt>
      <trkpt lat="44.55143" lon="2.46012">
        <ele>588</ele>
        <time>2021-08-29T12:36:03Z</time>
      </trkpt>
      <trkpt lat="44.55182" lon="2.46078">
        <ele>588</ele>
        <time>2021-08-29T12:36:25Z</time>
      </trkpt>
      <trkpt lat="44.55246" lon="2.46161">
        <ele>588</ele>
        <time>2021-08-29T12:36:56Z</time>
      </trkpt>
      <trkpt lat="44.5529" lon="2.46208">
        <ele>590</ele>
        <time>2021-08-29T12:37:14Z</time>
      </trkpt>
      <trkpt lat="44.55305" lon="2.46228">
        <ele>590</ele>
        <time>2021-08-29T12:37:22Z</time>
      </trkpt>
      <trkpt lat="44.55321" lon="2.46249">
        <ele>590</ele>
        <time>2021-08-29T12:37:30Z</time>
      </trkpt>
      <trkpt lat="44.55383" lon="2.46336">
        <ele>597</ele>
        <time>2021-08-29T12:38:00Z</time>
      </trkpt>
      <trkpt lat="44.55394" lon="2.46365">
        <ele>597</ele>
        <time>2021-08-29T12:38:06Z</time>
      </trkpt>
      <trkpt lat="44.55397" lon="2.46398">
        <ele>600</ele>
        <time>2021-08-29T12:38:16Z</time>
      </trkpt>
      <trkpt lat="44.55392" lon="2.4642">
        <ele>601</ele>
        <time>2021-08-29T12:38:23Z</time>
      </trkpt>
      <trkpt lat="44.55392" lon="2.46419">
        <ele>600</ele>
        <time>2021-08-29T12:40:12Z</time>
      </trkpt>
      <trkpt lat="44.55394" lon="2.46426">
        <ele>601</ele>
        <time>2021-08-29T12:40:24Z</time>
      </trkpt>
      <trkpt lat="44.55353" lon="2.46541">
        <ele>606</ele>
        <time>2021-08-29T12:40:50Z</time>
      </trkpt>
      <trkpt lat="44.55348" lon="2.46639">
        <ele>607</ele>
        <time>2021-08-29T12:41:06Z</time>
      </trkpt>
      <trkpt lat="44.55348" lon="2.4685">
        <ele>604</ele>
        <time>2021-08-29T12:41:36Z</time>
      </trkpt>
      <trkpt lat="44.55344" lon="2.47065">
        <ele>606</ele>
        <time>2021-08-29T12:42:07Z</time>
      </trkpt>
      <trkpt lat="44.55343" lon="2.47262">
        <ele>607</ele>
        <time>2021-08-29T12:42:38Z</time>
      </trkpt>
      <trkpt lat="44.55341" lon="2.4744">
        <ele>607</ele>
        <time>2021-08-29T12:43:08Z</time>
      </trkpt>
      <trkpt lat="44.55342" lon="2.47497">
        <ele>609</ele>
        <time>2021-08-29T12:43:18Z</time>
      </trkpt>
      <trkpt lat="44.55351" lon="2.47531">
        <ele>609</ele>
        <time>2021-08-29T12:43:24Z</time>
      </trkpt>
      <trkpt lat="44.55425" lon="2.47687">
        <ele>608</ele>
        <time>2021-08-29T12:43:48Z</time>
      </trkpt>
      <trkpt lat="44.55428" lon="2.47705">
        <ele>607</ele>
        <time>2021-08-29T12:43:50Z</time>
      </trkpt>
      <trkpt lat="44.55428" lon="2.47743">
        <ele>605</ele>
        <time>2021-08-29T12:43:54Z</time>
      </trkpt>
      <trkpt lat="44.55375" lon="2.48009">
        <ele>591</ele>
        <time>2021-08-29T12:44:22Z</time>
      </trkpt>
      <trkpt lat="44.55396" lon="2.48211">
        <ele>596</ele>
        <time>2021-08-29T12:44:53Z</time>
      </trkpt>
      <trkpt lat="44.5542" lon="2.48359">
        <ele>595</ele>
        <time>2021-08-29T12:45:18Z</time>
      </trkpt>
      <trkpt lat="44.55461" lon="2.48494">
        <ele>595</ele>
        <time>2021-08-29T12:45:36Z</time>
      </trkpt>
      <trkpt lat="44.55493" lon="2.48569">
        <ele>598</ele>
        <time>2021-08-29T12:45:51Z</time>
      </trkpt>
      <trkpt lat="44.55496" lon="2.48578">
        <ele>599</ele>
        <time>2021-08-29T12:45:53Z</time>
      </trkpt>
      <trkpt lat="44.55499" lon="2.48594">
        <ele>600</ele>
        <time>2021-08-29T12:45:57Z</time>
      </trkpt>
      <trkpt lat="44.55505" lon="2.4864">
        <ele>603</ele>
        <time>2021-08-29T12:46:09Z</time>
      </trkpt>
      <trkpt lat="44.55505" lon="2.48661">
        <ele>603</ele>
        <time>2021-08-29T12:46:15Z</time>
      </trkpt>
      <trkpt lat="44.55511" lon="2.48753">
        <ele>602</ele>
        <time>2021-08-29T12:46:42Z</time>
      </trkpt>
      <trkpt lat="44.55511" lon="2.4876">
        <ele>602</ele>
        <time>2021-08-29T12:46:57Z</time>
      </trkpt>
      <trkpt lat="44.55506" lon="2.48767">
        <ele>602</ele>
        <time>2021-08-29T12:47:00Z</time>
      </trkpt>
      <trkpt lat="44.55501" lon="2.48769">
        <ele>602</ele>
        <time>2021-08-29T12:47:02Z</time>
      </trkpt>
      <trkpt lat="44.55492" lon="2.48769">
        <ele>602</ele>
        <time>2021-08-29T12:47:06Z</time>
      </trkpt>
      <trkpt lat="44.55492" lon="2.48771">
        <ele>602</ele>
        <time>2021-08-29T12:49:21Z</time>
      </trkpt>
      <trkpt lat="44.55502" lon="2.4877">
        <ele>604</ele>
        <time>2021-08-29T12:49:31Z</time>
      </trkpt>
      <trkpt lat="44.55502" lon="2.48768">
        <ele>607</ele>
        <time>2021-08-29T12:50:09Z</time>
      </trkpt>
      <trkpt lat="44.55506" lon="2.48769">
        <ele>610</ele>
        <time>2021-08-29T12:55:21Z</time>
      </trkpt>
      <trkpt lat="44.55509" lon="2.48775">
        <ele>610</ele>
        <time>2021-08-29T12:55:24Z</time>
      </trkpt>
      <trkpt lat="44.55512" lon="2.48782">
        <ele>608</ele>
        <time>2021-08-29T12:55:28Z</time>
      </trkpt>
      <trkpt lat="44.55513" lon="2.48798">
        <ele>608</ele>
        <time>2021-08-29T12:55:33Z</time>
      </trkpt>
      <trkpt lat="44.55514" lon="2.48807">
        <ele>608</ele>
        <time>2021-08-29T12:55:35Z</time>
      </trkpt>
      <trkpt lat="44.55515" lon="2.48818">
        <ele>608</ele>
        <time>2021-08-29T12:55:37Z</time>
      </trkpt>
      <trkpt lat="44.55592" lon="2.48971">
        <ele>603</ele>
        <time>2021-08-29T12:56:07Z</time>
      </trkpt>
      <trkpt lat="44.55658" lon="2.49054">
        <ele>602</ele>
        <time>2021-08-29T12:56:24Z</time>
      </trkpt>
      <trkpt lat="44.55813" lon="2.49155">
        <ele>594</ele>
        <time>2021-08-29T12:56:55Z</time>
      </trkpt>
      <trkpt lat="44.5587" lon="2.49192">
        <ele>591</ele>
        <time>2021-08-29T12:57:03Z</time>
      </trkpt>
      <trkpt lat="44.55887" lon="2.49215">
        <ele>590</ele>
        <time>2021-08-29T12:57:06Z</time>
      </trkpt>
      <trkpt lat="44.55962" lon="2.49368">
        <ele>585</ele>
        <time>2021-08-29T12:57:22Z</time>
      </trkpt>
      <trkpt lat="44.56066" lon="2.49525">
        <ele>583</ele>
        <time>2021-08-29T12:57:53Z</time>
      </trkpt>
      <trkpt lat="44.56123" lon="2.4963">
        <ele>582</ele>
        <time>2021-08-29T12:58:11Z</time>
      </trkpt>
      <trkpt lat="44.5619" lon="2.49784">
        <ele>586</ele>
        <time>2021-08-29T12:58:43Z</time>
      </trkpt>
      <trkpt lat="44.56208" lon="2.49853">
        <ele>588</ele>
        <time>2021-08-29T12:58:59Z</time>
      </trkpt>
      <trkpt lat="44.56213" lon="2.50002">
        <ele>591</ele>
        <time>2021-08-29T12:59:31Z</time>
      </trkpt>
      <trkpt lat="44.56224" lon="2.50113">
        <ele>595</ele>
        <time>2021-08-29T12:59:55Z</time>
      </trkpt>
      <trkpt lat="44.56273" lon="2.50263">
        <ele>595</ele>
        <time>2021-08-29T13:00:25Z</time>
      </trkpt>
      <trkpt lat="44.56364" lon="2.50412">
        <ele>592</ele>
        <time>2021-08-29T13:00:56Z</time>
      </trkpt>
      <trkpt lat="44.5644" lon="2.50523">
        <ele>593</ele>
        <time>2021-08-29T13:01:28Z</time>
      </trkpt>
      <trkpt lat="44.56504" lon="2.50637">
        <ele>593</ele>
        <time>2021-08-29T13:01:58Z</time>
      </trkpt>
      <trkpt lat="44.56523" lon="2.50673">
        <ele>594</ele>
        <time>2021-08-29T13:02:06Z</time>
      </trkpt>
      <trkpt lat="44.5656" lon="2.50773">
        <ele>600</ele>
        <time>2021-08-29T13:02:36Z</time>
      </trkpt>
      <trkpt lat="44.56586" lon="2.50824">
        <ele>601</ele>
        <time>2021-08-29T13:02:50Z</time>
      </trkpt>
      <trkpt lat="44.56627" lon="2.50871">
        <ele>601</ele>
        <time>2021-08-29T13:03:06Z</time>
      </trkpt>
      <trkpt lat="44.56674" lon="2.50908">
        <ele>601</ele>
        <time>2021-08-29T13:03:22Z</time>
      </trkpt>
      <trkpt lat="44.56759" lon="2.50957">
        <ele>602</ele>
        <time>2021-08-29T13:03:46Z</time>
      </trkpt>
      <trkpt lat="44.56853" lon="2.51061">
        <ele>601</ele>
        <time>2021-08-29T13:04:16Z</time>
      </trkpt>
      <trkpt lat="44.56918" lon="2.51142">
        <ele>603</ele>
        <time>2021-08-29T13:04:42Z</time>
      </trkpt>
      <trkpt lat="44.56977" lon="2.51241">
        <ele>610</ele>
        <time>2021-08-29T13:05:14Z</time>
      </trkpt>
      <trkpt lat="44.56999" lon="2.51277">
        <ele>613</ele>
        <time>2021-08-29T13:05:28Z</time>
      </trkpt>
      <trkpt lat="44.57026" lon="2.51305">
        <ele>613</ele>
        <time>2021-08-29T13:05:38Z</time>
      </trkpt>
      <trkpt lat="44.57058" lon="2.51321">
        <ele>613</ele>
        <time>2021-08-29T13:05:46Z</time>
      </trkpt>
      <trkpt lat="44.57094" lon="2.51328">
        <ele>613</ele>
        <time>2021-08-29T13:05:54Z</time>
      </trkpt>
      <trkpt lat="44.57135" lon="2.51324">
        <ele>612</ele>
        <time>2021-08-29T13:06:04Z</time>
      </trkpt>
      <trkpt lat="44.5716" lon="2.51327">
        <ele>613</ele>
        <time>2021-08-29T13:06:10Z</time>
      </trkpt>
      <trkpt lat="44.57254" lon="2.51381">
        <ele>618</ele>
        <time>2021-08-29T13:06:40Z</time>
      </trkpt>
      <trkpt lat="44.57259" lon="2.51385">
        <ele>618</ele>
        <time>2021-08-29T13:06:42Z</time>
      </trkpt>
      <trkpt lat="44.57263" lon="2.51394">
        <ele>618</ele>
        <time>2021-08-29T13:06:45Z</time>
      </trkpt>
      <trkpt lat="44.57264" lon="2.51401">
        <ele>619</ele>
        <time>2021-08-29T13:06:47Z</time>
      </trkpt>
      <trkpt lat="44.57262" lon="2.5142">
        <ele>620</ele>
        <time>2021-08-29T13:06:51Z</time>
      </trkpt>
      <trkpt lat="44.57256" lon="2.51438">
        <ele>622</ele>
        <time>2021-08-29T13:06:55Z</time>
      </trkpt>
      <trkpt lat="44.57218" lon="2.51492">
        <ele>624</ele>
        <time>2021-08-29T13:07:08Z</time>
      </trkpt>
      <trkpt lat="44.57144" lon="2.5158">
        <ele>622</ele>
        <time>2021-08-29T13:07:28Z</time>
      </trkpt>
      <trkpt lat="44.57124" lon="2.51594">
        <ele>621</ele>
        <time>2021-08-29T13:07:32Z</time>
      </trkpt>
      <trkpt lat="44.57113" lon="2.51598">
        <ele>621</ele>
        <time>2021-08-29T13:07:34Z</time>
      </trkpt>
      <trkpt lat="44.57098" lon="2.51595">
        <ele>621</ele>
        <time>2021-08-29T13:07:37Z</time>
      </trkpt>
      <trkpt lat="44.57065" lon="2.51576">
        <ele>620</ele>
        <time>2021-08-29T13:07:44Z</time>
      </trkpt>
      <trkpt lat="44.57054" lon="2.51574">
        <ele>619</ele>
        <time>2021-08-29T13:07:46Z</time>
      </trkpt>
      <trkpt lat="44.57038" lon="2.51576">
        <ele>618</ele>
        <time>2021-08-29T13:07:49Z</time>
      </trkpt>
      <trkpt lat="44.56994" lon="2.51598">
        <ele>614</ele>
        <time>2021-08-29T13:07:57Z</time>
      </trkpt>
      <trkpt lat="44.56981" lon="2.51609">
        <ele>615</ele>
        <time>2021-08-29T13:08:00Z</time>
      </trkpt>
      <trkpt lat="44.56974" lon="2.5162">
        <ele>614</ele>
        <time>2021-08-29T13:08:02Z</time>
      </trkpt>
      <trkpt lat="44.56941" lon="2.51735">
        <ele>609</ele>
        <time>2021-08-29T13:08:14Z</time>
      </trkpt>
      <trkpt lat="44.56936" lon="2.51759">
        <ele>609</ele>
        <time>2021-08-29T13:08:16Z</time>
      </trkpt>
      <trkpt lat="44.56944" lon="2.51872">
        <ele>608</ele>
        <time>2021-08-29T13:08:26Z</time>
      </trkpt>
      <trkpt lat="44.56928" lon="2.51967">
        <ele>608</ele>
        <time>2021-08-29T13:08:36Z</time>
      </trkpt>
      <trkpt lat="44.56912" lon="2.52012">
        <ele>610</ele>
        <time>2021-08-29T13:08:42Z</time>
      </trkpt>
      <trkpt lat="44.56872" lon="2.52077">
        <ele>613</ele>
        <time>2021-08-29T13:08:54Z</time>
      </trkpt>
      <trkpt lat="44.56854" lon="2.521">
        <ele>613</ele>
        <time>2021-08-29T13:08:59Z</time>
      </trkpt>
      <trkpt lat="44.56808" lon="2.52134">
        <ele>609</ele>
        <time>2021-08-29T13:09:06Z</time>
      </trkpt>
      <trkpt lat="44.56776" lon="2.52145">
        <ele>607</ele>
        <time>2021-08-29T13:09:10Z</time>
      </trkpt>
      <trkpt lat="44.56741" lon="2.52174">
        <ele>606</ele>
        <time>2021-08-29T13:09:15Z</time>
      </trkpt>
      <trkpt lat="44.56702" lon="2.52218">
        <ele>604</ele>
        <time>2021-08-29T13:09:21Z</time>
      </trkpt>
      <trkpt lat="44.56692" lon="2.52237">
        <ele>603</ele>
        <time>2021-08-29T13:09:23Z</time>
      </trkpt>
      <trkpt lat="44.56681" lon="2.52273">
        <ele>602</ele>
        <time>2021-08-29T13:09:26Z</time>
      </trkpt>
      <trkpt lat="44.56667" lon="2.52389">
        <ele>600</ele>
        <time>2021-08-29T13:09:37Z</time>
      </trkpt>
      <trkpt lat="44.56655" lon="2.52419">
        <ele>600</ele>
        <time>2021-08-29T13:09:41Z</time>
      </trkpt>
      <trkpt lat="44.56568" lon="2.52526">
        <ele>601</ele>
        <time>2021-08-29T13:10:02Z</time>
      </trkpt>
      <trkpt lat="44.56523" lon="2.52571">
        <ele>600</ele>
        <time>2021-08-29T13:10:12Z</time>
      </trkpt>
      <trkpt lat="44.56496" lon="2.52585">
        <ele>599</ele>
        <time>2021-08-29T13:10:17Z</time>
      </trkpt>
      <trkpt lat="44.56423" lon="2.526">
        <ele>596</ele>
        <time>2021-08-29T13:10:28Z</time>
      </trkpt>
      <trkpt lat="44.56283" lon="2.52694">
        <ele>591</ele>
        <time>2021-08-29T13:10:46Z</time>
      </trkpt>
      <trkpt lat="44.56268" lon="2.52708">
        <ele>591</ele>
        <time>2021-08-29T13:10:48Z</time>
      </trkpt>
      <trkpt lat="44.56231" lon="2.52772">
        <ele>591</ele>
        <time>2021-08-29T13:10:57Z</time>
      </trkpt>
      <trkpt lat="44.56197" lon="2.52817">
        <ele>591</ele>
        <time>2021-08-29T13:11:05Z</time>
      </trkpt>
      <trkpt lat="44.56192" lon="2.52826">
        <ele>591</ele>
        <time>2021-08-29T13:11:07Z</time>
      </trkpt>
      <trkpt lat="44.56178" lon="2.5287">
        <ele>594</ele>
        <time>2021-08-29T13:11:14Z</time>
      </trkpt>
      <trkpt lat="44.56102" lon="2.53009">
        <ele>600</ele>
        <time>2021-08-29T13:11:45Z</time>
      </trkpt>
      <trkpt lat="44.56092" lon="2.53024">
        <ele>599</ele>
        <time>2021-08-29T13:11:48Z</time>
      </trkpt>
      <trkpt lat="44.56088" lon="2.53039">
        <ele>599</ele>
        <time>2021-08-29T13:11:50Z</time>
      </trkpt>
      <trkpt lat="44.56087" lon="2.53057">
        <ele>598</ele>
        <time>2021-08-29T13:11:52Z</time>
      </trkpt>
      <trkpt lat="44.56089" lon="2.53077">
        <ele>597</ele>
        <time>2021-08-29T13:11:54Z</time>
      </trkpt>
      <trkpt lat="44.56096" lon="2.53095">
        <ele>597</ele>
        <time>2021-08-29T13:11:56Z</time>
      </trkpt>
      <trkpt lat="44.56116" lon="2.5312">
        <ele>594</ele>
        <time>2021-08-29T13:12:00Z</time>
      </trkpt>
      <trkpt lat="44.56182" lon="2.53187">
        <ele>589</ele>
        <time>2021-08-29T13:12:10Z</time>
      </trkpt>
      <trkpt lat="44.56188" lon="2.53196">
        <ele>588</ele>
        <time>2021-08-29T13:12:11Z</time>
      </trkpt>
      <trkpt lat="44.56201" lon="2.53238">
        <ele>585</ele>
        <time>2021-08-29T13:12:15Z</time>
      </trkpt>
      <trkpt lat="44.56195" lon="2.53332">
        <ele>580</ele>
        <time>2021-08-29T13:12:23Z</time>
      </trkpt>
      <trkpt lat="44.56192" lon="2.53342">
        <ele>580</ele>
        <time>2021-08-29T13:12:24Z</time>
      </trkpt>
      <trkpt lat="44.56166" lon="2.53373">
        <ele>575</ele>
        <time>2021-08-29T13:12:28Z</time>
      </trkpt>
      <trkpt lat="44.56153" lon="2.5339">
        <ele>571</ele>
        <time>2021-08-29T13:12:30Z</time>
      </trkpt>
      <trkpt lat="44.56145" lon="2.53415">
        <ele>570</ele>
        <time>2021-08-29T13:12:32Z</time>
      </trkpt>
      <trkpt lat="44.56142" lon="2.53438">
        <ele>569</ele>
        <time>2021-08-29T13:12:34Z</time>
      </trkpt>
      <trkpt lat="44.56158" lon="2.53615">
        <ele>566</ele>
        <time>2021-08-29T13:12:51Z</time>
      </trkpt>
      <trkpt lat="44.56165" lon="2.53639">
        <ele>564</ele>
        <time>2021-08-29T13:12:57Z</time>
      </trkpt>
      <trkpt lat="44.56167" lon="2.53651">
        <ele>563</ele>
        <time>2021-08-29T13:12:59Z</time>
      </trkpt>
      <trkpt lat="44.56216" lon="2.53767">
        <ele>556</ele>
        <time>2021-08-29T13:13:16Z</time>
      </trkpt>
      <trkpt lat="44.5622" lon="2.53782">
        <ele>557</ele>
        <time>2021-08-29T13:13:18Z</time>
      </trkpt>
      <trkpt lat="44.5622" lon="2.53802">
        <ele>559</ele>
        <time>2021-08-29T13:13:21Z</time>
      </trkpt>
      <trkpt lat="44.5622" lon="2.53809">
        <ele>560</ele>
        <time>2021-08-29T13:13:22Z</time>
      </trkpt>
      <trkpt lat="44.5621" lon="2.53841">
        <ele>561</ele>
        <time>2021-08-29T13:13:31Z</time>
      </trkpt>
      <trkpt lat="44.56195" lon="2.53867">
        <ele>557</ele>
        <time>2021-08-29T13:13:41Z</time>
      </trkpt>
      <trkpt lat="44.56183" lon="2.53899">
        <ele>557</ele>
        <time>2021-08-29T13:13:47Z</time>
      </trkpt>
      <trkpt lat="44.56177" lon="2.53985">
        <ele>560</ele>
        <time>2021-08-29T13:14:00Z</time>
      </trkpt>
      <trkpt lat="44.56149" lon="2.54056">
        <ele>561</ele>
        <time>2021-08-29T13:14:15Z</time>
      </trkpt>
      <trkpt lat="44.56013" lon="2.54262">
        <ele>553</ele>
        <time>2021-08-29T13:14:42Z</time>
      </trkpt>
      <trkpt lat="44.55993" lon="2.54284">
        <ele>551</ele>
        <time>2021-08-29T13:14:48Z</time>
      </trkpt>
      <trkpt lat="44.55988" lon="2.54285">
        <ele>551</ele>
        <time>2021-08-29T13:15:26Z</time>
      </trkpt>
      <trkpt lat="44.55975" lon="2.54291">
        <ele>550</ele>
        <time>2021-08-29T13:15:31Z</time>
      </trkpt>
      <trkpt lat="44.55968" lon="2.54295">
        <ele>550</ele>
        <time>2021-08-29T13:15:33Z</time>
      </trkpt>
      <trkpt lat="44.55863" lon="2.54338">
        <ele>547</ele>
        <time>2021-08-29T13:15:55Z</time>
      </trkpt>
      <trkpt lat="44.55816" lon="2.54341">
        <ele>548</ele>
        <time>2021-08-29T13:16:05Z</time>
      </trkpt>
      <trkpt lat="44.55778" lon="2.54328">
        <ele>548</ele>
        <time>2021-08-29T13:16:13Z</time>
      </trkpt>
      <trkpt lat="44.55747" lon="2.54309">
        <ele>549</ele>
        <time>2021-08-29T13:16:20Z</time>
      </trkpt>
      <trkpt lat="44.55722" lon="2.54305">
        <ele>550</ele>
        <time>2021-08-29T13:16:25Z</time>
      </trkpt>
      <trkpt lat="44.55661" lon="2.54313">
        <ele>552</ele>
        <time>2021-08-29T13:16:38Z</time>
      </trkpt>
      <trkpt lat="44.55627" lon="2.54329">
        <ele>554</ele>
        <time>2021-08-29T13:16:46Z</time>
      </trkpt>
      <trkpt lat="44.55459" lon="2.5448">
        <ele>541</ele>
        <time>2021-08-29T13:17:14Z</time>
      </trkpt>
      <trkpt lat="44.5544" lon="2.54511">
        <ele>538</ele>
        <time>2021-08-29T13:17:17Z</time>
      </trkpt>
      <trkpt lat="44.55426" lon="2.5455">
        <ele>536</ele>
        <time>2021-08-29T13:17:20Z</time>
      </trkpt>
      <trkpt lat="44.55421" lon="2.54588">
        <ele>534</ele>
        <time>2021-08-29T13:17:23Z</time>
      </trkpt>
      <trkpt lat="44.55418" lon="2.54708">
        <ele>528</ele>
        <time>2021-08-29T13:17:33Z</time>
      </trkpt>
      <trkpt lat="44.55416" lon="2.54718">
        <ele>527</ele>
        <time>2021-08-29T13:17:34Z</time>
      </trkpt>
      <trkpt lat="44.55414" lon="2.54726">
        <ele>526</ele>
        <time>2021-08-29T13:17:35Z</time>
      </trkpt>
      <trkpt lat="44.5541" lon="2.54731">
        <ele>525</ele>
        <time>2021-08-29T13:17:36Z</time>
      </trkpt>
      <trkpt lat="44.55403" lon="2.54737">
        <ele>524</ele>
        <time>2021-08-29T13:17:38Z</time>
      </trkpt>
      <trkpt lat="44.55399" lon="2.54741">
        <ele>524</ele>
        <time>2021-08-29T13:17:41Z</time>
      </trkpt>
      <trkpt lat="44.55396" lon="2.54751">
        <ele>523</ele>
        <time>2021-08-29T13:17:44Z</time>
      </trkpt>
      <trkpt lat="44.55415" lon="2.54836">
        <ele>521</ele>
        <time>2021-08-29T13:17:59Z</time>
      </trkpt>
      <trkpt lat="44.55416" lon="2.54856">
        <ele>521</ele>
        <time>2021-08-29T13:18:02Z</time>
      </trkpt>
      <trkpt lat="44.55415" lon="2.5487">
        <ele>521</ele>
        <time>2021-08-29T13:18:04Z</time>
      </trkpt>
      <trkpt lat="44.55399" lon="2.54925">
        <ele>520</ele>
        <time>2021-08-29T13:18:13Z</time>
      </trkpt>
      <trkpt lat="44.55362" lon="2.55015">
        <ele>519</ele>
        <time>2021-08-29T13:18:27Z</time>
      </trkpt>
      <trkpt lat="44.55311" lon="2.55081">
        <ele>518</ele>
        <time>2021-08-29T13:18:41Z</time>
      </trkpt>
      <trkpt lat="44.55306" lon="2.55098">
        <ele>518</ele>
        <time>2021-08-29T13:18:45Z</time>
      </trkpt>
      <trkpt lat="44.55308" lon="2.55105">
        <ele>519</ele>
        <time>2021-08-29T13:19:14Z</time>
      </trkpt>
      <trkpt lat="44.55312" lon="2.55107">
        <ele>519</ele>
        <time>2021-08-29T13:19:16Z</time>
      </trkpt>
      <trkpt lat="44.55317" lon="2.55106">
        <ele>519</ele>
        <time>2021-08-29T13:19:19Z</time>
      </trkpt>
      <trkpt lat="44.55365" lon="2.55122">
        <ele>521</ele>
        <time>2021-08-29T13:19:36Z</time>
      </trkpt>
      <trkpt lat="44.55382" lon="2.55132">
        <ele>522</ele>
        <time>2021-08-29T13:19:42Z</time>
      </trkpt>
      <trkpt lat="44.55391" lon="2.55141">
        <ele>522</ele>
        <time>2021-08-29T13:19:46Z</time>
      </trkpt>
      <trkpt lat="44.55466" lon="2.55205">
        <ele>525</ele>
        <time>2021-08-29T13:20:16Z</time>
      </trkpt>
      <trkpt lat="44.55548" lon="2.55272">
        <ele>528</ele>
        <time>2021-08-29T13:20:48Z</time>
      </trkpt>
      <trkpt lat="44.55601" lon="2.55307">
        <ele>530</ele>
        <time>2021-08-29T13:21:06Z</time>
      </trkpt>
      <trkpt lat="44.55713" lon="2.55323">
        <ele>530</ele>
        <time>2021-08-29T13:21:36Z</time>
      </trkpt>
      <trkpt lat="44.5582" lon="2.55336">
        <ele>532</ele>
        <time>2021-08-29T13:22:08Z</time>
      </trkpt>
      <trkpt lat="44.55854" lon="2.55343">
        <ele>532</ele>
        <time>2021-08-29T13:22:18Z</time>
      </trkpt>
      <trkpt lat="44.55901" lon="2.5537">
        <ele>532</ele>
        <time>2021-08-29T13:22:37Z</time>
      </trkpt>
      <trkpt lat="44.55921" lon="2.55385">
        <ele>534</ele>
        <time>2021-08-29T13:22:46Z</time>
      </trkpt>
      <trkpt lat="44.56004" lon="2.55374">
        <ele>542</ele>
        <time>2021-08-29T13:23:18Z</time>
      </trkpt>
      <trkpt lat="44.56081" lon="2.55321">
        <ele>544</ele>
        <time>2021-08-29T13:23:48Z</time>
      </trkpt>
      <trkpt lat="44.56128" lon="2.55329">
        <ele>548</ele>
        <time>2021-08-29T13:24:02Z</time>
      </trkpt>
      <trkpt lat="44.56232" lon="2.55351">
        <ele>550</ele>
        <time>2021-08-29T13:24:34Z</time>
      </trkpt>
      <trkpt lat="44.56335" lon="2.55378">
        <ele>554</ele>
        <time>2021-08-29T13:25:04Z</time>
      </trkpt>
      <trkpt lat="44.56383" lon="2.55391">
        <ele>559</ele>
        <time>2021-08-29T13:25:18Z</time>
      </trkpt>
      <trkpt lat="44.56407" lon="2.554">
        <ele>562</ele>
        <time>2021-08-29T13:25:26Z</time>
      </trkpt>
      <trkpt lat="44.56412" lon="2.55404">
        <ele>562</ele>
        <time>2021-08-29T13:25:28Z</time>
      </trkpt>
      <trkpt lat="44.56416" lon="2.55408">
        <ele>563</ele>
        <time>2021-08-29T13:25:30Z</time>
      </trkpt>
      <trkpt lat="44.5648" lon="2.5545">
        <ele>567</ele>
        <time>2021-08-29T13:25:50Z</time>
      </trkpt>
      <trkpt lat="44.56567" lon="2.55484">
        <ele>571</ele>
        <time>2021-08-29T13:26:16Z</time>
      </trkpt>
      <trkpt lat="44.56599" lon="2.55514">
        <ele>574</ele>
        <time>2021-08-29T13:26:28Z</time>
      </trkpt>
      <trkpt lat="44.56617" lon="2.55526">
        <ele>574</ele>
        <time>2021-08-29T13:26:34Z</time>
      </trkpt>
      <trkpt lat="44.56715" lon="2.55538">
        <ele>579</ele>
        <time>2021-08-29T13:27:04Z</time>
      </trkpt>
      <trkpt lat="44.5678" lon="2.55442">
        <ele>570</ele>
        <time>2021-08-29T13:27:35Z</time>
      </trkpt>
      <trkpt lat="44.56849" lon="2.55333">
        <ele>575</ele>
        <time>2021-08-29T13:28:07Z</time>
      </trkpt>
      <trkpt lat="44.56946" lon="2.55304">
        <ele>580</ele>
        <time>2021-08-29T13:28:37Z</time>
      </trkpt>
      <trkpt lat="44.5705" lon="2.55289">
        <ele>585</ele>
        <time>2021-08-29T13:29:05Z</time>
      </trkpt>
      <trkpt lat="44.57088" lon="2.5529">
        <ele>588</ele>
        <time>2021-08-29T13:29:15Z</time>
      </trkpt>
      <trkpt lat="44.57153" lon="2.55318">
        <ele>590</ele>
        <time>2021-08-29T13:29:33Z</time>
      </trkpt>
      <trkpt lat="44.57181" lon="2.55334">
        <ele>591</ele>
        <time>2021-08-29T13:29:41Z</time>
      </trkpt>
      <trkpt lat="44.57205" lon="2.55346">
        <ele>591</ele>
        <time>2021-08-29T13:29:47Z</time>
      </trkpt>
      <trkpt lat="44.57222" lon="2.55349">
        <ele>592</ele>
        <time>2021-08-29T13:29:51Z</time>
      </trkpt>
      <trkpt lat="44.57239" lon="2.55345">
        <ele>592</ele>
        <time>2021-08-29T13:29:55Z</time>
      </trkpt>
      <trkpt lat="44.57253" lon="2.55335">
        <ele>592</ele>
        <time>2021-08-29T13:29:59Z</time>
      </trkpt>
      <trkpt lat="44.57264" lon="2.55321">
        <ele>592</ele>
        <time>2021-08-29T13:30:03Z</time>
      </trkpt>
      <trkpt lat="44.57275" lon="2.55294">
        <ele>592</ele>
        <time>2021-08-29T13:30:09Z</time>
      </trkpt>
      <trkpt lat="44.57283" lon="2.55263">
        <ele>591</ele>
        <time>2021-08-29T13:30:15Z</time>
      </trkpt>
      <trkpt lat="44.57286" lon="2.55252">
        <ele>591</ele>
        <time>2021-08-29T13:30:17Z</time>
      </trkpt>
      <trkpt lat="44.57292" lon="2.55243">
        <ele>591</ele>
        <time>2021-08-29T13:30:19Z</time>
      </trkpt>
      <trkpt lat="44.573" lon="2.55238">
        <ele>592</ele>
        <time>2021-08-29T13:30:21Z</time>
      </trkpt>
      <trkpt lat="44.57309" lon="2.55236">
        <ele>592</ele>
        <time>2021-08-29T13:30:23Z</time>
      </trkpt>
      <trkpt lat="44.5733" lon="2.55245">
        <ele>594</ele>
        <time>2021-08-29T13:30:29Z</time>
      </trkpt>
      <trkpt lat="44.57351" lon="2.55251">
        <ele>594</ele>
        <time>2021-08-29T13:30:35Z</time>
      </trkpt>
      <trkpt lat="44.57374" lon="2.55243">
        <ele>594</ele>
        <time>2021-08-29T13:30:41Z</time>
      </trkpt>
      <trkpt lat="44.57389" lon="2.55232">
        <ele>595</ele>
        <time>2021-08-29T13:30:45Z</time>
      </trkpt>
      <trkpt lat="44.57406" lon="2.55205">
        <ele>595</ele>
        <time>2021-08-29T13:30:51Z</time>
      </trkpt>
      <trkpt lat="44.57429" lon="2.55144">
        <ele>596</ele>
        <time>2021-08-29T13:31:03Z</time>
      </trkpt>
      <trkpt lat="44.57441" lon="2.55126">
        <ele>598</ele>
        <time>2021-08-29T13:31:07Z</time>
      </trkpt>
      <trkpt lat="44.57448" lon="2.55119">
        <ele>598</ele>
        <time>2021-08-29T13:31:09Z</time>
      </trkpt>
      <trkpt lat="44.57463" lon="2.55112">
        <ele>600</ele>
        <time>2021-08-29T13:31:13Z</time>
      </trkpt>
      <trkpt lat="44.57478" lon="2.55114">
        <ele>601</ele>
        <time>2021-08-29T13:31:17Z</time>
      </trkpt>
      <trkpt lat="44.5758" lon="2.55177">
        <ele>606</ele>
        <time>2021-08-29T13:31:49Z</time>
      </trkpt>
      <trkpt lat="44.57657" lon="2.55242">
        <ele>612</ele>
        <time>2021-08-29T13:32:19Z</time>
      </trkpt>
      <trkpt lat="44.57669" lon="2.55257">
        <ele>613</ele>
        <time>2021-08-29T13:32:25Z</time>
      </trkpt>
      <trkpt lat="44.57674" lon="2.55269">
        <ele>614</ele>
        <time>2021-08-29T13:32:29Z</time>
      </trkpt>
      <trkpt lat="44.57686" lon="2.55312">
        <ele>616</ele>
        <time>2021-08-29T13:32:41Z</time>
      </trkpt>
      <trkpt lat="44.57694" lon="2.55422">
        <ele>620</ele>
        <time>2021-08-29T13:33:12Z</time>
      </trkpt>
      <trkpt lat="44.57695" lon="2.55429">
        <ele>620</ele>
        <time>2021-08-29T13:33:14Z</time>
      </trkpt>
      <trkpt lat="44.57718" lon="2.55517">
        <ele>626</ele>
        <time>2021-08-29T13:33:39Z</time>
      </trkpt>
      <trkpt lat="44.57723" lon="2.55561">
        <ele>628</ele>
        <time>2021-08-29T13:33:51Z</time>
      </trkpt>
      <trkpt lat="44.57729" lon="2.5558">
        <ele>629</ele>
        <time>2021-08-29T13:33:57Z</time>
      </trkpt>
      <trkpt lat="44.57735" lon="2.55594">
        <ele>630</ele>
        <time>2021-08-29T13:34:01Z</time>
      </trkpt>
      <trkpt lat="44.57765" lon="2.55621">
        <ele>632</ele>
        <time>2021-08-29T13:34:15Z</time>
      </trkpt>
      <trkpt lat="44.57783" lon="2.5565">
        <ele>638</ele>
        <time>2021-08-29T13:34:26Z</time>
      </trkpt>
      <trkpt lat="44.57787" lon="2.55657">
        <ele>639</ele>
        <time>2021-08-29T13:34:28Z</time>
      </trkpt>
      <trkpt lat="44.57796" lon="2.55669">
        <ele>640</ele>
        <time>2021-08-29T13:34:32Z</time>
      </trkpt>
      <trkpt lat="44.57812" lon="2.55681">
        <ele>640</ele>
        <time>2021-08-29T13:34:38Z</time>
      </trkpt>
      <trkpt lat="44.57843" lon="2.55681">
        <ele>639</ele>
        <time>2021-08-29T13:34:48Z</time>
      </trkpt>
      <trkpt lat="44.5785" lon="2.55682">
        <ele>639</ele>
        <time>2021-08-29T13:34:50Z</time>
      </trkpt>
      <trkpt lat="44.57868" lon="2.55689">
        <ele>638</ele>
        <time>2021-08-29T13:34:56Z</time>
      </trkpt>
      <trkpt lat="44.57916" lon="2.55735">
        <ele>634</ele>
        <time>2021-08-29T13:35:14Z</time>
      </trkpt>
      <trkpt lat="44.57993" lon="2.55824">
        <ele>637</ele>
        <time>2021-08-29T13:35:44Z</time>
      </trkpt>
      <trkpt lat="44.58031" lon="2.55913">
        <ele>638</ele>
        <time>2021-08-29T13:36:06Z</time>
      </trkpt>
      <trkpt lat="44.58048" lon="2.56016">
        <ele>640</ele>
        <time>2021-08-29T13:36:30Z</time>
      </trkpt>
      <trkpt lat="44.58055" lon="2.5603">
        <ele>640</ele>
        <time>2021-08-29T13:36:34Z</time>
      </trkpt>
      <trkpt lat="44.58059" lon="2.56035">
        <ele>641</ele>
        <time>2021-08-29T13:36:36Z</time>
      </trkpt>
      <trkpt lat="44.58128" lon="2.56039">
        <ele>647</ele>
        <time>2021-08-29T13:36:58Z</time>
      </trkpt>
      <trkpt lat="44.58144" lon="2.56052">
        <ele>649</ele>
        <time>2021-08-29T13:37:04Z</time>
      </trkpt>
      <trkpt lat="44.58157" lon="2.56068">
        <ele>650</ele>
        <time>2021-08-29T13:37:10Z</time>
      </trkpt>
      <trkpt lat="44.58179" lon="2.56112">
        <ele>652</ele>
        <time>2021-08-29T13:37:22Z</time>
      </trkpt>
      <trkpt lat="44.58182" lon="2.56118">
        <ele>652</ele>
        <time>2021-08-29T13:37:24Z</time>
      </trkpt>
      <trkpt lat="44.58197" lon="2.5613">
        <ele>655</ele>
        <time>2021-08-29T13:37:30Z</time>
      </trkpt>
      <trkpt lat="44.58209" lon="2.56136">
        <ele>655</ele>
        <time>2021-08-29T13:37:34Z</time>
      </trkpt>
      <trkpt lat="44.5822" lon="2.56143">
        <ele>655</ele>
        <time>2021-08-29T13:37:39Z</time>
      </trkpt>
      <trkpt lat="44.58234" lon="2.56142">
        <ele>656</ele>
        <time>2021-08-29T13:39:06Z</time>
      </trkpt>
      <trkpt lat="44.58434" lon="2.56199">
        <ele>644</ele>
        <time>2021-08-29T13:39:37Z</time>
      </trkpt>
      <trkpt lat="44.5858" lon="2.56242">
        <ele>636</ele>
        <time>2021-08-29T13:39:53Z</time>
      </trkpt>
      <trkpt lat="44.58633" lon="2.56283">
        <ele>634</ele>
        <time>2021-08-29T13:40:00Z</time>
      </trkpt>
      <trkpt lat="44.58732" lon="2.56401">
        <ele>628</ele>
        <time>2021-08-29T13:40:19Z</time>
      </trkpt>
      <trkpt lat="44.58743" lon="2.5641">
        <ele>627</ele>
        <time>2021-08-29T13:40:21Z</time>
      </trkpt>
      <trkpt lat="44.58793" lon="2.56428">
        <ele>624</ele>
        <time>2021-08-29T13:40:30Z</time>
      </trkpt>
      <trkpt lat="44.58843" lon="2.56439">
        <ele>621</ele>
        <time>2021-08-29T13:40:39Z</time>
      </trkpt>
      <trkpt lat="44.58902" lon="2.56413">
        <ele>620</ele>
        <time>2021-08-29T13:40:48Z</time>
      </trkpt>
      <trkpt lat="44.58976" lon="2.56353">
        <ele>622</ele>
        <time>2021-08-29T13:41:01Z</time>
      </trkpt>
      <trkpt lat="44.58997" lon="2.56344">
        <ele>621</ele>
        <time>2021-08-29T13:41:04Z</time>
      </trkpt>
      <trkpt lat="44.59012" lon="2.56342">
        <ele>620</ele>
        <time>2021-08-29T13:41:06Z</time>
      </trkpt>
      <trkpt lat="44.59033" lon="2.56349">
        <ele>621</ele>
        <time>2021-08-29T13:41:09Z</time>
      </trkpt>
      <trkpt lat="44.5904" lon="2.56353">
        <ele>622</ele>
        <time>2021-08-29T13:41:10Z</time>
      </trkpt>
      <trkpt lat="44.59055" lon="2.56371">
        <ele>624</ele>
        <time>2021-08-29T13:41:13Z</time>
      </trkpt>
      <trkpt lat="44.59111" lon="2.56463">
        <ele>622</ele>
        <time>2021-08-29T13:41:27Z</time>
      </trkpt>
      <trkpt lat="44.59123" lon="2.56477">
        <ele>622</ele>
        <time>2021-08-29T13:41:30Z</time>
      </trkpt>
      <trkpt lat="44.59129" lon="2.56482">
        <ele>622</ele>
        <time>2021-08-29T13:41:32Z</time>
      </trkpt>
      <trkpt lat="44.59133" lon="2.56486">
        <ele>623</ele>
        <time>2021-08-29T13:41:35Z</time>
      </trkpt>
      <trkpt lat="44.59142" lon="2.56482">
        <ele>623</ele>
        <time>2021-08-29T13:41:57Z</time>
      </trkpt>
      <trkpt lat="44.59166" lon="2.56494">
        <ele>623</ele>
        <time>2021-08-29T13:42:05Z</time>
      </trkpt>
      <trkpt lat="44.59174" lon="2.56494">
        <ele>623</ele>
        <time>2021-08-29T13:42:07Z</time>
      </trkpt>
      <trkpt lat="44.5919" lon="2.565">
        <ele>623</ele>
        <time>2021-08-29T13:42:11Z</time>
      </trkpt>
      <trkpt lat="44.59227" lon="2.5653">
        <ele>620</ele>
        <time>2021-08-29T13:42:18Z</time>
      </trkpt>
      <trkpt lat="44.59236" lon="2.56537">
        <ele>619</ele>
        <time>2021-08-29T13:42:20Z</time>
      </trkpt>
      <trkpt lat="44.5924" lon="2.5654">
        <ele>619</ele>
        <time>2021-08-29T13:42:21Z</time>
      </trkpt>
      <trkpt lat="44.59287" lon="2.56543">
        <ele>617</ele>
        <time>2021-08-29T13:42:31Z</time>
      </trkpt>
      <trkpt lat="44.59304" lon="2.56546">
        <ele>616</ele>
        <time>2021-08-29T13:42:35Z</time>
      </trkpt>
      <trkpt lat="44.59314" lon="2.56553">
        <ele>616</ele>
        <time>2021-08-29T13:42:37Z</time>
      </trkpt>
      <trkpt lat="44.59329" lon="2.56565">
        <ele>616</ele>
        <time>2021-08-29T13:42:40Z</time>
      </trkpt>
      <trkpt lat="44.59346" lon="2.56581">
        <ele>615</ele>
        <time>2021-08-29T13:42:43Z</time>
      </trkpt>
      <trkpt lat="44.59471" lon="2.56653">
        <ele>617</ele>
        <time>2021-08-29T13:43:04Z</time>
      </trkpt>
      <trkpt lat="44.59494" lon="2.56676">
        <ele>616</ele>
        <time>2021-08-29T13:43:12Z</time>
      </trkpt>
      <trkpt lat="44.59538" lon="2.56742">
        <ele>618</ele>
        <time>2021-08-29T13:43:32Z</time>
      </trkpt>
      <trkpt lat="44.59548" lon="2.56752">
        <ele>618</ele>
        <time>2021-08-29T13:43:36Z</time>
      </trkpt>
      <trkpt lat="44.59566" lon="2.56761">
        <ele>620</ele>
        <time>2021-08-29T13:43:42Z</time>
      </trkpt>
      <trkpt lat="44.59669" lon="2.56751">
        <ele>624</ele>
        <time>2021-08-29T13:44:13Z</time>
      </trkpt>
      <trkpt lat="44.59763" lon="2.5676">
        <ele>611</ele>
        <time>2021-08-29T13:44:43Z</time>
      </trkpt>
      <trkpt lat="44.59796" lon="2.56774">
        <ele>615</ele>
        <time>2021-08-29T13:44:53Z</time>
      </trkpt>
      <trkpt lat="44.5989" lon="2.56813">
        <ele>625</ele>
        <time>2021-08-29T13:45:23Z</time>
      </trkpt>
      <trkpt lat="44.59967" lon="2.56816">
        <ele>624</ele>
        <time>2021-08-29T13:45:47Z</time>
      </trkpt>
      <trkpt lat="44.59989" lon="2.56829">
        <ele>624</ele>
        <time>2021-08-29T13:45:53Z</time>
      </trkpt>
      <trkpt lat="44.59999" lon="2.5684">
        <ele>625</ele>
        <time>2021-08-29T13:45:56Z</time>
      </trkpt>
      <trkpt lat="44.60019" lon="2.56871">
        <ele>629</ele>
        <time>2021-08-29T13:46:03Z</time>
      </trkpt>
      <trkpt lat="44.6003" lon="2.56882">
        <ele>629</ele>
        <time>2021-08-29T13:46:05Z</time>
      </trkpt>
      <trkpt lat="44.60098" lon="2.56973">
        <ele>628</ele>
        <time>2021-08-29T13:46:20Z</time>
      </trkpt>
      <trkpt lat="44.60106" lon="2.56982">
        <ele>626</ele>
        <time>2021-08-29T13:46:22Z</time>
      </trkpt>
      <trkpt lat="44.60115" lon="2.56986">
        <ele>625</ele>
        <time>2021-08-29T13:46:24Z</time>
      </trkpt>
      <trkpt lat="44.60133" lon="2.56983">
        <ele>624</ele>
        <time>2021-08-29T13:46:28Z</time>
      </trkpt>
      <trkpt lat="44.60222" lon="2.56939">
        <ele>627</ele>
        <time>2021-08-29T13:46:54Z</time>
      </trkpt>
      <trkpt lat="44.60304" lon="2.56951">
        <ele>630</ele>
        <time>2021-08-29T13:47:22Z</time>
      </trkpt>
      <trkpt lat="44.60303" lon="2.56959">
        <ele>630</ele>
        <time>2021-08-29T13:47:25Z</time>
      </trkpt>
      <trkpt lat="44.60283" lon="2.56972">
        <ele>634</ele>
        <time>2021-08-29T13:47:33Z</time>
      </trkpt>
      <trkpt lat="44.60235" lon="2.56996">
        <ele>637</ele>
        <time>2021-08-29T13:47:47Z</time>
      </trkpt>
      <trkpt lat="44.60195" lon="2.5703">
        <ele>637</ele>
        <time>2021-08-29T13:47:58Z</time>
      </trkpt>
      <trkpt lat="44.60095" lon="2.57186">
        <ele>639</ele>
        <time>2021-08-29T13:48:28Z</time>
      </trkpt>
      <trkpt lat="44.6008" lon="2.57218">
        <ele>642</ele>
        <time>2021-08-29T13:48:34Z</time>
      </trkpt>
      <trkpt lat="44.60077" lon="2.57231">
        <ele>643</ele>
        <time>2021-08-29T13:48:36Z</time>
      </trkpt>
      <trkpt lat="44.60079" lon="2.57269">
        <ele>645</ele>
        <time>2021-08-29T13:48:43Z</time>
      </trkpt>
      <trkpt lat="44.60082" lon="2.57296">
        <ele>649</ele>
        <time>2021-08-29T13:48:49Z</time>
      </trkpt>
      <trkpt lat="44.6008" lon="2.57305">
        <ele>650</ele>
        <time>2021-08-29T13:48:51Z</time>
      </trkpt>
      <trkpt lat="44.60079" lon="2.57394">
        <ele>658</ele>
        <time>2021-08-29T13:49:09Z</time>
      </trkpt>
      <trkpt lat="44.60083" lon="2.57411">
        <ele>659</ele>
        <time>2021-08-29T13:49:13Z</time>
      </trkpt>
      <trkpt lat="44.6009" lon="2.57426">
        <ele>664</ele>
        <time>2021-08-29T13:49:17Z</time>
      </trkpt>
      <trkpt lat="44.6013" lon="2.57466">
        <ele>664</ele>
        <time>2021-08-29T13:49:34Z</time>
      </trkpt>
      <trkpt lat="44.60159" lon="2.57489">
        <ele>664</ele>
        <time>2021-08-29T13:49:46Z</time>
      </trkpt>
      <trkpt lat="44.60211" lon="2.57514">
        <ele>660</ele>
        <time>2021-08-29T13:50:07Z</time>
      </trkpt>
      <trkpt lat="44.60228" lon="2.57528">
        <ele>658</ele>
        <time>2021-08-29T13:50:13Z</time>
      </trkpt>
      <trkpt lat="44.60244" lon="2.57551">
        <ele>659</ele>
        <time>2021-08-29T13:50:21Z</time>
      </trkpt>
      <trkpt lat="44.60255" lon="2.57576">
        <ele>660</ele>
        <time>2021-08-29T13:50:29Z</time>
      </trkpt>
      <trkpt lat="44.60258" lon="2.57584">
        <ele>661</ele>
        <time>2021-08-29T13:50:31Z</time>
      </trkpt>
      <trkpt lat="44.60288" lon="2.57671">
        <ele>661</ele>
        <time>2021-08-29T13:50:55Z</time>
      </trkpt>
      <trkpt lat="44.60295" lon="2.57702">
        <ele>661</ele>
        <time>2021-08-29T13:51:03Z</time>
      </trkpt>
      <trkpt lat="44.60295" lon="2.57718">
        <ele>662</ele>
        <time>2021-08-29T13:51:07Z</time>
      </trkpt>
      <trkpt lat="44.60288" lon="2.57752">
        <ele>663</ele>
        <time>2021-08-29T13:51:15Z</time>
      </trkpt>
      <trkpt lat="44.60274" lon="2.57784">
        <ele>664</ele>
        <time>2021-08-29T13:51:23Z</time>
      </trkpt>
      <trkpt lat="44.60271" lon="2.57792">
        <ele>664</ele>
        <time>2021-08-29T13:51:25Z</time>
      </trkpt>
      <trkpt lat="44.60273" lon="2.578">
        <ele>664</ele>
        <time>2021-08-29T13:51:27Z</time>
      </trkpt>
      <trkpt lat="44.60356" lon="2.57745">
        <ele>673</ele>
        <time>2021-08-29T13:51:59Z</time>
      </trkpt>
      <trkpt lat="44.60361" lon="2.57741">
        <ele>673</ele>
        <time>2021-08-29T13:52:02Z</time>
      </trkpt>
      <trkpt lat="44.60366" lon="2.5774">
        <ele>672</ele>
        <time>2021-08-29T13:52:04Z</time>
      </trkpt>
      <trkpt lat="44.60374" lon="2.57742">
        <ele>672</ele>
        <time>2021-08-29T13:52:06Z</time>
      </trkpt>
      <trkpt lat="44.60378" lon="2.57749">
        <ele>673</ele>
        <time>2021-08-29T13:52:08Z</time>
      </trkpt>
      <trkpt lat="44.60378" lon="2.57862">
        <ele>671</ele>
        <time>2021-08-29T13:52:34Z</time>
      </trkpt>
      <trkpt lat="44.60378" lon="2.57872">
        <ele>671</ele>
        <time>2021-08-29T13:52:36Z</time>
      </trkpt>
      <trkpt lat="44.6038" lon="2.57878">
        <ele>670</ele>
        <time>2021-08-29T13:52:38Z</time>
      </trkpt>
      <trkpt lat="44.60385" lon="2.57883">
        <ele>670</ele>
        <time>2021-08-29T13:52:40Z</time>
      </trkpt>
      <trkpt lat="44.60417" lon="2.57889">
        <ele>669</ele>
        <time>2021-08-29T13:52:54Z</time>
      </trkpt>
      <trkpt lat="44.60423" lon="2.5789">
        <ele>669</ele>
        <time>2021-08-29T13:52:57Z</time>
      </trkpt>
      <trkpt lat="44.60427" lon="2.57895">
        <ele>669</ele>
        <time>2021-08-29T13:53:00Z</time>
      </trkpt>
      <trkpt lat="44.60425" lon="2.57902">
        <ele>669</ele>
        <time>2021-08-29T13:53:14Z</time>
      </trkpt>
      <trkpt lat="44.60422" lon="2.57905">
        <ele>670</ele>
        <time>2021-08-29T13:53:18Z</time>
      </trkpt>
      <trkpt lat="44.60419" lon="2.5791">
        <ele>671</ele>
        <time>2021-08-29T13:53:22Z</time>
      </trkpt>
      <trkpt lat="44.60416" lon="2.57916">
        <ele>671</ele>
        <time>2021-08-29T13:53:27Z</time>
      </trkpt>
      <trkpt lat="44.60413" lon="2.57935">
        <ele>674</ele>
        <time>2021-08-29T13:53:42Z</time>
      </trkpt>
      <trkpt lat="44.60415" lon="2.57941">
        <ele>675</ele>
        <time>2021-08-29T13:53:48Z</time>
      </trkpt>
    </trkseg>
  </trk>
  <trk>
    <name><![CDATA[j4]]></name>
    <desc><![CDATA[comment ...]]></desc>
    <extensions>
      <line xmlns="http://www.topografix.com/GPX/gpx_style/0/2">
        <color>000088</color>
        <width>4</width>
      </line>
    </extensions>
    <trkseg>
      <trkpt lat="44.60417" lon="2.57918">
        <ele>687</ele>
        <time>2021-08-30T07:05:17Z</time>
      </trkpt>
      <trkpt lat="44.60417" lon="2.57918">
        <ele>687</ele>
        <time>2021-08-30T07:05:19Z</time>
      </trkpt>
      <trkpt lat="44.60418" lon="2.57925">
        <ele>687</ele>
        <time>2021-08-30T07:05:20Z</time>
      </trkpt>
      <trkpt lat="44.60414" lon="2.57931">
        <ele>686</ele>
        <time>2021-08-30T07:05:29Z</time>
      </trkpt>
      <trkpt lat="44.60418" lon="2.57945">
        <ele>687</ele>
        <time>2021-08-30T07:06:10Z</time>
      </trkpt>
      <trkpt lat="44.60416" lon="2.57937">
        <ele>683</ele>
        <time>2021-08-30T07:06:51Z</time>
      </trkpt>
      <trkpt lat="44.60414" lon="2.5793">
        <ele>682</ele>
        <time>2021-08-30T07:06:53Z</time>
      </trkpt>
      <trkpt lat="44.60417" lon="2.57909">
        <ele>681</ele>
        <time>2021-08-30T07:07:04Z</time>
      </trkpt>
      <trkpt lat="44.60427" lon="2.579">
        <ele>681</ele>
        <time>2021-08-30T07:07:12Z</time>
      </trkpt>
      <trkpt lat="44.60426" lon="2.57894">
        <ele>680</ele>
        <time>2021-08-30T07:07:16Z</time>
      </trkpt>
      <trkpt lat="44.60421" lon="2.57892">
        <ele>679</ele>
        <time>2021-08-30T07:07:28Z</time>
      </trkpt>
      <trkpt lat="44.60406" lon="2.57883">
        <ele>681</ele>
        <time>2021-08-30T07:07:37Z</time>
      </trkpt>
      <trkpt lat="44.60389" lon="2.57884">
        <ele>680</ele>
        <time>2021-08-30T07:07:44Z</time>
      </trkpt>
      <trkpt lat="44.60389" lon="2.57877">
        <ele>680</ele>
        <time>2021-08-30T07:07:54Z</time>
      </trkpt>
      <trkpt lat="44.60391" lon="2.57872">
        <ele>680</ele>
        <time>2021-08-30T07:07:59Z</time>
      </trkpt>
      <trkpt lat="44.60396" lon="2.57872">
        <ele>680</ele>
        <time>2021-08-30T07:08:08Z</time>
      </trkpt>
      <trkpt lat="44.60395" lon="2.57878">
        <ele>680</ele>
        <time>2021-08-30T07:09:47Z</time>
      </trkpt>
      <trkpt lat="44.60384" lon="2.57886">
        <ele>680</ele>
        <time>2021-08-30T07:09:52Z</time>
      </trkpt>
      <trkpt lat="44.60379" lon="2.5788">
        <ele>680</ele>
        <time>2021-08-30T07:09:55Z</time>
      </trkpt>
      <trkpt lat="44.60379" lon="2.57847">
        <ele>678</ele>
        <time>2021-08-30T07:10:03Z</time>
      </trkpt>
      <trkpt lat="44.6038" lon="2.57841">
        <ele>678</ele>
        <time>2021-08-30T07:10:05Z</time>
      </trkpt>
      <trkpt lat="44.60377" lon="2.57745">
        <ele>674</ele>
        <time>2021-08-30T07:10:27Z</time>
      </trkpt>
      <trkpt lat="44.60375" lon="2.57738">
        <ele>674</ele>
        <time>2021-08-30T07:10:29Z</time>
      </trkpt>
      <trkpt lat="44.60369" lon="2.57737">
        <ele>674</ele>
        <time>2021-08-30T07:10:31Z</time>
      </trkpt>
      <trkpt lat="44.60276" lon="2.57799">
        <ele>668</ele>
        <time>2021-08-30T07:10:52Z</time>
      </trkpt>
      <trkpt lat="44.6027" lon="2.57799">
        <ele>668</ele>
        <time>2021-08-30T07:10:54Z</time>
      </trkpt>
      <trkpt lat="44.6027" lon="2.5779">
        <ele>667</ele>
        <time>2021-08-30T07:10:56Z</time>
      </trkpt>
      <trkpt lat="44.60276" lon="2.57781">
        <ele>667</ele>
        <time>2021-08-30T07:10:58Z</time>
      </trkpt>
      <trkpt lat="44.60291" lon="2.57744">
        <ele>665</ele>
        <time>2021-08-30T07:11:05Z</time>
      </trkpt>
      <trkpt lat="44.60296" lon="2.57722">
        <ele>665</ele>
        <time>2021-08-30T07:11:08Z</time>
      </trkpt>
      <trkpt lat="44.60297" lon="2.57706">
        <ele>664</ele>
        <time>2021-08-30T07:11:10Z</time>
      </trkpt>
      <trkpt lat="44.60292" lon="2.57683">
        <ele>663</ele>
        <time>2021-08-30T07:11:13Z</time>
      </trkpt>
      <trkpt lat="44.60248" lon="2.57563">
        <ele>658</ele>
        <time>2021-08-30T07:11:27Z</time>
      </trkpt>
      <trkpt lat="44.60227" lon="2.57531">
        <ele>656</ele>
        <time>2021-08-30T07:11:31Z</time>
      </trkpt>
      <trkpt lat="44.60205" lon="2.57512">
        <ele>655</ele>
        <time>2021-08-30T07:11:34Z</time>
      </trkpt>
      <trkpt lat="44.6011" lon="2.5746">
        <ele>653</ele>
        <time>2021-08-30T07:11:46Z</time>
      </trkpt>
      <trkpt lat="44.60097" lon="2.57449">
        <ele>652</ele>
        <time>2021-08-30T07:11:48Z</time>
      </trkpt>
      <trkpt lat="44.60078" lon="2.5741">
        <ele>651</ele>
        <time>2021-08-30T07:11:52Z</time>
      </trkpt>
      <trkpt lat="44.60074" lon="2.5739">
        <ele>651</ele>
        <time>2021-08-30T07:11:54Z</time>
      </trkpt>
      <trkpt lat="44.60074" lon="2.57259">
        <ele>641</ele>
        <time>2021-08-30T07:12:05Z</time>
      </trkpt>
      <trkpt lat="44.60077" lon="2.57244">
        <ele>638</ele>
        <time>2021-08-30T07:12:06Z</time>
      </trkpt>
      <trkpt lat="44.60081" lon="2.57231">
        <ele>637</ele>
        <time>2021-08-30T07:12:07Z</time>
      </trkpt>
      <trkpt lat="44.60189" lon="2.57028">
        <ele>635</ele>
        <time>2021-08-30T07:12:35Z</time>
      </trkpt>
      <trkpt lat="44.60242" lon="2.56989">
        <ele>633</ele>
        <time>2021-08-30T07:12:45Z</time>
      </trkpt>
      <trkpt lat="44.60309" lon="2.56957">
        <ele>634</ele>
        <time>2021-08-30T07:13:00Z</time>
      </trkpt>
      <trkpt lat="44.60315" lon="2.56956">
        <ele>634</ele>
        <time>2021-08-30T07:13:02Z</time>
      </trkpt>
      <trkpt lat="44.60339" lon="2.5696">
        <ele>635</ele>
        <time>2021-08-30T07:13:10Z</time>
      </trkpt>
      <trkpt lat="44.60417" lon="2.5698">
        <ele>635</ele>
        <time>2021-08-30T07:13:28Z</time>
      </trkpt>
      <trkpt lat="44.60485" lon="2.56979">
        <ele>633</ele>
        <time>2021-08-30T07:13:38Z</time>
      </trkpt>
      <trkpt lat="44.60499" lon="2.56975">
        <ele>633</ele>
        <time>2021-08-30T07:13:40Z</time>
      </trkpt>
      <trkpt lat="44.60512" lon="2.56965">
        <ele>634</ele>
        <time>2021-08-30T07:13:42Z</time>
      </trkpt>
      <trkpt lat="44.60525" lon="2.56948">
        <ele>635</ele>
        <time>2021-08-30T07:13:45Z</time>
      </trkpt>
      <trkpt lat="44.60533" lon="2.56934">
        <ele>635</ele>
        <time>2021-08-30T07:13:47Z</time>
      </trkpt>
      <trkpt lat="44.60559" lon="2.56905">
        <ele>635</ele>
        <time>2021-08-30T07:13:52Z</time>
      </trkpt>
      <trkpt lat="44.60572" lon="2.56899">
        <ele>634</ele>
        <time>2021-08-30T07:13:54Z</time>
      </trkpt>
      <trkpt lat="44.60592" lon="2.56894">
        <ele>634</ele>
        <time>2021-08-30T07:13:57Z</time>
      </trkpt>
      <trkpt lat="44.60647" lon="2.56897">
        <ele>631</ele>
        <time>2021-08-30T07:14:06Z</time>
      </trkpt>
      <trkpt lat="44.60673" lon="2.56891">
        <ele>629</ele>
        <time>2021-08-30T07:14:10Z</time>
      </trkpt>
      <trkpt lat="44.60697" lon="2.56874">
        <ele>628</ele>
        <time>2021-08-30T07:14:14Z</time>
      </trkpt>
      <trkpt lat="44.60714" lon="2.56856">
        <ele>627</ele>
        <time>2021-08-30T07:14:17Z</time>
      </trkpt>
      <trkpt lat="44.60752" lon="2.56803">
        <ele>626</ele>
        <time>2021-08-30T07:14:25Z</time>
      </trkpt>
      <trkpt lat="44.60768" lon="2.56788">
        <ele>626</ele>
        <time>2021-08-30T07:14:28Z</time>
      </trkpt>
      <trkpt lat="44.60773" lon="2.56784">
        <ele>626</ele>
        <time>2021-08-30T07:14:30Z</time>
      </trkpt>
      <trkpt lat="44.60778" lon="2.56782">
        <ele>625</ele>
        <time>2021-08-30T07:15:48Z</time>
      </trkpt>
      <trkpt lat="44.608" lon="2.56762">
        <ele>623</ele>
        <time>2021-08-30T07:15:57Z</time>
      </trkpt>
      <trkpt lat="44.60813" lon="2.56751">
        <ele>622</ele>
        <time>2021-08-30T07:16:01Z</time>
      </trkpt>
      <trkpt lat="44.60832" lon="2.56737">
        <ele>623</ele>
        <time>2021-08-30T07:16:06Z</time>
      </trkpt>
      <trkpt lat="44.60879" lon="2.56719">
        <ele>620</ele>
        <time>2021-08-30T07:16:16Z</time>
      </trkpt>
      <trkpt lat="44.60889" lon="2.56709">
        <ele>619</ele>
        <time>2021-08-30T07:16:18Z</time>
      </trkpt>
      <trkpt lat="44.60896" lon="2.56699">
        <ele>618</ele>
        <time>2021-08-30T07:16:20Z</time>
      </trkpt>
      <trkpt lat="44.6094" lon="2.56586">
        <ele>617</ele>
        <time>2021-08-30T07:16:34Z</time>
      </trkpt>
      <trkpt lat="44.60957" lon="2.56557">
        <ele>616</ele>
        <time>2021-08-30T07:16:38Z</time>
      </trkpt>
      <trkpt lat="44.60968" lon="2.56546">
        <ele>616</ele>
        <time>2021-08-30T07:16:40Z</time>
      </trkpt>
      <trkpt lat="44.6098" lon="2.56539">
        <ele>616</ele>
        <time>2021-08-30T07:16:42Z</time>
      </trkpt>
      <trkpt lat="44.60997" lon="2.56533">
        <ele>616</ele>
        <time>2021-08-30T07:16:45Z</time>
      </trkpt>
      <trkpt lat="44.61033" lon="2.56537">
        <ele>617</ele>
        <time>2021-08-30T07:16:52Z</time>
      </trkpt>
      <trkpt lat="44.6104" lon="2.56542">
        <ele>617</ele>
        <time>2021-08-30T07:16:54Z</time>
      </trkpt>
      <trkpt lat="44.61069" lon="2.56576">
        <ele>615</ele>
        <time>2021-08-30T07:17:00Z</time>
      </trkpt>
      <trkpt lat="44.61076" lon="2.56583">
        <ele>615</ele>
        <time>2021-08-30T07:17:01Z</time>
      </trkpt>
      <trkpt lat="44.61084" lon="2.56585">
        <ele>615</ele>
        <time>2021-08-30T07:17:02Z</time>
      </trkpt>
      <trkpt lat="44.61101" lon="2.56582">
        <ele>615</ele>
        <time>2021-08-30T07:17:04Z</time>
      </trkpt>
      <trkpt lat="44.6111" lon="2.56577">
        <ele>615</ele>
        <time>2021-08-30T07:17:05Z</time>
      </trkpt>
      <trkpt lat="44.61133" lon="2.56548">
        <ele>617</ele>
        <time>2021-08-30T07:17:09Z</time>
      </trkpt>
      <trkpt lat="44.61181" lon="2.565">
        <ele>616</ele>
        <time>2021-08-30T07:17:17Z</time>
      </trkpt>
      <trkpt lat="44.61195" lon="2.56494">
        <ele>616</ele>
        <time>2021-08-30T07:17:19Z</time>
      </trkpt>
      <trkpt lat="44.61216" lon="2.56491">
        <ele>616</ele>
        <time>2021-08-30T07:17:22Z</time>
      </trkpt>
      <trkpt lat="44.61222" lon="2.56489">
        <ele>617</ele>
        <time>2021-08-30T07:17:23Z</time>
      </trkpt>
      <trkpt lat="44.61238" lon="2.56475">
        <ele>618</ele>
        <time>2021-08-30T07:17:26Z</time>
      </trkpt>
      <trkpt lat="44.61263" lon="2.5644">
        <ele>615</ele>
        <time>2021-08-30T07:17:31Z</time>
      </trkpt>
      <trkpt lat="44.613" lon="2.5641">
        <ele>610</ele>
        <time>2021-08-30T07:17:37Z</time>
      </trkpt>
      <trkpt lat="44.6136" lon="2.56379">
        <ele>606</ele>
        <time>2021-08-30T07:17:47Z</time>
      </trkpt>
      <trkpt lat="44.61393" lon="2.56347">
        <ele>605</ele>
        <time>2021-08-30T07:17:53Z</time>
      </trkpt>
      <trkpt lat="44.61432" lon="2.5633">
        <ele>604</ele>
        <time>2021-08-30T07:17:59Z</time>
      </trkpt>
      <trkpt lat="44.61445" lon="2.56329">
        <ele>604</ele>
        <time>2021-08-30T07:18:01Z</time>
      </trkpt>
      <trkpt lat="44.61464" lon="2.56333">
        <ele>603</ele>
        <time>2021-08-30T07:18:04Z</time>
      </trkpt>
      <trkpt lat="44.61482" lon="2.56343">
        <ele>603</ele>
        <time>2021-08-30T07:18:07Z</time>
      </trkpt>
      <trkpt lat="44.61488" lon="2.56343">
        <ele>602</ele>
        <time>2021-08-30T07:18:08Z</time>
      </trkpt>
      <trkpt lat="44.61495" lon="2.56342">
        <ele>602</ele>
        <time>2021-08-30T07:18:09Z</time>
      </trkpt>
      <trkpt lat="44.61588" lon="2.56262">
        <ele>598</ele>
        <time>2021-08-30T07:18:25Z</time>
      </trkpt>
      <trkpt lat="44.61623" lon="2.56244">
        <ele>596</ele>
        <time>2021-08-30T07:18:31Z</time>
      </trkpt>
      <trkpt lat="44.61637" lon="2.56224">
        <ele>595</ele>
        <time>2021-08-30T07:18:34Z</time>
      </trkpt>
      <trkpt lat="44.61644" lon="2.56197">
        <ele>596</ele>
        <time>2021-08-30T07:18:37Z</time>
      </trkpt>
      <trkpt lat="44.61657" lon="2.56174">
        <ele>598</ele>
        <time>2021-08-30T07:18:40Z</time>
      </trkpt>
      <trkpt lat="44.61697" lon="2.56141">
        <ele>596</ele>
        <time>2021-08-30T07:18:47Z</time>
      </trkpt>
      <trkpt lat="44.61721" lon="2.56129">
        <ele>595</ele>
        <time>2021-08-30T07:18:51Z</time>
      </trkpt>
      <trkpt lat="44.61836" lon="2.56118">
        <ele>595</ele>
        <time>2021-08-30T07:19:09Z</time>
      </trkpt>
      <trkpt lat="44.61881" lon="2.56121">
        <ele>594</ele>
        <time>2021-08-30T07:19:16Z</time>
      </trkpt>
      <trkpt lat="44.6201" lon="2.561">
        <ele>593</ele>
        <time>2021-08-30T07:19:38Z</time>
      </trkpt>
      <trkpt lat="44.62034" lon="2.56105">
        <ele>593</ele>
        <time>2021-08-30T07:19:42Z</time>
      </trkpt>
      <trkpt lat="44.62112" lon="2.56141">
        <ele>595</ele>
        <time>2021-08-30T07:19:57Z</time>
      </trkpt>
      <trkpt lat="44.62117" lon="2.56142">
        <ele>595</ele>
        <time>2021-08-30T07:19:58Z</time>
      </trkpt>
      <trkpt lat="44.62129" lon="2.5614">
        <ele>594</ele>
        <time>2021-08-30T07:20:00Z</time>
      </trkpt>
      <trkpt lat="44.62142" lon="2.56134">
        <ele>594</ele>
        <time>2021-08-30T07:20:02Z</time>
      </trkpt>
      <trkpt lat="44.62155" lon="2.56117">
        <ele>594</ele>
        <time>2021-08-30T07:20:05Z</time>
      </trkpt>
      <trkpt lat="44.6224" lon="2.56071">
        <ele>592</ele>
        <time>2021-08-30T07:20:22Z</time>
      </trkpt>
      <trkpt lat="44.62263" lon="2.56057">
        <ele>592</ele>
        <time>2021-08-30T07:20:27Z</time>
      </trkpt>
      <trkpt lat="44.62308" lon="2.55994">
        <ele>592</ele>
        <time>2021-08-30T07:20:40Z</time>
      </trkpt>
      <trkpt lat="44.62329" lon="2.55979">
        <ele>591</ele>
        <time>2021-08-30T07:20:45Z</time>
      </trkpt>
      <trkpt lat="44.62336" lon="2.55972">
        <ele>590</ele>
        <time>2021-08-30T07:20:47Z</time>
      </trkpt>
      <trkpt lat="44.62344" lon="2.55947">
        <ele>589</ele>
        <time>2021-08-30T07:20:51Z</time>
      </trkpt>
      <trkpt lat="44.62343" lon="2.55882">
        <ele>587</ele>
        <time>2021-08-30T07:21:00Z</time>
      </trkpt>
      <trkpt lat="44.62363" lon="2.5578">
        <ele>582</ele>
        <time>2021-08-30T07:21:12Z</time>
      </trkpt>
      <trkpt lat="44.62363" lon="2.55762">
        <ele>582</ele>
        <time>2021-08-30T07:21:14Z</time>
      </trkpt>
      <trkpt lat="44.62339" lon="2.55674">
        <ele>578</ele>
        <time>2021-08-30T07:21:24Z</time>
      </trkpt>
      <trkpt lat="44.6233" lon="2.55648">
        <ele>577</ele>
        <time>2021-08-30T07:21:27Z</time>
      </trkpt>
      <trkpt lat="44.62326" lon="2.5563">
        <ele>577</ele>
        <time>2021-08-30T07:21:29Z</time>
      </trkpt>
      <trkpt lat="44.62325" lon="2.55611">
        <ele>575</ele>
        <time>2021-08-30T07:21:31Z</time>
      </trkpt>
      <trkpt lat="44.62332" lon="2.55567">
        <ele>575</ele>
        <time>2021-08-30T07:21:35Z</time>
      </trkpt>
      <trkpt lat="44.62349" lon="2.55527">
        <ele>573</ele>
        <time>2021-08-30T07:21:39Z</time>
      </trkpt>
      <trkpt lat="44.62429" lon="2.55402">
        <ele>566</ele>
        <time>2021-08-30T07:21:56Z</time>
      </trkpt>
      <trkpt lat="44.62433" lon="2.55397">
        <ele>566</ele>
        <time>2021-08-30T07:21:57Z</time>
      </trkpt>
      <trkpt lat="44.62441" lon="2.55394">
        <ele>565</ele>
        <time>2021-08-30T07:21:59Z</time>
      </trkpt>
      <trkpt lat="44.62454" lon="2.55404">
        <ele>563</ele>
        <time>2021-08-30T07:22:02Z</time>
      </trkpt>
      <trkpt lat="44.6246" lon="2.55411">
        <ele>562</ele>
        <time>2021-08-30T07:22:04Z</time>
      </trkpt>
      <trkpt lat="44.62476" lon="2.55422">
        <ele>560</ele>
        <time>2021-08-30T07:22:07Z</time>
      </trkpt>
      <trkpt lat="44.62491" lon="2.55423">
        <ele>559</ele>
        <time>2021-08-30T07:22:09Z</time>
      </trkpt>
      <trkpt lat="44.62528" lon="2.55405">
        <ele>558</ele>
        <time>2021-08-30T07:22:14Z</time>
      </trkpt>
      <trkpt lat="44.62542" lon="2.55403">
        <ele>558</ele>
        <time>2021-08-30T07:22:16Z</time>
      </trkpt>
      <trkpt lat="44.62548" lon="2.55405">
        <ele>558</ele>
        <time>2021-08-30T07:22:17Z</time>
      </trkpt>
      <trkpt lat="44.62565" lon="2.55412">
        <ele>558</ele>
        <time>2021-08-30T07:22:20Z</time>
      </trkpt>
      <trkpt lat="44.62583" lon="2.55413">
        <ele>561</ele>
        <time>2021-08-30T07:22:22Z</time>
      </trkpt>
      <trkpt lat="44.62593" lon="2.55411">
        <ele>562</ele>
        <time>2021-08-30T07:22:23Z</time>
      </trkpt>
      <trkpt lat="44.626" lon="2.55406">
        <ele>561</ele>
        <time>2021-08-30T07:22:24Z</time>
      </trkpt>
      <trkpt lat="44.62648" lon="2.55303">
        <ele>557</ele>
        <time>2021-08-30T07:22:34Z</time>
      </trkpt>
      <trkpt lat="44.62652" lon="2.55282">
        <ele>556</ele>
        <time>2021-08-30T07:22:36Z</time>
      </trkpt>
      <trkpt lat="44.62647" lon="2.55217">
        <ele>549</ele>
        <time>2021-08-30T07:22:43Z</time>
      </trkpt>
      <trkpt lat="44.62658" lon="2.55144">
        <ele>543</ele>
        <time>2021-08-30T07:22:50Z</time>
      </trkpt>
      <trkpt lat="44.62664" lon="2.55117">
        <ele>541</ele>
        <time>2021-08-30T07:22:53Z</time>
      </trkpt>
      <trkpt lat="44.62668" lon="2.55109">
        <ele>540</ele>
        <time>2021-08-30T07:22:54Z</time>
      </trkpt>
      <trkpt lat="44.62673" lon="2.551">
        <ele>540</ele>
        <time>2021-08-30T07:22:55Z</time>
      </trkpt>
      <trkpt lat="44.62681" lon="2.55092">
        <ele>541</ele>
        <time>2021-08-30T07:22:56Z</time>
      </trkpt>
      <trkpt lat="44.62769" lon="2.55078">
        <ele>539</ele>
        <time>2021-08-30T07:23:08Z</time>
      </trkpt>
      <trkpt lat="44.62774" lon="2.55078">
        <ele>538</ele>
        <time>2021-08-30T07:23:09Z</time>
      </trkpt>
      <trkpt lat="44.628" lon="2.55113">
        <ele>537</ele>
        <time>2021-08-30T07:23:15Z</time>
      </trkpt>
      <trkpt lat="44.62811" lon="2.55124">
        <ele>537</ele>
        <time>2021-08-30T07:23:17Z</time>
      </trkpt>
      <trkpt lat="44.62826" lon="2.5513">
        <ele>536</ele>
        <time>2021-08-30T07:23:19Z</time>
      </trkpt>
      <trkpt lat="44.62835" lon="2.55131">
        <ele>536</ele>
        <time>2021-08-30T07:23:20Z</time>
      </trkpt>
      <trkpt lat="44.62854" lon="2.55126">
        <ele>536</ele>
        <time>2021-08-30T07:23:22Z</time>
      </trkpt>
      <trkpt lat="44.62878" lon="2.55109">
        <ele>536</ele>
        <time>2021-08-30T07:23:25Z</time>
      </trkpt>
      <trkpt lat="44.62894" lon="2.55084">
        <ele>535</ele>
        <time>2021-08-30T07:23:28Z</time>
      </trkpt>
      <trkpt lat="44.62907" lon="2.55053">
        <ele>535</ele>
        <time>2021-08-30T07:23:31Z</time>
      </trkpt>
      <trkpt lat="44.6297" lon="2.5499">
        <ele>529</ele>
        <time>2021-08-30T07:23:40Z</time>
      </trkpt>
      <trkpt lat="44.6298" lon="2.54945">
        <ele>526</ele>
        <time>2021-08-30T07:23:44Z</time>
      </trkpt>
      <trkpt lat="44.62997" lon="2.54921">
        <ele>524</ele>
        <time>2021-08-30T07:23:47Z</time>
      </trkpt>
      <trkpt lat="44.63057" lon="2.54888">
        <ele>521</ele>
        <time>2021-08-30T07:23:55Z</time>
      </trkpt>
      <trkpt lat="44.63068" lon="2.54877">
        <ele>520</ele>
        <time>2021-08-30T07:23:57Z</time>
      </trkpt>
      <trkpt lat="44.63102" lon="2.54838">
        <ele>519</ele>
        <time>2021-08-30T07:24:02Z</time>
      </trkpt>
      <trkpt lat="44.63108" lon="2.54828">
        <ele>518</ele>
        <time>2021-08-30T07:24:03Z</time>
      </trkpt>
      <trkpt lat="44.63124" lon="2.54785">
        <ele>515</ele>
        <time>2021-08-30T07:24:07Z</time>
      </trkpt>
      <trkpt lat="44.63133" lon="2.54765">
        <ele>514</ele>
        <time>2021-08-30T07:24:09Z</time>
      </trkpt>
      <trkpt lat="44.63159" lon="2.54733">
        <ele>514</ele>
        <time>2021-08-30T07:24:13Z</time>
      </trkpt>
      <trkpt lat="44.63199" lon="2.54654">
        <ele>508</ele>
        <time>2021-08-30T07:24:21Z</time>
      </trkpt>
      <trkpt lat="44.63267" lon="2.54559">
        <ele>506</ele>
        <time>2021-08-30T07:24:32Z</time>
      </trkpt>
      <trkpt lat="44.63272" lon="2.5455">
        <ele>506</ele>
        <time>2021-08-30T07:24:33Z</time>
      </trkpt>
      <trkpt lat="44.63276" lon="2.5454">
        <ele>506</ele>
        <time>2021-08-30T07:24:34Z</time>
      </trkpt>
      <trkpt lat="44.63284" lon="2.54461">
        <ele>501</ele>
        <time>2021-08-30T07:24:41Z</time>
      </trkpt>
      <trkpt lat="44.63301" lon="2.54421">
        <ele>500</ele>
        <time>2021-08-30T07:24:45Z</time>
      </trkpt>
      <trkpt lat="44.6333" lon="2.54366">
        <ele>497</ele>
        <time>2021-08-30T07:24:51Z</time>
      </trkpt>
      <trkpt lat="44.63337" lon="2.54349">
        <ele>496</ele>
        <time>2021-08-30T07:24:53Z</time>
      </trkpt>
      <trkpt lat="44.63339" lon="2.5434">
        <ele>495</ele>
        <time>2021-08-30T07:24:54Z</time>
      </trkpt>
      <trkpt lat="44.63339" lon="2.5433">
        <ele>495</ele>
        <time>2021-08-30T07:24:55Z</time>
      </trkpt>
      <trkpt lat="44.63327" lon="2.54285">
        <ele>495</ele>
        <time>2021-08-30T07:24:59Z</time>
      </trkpt>
      <trkpt lat="44.63315" lon="2.54254">
        <ele>493</ele>
        <time>2021-08-30T07:25:02Z</time>
      </trkpt>
      <trkpt lat="44.63312" lon="2.54219">
        <ele>492</ele>
        <time>2021-08-30T07:25:05Z</time>
      </trkpt>
      <trkpt lat="44.63312" lon="2.54207">
        <ele>491</ele>
        <time>2021-08-30T07:25:06Z</time>
      </trkpt>
      <trkpt lat="44.63364" lon="2.54069">
        <ele>482</ele>
        <time>2021-08-30T07:25:19Z</time>
      </trkpt>
      <trkpt lat="44.63376" lon="2.54048">
        <ele>483</ele>
        <time>2021-08-30T07:25:21Z</time>
      </trkpt>
      <trkpt lat="44.63471" lon="2.53988">
        <ele>477</ele>
        <time>2021-08-30T07:25:33Z</time>
      </trkpt>
      <trkpt lat="44.63491" lon="2.53981">
        <ele>475</ele>
        <time>2021-08-30T07:25:36Z</time>
      </trkpt>
      <trkpt lat="44.63497" lon="2.53983">
        <ele>474</ele>
        <time>2021-08-30T07:25:37Z</time>
      </trkpt>
      <trkpt lat="44.63509" lon="2.53991">
        <ele>472</ele>
        <time>2021-08-30T07:25:39Z</time>
      </trkpt>
      <trkpt lat="44.63534" lon="2.54027">
        <ele>470</ele>
        <time>2021-08-30T07:25:44Z</time>
      </trkpt>
      <trkpt lat="44.63549" lon="2.54046">
        <ele>468</ele>
        <time>2021-08-30T07:25:47Z</time>
      </trkpt>
      <trkpt lat="44.6356" lon="2.54053">
        <ele>467</ele>
        <time>2021-08-30T07:25:49Z</time>
      </trkpt>
      <trkpt lat="44.63575" lon="2.54056">
        <ele>466</ele>
        <time>2021-08-30T07:25:51Z</time>
      </trkpt>
      <trkpt lat="44.6359" lon="2.54052">
        <ele>463</ele>
        <time>2021-08-30T07:25:53Z</time>
      </trkpt>
      <trkpt lat="44.63635" lon="2.54021">
        <ele>458</ele>
        <time>2021-08-30T07:25:59Z</time>
      </trkpt>
      <trkpt lat="44.63642" lon="2.54017">
        <ele>458</ele>
        <time>2021-08-30T07:26:00Z</time>
      </trkpt>
      <trkpt lat="44.6365" lon="2.54016">
        <ele>457</ele>
        <time>2021-08-30T07:26:01Z</time>
      </trkpt>
      <trkpt lat="44.63661" lon="2.54019">
        <ele>457</ele>
        <time>2021-08-30T07:26:03Z</time>
      </trkpt>
      <trkpt lat="44.63669" lon="2.54032">
        <ele>457</ele>
        <time>2021-08-30T07:26:05Z</time>
      </trkpt>
      <trkpt lat="44.63671" lon="2.54047">
        <ele>457</ele>
        <time>2021-08-30T07:26:06Z</time>
      </trkpt>
      <trkpt lat="44.63672" lon="2.54085">
        <ele>456</ele>
        <time>2021-08-30T07:26:09Z</time>
      </trkpt>
      <trkpt lat="44.63673" lon="2.54093">
        <ele>455</ele>
        <time>2021-08-30T07:26:10Z</time>
      </trkpt>
      <trkpt lat="44.63677" lon="2.54101">
        <ele>455</ele>
        <time>2021-08-30T07:26:12Z</time>
      </trkpt>
      <trkpt lat="44.63683" lon="2.54101">
        <ele>455</ele>
        <time>2021-08-30T07:26:14Z</time>
      </trkpt>
      <trkpt lat="44.63703" lon="2.54091">
        <ele>453</ele>
        <time>2021-08-30T07:26:18Z</time>
      </trkpt>
      <trkpt lat="44.63714" lon="2.54092">
        <ele>449</ele>
        <time>2021-08-30T07:26:20Z</time>
      </trkpt>
      <trkpt lat="44.63734" lon="2.54105">
        <ele>445</ele>
        <time>2021-08-30T07:26:23Z</time>
      </trkpt>
      <trkpt lat="44.63745" lon="2.54117">
        <ele>444</ele>
        <time>2021-08-30T07:26:25Z</time>
      </trkpt>
      <trkpt lat="44.63758" lon="2.54134">
        <ele>443</ele>
        <time>2021-08-30T07:26:28Z</time>
      </trkpt>
      <trkpt lat="44.63774" lon="2.54146">
        <ele>442</ele>
        <time>2021-08-30T07:26:30Z</time>
      </trkpt>
      <trkpt lat="44.63789" lon="2.54153">
        <ele>442</ele>
        <time>2021-08-30T07:26:32Z</time>
      </trkpt>
      <trkpt lat="44.63807" lon="2.54156">
        <ele>440</ele>
        <time>2021-08-30T07:26:35Z</time>
      </trkpt>
      <trkpt lat="44.63813" lon="2.54159">
        <ele>438</ele>
        <time>2021-08-30T07:26:36Z</time>
      </trkpt>
      <trkpt lat="44.63817" lon="2.54163">
        <ele>435</ele>
        <time>2021-08-30T07:26:37Z</time>
      </trkpt>
      <trkpt lat="44.63838" lon="2.54183">
        <ele>426</ele>
        <time>2021-08-30T07:26:42Z</time>
      </trkpt>
      <trkpt lat="44.63861" lon="2.5423">
        <ele>420</ele>
        <time>2021-08-30T07:26:47Z</time>
      </trkpt>
      <trkpt lat="44.63865" lon="2.54236">
        <ele>419</ele>
        <time>2021-08-30T07:26:48Z</time>
      </trkpt>
      <trkpt lat="44.63872" lon="2.54242">
        <ele>420</ele>
        <time>2021-08-30T07:26:49Z</time>
      </trkpt>
      <trkpt lat="44.6388" lon="2.54245">
        <ele>423</ele>
        <time>2021-08-30T07:26:50Z</time>
      </trkpt>
      <trkpt lat="44.63937" lon="2.54241">
        <ele>426</ele>
        <time>2021-08-30T07:26:57Z</time>
      </trkpt>
      <trkpt lat="44.6395" lon="2.54245">
        <ele>425</ele>
        <time>2021-08-30T07:26:59Z</time>
      </trkpt>
      <trkpt lat="44.63961" lon="2.54254">
        <ele>423</ele>
        <time>2021-08-30T07:27:01Z</time>
      </trkpt>
      <trkpt lat="44.63975" lon="2.54268">
        <ele>421</ele>
        <time>2021-08-30T07:27:04Z</time>
      </trkpt>
      <trkpt lat="44.63979" lon="2.54273">
        <ele>420</ele>
        <time>2021-08-30T07:27:05Z</time>
      </trkpt>
      <trkpt lat="44.64003" lon="2.5434">
        <ele>413</ele>
        <time>2021-08-30T07:27:12Z</time>
      </trkpt>
      <trkpt lat="44.64004" lon="2.5435">
        <ele>411</ele>
        <time>2021-08-30T07:27:13Z</time>
      </trkpt>
      <trkpt lat="44.64002" lon="2.54361">
        <ele>410</ele>
        <time>2021-08-30T07:27:14Z</time>
      </trkpt>
      <trkpt lat="44.63998" lon="2.5437">
        <ele>409</ele>
        <time>2021-08-30T07:27:15Z</time>
      </trkpt>
      <trkpt lat="44.63979" lon="2.54388">
        <ele>406</ele>
        <time>2021-08-30T07:27:18Z</time>
      </trkpt>
      <trkpt lat="44.63966" lon="2.54396">
        <ele>404</ele>
        <time>2021-08-30T07:27:20Z</time>
      </trkpt>
      <trkpt lat="44.63961" lon="2.54401">
        <ele>403</ele>
        <time>2021-08-30T07:27:21Z</time>
      </trkpt>
      <trkpt lat="44.63958" lon="2.54408">
        <ele>403</ele>
        <time>2021-08-30T07:27:22Z</time>
      </trkpt>
      <trkpt lat="44.63957" lon="2.54417">
        <ele>402</ele>
        <time>2021-08-30T07:27:23Z</time>
      </trkpt>
      <trkpt lat="44.63959" lon="2.54427">
        <ele>402</ele>
        <time>2021-08-30T07:27:24Z</time>
      </trkpt>
      <trkpt lat="44.63994" lon="2.54505">
        <ele>399</ele>
        <time>2021-08-30T07:27:33Z</time>
      </trkpt>
      <trkpt lat="44.64005" lon="2.54517">
        <ele>402</ele>
        <time>2021-08-30T07:27:35Z</time>
      </trkpt>
      <trkpt lat="44.64014" lon="2.54524">
        <ele>400</ele>
        <time>2021-08-30T07:27:37Z</time>
      </trkpt>
      <trkpt lat="44.64028" lon="2.54555">
        <ele>389</ele>
        <time>2021-08-30T07:27:41Z</time>
      </trkpt>
      <trkpt lat="44.64031" lon="2.54575">
        <ele>387</ele>
        <time>2021-08-30T07:27:43Z</time>
      </trkpt>
      <trkpt lat="44.64029" lon="2.54597">
        <ele>386</ele>
        <time>2021-08-30T07:27:45Z</time>
      </trkpt>
      <trkpt lat="44.64021" lon="2.54634">
        <ele>386</ele>
        <time>2021-08-30T07:27:49Z</time>
      </trkpt>
      <trkpt lat="44.64013" lon="2.54713">
        <ele>385</ele>
        <time>2021-08-30T07:27:56Z</time>
      </trkpt>
      <trkpt lat="44.64015" lon="2.54732">
        <ele>387</ele>
        <time>2021-08-30T07:27:58Z</time>
      </trkpt>
      <trkpt lat="44.64019" lon="2.54748">
        <ele>387</ele>
        <time>2021-08-30T07:28:00Z</time>
      </trkpt>
      <trkpt lat="44.64021" lon="2.54754">
        <ele>386</ele>
        <time>2021-08-30T07:28:01Z</time>
      </trkpt>
      <trkpt lat="44.64039" lon="2.5477">
        <ele>384</ele>
        <time>2021-08-30T07:28:05Z</time>
      </trkpt>
      <trkpt lat="44.64048" lon="2.54783">
        <ele>383</ele>
        <time>2021-08-30T07:28:07Z</time>
      </trkpt>
      <trkpt lat="44.64073" lon="2.54849">
        <ele>381</ele>
        <time>2021-08-30T07:28:14Z</time>
      </trkpt>
      <trkpt lat="44.64074" lon="2.54859">
        <ele>381</ele>
        <time>2021-08-30T07:28:15Z</time>
      </trkpt>
      <trkpt lat="44.6407" lon="2.54878">
        <ele>382</ele>
        <time>2021-08-30T07:28:17Z</time>
      </trkpt>
      <trkpt lat="44.64046" lon="2.54917">
        <ele>380</ele>
        <time>2021-08-30T07:28:22Z</time>
      </trkpt>
      <trkpt lat="44.63977" lon="2.54984">
        <ele>373</ele>
        <time>2021-08-30T07:28:35Z</time>
      </trkpt>
      <trkpt lat="44.63968" lon="2.54993">
        <ele>372</ele>
        <time>2021-08-30T07:28:37Z</time>
      </trkpt>
      <trkpt lat="44.6396" lon="2.54999">
        <ele>371</ele>
        <time>2021-08-30T07:28:39Z</time>
      </trkpt>
      <trkpt lat="44.63955" lon="2.55006">
        <ele>371</ele>
        <time>2021-08-30T07:28:41Z</time>
      </trkpt>
      <trkpt lat="44.63953" lon="2.55016">
        <ele>372</ele>
        <time>2021-08-30T07:28:43Z</time>
      </trkpt>
      <trkpt lat="44.63952" lon="2.55042">
        <ele>376</ele>
        <time>2021-08-30T07:28:47Z</time>
      </trkpt>
      <trkpt lat="44.63947" lon="2.5506">
        <ele>377</ele>
        <time>2021-08-30T07:28:50Z</time>
      </trkpt>
      <trkpt lat="44.63932" lon="2.55081">
        <ele>376</ele>
        <time>2021-08-30T07:28:54Z</time>
      </trkpt>
      <trkpt lat="44.63922" lon="2.55089">
        <ele>375</ele>
        <time>2021-08-30T07:28:56Z</time>
      </trkpt>
      <trkpt lat="44.63918" lon="2.55093">
        <ele>374</ele>
        <time>2021-08-30T07:28:57Z</time>
      </trkpt>
      <trkpt lat="44.63915" lon="2.55102">
        <ele>374</ele>
        <time>2021-08-30T07:28:59Z</time>
      </trkpt>
      <trkpt lat="44.63915" lon="2.55127">
        <ele>375</ele>
        <time>2021-08-30T07:29:03Z</time>
      </trkpt>
      <trkpt lat="44.63917" lon="2.55145">
        <ele>375</ele>
        <time>2021-08-30T07:29:07Z</time>
      </trkpt>
      <trkpt lat="44.63919" lon="2.55176">
        <ele>373</ele>
        <time>2021-08-30T07:29:13Z</time>
      </trkpt>
      <trkpt lat="44.63916" lon="2.55195">
        <ele>372</ele>
        <time>2021-08-30T07:29:17Z</time>
      </trkpt>
      <trkpt lat="44.63892" lon="2.55232">
        <ele>367</ele>
        <time>2021-08-30T07:29:27Z</time>
      </trkpt>
      <trkpt lat="44.63888" lon="2.55239">
        <ele>365</ele>
        <time>2021-08-30T07:29:29Z</time>
      </trkpt>
      <trkpt lat="44.63882" lon="2.55244">
        <ele>363</ele>
        <time>2021-08-30T07:29:31Z</time>
      </trkpt>
      <trkpt lat="44.63878" lon="2.55251">
        <ele>362</ele>
        <time>2021-08-30T07:29:33Z</time>
      </trkpt>
      <trkpt lat="44.63867" lon="2.55264">
        <ele>360</ele>
        <time>2021-08-30T07:29:36Z</time>
      </trkpt>
      <trkpt lat="44.63849" lon="2.55288">
        <ele>358</ele>
        <time>2021-08-30T07:29:41Z</time>
      </trkpt>
      <trkpt lat="44.63843" lon="2.55304">
        <ele>357</ele>
        <time>2021-08-30T07:29:43Z</time>
      </trkpt>
      <trkpt lat="44.63841" lon="2.55331">
        <ele>356</ele>
        <time>2021-08-30T07:29:46Z</time>
      </trkpt>
      <trkpt lat="44.63815" lon="2.55381">
        <ele>352</ele>
        <time>2021-08-30T07:29:53Z</time>
      </trkpt>
      <trkpt lat="44.63806" lon="2.55392">
        <ele>351</ele>
        <time>2021-08-30T07:29:55Z</time>
      </trkpt>
      <trkpt lat="44.63769" lon="2.55421">
        <ele>345</ele>
        <time>2021-08-30T07:30:01Z</time>
      </trkpt>
      <trkpt lat="44.63746" lon="2.55441">
        <ele>342</ele>
        <time>2021-08-30T07:30:04Z</time>
      </trkpt>
      <trkpt lat="44.63735" lon="2.55459">
        <ele>340</ele>
        <time>2021-08-30T07:30:06Z</time>
      </trkpt>
      <trkpt lat="44.63731" lon="2.55467">
        <ele>339</ele>
        <time>2021-08-30T07:30:07Z</time>
      </trkpt>
      <trkpt lat="44.63723" lon="2.55509">
        <ele>336</ele>
        <time>2021-08-30T07:30:12Z</time>
      </trkpt>
      <trkpt lat="44.63703" lon="2.55565">
        <ele>334</ele>
        <time>2021-08-30T07:30:18Z</time>
      </trkpt>
      <trkpt lat="44.63699" lon="2.5559">
        <ele>335</ele>
        <time>2021-08-30T07:30:20Z</time>
      </trkpt>
      <trkpt lat="44.63699" lon="2.55606">
        <ele>335</ele>
        <time>2021-08-30T07:30:21Z</time>
      </trkpt>
      <trkpt lat="44.63701" lon="2.55617">
        <ele>335</ele>
        <time>2021-08-30T07:30:22Z</time>
      </trkpt>
      <trkpt lat="44.63709" lon="2.55638">
        <ele>334</ele>
        <time>2021-08-30T07:30:24Z</time>
      </trkpt>
      <trkpt lat="44.63728" lon="2.55654">
        <ele>334</ele>
        <time>2021-08-30T07:30:27Z</time>
      </trkpt>
      <trkpt lat="44.63738" lon="2.55666">
        <ele>334</ele>
        <time>2021-08-30T07:30:29Z</time>
      </trkpt>
      <trkpt lat="44.63739" lon="2.55674">
        <ele>334</ele>
        <time>2021-08-30T07:30:30Z</time>
      </trkpt>
      <trkpt lat="44.63738" lon="2.55695">
        <ele>330</ele>
        <time>2021-08-30T07:30:32Z</time>
      </trkpt>
      <trkpt lat="44.63732" lon="2.55705">
        <ele>326</ele>
        <time>2021-08-30T07:30:33Z</time>
      </trkpt>
      <trkpt lat="44.63698" lon="2.55758">
        <ele>320</ele>
        <time>2021-08-30T07:30:39Z</time>
      </trkpt>
      <trkpt lat="44.63694" lon="2.55766">
        <ele>319</ele>
        <time>2021-08-30T07:30:40Z</time>
      </trkpt>
      <trkpt lat="44.6369" lon="2.55804">
        <ele>321</ele>
        <time>2021-08-30T07:30:44Z</time>
      </trkpt>
      <trkpt lat="44.63691" lon="2.55814">
        <ele>322</ele>
        <time>2021-08-30T07:30:45Z</time>
      </trkpt>
      <trkpt lat="44.63693" lon="2.55823">
        <ele>321</ele>
        <time>2021-08-30T07:30:46Z</time>
      </trkpt>
      <trkpt lat="44.63714" lon="2.55854">
        <ele>318</ele>
        <time>2021-08-30T07:30:51Z</time>
      </trkpt>
      <trkpt lat="44.63728" lon="2.55888">
        <ele>315</ele>
        <time>2021-08-30T07:30:57Z</time>
      </trkpt>
      <trkpt lat="44.63734" lon="2.55895">
        <ele>314</ele>
        <time>2021-08-30T07:30:59Z</time>
      </trkpt>
      <trkpt lat="44.63742" lon="2.55911">
        <ele>311</ele>
        <time>2021-08-30T07:31:03Z</time>
      </trkpt>
      <trkpt lat="44.63745" lon="2.55919">
        <ele>310</ele>
        <time>2021-08-30T07:31:05Z</time>
      </trkpt>
      <trkpt lat="44.63747" lon="2.55925">
        <ele>309</ele>
        <time>2021-08-30T07:31:07Z</time>
      </trkpt>
      <trkpt lat="44.6375" lon="2.55932">
        <ele>308</ele>
        <time>2021-08-30T07:31:10Z</time>
      </trkpt>
      <trkpt lat="44.63747" lon="2.55937">
        <ele>310</ele>
        <time>2021-08-30T07:33:31Z</time>
      </trkpt>
      <trkpt lat="44.63743" lon="2.5594">
        <ele>311</ele>
        <time>2021-08-30T07:33:33Z</time>
      </trkpt>
      <trkpt lat="44.63738" lon="2.55944">
        <ele>312</ele>
        <time>2021-08-30T07:33:36Z</time>
      </trkpt>
      <trkpt lat="44.63722" lon="2.55945">
        <ele>313</ele>
        <time>2021-08-30T07:33:45Z</time>
      </trkpt>
      <trkpt lat="44.63718" lon="2.55948">
        <ele>313</ele>
        <time>2021-08-30T07:33:47Z</time>
      </trkpt>
      <trkpt lat="44.63714" lon="2.55954">
        <ele>313</ele>
        <time>2021-08-30T07:33:49Z</time>
      </trkpt>
      <trkpt lat="44.63704" lon="2.56007">
        <ele>312</ele>
        <time>2021-08-30T07:34:01Z</time>
      </trkpt>
      <trkpt lat="44.63704" lon="2.56026">
        <ele>313</ele>
        <time>2021-08-30T07:34:04Z</time>
      </trkpt>
      <trkpt lat="44.63708" lon="2.56052">
        <ele>312</ele>
        <time>2021-08-30T07:34:08Z</time>
      </trkpt>
      <trkpt lat="44.63728" lon="2.56106">
        <ele>309</ele>
        <time>2021-08-30T07:34:15Z</time>
      </trkpt>
      <trkpt lat="44.63729" lon="2.56114">
        <ele>309</ele>
        <time>2021-08-30T07:34:16Z</time>
      </trkpt>
      <trkpt lat="44.63727" lon="2.56122">
        <ele>307</ele>
        <time>2021-08-30T07:34:17Z</time>
      </trkpt>
      <trkpt lat="44.63723" lon="2.56131">
        <ele>306</ele>
        <time>2021-08-30T07:34:18Z</time>
      </trkpt>
      <trkpt lat="44.63703" lon="2.56145">
        <ele>302</ele>
        <time>2021-08-30T07:34:21Z</time>
      </trkpt>
      <trkpt lat="44.63693" lon="2.56158">
        <ele>300</ele>
        <time>2021-08-30T07:34:23Z</time>
      </trkpt>
      <trkpt lat="44.63688" lon="2.56167">
        <ele>300</ele>
        <time>2021-08-30T07:34:24Z</time>
      </trkpt>
      <trkpt lat="44.63686" lon="2.56177">
        <ele>301</ele>
        <time>2021-08-30T07:34:25Z</time>
      </trkpt>
      <trkpt lat="44.63688" lon="2.56188">
        <ele>301</ele>
        <time>2021-08-30T07:34:26Z</time>
      </trkpt>
      <trkpt lat="44.63709" lon="2.56231">
        <ele>300</ele>
        <time>2021-08-30T07:34:31Z</time>
      </trkpt>
      <trkpt lat="44.63713" lon="2.56252">
        <ele>299</ele>
        <time>2021-08-30T07:34:33Z</time>
      </trkpt>
      <trkpt lat="44.63709" lon="2.56306">
        <ele>297</ele>
        <time>2021-08-30T07:34:38Z</time>
      </trkpt>
      <trkpt lat="44.6371" lon="2.56316">
        <ele>297</ele>
        <time>2021-08-30T07:34:39Z</time>
      </trkpt>
      <trkpt lat="44.63723" lon="2.56341">
        <ele>296</ele>
        <time>2021-08-30T07:34:42Z</time>
      </trkpt>
      <trkpt lat="44.63738" lon="2.56361">
        <ele>294</ele>
        <time>2021-08-30T07:34:45Z</time>
      </trkpt>
      <trkpt lat="44.63745" lon="2.56382">
        <ele>291</ele>
        <time>2021-08-30T07:34:47Z</time>
      </trkpt>
      <trkpt lat="44.63744" lon="2.56475">
        <ele>286</ele>
        <time>2021-08-30T07:34:55Z</time>
      </trkpt>
      <trkpt lat="44.63748" lon="2.56524">
        <ele>284</ele>
        <time>2021-08-30T07:34:59Z</time>
      </trkpt>
      <trkpt lat="44.6378" lon="2.56611">
        <ele>281</ele>
        <time>2021-08-30T07:35:07Z</time>
      </trkpt>
      <trkpt lat="44.63799" lon="2.56703">
        <ele>281</ele>
        <time>2021-08-30T07:35:16Z</time>
      </trkpt>
      <trkpt lat="44.63831" lon="2.56783">
        <ele>279</ele>
        <time>2021-08-30T07:35:24Z</time>
      </trkpt>
      <trkpt lat="44.6384" lon="2.56832">
        <ele>279</ele>
        <time>2021-08-30T07:35:29Z</time>
      </trkpt>
      <trkpt lat="44.63844" lon="2.56839">
        <ele>279</ele>
        <time>2021-08-30T07:35:30Z</time>
      </trkpt>
      <trkpt lat="44.6385" lon="2.56844">
        <ele>277</ele>
        <time>2021-08-30T07:35:31Z</time>
      </trkpt>
      <trkpt lat="44.63882" lon="2.56856">
        <ele>275</ele>
        <time>2021-08-30T07:35:35Z</time>
      </trkpt>
      <trkpt lat="44.63964" lon="2.56863">
        <ele>268</ele>
        <time>2021-08-30T07:35:45Z</time>
      </trkpt>
      <trkpt lat="44.63991" lon="2.56857">
        <ele>270</ele>
        <time>2021-08-30T07:35:49Z</time>
      </trkpt>
      <trkpt lat="44.63997" lon="2.56854">
        <ele>270</ele>
        <time>2021-08-30T07:35:50Z</time>
      </trkpt>
      <trkpt lat="44.64004" lon="2.56844">
        <ele>269</ele>
        <time>2021-08-30T07:35:52Z</time>
      </trkpt>
      <trkpt lat="44.64008" lon="2.56834">
        <ele>265</ele>
        <time>2021-08-30T07:35:54Z</time>
      </trkpt>
      <trkpt lat="44.64041" lon="2.56796">
        <ele>262</ele>
        <time>2021-08-30T07:36:02Z</time>
      </trkpt>
      <trkpt lat="44.64086" lon="2.56728">
        <ele>259</ele>
        <time>2021-08-30T07:36:14Z</time>
      </trkpt>
      <trkpt lat="44.64095" lon="2.5672">
        <ele>259</ele>
        <time>2021-08-30T07:36:16Z</time>
      </trkpt>
      <trkpt lat="44.64099" lon="2.56717">
        <ele>259</ele>
        <time>2021-08-30T07:36:17Z</time>
      </trkpt>
      <trkpt lat="44.64115" lon="2.56717">
        <ele>259</ele>
        <time>2021-08-30T07:36:21Z</time>
      </trkpt>
      <trkpt lat="44.64123" lon="2.56721">
        <ele>258</ele>
        <time>2021-08-30T07:36:23Z</time>
      </trkpt>
      <trkpt lat="44.64129" lon="2.56725">
        <ele>256</ele>
        <time>2021-08-30T07:36:25Z</time>
      </trkpt>
      <trkpt lat="44.64141" lon="2.5674">
        <ele>254</ele>
        <time>2021-08-30T07:36:28Z</time>
      </trkpt>
      <trkpt lat="44.64147" lon="2.56754">
        <ele>253</ele>
        <time>2021-08-30T07:36:30Z</time>
      </trkpt>
      <trkpt lat="44.64149" lon="2.5677">
        <ele>252</ele>
        <time>2021-08-30T07:36:32Z</time>
      </trkpt>
      <trkpt lat="44.64147" lon="2.56787">
        <ele>252</ele>
        <time>2021-08-30T07:36:34Z</time>
      </trkpt>
      <trkpt lat="44.64142" lon="2.56802">
        <ele>252</ele>
        <time>2021-08-30T07:36:36Z</time>
      </trkpt>
      <trkpt lat="44.64138" lon="2.56808">
        <ele>251</ele>
        <time>2021-08-30T07:36:37Z</time>
      </trkpt>
      <trkpt lat="44.64092" lon="2.56833">
        <ele>246</ele>
        <time>2021-08-30T07:36:44Z</time>
      </trkpt>
      <trkpt lat="44.64073" lon="2.56853">
        <ele>244</ele>
        <time>2021-08-30T07:36:47Z</time>
      </trkpt>
      <trkpt lat="44.64023" lon="2.56925">
        <ele>241</ele>
        <time>2021-08-30T07:36:57Z</time>
      </trkpt>
      <trkpt lat="44.64004" lon="2.5694">
        <ele>239</ele>
        <time>2021-08-30T07:37:01Z</time>
      </trkpt>
      <trkpt lat="44.64001" lon="2.56945">
        <ele>239</ele>
        <time>2021-08-30T07:37:02Z</time>
      </trkpt>
      <trkpt lat="44.63999" lon="2.56951">
        <ele>238</ele>
        <time>2021-08-30T07:37:03Z</time>
      </trkpt>
      <trkpt lat="44.63999" lon="2.56965">
        <ele>237</ele>
        <time>2021-08-30T07:37:05Z</time>
      </trkpt>
      <trkpt lat="44.64" lon="2.56972">
        <ele>237</ele>
        <time>2021-08-30T07:37:06Z</time>
      </trkpt>
      <trkpt lat="44.64004" lon="2.56982">
        <ele>238</ele>
        <time>2021-08-30T07:37:08Z</time>
      </trkpt>
      <trkpt lat="44.64029" lon="2.57069">
        <ele>238</ele>
        <time>2021-08-30T07:37:25Z</time>
      </trkpt>
      <trkpt lat="44.64033" lon="2.57073">
        <ele>236</ele>
        <time>2021-08-30T07:37:29Z</time>
      </trkpt>
      <trkpt lat="44.64038" lon="2.57074">
        <ele>231</ele>
        <time>2021-08-30T07:37:31Z</time>
      </trkpt>
      <trkpt lat="44.64061" lon="2.57072">
        <ele>221</ele>
        <time>2021-08-30T07:37:53Z</time>
      </trkpt>
      <trkpt lat="44.64198" lon="2.56921">
        <ele>223</ele>
        <time>2021-08-30T07:38:23Z</time>
      </trkpt>
      <trkpt lat="44.64307" lon="2.56752">
        <ele>224</ele>
        <time>2021-08-30T07:38:53Z</time>
      </trkpt>
      <trkpt lat="44.64355" lon="2.56678">
        <ele>222</ele>
        <time>2021-08-30T07:39:08Z</time>
      </trkpt>
      <trkpt lat="44.64396" lon="2.56574">
        <ele>220</ele>
        <time>2021-08-30T07:39:28Z</time>
      </trkpt>
      <trkpt lat="44.64399" lon="2.56568">
        <ele>220</ele>
        <time>2021-08-30T07:39:30Z</time>
      </trkpt>
      <trkpt lat="44.64409" lon="2.5656">
        <ele>220</ele>
        <time>2021-08-30T07:39:50Z</time>
      </trkpt>
      <trkpt lat="44.6441" lon="2.56551">
        <ele>220</ele>
        <time>2021-08-30T07:39:53Z</time>
      </trkpt>
      <trkpt lat="44.6441" lon="2.56544">
        <ele>222</ele>
        <time>2021-08-30T07:39:56Z</time>
      </trkpt>
      <trkpt lat="44.64419" lon="2.56531">
        <ele>224</ele>
        <time>2021-08-30T07:40:03Z</time>
      </trkpt>
      <trkpt lat="44.64424" lon="2.56527">
        <ele>224</ele>
        <time>2021-08-30T07:40:05Z</time>
      </trkpt>
      <trkpt lat="44.64427" lon="2.56521">
        <ele>225</ele>
        <time>2021-08-30T07:40:08Z</time>
      </trkpt>
      <trkpt lat="44.64431" lon="2.56516">
        <ele>224</ele>
        <time>2021-08-30T07:40:13Z</time>
      </trkpt>
      <trkpt lat="44.64447" lon="2.56513">
        <ele>218</ele>
        <time>2021-08-30T07:40:23Z</time>
      </trkpt>
      <trkpt lat="44.64446" lon="2.56507">
        <ele>215</ele>
        <time>2021-08-30T07:40:27Z</time>
      </trkpt>
      <trkpt lat="44.64441" lon="2.56505">
        <ele>209</ele>
        <time>2021-08-30T07:40:53Z</time>
      </trkpt>
      <trkpt lat="44.64437" lon="2.56492">
        <ele>209</ele>
        <time>2021-08-30T07:41:03Z</time>
      </trkpt>
      <trkpt lat="44.64445" lon="2.56478">
        <ele>210</ele>
        <time>2021-08-30T07:41:09Z</time>
      </trkpt>
      <trkpt lat="44.64458" lon="2.5644">
        <ele>208</ele>
        <time>2021-08-30T07:41:22Z</time>
      </trkpt>
      <trkpt lat="44.64468" lon="2.56434">
        <ele>211</ele>
        <time>2021-08-30T07:41:27Z</time>
      </trkpt>
      <trkpt lat="44.64499" lon="2.56442">
        <ele>214</ele>
        <time>2021-08-30T07:41:54Z</time>
      </trkpt>
      <trkpt lat="44.64505" lon="2.56439">
        <ele>214</ele>
        <time>2021-08-30T07:41:56Z</time>
      </trkpt>
      <trkpt lat="44.64568" lon="2.56473">
        <ele>219</ele>
        <time>2021-08-30T07:42:22Z</time>
      </trkpt>
      <trkpt lat="44.64574" lon="2.56488">
        <ele>221</ele>
        <time>2021-08-30T07:42:31Z</time>
      </trkpt>
      <trkpt lat="44.64596" lon="2.56495">
        <ele>223</ele>
        <time>2021-08-30T07:42:45Z</time>
      </trkpt>
      <trkpt lat="44.64599" lon="2.56501">
        <ele>225</ele>
        <time>2021-08-30T07:42:48Z</time>
      </trkpt>
      <trkpt lat="44.64597" lon="2.56516">
        <ele>227</ele>
        <time>2021-08-30T07:42:54Z</time>
      </trkpt>
      <trkpt lat="44.64593" lon="2.56531">
        <ele>223</ele>
        <time>2021-08-30T07:43:01Z</time>
      </trkpt>
      <trkpt lat="44.64597" lon="2.56533">
        <ele>229</ele>
        <time>2021-08-30T07:49:16Z</time>
      </trkpt>
      <trkpt lat="44.64594" lon="2.56541">
        <ele>226</ele>
        <time>2021-08-30T07:53:42Z</time>
      </trkpt>
      <trkpt lat="44.64592" lon="2.56547">
        <ele>225</ele>
        <time>2021-08-30T07:53:44Z</time>
      </trkpt>
      <trkpt lat="44.64586" lon="2.56552">
        <ele>225</ele>
        <time>2021-08-30T07:53:47Z</time>
      </trkpt>
      <trkpt lat="44.64514" lon="2.56567">
        <ele>223</ele>
        <time>2021-08-30T07:54:09Z</time>
      </trkpt>
      <trkpt lat="44.64509" lon="2.56569">
        <ele>222</ele>
        <time>2021-08-30T07:54:11Z</time>
      </trkpt>
      <trkpt lat="44.64504" lon="2.56568">
        <ele>222</ele>
        <time>2021-08-30T07:54:13Z</time>
      </trkpt>
      <trkpt lat="44.64488" lon="2.5657">
        <ele>220</ele>
        <time>2021-08-30T07:54:19Z</time>
      </trkpt>
      <trkpt lat="44.64483" lon="2.56573">
        <ele>220</ele>
        <time>2021-08-30T07:54:21Z</time>
      </trkpt>
      <trkpt lat="44.64478" lon="2.56575">
        <ele>219</ele>
        <time>2021-08-30T07:54:23Z</time>
      </trkpt>
      <trkpt lat="44.64466" lon="2.56575">
        <ele>217</ele>
        <time>2021-08-30T07:54:28Z</time>
      </trkpt>
      <trkpt lat="44.64449" lon="2.56576">
        <ele>213</ele>
        <time>2021-08-30T07:54:43Z</time>
      </trkpt>
      <trkpt lat="44.64447" lon="2.56571">
        <ele>218</ele>
        <time>2021-08-30T07:56:12Z</time>
      </trkpt>
      <trkpt lat="44.64442" lon="2.56571">
        <ele>219</ele>
        <time>2021-08-30T07:57:13Z</time>
      </trkpt>
      <trkpt lat="44.64438" lon="2.56574">
        <ele>222</ele>
        <time>2021-08-30T07:59:42Z</time>
      </trkpt>
      <trkpt lat="44.64435" lon="2.56581">
        <ele>222</ele>
        <time>2021-08-30T07:59:50Z</time>
      </trkpt>
      <trkpt lat="44.64422" lon="2.56583">
        <ele>225</ele>
        <time>2021-08-30T07:59:54Z</time>
      </trkpt>
      <trkpt lat="44.64418" lon="2.56582">
        <ele>225</ele>
        <time>2021-08-30T07:59:55Z</time>
      </trkpt>
      <trkpt lat="44.64407" lon="2.56565">
        <ele>224</ele>
        <time>2021-08-30T08:00:02Z</time>
      </trkpt>
      <trkpt lat="44.64406" lon="2.56557">
        <ele>224</ele>
        <time>2021-08-30T08:00:05Z</time>
      </trkpt>
      <trkpt lat="44.64405" lon="2.5655">
        <ele>223</ele>
        <time>2021-08-30T08:00:07Z</time>
      </trkpt>
      <trkpt lat="44.64399" lon="2.56527">
        <ele>222</ele>
        <time>2021-08-30T08:00:13Z</time>
      </trkpt>
      <trkpt lat="44.64396" lon="2.56521">
        <ele>222</ele>
        <time>2021-08-30T08:00:15Z</time>
      </trkpt>
      <trkpt lat="44.64392" lon="2.56516">
        <ele>222</ele>
        <time>2021-08-30T08:00:18Z</time>
      </trkpt>
      <trkpt lat="44.64391" lon="2.56509">
        <ele>222</ele>
        <time>2021-08-30T08:00:21Z</time>
      </trkpt>
      <trkpt lat="44.64392" lon="2.56503">
        <ele>222</ele>
        <time>2021-08-30T08:00:25Z</time>
      </trkpt>
      <trkpt lat="44.64388" lon="2.56505">
        <ele>224</ele>
        <time>2021-08-30T08:01:05Z</time>
      </trkpt>
      <trkpt lat="44.64392" lon="2.56512">
        <ele>224</ele>
        <time>2021-08-30T08:01:08Z</time>
      </trkpt>
      <trkpt lat="44.64393" lon="2.56535">
        <ele>226</ele>
        <time>2021-08-30T08:01:14Z</time>
      </trkpt>
      <trkpt lat="44.64427" lon="2.56572">
        <ele>225</ele>
        <time>2021-08-30T08:01:34Z</time>
      </trkpt>
      <trkpt lat="44.6451" lon="2.56549">
        <ele>231</ele>
        <time>2021-08-30T08:02:05Z</time>
      </trkpt>
      <trkpt lat="44.64516" lon="2.56546">
        <ele>232</ele>
        <time>2021-08-30T08:02:08Z</time>
      </trkpt>
      <trkpt lat="44.64525" lon="2.56548">
        <ele>235</ele>
        <time>2021-08-30T08:02:10Z</time>
      </trkpt>
      <trkpt lat="44.64617" lon="2.56566">
        <ele>243</ele>
        <time>2021-08-30T08:02:40Z</time>
      </trkpt>
      <trkpt lat="44.64622" lon="2.56567">
        <ele>244</ele>
        <time>2021-08-30T08:02:46Z</time>
      </trkpt>
      <trkpt lat="44.64624" lon="2.56559">
        <ele>245</ele>
        <time>2021-08-30T08:02:56Z</time>
      </trkpt>
      <trkpt lat="44.64625" lon="2.56552">
        <ele>242</ele>
        <time>2021-08-30T08:02:59Z</time>
      </trkpt>
      <trkpt lat="44.64628" lon="2.56544">
        <ele>241</ele>
        <time>2021-08-30T08:03:02Z</time>
      </trkpt>
      <trkpt lat="44.64632" lon="2.56538">
        <ele>240</ele>
        <time>2021-08-30T08:03:04Z</time>
      </trkpt>
      <trkpt lat="44.64638" lon="2.56528">
        <ele>237</ele>
        <time>2021-08-30T08:03:08Z</time>
      </trkpt>
      <trkpt lat="44.64642" lon="2.56521">
        <ele>237</ele>
        <time>2021-08-30T08:03:10Z</time>
      </trkpt>
      <trkpt lat="44.64652" lon="2.56514">
        <ele>237</ele>
        <time>2021-08-30T08:03:15Z</time>
      </trkpt>
      <trkpt lat="44.64716" lon="2.56558">
        <ele>236</ele>
        <time>2021-08-30T08:03:39Z</time>
      </trkpt>
      <trkpt lat="44.64833" lon="2.56639">
        <ele>208</ele>
        <time>2021-08-30T08:04:09Z</time>
      </trkpt>
      <trkpt lat="44.64881" lon="2.56674">
        <ele>204</ele>
        <time>2021-08-30T08:04:22Z</time>
      </trkpt>
      <trkpt lat="44.64901" lon="2.56689">
        <ele>201</ele>
        <time>2021-08-30T08:04:28Z</time>
      </trkpt>
      <trkpt lat="44.64918" lon="2.56704">
        <ele>200</ele>
        <time>2021-08-30T08:04:34Z</time>
      </trkpt>
      <trkpt lat="44.64915" lon="2.56727">
        <ele>200</ele>
        <time>2021-08-30T08:04:40Z</time>
      </trkpt>
      <trkpt lat="44.64911" lon="2.56732">
        <ele>201</ele>
        <time>2021-08-30T08:04:46Z</time>
      </trkpt>
      <trkpt lat="44.64912" lon="2.5674">
        <ele>203</ele>
        <time>2021-08-30T08:04:51Z</time>
      </trkpt>
      <trkpt lat="44.6491" lon="2.56747">
        <ele>204</ele>
        <time>2021-08-30T08:04:54Z</time>
      </trkpt>
      <trkpt lat="44.64908" lon="2.56755">
        <ele>208</ele>
        <time>2021-08-30T08:05:04Z</time>
      </trkpt>
      <trkpt lat="44.64923" lon="2.56749">
        <ele>210</ele>
        <time>2021-08-30T08:05:24Z</time>
      </trkpt>
      <trkpt lat="44.64982" lon="2.56694">
        <ele>216</ele>
        <time>2021-08-30T08:05:55Z</time>
      </trkpt>
      <trkpt lat="44.65001" lon="2.56664">
        <ele>216</ele>
        <time>2021-08-30T08:06:08Z</time>
      </trkpt>
      <trkpt lat="44.64994" lon="2.56628">
        <ele>216</ele>
        <time>2021-08-30T08:06:18Z</time>
      </trkpt>
      <trkpt lat="44.64922" lon="2.56555">
        <ele>223</ele>
        <time>2021-08-30T08:06:50Z</time>
      </trkpt>
      <trkpt lat="44.64887" lon="2.56522">
        <ele>224</ele>
        <time>2021-08-30T08:07:04Z</time>
      </trkpt>
      <trkpt lat="44.6486" lon="2.56504">
        <ele>225</ele>
        <time>2021-08-30T08:07:12Z</time>
      </trkpt>
      <trkpt lat="44.64792" lon="2.56427">
        <ele>229</ele>
        <time>2021-08-30T08:07:32Z</time>
      </trkpt>
      <trkpt lat="44.6478" lon="2.5642">
        <ele>230</ele>
        <time>2021-08-30T08:07:35Z</time>
      </trkpt>
      <trkpt lat="44.64776" lon="2.56416">
        <ele>230</ele>
        <time>2021-08-30T08:07:36Z</time>
      </trkpt>
      <trkpt lat="44.64661" lon="2.56329">
        <ele>242</ele>
        <time>2021-08-30T08:08:04Z</time>
      </trkpt>
      <trkpt lat="44.64622" lon="2.56294">
        <ele>251</ele>
        <time>2021-08-30T08:08:14Z</time>
      </trkpt>
      <trkpt lat="44.64531" lon="2.56225">
        <ele>256</ele>
        <time>2021-08-30T08:08:37Z</time>
      </trkpt>
      <trkpt lat="44.64446" lon="2.56207">
        <ele>251</ele>
        <time>2021-08-30T08:08:55Z</time>
      </trkpt>
      <trkpt lat="44.64421" lon="2.56196">
        <ele>246</ele>
        <time>2021-08-30T08:09:00Z</time>
      </trkpt>
      <trkpt lat="44.64367" lon="2.56191">
        <ele>243</ele>
        <time>2021-08-30T08:09:12Z</time>
      </trkpt>
      <trkpt lat="44.6431" lon="2.56204">
        <ele>242</ele>
        <time>2021-08-30T08:09:24Z</time>
      </trkpt>
      <trkpt lat="44.64244" lon="2.56203">
        <ele>242</ele>
        <time>2021-08-30T08:09:37Z</time>
      </trkpt>
      <trkpt lat="44.64193" lon="2.56183">
        <ele>239</ele>
        <time>2021-08-30T08:09:47Z</time>
      </trkpt>
      <trkpt lat="44.64118" lon="2.56155">
        <ele>237</ele>
        <time>2021-08-30T08:10:02Z</time>
      </trkpt>
      <trkpt lat="44.64091" lon="2.56138">
        <ele>239</ele>
        <time>2021-08-30T08:10:08Z</time>
      </trkpt>
      <trkpt lat="44.64055" lon="2.56122">
        <ele>241</ele>
        <time>2021-08-30T08:10:16Z</time>
      </trkpt>
      <trkpt lat="44.64037" lon="2.56107">
        <ele>241</ele>
        <time>2021-08-30T08:10:20Z</time>
      </trkpt>
      <trkpt lat="44.64023" lon="2.561">
        <ele>243</ele>
        <time>2021-08-30T08:10:23Z</time>
      </trkpt>
      <trkpt lat="44.64003" lon="2.561">
        <ele>245</ele>
        <time>2021-08-30T08:10:27Z</time>
      </trkpt>
      <trkpt lat="44.63988" lon="2.56104">
        <ele>248</ele>
        <time>2021-08-30T08:10:30Z</time>
      </trkpt>
      <trkpt lat="44.63979" lon="2.56104">
        <ele>249</ele>
        <time>2021-08-30T08:10:32Z</time>
      </trkpt>
      <trkpt lat="44.63974" lon="2.56103">
        <ele>249</ele>
        <time>2021-08-30T08:10:33Z</time>
      </trkpt>
      <trkpt lat="44.6397" lon="2.561">
        <ele>249</ele>
        <time>2021-08-30T08:10:34Z</time>
      </trkpt>
      <trkpt lat="44.63966" lon="2.56095">
        <ele>249</ele>
        <time>2021-08-30T08:10:35Z</time>
      </trkpt>
      <trkpt lat="44.63963" lon="2.56089">
        <ele>248</ele>
        <time>2021-08-30T08:10:36Z</time>
      </trkpt>
      <trkpt lat="44.63962" lon="2.56075">
        <ele>247</ele>
        <time>2021-08-30T08:10:38Z</time>
      </trkpt>
      <trkpt lat="44.63962" lon="2.55983">
        <ele>242</ele>
        <time>2021-08-30T08:10:51Z</time>
      </trkpt>
      <trkpt lat="44.63964" lon="2.55967">
        <ele>240</ele>
        <time>2021-08-30T08:10:53Z</time>
      </trkpt>
      <trkpt lat="44.63986" lon="2.55927">
        <ele>240</ele>
        <time>2021-08-30T08:11:01Z</time>
      </trkpt>
      <trkpt lat="44.64067" lon="2.55803">
        <ele>230</ele>
        <time>2021-08-30T08:11:25Z</time>
      </trkpt>
      <trkpt lat="44.64089" lon="2.55753">
        <ele>231</ele>
        <time>2021-08-30T08:11:34Z</time>
      </trkpt>
      <trkpt lat="44.64111" lon="2.55712">
        <ele>229</ele>
        <time>2021-08-30T08:11:43Z</time>
      </trkpt>
      <trkpt lat="44.64124" lon="2.55682">
        <ele>228</ele>
        <time>2021-08-30T08:11:54Z</time>
      </trkpt>
      <trkpt lat="44.6412" lon="2.55679">
        <ele>228</ele>
        <time>2021-08-30T08:13:12Z</time>
      </trkpt>
      <trkpt lat="44.64181" lon="2.55534">
        <ele>229</ele>
        <time>2021-08-30T08:13:43Z</time>
      </trkpt>
      <trkpt lat="44.64251" lon="2.55375">
        <ele>216</ele>
        <time>2021-08-30T08:14:14Z</time>
      </trkpt>
      <trkpt lat="44.64307" lon="2.55251">
        <ele>212</ele>
        <time>2021-08-30T08:14:36Z</time>
      </trkpt>
      <trkpt lat="44.64416" lon="2.55111">
        <ele>218</ele>
        <time>2021-08-30T08:15:07Z</time>
      </trkpt>
      <trkpt lat="44.64534" lon="2.54986">
        <ele>228</ele>
        <time>2021-08-30T08:15:37Z</time>
      </trkpt>
      <trkpt lat="44.64578" lon="2.54917">
        <ele>229</ele>
        <time>2021-08-30T08:15:51Z</time>
      </trkpt>
      <trkpt lat="44.64625" lon="2.54795">
        <ele>229</ele>
        <time>2021-08-30T08:16:12Z</time>
      </trkpt>
      <trkpt lat="44.64628" lon="2.54769">
        <ele>229</ele>
        <time>2021-08-30T08:16:16Z</time>
      </trkpt>
      <trkpt lat="44.64629" lon="2.54703">
        <ele>229</ele>
        <time>2021-08-30T08:16:25Z</time>
      </trkpt>
      <trkpt lat="44.64628" lon="2.54688">
        <ele>230</ele>
        <time>2021-08-30T08:16:27Z</time>
      </trkpt>
      <trkpt lat="44.64631" lon="2.54629">
        <ele>232</ele>
        <time>2021-08-30T08:16:36Z</time>
      </trkpt>
      <trkpt lat="44.6464" lon="2.54564">
        <ele>233</ele>
        <time>2021-08-30T08:16:46Z</time>
      </trkpt>
      <trkpt lat="44.64645" lon="2.54489">
        <ele>236</ele>
        <time>2021-08-30T08:16:57Z</time>
      </trkpt>
      <trkpt lat="44.64648" lon="2.54478">
        <ele>236</ele>
        <time>2021-08-30T08:16:59Z</time>
      </trkpt>
      <trkpt lat="44.64654" lon="2.54455">
        <ele>237</ele>
        <time>2021-08-30T08:17:03Z</time>
      </trkpt>
      <trkpt lat="44.64655" lon="2.5442">
        <ele>236</ele>
        <time>2021-08-30T08:17:09Z</time>
      </trkpt>
      <trkpt lat="44.64651" lon="2.5435">
        <ele>241</ele>
        <time>2021-08-30T08:17:20Z</time>
      </trkpt>
      <trkpt lat="44.64659" lon="2.54305">
        <ele>233</ele>
        <time>2021-08-30T08:17:27Z</time>
      </trkpt>
      <trkpt lat="44.64668" lon="2.54271">
        <ele>232</ele>
        <time>2021-08-30T08:17:33Z</time>
      </trkpt>
      <trkpt lat="44.64694" lon="2.5412">
        <ele>229</ele>
        <time>2021-08-30T08:17:57Z</time>
      </trkpt>
      <trkpt lat="44.647" lon="2.54093">
        <ele>228</ele>
        <time>2021-08-30T08:18:01Z</time>
      </trkpt>
      <trkpt lat="44.64717" lon="2.53875">
        <ele>222</ele>
        <time>2021-08-30T08:18:33Z</time>
      </trkpt>
      <trkpt lat="44.64708" lon="2.53815">
        <ele>226</ele>
        <time>2021-08-30T08:18:43Z</time>
      </trkpt>
      <trkpt lat="44.64696" lon="2.53799">
        <ele>227</ele>
        <time>2021-08-30T08:18:47Z</time>
      </trkpt>
      <trkpt lat="44.64692" lon="2.5378">
        <ele>226</ele>
        <time>2021-08-30T08:18:50Z</time>
      </trkpt>
      <trkpt lat="44.6469" lon="2.53756">
        <ele>225</ele>
        <time>2021-08-30T08:18:53Z</time>
      </trkpt>
      <trkpt lat="44.6469" lon="2.53684">
        <ele>220</ele>
        <time>2021-08-30T08:19:02Z</time>
      </trkpt>
      <trkpt lat="44.6469" lon="2.53677">
        <ele>220</ele>
        <time>2021-08-30T08:19:03Z</time>
      </trkpt>
      <trkpt lat="44.64691" lon="2.53594">
        <ele>219</ele>
        <time>2021-08-30T08:19:16Z</time>
      </trkpt>
      <trkpt lat="44.64699" lon="2.53551">
        <ele>217</ele>
        <time>2021-08-30T08:19:23Z</time>
      </trkpt>
      <trkpt lat="44.64705" lon="2.53522">
        <ele>216</ele>
        <time>2021-08-30T08:19:27Z</time>
      </trkpt>
      <trkpt lat="44.64731" lon="2.5335">
        <ele>208</ele>
        <time>2021-08-30T08:19:52Z</time>
      </trkpt>
      <trkpt lat="44.64734" lon="2.53324">
        <ele>206</ele>
        <time>2021-08-30T08:19:55Z</time>
      </trkpt>
      <trkpt lat="44.64735" lon="2.5329">
        <ele>204</ele>
        <time>2021-08-30T08:19:59Z</time>
      </trkpt>
      <trkpt lat="44.64768" lon="2.53067">
        <ele>203</ele>
        <time>2021-08-30T08:20:29Z</time>
      </trkpt>
      <trkpt lat="44.64784" lon="2.52963">
        <ele>204</ele>
        <time>2021-08-30T08:20:43Z</time>
      </trkpt>
      <trkpt lat="44.64785" lon="2.52937">
        <ele>206</ele>
        <time>2021-08-30T08:20:47Z</time>
      </trkpt>
      <trkpt lat="44.64784" lon="2.52919">
        <ele>208</ele>
        <time>2021-08-30T08:20:50Z</time>
      </trkpt>
      <trkpt lat="44.64774" lon="2.52879">
        <ele>209</ele>
        <time>2021-08-30T08:20:56Z</time>
      </trkpt>
      <trkpt lat="44.64771" lon="2.5286">
        <ele>210</ele>
        <time>2021-08-30T08:20:59Z</time>
      </trkpt>
      <trkpt lat="44.64768" lon="2.52844">
        <ele>212</ele>
        <time>2021-08-30T08:21:01Z</time>
      </trkpt>
      <trkpt lat="44.64767" lon="2.52827">
        <ele>213</ele>
        <time>2021-08-30T08:21:03Z</time>
      </trkpt>
      <trkpt lat="44.64769" lon="2.52794">
        <ele>218</ele>
        <time>2021-08-30T08:21:07Z</time>
      </trkpt>
      <trkpt lat="44.64777" lon="2.52767">
        <ele>220</ele>
        <time>2021-08-30T08:21:11Z</time>
      </trkpt>
      <trkpt lat="44.6479" lon="2.52722">
        <ele>222</ele>
        <time>2021-08-30T08:21:17Z</time>
      </trkpt>
      <trkpt lat="44.64797" lon="2.52678">
        <ele>228</ele>
        <time>2021-08-30T08:21:23Z</time>
      </trkpt>
      <trkpt lat="44.64799" lon="2.52628">
        <ele>231</ele>
        <time>2021-08-30T08:21:30Z</time>
      </trkpt>
      <trkpt lat="44.64772" lon="2.52558">
        <ele>239</ele>
        <time>2021-08-30T08:21:40Z</time>
      </trkpt>
      <trkpt lat="44.64755" lon="2.52526">
        <ele>244</ele>
        <time>2021-08-30T08:21:46Z</time>
      </trkpt>
      <trkpt lat="44.64711" lon="2.52493">
        <ele>242</ele>
        <time>2021-08-30T08:21:57Z</time>
      </trkpt>
      <trkpt lat="44.64701" lon="2.52488">
        <ele>240</ele>
        <time>2021-08-30T08:21:59Z</time>
      </trkpt>
      <trkpt lat="44.64676" lon="2.52465">
        <ele>235</ele>
        <time>2021-08-30T08:22:05Z</time>
      </trkpt>
      <trkpt lat="44.64593" lon="2.52355">
        <ele>230</ele>
        <time>2021-08-30T08:22:26Z</time>
      </trkpt>
      <trkpt lat="44.64589" lon="2.52348">
        <ele>230</ele>
        <time>2021-08-30T08:22:27Z</time>
      </trkpt>
      <trkpt lat="44.64582" lon="2.52308">
        <ele>229</ele>
        <time>2021-08-30T08:22:31Z</time>
      </trkpt>
      <trkpt lat="44.64578" lon="2.5227">
        <ele>229</ele>
        <time>2021-08-30T08:22:35Z</time>
      </trkpt>
      <trkpt lat="44.64579" lon="2.52261">
        <ele>229</ele>
        <time>2021-08-30T08:22:36Z</time>
      </trkpt>
      <trkpt lat="44.64579" lon="2.52254">
        <ele>228</ele>
        <time>2021-08-30T08:22:37Z</time>
      </trkpt>
      <trkpt lat="44.6459" lon="2.52213">
        <ele>230</ele>
        <time>2021-08-30T08:22:42Z</time>
      </trkpt>
      <trkpt lat="44.64602" lon="2.52189">
        <ele>231</ele>
        <time>2021-08-30T08:22:46Z</time>
      </trkpt>
      <trkpt lat="44.64611" lon="2.5218">
        <ele>232</ele>
        <time>2021-08-30T08:22:48Z</time>
      </trkpt>
      <trkpt lat="44.64661" lon="2.52148">
        <ele>232</ele>
        <time>2021-08-30T08:22:58Z</time>
      </trkpt>
      <trkpt lat="44.64718" lon="2.52124">
        <ele>228</ele>
        <time>2021-08-30T08:23:09Z</time>
      </trkpt>
      <trkpt lat="44.64727" lon="2.52117">
        <ele>227</ele>
        <time>2021-08-30T08:23:11Z</time>
      </trkpt>
      <trkpt lat="44.64751" lon="2.5208">
        <ele>228</ele>
        <time>2021-08-30T08:23:18Z</time>
      </trkpt>
      <trkpt lat="44.64845" lon="2.51893">
        <ele>224</ele>
        <time>2021-08-30T08:23:49Z</time>
      </trkpt>
      <trkpt lat="44.64864" lon="2.51784">
        <ele>222</ele>
        <time>2021-08-30T08:24:05Z</time>
      </trkpt>
      <trkpt lat="44.64866" lon="2.51739">
        <ele>222</ele>
        <time>2021-08-30T08:24:11Z</time>
      </trkpt>
      <trkpt lat="44.64864" lon="2.51707">
        <ele>222</ele>
        <time>2021-08-30T08:24:15Z</time>
      </trkpt>
      <trkpt lat="44.6484" lon="2.51602">
        <ele>223</ele>
        <time>2021-08-30T08:24:30Z</time>
      </trkpt>
      <trkpt lat="44.64798" lon="2.51543">
        <ele>226</ele>
        <time>2021-08-30T08:24:42Z</time>
      </trkpt>
      <trkpt lat="44.64785" lon="2.51539">
        <ele>226</ele>
        <time>2021-08-30T08:24:45Z</time>
      </trkpt>
      <trkpt lat="44.64766" lon="2.51517">
        <ele>226</ele>
        <time>2021-08-30T08:24:50Z</time>
      </trkpt>
      <trkpt lat="44.64757" lon="2.51496">
        <ele>226</ele>
        <time>2021-08-30T08:24:53Z</time>
      </trkpt>
      <trkpt lat="44.64748" lon="2.51482">
        <ele>225</ele>
        <time>2021-08-30T08:24:56Z</time>
      </trkpt>
      <trkpt lat="44.64746" lon="2.51476">
        <ele>225</ele>
        <time>2021-08-30T08:24:57Z</time>
      </trkpt>
      <trkpt lat="44.64745" lon="2.51468">
        <ele>225</ele>
        <time>2021-08-30T08:24:58Z</time>
      </trkpt>
      <trkpt lat="44.64737" lon="2.51447">
        <ele>224</ele>
        <time>2021-08-30T08:25:01Z</time>
      </trkpt>
      <trkpt lat="44.64719" lon="2.51395">
        <ele>222</ele>
        <time>2021-08-30T08:25:09Z</time>
      </trkpt>
      <trkpt lat="44.64701" lon="2.51358">
        <ele>220</ele>
        <time>2021-08-30T08:25:16Z</time>
      </trkpt>
      <trkpt lat="44.64697" lon="2.5135">
        <ele>220</ele>
        <time>2021-08-30T08:25:18Z</time>
      </trkpt>
      <trkpt lat="44.6464" lon="2.51233">
        <ele>218</ele>
        <time>2021-08-30T08:25:37Z</time>
      </trkpt>
      <trkpt lat="44.64634" lon="2.51211">
        <ele>218</ele>
        <time>2021-08-30T08:25:40Z</time>
      </trkpt>
      <trkpt lat="44.6459" lon="2.51123">
        <ele>220</ele>
        <time>2021-08-30T08:25:53Z</time>
      </trkpt>
      <trkpt lat="44.64581" lon="2.51073">
        <ele>221</ele>
        <time>2021-08-30T08:26:00Z</time>
      </trkpt>
      <trkpt lat="44.64579" lon="2.51045">
        <ele>222</ele>
        <time>2021-08-30T08:26:04Z</time>
      </trkpt>
      <trkpt lat="44.64585" lon="2.51005">
        <ele>221</ele>
        <time>2021-08-30T08:26:10Z</time>
      </trkpt>
      <trkpt lat="44.64595" lon="2.5096">
        <ele>223</ele>
        <time>2021-08-30T08:26:17Z</time>
      </trkpt>
      <trkpt lat="44.64634" lon="2.50887">
        <ele>220</ele>
        <time>2021-08-30T08:26:31Z</time>
      </trkpt>
      <trkpt lat="44.64721" lon="2.5075">
        <ele>220</ele>
        <time>2021-08-30T08:26:58Z</time>
      </trkpt>
      <trkpt lat="44.64728" lon="2.50733">
        <ele>221</ele>
        <time>2021-08-30T08:27:01Z</time>
      </trkpt>
      <trkpt lat="44.64735" lon="2.50704">
        <ele>220</ele>
        <time>2021-08-30T08:27:05Z</time>
      </trkpt>
      <trkpt lat="44.64737" lon="2.50649">
        <ele>219</ele>
        <time>2021-08-30T08:27:13Z</time>
      </trkpt>
      <trkpt lat="44.6473" lon="2.50618">
        <ele>218</ele>
        <time>2021-08-30T08:27:18Z</time>
      </trkpt>
      <trkpt lat="44.64728" lon="2.50579">
        <ele>218</ele>
        <time>2021-08-30T08:27:24Z</time>
      </trkpt>
      <trkpt lat="44.64736" lon="2.50536">
        <ele>215</ele>
        <time>2021-08-30T08:27:31Z</time>
      </trkpt>
      <trkpt lat="44.64734" lon="2.5051">
        <ele>214</ele>
        <time>2021-08-30T08:27:35Z</time>
      </trkpt>
      <trkpt lat="44.64713" lon="2.50449">
        <ele>214</ele>
        <time>2021-08-30T08:27:45Z</time>
      </trkpt>
      <trkpt lat="44.64707" lon="2.50414">
        <ele>214</ele>
        <time>2021-08-30T08:27:50Z</time>
      </trkpt>
      <trkpt lat="44.64695" lon="2.50384">
        <ele>215</ele>
        <time>2021-08-30T08:27:55Z</time>
      </trkpt>
      <trkpt lat="44.64666" lon="2.50341">
        <ele>215</ele>
        <time>2021-08-30T08:28:04Z</time>
      </trkpt>
      <trkpt lat="44.64649" lon="2.50325">
        <ele>217</ele>
        <time>2021-08-30T08:28:08Z</time>
      </trkpt>
      <trkpt lat="44.64611" lon="2.50318">
        <ele>218</ele>
        <time>2021-08-30T08:28:17Z</time>
      </trkpt>
      <trkpt lat="44.64549" lon="2.50322">
        <ele>217</ele>
        <time>2021-08-30T08:28:30Z</time>
      </trkpt>
      <trkpt lat="44.64519" lon="2.50315">
        <ele>217</ele>
        <time>2021-08-30T08:28:35Z</time>
      </trkpt>
      <trkpt lat="44.64469" lon="2.50274">
        <ele>216</ele>
        <time>2021-08-30T08:28:46Z</time>
      </trkpt>
      <trkpt lat="44.64464" lon="2.50271">
        <ele>215</ele>
        <time>2021-08-30T08:28:47Z</time>
      </trkpt>
      <trkpt lat="44.64455" lon="2.50266">
        <ele>215</ele>
        <time>2021-08-30T08:28:49Z</time>
      </trkpt>
      <trkpt lat="44.64409" lon="2.50248">
        <ele>214</ele>
        <time>2021-08-30T08:28:58Z</time>
      </trkpt>
      <trkpt lat="44.64389" lon="2.50218">
        <ele>213</ele>
        <time>2021-08-30T08:29:03Z</time>
      </trkpt>
      <trkpt lat="44.64378" lon="2.50192">
        <ele>213</ele>
        <time>2021-08-30T08:29:06Z</time>
      </trkpt>
      <trkpt lat="44.64373" lon="2.50173">
        <ele>213</ele>
        <time>2021-08-30T08:29:08Z</time>
      </trkpt>
      <trkpt lat="44.6437" lon="2.50141">
        <ele>215</ele>
        <time>2021-08-30T08:29:11Z</time>
      </trkpt>
      <trkpt lat="44.64376" lon="2.50069">
        <ele>215</ele>
        <time>2021-08-30T08:29:19Z</time>
      </trkpt>
      <trkpt lat="44.6439" lon="2.50024">
        <ele>216</ele>
        <time>2021-08-30T08:29:24Z</time>
      </trkpt>
      <trkpt lat="44.64427" lon="2.49957">
        <ele>219</ele>
        <time>2021-08-30T08:29:34Z</time>
      </trkpt>
      <trkpt lat="44.64467" lon="2.49884">
        <ele>217</ele>
        <time>2021-08-30T08:29:46Z</time>
      </trkpt>
      <trkpt lat="44.64469" lon="2.49878">
        <ele>217</ele>
        <time>2021-08-30T08:29:47Z</time>
      </trkpt>
      <trkpt lat="44.64475" lon="2.49864">
        <ele>215</ele>
        <time>2021-08-30T08:29:49Z</time>
      </trkpt>
      <trkpt lat="44.64479" lon="2.49853">
        <ele>214</ele>
        <time>2021-08-30T08:29:51Z</time>
      </trkpt>
      <trkpt lat="44.64504" lon="2.49803">
        <ele>212</ele>
        <time>2021-08-30T08:29:59Z</time>
      </trkpt>
      <trkpt lat="44.64508" lon="2.49792">
        <ele>213</ele>
        <time>2021-08-30T08:30:01Z</time>
      </trkpt>
      <trkpt lat="44.64549" lon="2.49698">
        <ele>212</ele>
        <time>2021-08-30T08:30:15Z</time>
      </trkpt>
      <trkpt lat="44.64558" lon="2.49645">
        <ele>213</ele>
        <time>2021-08-30T08:30:22Z</time>
      </trkpt>
      <trkpt lat="44.64556" lon="2.4946">
        <ele>212</ele>
        <time>2021-08-30T08:30:47Z</time>
      </trkpt>
      <trkpt lat="44.64551" lon="2.49435">
        <ele>212</ele>
        <time>2021-08-30T08:30:51Z</time>
      </trkpt>
      <trkpt lat="44.6455" lon="2.49428">
        <ele>212</ele>
        <time>2021-08-30T08:30:52Z</time>
      </trkpt>
      <trkpt lat="44.64544" lon="2.49416">
        <ele>211</ele>
        <time>2021-08-30T08:30:54Z</time>
      </trkpt>
      <trkpt lat="44.6454" lon="2.49404">
        <ele>212</ele>
        <time>2021-08-30T08:30:56Z</time>
      </trkpt>
      <trkpt lat="44.64534" lon="2.49328">
        <ele>216</ele>
        <time>2021-08-30T08:31:08Z</time>
      </trkpt>
      <trkpt lat="44.64533" lon="2.49319">
        <ele>215</ele>
        <time>2021-08-30T08:31:10Z</time>
      </trkpt>
      <trkpt lat="44.64529" lon="2.49309">
        <ele>215</ele>
        <time>2021-08-30T08:31:12Z</time>
      </trkpt>
      <trkpt lat="44.64525" lon="2.49297">
        <ele>215</ele>
        <time>2021-08-30T08:31:14Z</time>
      </trkpt>
      <trkpt lat="44.64516" lon="2.49239">
        <ele>216</ele>
        <time>2021-08-30T08:31:23Z</time>
      </trkpt>
      <trkpt lat="44.64513" lon="2.49224">
        <ele>216</ele>
        <time>2021-08-30T08:31:25Z</time>
      </trkpt>
      <trkpt lat="44.64512" lon="2.49194">
        <ele>216</ele>
        <time>2021-08-30T08:31:29Z</time>
      </trkpt>
      <trkpt lat="44.64503" lon="2.49135">
        <ele>218</ele>
        <time>2021-08-30T08:31:38Z</time>
      </trkpt>
      <trkpt lat="44.64493" lon="2.4911">
        <ele>219</ele>
        <time>2021-08-30T08:31:42Z</time>
      </trkpt>
      <trkpt lat="44.64478" lon="2.49078">
        <ele>223</ele>
        <time>2021-08-30T08:31:47Z</time>
      </trkpt>
      <trkpt lat="44.64456" lon="2.48951">
        <ele>233</ele>
        <time>2021-08-30T08:32:06Z</time>
      </trkpt>
      <trkpt lat="44.64432" lon="2.48898">
        <ele>238</ele>
        <time>2021-08-30T08:32:14Z</time>
      </trkpt>
      <trkpt lat="44.6442" lon="2.48886">
        <ele>241</ele>
        <time>2021-08-30T08:32:18Z</time>
      </trkpt>
      <trkpt lat="44.64412" lon="2.48883">
        <ele>242</ele>
        <time>2021-08-30T08:32:20Z</time>
      </trkpt>
      <trkpt lat="44.64392" lon="2.48863">
        <ele>244</ele>
        <time>2021-08-30T08:32:25Z</time>
      </trkpt>
      <trkpt lat="44.64384" lon="2.48854">
        <ele>247</ele>
        <time>2021-08-30T08:32:27Z</time>
      </trkpt>
      <trkpt lat="44.64352" lon="2.4882">
        <ele>255</ele>
        <time>2021-08-30T08:32:35Z</time>
      </trkpt>
      <trkpt lat="44.64336" lon="2.4881">
        <ele>252</ele>
        <time>2021-08-30T08:32:39Z</time>
      </trkpt>
      <trkpt lat="44.64323" lon="2.488">
        <ele>250</ele>
        <time>2021-08-30T08:32:42Z</time>
      </trkpt>
      <trkpt lat="44.64306" lon="2.4877">
        <ele>251</ele>
        <time>2021-08-30T08:32:47Z</time>
      </trkpt>
      <trkpt lat="44.64261" lon="2.48711">
        <ele>256</ele>
        <time>2021-08-30T08:33:00Z</time>
      </trkpt>
      <trkpt lat="44.64251" lon="2.48683">
        <ele>257</ele>
        <time>2021-08-30T08:33:04Z</time>
      </trkpt>
      <trkpt lat="44.64249" lon="2.48677">
        <ele>257</ele>
        <time>2021-08-30T08:33:05Z</time>
      </trkpt>
      <trkpt lat="44.64245" lon="2.48673">
        <ele>257</ele>
        <time>2021-08-30T08:33:06Z</time>
      </trkpt>
      <trkpt lat="44.64228" lon="2.48645">
        <ele>256</ele>
        <time>2021-08-30T08:33:11Z</time>
      </trkpt>
      <trkpt lat="44.64217" lon="2.48628">
        <ele>257</ele>
        <time>2021-08-30T08:33:14Z</time>
      </trkpt>
      <trkpt lat="44.642" lon="2.4857">
        <ele>255</ele>
        <time>2021-08-30T08:33:22Z</time>
      </trkpt>
      <trkpt lat="44.64197" lon="2.4856">
        <ele>252</ele>
        <time>2021-08-30T08:33:24Z</time>
      </trkpt>
      <trkpt lat="44.64187" lon="2.48541">
        <ele>250</ele>
        <time>2021-08-30T08:33:28Z</time>
      </trkpt>
      <trkpt lat="44.64185" lon="2.48533">
        <ele>249</ele>
        <time>2021-08-30T08:33:29Z</time>
      </trkpt>
      <trkpt lat="44.64183" lon="2.48476">
        <ele>241</ele>
        <time>2021-08-30T08:33:37Z</time>
      </trkpt>
      <trkpt lat="44.64182" lon="2.48464">
        <ele>240</ele>
        <time>2021-08-30T08:33:39Z</time>
      </trkpt>
      <trkpt lat="44.64202" lon="2.48272">
        <ele>220</ele>
        <time>2021-08-30T08:34:08Z</time>
      </trkpt>
      <trkpt lat="44.64204" lon="2.48251">
        <ele>219</ele>
        <time>2021-08-30T08:34:11Z</time>
      </trkpt>
      <trkpt lat="44.64203" lon="2.48244">
        <ele>219</ele>
        <time>2021-08-30T08:34:12Z</time>
      </trkpt>
      <trkpt lat="44.64203" lon="2.48238">
        <ele>218</ele>
        <time>2021-08-30T08:34:13Z</time>
      </trkpt>
      <trkpt lat="44.64203" lon="2.48221">
        <ele>216</ele>
        <time>2021-08-30T08:34:16Z</time>
      </trkpt>
      <trkpt lat="44.64197" lon="2.48185">
        <ele>212</ele>
        <time>2021-08-30T08:34:21Z</time>
      </trkpt>
      <trkpt lat="44.64188" lon="2.48156">
        <ele>213</ele>
        <time>2021-08-30T08:34:25Z</time>
      </trkpt>
      <trkpt lat="44.64186" lon="2.48116">
        <ele>210</ele>
        <time>2021-08-30T08:34:30Z</time>
      </trkpt>
      <trkpt lat="44.64187" lon="2.48099">
        <ele>212</ele>
        <time>2021-08-30T08:34:32Z</time>
      </trkpt>
      <trkpt lat="44.64187" lon="2.48092">
        <ele>212</ele>
        <time>2021-08-30T08:34:33Z</time>
      </trkpt>
      <trkpt lat="44.64183" lon="2.47873">
        <ele>212</ele>
        <time>2021-08-30T08:35:03Z</time>
      </trkpt>
      <trkpt lat="44.64184" lon="2.47801">
        <ele>209</ele>
        <time>2021-08-30T08:35:13Z</time>
      </trkpt>
      <trkpt lat="44.64152" lon="2.4763">
        <ele>209</ele>
        <time>2021-08-30T08:35:37Z</time>
      </trkpt>
      <trkpt lat="44.64149" lon="2.4753">
        <ele>211</ele>
        <time>2021-08-30T08:35:50Z</time>
      </trkpt>
      <trkpt lat="44.64164" lon="2.47456">
        <ele>213</ele>
        <time>2021-08-30T08:36:00Z</time>
      </trkpt>
      <trkpt lat="44.64224" lon="2.4729">
        <ele>208</ele>
        <time>2021-08-30T08:36:24Z</time>
      </trkpt>
      <trkpt lat="44.64225" lon="2.47255">
        <ele>208</ele>
        <time>2021-08-30T08:36:29Z</time>
      </trkpt>
      <trkpt lat="44.64235" lon="2.47073">
        <ele>203</ele>
        <time>2021-08-30T08:36:54Z</time>
      </trkpt>
      <trkpt lat="44.6424" lon="2.47052">
        <ele>203</ele>
        <time>2021-08-30T08:36:57Z</time>
      </trkpt>
      <trkpt lat="44.64241" lon="2.47037">
        <ele>203</ele>
        <time>2021-08-30T08:36:59Z</time>
      </trkpt>
      <trkpt lat="44.64246" lon="2.47005">
        <ele>202</ele>
        <time>2021-08-30T08:37:04Z</time>
      </trkpt>
      <trkpt lat="44.64261" lon="2.4697">
        <ele>200</ele>
        <time>2021-08-30T08:37:10Z</time>
      </trkpt>
      <trkpt lat="44.64345" lon="2.46777">
        <ele>207</ele>
        <time>2021-08-30T08:37:41Z</time>
      </trkpt>
      <trkpt lat="44.64365" lon="2.4673">
        <ele>206</ele>
        <time>2021-08-30T08:37:51Z</time>
      </trkpt>
      <trkpt lat="44.6437" lon="2.46719">
        <ele>204</ele>
        <time>2021-08-30T08:37:55Z</time>
      </trkpt>
      <trkpt lat="44.64372" lon="2.46713">
        <ele>204</ele>
        <time>2021-08-30T08:38:50Z</time>
      </trkpt>
      <trkpt lat="44.64378" lon="2.46709">
        <ele>204</ele>
        <time>2021-08-30T08:39:06Z</time>
      </trkpt>
      <trkpt lat="44.6438" lon="2.46698">
        <ele>205</ele>
        <time>2021-08-30T08:40:14Z</time>
      </trkpt>
      <trkpt lat="44.64383" lon="2.46687">
        <ele>205</ele>
        <time>2021-08-30T08:40:18Z</time>
      </trkpt>
      <trkpt lat="44.64383" lon="2.46675">
        <ele>206</ele>
        <time>2021-08-30T08:40:20Z</time>
      </trkpt>
      <trkpt lat="44.64385" lon="2.46663">
        <ele>206</ele>
        <time>2021-08-30T08:40:23Z</time>
      </trkpt>
      <trkpt lat="44.6439" lon="2.46651">
        <ele>206</ele>
        <time>2021-08-30T08:40:26Z</time>
      </trkpt>
      <trkpt lat="44.64394" lon="2.46638">
        <ele>206</ele>
        <time>2021-08-30T08:40:29Z</time>
      </trkpt>
      <trkpt lat="44.64398" lon="2.46624">
        <ele>207</ele>
        <time>2021-08-30T08:40:32Z</time>
      </trkpt>
      <trkpt lat="44.64401" lon="2.46616">
        <ele>207</ele>
        <time>2021-08-30T08:40:34Z</time>
      </trkpt>
      <trkpt lat="44.64432" lon="2.46543">
        <ele>205</ele>
        <time>2021-08-30T08:40:50Z</time>
      </trkpt>
      <trkpt lat="44.64454" lon="2.46495">
        <ele>205</ele>
        <time>2021-08-30T08:41:00Z</time>
      </trkpt>
      <trkpt lat="44.64471" lon="2.46471">
        <ele>205</ele>
        <time>2021-08-30T08:41:05Z</time>
      </trkpt>
      <trkpt lat="44.64479" lon="2.46462">
        <ele>206</ele>
        <time>2021-08-30T08:41:07Z</time>
      </trkpt>
      <trkpt lat="44.64485" lon="2.46452">
        <ele>206</ele>
        <time>2021-08-30T08:41:09Z</time>
      </trkpt>
      <trkpt lat="44.64494" lon="2.46425">
        <ele>207</ele>
        <time>2021-08-30T08:41:14Z</time>
      </trkpt>
      <trkpt lat="44.64502" lon="2.46406">
        <ele>208</ele>
        <time>2021-08-30T08:41:18Z</time>
      </trkpt>
      <trkpt lat="44.64509" lon="2.46378">
        <ele>208</ele>
        <time>2021-08-30T08:41:22Z</time>
      </trkpt>
      <trkpt lat="44.64517" lon="2.46359">
        <ele>208</ele>
        <time>2021-08-30T08:41:25Z</time>
      </trkpt>
      <trkpt lat="44.64525" lon="2.46334">
        <ele>208</ele>
        <time>2021-08-30T08:41:29Z</time>
      </trkpt>
      <trkpt lat="44.64527" lon="2.4632">
        <ele>210</ele>
        <time>2021-08-30T08:41:31Z</time>
      </trkpt>
      <trkpt lat="44.64536" lon="2.46268">
        <ele>212</ele>
        <time>2021-08-30T08:41:39Z</time>
      </trkpt>
      <trkpt lat="44.64544" lon="2.46236">
        <ele>210</ele>
        <time>2021-08-30T08:41:44Z</time>
      </trkpt>
      <trkpt lat="44.64544" lon="2.46226">
        <ele>211</ele>
        <time>2021-08-30T08:41:46Z</time>
      </trkpt>
      <trkpt lat="44.64542" lon="2.46219">
        <ele>211</ele>
        <time>2021-08-30T08:41:47Z</time>
      </trkpt>
      <trkpt lat="44.64544" lon="2.46207">
        <ele>211</ele>
        <time>2021-08-30T08:41:49Z</time>
      </trkpt>
      <trkpt lat="44.64547" lon="2.462">
        <ele>210</ele>
        <time>2021-08-30T08:41:50Z</time>
      </trkpt>
      <trkpt lat="44.64564" lon="2.46164">
        <ele>209</ele>
        <time>2021-08-30T08:41:55Z</time>
      </trkpt>
      <trkpt lat="44.64566" lon="2.46136">
        <ele>211</ele>
        <time>2021-08-30T08:41:59Z</time>
      </trkpt>
      <trkpt lat="44.64575" lon="2.4611">
        <ele>212</ele>
        <time>2021-08-30T08:42:03Z</time>
      </trkpt>
      <trkpt lat="44.64579" lon="2.4605">
        <ele>213</ele>
        <time>2021-08-30T08:42:11Z</time>
      </trkpt>
      <trkpt lat="44.64583" lon="2.45994">
        <ele>212</ele>
        <time>2021-08-30T08:42:19Z</time>
      </trkpt>
      <trkpt lat="44.64588" lon="2.45982">
        <ele>212</ele>
        <time>2021-08-30T08:42:21Z</time>
      </trkpt>
      <trkpt lat="44.646" lon="2.45945">
        <ele>211</ele>
        <time>2021-08-30T08:42:26Z</time>
      </trkpt>
      <trkpt lat="44.64607" lon="2.45923">
        <ele>210</ele>
        <time>2021-08-30T08:42:29Z</time>
      </trkpt>
      <trkpt lat="44.64613" lon="2.45883">
        <ele>210</ele>
        <time>2021-08-30T08:42:34Z</time>
      </trkpt>
      <trkpt lat="44.64623" lon="2.4583">
        <ele>211</ele>
        <time>2021-08-30T08:42:41Z</time>
      </trkpt>
      <trkpt lat="44.64629" lon="2.45812">
        <ele>211</ele>
        <time>2021-08-30T08:42:44Z</time>
      </trkpt>
      <trkpt lat="44.64635" lon="2.4579">
        <ele>213</ele>
        <time>2021-08-30T08:42:47Z</time>
      </trkpt>
      <trkpt lat="44.64636" lon="2.45782">
        <ele>213</ele>
        <time>2021-08-30T08:42:48Z</time>
      </trkpt>
      <trkpt lat="44.64665" lon="2.4569">
        <ele>207</ele>
        <time>2021-08-30T08:43:01Z</time>
      </trkpt>
      <trkpt lat="44.64668" lon="2.45681">
        <ele>207</ele>
        <time>2021-08-30T08:43:03Z</time>
      </trkpt>
      <trkpt lat="44.64673" lon="2.45671">
        <ele>206</ele>
        <time>2021-08-30T08:43:05Z</time>
      </trkpt>
      <trkpt lat="44.64703" lon="2.4559">
        <ele>205</ele>
        <time>2021-08-30T08:43:20Z</time>
      </trkpt>
      <trkpt lat="44.64744" lon="2.455">
        <ele>210</ele>
        <time>2021-08-30T08:43:36Z</time>
      </trkpt>
      <trkpt lat="44.6475" lon="2.45484">
        <ele>211</ele>
        <time>2021-08-30T08:43:40Z</time>
      </trkpt>
      <trkpt lat="44.64785" lon="2.45417">
        <ele>214</ele>
        <time>2021-08-30T08:43:52Z</time>
      </trkpt>
      <trkpt lat="44.64789" lon="2.45413">
        <ele>214</ele>
        <time>2021-08-30T08:43:53Z</time>
      </trkpt>
      <trkpt lat="44.64796" lon="2.45409">
        <ele>214</ele>
        <time>2021-08-30T08:43:55Z</time>
      </trkpt>
      <trkpt lat="44.64801" lon="2.45392">
        <ele>214</ele>
        <time>2021-08-30T08:43:59Z</time>
      </trkpt>
      <trkpt lat="44.64824" lon="2.45338">
        <ele>214</ele>
        <time>2021-08-30T08:44:11Z</time>
      </trkpt>
      <trkpt lat="44.64842" lon="2.45297">
        <ele>212</ele>
        <time>2021-08-30T08:44:19Z</time>
      </trkpt>
      <trkpt lat="44.64847" lon="2.4528">
        <ele>211</ele>
        <time>2021-08-30T08:44:22Z</time>
      </trkpt>
      <trkpt lat="44.64866" lon="2.45218">
        <ele>210</ele>
        <time>2021-08-30T08:44:33Z</time>
      </trkpt>
      <trkpt lat="44.64867" lon="2.45208">
        <ele>209</ele>
        <time>2021-08-30T08:44:35Z</time>
      </trkpt>
      <trkpt lat="44.64868" lon="2.45198">
        <ele>209</ele>
        <time>2021-08-30T08:44:37Z</time>
      </trkpt>
      <trkpt lat="44.64873" lon="2.45188">
        <ele>209</ele>
        <time>2021-08-30T08:44:39Z</time>
      </trkpt>
      <trkpt lat="44.64881" lon="2.45149">
        <ele>209</ele>
        <time>2021-08-30T08:44:45Z</time>
      </trkpt>
      <trkpt lat="44.64882" lon="2.45135">
        <ele>210</ele>
        <time>2021-08-30T08:44:47Z</time>
      </trkpt>
      <trkpt lat="44.64884" lon="2.45072">
        <ele>211</ele>
        <time>2021-08-30T08:44:56Z</time>
      </trkpt>
      <trkpt lat="44.64883" lon="2.4506">
        <ele>212</ele>
        <time>2021-08-30T08:44:58Z</time>
      </trkpt>
      <trkpt lat="44.64883" lon="2.45036">
        <ele>212</ele>
        <time>2021-08-30T08:45:02Z</time>
      </trkpt>
      <trkpt lat="44.64878" lon="2.45018">
        <ele>212</ele>
        <time>2021-08-30T08:45:05Z</time>
      </trkpt>
      <trkpt lat="44.64877" lon="2.45011">
        <ele>213</ele>
        <time>2021-08-30T08:45:06Z</time>
      </trkpt>
      <trkpt lat="44.64881" lon="2.44997">
        <ele>213</ele>
        <time>2021-08-30T08:45:08Z</time>
      </trkpt>
      <trkpt lat="44.64896" lon="2.4496">
        <ele>215</ele>
        <time>2021-08-30T08:45:13Z</time>
      </trkpt>
      <trkpt lat="44.64896" lon="2.44943">
        <ele>216</ele>
        <time>2021-08-30T08:45:16Z</time>
      </trkpt>
      <trkpt lat="44.649" lon="2.44916">
        <ele>215</ele>
        <time>2021-08-30T08:45:20Z</time>
      </trkpt>
      <trkpt lat="44.64902" lon="2.44874">
        <ele>212</ele>
        <time>2021-08-30T08:45:26Z</time>
      </trkpt>
      <trkpt lat="44.64883" lon="2.44772">
        <ele>215</ele>
        <time>2021-08-30T08:45:40Z</time>
      </trkpt>
      <trkpt lat="44.64882" lon="2.44742">
        <ele>214</ele>
        <time>2021-08-30T08:45:44Z</time>
      </trkpt>
      <trkpt lat="44.64841" lon="2.44586">
        <ele>220</ele>
        <time>2021-08-30T08:46:06Z</time>
      </trkpt>
      <trkpt lat="44.64803" lon="2.44538">
        <ele>222</ele>
        <time>2021-08-30T08:46:17Z</time>
      </trkpt>
      <trkpt lat="44.64796" lon="2.44535">
        <ele>222</ele>
        <time>2021-08-30T08:46:19Z</time>
      </trkpt>
      <trkpt lat="44.64784" lon="2.44525">
        <ele>221</ele>
        <time>2021-08-30T08:46:22Z</time>
      </trkpt>
      <trkpt lat="44.64778" lon="2.44521">
        <ele>220</ele>
        <time>2021-08-30T08:46:23Z</time>
      </trkpt>
      <trkpt lat="44.64774" lon="2.44519">
        <ele>218</ele>
        <time>2021-08-30T08:46:24Z</time>
      </trkpt>
      <trkpt lat="44.64762" lon="2.44504">
        <ele>216</ele>
        <time>2021-08-30T08:46:27Z</time>
      </trkpt>
      <trkpt lat="44.64753" lon="2.44489">
        <ele>215</ele>
        <time>2021-08-30T08:46:31Z</time>
      </trkpt>
      <trkpt lat="44.64724" lon="2.44469">
        <ele>216</ele>
        <time>2021-08-30T08:46:37Z</time>
      </trkpt>
      <trkpt lat="44.64701" lon="2.44443">
        <ele>219</ele>
        <time>2021-08-30T08:46:45Z</time>
      </trkpt>
      <trkpt lat="44.64686" lon="2.44434">
        <ele>220</ele>
        <time>2021-08-30T08:46:49Z</time>
      </trkpt>
      <trkpt lat="44.64654" lon="2.44427">
        <ele>219</ele>
        <time>2021-08-30T08:46:55Z</time>
      </trkpt>
      <trkpt lat="44.64647" lon="2.44423">
        <ele>218</ele>
        <time>2021-08-30T08:46:57Z</time>
      </trkpt>
      <trkpt lat="44.64583" lon="2.44431">
        <ele>221</ele>
        <time>2021-08-30T08:47:13Z</time>
      </trkpt>
      <trkpt lat="44.64562" lon="2.44446">
        <ele>223</ele>
        <time>2021-08-30T08:47:18Z</time>
      </trkpt>
      <trkpt lat="44.64537" lon="2.44449">
        <ele>221</ele>
        <time>2021-08-30T08:47:23Z</time>
      </trkpt>
      <trkpt lat="44.64513" lon="2.44455">
        <ele>216</ele>
        <time>2021-08-30T08:47:28Z</time>
      </trkpt>
      <trkpt lat="44.64504" lon="2.44455">
        <ele>216</ele>
        <time>2021-08-30T08:47:30Z</time>
      </trkpt>
      <trkpt lat="44.64485" lon="2.44439">
        <ele>215</ele>
        <time>2021-08-30T08:47:35Z</time>
      </trkpt>
      <trkpt lat="44.64454" lon="2.44421">
        <ele>212</ele>
        <time>2021-08-30T08:47:42Z</time>
      </trkpt>
      <trkpt lat="44.64396" lon="2.44375">
        <ele>211</ele>
        <time>2021-08-30T08:47:55Z</time>
      </trkpt>
      <trkpt lat="44.64302" lon="2.4421">
        <ele>227</ele>
        <time>2021-08-30T08:48:23Z</time>
      </trkpt>
      <trkpt lat="44.64218" lon="2.4409">
        <ele>235</ele>
        <time>2021-08-30T08:48:46Z</time>
      </trkpt>
      <trkpt lat="44.64185" lon="2.44018">
        <ele>236</ele>
        <time>2021-08-30T08:48:58Z</time>
      </trkpt>
      <trkpt lat="44.64155" lon="2.43936">
        <ele>235</ele>
        <time>2021-08-30T08:49:11Z</time>
      </trkpt>
      <trkpt lat="44.64148" lon="2.43921">
        <ele>235</ele>
        <time>2021-08-30T08:49:14Z</time>
      </trkpt>
      <trkpt lat="44.64139" lon="2.43885">
        <ele>233</ele>
        <time>2021-08-30T08:49:20Z</time>
      </trkpt>
      <trkpt lat="44.64137" lon="2.43879">
        <ele>232</ele>
        <time>2021-08-30T08:49:21Z</time>
      </trkpt>
      <trkpt lat="44.64134" lon="2.43871">
        <ele>231</ele>
        <time>2021-08-30T08:49:23Z</time>
      </trkpt>
      <trkpt lat="44.64132" lon="2.43864">
        <ele>231</ele>
        <time>2021-08-30T08:49:24Z</time>
      </trkpt>
      <trkpt lat="44.64128" lon="2.43857">
        <ele>230</ele>
        <time>2021-08-30T08:49:25Z</time>
      </trkpt>
      <trkpt lat="44.64091" lon="2.43807">
        <ele>230</ele>
        <time>2021-08-30T08:49:34Z</time>
      </trkpt>
      <trkpt lat="44.64086" lon="2.43803">
        <ele>230</ele>
        <time>2021-08-30T08:49:35Z</time>
      </trkpt>
      <trkpt lat="44.64081" lon="2.43799">
        <ele>230</ele>
        <time>2021-08-30T08:49:36Z</time>
      </trkpt>
      <trkpt lat="44.64065" lon="2.43769">
        <ele>227</ele>
        <time>2021-08-30T08:49:41Z</time>
      </trkpt>
      <trkpt lat="44.64014" lon="2.43716">
        <ele>224</ele>
        <time>2021-08-30T08:49:54Z</time>
      </trkpt>
      <trkpt lat="44.64002" lon="2.43688">
        <ele>223</ele>
        <time>2021-08-30T08:49:59Z</time>
      </trkpt>
      <trkpt lat="44.64001" lon="2.43681">
        <ele>223</ele>
        <time>2021-08-30T08:50:00Z</time>
      </trkpt>
      <trkpt lat="44.64002" lon="2.43669">
        <ele>223</ele>
        <time>2021-08-30T08:50:02Z</time>
      </trkpt>
      <trkpt lat="44.64002" lon="2.43658">
        <ele>221</ele>
        <time>2021-08-30T08:50:04Z</time>
      </trkpt>
      <trkpt lat="44.63991" lon="2.43635">
        <ele>219</ele>
        <time>2021-08-30T08:50:08Z</time>
      </trkpt>
      <trkpt lat="44.63995" lon="2.43426">
        <ele>204</ele>
        <time>2021-08-30T08:50:38Z</time>
      </trkpt>
      <trkpt lat="44.63999" lon="2.43384">
        <ele>203</ele>
        <time>2021-08-30T08:50:44Z</time>
      </trkpt>
      <trkpt lat="44.64025" lon="2.4329">
        <ele>205</ele>
        <time>2021-08-30T08:50:58Z</time>
      </trkpt>
      <trkpt lat="44.64122" lon="2.43129">
        <ele>208</ele>
        <time>2021-08-30T08:51:29Z</time>
      </trkpt>
      <trkpt lat="44.64187" lon="2.43037">
        <ele>209</ele>
        <time>2021-08-30T08:51:46Z</time>
      </trkpt>
      <trkpt lat="44.64268" lon="2.42949">
        <ele>207</ele>
        <time>2021-08-30T08:52:07Z</time>
      </trkpt>
      <trkpt lat="44.64273" lon="2.42942">
        <ele>207</ele>
        <time>2021-08-30T08:52:09Z</time>
      </trkpt>
      <trkpt lat="44.64306" lon="2.42907">
        <ele>205</ele>
        <time>2021-08-30T08:52:17Z</time>
      </trkpt>
      <trkpt lat="44.64323" lon="2.42888">
        <ele>205</ele>
        <time>2021-08-30T08:52:22Z</time>
      </trkpt>
      <trkpt lat="44.64327" lon="2.42882">
        <ele>205</ele>
        <time>2021-08-30T08:52:24Z</time>
      </trkpt>
      <trkpt lat="44.64356" lon="2.42845">
        <ele>204</ele>
        <time>2021-08-30T08:52:33Z</time>
      </trkpt>
      <trkpt lat="44.64415" lon="2.42706">
        <ele>198</ele>
        <time>2021-08-30T08:52:57Z</time>
      </trkpt>
      <trkpt lat="44.64418" lon="2.42696">
        <ele>195</ele>
        <time>2021-08-30T08:52:59Z</time>
      </trkpt>
      <trkpt lat="44.64422" lon="2.42687">
        <ele>195</ele>
        <time>2021-08-30T08:53:01Z</time>
      </trkpt>
      <trkpt lat="44.64425" lon="2.42673">
        <ele>194</ele>
        <time>2021-08-30T08:53:04Z</time>
      </trkpt>
      <trkpt lat="44.64426" lon="2.42659">
        <ele>195</ele>
        <time>2021-08-30T08:53:06Z</time>
      </trkpt>
      <trkpt lat="44.64432" lon="2.42632">
        <ele>196</ele>
        <time>2021-08-30T08:53:10Z</time>
      </trkpt>
      <trkpt lat="44.64434" lon="2.42626">
        <ele>196</ele>
        <time>2021-08-30T08:53:11Z</time>
      </trkpt>
      <trkpt lat="44.64437" lon="2.4262">
        <ele>195</ele>
        <time>2021-08-30T08:53:12Z</time>
      </trkpt>
      <trkpt lat="44.64446" lon="2.42584">
        <ele>194</ele>
        <time>2021-08-30T08:53:17Z</time>
      </trkpt>
      <trkpt lat="44.64447" lon="2.42577">
        <ele>194</ele>
        <time>2021-08-30T08:53:18Z</time>
      </trkpt>
      <trkpt lat="44.64449" lon="2.42564">
        <ele>194</ele>
        <time>2021-08-30T08:53:20Z</time>
      </trkpt>
      <trkpt lat="44.64451" lon="2.42551">
        <ele>194</ele>
        <time>2021-08-30T08:53:22Z</time>
      </trkpt>
      <trkpt lat="44.64452" lon="2.42538">
        <ele>193</ele>
        <time>2021-08-30T08:53:24Z</time>
      </trkpt>
      <trkpt lat="44.64456" lon="2.42526">
        <ele>189</ele>
        <time>2021-08-30T08:53:26Z</time>
      </trkpt>
      <trkpt lat="44.64456" lon="2.4251">
        <ele>188</ele>
        <time>2021-08-30T08:53:28Z</time>
      </trkpt>
      <trkpt lat="44.64458" lon="2.42497">
        <ele>184</ele>
        <time>2021-08-30T08:53:30Z</time>
      </trkpt>
      <trkpt lat="44.64466" lon="2.4246">
        <ele>183</ele>
        <time>2021-08-30T08:53:36Z</time>
      </trkpt>
      <trkpt lat="44.64469" lon="2.42449">
        <ele>180</ele>
        <time>2021-08-30T08:53:38Z</time>
      </trkpt>
      <trkpt lat="44.64468" lon="2.42436">
        <ele>179</ele>
        <time>2021-08-30T08:53:40Z</time>
      </trkpt>
      <trkpt lat="44.64471" lon="2.42396">
        <ele>179</ele>
        <time>2021-08-30T08:53:46Z</time>
      </trkpt>
      <trkpt lat="44.64478" lon="2.4235">
        <ele>179</ele>
        <time>2021-08-30T08:53:54Z</time>
      </trkpt>
      <trkpt lat="44.64476" lon="2.42337">
        <ele>179</ele>
        <time>2021-08-30T08:53:56Z</time>
      </trkpt>
      <trkpt lat="44.6447" lon="2.42307">
        <ele>183</ele>
        <time>2021-08-30T08:54:00Z</time>
      </trkpt>
      <trkpt lat="44.64468" lon="2.42294">
        <ele>186</ele>
        <time>2021-08-30T08:54:02Z</time>
      </trkpt>
      <trkpt lat="44.64464" lon="2.42285">
        <ele>188</ele>
        <time>2021-08-30T08:54:04Z</time>
      </trkpt>
      <trkpt lat="44.64458" lon="2.42277">
        <ele>190</ele>
        <time>2021-08-30T08:54:07Z</time>
      </trkpt>
      <trkpt lat="44.64453" lon="2.42273">
        <ele>193</ele>
        <time>2021-08-30T08:54:09Z</time>
      </trkpt>
      <trkpt lat="44.64446" lon="2.42267">
        <ele>196</ele>
        <time>2021-08-30T08:54:11Z</time>
      </trkpt>
      <trkpt lat="44.6444" lon="2.42253">
        <ele>202</ele>
        <time>2021-08-30T08:54:15Z</time>
      </trkpt>
      <trkpt lat="44.64432" lon="2.42211">
        <ele>208</ele>
        <time>2021-08-30T08:54:25Z</time>
      </trkpt>
      <trkpt lat="44.64429" lon="2.42201">
        <ele>208</ele>
        <time>2021-08-30T08:54:27Z</time>
      </trkpt>
      <trkpt lat="44.64426" lon="2.42192">
        <ele>207</ele>
        <time>2021-08-30T08:54:29Z</time>
      </trkpt>
      <trkpt lat="44.64424" lon="2.4217">
        <ele>205</ele>
        <time>2021-08-30T08:54:33Z</time>
      </trkpt>
      <trkpt lat="44.64422" lon="2.42035">
        <ele>197</ele>
        <time>2021-08-30T08:54:54Z</time>
      </trkpt>
      <trkpt lat="44.64423" lon="2.42023">
        <ele>198</ele>
        <time>2021-08-30T08:54:56Z</time>
      </trkpt>
      <trkpt lat="44.64424" lon="2.42005">
        <ele>199</ele>
        <time>2021-08-30T08:55:00Z</time>
      </trkpt>
      <trkpt lat="44.64438" lon="2.41964">
        <ele>199</ele>
        <time>2021-08-30T08:55:10Z</time>
      </trkpt>
      <trkpt lat="44.64452" lon="2.41938">
        <ele>199</ele>
        <time>2021-08-30T08:55:19Z</time>
      </trkpt>
      <trkpt lat="44.64457" lon="2.41932">
        <ele>203</ele>
        <time>2021-08-30T08:55:24Z</time>
      </trkpt>
      <trkpt lat="44.64458" lon="2.41923">
        <ele>204</ele>
        <time>2021-08-30T08:55:28Z</time>
      </trkpt>
      <trkpt lat="44.64475" lon="2.41895">
        <ele>205</ele>
        <time>2021-08-30T08:55:41Z</time>
      </trkpt>
      <trkpt lat="44.64473" lon="2.41879">
        <ele>205</ele>
        <time>2021-08-30T08:55:47Z</time>
      </trkpt>
      <trkpt lat="44.64472" lon="2.41863">
        <ele>205</ele>
        <time>2021-08-30T08:55:55Z</time>
      </trkpt>
      <trkpt lat="44.64476" lon="2.41859">
        <ele>205</ele>
        <time>2021-08-30T08:56:39Z</time>
      </trkpt>
      <trkpt lat="44.64481" lon="2.41861">
        <ele>205</ele>
        <time>2021-08-30T08:56:43Z</time>
      </trkpt>
      <trkpt lat="44.64475" lon="2.41873">
        <ele>205</ele>
        <time>2021-08-30T08:56:47Z</time>
      </trkpt>
      <trkpt lat="44.6447" lon="2.41874">
        <ele>205</ele>
        <time>2021-08-30T08:56:49Z</time>
      </trkpt>
      <trkpt lat="44.64454" lon="2.41868">
        <ele>206</ele>
        <time>2021-08-30T08:56:52Z</time>
      </trkpt>
      <trkpt lat="44.64446" lon="2.4187">
        <ele>206</ele>
        <time>2021-08-30T08:56:54Z</time>
      </trkpt>
      <trkpt lat="44.6444" lon="2.41872">
        <ele>207</ele>
        <time>2021-08-30T08:56:55Z</time>
      </trkpt>
      <trkpt lat="44.64435" lon="2.41872">
        <ele>207</ele>
        <time>2021-08-30T08:56:56Z</time>
      </trkpt>
      <trkpt lat="44.64431" lon="2.4187">
        <ele>207</ele>
        <time>2021-08-30T08:56:57Z</time>
      </trkpt>
      <trkpt lat="44.64424" lon="2.41866">
        <ele>207</ele>
        <time>2021-08-30T08:56:59Z</time>
      </trkpt>
      <trkpt lat="44.64418" lon="2.41864">
        <ele>207</ele>
        <time>2021-08-30T08:57:01Z</time>
      </trkpt>
      <trkpt lat="44.64412" lon="2.41864">
        <ele>206</ele>
        <time>2021-08-30T08:57:03Z</time>
      </trkpt>
      <trkpt lat="44.64417" lon="2.41866">
        <ele>206</ele>
        <time>2021-08-30T09:02:47Z</time>
      </trkpt>
      <trkpt lat="44.64423" lon="2.41869">
        <ele>206</ele>
        <time>2021-08-30T09:02:50Z</time>
      </trkpt>
      <trkpt lat="44.64455" lon="2.41859">
        <ele>206</ele>
        <time>2021-08-30T09:02:59Z</time>
      </trkpt>
      <trkpt lat="44.64461" lon="2.4186">
        <ele>206</ele>
        <time>2021-08-30T09:03:01Z</time>
      </trkpt>
      <trkpt lat="44.64467" lon="2.41865">
        <ele>206</ele>
        <time>2021-08-30T09:03:04Z</time>
      </trkpt>
      <trkpt lat="44.64479" lon="2.41861">
        <ele>208</ele>
        <time>2021-08-30T09:03:10Z</time>
      </trkpt>
      <trkpt lat="44.64483" lon="2.41856">
        <ele>208</ele>
        <time>2021-08-30T09:03:15Z</time>
      </trkpt>
      <trkpt lat="44.64483" lon="2.41848">
        <ele>209</ele>
        <time>2021-08-30T09:03:18Z</time>
      </trkpt>
      <trkpt lat="44.64483" lon="2.4183">
        <ele>208</ele>
        <time>2021-08-30T09:03:22Z</time>
      </trkpt>
      <trkpt lat="44.64488" lon="2.41815">
        <ele>209</ele>
        <time>2021-08-30T09:03:26Z</time>
      </trkpt>
      <trkpt lat="44.64491" lon="2.41807">
        <ele>209</ele>
        <time>2021-08-30T09:03:28Z</time>
      </trkpt>
      <trkpt lat="44.64499" lon="2.41789">
        <ele>209</ele>
        <time>2021-08-30T09:03:32Z</time>
      </trkpt>
      <trkpt lat="44.64505" lon="2.41764">
        <ele>210</ele>
        <time>2021-08-30T09:03:38Z</time>
      </trkpt>
      <trkpt lat="44.64506" lon="2.41754">
        <ele>210</ele>
        <time>2021-08-30T09:03:40Z</time>
      </trkpt>
      <trkpt lat="44.64529" lon="2.41675">
        <ele>210</ele>
        <time>2021-08-30T09:03:53Z</time>
      </trkpt>
      <trkpt lat="44.64539" lon="2.4161">
        <ele>209</ele>
        <time>2021-08-30T09:04:02Z</time>
      </trkpt>
      <trkpt lat="44.64537" lon="2.41591">
        <ele>209</ele>
        <time>2021-08-30T09:04:05Z</time>
      </trkpt>
      <trkpt lat="44.64534" lon="2.4158">
        <ele>208</ele>
        <time>2021-08-30T09:04:07Z</time>
      </trkpt>
      <trkpt lat="44.64529" lon="2.41572">
        <ele>207</ele>
        <time>2021-08-30T09:04:09Z</time>
      </trkpt>
      <trkpt lat="44.64491" lon="2.41505">
        <ele>201</ele>
        <time>2021-08-30T09:04:23Z</time>
      </trkpt>
      <trkpt lat="44.64488" lon="2.41493">
        <ele>201</ele>
        <time>2021-08-30T09:04:25Z</time>
      </trkpt>
      <trkpt lat="44.64489" lon="2.41474">
        <ele>201</ele>
        <time>2021-08-30T09:04:28Z</time>
      </trkpt>
      <trkpt lat="44.64498" lon="2.41435">
        <ele>198</ele>
        <time>2021-08-30T09:04:34Z</time>
      </trkpt>
      <trkpt lat="44.64514" lon="2.41402">
        <ele>196</ele>
        <time>2021-08-30T09:04:40Z</time>
      </trkpt>
      <trkpt lat="44.64562" lon="2.41325">
        <ele>195</ele>
        <time>2021-08-30T09:04:56Z</time>
      </trkpt>
      <trkpt lat="44.64598" lon="2.4122">
        <ele>198</ele>
        <time>2021-08-30T09:05:13Z</time>
      </trkpt>
      <trkpt lat="44.64605" lon="2.41202">
        <ele>200</ele>
        <time>2021-08-30T09:05:16Z</time>
      </trkpt>
      <trkpt lat="44.6461" lon="2.41169">
        <ele>204</ele>
        <time>2021-08-30T09:05:20Z</time>
      </trkpt>
      <trkpt lat="44.64611" lon="2.41095">
        <ele>206</ele>
        <time>2021-08-30T09:05:30Z</time>
      </trkpt>
      <trkpt lat="44.64615" lon="2.41083">
        <ele>205</ele>
        <time>2021-08-30T09:05:32Z</time>
      </trkpt>
      <trkpt lat="44.64626" lon="2.41061">
        <ele>205</ele>
        <time>2021-08-30T09:05:36Z</time>
      </trkpt>
      <trkpt lat="44.64658" lon="2.40968">
        <ele>201</ele>
        <time>2021-08-30T09:05:50Z</time>
      </trkpt>
      <trkpt lat="44.64669" lon="2.40912">
        <ele>196</ele>
        <time>2021-08-30T09:05:58Z</time>
      </trkpt>
      <trkpt lat="44.64671" lon="2.40906">
        <ele>195</ele>
        <time>2021-08-30T09:05:59Z</time>
      </trkpt>
      <trkpt lat="44.64708" lon="2.40839">
        <ele>190</ele>
        <time>2021-08-30T09:06:10Z</time>
      </trkpt>
      <trkpt lat="44.64723" lon="2.40789">
        <ele>189</ele>
        <time>2021-08-30T09:06:19Z</time>
      </trkpt>
      <trkpt lat="44.64726" lon="2.40781">
        <ele>189</ele>
        <time>2021-08-30T09:06:20Z</time>
      </trkpt>
      <trkpt lat="44.64755" lon="2.4069">
        <ele>190</ele>
        <time>2021-08-30T09:06:34Z</time>
      </trkpt>
      <trkpt lat="44.64758" lon="2.40662">
        <ele>190</ele>
        <time>2021-08-30T09:06:38Z</time>
      </trkpt>
      <trkpt lat="44.64756" lon="2.40646">
        <ele>193</ele>
        <time>2021-08-30T09:06:42Z</time>
      </trkpt>
      <trkpt lat="44.64757" lon="2.40637">
        <ele>194</ele>
        <time>2021-08-30T09:06:45Z</time>
      </trkpt>
      <trkpt lat="44.6478" lon="2.40445">
        <ele>197</ele>
        <time>2021-08-30T09:07:16Z</time>
      </trkpt>
      <trkpt lat="44.64779" lon="2.4041">
        <ele>197</ele>
        <time>2021-08-30T09:07:21Z</time>
      </trkpt>
      <trkpt lat="44.6478" lon="2.40374">
        <ele>197</ele>
        <time>2021-08-30T09:07:25Z</time>
      </trkpt>
      <trkpt lat="44.64743" lon="2.40268">
        <ele>200</ele>
        <time>2021-08-30T09:07:41Z</time>
      </trkpt>
      <trkpt lat="44.64721" lon="2.40232">
        <ele>201</ele>
        <time>2021-08-30T09:07:47Z</time>
      </trkpt>
      <trkpt lat="44.6471" lon="2.40226">
        <ele>202</ele>
        <time>2021-08-30T09:07:49Z</time>
      </trkpt>
      <trkpt lat="44.647" lon="2.40217">
        <ele>203</ele>
        <time>2021-08-30T09:07:51Z</time>
      </trkpt>
      <trkpt lat="44.64689" lon="2.40208">
        <ele>203</ele>
        <time>2021-08-30T09:07:53Z</time>
      </trkpt>
      <trkpt lat="44.64675" lon="2.40191">
        <ele>201</ele>
        <time>2021-08-30T09:07:56Z</time>
      </trkpt>
      <trkpt lat="44.64668" lon="2.40173">
        <ele>201</ele>
        <time>2021-08-30T09:07:59Z</time>
      </trkpt>
      <trkpt lat="44.64665" lon="2.40167">
        <ele>201</ele>
        <time>2021-08-30T09:08:00Z</time>
      </trkpt>
      <trkpt lat="44.64646" lon="2.40123">
        <ele>200</ele>
        <time>2021-08-30T09:08:06Z</time>
      </trkpt>
      <trkpt lat="44.64641" lon="2.40116">
        <ele>201</ele>
        <time>2021-08-30T09:08:07Z</time>
      </trkpt>
      <trkpt lat="44.64635" lon="2.40104">
        <ele>202</ele>
        <time>2021-08-30T09:08:09Z</time>
      </trkpt>
      <trkpt lat="44.64625" lon="2.40058">
        <ele>203</ele>
        <time>2021-08-30T09:08:15Z</time>
      </trkpt>
      <trkpt lat="44.64624" lon="2.40041">
        <ele>203</ele>
        <time>2021-08-30T09:08:17Z</time>
      </trkpt>
      <trkpt lat="44.64608" lon="2.39996">
        <ele>202</ele>
        <time>2021-08-30T09:08:23Z</time>
      </trkpt>
      <trkpt lat="44.64613" lon="2.39949">
        <ele>203</ele>
        <time>2021-08-30T09:08:28Z</time>
      </trkpt>
      <trkpt lat="44.64623" lon="2.39899">
        <ele>202</ele>
        <time>2021-08-30T09:08:33Z</time>
      </trkpt>
      <trkpt lat="44.64631" lon="2.39883">
        <ele>202</ele>
        <time>2021-08-30T09:08:35Z</time>
      </trkpt>
      <trkpt lat="44.6467" lon="2.39826">
        <ele>202</ele>
        <time>2021-08-30T09:08:44Z</time>
      </trkpt>
      <trkpt lat="44.64687" lon="2.39775">
        <ele>203</ele>
        <time>2021-08-30T09:08:51Z</time>
      </trkpt>
      <trkpt lat="44.64696" lon="2.39688">
        <ele>209</ele>
        <time>2021-08-30T09:09:02Z</time>
      </trkpt>
      <trkpt lat="44.64697" lon="2.39646">
        <ele>211</ele>
        <time>2021-08-30T09:09:08Z</time>
      </trkpt>
      <trkpt lat="44.64683" lon="2.39606">
        <ele>215</ele>
        <time>2021-08-30T09:09:14Z</time>
      </trkpt>
      <trkpt lat="44.64672" lon="2.39556">
        <ele>218</ele>
        <time>2021-08-30T09:09:21Z</time>
      </trkpt>
      <trkpt lat="44.64671" lon="2.39548">
        <ele>219</ele>
        <time>2021-08-30T09:09:22Z</time>
      </trkpt>
      <trkpt lat="44.64665" lon="2.39528">
        <ele>219</ele>
        <time>2021-08-30T09:09:25Z</time>
      </trkpt>
      <trkpt lat="44.6466" lon="2.39519">
        <ele>220</ele>
        <time>2021-08-30T09:09:27Z</time>
      </trkpt>
      <trkpt lat="44.64654" lon="2.39509">
        <ele>220</ele>
        <time>2021-08-30T09:09:29Z</time>
      </trkpt>
      <trkpt lat="44.64652" lon="2.39491">
        <ele>220</ele>
        <time>2021-08-30T09:09:32Z</time>
      </trkpt>
      <trkpt lat="44.64647" lon="2.39478">
        <ele>220</ele>
        <time>2021-08-30T09:09:34Z</time>
      </trkpt>
      <trkpt lat="44.64638" lon="2.39465">
        <ele>220</ele>
        <time>2021-08-30T09:09:36Z</time>
      </trkpt>
      <trkpt lat="44.64623" lon="2.39408">
        <ele>221</ele>
        <time>2021-08-30T09:09:42Z</time>
      </trkpt>
      <trkpt lat="44.64607" lon="2.39391">
        <ele>221</ele>
        <time>2021-08-30T09:09:45Z</time>
      </trkpt>
      <trkpt lat="44.64585" lon="2.39361">
        <ele>218</ele>
        <time>2021-08-30T09:09:51Z</time>
      </trkpt>
      <trkpt lat="44.64543" lon="2.39285">
        <ele>214</ele>
        <time>2021-08-30T09:10:04Z</time>
      </trkpt>
      <trkpt lat="44.64495" lon="2.39229">
        <ele>215</ele>
        <time>2021-08-30T09:10:15Z</time>
      </trkpt>
      <trkpt lat="44.64488" lon="2.39217">
        <ele>213</ele>
        <time>2021-08-30T09:10:17Z</time>
      </trkpt>
      <trkpt lat="44.64469" lon="2.39192">
        <ele>211</ele>
        <time>2021-08-30T09:10:21Z</time>
      </trkpt>
      <trkpt lat="44.64463" lon="2.39176">
        <ele>211</ele>
        <time>2021-08-30T09:10:23Z</time>
      </trkpt>
      <trkpt lat="44.64453" lon="2.39138">
        <ele>212</ele>
        <time>2021-08-30T09:10:28Z</time>
      </trkpt>
      <trkpt lat="44.64445" lon="2.39109">
        <ele>210</ele>
        <time>2021-08-30T09:10:33Z</time>
      </trkpt>
      <trkpt lat="44.64441" lon="2.39103">
        <ele>210</ele>
        <time>2021-08-30T09:10:34Z</time>
      </trkpt>
      <trkpt lat="44.64438" lon="2.39096">
        <ele>210</ele>
        <time>2021-08-30T09:10:35Z</time>
      </trkpt>
      <trkpt lat="44.64434" lon="2.39089">
        <ele>209</ele>
        <time>2021-08-30T09:10:36Z</time>
      </trkpt>
      <trkpt lat="44.64432" lon="2.39082">
        <ele>209</ele>
        <time>2021-08-30T09:10:37Z</time>
      </trkpt>
      <trkpt lat="44.64431" lon="2.39074">
        <ele>209</ele>
        <time>2021-08-30T09:10:38Z</time>
      </trkpt>
      <trkpt lat="44.6443" lon="2.39065">
        <ele>209</ele>
        <time>2021-08-30T09:10:39Z</time>
      </trkpt>
      <trkpt lat="44.64426" lon="2.3903">
        <ele>209</ele>
        <time>2021-08-30T09:10:43Z</time>
      </trkpt>
      <trkpt lat="44.64429" lon="2.39011">
        <ele>210</ele>
        <time>2021-08-30T09:10:45Z</time>
      </trkpt>
      <trkpt lat="44.64453" lon="2.38911">
        <ele>217</ele>
        <time>2021-08-30T09:10:56Z</time>
      </trkpt>
      <trkpt lat="44.64456" lon="2.38903">
        <ele>217</ele>
        <time>2021-08-30T09:10:57Z</time>
      </trkpt>
      <trkpt lat="44.64486" lon="2.38856">
        <ele>214</ele>
        <time>2021-08-30T09:11:05Z</time>
      </trkpt>
      <trkpt lat="44.64496" lon="2.38844">
        <ele>213</ele>
        <time>2021-08-30T09:11:07Z</time>
      </trkpt>
      <trkpt lat="44.64549" lon="2.38819">
        <ele>210</ele>
        <time>2021-08-30T09:11:18Z</time>
      </trkpt>
      <trkpt lat="44.64584" lon="2.38834">
        <ele>209</ele>
        <time>2021-08-30T09:11:24Z</time>
      </trkpt>
      <trkpt lat="44.64606" lon="2.38847">
        <ele>209</ele>
        <time>2021-08-30T09:11:28Z</time>
      </trkpt>
      <trkpt lat="44.64654" lon="2.38894">
        <ele>214</ele>
        <time>2021-08-30T09:11:40Z</time>
      </trkpt>
      <trkpt lat="44.64678" lon="2.38927">
        <ele>214</ele>
        <time>2021-08-30T09:11:47Z</time>
      </trkpt>
      <trkpt lat="44.64716" lon="2.3895">
        <ele>215</ele>
        <time>2021-08-30T09:11:56Z</time>
      </trkpt>
      <trkpt lat="44.6473" lon="2.38949">
        <ele>218</ele>
        <time>2021-08-30T09:11:59Z</time>
      </trkpt>
      <trkpt lat="44.64739" lon="2.38948">
        <ele>220</ele>
        <time>2021-08-30T09:12:01Z</time>
      </trkpt>
      <trkpt lat="44.64744" lon="2.38948">
        <ele>221</ele>
        <time>2021-08-30T09:12:02Z</time>
      </trkpt>
      <trkpt lat="44.64757" lon="2.38947">
        <ele>224</ele>
        <time>2021-08-30T09:12:05Z</time>
      </trkpt>
      <trkpt lat="44.64766" lon="2.38946">
        <ele>226</ele>
        <time>2021-08-30T09:12:07Z</time>
      </trkpt>
      <trkpt lat="44.64782" lon="2.38948">
        <ele>230</ele>
        <time>2021-08-30T09:12:10Z</time>
      </trkpt>
      <trkpt lat="44.64791" lon="2.38945">
        <ele>230</ele>
        <time>2021-08-30T09:12:12Z</time>
      </trkpt>
      <trkpt lat="44.64819" lon="2.38946">
        <ele>231</ele>
        <time>2021-08-30T09:12:17Z</time>
      </trkpt>
      <trkpt lat="44.64883" lon="2.38952">
        <ele>231</ele>
        <time>2021-08-30T09:12:27Z</time>
      </trkpt>
      <trkpt lat="44.64939" lon="2.38929">
        <ele>224</ele>
        <time>2021-08-30T09:12:38Z</time>
      </trkpt>
      <trkpt lat="44.64997" lon="2.38878">
        <ele>220</ele>
        <time>2021-08-30T09:12:51Z</time>
      </trkpt>
      <trkpt lat="44.65009" lon="2.38854">
        <ele>218</ele>
        <time>2021-08-30T09:12:55Z</time>
      </trkpt>
      <trkpt lat="44.65018" lon="2.38818">
        <ele>216</ele>
        <time>2021-08-30T09:13:00Z</time>
      </trkpt>
      <trkpt lat="44.6502" lon="2.38777">
        <ele>216</ele>
        <time>2021-08-30T09:13:05Z</time>
      </trkpt>
      <trkpt lat="44.65017" lon="2.38765">
        <ele>215</ele>
        <time>2021-08-30T09:13:07Z</time>
      </trkpt>
      <trkpt lat="44.6501" lon="2.38756">
        <ele>213</ele>
        <time>2021-08-30T09:13:09Z</time>
      </trkpt>
      <trkpt lat="44.65006" lon="2.38749">
        <ele>209</ele>
        <time>2021-08-30T09:13:11Z</time>
      </trkpt>
      <trkpt lat="44.65006" lon="2.38738">
        <ele>201</ele>
        <time>2021-08-30T09:13:13Z</time>
      </trkpt>
      <trkpt lat="44.6501" lon="2.38727">
        <ele>197</ele>
        <time>2021-08-30T09:13:15Z</time>
      </trkpt>
      <trkpt lat="44.65007" lon="2.387">
        <ele>194</ele>
        <time>2021-08-30T09:13:19Z</time>
      </trkpt>
      <trkpt lat="44.65006" lon="2.38654">
        <ele>186</ele>
        <time>2021-08-30T09:13:25Z</time>
      </trkpt>
      <trkpt lat="44.6501" lon="2.38623">
        <ele>179</ele>
        <time>2021-08-30T09:13:29Z</time>
      </trkpt>
      <trkpt lat="44.65012" lon="2.38617">
        <ele>179</ele>
        <time>2021-08-30T09:13:30Z</time>
      </trkpt>
      <trkpt lat="44.65017" lon="2.38606">
        <ele>179</ele>
        <time>2021-08-30T09:13:32Z</time>
      </trkpt>
      <trkpt lat="44.65023" lon="2.38595">
        <ele>181</ele>
        <time>2021-08-30T09:13:34Z</time>
      </trkpt>
      <trkpt lat="44.65034" lon="2.38588">
        <ele>181</ele>
        <time>2021-08-30T09:13:36Z</time>
      </trkpt>
      <trkpt lat="44.65045" lon="2.38583">
        <ele>180</ele>
        <time>2021-08-30T09:13:38Z</time>
      </trkpt>
      <trkpt lat="44.65073" lon="2.3858">
        <ele>176</ele>
        <time>2021-08-30T09:13:41Z</time>
      </trkpt>
      <trkpt lat="44.65083" lon="2.38585">
        <ele>172</ele>
        <time>2021-08-30T09:13:43Z</time>
      </trkpt>
      <trkpt lat="44.65092" lon="2.38577">
        <ele>169</ele>
        <time>2021-08-30T09:13:46Z</time>
      </trkpt>
      <trkpt lat="44.65093" lon="2.38568">
        <ele>166</ele>
        <time>2021-08-30T09:13:48Z</time>
      </trkpt>
      <trkpt lat="44.65062" lon="2.38518">
        <ele>161</ele>
        <time>2021-08-30T09:14:00Z</time>
      </trkpt>
      <trkpt lat="44.65055" lon="2.3849">
        <ele>160</ele>
        <time>2021-08-30T09:14:06Z</time>
      </trkpt>
      <trkpt lat="44.65059" lon="2.3844">
        <ele>163</ele>
        <time>2021-08-30T09:14:18Z</time>
      </trkpt>
      <trkpt lat="44.65061" lon="2.38426">
        <ele>165</ele>
        <time>2021-08-30T09:14:22Z</time>
      </trkpt>
      <trkpt lat="44.65065" lon="2.38404">
        <ele>167</ele>
        <time>2021-08-30T09:14:28Z</time>
      </trkpt>
      <trkpt lat="44.65067" lon="2.38396">
        <ele>167</ele>
        <time>2021-08-30T09:14:30Z</time>
      </trkpt>
      <trkpt lat="44.65067" lon="2.38389">
        <ele>167</ele>
        <time>2021-08-30T09:14:32Z</time>
      </trkpt>
      <trkpt lat="44.65073" lon="2.38373">
        <ele>168</ele>
        <time>2021-08-30T09:14:36Z</time>
      </trkpt>
      <trkpt lat="44.65079" lon="2.38364">
        <ele>169</ele>
        <time>2021-08-30T09:14:38Z</time>
      </trkpt>
      <trkpt lat="44.651" lon="2.38332">
        <ele>170</ele>
        <time>2021-08-30T09:14:45Z</time>
      </trkpt>
      <trkpt lat="44.65109" lon="2.38313">
        <ele>172</ele>
        <time>2021-08-30T09:14:49Z</time>
      </trkpt>
      <trkpt lat="44.65114" lon="2.38304">
        <ele>173</ele>
        <time>2021-08-30T09:14:51Z</time>
      </trkpt>
      <trkpt lat="44.65117" lon="2.38296">
        <ele>174</ele>
        <time>2021-08-30T09:14:53Z</time>
      </trkpt>
      <trkpt lat="44.65126" lon="2.38283">
        <ele>175</ele>
        <time>2021-08-30T09:14:57Z</time>
      </trkpt>
      <trkpt lat="44.65132" lon="2.38277">
        <ele>175</ele>
        <time>2021-08-30T09:14:59Z</time>
      </trkpt>
      <trkpt lat="44.65162" lon="2.38232">
        <ele>184</ele>
        <time>2021-08-30T09:15:11Z</time>
      </trkpt>
      <trkpt lat="44.65178" lon="2.38193">
        <ele>184</ele>
        <time>2021-08-30T09:15:21Z</time>
      </trkpt>
      <trkpt lat="44.65184" lon="2.38148">
        <ele>183</ele>
        <time>2021-08-30T09:15:33Z</time>
      </trkpt>
      <trkpt lat="44.65185" lon="2.38142">
        <ele>183</ele>
        <time>2021-08-30T09:15:35Z</time>
      </trkpt>
      <trkpt lat="44.6519" lon="2.38107">
        <ele>185</ele>
        <time>2021-08-30T09:15:45Z</time>
      </trkpt>
      <trkpt lat="44.65192" lon="2.38099">
        <ele>185</ele>
        <time>2021-08-30T09:15:52Z</time>
      </trkpt>
      <trkpt lat="44.65194" lon="2.38093">
        <ele>185</ele>
        <time>2021-08-30T09:16:21Z</time>
      </trkpt>
      <trkpt lat="44.65194" lon="2.38085">
        <ele>184</ele>
        <time>2021-08-30T09:16:23Z</time>
      </trkpt>
      <trkpt lat="44.65194" lon="2.38077">
        <ele>185</ele>
        <time>2021-08-30T09:16:25Z</time>
      </trkpt>
      <trkpt lat="44.65193" lon="2.38067">
        <ele>185</ele>
        <time>2021-08-30T09:16:27Z</time>
      </trkpt>
      <trkpt lat="44.65192" lon="2.38061">
        <ele>185</ele>
        <time>2021-08-30T09:16:29Z</time>
      </trkpt>
      <trkpt lat="44.65191" lon="2.3805">
        <ele>186</ele>
        <time>2021-08-30T09:16:33Z</time>
      </trkpt>
      <trkpt lat="44.65184" lon="2.3799">
        <ele>185</ele>
        <time>2021-08-30T09:16:44Z</time>
      </trkpt>
      <trkpt lat="44.65169" lon="2.37955">
        <ele>186</ele>
        <time>2021-08-30T09:16:52Z</time>
      </trkpt>
      <trkpt lat="44.65166" lon="2.37944">
        <ele>187</ele>
        <time>2021-08-30T09:16:54Z</time>
      </trkpt>
      <trkpt lat="44.6514" lon="2.37896">
        <ele>191</ele>
        <time>2021-08-30T09:17:06Z</time>
      </trkpt>
      <trkpt lat="44.65109" lon="2.37848">
        <ele>196</ele>
        <time>2021-08-30T09:17:16Z</time>
      </trkpt>
      <trkpt lat="44.65102" lon="2.37843">
        <ele>197</ele>
        <time>2021-08-30T09:17:17Z</time>
      </trkpt>
      <trkpt lat="44.65092" lon="2.37833">
        <ele>198</ele>
        <time>2021-08-30T09:17:19Z</time>
      </trkpt>
      <trkpt lat="44.6505" lon="2.37794">
        <ele>200</ele>
        <time>2021-08-30T09:17:28Z</time>
      </trkpt>
      <trkpt lat="44.65037" lon="2.37778">
        <ele>201</ele>
        <time>2021-08-30T09:17:31Z</time>
      </trkpt>
      <trkpt lat="44.65012" lon="2.37762">
        <ele>204</ele>
        <time>2021-08-30T09:17:37Z</time>
      </trkpt>
      <trkpt lat="44.64999" lon="2.37757">
        <ele>205</ele>
        <time>2021-08-30T09:17:40Z</time>
      </trkpt>
      <trkpt lat="44.64995" lon="2.37754">
        <ele>205</ele>
        <time>2021-08-30T09:17:41Z</time>
      </trkpt>
      <trkpt lat="44.64967" lon="2.37743">
        <ele>208</ele>
        <time>2021-08-30T09:17:47Z</time>
      </trkpt>
      <trkpt lat="44.6495" lon="2.37722">
        <ele>208</ele>
        <time>2021-08-30T09:17:51Z</time>
      </trkpt>
      <trkpt lat="44.64937" lon="2.37707">
        <ele>207</ele>
        <time>2021-08-30T09:17:54Z</time>
      </trkpt>
      <trkpt lat="44.64821" lon="2.37648">
        <ele>207</ele>
        <time>2021-08-30T09:18:16Z</time>
      </trkpt>
      <trkpt lat="44.64813" lon="2.37643">
        <ele>208</ele>
        <time>2021-08-30T09:18:18Z</time>
      </trkpt>
      <trkpt lat="44.64765" lon="2.37604">
        <ele>205</ele>
        <time>2021-08-30T09:18:28Z</time>
      </trkpt>
      <trkpt lat="44.64762" lon="2.376">
        <ele>205</ele>
        <time>2021-08-30T09:18:29Z</time>
      </trkpt>
      <trkpt lat="44.64753" lon="2.37593">
        <ele>204</ele>
        <time>2021-08-30T09:18:31Z</time>
      </trkpt>
      <trkpt lat="44.64741" lon="2.37581">
        <ele>204</ele>
        <time>2021-08-30T09:18:34Z</time>
      </trkpt>
      <trkpt lat="44.64726" lon="2.37564">
        <ele>206</ele>
        <time>2021-08-30T09:18:38Z</time>
      </trkpt>
      <trkpt lat="44.64667" lon="2.37505">
        <ele>199</ele>
        <time>2021-08-30T09:18:51Z</time>
      </trkpt>
      <trkpt lat="44.64633" lon="2.37439">
        <ele>197</ele>
        <time>2021-08-30T09:19:02Z</time>
      </trkpt>
      <trkpt lat="44.64612" lon="2.37364">
        <ele>200</ele>
        <time>2021-08-30T09:19:14Z</time>
      </trkpt>
      <trkpt lat="44.64609" lon="2.37341">
        <ele>200</ele>
        <time>2021-08-30T09:19:18Z</time>
      </trkpt>
      <trkpt lat="44.64554" lon="2.37155">
        <ele>204</ele>
        <time>2021-08-30T09:19:48Z</time>
      </trkpt>
      <trkpt lat="44.64545" lon="2.3713">
        <ele>205</ele>
        <time>2021-08-30T09:19:53Z</time>
      </trkpt>
      <trkpt lat="44.64504" lon="2.37058">
        <ele>209</ele>
        <time>2021-08-30T09:20:05Z</time>
      </trkpt>
      <trkpt lat="44.64496" lon="2.37047">
        <ele>209</ele>
        <time>2021-08-30T09:20:07Z</time>
      </trkpt>
      <trkpt lat="44.64472" lon="2.37013">
        <ele>213</ele>
        <time>2021-08-30T09:20:14Z</time>
      </trkpt>
      <trkpt lat="44.64461" lon="2.36998">
        <ele>214</ele>
        <time>2021-08-30T09:20:17Z</time>
      </trkpt>
      <trkpt lat="44.64436" lon="2.36965">
        <ele>216</ele>
        <time>2021-08-30T09:20:22Z</time>
      </trkpt>
      <trkpt lat="44.6443" lon="2.36951">
        <ele>216</ele>
        <time>2021-08-30T09:20:24Z</time>
      </trkpt>
      <trkpt lat="44.64427" lon="2.36943">
        <ele>216</ele>
        <time>2021-08-30T09:20:25Z</time>
      </trkpt>
      <trkpt lat="44.64396" lon="2.36865">
        <ele>212</ele>
        <time>2021-08-30T09:20:39Z</time>
      </trkpt>
      <trkpt lat="44.6439" lon="2.36846">
        <ele>208</ele>
        <time>2021-08-30T09:20:43Z</time>
      </trkpt>
      <trkpt lat="44.64317" lon="2.367">
        <ele>198</ele>
        <time>2021-08-30T09:21:15Z</time>
      </trkpt>
      <trkpt lat="44.64311" lon="2.36691">
        <ele>197</ele>
        <time>2021-08-30T09:21:17Z</time>
      </trkpt>
      <trkpt lat="44.64302" lon="2.36673">
        <ele>196</ele>
        <time>2021-08-30T09:21:21Z</time>
      </trkpt>
      <trkpt lat="44.64245" lon="2.3661">
        <ele>190</ele>
        <time>2021-08-30T09:21:38Z</time>
      </trkpt>
      <trkpt lat="44.64235" lon="2.36593">
        <ele>188</ele>
        <time>2021-08-30T09:21:42Z</time>
      </trkpt>
      <trkpt lat="44.6423" lon="2.36584">
        <ele>187</ele>
        <time>2021-08-30T09:21:44Z</time>
      </trkpt>
      <trkpt lat="44.6421" lon="2.36545">
        <ele>186</ele>
        <time>2021-08-30T09:21:52Z</time>
      </trkpt>
      <trkpt lat="44.64202" lon="2.36523">
        <ele>188</ele>
        <time>2021-08-30T09:21:56Z</time>
      </trkpt>
      <trkpt lat="44.64192" lon="2.36459">
        <ele>188</ele>
        <time>2021-08-30T09:22:08Z</time>
      </trkpt>
      <trkpt lat="44.642" lon="2.36381">
        <ele>187</ele>
        <time>2021-08-30T09:22:21Z</time>
      </trkpt>
      <trkpt lat="44.64229" lon="2.36239">
        <ele>200</ele>
        <time>2021-08-30T09:22:53Z</time>
      </trkpt>
      <trkpt lat="44.64232" lon="2.36226">
        <ele>202</ele>
        <time>2021-08-30T09:22:56Z</time>
      </trkpt>
      <trkpt lat="44.64247" lon="2.36168">
        <ele>211</ele>
        <time>2021-08-30T09:23:12Z</time>
      </trkpt>
      <trkpt lat="44.64265" lon="2.36123">
        <ele>216</ele>
        <time>2021-08-30T09:23:26Z</time>
      </trkpt>
      <trkpt lat="44.6427" lon="2.36095">
        <ele>216</ele>
        <time>2021-08-30T09:23:33Z</time>
      </trkpt>
      <trkpt lat="44.64272" lon="2.36075">
        <ele>219</ele>
        <time>2021-08-30T09:23:38Z</time>
      </trkpt>
      <trkpt lat="44.64275" lon="2.36062">
        <ele>221</ele>
        <time>2021-08-30T09:23:42Z</time>
      </trkpt>
      <trkpt lat="44.64277" lon="2.36055">
        <ele>220</ele>
        <time>2021-08-30T09:23:44Z</time>
      </trkpt>
      <trkpt lat="44.64276" lon="2.36048">
        <ele>217</ele>
        <time>2021-08-30T09:23:47Z</time>
      </trkpt>
      <trkpt lat="44.64268" lon="2.36038">
        <ele>212</ele>
        <time>2021-08-30T09:23:53Z</time>
      </trkpt>
      <trkpt lat="44.64264" lon="2.36035">
        <ele>212</ele>
        <time>2021-08-30T09:23:55Z</time>
      </trkpt>
      <trkpt lat="44.64232" lon="2.36019">
        <ele>216</ele>
        <time>2021-08-30T09:24:08Z</time>
      </trkpt>
      <trkpt lat="44.64226" lon="2.36002">
        <ele>219</ele>
        <time>2021-08-30T09:24:14Z</time>
      </trkpt>
      <trkpt lat="44.64229" lon="2.35987">
        <ele>221</ele>
        <time>2021-08-30T09:24:21Z</time>
      </trkpt>
      <trkpt lat="44.64225" lon="2.35971">
        <ele>224</ele>
        <time>2021-08-30T09:24:25Z</time>
      </trkpt>
      <trkpt lat="44.64221" lon="2.35967">
        <ele>226</ele>
        <time>2021-08-30T09:24:28Z</time>
      </trkpt>
      <trkpt lat="44.64217" lon="2.35952">
        <ele>228</ele>
        <time>2021-08-30T09:24:34Z</time>
      </trkpt>
      <trkpt lat="44.64227" lon="2.35845">
        <ele>231</ele>
        <time>2021-08-30T09:24:48Z</time>
      </trkpt>
      <trkpt lat="44.64224" lon="2.35827">
        <ele>231</ele>
        <time>2021-08-30T09:24:50Z</time>
      </trkpt>
      <trkpt lat="44.64212" lon="2.35806">
        <ele>231</ele>
        <time>2021-08-30T09:24:53Z</time>
      </trkpt>
      <trkpt lat="44.64176" lon="2.35636">
        <ele>218</ele>
        <time>2021-08-30T09:25:18Z</time>
      </trkpt>
      <trkpt lat="44.64166" lon="2.35591">
        <ele>216</ele>
        <time>2021-08-30T09:25:28Z</time>
      </trkpt>
      <trkpt lat="44.64159" lon="2.35566">
        <ele>215</ele>
        <time>2021-08-30T09:25:34Z</time>
      </trkpt>
      <trkpt lat="44.64155" lon="2.35538">
        <ele>213</ele>
        <time>2021-08-30T09:25:40Z</time>
      </trkpt>
      <trkpt lat="44.64158" lon="2.35449">
        <ele>212</ele>
        <time>2021-08-30T09:25:58Z</time>
      </trkpt>
      <trkpt lat="44.64153" lon="2.3543">
        <ele>212</ele>
        <time>2021-08-30T09:26:02Z</time>
      </trkpt>
      <trkpt lat="44.64135" lon="2.35399">
        <ele>214</ele>
        <time>2021-08-30T09:26:10Z</time>
      </trkpt>
      <trkpt lat="44.64109" lon="2.35353">
        <ele>214</ele>
        <time>2021-08-30T09:26:22Z</time>
      </trkpt>
      <trkpt lat="44.64066" lon="2.35257">
        <ele>213</ele>
        <time>2021-08-30T09:26:41Z</time>
      </trkpt>
      <trkpt lat="44.6405" lon="2.35239">
        <ele>212</ele>
        <time>2021-08-30T09:26:45Z</time>
      </trkpt>
      <trkpt lat="44.6404" lon="2.35232">
        <ele>211</ele>
        <time>2021-08-30T09:26:47Z</time>
      </trkpt>
      <trkpt lat="44.63958" lon="2.35192">
        <ele>208</ele>
        <time>2021-08-30T09:27:00Z</time>
      </trkpt>
      <trkpt lat="44.63915" lon="2.3516">
        <ele>207</ele>
        <time>2021-08-30T09:27:07Z</time>
      </trkpt>
      <trkpt lat="44.63895" lon="2.35156">
        <ele>207</ele>
        <time>2021-08-30T09:27:10Z</time>
      </trkpt>
      <trkpt lat="44.63873" lon="2.35159">
        <ele>206</ele>
        <time>2021-08-30T09:27:13Z</time>
      </trkpt>
      <trkpt lat="44.6377" lon="2.35195">
        <ele>203</ele>
        <time>2021-08-30T09:27:25Z</time>
      </trkpt>
      <trkpt lat="44.63716" lon="2.35195">
        <ele>203</ele>
        <time>2021-08-30T09:27:31Z</time>
      </trkpt>
      <trkpt lat="44.63639" lon="2.35166">
        <ele>204</ele>
        <time>2021-08-30T09:27:45Z</time>
      </trkpt>
      <trkpt lat="44.63586" lon="2.35125">
        <ele>205</ele>
        <time>2021-08-30T09:27:53Z</time>
      </trkpt>
      <trkpt lat="44.63558" lon="2.35089">
        <ele>207</ele>
        <time>2021-08-30T09:27:59Z</time>
      </trkpt>
      <trkpt lat="44.63542" lon="2.35061">
        <ele>207</ele>
        <time>2021-08-30T09:28:04Z</time>
      </trkpt>
      <trkpt lat="44.6352" lon="2.34999">
        <ele>204</ele>
        <time>2021-08-30T09:28:19Z</time>
      </trkpt>
      <trkpt lat="44.63517" lon="2.34985">
        <ele>202</ele>
        <time>2021-08-30T09:28:23Z</time>
      </trkpt>
      <trkpt lat="44.63506" lon="2.34939">
        <ele>198</ele>
        <time>2021-08-30T09:28:35Z</time>
      </trkpt>
      <trkpt lat="44.63501" lon="2.34898">
        <ele>196</ele>
        <time>2021-08-30T09:28:45Z</time>
      </trkpt>
      <trkpt lat="44.63501" lon="2.34891">
        <ele>193</ele>
        <time>2021-08-30T09:28:47Z</time>
      </trkpt>
      <trkpt lat="44.63493" lon="2.34763">
        <ele>187</ele>
        <time>2021-08-30T09:29:17Z</time>
      </trkpt>
      <trkpt lat="44.63499" lon="2.34715">
        <ele>186</ele>
        <time>2021-08-30T09:29:27Z</time>
      </trkpt>
      <trkpt lat="44.63508" lon="2.34685">
        <ele>185</ele>
        <time>2021-08-30T09:29:33Z</time>
      </trkpt>
      <trkpt lat="44.63535" lon="2.34644">
        <ele>185</ele>
        <time>2021-08-30T09:29:46Z</time>
      </trkpt>
      <trkpt lat="44.63538" lon="2.34638">
        <ele>185</ele>
        <time>2021-08-30T09:29:50Z</time>
      </trkpt>
      <trkpt lat="44.63544" lon="2.34619">
        <ele>186</ele>
        <time>2021-08-30T09:30:14Z</time>
      </trkpt>
      <trkpt lat="44.63549" lon="2.34611">
        <ele>188</ele>
        <time>2021-08-30T09:30:16Z</time>
      </trkpt>
      <trkpt lat="44.63554" lon="2.34602">
        <ele>188</ele>
        <time>2021-08-30T09:30:18Z</time>
      </trkpt>
      <trkpt lat="44.63655" lon="2.34479">
        <ele>188</ele>
        <time>2021-08-30T09:30:48Z</time>
      </trkpt>
      <trkpt lat="44.63754" lon="2.34338">
        <ele>170</ele>
        <time>2021-08-30T09:31:18Z</time>
      </trkpt>
      <trkpt lat="44.63801" lon="2.34204">
        <ele>170</ele>
        <time>2021-08-30T09:31:36Z</time>
      </trkpt>
      <trkpt lat="44.63817" lon="2.34147">
        <ele>175</ele>
        <time>2021-08-30T09:31:43Z</time>
      </trkpt>
      <trkpt lat="44.6383" lon="2.34028">
        <ele>187</ele>
        <time>2021-08-30T09:31:57Z</time>
      </trkpt>
      <trkpt lat="44.63822" lon="2.33946">
        <ele>190</ele>
        <time>2021-08-30T09:32:10Z</time>
      </trkpt>
      <trkpt lat="44.63815" lon="2.33901">
        <ele>192</ele>
        <time>2021-08-30T09:32:18Z</time>
      </trkpt>
      <trkpt lat="44.63818" lon="2.33815">
        <ele>195</ele>
        <time>2021-08-30T09:32:31Z</time>
      </trkpt>
      <trkpt lat="44.63823" lon="2.33605">
        <ele>199</ele>
        <time>2021-08-30T09:33:02Z</time>
      </trkpt>
      <trkpt lat="44.63824" lon="2.33558">
        <ele>202</ele>
        <time>2021-08-30T09:33:09Z</time>
      </trkpt>
      <trkpt lat="44.6382" lon="2.33535">
        <ele>203</ele>
        <time>2021-08-30T09:33:13Z</time>
      </trkpt>
      <trkpt lat="44.63786" lon="2.33442">
        <ele>202</ele>
        <time>2021-08-30T09:33:29Z</time>
      </trkpt>
      <trkpt lat="44.63767" lon="2.33298">
        <ele>204</ele>
        <time>2021-08-30T09:33:52Z</time>
      </trkpt>
      <trkpt lat="44.63757" lon="2.33265">
        <ele>203</ele>
        <time>2021-08-30T09:33:58Z</time>
      </trkpt>
      <trkpt lat="44.63704" lon="2.33065">
        <ele>197</ele>
        <time>2021-08-30T09:34:21Z</time>
      </trkpt>
      <trkpt lat="44.63686" lon="2.33016">
        <ele>196</ele>
        <time>2021-08-30T09:34:26Z</time>
      </trkpt>
      <trkpt lat="44.63605" lon="2.32906">
        <ele>193</ele>
        <time>2021-08-30T09:34:40Z</time>
      </trkpt>
      <trkpt lat="44.63537" lon="2.3282">
        <ele>190</ele>
        <time>2021-08-30T09:34:53Z</time>
      </trkpt>
      <trkpt lat="44.63456" lon="2.32654">
        <ele>190</ele>
        <time>2021-08-30T09:35:15Z</time>
      </trkpt>
      <trkpt lat="44.63405" lon="2.32478">
        <ele>194</ele>
        <time>2021-08-30T09:35:43Z</time>
      </trkpt>
      <trkpt lat="44.63403" lon="2.32425">
        <ele>195</ele>
        <time>2021-08-30T09:35:51Z</time>
      </trkpt>
      <trkpt lat="44.63406" lon="2.32392">
        <ele>196</ele>
        <time>2021-08-30T09:35:56Z</time>
      </trkpt>
      <trkpt lat="44.63417" lon="2.32359">
        <ele>196</ele>
        <time>2021-08-30T09:36:02Z</time>
      </trkpt>
      <trkpt lat="44.63434" lon="2.3233">
        <ele>196</ele>
        <time>2021-08-30T09:36:08Z</time>
      </trkpt>
      <trkpt lat="44.63494" lon="2.32285">
        <ele>198</ele>
        <time>2021-08-30T09:36:22Z</time>
      </trkpt>
      <trkpt lat="44.63503" lon="2.32281">
        <ele>199</ele>
        <time>2021-08-30T09:36:24Z</time>
      </trkpt>
      <trkpt lat="44.63527" lon="2.32283">
        <ele>201</ele>
        <time>2021-08-30T09:36:29Z</time>
      </trkpt>
      <trkpt lat="44.63664" lon="2.3232">
        <ele>201</ele>
        <time>2021-08-30T09:36:53Z</time>
      </trkpt>
      <trkpt lat="44.63787" lon="2.3229">
        <ele>203</ele>
        <time>2021-08-30T09:37:14Z</time>
      </trkpt>
      <trkpt lat="44.63907" lon="2.32261">
        <ele>204</ele>
        <time>2021-08-30T09:37:38Z</time>
      </trkpt>
      <trkpt lat="44.63952" lon="2.32219">
        <ele>204</ele>
        <time>2021-08-30T09:37:49Z</time>
      </trkpt>
      <trkpt lat="44.63977" lon="2.32187">
        <ele>202</ele>
        <time>2021-08-30T09:37:57Z</time>
      </trkpt>
      <trkpt lat="44.63983" lon="2.32181">
        <ele>202</ele>
        <time>2021-08-30T09:37:59Z</time>
      </trkpt>
      <trkpt lat="44.64075" lon="2.32035">
        <ele>186</ele>
        <time>2021-08-30T09:38:27Z</time>
      </trkpt>
      <trkpt lat="44.64088" lon="2.32002">
        <ele>187</ele>
        <time>2021-08-30T09:38:32Z</time>
      </trkpt>
      <trkpt lat="44.64105" lon="2.3193">
        <ele>190</ele>
        <time>2021-08-30T09:38:41Z</time>
      </trkpt>
      <trkpt lat="44.64124" lon="2.31696">
        <ele>188</ele>
        <time>2021-08-30T09:39:11Z</time>
      </trkpt>
      <trkpt lat="44.64132" lon="2.31624">
        <ele>189</ele>
        <time>2021-08-30T09:39:20Z</time>
      </trkpt>
      <trkpt lat="44.64116" lon="2.31483">
        <ele>181</ele>
        <time>2021-08-30T09:39:39Z</time>
      </trkpt>
      <trkpt lat="44.64102" lon="2.31443">
        <ele>180</ele>
        <time>2021-08-30T09:39:45Z</time>
      </trkpt>
      <trkpt lat="44.64095" lon="2.31425">
        <ele>177</ele>
        <time>2021-08-30T09:39:48Z</time>
      </trkpt>
      <trkpt lat="44.64076" lon="2.31391">
        <ele>173</ele>
        <time>2021-08-30T09:39:54Z</time>
      </trkpt>
      <trkpt lat="44.64069" lon="2.31381">
        <ele>172</ele>
        <time>2021-08-30T09:39:56Z</time>
      </trkpt>
      <trkpt lat="44.63996" lon="2.31298">
        <ele>170</ele>
        <time>2021-08-30T09:40:14Z</time>
      </trkpt>
      <trkpt lat="44.63982" lon="2.31285">
        <ele>165</ele>
        <time>2021-08-30T09:40:18Z</time>
      </trkpt>
      <trkpt lat="44.63965" lon="2.31275">
        <ele>162</ele>
        <time>2021-08-30T09:40:22Z</time>
      </trkpt>
      <trkpt lat="44.63942" lon="2.31264">
        <ele>159</ele>
        <time>2021-08-30T09:40:26Z</time>
      </trkpt>
      <trkpt lat="44.6392" lon="2.3125">
        <ele>156</ele>
        <time>2021-08-30T09:40:30Z</time>
      </trkpt>
      <trkpt lat="44.63875" lon="2.31233">
        <ele>151</ele>
        <time>2021-08-30T09:40:38Z</time>
      </trkpt>
      <trkpt lat="44.63839" lon="2.31227">
        <ele>148</ele>
        <time>2021-08-30T09:40:44Z</time>
      </trkpt>
      <trkpt lat="44.63713" lon="2.312">
        <ele>149</ele>
        <time>2021-08-30T09:41:08Z</time>
      </trkpt>
      <trkpt lat="44.63669" lon="2.312">
        <ele>152</ele>
        <time>2021-08-30T09:41:16Z</time>
      </trkpt>
      <trkpt lat="44.63598" lon="2.31197">
        <ele>154</ele>
        <time>2021-08-30T09:41:29Z</time>
      </trkpt>
      <trkpt lat="44.63554" lon="2.31212">
        <ele>151</ele>
        <time>2021-08-30T09:41:37Z</time>
      </trkpt>
      <trkpt lat="44.63404" lon="2.31331">
        <ele>165</ele>
        <time>2021-08-30T09:42:04Z</time>
      </trkpt>
      <trkpt lat="44.63349" lon="2.31422">
        <ele>171</ele>
        <time>2021-08-30T09:42:18Z</time>
      </trkpt>
      <trkpt lat="44.63299" lon="2.31536">
        <ele>181</ele>
        <time>2021-08-30T09:42:33Z</time>
      </trkpt>
      <trkpt lat="44.63285" lon="2.31551">
        <ele>182</ele>
        <time>2021-08-30T09:42:36Z</time>
      </trkpt>
      <trkpt lat="44.63259" lon="2.31578">
        <ele>186</ele>
        <time>2021-08-30T09:42:42Z</time>
      </trkpt>
      <trkpt lat="44.6315" lon="2.31688">
        <ele>190</ele>
        <time>2021-08-30T09:43:07Z</time>
      </trkpt>
      <trkpt lat="44.63128" lon="2.31702">
        <ele>188</ele>
        <time>2021-08-30T09:43:11Z</time>
      </trkpt>
      <trkpt lat="44.6306" lon="2.31736">
        <ele>188</ele>
        <time>2021-08-30T09:43:23Z</time>
      </trkpt>
      <trkpt lat="44.63028" lon="2.31761">
        <ele>189</ele>
        <time>2021-08-30T09:43:29Z</time>
      </trkpt>
      <trkpt lat="44.63008" lon="2.31786">
        <ele>191</ele>
        <time>2021-08-30T09:43:33Z</time>
      </trkpt>
      <trkpt lat="44.62988" lon="2.31825">
        <ele>193</ele>
        <time>2021-08-30T09:43:38Z</time>
      </trkpt>
      <trkpt lat="44.62951" lon="2.31939">
        <ele>195</ele>
        <time>2021-08-30T09:43:52Z</time>
      </trkpt>
      <trkpt lat="44.62903" lon="2.32044">
        <ele>191</ele>
        <time>2021-08-30T09:44:05Z</time>
      </trkpt>
      <trkpt lat="44.62873" lon="2.32073">
        <ele>190</ele>
        <time>2021-08-30T09:44:10Z</time>
      </trkpt>
      <trkpt lat="44.62832" lon="2.32103">
        <ele>187</ele>
        <time>2021-08-30T09:44:17Z</time>
      </trkpt>
      <trkpt lat="44.62808" lon="2.32112">
        <ele>186</ele>
        <time>2021-08-30T09:44:21Z</time>
      </trkpt>
      <trkpt lat="44.62795" lon="2.32113">
        <ele>187</ele>
        <time>2021-08-30T09:44:23Z</time>
      </trkpt>
      <trkpt lat="44.62763" lon="2.32098">
        <ele>188</ele>
        <time>2021-08-30T09:44:30Z</time>
      </trkpt>
      <trkpt lat="44.62723" lon="2.32068">
        <ele>193</ele>
        <time>2021-08-30T09:44:42Z</time>
      </trkpt>
      <trkpt lat="44.62704" lon="2.32028">
        <ele>194</ele>
        <time>2021-08-30T09:44:52Z</time>
      </trkpt>
      <trkpt lat="44.6269" lon="2.31984">
        <ele>197</ele>
        <time>2021-08-30T09:45:02Z</time>
      </trkpt>
      <trkpt lat="44.62677" lon="2.31829">
        <ele>201</ele>
        <time>2021-08-30T09:45:33Z</time>
      </trkpt>
      <trkpt lat="44.62667" lon="2.31727">
        <ele>201</ele>
        <time>2021-08-30T09:45:55Z</time>
      </trkpt>
      <trkpt lat="44.62662" lon="2.31714">
        <ele>200</ele>
        <time>2021-08-30T09:46:00Z</time>
      </trkpt>
      <trkpt lat="44.62648" lon="2.31698">
        <ele>198</ele>
        <time>2021-08-30T09:46:06Z</time>
      </trkpt>
      <trkpt lat="44.6262" lon="2.31657">
        <ele>195</ele>
        <time>2021-08-30T09:46:17Z</time>
      </trkpt>
      <trkpt lat="44.62607" lon="2.31628">
        <ele>193</ele>
        <time>2021-08-30T09:46:25Z</time>
      </trkpt>
      <trkpt lat="44.62602" lon="2.31598">
        <ele>193</ele>
        <time>2021-08-30T09:46:31Z</time>
      </trkpt>
      <trkpt lat="44.62607" lon="2.3156">
        <ele>191</ele>
        <time>2021-08-30T09:46:39Z</time>
      </trkpt>
      <trkpt lat="44.62608" lon="2.31541">
        <ele>190</ele>
        <time>2021-08-30T09:46:43Z</time>
      </trkpt>
      <trkpt lat="44.62622" lon="2.31468">
        <ele>179</ele>
        <time>2021-08-30T09:47:01Z</time>
      </trkpt>
      <trkpt lat="44.62622" lon="2.3146">
        <ele>178</ele>
        <time>2021-08-30T09:47:03Z</time>
      </trkpt>
      <trkpt lat="44.62638" lon="2.3141">
        <ele>176</ele>
        <time>2021-08-30T09:47:20Z</time>
      </trkpt>
      <trkpt lat="44.6264" lon="2.31403">
        <ele>173</ele>
        <time>2021-08-30T09:47:23Z</time>
      </trkpt>
      <trkpt lat="44.62642" lon="2.31397">
        <ele>173</ele>
        <time>2021-08-30T09:47:25Z</time>
      </trkpt>
      <trkpt lat="44.62644" lon="2.31388">
        <ele>172</ele>
        <time>2021-08-30T09:47:28Z</time>
      </trkpt>
      <trkpt lat="44.62658" lon="2.3133">
        <ele>168</ele>
        <time>2021-08-30T09:47:47Z</time>
      </trkpt>
      <trkpt lat="44.6266" lon="2.31323">
        <ele>168</ele>
        <time>2021-08-30T09:47:49Z</time>
      </trkpt>
      <trkpt lat="44.62663" lon="2.31317">
        <ele>169</ele>
        <time>2021-08-30T09:47:51Z</time>
      </trkpt>
      <trkpt lat="44.62666" lon="2.31312">
        <ele>169</ele>
        <time>2021-08-30T09:47:53Z</time>
      </trkpt>
      <trkpt lat="44.62672" lon="2.31299">
        <ele>169</ele>
        <time>2021-08-30T09:47:58Z</time>
      </trkpt>
      <trkpt lat="44.62674" lon="2.31291">
        <ele>168</ele>
        <time>2021-08-30T09:48:01Z</time>
      </trkpt>
      <trkpt lat="44.62677" lon="2.31276">
        <ele>166</ele>
        <time>2021-08-30T09:48:06Z</time>
      </trkpt>
      <trkpt lat="44.6268" lon="2.31257">
        <ele>165</ele>
        <time>2021-08-30T09:48:11Z</time>
      </trkpt>
      <trkpt lat="44.62681" lon="2.3125">
        <ele>166</ele>
        <time>2021-08-30T09:48:12Z</time>
      </trkpt>
      <trkpt lat="44.62683" lon="2.31244">
        <ele>166</ele>
        <time>2021-08-30T09:48:13Z</time>
      </trkpt>
      <trkpt lat="44.62686" lon="2.3122">
        <ele>168</ele>
        <time>2021-08-30T09:48:16Z</time>
      </trkpt>
      <trkpt lat="44.62711" lon="2.31092">
        <ele>174</ele>
        <time>2021-08-30T09:48:29Z</time>
      </trkpt>
      <trkpt lat="44.62713" lon="2.31085">
        <ele>174</ele>
        <time>2021-08-30T09:48:30Z</time>
      </trkpt>
      <trkpt lat="44.62723" lon="2.31064">
        <ele>178</ele>
        <time>2021-08-30T09:48:36Z</time>
      </trkpt>
      <trkpt lat="44.62752" lon="2.30882">
        <ele>181</ele>
        <time>2021-08-30T09:49:02Z</time>
      </trkpt>
      <trkpt lat="44.62772" lon="2.3083">
        <ele>183</ele>
        <time>2021-08-30T09:49:10Z</time>
      </trkpt>
      <trkpt lat="44.62821" lon="2.30731">
        <ele>188</ele>
        <time>2021-08-30T09:49:27Z</time>
      </trkpt>
      <trkpt lat="44.62905" lon="2.30508">
        <ele>188</ele>
        <time>2021-08-30T09:49:57Z</time>
      </trkpt>
      <trkpt lat="44.63002" lon="2.30291">
        <ele>191</ele>
        <time>2021-08-30T09:50:28Z</time>
      </trkpt>
      <trkpt lat="44.63031" lon="2.30226">
        <ele>192</ele>
        <time>2021-08-30T09:50:38Z</time>
      </trkpt>
      <trkpt lat="44.63045" lon="2.30151">
        <ele>192</ele>
        <time>2021-08-30T09:50:48Z</time>
      </trkpt>
      <trkpt lat="44.63055" lon="2.29952">
        <ele>197</ele>
        <time>2021-08-30T09:51:14Z</time>
      </trkpt>
      <trkpt lat="44.63052" lon="2.2993">
        <ele>197</ele>
        <time>2021-08-30T09:51:17Z</time>
      </trkpt>
      <trkpt lat="44.63045" lon="2.29902">
        <ele>198</ele>
        <time>2021-08-30T09:51:21Z</time>
      </trkpt>
      <trkpt lat="44.63033" lon="2.2988">
        <ele>199</ele>
        <time>2021-08-30T09:51:26Z</time>
      </trkpt>
      <trkpt lat="44.62944" lon="2.29813">
        <ele>191</ele>
        <time>2021-08-30T09:51:58Z</time>
      </trkpt>
      <trkpt lat="44.62892" lon="2.29777">
        <ele>188</ele>
        <time>2021-08-30T09:52:18Z</time>
      </trkpt>
      <trkpt lat="44.62888" lon="2.29776">
        <ele>187</ele>
        <time>2021-08-30T09:52:20Z</time>
      </trkpt>
      <trkpt lat="44.62882" lon="2.29772">
        <ele>187</ele>
        <time>2021-08-30T09:52:23Z</time>
      </trkpt>
      <trkpt lat="44.62877" lon="2.2977">
        <ele>185</ele>
        <time>2021-08-30T09:52:25Z</time>
      </trkpt>
      <trkpt lat="44.62872" lon="2.29768">
        <ele>183</ele>
        <time>2021-08-30T09:52:27Z</time>
      </trkpt>
      <trkpt lat="44.62864" lon="2.29766">
        <ele>182</ele>
        <time>2021-08-30T09:52:30Z</time>
      </trkpt>
      <trkpt lat="44.62859" lon="2.29769">
        <ele>181</ele>
        <time>2021-08-30T09:52:32Z</time>
      </trkpt>
      <trkpt lat="44.62843" lon="2.29775">
        <ele>180</ele>
        <time>2021-08-30T09:52:39Z</time>
      </trkpt>
      <trkpt lat="44.62818" lon="2.29787">
        <ele>186</ele>
        <time>2021-08-30T09:52:48Z</time>
      </trkpt>
      <trkpt lat="44.62797" lon="2.29792">
        <ele>189</ele>
        <time>2021-08-30T09:52:55Z</time>
      </trkpt>
      <trkpt lat="44.62791" lon="2.2979">
        <ele>189</ele>
        <time>2021-08-30T09:52:57Z</time>
      </trkpt>
      <trkpt lat="44.62756" lon="2.29772">
        <ele>198</ele>
        <time>2021-08-30T09:53:09Z</time>
      </trkpt>
      <trkpt lat="44.62741" lon="2.2977">
        <ele>199</ele>
        <time>2021-08-30T09:53:13Z</time>
      </trkpt>
      <trkpt lat="44.6269" lon="2.29787">
        <ele>200</ele>
        <time>2021-08-30T09:53:27Z</time>
      </trkpt>
      <trkpt lat="44.62653" lon="2.29782">
        <ele>200</ele>
        <time>2021-08-30T09:53:36Z</time>
      </trkpt>
      <trkpt lat="44.62626" lon="2.29768">
        <ele>199</ele>
        <time>2021-08-30T09:53:41Z</time>
      </trkpt>
      <trkpt lat="44.62608" lon="2.29753">
        <ele>199</ele>
        <time>2021-08-30T09:53:44Z</time>
      </trkpt>
      <trkpt lat="44.62406" lon="2.29485">
        <ele>185</ele>
        <time>2021-08-30T09:54:14Z</time>
      </trkpt>
      <trkpt lat="44.62288" lon="2.29312">
        <ele>183</ele>
        <time>2021-08-30T09:54:33Z</time>
      </trkpt>
      <trkpt lat="44.62222" lon="2.29163">
        <ele>179</ele>
        <time>2021-08-30T09:54:47Z</time>
      </trkpt>
      <trkpt lat="44.62202" lon="2.29074">
        <ele>178</ele>
        <time>2021-08-30T09:54:55Z</time>
      </trkpt>
      <trkpt lat="44.62198" lon="2.28892">
        <ele>179</ele>
        <time>2021-08-30T09:55:17Z</time>
      </trkpt>
      <trkpt lat="44.62205" lon="2.28664">
        <ele>180</ele>
        <time>2021-08-30T09:55:47Z</time>
      </trkpt>
      <trkpt lat="44.62205" lon="2.28395">
        <ele>204</ele>
        <time>2021-08-30T09:56:17Z</time>
      </trkpt>
      <trkpt lat="44.62214" lon="2.28102">
        <ele>211</ele>
        <time>2021-08-30T09:56:48Z</time>
      </trkpt>
      <trkpt lat="44.62234" lon="2.27886">
        <ele>211</ele>
        <time>2021-08-30T09:57:11Z</time>
      </trkpt>
      <trkpt lat="44.62284" lon="2.2764">
        <ele>199</ele>
        <time>2021-08-30T09:57:42Z</time>
      </trkpt>
      <trkpt lat="44.62314" lon="2.27418">
        <ele>198</ele>
        <time>2021-08-30T09:58:08Z</time>
      </trkpt>
      <trkpt lat="44.62313" lon="2.27351">
        <ele>196</ele>
        <time>2021-08-30T09:58:16Z</time>
      </trkpt>
      <trkpt lat="44.62272" lon="2.27161">
        <ele>194</ele>
        <time>2021-08-30T09:58:38Z</time>
      </trkpt>
      <trkpt lat="44.62229" lon="2.27018">
        <ele>186</ele>
        <time>2021-08-30T09:58:55Z</time>
      </trkpt>
      <trkpt lat="44.62225" lon="2.27003">
        <ele>184</ele>
        <time>2021-08-30T09:58:57Z</time>
      </trkpt>
      <trkpt lat="44.62216" lon="2.26988">
        <ele>184</ele>
        <time>2021-08-30T09:58:59Z</time>
      </trkpt>
      <trkpt lat="44.62157" lon="2.26779">
        <ele>183</ele>
        <time>2021-08-30T09:59:23Z</time>
      </trkpt>
      <trkpt lat="44.6213" lon="2.26696">
        <ele>186</ele>
        <time>2021-08-30T09:59:34Z</time>
      </trkpt>
      <trkpt lat="44.62121" lon="2.26682">
        <ele>187</ele>
        <time>2021-08-30T09:59:36Z</time>
      </trkpt>
      <trkpt lat="44.62108" lon="2.26644">
        <ele>189</ele>
        <time>2021-08-30T09:59:41Z</time>
      </trkpt>
      <trkpt lat="44.62105" lon="2.26622">
        <ele>190</ele>
        <time>2021-08-30T09:59:44Z</time>
      </trkpt>
      <trkpt lat="44.621" lon="2.26609">
        <ele>190</ele>
        <time>2021-08-30T09:59:46Z</time>
      </trkpt>
      <trkpt lat="44.62095" lon="2.2659">
        <ele>190</ele>
        <time>2021-08-30T09:59:49Z</time>
      </trkpt>
      <trkpt lat="44.62085" lon="2.26564">
        <ele>190</ele>
        <time>2021-08-30T09:59:53Z</time>
      </trkpt>
      <trkpt lat="44.6207" lon="2.26528">
        <ele>192</ele>
        <time>2021-08-30T09:59:58Z</time>
      </trkpt>
      <trkpt lat="44.62054" lon="2.26499">
        <ele>189</ele>
        <time>2021-08-30T10:00:03Z</time>
      </trkpt>
      <trkpt lat="44.61999" lon="2.26391">
        <ele>182</ele>
        <time>2021-08-30T10:00:20Z</time>
      </trkpt>
      <trkpt lat="44.61936" lon="2.26189">
        <ele>183</ele>
        <time>2021-08-30T10:00:49Z</time>
      </trkpt>
      <trkpt lat="44.61872" lon="2.26073">
        <ele>183</ele>
        <time>2021-08-30T10:01:07Z</time>
      </trkpt>
      <trkpt lat="44.618" lon="2.25973">
        <ele>184</ele>
        <time>2021-08-30T10:01:28Z</time>
      </trkpt>
      <trkpt lat="44.61774" lon="2.25917">
        <ele>184</ele>
        <time>2021-08-30T10:01:39Z</time>
      </trkpt>
      <trkpt lat="44.61736" lon="2.25752">
        <ele>185</ele>
        <time>2021-08-30T10:02:03Z</time>
      </trkpt>
      <trkpt lat="44.61702" lon="2.25691">
        <ele>184</ele>
        <time>2021-08-30T10:02:14Z</time>
      </trkpt>
      <trkpt lat="44.61639" lon="2.25604">
        <ele>184</ele>
        <time>2021-08-30T10:02:31Z</time>
      </trkpt>
      <trkpt lat="44.61531" lon="2.25532">
        <ele>181</ele>
        <time>2021-08-30T10:02:54Z</time>
      </trkpt>
      <trkpt lat="44.61416" lon="2.25453">
        <ele>181</ele>
        <time>2021-08-30T10:03:24Z</time>
      </trkpt>
      <trkpt lat="44.61411" lon="2.25449">
        <ele>182</ele>
        <time>2021-08-30T10:03:27Z</time>
      </trkpt>
      <trkpt lat="44.61401" lon="2.25452">
        <ele>182</ele>
        <time>2021-08-30T10:04:02Z</time>
      </trkpt>
      <trkpt lat="44.61403" lon="2.25463">
        <ele>183</ele>
        <time>2021-08-30T10:05:38Z</time>
      </trkpt>
      <trkpt lat="44.61402" lon="2.25471">
        <ele>183</ele>
        <time>2021-08-30T10:05:40Z</time>
      </trkpt>
      <trkpt lat="44.61399" lon="2.25503">
        <ele>183</ele>
        <time>2021-08-30T10:05:48Z</time>
      </trkpt>
      <trkpt lat="44.61396" lon="2.25511">
        <ele>183</ele>
        <time>2021-08-30T10:05:50Z</time>
      </trkpt>
      <trkpt lat="44.61392" lon="2.25518">
        <ele>183</ele>
        <time>2021-08-30T10:05:52Z</time>
      </trkpt>
      <trkpt lat="44.61385" lon="2.25521">
        <ele>184</ele>
        <time>2021-08-30T10:05:55Z</time>
      </trkpt>
      <trkpt lat="44.61379" lon="2.25523">
        <ele>185</ele>
        <time>2021-08-30T10:05:58Z</time>
      </trkpt>
      <trkpt lat="44.61361" lon="2.25531">
        <ele>185</ele>
        <time>2021-08-30T10:06:14Z</time>
      </trkpt>
      <trkpt lat="44.61347" lon="2.25534">
        <ele>183</ele>
        <time>2021-08-30T10:06:18Z</time>
      </trkpt>
      <trkpt lat="44.61325" lon="2.2553">
        <ele>181</ele>
        <time>2021-08-30T10:06:23Z</time>
      </trkpt>
      <trkpt lat="44.61319" lon="2.25525">
        <ele>182</ele>
        <time>2021-08-30T10:06:25Z</time>
      </trkpt>
      <trkpt lat="44.61311" lon="2.25512">
        <ele>184</ele>
        <time>2021-08-30T10:06:27Z</time>
      </trkpt>
      <trkpt lat="44.61305" lon="2.25497">
        <ele>184</ele>
        <time>2021-08-30T10:06:29Z</time>
      </trkpt>
      <trkpt lat="44.61295" lon="2.25423">
        <ele>179</ele>
        <time>2021-08-30T10:06:44Z</time>
      </trkpt>
      <trkpt lat="44.61294" lon="2.25416">
        <ele>179</ele>
        <time>2021-08-30T10:06:46Z</time>
      </trkpt>
      <trkpt lat="44.61283" lon="2.25333">
        <ele>178</ele>
        <time>2021-08-30T10:07:00Z</time>
      </trkpt>
      <trkpt lat="44.61252" lon="2.25206">
        <ele>174</ele>
        <time>2021-08-30T10:07:22Z</time>
      </trkpt>
      <trkpt lat="44.61245" lon="2.25146">
        <ele>171</ele>
        <time>2021-08-30T10:07:34Z</time>
      </trkpt>
      <trkpt lat="44.61247" lon="2.25102">
        <ele>168</ele>
        <time>2021-08-30T10:07:42Z</time>
      </trkpt>
      <trkpt lat="44.61249" lon="2.25085">
        <ele>168</ele>
        <time>2021-08-30T10:07:46Z</time>
      </trkpt>
      <trkpt lat="44.61252" lon="2.25078">
        <ele>167</ele>
        <time>2021-08-30T10:07:48Z</time>
      </trkpt>
      <trkpt lat="44.61282" lon="2.25049">
        <ele>170</ele>
        <time>2021-08-30T10:07:58Z</time>
      </trkpt>
      <trkpt lat="44.61291" lon="2.25037">
        <ele>173</ele>
        <time>2021-08-30T10:08:03Z</time>
      </trkpt>
      <trkpt lat="44.61297" lon="2.25037">
        <ele>175</ele>
        <time>2021-08-30T10:08:05Z</time>
      </trkpt>
      <trkpt lat="44.61304" lon="2.25038">
        <ele>178</ele>
        <time>2021-08-30T10:08:07Z</time>
      </trkpt>
      <trkpt lat="44.61331" lon="2.25037">
        <ele>185</ele>
        <time>2021-08-30T10:08:15Z</time>
      </trkpt>
      <trkpt lat="44.61406" lon="2.25006">
        <ele>193</ele>
        <time>2021-08-30T10:08:39Z</time>
      </trkpt>
      <trkpt lat="44.61409" lon="2.24999">
        <ele>193</ele>
        <time>2021-08-30T10:08:42Z</time>
      </trkpt>
      <trkpt lat="44.6141" lon="2.2499">
        <ele>193</ele>
        <time>2021-08-30T10:08:44Z</time>
      </trkpt>
      <trkpt lat="44.61409" lon="2.24961">
        <ele>191</ele>
        <time>2021-08-30T10:08:50Z</time>
      </trkpt>
      <trkpt lat="44.61406" lon="2.24895">
        <ele>189</ele>
        <time>2021-08-30T10:09:01Z</time>
      </trkpt>
      <trkpt lat="44.61406" lon="2.24866">
        <ele>188</ele>
        <time>2021-08-30T10:09:05Z</time>
      </trkpt>
      <trkpt lat="44.61404" lon="2.24855">
        <ele>188</ele>
        <time>2021-08-30T10:09:07Z</time>
      </trkpt>
      <trkpt lat="44.61392" lon="2.24845">
        <ele>187</ele>
        <time>2021-08-30T10:09:10Z</time>
      </trkpt>
      <trkpt lat="44.61388" lon="2.24842">
        <ele>186</ele>
        <time>2021-08-30T10:09:11Z</time>
      </trkpt>
      <trkpt lat="44.61383" lon="2.24841">
        <ele>186</ele>
        <time>2021-08-30T10:09:12Z</time>
      </trkpt>
      <trkpt lat="44.61353" lon="2.2485">
        <ele>184</ele>
        <time>2021-08-30T10:09:18Z</time>
      </trkpt>
      <trkpt lat="44.61348" lon="2.2485">
        <ele>184</ele>
        <time>2021-08-30T10:09:19Z</time>
      </trkpt>
      <trkpt lat="44.61342" lon="2.24846">
        <ele>184</ele>
        <time>2021-08-30T10:09:20Z</time>
      </trkpt>
      <trkpt lat="44.61338" lon="2.24839">
        <ele>183</ele>
        <time>2021-08-30T10:09:21Z</time>
      </trkpt>
      <trkpt lat="44.61334" lon="2.24825">
        <ele>183</ele>
        <time>2021-08-30T10:09:23Z</time>
      </trkpt>
      <trkpt lat="44.61337" lon="2.24775">
        <ele>181</ele>
        <time>2021-08-30T10:09:31Z</time>
      </trkpt>
      <trkpt lat="44.61336" lon="2.24764">
        <ele>181</ele>
        <time>2021-08-30T10:09:33Z</time>
      </trkpt>
      <trkpt lat="44.61333" lon="2.24744">
        <ele>181</ele>
        <time>2021-08-30T10:09:37Z</time>
      </trkpt>
      <trkpt lat="44.61329" lon="2.2473">
        <ele>181</ele>
        <time>2021-08-30T10:09:41Z</time>
      </trkpt>
      <trkpt lat="44.61325" lon="2.24725">
        <ele>182</ele>
        <time>2021-08-30T10:10:31Z</time>
      </trkpt>
      <trkpt lat="44.61269" lon="2.24592">
        <ele>180</ele>
        <time>2021-08-30T10:11:02Z</time>
      </trkpt>
      <trkpt lat="44.61215" lon="2.24518">
        <ele>178</ele>
        <time>2021-08-30T10:11:17Z</time>
      </trkpt>
      <trkpt lat="44.61212" lon="2.24511">
        <ele>178</ele>
        <time>2021-08-30T10:11:19Z</time>
      </trkpt>
      <trkpt lat="44.61209" lon="2.24505">
        <ele>178</ele>
        <time>2021-08-30T10:11:21Z</time>
      </trkpt>
      <trkpt lat="44.61193" lon="2.24473">
        <ele>178</ele>
        <time>2021-08-30T10:11:29Z</time>
      </trkpt>
      <trkpt lat="44.61185" lon="2.24433">
        <ele>177</ele>
        <time>2021-08-30T10:11:37Z</time>
      </trkpt>
      <trkpt lat="44.61179" lon="2.24345">
        <ele>177</ele>
        <time>2021-08-30T10:11:49Z</time>
      </trkpt>
      <trkpt lat="44.61178" lon="2.24288">
        <ele>173</ele>
        <time>2021-08-30T10:11:58Z</time>
      </trkpt>
      <trkpt lat="44.61174" lon="2.24162">
        <ele>169</ele>
        <time>2021-08-30T10:12:17Z</time>
      </trkpt>
      <trkpt lat="44.61176" lon="2.24132">
        <ele>166</ele>
        <time>2021-08-30T10:12:22Z</time>
      </trkpt>
      <trkpt lat="44.61171" lon="2.24079">
        <ele>166</ele>
        <time>2021-08-30T10:12:29Z</time>
      </trkpt>
      <trkpt lat="44.61165" lon="2.23921">
        <ele>168</ele>
        <time>2021-08-30T10:12:50Z</time>
      </trkpt>
      <trkpt lat="44.6117" lon="2.23887">
        <ele>170</ele>
        <time>2021-08-30T10:12:55Z</time>
      </trkpt>
      <trkpt lat="44.61169" lon="2.23856">
        <ele>169</ele>
        <time>2021-08-30T10:13:00Z</time>
      </trkpt>
      <trkpt lat="44.61172" lon="2.23845">
        <ele>169</ele>
        <time>2021-08-30T10:13:02Z</time>
      </trkpt>
      <trkpt lat="44.61176" lon="2.2384">
        <ele>169</ele>
        <time>2021-08-30T10:13:03Z</time>
      </trkpt>
      <trkpt lat="44.61307" lon="2.23786">
        <ele>181</ele>
        <time>2021-08-30T10:13:33Z</time>
      </trkpt>
      <trkpt lat="44.61329" lon="2.2377">
        <ele>182</ele>
        <time>2021-08-30T10:13:38Z</time>
      </trkpt>
      <trkpt lat="44.61336" lon="2.23766">
        <ele>182</ele>
        <time>2021-08-30T10:13:40Z</time>
      </trkpt>
      <trkpt lat="44.6134" lon="2.23764">
        <ele>183</ele>
        <time>2021-08-30T10:13:42Z</time>
      </trkpt>
      <trkpt lat="44.61339" lon="2.23753">
        <ele>183</ele>
        <time>2021-08-30T10:13:45Z</time>
      </trkpt>
      <trkpt lat="44.6131" lon="2.23682">
        <ele>182</ele>
        <time>2021-08-30T10:14:01Z</time>
      </trkpt>
      <trkpt lat="44.61306" lon="2.23674">
        <ele>182</ele>
        <time>2021-08-30T10:14:03Z</time>
      </trkpt>
      <trkpt lat="44.61304" lon="2.23667">
        <ele>181</ele>
        <time>2021-08-30T10:14:05Z</time>
      </trkpt>
      <trkpt lat="44.61215" lon="2.2356">
        <ele>175</ele>
        <time>2021-08-30T10:14:33Z</time>
      </trkpt>
      <trkpt lat="44.61199" lon="2.23533">
        <ele>172</ele>
        <time>2021-08-30T10:14:39Z</time>
      </trkpt>
      <trkpt lat="44.61193" lon="2.23525">
        <ele>171</ele>
        <time>2021-08-30T10:14:41Z</time>
      </trkpt>
      <trkpt lat="44.6108" lon="2.23375">
        <ele>162</ele>
        <time>2021-08-30T10:15:10Z</time>
      </trkpt>
      <trkpt lat="44.6106" lon="2.23354">
        <ele>166</ele>
        <time>2021-08-30T10:15:15Z</time>
      </trkpt>
      <trkpt lat="44.61027" lon="2.23333">
        <ele>167</ele>
        <time>2021-08-30T10:15:24Z</time>
      </trkpt>
      <trkpt lat="44.60987" lon="2.23297">
        <ele>165</ele>
        <time>2021-08-30T10:15:34Z</time>
      </trkpt>
      <trkpt lat="44.60973" lon="2.23288">
        <ele>165</ele>
        <time>2021-08-30T10:15:37Z</time>
      </trkpt>
      <trkpt lat="44.60957" lon="2.23283">
        <ele>166</ele>
        <time>2021-08-30T10:15:41Z</time>
      </trkpt>
      <trkpt lat="44.60936" lon="2.23272">
        <ele>167</ele>
        <time>2021-08-30T10:15:46Z</time>
      </trkpt>
      <trkpt lat="44.60923" lon="2.23257">
        <ele>164</ele>
        <time>2021-08-30T10:15:50Z</time>
      </trkpt>
      <trkpt lat="44.6092" lon="2.23251">
        <ele>164</ele>
        <time>2021-08-30T10:15:51Z</time>
      </trkpt>
      <trkpt lat="44.60916" lon="2.23234">
        <ele>164</ele>
        <time>2021-08-30T10:15:53Z</time>
      </trkpt>
      <trkpt lat="44.60916" lon="2.23224">
        <ele>164</ele>
        <time>2021-08-30T10:15:54Z</time>
      </trkpt>
      <trkpt lat="44.60916" lon="2.23196">
        <ele>165</ele>
        <time>2021-08-30T10:15:57Z</time>
      </trkpt>
      <trkpt lat="44.60916" lon="2.23189">
        <ele>166</ele>
        <time>2021-08-30T10:15:58Z</time>
      </trkpt>
      <trkpt lat="44.60911" lon="2.23174">
        <ele>167</ele>
        <time>2021-08-30T10:16:00Z</time>
      </trkpt>
      <trkpt lat="44.60896" lon="2.23149">
        <ele>167</ele>
        <time>2021-08-30T10:16:04Z</time>
      </trkpt>
      <trkpt lat="44.60889" lon="2.23142">
        <ele>167</ele>
        <time>2021-08-30T10:16:06Z</time>
      </trkpt>
      <trkpt lat="44.6085" lon="2.23142">
        <ele>167</ele>
        <time>2021-08-30T10:16:16Z</time>
      </trkpt>
      <trkpt lat="44.60825" lon="2.23147">
        <ele>167</ele>
        <time>2021-08-30T10:16:24Z</time>
      </trkpt>
      <trkpt lat="44.60797" lon="2.23148">
        <ele>167</ele>
        <time>2021-08-30T10:16:32Z</time>
      </trkpt>
      <trkpt lat="44.60741" lon="2.23132">
        <ele>174</ele>
        <time>2021-08-30T10:16:46Z</time>
      </trkpt>
      <trkpt lat="44.60733" lon="2.2313">
        <ele>175</ele>
        <time>2021-08-30T10:16:48Z</time>
      </trkpt>
      <trkpt lat="44.60689" lon="2.23111">
        <ele>177</ele>
        <time>2021-08-30T10:16:59Z</time>
      </trkpt>
      <trkpt lat="44.60661" lon="2.23107">
        <ele>180</ele>
        <time>2021-08-30T10:17:07Z</time>
      </trkpt>
      <trkpt lat="44.60611" lon="2.23089">
        <ele>181</ele>
        <time>2021-08-30T10:17:20Z</time>
      </trkpt>
      <trkpt lat="44.60435" lon="2.231">
        <ele>182</ele>
        <time>2021-08-30T10:17:51Z</time>
      </trkpt>
      <trkpt lat="44.60381" lon="2.23108">
        <ele>186</ele>
        <time>2021-08-30T10:18:01Z</time>
      </trkpt>
      <trkpt lat="44.60345" lon="2.2312">
        <ele>189</ele>
        <time>2021-08-30T10:18:08Z</time>
      </trkpt>
      <trkpt lat="44.60331" lon="2.23123">
        <ele>188</ele>
        <time>2021-08-30T10:18:11Z</time>
      </trkpt>
      <trkpt lat="44.60278" lon="2.23146">
        <ele>191</ele>
        <time>2021-08-30T10:18:23Z</time>
      </trkpt>
      <trkpt lat="44.60238" lon="2.23156">
        <ele>196</ele>
        <time>2021-08-30T10:18:32Z</time>
      </trkpt>
      <trkpt lat="44.60116" lon="2.23202">
        <ele>198</ele>
        <time>2021-08-30T10:19:02Z</time>
      </trkpt>
      <trkpt lat="44.60085" lon="2.23211">
        <ele>202</ele>
        <time>2021-08-30T10:19:10Z</time>
      </trkpt>
      <trkpt lat="44.6006" lon="2.2321">
        <ele>204</ele>
        <time>2021-08-30T10:19:16Z</time>
      </trkpt>
      <trkpt lat="44.60025" lon="2.23202">
        <ele>201</ele>
        <time>2021-08-30T10:19:26Z</time>
      </trkpt>
      <trkpt lat="44.60006" lon="2.23205">
        <ele>201</ele>
        <time>2021-08-30T10:19:32Z</time>
      </trkpt>
      <trkpt lat="44.59994" lon="2.2321">
        <ele>201</ele>
        <time>2021-08-30T10:19:36Z</time>
      </trkpt>
      <trkpt lat="44.59989" lon="2.2321">
        <ele>202</ele>
        <time>2021-08-30T10:19:38Z</time>
      </trkpt>
      <trkpt lat="44.59984" lon="2.23208">
        <ele>201</ele>
        <time>2021-08-30T10:19:40Z</time>
      </trkpt>
      <trkpt lat="44.59981" lon="2.23203">
        <ele>202</ele>
        <time>2021-08-30T10:19:43Z</time>
      </trkpt>
      <trkpt lat="44.59979" lon="2.23197">
        <ele>202</ele>
        <time>2021-08-30T10:19:47Z</time>
      </trkpt>
      <trkpt lat="44.59975" lon="2.23194">
        <ele>202</ele>
        <time>2021-08-30T10:19:50Z</time>
      </trkpt>
      <trkpt lat="44.59972" lon="2.23199">
        <ele>202</ele>
        <time>2021-08-30T10:19:53Z</time>
      </trkpt>
      <trkpt lat="44.59974" lon="2.23208">
        <ele>201</ele>
        <time>2021-08-30T10:20:48Z</time>
      </trkpt>
      <trkpt lat="44.59973" lon="2.23214">
        <ele>201</ele>
        <time>2021-08-30T10:20:49Z</time>
      </trkpt>
      <trkpt lat="44.59969" lon="2.23225">
        <ele>201</ele>
        <time>2021-08-30T10:20:51Z</time>
      </trkpt>
      <trkpt lat="44.59955" lon="2.23238">
        <ele>200</ele>
        <time>2021-08-30T10:20:55Z</time>
      </trkpt>
      <trkpt lat="44.59931" lon="2.23243">
        <ele>201</ele>
        <time>2021-08-30T10:21:04Z</time>
      </trkpt>
      <trkpt lat="44.59882" lon="2.23239">
        <ele>205</ele>
        <time>2021-08-30T10:21:24Z</time>
      </trkpt>
      <trkpt lat="44.59871" lon="2.23236">
        <ele>205</ele>
        <time>2021-08-30T10:21:29Z</time>
      </trkpt>
      <trkpt lat="44.59865" lon="2.23236">
        <ele>206</ele>
        <time>2021-08-30T10:21:32Z</time>
      </trkpt>
      <trkpt lat="44.5986" lon="2.23235">
        <ele>206</ele>
        <time>2021-08-30T10:21:34Z</time>
      </trkpt>
      <trkpt lat="44.59854" lon="2.23233">
        <ele>206</ele>
        <time>2021-08-30T10:21:37Z</time>
      </trkpt>
      <trkpt lat="44.59839" lon="2.2323">
        <ele>207</ele>
        <time>2021-08-30T10:21:44Z</time>
      </trkpt>
      <trkpt lat="44.59821" lon="2.23229">
        <ele>206</ele>
        <time>2021-08-30T10:21:53Z</time>
      </trkpt>
      <trkpt lat="44.59806" lon="2.23236">
        <ele>205</ele>
        <time>2021-08-30T10:22:02Z</time>
      </trkpt>
      <trkpt lat="44.59802" lon="2.23239">
        <ele>205</ele>
        <time>2021-08-30T10:22:05Z</time>
      </trkpt>
      <trkpt lat="44.59799" lon="2.23245">
        <ele>205</ele>
        <time>2021-08-30T10:22:08Z</time>
      </trkpt>
      <trkpt lat="44.59794" lon="2.23261">
        <ele>208</ele>
        <time>2021-08-30T10:22:14Z</time>
      </trkpt>
      <trkpt lat="44.59792" lon="2.2327">
        <ele>211</ele>
        <time>2021-08-30T10:22:17Z</time>
      </trkpt>
      <trkpt lat="44.5979" lon="2.23286">
        <ele>216</ele>
        <time>2021-08-30T10:22:23Z</time>
      </trkpt>
      <trkpt lat="44.59789" lon="2.23293">
        <ele>218</ele>
        <time>2021-08-30T10:22:26Z</time>
      </trkpt>
      <trkpt lat="44.59788" lon="2.23307">
        <ele>220</ele>
        <time>2021-08-30T10:22:32Z</time>
      </trkpt>
      <trkpt lat="44.59784" lon="2.23311">
        <ele>220</ele>
        <time>2021-08-30T10:22:35Z</time>
      </trkpt>
      <trkpt lat="44.59779" lon="2.23313">
        <ele>219</ele>
        <time>2021-08-30T10:22:37Z</time>
      </trkpt>
      <trkpt lat="44.59661" lon="2.23277">
        <ele>214</ele>
        <time>2021-08-30T10:23:09Z</time>
      </trkpt>
      <trkpt lat="44.59549" lon="2.23289">
        <ele>209</ele>
        <time>2021-08-30T10:23:40Z</time>
      </trkpt>
      <trkpt lat="44.59499" lon="2.23299">
        <ele>206</ele>
        <time>2021-08-30T10:23:53Z</time>
      </trkpt>
      <trkpt lat="44.59472" lon="2.23296">
        <ele>204</ele>
        <time>2021-08-30T10:24:00Z</time>
      </trkpt>
      <trkpt lat="44.59463" lon="2.23291">
        <ele>204</ele>
        <time>2021-08-30T10:24:02Z</time>
      </trkpt>
      <trkpt lat="44.59445" lon="2.23275">
        <ele>205</ele>
        <time>2021-08-30T10:24:06Z</time>
      </trkpt>
      <trkpt lat="44.59412" lon="2.23215">
        <ele>208</ele>
        <time>2021-08-30T10:24:15Z</time>
      </trkpt>
      <trkpt lat="44.59402" lon="2.23204">
        <ele>207</ele>
        <time>2021-08-30T10:24:17Z</time>
      </trkpt>
      <trkpt lat="44.59391" lon="2.23196">
        <ele>207</ele>
        <time>2021-08-30T10:24:19Z</time>
      </trkpt>
      <trkpt lat="44.59275" lon="2.2318">
        <ele>206</ele>
        <time>2021-08-30T10:24:36Z</time>
      </trkpt>
      <trkpt lat="44.59258" lon="2.23171">
        <ele>206</ele>
        <time>2021-08-30T10:24:39Z</time>
      </trkpt>
      <trkpt lat="44.59246" lon="2.23158">
        <ele>205</ele>
        <time>2021-08-30T10:24:42Z</time>
      </trkpt>
      <trkpt lat="44.59238" lon="2.23156">
        <ele>204</ele>
        <time>2021-08-30T10:24:44Z</time>
      </trkpt>
      <trkpt lat="44.59224" lon="2.23174">
        <ele>202</ele>
        <time>2021-08-30T10:24:48Z</time>
      </trkpt>
      <trkpt lat="44.59213" lon="2.23186">
        <ele>201</ele>
        <time>2021-08-30T10:24:52Z</time>
      </trkpt>
      <trkpt lat="44.59207" lon="2.23189">
        <ele>199</ele>
        <time>2021-08-30T10:24:55Z</time>
      </trkpt>
      <trkpt lat="44.59189" lon="2.23178">
        <ele>195</ele>
        <time>2021-08-30T10:25:01Z</time>
      </trkpt>
      <trkpt lat="44.59181" lon="2.23162">
        <ele>192</ele>
        <time>2021-08-30T10:25:06Z</time>
      </trkpt>
      <trkpt lat="44.59168" lon="2.23146">
        <ele>190</ele>
        <time>2021-08-30T10:25:12Z</time>
      </trkpt>
      <trkpt lat="44.59161" lon="2.23136">
        <ele>186</ele>
        <time>2021-08-30T10:25:16Z</time>
      </trkpt>
      <trkpt lat="44.59155" lon="2.23124">
        <ele>187</ele>
        <time>2021-08-30T10:25:21Z</time>
      </trkpt>
      <trkpt lat="44.5915" lon="2.23122">
        <ele>187</ele>
        <time>2021-08-30T10:25:24Z</time>
      </trkpt>
      <trkpt lat="44.59143" lon="2.23127">
        <ele>186</ele>
        <time>2021-08-30T10:25:32Z</time>
      </trkpt>
      <trkpt lat="44.59138" lon="2.23134">
        <ele>180</ele>
        <time>2021-08-30T10:25:36Z</time>
      </trkpt>
      <trkpt lat="44.59132" lon="2.23138">
        <ele>179</ele>
        <time>2021-08-30T10:25:44Z</time>
      </trkpt>
      <trkpt lat="44.59135" lon="2.23146">
        <ele>186</ele>
        <time>2021-08-30T10:26:15Z</time>
      </trkpt>
      <trkpt lat="44.59121" lon="2.23175">
        <ele>189</ele>
        <time>2021-08-30T10:26:27Z</time>
      </trkpt>
      <trkpt lat="44.59122" lon="2.23188">
        <ele>190</ele>
        <time>2021-08-30T10:27:04Z</time>
      </trkpt>
      <trkpt lat="44.59116" lon="2.23183">
        <ele>192</ele>
        <time>2021-08-30T10:27:56Z</time>
      </trkpt>
      <trkpt lat="44.5911" lon="2.23182">
        <ele>196</ele>
        <time>2021-08-30T10:27:58Z</time>
      </trkpt>
      <trkpt lat="44.59115" lon="2.23177">
        <ele>199</ele>
        <time>2021-08-30T10:28:01Z</time>
      </trkpt>
      <trkpt lat="44.59109" lon="2.23161">
        <ele>209</ele>
        <time>2021-08-30T10:28:08Z</time>
      </trkpt>
      <trkpt lat="44.59104" lon="2.23156">
        <ele>214</ele>
        <time>2021-08-30T10:28:10Z</time>
      </trkpt>
      <trkpt lat="44.59099" lon="2.23124">
        <ele>218</ele>
        <time>2021-08-30T10:28:18Z</time>
      </trkpt>
      <trkpt lat="44.59107" lon="2.23113">
        <ele>215</ele>
        <time>2021-08-30T10:28:23Z</time>
      </trkpt>
      <trkpt lat="44.59105" lon="2.23105">
        <ele>215</ele>
        <time>2021-08-30T10:32:20Z</time>
      </trkpt>
      <trkpt lat="44.59099" lon="2.23108">
        <ele>215</ele>
        <time>2021-08-30T10:32:57Z</time>
      </trkpt>
      <trkpt lat="44.59102" lon="2.2311">
        <ele>226</ele>
        <time>2021-08-30T10:53:32Z</time>
      </trkpt>
      <trkpt lat="44.59101" lon="2.23118">
        <ele>220</ele>
        <time>2021-08-30T10:57:41Z</time>
      </trkpt>
      <trkpt lat="44.59107" lon="2.23147">
        <ele>217</ele>
        <time>2021-08-30T10:57:54Z</time>
      </trkpt>
      <trkpt lat="44.59111" lon="2.23155">
        <ele>215</ele>
        <time>2021-08-30T10:57:59Z</time>
      </trkpt>
      <trkpt lat="44.59113" lon="2.23162">
        <ele>215</ele>
        <time>2021-08-30T10:58:18Z</time>
      </trkpt>
      <trkpt lat="44.5911" lon="2.23173">
        <ele>214</ele>
        <time>2021-08-30T10:58:32Z</time>
      </trkpt>
      <trkpt lat="44.59118" lon="2.23184">
        <ele>213</ele>
        <time>2021-08-30T10:59:19Z</time>
      </trkpt>
      <trkpt lat="44.59124" lon="2.23193">
        <ele>216</ele>
        <time>2021-08-30T10:59:22Z</time>
      </trkpt>
      <trkpt lat="44.59123" lon="2.23199">
        <ele>216</ele>
        <time>2021-08-30T11:00:42Z</time>
      </trkpt>
      <trkpt lat="44.59126" lon="2.23201">
        <ele>213</ele>
        <time>2021-08-30T11:20:49Z</time>
      </trkpt>
      <trkpt lat="44.59127" lon="2.23203">
        <ele>210</ele>
        <time>2021-08-30T11:30:40Z</time>
      </trkpt>
      <trkpt lat="44.59129" lon="2.23186">
        <ele>218</ele>
        <time>2021-08-30T11:31:04Z</time>
      </trkpt>
      <trkpt lat="44.59129" lon="2.23178">
        <ele>217</ele>
        <time>2021-08-30T11:31:07Z</time>
      </trkpt>
      <trkpt lat="44.59128" lon="2.23169">
        <ele>217</ele>
        <time>2021-08-30T11:31:14Z</time>
      </trkpt>
      <trkpt lat="44.59126" lon="2.23163">
        <ele>216</ele>
        <time>2021-08-30T11:31:17Z</time>
      </trkpt>
      <trkpt lat="44.59128" lon="2.23155">
        <ele>218</ele>
        <time>2021-08-30T11:31:21Z</time>
      </trkpt>
      <trkpt lat="44.5913" lon="2.23147">
        <ele>221</ele>
        <time>2021-08-30T11:31:25Z</time>
      </trkpt>
      <trkpt lat="44.5913" lon="2.2314">
        <ele>225</ele>
        <time>2021-08-30T11:31:29Z</time>
      </trkpt>
      <trkpt lat="44.5913" lon="2.23132">
        <ele>227</ele>
        <time>2021-08-30T11:31:33Z</time>
      </trkpt>
      <trkpt lat="44.59134" lon="2.23129">
        <ele>229</ele>
        <time>2021-08-30T11:31:35Z</time>
      </trkpt>
      <trkpt lat="44.59144" lon="2.23121">
        <ele>230</ele>
        <time>2021-08-30T11:31:41Z</time>
      </trkpt>
      <trkpt lat="44.59143" lon="2.23136">
        <ele>228</ele>
        <time>2021-08-30T11:31:56Z</time>
      </trkpt>
      <trkpt lat="44.59143" lon="2.23144">
        <ele>221</ele>
        <time>2021-08-30T11:32:00Z</time>
      </trkpt>
      <trkpt lat="44.59141" lon="2.23151">
        <ele>216</ele>
        <time>2021-08-30T11:32:03Z</time>
      </trkpt>
      <trkpt lat="44.59137" lon="2.23157">
        <ele>214</ele>
        <time>2021-08-30T11:32:05Z</time>
      </trkpt>
      <trkpt lat="44.59127" lon="2.23168">
        <ele>211</ele>
        <time>2021-08-30T11:32:09Z</time>
      </trkpt>
      <trkpt lat="44.59124" lon="2.23174">
        <ele>210</ele>
        <time>2021-08-30T11:32:12Z</time>
      </trkpt>
      <trkpt lat="44.59123" lon="2.23181">
        <ele>209</ele>
        <time>2021-08-30T11:32:14Z</time>
      </trkpt>
      <trkpt lat="44.59114" lon="2.23201">
        <ele>204</ele>
        <time>2021-08-30T11:32:20Z</time>
      </trkpt>
      <trkpt lat="44.59113" lon="2.2321">
        <ele>203</ele>
        <time>2021-08-30T11:32:23Z</time>
      </trkpt>
      <trkpt lat="44.59109" lon="2.23215">
        <ele>201</ele>
        <time>2021-08-30T11:32:25Z</time>
      </trkpt>
      <trkpt lat="44.59101" lon="2.23218">
        <ele>199</ele>
        <time>2021-08-30T11:32:27Z</time>
      </trkpt>
      <trkpt lat="44.59093" lon="2.2322">
        <ele>196</ele>
        <time>2021-08-30T11:32:29Z</time>
      </trkpt>
      <trkpt lat="44.59085" lon="2.23222">
        <ele>194</ele>
        <time>2021-08-30T11:32:31Z</time>
      </trkpt>
      <trkpt lat="44.59078" lon="2.23222">
        <ele>191</ele>
        <time>2021-08-30T11:32:33Z</time>
      </trkpt>
      <trkpt lat="44.59073" lon="2.23223">
        <ele>189</ele>
        <time>2021-08-30T11:32:35Z</time>
      </trkpt>
      <trkpt lat="44.59054" lon="2.23228">
        <ele>176</ele>
        <time>2021-08-30T11:32:40Z</time>
      </trkpt>
      <trkpt lat="44.59048" lon="2.23232">
        <ele>166</ele>
        <time>2021-08-30T11:32:43Z</time>
      </trkpt>
      <trkpt lat="44.59042" lon="2.23234">
        <ele>162</ele>
        <time>2021-08-30T11:32:45Z</time>
      </trkpt>
      <trkpt lat="44.59032" lon="2.23228">
        <ele>149</ele>
        <time>2021-08-30T11:32:48Z</time>
      </trkpt>
      <trkpt lat="44.59019" lon="2.23231">
        <ele>145</ele>
        <time>2021-08-30T11:32:50Z</time>
      </trkpt>
      <trkpt lat="44.58994" lon="2.23234">
        <ele>146</ele>
        <time>2021-08-30T11:32:53Z</time>
      </trkpt>
      <trkpt lat="44.58968" lon="2.2323">
        <ele>147</ele>
        <time>2021-08-30T11:32:58Z</time>
      </trkpt>
      <trkpt lat="44.5896" lon="2.2323">
        <ele>143</ele>
        <time>2021-08-30T11:33:01Z</time>
      </trkpt>
      <trkpt lat="44.5895" lon="2.2323">
        <ele>143</ele>
        <time>2021-08-30T11:33:05Z</time>
      </trkpt>
      <trkpt lat="44.5894" lon="2.23233">
        <ele>150</ele>
        <time>2021-08-30T11:33:16Z</time>
      </trkpt>
      <trkpt lat="44.58929" lon="2.23232">
        <ele>157</ele>
        <time>2021-08-30T11:34:02Z</time>
      </trkpt>
      <trkpt lat="44.58924" lon="2.23229">
        <ele>158</ele>
        <time>2021-08-30T11:34:11Z</time>
      </trkpt>
      <trkpt lat="44.58903" lon="2.23194">
        <ele>160</ele>
        <time>2021-08-30T11:34:24Z</time>
      </trkpt>
      <trkpt lat="44.58846" lon="2.23149">
        <ele>155</ele>
        <time>2021-08-30T11:34:46Z</time>
      </trkpt>
      <trkpt lat="44.58841" lon="2.23143">
        <ele>153</ele>
        <time>2021-08-30T11:34:48Z</time>
      </trkpt>
      <trkpt lat="44.58822" lon="2.23123">
        <ele>150</ele>
        <time>2021-08-30T11:34:54Z</time>
      </trkpt>
      <trkpt lat="44.58819" lon="2.23116">
        <ele>148</ele>
        <time>2021-08-30T11:34:56Z</time>
      </trkpt>
      <trkpt lat="44.58795" lon="2.23097">
        <ele>145</ele>
        <time>2021-08-30T11:35:04Z</time>
      </trkpt>
      <trkpt lat="44.58788" lon="2.23094">
        <ele>144</ele>
        <time>2021-08-30T11:35:06Z</time>
      </trkpt>
      <trkpt lat="44.58766" lon="2.23093">
        <ele>149</ele>
        <time>2021-08-30T11:35:11Z</time>
      </trkpt>
      <trkpt lat="44.5876" lon="2.23096">
        <ele>153</ele>
        <time>2021-08-30T11:35:40Z</time>
      </trkpt>
      <trkpt lat="44.58754" lon="2.23111">
        <ele>156</ele>
        <time>2021-08-30T11:35:44Z</time>
      </trkpt>
      <trkpt lat="44.58753" lon="2.23119">
        <ele>156</ele>
        <time>2021-08-30T11:35:46Z</time>
      </trkpt>
      <trkpt lat="44.5875" lon="2.23124">
        <ele>160</ele>
        <time>2021-08-30T11:36:01Z</time>
      </trkpt>
      <trkpt lat="44.58752" lon="2.23131">
        <ele>163</ele>
        <time>2021-08-30T11:37:40Z</time>
      </trkpt>
      <trkpt lat="44.58757" lon="2.2313">
        <ele>163</ele>
        <time>2021-08-30T11:37:43Z</time>
      </trkpt>
      <trkpt lat="44.58761" lon="2.23124">
        <ele>163</ele>
        <time>2021-08-30T11:37:45Z</time>
      </trkpt>
      <trkpt lat="44.5876" lon="2.23116">
        <ele>170</ele>
        <time>2021-08-30T11:37:47Z</time>
      </trkpt>
      <trkpt lat="44.58757" lon="2.23108">
        <ele>172</ele>
        <time>2021-08-30T11:37:49Z</time>
      </trkpt>
      <trkpt lat="44.58724" lon="2.23003">
        <ele>181</ele>
        <time>2021-08-30T11:38:13Z</time>
      </trkpt>
      <trkpt lat="44.58707" lon="2.22976">
        <ele>182</ele>
        <time>2021-08-30T11:38:21Z</time>
      </trkpt>
      <trkpt lat="44.58685" lon="2.22954">
        <ele>182</ele>
        <time>2021-08-30T11:38:29Z</time>
      </trkpt>
      <trkpt lat="44.58584" lon="2.22891">
        <ele>183</ele>
        <time>2021-08-30T11:38:59Z</time>
      </trkpt>
      <trkpt lat="44.58539" lon="2.22865">
        <ele>184</ele>
        <time>2021-08-30T11:39:11Z</time>
      </trkpt>
      <trkpt lat="44.58532" lon="2.2286">
        <ele>183</ele>
        <time>2021-08-30T11:39:13Z</time>
      </trkpt>
      <trkpt lat="44.58516" lon="2.22833">
        <ele>183</ele>
        <time>2021-08-30T11:39:19Z</time>
      </trkpt>
      <trkpt lat="44.5851" lon="2.22812">
        <ele>182</ele>
        <time>2021-08-30T11:39:23Z</time>
      </trkpt>
      <trkpt lat="44.58508" lon="2.22789">
        <ele>180</ele>
        <time>2021-08-30T11:39:27Z</time>
      </trkpt>
      <trkpt lat="44.58509" lon="2.22764">
        <ele>181</ele>
        <time>2021-08-30T11:39:31Z</time>
      </trkpt>
      <trkpt lat="44.58517" lon="2.2273">
        <ele>180</ele>
        <time>2021-08-30T11:39:37Z</time>
      </trkpt>
      <trkpt lat="44.58584" lon="2.22574">
        <ele>175</ele>
        <time>2021-08-30T11:40:08Z</time>
      </trkpt>
      <trkpt lat="44.5862" lon="2.22514">
        <ele>180</ele>
        <time>2021-08-30T11:40:20Z</time>
      </trkpt>
      <trkpt lat="44.58643" lon="2.22481">
        <ele>179</ele>
        <time>2021-08-30T11:40:28Z</time>
      </trkpt>
      <trkpt lat="44.58732" lon="2.22347">
        <ele>181</ele>
        <time>2021-08-30T11:40:59Z</time>
      </trkpt>
      <trkpt lat="44.58752" lon="2.22313">
        <ele>180</ele>
        <time>2021-08-30T11:41:07Z</time>
      </trkpt>
      <trkpt lat="44.58772" lon="2.2226">
        <ele>177</ele>
        <time>2021-08-30T11:41:19Z</time>
      </trkpt>
      <trkpt lat="44.58779" lon="2.22224">
        <ele>177</ele>
        <time>2021-08-30T11:41:27Z</time>
      </trkpt>
      <trkpt lat="44.58811" lon="2.22159">
        <ele>185</ele>
        <time>2021-08-30T11:41:43Z</time>
      </trkpt>
      <trkpt lat="44.58853" lon="2.2204">
        <ele>194</ele>
        <time>2021-08-30T11:42:11Z</time>
      </trkpt>
      <trkpt lat="44.5886" lon="2.22018">
        <ele>194</ele>
        <time>2021-08-30T11:42:15Z</time>
      </trkpt>
      <trkpt lat="44.58865" lon="2.22">
        <ele>194</ele>
        <time>2021-08-30T11:42:18Z</time>
      </trkpt>
      <trkpt lat="44.58873" lon="2.21979">
        <ele>195</ele>
        <time>2021-08-30T11:42:22Z</time>
      </trkpt>
      <trkpt lat="44.58878" lon="2.21957">
        <ele>196</ele>
        <time>2021-08-30T11:42:26Z</time>
      </trkpt>
      <trkpt lat="44.58901" lon="2.21895">
        <ele>204</ele>
        <time>2021-08-30T11:42:37Z</time>
      </trkpt>
      <trkpt lat="44.58977" lon="2.21767">
        <ele>199</ele>
        <time>2021-08-30T11:43:01Z</time>
      </trkpt>
      <trkpt lat="44.58993" lon="2.21749">
        <ele>198</ele>
        <time>2021-08-30T11:43:05Z</time>
      </trkpt>
      <trkpt lat="44.59011" lon="2.21718">
        <ele>197</ele>
        <time>2021-08-30T11:43:11Z</time>
      </trkpt>
      <trkpt lat="44.59097" lon="2.21595">
        <ele>192</ele>
        <time>2021-08-30T11:43:36Z</time>
      </trkpt>
      <trkpt lat="44.59197" lon="2.21503">
        <ele>189</ele>
        <time>2021-08-30T11:44:02Z</time>
      </trkpt>
      <trkpt lat="44.59227" lon="2.2146">
        <ele>186</ele>
        <time>2021-08-30T11:44:11Z</time>
      </trkpt>
      <trkpt lat="44.59227" lon="2.21454">
        <ele>185</ele>
        <time>2021-08-30T11:45:17Z</time>
      </trkpt>
      <trkpt lat="44.59232" lon="2.21451">
        <ele>185</ele>
        <time>2021-08-30T11:45:20Z</time>
      </trkpt>
      <trkpt lat="44.59285" lon="2.21406">
        <ele>187</ele>
        <time>2021-08-30T11:45:29Z</time>
      </trkpt>
      <trkpt lat="44.59417" lon="2.21232">
        <ele>181</ele>
        <time>2021-08-30T11:45:59Z</time>
      </trkpt>
      <trkpt lat="44.59424" lon="2.21221">
        <ele>180</ele>
        <time>2021-08-30T11:46:01Z</time>
      </trkpt>
      <trkpt lat="44.59427" lon="2.21215">
        <ele>180</ele>
        <time>2021-08-30T11:46:02Z</time>
      </trkpt>
      <trkpt lat="44.5943" lon="2.21207">
        <ele>179</ele>
        <time>2021-08-30T11:46:03Z</time>
      </trkpt>
      <trkpt lat="44.59431" lon="2.21182">
        <ele>177</ele>
        <time>2021-08-30T11:46:07Z</time>
      </trkpt>
      <trkpt lat="44.59438" lon="2.2116">
        <ele>174</ele>
        <time>2021-08-30T11:46:11Z</time>
      </trkpt>
      <trkpt lat="44.59463" lon="2.21114">
        <ele>171</ele>
        <time>2021-08-30T11:46:23Z</time>
      </trkpt>
      <trkpt lat="44.59476" lon="2.21105">
        <ele>170</ele>
        <time>2021-08-30T11:46:27Z</time>
      </trkpt>
      <trkpt lat="44.59481" lon="2.21099">
        <ele>169</ele>
        <time>2021-08-30T11:46:29Z</time>
      </trkpt>
      <trkpt lat="44.59531" lon="2.20974">
        <ele>168</ele>
        <time>2021-08-30T11:47:01Z</time>
      </trkpt>
      <trkpt lat="44.59546" lon="2.20929">
        <ele>171</ele>
        <time>2021-08-30T11:47:11Z</time>
      </trkpt>
      <trkpt lat="44.59547" lon="2.20918">
        <ele>171</ele>
        <time>2021-08-30T11:47:13Z</time>
      </trkpt>
      <trkpt lat="44.59551" lon="2.20871">
        <ele>171</ele>
        <time>2021-08-30T11:47:37Z</time>
      </trkpt>
      <trkpt lat="44.5955" lon="2.20884">
        <ele>173</ele>
        <time>2021-08-30T11:47:46Z</time>
      </trkpt>
      <trkpt lat="44.59551" lon="2.20863">
        <ele>175</ele>
        <time>2021-08-30T11:48:05Z</time>
      </trkpt>
      <trkpt lat="44.59546" lon="2.20816">
        <ele>180</ele>
        <time>2021-08-30T11:48:31Z</time>
      </trkpt>
      <trkpt lat="44.59545" lon="2.20809">
        <ele>180</ele>
        <time>2021-08-30T11:48:34Z</time>
      </trkpt>
      <trkpt lat="44.59542" lon="2.20802">
        <ele>180</ele>
        <time>2021-08-30T11:48:37Z</time>
      </trkpt>
      <trkpt lat="44.5952" lon="2.20713">
        <ele>178</ele>
        <time>2021-08-30T11:49:07Z</time>
      </trkpt>
      <trkpt lat="44.59516" lon="2.20712">
        <ele>179</ele>
        <time>2021-08-30T11:49:16Z</time>
      </trkpt>
      <trkpt lat="44.59518" lon="2.20719">
        <ele>179</ele>
        <time>2021-08-30T11:49:19Z</time>
      </trkpt>
      <trkpt lat="44.59434" lon="2.20735">
        <ele>175</ele>
        <time>2021-08-30T11:49:51Z</time>
      </trkpt>
      <trkpt lat="44.59429" lon="2.20734">
        <ele>173</ele>
        <time>2021-08-30T11:49:53Z</time>
      </trkpt>
      <trkpt lat="44.59416" lon="2.20739">
        <ele>171</ele>
        <time>2021-08-30T11:49:57Z</time>
      </trkpt>
      <trkpt lat="44.59275" lon="2.20756">
        <ele>173</ele>
        <time>2021-08-30T11:50:29Z</time>
      </trkpt>
      <trkpt lat="44.59197" lon="2.20771">
        <ele>176</ele>
        <time>2021-08-30T11:50:48Z</time>
      </trkpt>
      <trkpt lat="44.59186" lon="2.20769">
        <ele>177</ele>
        <time>2021-08-30T11:50:52Z</time>
      </trkpt>
      <trkpt lat="44.5918" lon="2.20764">
        <ele>178</ele>
        <time>2021-08-30T11:50:56Z</time>
      </trkpt>
      <trkpt lat="44.59168" lon="2.20741">
        <ele>180</ele>
        <time>2021-08-30T11:51:02Z</time>
      </trkpt>
      <trkpt lat="44.59135" lon="2.20696">
        <ele>181</ele>
        <time>2021-08-30T11:51:14Z</time>
      </trkpt>
      <trkpt lat="44.59073" lon="2.20621">
        <ele>183</ele>
        <time>2021-08-30T11:51:36Z</time>
      </trkpt>
      <trkpt lat="44.59051" lon="2.20609">
        <ele>183</ele>
        <time>2021-08-30T11:51:42Z</time>
      </trkpt>
      <trkpt lat="44.59004" lon="2.2059">
        <ele>186</ele>
        <time>2021-08-30T11:51:54Z</time>
      </trkpt>
      <trkpt lat="44.5894" lon="2.20542">
        <ele>188</ele>
        <time>2021-08-30T11:52:10Z</time>
      </trkpt>
      <trkpt lat="44.58864" lon="2.20529">
        <ele>189</ele>
        <time>2021-08-30T11:52:24Z</time>
      </trkpt>
      <trkpt lat="44.58754" lon="2.20527">
        <ele>193</ele>
        <time>2021-08-30T11:52:44Z</time>
      </trkpt>
      <trkpt lat="44.58716" lon="2.20513">
        <ele>192</ele>
        <time>2021-08-30T11:52:51Z</time>
      </trkpt>
      <trkpt lat="44.58614" lon="2.20453">
        <ele>189</ele>
        <time>2021-08-30T11:53:13Z</time>
      </trkpt>
      <trkpt lat="44.58565" lon="2.20393">
        <ele>196</ele>
        <time>2021-08-30T11:53:26Z</time>
      </trkpt>
      <trkpt lat="44.58547" lon="2.20376">
        <ele>197</ele>
        <time>2021-08-30T11:53:31Z</time>
      </trkpt>
      <trkpt lat="44.58544" lon="2.20372">
        <ele>198</ele>
        <time>2021-08-30T11:53:33Z</time>
      </trkpt>
      <trkpt lat="44.58539" lon="2.20368">
        <ele>198</ele>
        <time>2021-08-30T11:53:36Z</time>
      </trkpt>
      <trkpt lat="44.58533" lon="2.20367">
        <ele>195</ele>
        <time>2021-08-30T11:54:32Z</time>
      </trkpt>
      <trkpt lat="44.58513" lon="2.20344">
        <ele>196</ele>
        <time>2021-08-30T11:54:40Z</time>
      </trkpt>
      <trkpt lat="44.58476" lon="2.20316">
        <ele>197</ele>
        <time>2021-08-30T11:54:49Z</time>
      </trkpt>
      <trkpt lat="44.58447" lon="2.20285">
        <ele>197</ele>
        <time>2021-08-30T11:54:57Z</time>
      </trkpt>
      <trkpt lat="44.58325" lon="2.20212">
        <ele>202</ele>
        <time>2021-08-30T11:55:28Z</time>
      </trkpt>
      <trkpt lat="44.58219" lon="2.20164">
        <ele>206</ele>
        <time>2021-08-30T11:55:52Z</time>
      </trkpt>
      <trkpt lat="44.58185" lon="2.2016">
        <ele>208</ele>
        <time>2021-08-30T11:56:00Z</time>
      </trkpt>
      <trkpt lat="44.58167" lon="2.20145">
        <ele>208</ele>
        <time>2021-08-30T11:56:05Z</time>
      </trkpt>
      <trkpt lat="44.5813" lon="2.20077">
        <ele>208</ele>
        <time>2021-08-30T11:56:21Z</time>
      </trkpt>
      <trkpt lat="44.58128" lon="2.2007">
        <ele>207</ele>
        <time>2021-08-30T11:56:23Z</time>
      </trkpt>
      <trkpt lat="44.58128" lon="2.20056">
        <ele>205</ele>
        <time>2021-08-30T11:56:28Z</time>
      </trkpt>
      <trkpt lat="44.58131" lon="2.20051">
        <ele>205</ele>
        <time>2021-08-30T11:56:30Z</time>
      </trkpt>
      <trkpt lat="44.58134" lon="2.20044">
        <ele>204</ele>
        <time>2021-08-30T11:56:32Z</time>
      </trkpt>
      <trkpt lat="44.58135" lon="2.20034">
        <ele>201</ele>
        <time>2021-08-30T11:56:35Z</time>
      </trkpt>
      <trkpt lat="44.58102" lon="2.19936">
        <ele>195</ele>
        <time>2021-08-30T11:56:47Z</time>
      </trkpt>
      <trkpt lat="44.5808" lon="2.19885">
        <ele>193</ele>
        <time>2021-08-30T11:56:52Z</time>
      </trkpt>
      <trkpt lat="44.58038" lon="2.19793">
        <ele>189</ele>
        <time>2021-08-30T11:57:03Z</time>
      </trkpt>
      <trkpt lat="44.57998" lon="2.19716">
        <ele>185</ele>
        <time>2021-08-30T11:57:16Z</time>
      </trkpt>
      <trkpt lat="44.57983" lon="2.19661">
        <ele>185</ele>
        <time>2021-08-30T11:57:24Z</time>
      </trkpt>
      <trkpt lat="44.57982" lon="2.19624">
        <ele>184</ele>
        <time>2021-08-30T11:57:29Z</time>
      </trkpt>
      <trkpt lat="44.57987" lon="2.19595">
        <ele>184</ele>
        <time>2021-08-30T11:57:33Z</time>
      </trkpt>
      <trkpt lat="44.58023" lon="2.19483">
        <ele>186</ele>
        <time>2021-08-30T11:57:51Z</time>
      </trkpt>
      <trkpt lat="44.58025" lon="2.19461">
        <ele>188</ele>
        <time>2021-08-30T11:57:55Z</time>
      </trkpt>
      <trkpt lat="44.58034" lon="2.19425">
        <ele>190</ele>
        <time>2021-08-30T11:58:00Z</time>
      </trkpt>
      <trkpt lat="44.58038" lon="2.19418">
        <ele>190</ele>
        <time>2021-08-30T11:58:01Z</time>
      </trkpt>
      <trkpt lat="44.58084" lon="2.19372">
        <ele>187</ele>
        <time>2021-08-30T11:58:10Z</time>
      </trkpt>
      <trkpt lat="44.5814" lon="2.19283">
        <ele>189</ele>
        <time>2021-08-30T11:58:28Z</time>
      </trkpt>
      <trkpt lat="44.58149" lon="2.19271">
        <ele>189</ele>
        <time>2021-08-30T11:58:31Z</time>
      </trkpt>
      <trkpt lat="44.58162" lon="2.19246">
        <ele>191</ele>
        <time>2021-08-30T11:58:36Z</time>
      </trkpt>
      <trkpt lat="44.58217" lon="2.19148">
        <ele>187</ele>
        <time>2021-08-30T11:58:56Z</time>
      </trkpt>
      <trkpt lat="44.58224" lon="2.19132">
        <ele>186</ele>
        <time>2021-08-30T11:58:59Z</time>
      </trkpt>
      <trkpt lat="44.58231" lon="2.19122">
        <ele>187</ele>
        <time>2021-08-30T11:59:01Z</time>
      </trkpt>
      <trkpt lat="44.58235" lon="2.19112">
        <ele>187</ele>
        <time>2021-08-30T11:59:03Z</time>
      </trkpt>
      <trkpt lat="44.58255" lon="2.19045">
        <ele>187</ele>
        <time>2021-08-30T11:59:13Z</time>
      </trkpt>
      <trkpt lat="44.58269" lon="2.19015">
        <ele>190</ele>
        <time>2021-08-30T11:59:18Z</time>
      </trkpt>
      <trkpt lat="44.58271" lon="2.19002">
        <ele>191</ele>
        <time>2021-08-30T11:59:20Z</time>
      </trkpt>
      <trkpt lat="44.58271" lon="2.18995">
        <ele>192</ele>
        <time>2021-08-30T11:59:21Z</time>
      </trkpt>
      <trkpt lat="44.58274" lon="2.18946">
        <ele>190</ele>
        <time>2021-08-30T11:59:27Z</time>
      </trkpt>
      <trkpt lat="44.58266" lon="2.18867">
        <ele>187</ele>
        <time>2021-08-30T11:59:37Z</time>
      </trkpt>
      <trkpt lat="44.58257" lon="2.18795">
        <ele>190</ele>
        <time>2021-08-30T11:59:49Z</time>
      </trkpt>
      <trkpt lat="44.58254" lon="2.18784">
        <ele>193</ele>
        <time>2021-08-30T11:59:51Z</time>
      </trkpt>
      <trkpt lat="44.58227" lon="2.18678">
        <ele>200</ele>
        <time>2021-08-30T12:00:07Z</time>
      </trkpt>
      <trkpt lat="44.58168" lon="2.18504">
        <ele>203</ele>
        <time>2021-08-30T12:00:38Z</time>
      </trkpt>
      <trkpt lat="44.58144" lon="2.18423">
        <ele>200</ele>
        <time>2021-08-30T12:00:52Z</time>
      </trkpt>
      <trkpt lat="44.58123" lon="2.18333">
        <ele>200</ele>
        <time>2021-08-30T12:01:06Z</time>
      </trkpt>
      <trkpt lat="44.58118" lon="2.18306">
        <ele>201</ele>
        <time>2021-08-30T12:01:10Z</time>
      </trkpt>
      <trkpt lat="44.58059" lon="2.18108">
        <ele>204</ele>
        <time>2021-08-30T12:01:41Z</time>
      </trkpt>
      <trkpt lat="44.58049" lon="2.18062">
        <ele>204</ele>
        <time>2021-08-30T12:01:52Z</time>
      </trkpt>
      <trkpt lat="44.58028" lon="2.18034">
        <ele>201</ele>
        <time>2021-08-30T12:01:59Z</time>
      </trkpt>
      <trkpt lat="44.58017" lon="2.18022">
        <ele>196</ele>
        <time>2021-08-30T12:02:02Z</time>
      </trkpt>
      <trkpt lat="44.58003" lon="2.17997">
        <ele>194</ele>
        <time>2021-08-30T12:02:08Z</time>
      </trkpt>
      <trkpt lat="44.57969" lon="2.1797">
        <ele>189</ele>
        <time>2021-08-30T12:02:16Z</time>
      </trkpt>
      <trkpt lat="44.57938" lon="2.17957">
        <ele>188</ele>
        <time>2021-08-30T12:02:22Z</time>
      </trkpt>
      <trkpt lat="44.57926" lon="2.17956">
        <ele>188</ele>
        <time>2021-08-30T12:02:25Z</time>
      </trkpt>
      <trkpt lat="44.57898" lon="2.17971">
        <ele>185</ele>
        <time>2021-08-30T12:02:33Z</time>
      </trkpt>
      <trkpt lat="44.57893" lon="2.17977">
        <ele>184</ele>
        <time>2021-08-30T12:02:35Z</time>
      </trkpt>
      <trkpt lat="44.5788" lon="2.17985">
        <ele>183</ele>
        <time>2021-08-30T12:02:39Z</time>
      </trkpt>
      <trkpt lat="44.57861" lon="2.17999">
        <ele>182</ele>
        <time>2021-08-30T12:02:44Z</time>
      </trkpt>
      <trkpt lat="44.57802" lon="2.18061">
        <ele>175</ele>
        <time>2021-08-30T12:02:59Z</time>
      </trkpt>
      <trkpt lat="44.57787" lon="2.18074">
        <ele>173</ele>
        <time>2021-08-30T12:03:03Z</time>
      </trkpt>
      <trkpt lat="44.57774" lon="2.18087">
        <ele>171</ele>
        <time>2021-08-30T12:03:06Z</time>
      </trkpt>
      <trkpt lat="44.57753" lon="2.18099">
        <ele>170</ele>
        <time>2021-08-30T12:03:10Z</time>
      </trkpt>
      <trkpt lat="44.57671" lon="2.18127">
        <ele>165</ele>
        <time>2021-08-30T12:03:26Z</time>
      </trkpt>
      <trkpt lat="44.57632" lon="2.18135">
        <ele>164</ele>
        <time>2021-08-30T12:03:33Z</time>
      </trkpt>
      <trkpt lat="44.57597" lon="2.18143">
        <ele>166</ele>
        <time>2021-08-30T12:03:39Z</time>
      </trkpt>
      <trkpt lat="44.57537" lon="2.18142">
        <ele>165</ele>
        <time>2021-08-30T12:03:51Z</time>
      </trkpt>
      <trkpt lat="44.57507" lon="2.18135">
        <ele>164</ele>
        <time>2021-08-30T12:03:58Z</time>
      </trkpt>
      <trkpt lat="44.57468" lon="2.18112">
        <ele>165</ele>
        <time>2021-08-30T12:04:08Z</time>
      </trkpt>
      <trkpt lat="44.57429" lon="2.18072">
        <ele>167</ele>
        <time>2021-08-30T12:04:20Z</time>
      </trkpt>
      <trkpt lat="44.57398" lon="2.18013">
        <ele>171</ele>
        <time>2021-08-30T12:04:31Z</time>
      </trkpt>
      <trkpt lat="44.57361" lon="2.17908">
        <ele>181</ele>
        <time>2021-08-30T12:04:52Z</time>
      </trkpt>
      <trkpt lat="44.57346" lon="2.17845">
        <ele>190</ele>
        <time>2021-08-30T12:05:03Z</time>
      </trkpt>
      <trkpt lat="44.57336" lon="2.17817">
        <ele>189</ele>
        <time>2021-08-30T12:05:09Z</time>
      </trkpt>
      <trkpt lat="44.57334" lon="2.1781">
        <ele>188</ele>
        <time>2021-08-30T12:05:10Z</time>
      </trkpt>
      <trkpt lat="44.57325" lon="2.17706">
        <ele>202</ele>
        <time>2021-08-30T12:05:23Z</time>
      </trkpt>
      <trkpt lat="44.57269" lon="2.17463">
        <ele>208</ele>
        <time>2021-08-30T12:05:53Z</time>
      </trkpt>
      <trkpt lat="44.57259" lon="2.17414">
        <ele>208</ele>
        <time>2021-08-30T12:06:00Z</time>
      </trkpt>
      <trkpt lat="44.57234" lon="2.17174">
        <ele>200</ele>
        <time>2021-08-30T12:06:32Z</time>
      </trkpt>
      <trkpt lat="44.57211" lon="2.16961">
        <ele>198</ele>
        <time>2021-08-30T12:07:02Z</time>
      </trkpt>
      <trkpt lat="44.57181" lon="2.16819">
        <ele>202</ele>
        <time>2021-08-30T12:07:25Z</time>
      </trkpt>
      <trkpt lat="44.57166" lon="2.16609">
        <ele>199</ele>
        <time>2021-08-30T12:07:56Z</time>
      </trkpt>
      <trkpt lat="44.57167" lon="2.1649">
        <ele>202</ele>
        <time>2021-08-30T12:08:14Z</time>
      </trkpt>
      <trkpt lat="44.57164" lon="2.16482">
        <ele>202</ele>
        <time>2021-08-30T12:08:15Z</time>
      </trkpt>
      <trkpt lat="44.57162" lon="2.16474">
        <ele>203</ele>
        <time>2021-08-30T12:08:16Z</time>
      </trkpt>
      <trkpt lat="44.57163" lon="2.1644">
        <ele>203</ele>
        <time>2021-08-30T12:08:21Z</time>
      </trkpt>
      <trkpt lat="44.57139" lon="2.1626">
        <ele>197</ele>
        <time>2021-08-30T12:08:48Z</time>
      </trkpt>
      <trkpt lat="44.5714" lon="2.16242">
        <ele>197</ele>
        <time>2021-08-30T12:08:51Z</time>
      </trkpt>
      <trkpt lat="44.57126" lon="2.16167">
        <ele>192</ele>
        <time>2021-08-30T12:09:02Z</time>
      </trkpt>
      <trkpt lat="44.57128" lon="2.1612">
        <ele>189</ele>
        <time>2021-08-30T12:09:09Z</time>
      </trkpt>
      <trkpt lat="44.57141" lon="2.16088">
        <ele>186</ele>
        <time>2021-08-30T12:09:14Z</time>
      </trkpt>
      <trkpt lat="44.57151" lon="2.1607">
        <ele>185</ele>
        <time>2021-08-30T12:09:17Z</time>
      </trkpt>
      <trkpt lat="44.57161" lon="2.1604">
        <ele>182</ele>
        <time>2021-08-30T12:09:22Z</time>
      </trkpt>
      <trkpt lat="44.57164" lon="2.1601">
        <ele>178</ele>
        <time>2021-08-30T12:09:27Z</time>
      </trkpt>
      <trkpt lat="44.57151" lon="2.15975">
        <ele>176</ele>
        <time>2021-08-30T12:09:33Z</time>
      </trkpt>
      <trkpt lat="44.57137" lon="2.15942">
        <ele>174</ele>
        <time>2021-08-30T12:09:38Z</time>
      </trkpt>
      <trkpt lat="44.57132" lon="2.15933">
        <ele>174</ele>
        <time>2021-08-30T12:09:40Z</time>
      </trkpt>
      <trkpt lat="44.57125" lon="2.15926">
        <ele>174</ele>
        <time>2021-08-30T12:09:42Z</time>
      </trkpt>
      <trkpt lat="44.57118" lon="2.15921">
        <ele>175</ele>
        <time>2021-08-30T12:09:44Z</time>
      </trkpt>
      <trkpt lat="44.57104" lon="2.15922">
        <ele>177</ele>
        <time>2021-08-30T12:09:48Z</time>
      </trkpt>
      <trkpt lat="44.57093" lon="2.15929">
        <ele>176</ele>
        <time>2021-08-30T12:09:52Z</time>
      </trkpt>
      <trkpt lat="44.57059" lon="2.15928">
        <ele>177</ele>
        <time>2021-08-30T12:10:03Z</time>
      </trkpt>
      <trkpt lat="44.57055" lon="2.15926">
        <ele>178</ele>
        <time>2021-08-30T12:10:12Z</time>
      </trkpt>
      <trkpt lat="44.5705" lon="2.1592">
        <ele>178</ele>
        <time>2021-08-30T12:10:15Z</time>
      </trkpt>
      <trkpt lat="44.57047" lon="2.15914">
        <ele>178</ele>
        <time>2021-08-30T12:10:17Z</time>
      </trkpt>
      <trkpt lat="44.57042" lon="2.15909">
        <ele>178</ele>
        <time>2021-08-30T12:10:20Z</time>
      </trkpt>
      <trkpt lat="44.57041" lon="2.15903">
        <ele>178</ele>
        <time>2021-08-30T12:10:23Z</time>
      </trkpt>
      <trkpt lat="44.57038" lon="2.15898">
        <ele>178</ele>
        <time>2021-08-30T12:10:56Z</time>
      </trkpt>
      <trkpt lat="44.57044" lon="2.15899">
        <ele>176</ele>
        <time>2021-08-30T12:12:03Z</time>
      </trkpt>
      <trkpt lat="44.57046" lon="2.15906">
        <ele>176</ele>
        <time>2021-08-30T12:12:05Z</time>
      </trkpt>
      <trkpt lat="44.5705" lon="2.1592">
        <ele>179</ele>
        <time>2021-08-30T12:12:10Z</time>
      </trkpt>
      <trkpt lat="44.57064" lon="2.15949">
        <ele>185</ele>
        <time>2021-08-30T12:12:40Z</time>
      </trkpt>
      <trkpt lat="44.57069" lon="2.15958">
        <ele>185</ele>
        <time>2021-08-30T12:12:42Z</time>
      </trkpt>
      <trkpt lat="44.57102" lon="2.15986">
        <ele>184</ele>
        <time>2021-08-30T12:12:52Z</time>
      </trkpt>
      <trkpt lat="44.57117" lon="2.15989">
        <ele>186</ele>
        <time>2021-08-30T12:12:56Z</time>
      </trkpt>
      <trkpt lat="44.57219" lon="2.15991">
        <ele>188</ele>
        <time>2021-08-30T12:13:27Z</time>
      </trkpt>
      <trkpt lat="44.5734" lon="2.15998">
        <ele>182</ele>
        <time>2021-08-30T12:13:54Z</time>
      </trkpt>
      <trkpt lat="44.57378" lon="2.16005">
        <ele>184</ele>
        <time>2021-08-30T12:14:07Z</time>
      </trkpt>
      <trkpt lat="44.57384" lon="2.15994">
        <ele>184</ele>
        <time>2021-08-30T12:14:11Z</time>
      </trkpt>
      <trkpt lat="44.57383" lon="2.15987">
        <ele>183</ele>
        <time>2021-08-30T12:14:13Z</time>
      </trkpt>
      <trkpt lat="44.57381" lon="2.15981">
        <ele>183</ele>
        <time>2021-08-30T12:15:04Z</time>
      </trkpt>
      <trkpt lat="44.5738" lon="2.15973">
        <ele>183</ele>
        <time>2021-08-30T12:15:06Z</time>
      </trkpt>
      <trkpt lat="44.57379" lon="2.15923">
        <ele>183</ele>
        <time>2021-08-30T12:15:15Z</time>
      </trkpt>
      <trkpt lat="44.57363" lon="2.15818">
        <ele>184</ele>
        <time>2021-08-30T12:15:30Z</time>
      </trkpt>
      <trkpt lat="44.57297" lon="2.15562">
        <ele>184</ele>
        <time>2021-08-30T12:16:00Z</time>
      </trkpt>
      <trkpt lat="44.57233" lon="2.15329">
        <ele>197</ele>
        <time>2021-08-30T12:16:30Z</time>
      </trkpt>
      <trkpt lat="44.57185" lon="2.15079">
        <ele>227</ele>
        <time>2021-08-30T12:17:01Z</time>
      </trkpt>
      <trkpt lat="44.57165" lon="2.14836">
        <ele>237</ele>
        <time>2021-08-30T12:17:26Z</time>
      </trkpt>
      <trkpt lat="44.57182" lon="2.14655">
        <ele>228</ele>
        <time>2021-08-30T12:17:44Z</time>
      </trkpt>
      <trkpt lat="44.57189" lon="2.14614">
        <ele>223</ele>
        <time>2021-08-30T12:17:49Z</time>
      </trkpt>
      <trkpt lat="44.57191" lon="2.14608">
        <ele>223</ele>
        <time>2021-08-30T12:17:50Z</time>
      </trkpt>
      <trkpt lat="44.57196" lon="2.146">
        <ele>221</ele>
        <time>2021-08-30T12:17:52Z</time>
      </trkpt>
      <trkpt lat="44.572" lon="2.14599">
        <ele>220</ele>
        <time>2021-08-30T12:17:54Z</time>
      </trkpt>
      <trkpt lat="44.57201" lon="2.14596">
        <ele>210</ele>
        <time>2021-08-30T12:18:28Z</time>
      </trkpt>
      <trkpt lat="44.57209" lon="2.14595">
        <ele>208</ele>
        <time>2021-08-30T12:18:30Z</time>
      </trkpt>
      <trkpt lat="44.57311" lon="2.1459">
        <ele>200</ele>
        <time>2021-08-30T12:19:01Z</time>
      </trkpt>
      <trkpt lat="44.57322" lon="2.14586">
        <ele>198</ele>
        <time>2021-08-30T12:19:05Z</time>
      </trkpt>
      <trkpt lat="44.57328" lon="2.14584">
        <ele>198</ele>
        <time>2021-08-30T12:19:07Z</time>
      </trkpt>
      <trkpt lat="44.57332" lon="2.14578">
        <ele>199</ele>
        <time>2021-08-30T12:19:09Z</time>
      </trkpt>
      <trkpt lat="44.57335" lon="2.14572">
        <ele>199</ele>
        <time>2021-08-30T12:19:11Z</time>
      </trkpt>
      <trkpt lat="44.57341" lon="2.14573">
        <ele>200</ele>
        <time>2021-08-30T12:19:14Z</time>
      </trkpt>
      <trkpt lat="44.57343" lon="2.14581">
        <ele>200</ele>
        <time>2021-08-30T12:19:53Z</time>
      </trkpt>
      <trkpt lat="44.57379" lon="2.14606">
        <ele>203</ele>
        <time>2021-08-30T12:20:08Z</time>
      </trkpt>
      <trkpt lat="44.57416" lon="2.14619">
        <ele>211</ele>
        <time>2021-08-30T12:20:23Z</time>
      </trkpt>
      <trkpt lat="44.57422" lon="2.14621">
        <ele>209</ele>
        <time>2021-08-30T12:20:25Z</time>
      </trkpt>
      <trkpt lat="44.5743" lon="2.14622">
        <ele>207</ele>
        <time>2021-08-30T12:20:27Z</time>
      </trkpt>
      <trkpt lat="44.57475" lon="2.14627">
        <ele>204</ele>
        <time>2021-08-30T12:20:49Z</time>
      </trkpt>
      <trkpt lat="44.57555" lon="2.14625">
        <ele>206</ele>
        <time>2021-08-30T12:21:20Z</time>
      </trkpt>
      <trkpt lat="44.57578" lon="2.14617">
        <ele>207</ele>
        <time>2021-08-30T12:21:31Z</time>
      </trkpt>
      <trkpt lat="44.5761" lon="2.14604">
        <ele>208</ele>
        <time>2021-08-30T12:21:45Z</time>
      </trkpt>
      <trkpt lat="44.5762" lon="2.14597">
        <ele>209</ele>
        <time>2021-08-30T12:21:50Z</time>
      </trkpt>
      <trkpt lat="44.57625" lon="2.14595">
        <ele>209</ele>
        <time>2021-08-30T12:21:52Z</time>
      </trkpt>
      <trkpt lat="44.57688" lon="2.14537">
        <ele>211</ele>
        <time>2021-08-30T12:22:23Z</time>
      </trkpt>
      <trkpt lat="44.57719" lon="2.14524">
        <ele>213</ele>
        <time>2021-08-30T12:22:37Z</time>
      </trkpt>
      <trkpt lat="44.57793" lon="2.14504">
        <ele>216</ele>
        <time>2021-08-30T12:23:08Z</time>
      </trkpt>
      <trkpt lat="44.57806" lon="2.14498">
        <ele>217</ele>
        <time>2021-08-30T12:23:14Z</time>
      </trkpt>
      <trkpt lat="44.57851" lon="2.14456">
        <ele>216</ele>
        <time>2021-08-30T12:23:37Z</time>
      </trkpt>
      <trkpt lat="44.57897" lon="2.14374">
        <ele>217</ele>
        <time>2021-08-30T12:24:08Z</time>
      </trkpt>
      <trkpt lat="44.57902" lon="2.14362">
        <ele>216</ele>
        <time>2021-08-30T12:24:12Z</time>
      </trkpt>
      <trkpt lat="44.57905" lon="2.14344">
        <ele>216</ele>
        <time>2021-08-30T12:24:18Z</time>
      </trkpt>
      <trkpt lat="44.57903" lon="2.14324">
        <ele>215</ele>
        <time>2021-08-30T12:24:24Z</time>
      </trkpt>
      <trkpt lat="44.57901" lon="2.14307">
        <ele>215</ele>
        <time>2021-08-30T12:24:28Z</time>
      </trkpt>
      <trkpt lat="44.57906" lon="2.14229">
        <ele>216</ele>
        <time>2021-08-30T12:24:42Z</time>
      </trkpt>
      <trkpt lat="44.57926" lon="2.14157">
        <ele>214</ele>
        <time>2021-08-30T12:24:53Z</time>
      </trkpt>
      <trkpt lat="44.57956" lon="2.14064">
        <ele>210</ele>
        <time>2021-08-30T12:25:03Z</time>
      </trkpt>
      <trkpt lat="44.57962" lon="2.14055">
        <ele>208</ele>
        <time>2021-08-30T12:25:04Z</time>
      </trkpt>
      <trkpt lat="44.58008" lon="2.14026">
        <ele>202</ele>
        <time>2021-08-30T12:25:10Z</time>
      </trkpt>
      <trkpt lat="44.58014" lon="2.1402">
        <ele>201</ele>
        <time>2021-08-30T12:25:11Z</time>
      </trkpt>
      <trkpt lat="44.58018" lon="2.14011">
        <ele>200</ele>
        <time>2021-08-30T12:25:12Z</time>
      </trkpt>
      <trkpt lat="44.5802" lon="2.13974">
        <ele>198</ele>
        <time>2021-08-30T12:25:16Z</time>
      </trkpt>
      <trkpt lat="44.58021" lon="2.13964">
        <ele>198</ele>
        <time>2021-08-30T12:25:17Z</time>
      </trkpt>
      <trkpt lat="44.58032" lon="2.1394">
        <ele>196</ele>
        <time>2021-08-30T12:25:20Z</time>
      </trkpt>
      <trkpt lat="44.5805" lon="2.1393">
        <ele>194</ele>
        <time>2021-08-30T12:25:23Z</time>
      </trkpt>
      <trkpt lat="44.58077" lon="2.13925">
        <ele>192</ele>
        <time>2021-08-30T12:25:28Z</time>
      </trkpt>
      <trkpt lat="44.58109" lon="2.13897">
        <ele>191</ele>
        <time>2021-08-30T12:25:37Z</time>
      </trkpt>
      <trkpt lat="44.58127" lon="2.13877">
        <ele>192</ele>
        <time>2021-08-30T12:25:45Z</time>
      </trkpt>
      <trkpt lat="44.58132" lon="2.13873">
        <ele>192</ele>
        <time>2021-08-30T12:25:47Z</time>
      </trkpt>
      <trkpt lat="44.58146" lon="2.13854">
        <ele>192</ele>
        <time>2021-08-30T12:25:55Z</time>
      </trkpt>
      <trkpt lat="44.58171" lon="2.13831">
        <ele>199</ele>
        <time>2021-08-30T12:26:09Z</time>
      </trkpt>
      <trkpt lat="44.58176" lon="2.13827">
        <ele>202</ele>
        <time>2021-08-30T12:26:12Z</time>
      </trkpt>
      <trkpt lat="44.58196" lon="2.13813">
        <ele>214</ele>
        <time>2021-08-30T12:26:22Z</time>
      </trkpt>
      <trkpt lat="44.58248" lon="2.13793">
        <ele>218</ele>
        <time>2021-08-30T12:26:50Z</time>
      </trkpt>
      <trkpt lat="44.58306" lon="2.13828">
        <ele>227</ele>
        <time>2021-08-30T12:27:20Z</time>
      </trkpt>
      <trkpt lat="44.58362" lon="2.13846">
        <ele>232</ele>
        <time>2021-08-30T12:27:46Z</time>
      </trkpt>
      <trkpt lat="44.5842" lon="2.13836">
        <ele>237</ele>
        <time>2021-08-30T12:28:12Z</time>
      </trkpt>
      <trkpt lat="44.58466" lon="2.13829">
        <ele>238</ele>
        <time>2021-08-30T12:28:30Z</time>
      </trkpt>
      <trkpt lat="44.58476" lon="2.13831">
        <ele>238</ele>
        <time>2021-08-30T12:28:34Z</time>
      </trkpt>
      <trkpt lat="44.58513" lon="2.13857">
        <ele>238</ele>
        <time>2021-08-30T12:28:50Z</time>
      </trkpt>
      <trkpt lat="44.5854" lon="2.13887">
        <ele>239</ele>
        <time>2021-08-30T12:29:06Z</time>
      </trkpt>
      <trkpt lat="44.58544" lon="2.13891">
        <ele>239</ele>
        <time>2021-08-30T12:29:08Z</time>
      </trkpt>
      <trkpt lat="44.58562" lon="2.1391">
        <ele>237</ele>
        <time>2021-08-30T12:29:19Z</time>
      </trkpt>
      <trkpt lat="44.58567" lon="2.13914">
        <ele>237</ele>
        <time>2021-08-30T12:29:21Z</time>
      </trkpt>
      <trkpt lat="44.5859" lon="2.13936">
        <ele>240</ele>
        <time>2021-08-30T12:29:33Z</time>
      </trkpt>
      <trkpt lat="44.58596" lon="2.13939">
        <ele>239</ele>
        <time>2021-08-30T12:29:36Z</time>
      </trkpt>
      <trkpt lat="44.58608" lon="2.13947">
        <ele>240</ele>
        <time>2021-08-30T12:29:41Z</time>
      </trkpt>
      <trkpt lat="44.58626" lon="2.13955">
        <ele>244</ele>
        <time>2021-08-30T12:29:47Z</time>
      </trkpt>
      <trkpt lat="44.58631" lon="2.13957">
        <ele>245</ele>
        <time>2021-08-30T12:29:49Z</time>
      </trkpt>
      <trkpt lat="44.58667" lon="2.13972">
        <ele>260</ele>
        <time>2021-08-30T12:30:09Z</time>
      </trkpt>
      <trkpt lat="44.58701" lon="2.13986">
        <ele>266</ele>
        <time>2021-08-30T12:30:24Z</time>
      </trkpt>
      <trkpt lat="44.58711" lon="2.13991">
        <ele>268</ele>
        <time>2021-08-30T12:30:29Z</time>
      </trkpt>
      <trkpt lat="44.58727" lon="2.13995">
        <ele>268</ele>
        <time>2021-08-30T12:30:37Z</time>
      </trkpt>
      <trkpt lat="44.58763" lon="2.14003">
        <ele>270</ele>
        <time>2021-08-30T12:30:52Z</time>
      </trkpt>
      <trkpt lat="44.5877" lon="2.14002">
        <ele>271</ele>
        <time>2021-08-30T12:30:55Z</time>
      </trkpt>
      <trkpt lat="44.58851" lon="2.14038">
        <ele>271</ele>
        <time>2021-08-30T12:31:28Z</time>
      </trkpt>
      <trkpt lat="44.58857" lon="2.1404">
        <ele>271</ele>
        <time>2021-08-30T12:31:31Z</time>
      </trkpt>
      <trkpt lat="44.58873" lon="2.14047">
        <ele>273</ele>
        <time>2021-08-30T12:31:39Z</time>
      </trkpt>
      <trkpt lat="44.58927" lon="2.14059">
        <ele>269</ele>
        <time>2021-08-30T12:32:04Z</time>
      </trkpt>
      <trkpt lat="44.59004" lon="2.14094">
        <ele>278</ele>
        <time>2021-08-30T12:32:33Z</time>
      </trkpt>
      <trkpt lat="44.59009" lon="2.14095">
        <ele>279</ele>
        <time>2021-08-30T12:32:36Z</time>
      </trkpt>
      <trkpt lat="44.5904" lon="2.14095">
        <ele>291</ele>
        <time>2021-08-30T12:32:52Z</time>
      </trkpt>
      <trkpt lat="44.59138" lon="2.14118">
        <ele>306</ele>
        <time>2021-08-30T12:33:23Z</time>
      </trkpt>
      <trkpt lat="44.59237" lon="2.14138">
        <ele>309</ele>
        <time>2021-08-30T12:33:55Z</time>
      </trkpt>
      <trkpt lat="44.59265" lon="2.14142">
        <ele>307</ele>
        <time>2021-08-30T12:34:05Z</time>
      </trkpt>
      <trkpt lat="44.5927" lon="2.14143">
        <ele>307</ele>
        <time>2021-08-30T12:34:07Z</time>
      </trkpt>
      <trkpt lat="44.59357" lon="2.14146">
        <ele>311</ele>
        <time>2021-08-30T12:34:39Z</time>
      </trkpt>
      <trkpt lat="44.5945" lon="2.14127">
        <ele>309</ele>
        <time>2021-08-30T12:35:08Z</time>
      </trkpt>
      <trkpt lat="44.59495" lon="2.14111">
        <ele>304</ele>
        <time>2021-08-30T12:35:22Z</time>
      </trkpt>
      <trkpt lat="44.59501" lon="2.14108">
        <ele>304</ele>
        <time>2021-08-30T12:35:24Z</time>
      </trkpt>
      <trkpt lat="44.59523" lon="2.14099">
        <ele>297</ele>
        <time>2021-08-30T12:35:30Z</time>
      </trkpt>
      <trkpt lat="44.59559" lon="2.141">
        <ele>298</ele>
        <time>2021-08-30T12:35:40Z</time>
      </trkpt>
      <trkpt lat="44.59591" lon="2.14115">
        <ele>297</ele>
        <time>2021-08-30T12:35:50Z</time>
      </trkpt>
      <trkpt lat="44.59626" lon="2.14119">
        <ele>297</ele>
        <time>2021-08-30T12:36:00Z</time>
      </trkpt>
      <trkpt lat="44.59656" lon="2.14114">
        <ele>296</ele>
        <time>2021-08-30T12:36:08Z</time>
      </trkpt>
      <trkpt lat="44.59669" lon="2.14108">
        <ele>296</ele>
        <time>2021-08-30T12:36:12Z</time>
      </trkpt>
      <trkpt lat="44.59752" lon="2.1401">
        <ele>296</ele>
        <time>2021-08-30T12:36:42Z</time>
      </trkpt>
      <trkpt lat="44.59786" lon="2.13978">
        <ele>297</ele>
        <time>2021-08-30T12:36:56Z</time>
      </trkpt>
      <trkpt lat="44.59791" lon="2.13976">
        <ele>297</ele>
        <time>2021-08-30T12:36:58Z</time>
      </trkpt>
      <trkpt lat="44.59797" lon="2.13973">
        <ele>298</ele>
        <time>2021-08-30T12:37:00Z</time>
      </trkpt>
      <trkpt lat="44.59855" lon="2.13953">
        <ele>302</ele>
        <time>2021-08-30T12:37:20Z</time>
      </trkpt>
      <trkpt lat="44.59901" lon="2.13942">
        <ele>301</ele>
        <time>2021-08-30T12:37:34Z</time>
      </trkpt>
      <trkpt lat="44.59905" lon="2.13937">
        <ele>301</ele>
        <time>2021-08-30T12:37:36Z</time>
      </trkpt>
      <trkpt lat="44.59904" lon="2.1393">
        <ele>301</ele>
        <time>2021-08-30T12:37:38Z</time>
      </trkpt>
      <trkpt lat="44.59906" lon="2.13924">
        <ele>300</ele>
        <time>2021-08-30T12:37:40Z</time>
      </trkpt>
      <trkpt lat="44.59908" lon="2.13926">
        <ele>296</ele>
        <time>2021-08-30T12:39:51Z</time>
      </trkpt>
      <trkpt lat="44.59908" lon="2.13934">
        <ele>297</ele>
        <time>2021-08-30T12:39:54Z</time>
      </trkpt>
      <trkpt lat="44.59913" lon="2.1394">
        <ele>298</ele>
        <time>2021-08-30T12:39:57Z</time>
      </trkpt>
      <trkpt lat="44.59955" lon="2.13958">
        <ele>299</ele>
        <time>2021-08-30T12:40:09Z</time>
      </trkpt>
      <trkpt lat="44.59959" lon="2.13959">
        <ele>298</ele>
        <time>2021-08-30T12:41:19Z</time>
      </trkpt>
      <trkpt lat="44.60054" lon="2.13987">
        <ele>295</ele>
        <time>2021-08-30T12:41:43Z</time>
      </trkpt>
      <trkpt lat="44.6008" lon="2.13985">
        <ele>292</ele>
        <time>2021-08-30T12:41:47Z</time>
      </trkpt>
      <trkpt lat="44.60145" lon="2.13955">
        <ele>286</ele>
        <time>2021-08-30T12:41:55Z</time>
      </trkpt>
      <trkpt lat="44.60169" lon="2.13935">
        <ele>284</ele>
        <time>2021-08-30T12:41:58Z</time>
      </trkpt>
      <trkpt lat="44.60175" lon="2.13926">
        <ele>283</ele>
        <time>2021-08-30T12:41:59Z</time>
      </trkpt>
      <trkpt lat="44.60185" lon="2.13904">
        <ele>281</ele>
        <time>2021-08-30T12:42:01Z</time>
      </trkpt>
      <trkpt lat="44.60187" lon="2.13892">
        <ele>280</ele>
        <time>2021-08-30T12:42:02Z</time>
      </trkpt>
      <trkpt lat="44.60183" lon="2.13785">
        <ele>273</ele>
        <time>2021-08-30T12:42:09Z</time>
      </trkpt>
      <trkpt lat="44.60191" lon="2.1374">
        <ele>271</ele>
        <time>2021-08-30T12:42:12Z</time>
      </trkpt>
      <trkpt lat="44.60202" lon="2.13716">
        <ele>270</ele>
        <time>2021-08-30T12:42:14Z</time>
      </trkpt>
      <trkpt lat="44.60229" lon="2.13678">
        <ele>267</ele>
        <time>2021-08-30T12:42:18Z</time>
      </trkpt>
      <trkpt lat="44.60236" lon="2.13672">
        <ele>266</ele>
        <time>2021-08-30T12:42:19Z</time>
      </trkpt>
      <trkpt lat="44.60243" lon="2.13668">
        <ele>266</ele>
        <time>2021-08-30T12:42:20Z</time>
      </trkpt>
      <trkpt lat="44.6026" lon="2.13668">
        <ele>264</ele>
        <time>2021-08-30T12:42:22Z</time>
      </trkpt>
      <trkpt lat="44.60276" lon="2.13675">
        <ele>263</ele>
        <time>2021-08-30T12:42:24Z</time>
      </trkpt>
      <trkpt lat="44.60457" lon="2.13828">
        <ele>246</ele>
        <time>2021-08-30T12:42:45Z</time>
      </trkpt>
      <trkpt lat="44.60465" lon="2.13831">
        <ele>246</ele>
        <time>2021-08-30T12:42:46Z</time>
      </trkpt>
      <trkpt lat="44.60472" lon="2.13831">
        <ele>246</ele>
        <time>2021-08-30T12:42:47Z</time>
      </trkpt>
      <trkpt lat="44.60478" lon="2.13827">
        <ele>246</ele>
        <time>2021-08-30T12:42:48Z</time>
      </trkpt>
      <trkpt lat="44.60486" lon="2.13816">
        <ele>246</ele>
        <time>2021-08-30T12:42:50Z</time>
      </trkpt>
      <trkpt lat="44.60495" lon="2.13793">
        <ele>247</ele>
        <time>2021-08-30T12:42:54Z</time>
      </trkpt>
      <trkpt lat="44.60513" lon="2.13739">
        <ele>246</ele>
        <time>2021-08-30T12:43:08Z</time>
      </trkpt>
      <trkpt lat="44.60513" lon="2.13715">
        <ele>248</ele>
        <time>2021-08-30T12:43:14Z</time>
      </trkpt>
      <trkpt lat="44.60508" lon="2.13679">
        <ele>252</ele>
        <time>2021-08-30T12:43:24Z</time>
      </trkpt>
      <trkpt lat="44.60508" lon="2.13664">
        <ele>253</ele>
        <time>2021-08-30T12:43:28Z</time>
      </trkpt>
      <trkpt lat="44.60509" lon="2.13657">
        <ele>254</ele>
        <time>2021-08-30T12:43:30Z</time>
      </trkpt>
      <trkpt lat="44.60517" lon="2.13643">
        <ele>256</ele>
        <time>2021-08-30T12:43:35Z</time>
      </trkpt>
      <trkpt lat="44.60524" lon="2.13632">
        <ele>258</ele>
        <time>2021-08-30T12:43:40Z</time>
      </trkpt>
      <trkpt lat="44.6053" lon="2.13613">
        <ele>259</ele>
        <time>2021-08-30T12:43:46Z</time>
      </trkpt>
      <trkpt lat="44.6053" lon="2.13606">
        <ele>259</ele>
        <time>2021-08-30T12:43:48Z</time>
      </trkpt>
      <trkpt lat="44.60523" lon="2.13585">
        <ele>260</ele>
        <time>2021-08-30T12:43:54Z</time>
      </trkpt>
      <trkpt lat="44.60517" lon="2.13575">
        <ele>261</ele>
        <time>2021-08-30T12:43:58Z</time>
      </trkpt>
      <trkpt lat="44.60514" lon="2.1357">
        <ele>261</ele>
        <time>2021-08-30T12:44:00Z</time>
      </trkpt>
      <trkpt lat="44.60508" lon="2.13567">
        <ele>261</ele>
        <time>2021-08-30T12:44:03Z</time>
      </trkpt>
      <trkpt lat="44.60501" lon="2.13566">
        <ele>261</ele>
        <time>2021-08-30T12:44:06Z</time>
      </trkpt>
      <trkpt lat="44.60459" lon="2.13577">
        <ele>264</ele>
        <time>2021-08-30T12:44:23Z</time>
      </trkpt>
      <trkpt lat="44.60448" lon="2.13575">
        <ele>265</ele>
        <time>2021-08-30T12:44:27Z</time>
      </trkpt>
      <trkpt lat="44.60439" lon="2.13567">
        <ele>266</ele>
        <time>2021-08-30T12:44:31Z</time>
      </trkpt>
      <trkpt lat="44.60429" lon="2.13549">
        <ele>267</ele>
        <time>2021-08-30T12:44:37Z</time>
      </trkpt>
      <trkpt lat="44.60428" lon="2.13542">
        <ele>268</ele>
        <time>2021-08-30T12:44:40Z</time>
      </trkpt>
      <trkpt lat="44.60444" lon="2.13531">
        <ele>269</ele>
        <time>2021-08-30T12:44:48Z</time>
      </trkpt>
      <trkpt lat="44.60473" lon="2.13524">
        <ele>270</ele>
        <time>2021-08-30T12:45:01Z</time>
      </trkpt>
      <trkpt lat="44.60478" lon="2.13522">
        <ele>270</ele>
        <time>2021-08-30T12:45:03Z</time>
      </trkpt>
      <trkpt lat="44.60535" lon="2.13501">
        <ele>266</ele>
        <time>2021-08-30T12:45:28Z</time>
      </trkpt>
      <trkpt lat="44.60555" lon="2.13493">
        <ele>268</ele>
        <time>2021-08-30T12:45:34Z</time>
      </trkpt>
      <trkpt lat="44.60647" lon="2.135">
        <ele>276</ele>
        <time>2021-08-30T12:46:04Z</time>
      </trkpt>
      <trkpt lat="44.60688" lon="2.13498">
        <ele>278</ele>
        <time>2021-08-30T12:46:18Z</time>
      </trkpt>
      <trkpt lat="44.60779" lon="2.13445">
        <ele>275</ele>
        <time>2021-08-30T12:46:48Z</time>
      </trkpt>
      <trkpt lat="44.60841" lon="2.13404">
        <ele>272</ele>
        <time>2021-08-30T12:47:00Z</time>
      </trkpt>
      <trkpt lat="44.60867" lon="2.13396">
        <ele>271</ele>
        <time>2021-08-30T12:47:04Z</time>
      </trkpt>
      <trkpt lat="44.60911" lon="2.13396">
        <ele>270</ele>
        <time>2021-08-30T12:47:10Z</time>
      </trkpt>
      <trkpt lat="44.60955" lon="2.13411">
        <ele>269</ele>
        <time>2021-08-30T12:47:17Z</time>
      </trkpt>
      <trkpt lat="44.60964" lon="2.13416">
        <ele>269</ele>
        <time>2021-08-30T12:47:19Z</time>
      </trkpt>
      <trkpt lat="44.60977" lon="2.13422">
        <ele>270</ele>
        <time>2021-08-30T12:47:23Z</time>
      </trkpt>
      <trkpt lat="44.60981" lon="2.13417">
        <ele>270</ele>
        <time>2021-08-30T12:47:26Z</time>
      </trkpt>
      <trkpt lat="44.60981" lon="2.13407">
        <ele>270</ele>
        <time>2021-08-30T12:47:28Z</time>
      </trkpt>
      <trkpt lat="44.60983" lon="2.13397">
        <ele>270</ele>
        <time>2021-08-30T12:47:30Z</time>
      </trkpt>
      <trkpt lat="44.61014" lon="2.1337">
        <ele>268</ele>
        <time>2021-08-30T12:47:40Z</time>
      </trkpt>
      <trkpt lat="44.61068" lon="2.13315">
        <ele>270</ele>
        <time>2021-08-30T12:47:59Z</time>
      </trkpt>
      <trkpt lat="44.61072" lon="2.1331">
        <ele>270</ele>
        <time>2021-08-30T12:48:01Z</time>
      </trkpt>
      <trkpt lat="44.61089" lon="2.13291">
        <ele>272</ele>
        <time>2021-08-30T12:48:09Z</time>
      </trkpt>
      <trkpt lat="44.61093" lon="2.13288">
        <ele>272</ele>
        <time>2021-08-30T12:48:11Z</time>
      </trkpt>
      <trkpt lat="44.61155" lon="2.13227">
        <ele>276</ele>
        <time>2021-08-30T12:48:42Z</time>
      </trkpt>
      <trkpt lat="44.61177" lon="2.13188">
        <ele>276</ele>
        <time>2021-08-30T12:48:58Z</time>
      </trkpt>
      <trkpt lat="44.61192" lon="2.13157">
        <ele>277</ele>
        <time>2021-08-30T12:49:08Z</time>
      </trkpt>
      <trkpt lat="44.61197" lon="2.13143">
        <ele>274</ele>
        <time>2021-08-30T12:49:12Z</time>
      </trkpt>
      <trkpt lat="44.61238" lon="2.13034">
        <ele>273</ele>
        <time>2021-08-30T12:49:31Z</time>
      </trkpt>
      <trkpt lat="44.61253" lon="2.13015">
        <ele>273</ele>
        <time>2021-08-30T12:49:35Z</time>
      </trkpt>
      <trkpt lat="44.61268" lon="2.13005">
        <ele>272</ele>
        <time>2021-08-30T12:49:38Z</time>
      </trkpt>
      <trkpt lat="44.61339" lon="2.12967">
        <ele>268</ele>
        <time>2021-08-30T12:49:50Z</time>
      </trkpt>
      <trkpt lat="44.61355" lon="2.12953">
        <ele>267</ele>
        <time>2021-08-30T12:49:53Z</time>
      </trkpt>
      <trkpt lat="44.61459" lon="2.12769">
        <ele>272</ele>
        <time>2021-08-30T12:50:23Z</time>
      </trkpt>
      <trkpt lat="44.61474" lon="2.12741">
        <ele>273</ele>
        <time>2021-08-30T12:50:31Z</time>
      </trkpt>
      <trkpt lat="44.61478" lon="2.12725">
        <ele>273</ele>
        <time>2021-08-30T12:50:35Z</time>
      </trkpt>
      <trkpt lat="44.61479" lon="2.12697">
        <ele>273</ele>
        <time>2021-08-30T12:50:41Z</time>
      </trkpt>
      <trkpt lat="44.61484" lon="2.12666">
        <ele>274</ele>
        <time>2021-08-30T12:50:47Z</time>
      </trkpt>
      <trkpt lat="44.61493" lon="2.12636">
        <ele>275</ele>
        <time>2021-08-30T12:50:53Z</time>
      </trkpt>
      <trkpt lat="44.61568" lon="2.12492">
        <ele>278</ele>
        <time>2021-08-30T12:51:25Z</time>
      </trkpt>
      <trkpt lat="44.61642" lon="2.12348">
        <ele>282</ele>
        <time>2021-08-30T12:51:57Z</time>
      </trkpt>
      <trkpt lat="44.61721" lon="2.12204">
        <ele>283</ele>
        <time>2021-08-30T12:52:29Z</time>
      </trkpt>
      <trkpt lat="44.61778" lon="2.12089">
        <ele>287</ele>
        <time>2021-08-30T12:52:59Z</time>
      </trkpt>
      <trkpt lat="44.61835" lon="2.11983">
        <ele>288</ele>
        <time>2021-08-30T12:53:29Z</time>
      </trkpt>
      <trkpt lat="44.61898" lon="2.11867">
        <ele>290</ele>
        <time>2021-08-30T12:53:59Z</time>
      </trkpt>
      <trkpt lat="44.61964" lon="2.11743">
        <ele>293</ele>
        <time>2021-08-30T12:54:31Z</time>
      </trkpt>
      <trkpt lat="44.6202" lon="2.11634">
        <ele>296</ele>
        <time>2021-08-30T12:55:02Z</time>
      </trkpt>
      <trkpt lat="44.62068" lon="2.11538">
        <ele>303</ele>
        <time>2021-08-30T12:55:34Z</time>
      </trkpt>
      <trkpt lat="44.62105" lon="2.11468">
        <ele>308</ele>
        <time>2021-08-30T12:56:00Z</time>
      </trkpt>
      <trkpt lat="44.62107" lon="2.11456">
        <ele>309</ele>
        <time>2021-08-30T12:56:04Z</time>
      </trkpt>
      <trkpt lat="44.62107" lon="2.11449">
        <ele>309</ele>
        <time>2021-08-30T12:56:06Z</time>
      </trkpt>
      <trkpt lat="44.62097" lon="2.11416">
        <ele>310</ele>
        <time>2021-08-30T12:56:14Z</time>
      </trkpt>
      <trkpt lat="44.6203" lon="2.11299">
        <ele>315</ele>
        <time>2021-08-30T12:56:44Z</time>
      </trkpt>
      <trkpt lat="44.6195" lon="2.11192">
        <ele>320</ele>
        <time>2021-08-30T12:57:16Z</time>
      </trkpt>
      <trkpt lat="44.61885" lon="2.11108">
        <ele>326</ele>
        <time>2021-08-30T12:57:46Z</time>
      </trkpt>
      <trkpt lat="44.61878" lon="2.11096">
        <ele>327</ele>
        <time>2021-08-30T12:57:50Z</time>
      </trkpt>
      <trkpt lat="44.61874" lon="2.11082">
        <ele>327</ele>
        <time>2021-08-30T12:57:54Z</time>
      </trkpt>
      <trkpt lat="44.61875" lon="2.11058">
        <ele>328</ele>
        <time>2021-08-30T12:58:00Z</time>
      </trkpt>
      <trkpt lat="44.61889" lon="2.10943">
        <ele>330</ele>
        <time>2021-08-30T12:58:30Z</time>
      </trkpt>
      <trkpt lat="44.6189" lon="2.10911">
        <ele>332</ele>
        <time>2021-08-30T12:58:38Z</time>
      </trkpt>
      <trkpt lat="44.61887" lon="2.10875">
        <ele>333</ele>
        <time>2021-08-30T12:58:46Z</time>
      </trkpt>
      <trkpt lat="44.61852" lon="2.10733">
        <ele>341</ele>
        <time>2021-08-30T12:59:16Z</time>
      </trkpt>
      <trkpt lat="44.61846" lon="2.10689">
        <ele>342</ele>
        <time>2021-08-30T12:59:26Z</time>
      </trkpt>
      <trkpt lat="44.61845" lon="2.10514">
        <ele>338</ele>
        <time>2021-08-30T12:59:56Z</time>
      </trkpt>
      <trkpt lat="44.61844" lon="2.10459">
        <ele>337</ele>
        <time>2021-08-30T13:00:03Z</time>
      </trkpt>
      <trkpt lat="44.61793" lon="2.10252">
        <ele>338</ele>
        <time>2021-08-30T13:00:33Z</time>
      </trkpt>
      <trkpt lat="44.61743" lon="2.10068">
        <ele>342</ele>
        <time>2021-08-30T13:01:03Z</time>
      </trkpt>
      <trkpt lat="44.61677" lon="2.09924">
        <ele>343</ele>
        <time>2021-08-30T13:01:33Z</time>
      </trkpt>
      <trkpt lat="44.61586" lon="2.09782">
        <ele>343</ele>
        <time>2021-08-30T13:02:03Z</time>
      </trkpt>
      <trkpt lat="44.61499" lon="2.09661">
        <ele>347</ele>
        <time>2021-08-30T13:02:33Z</time>
      </trkpt>
      <trkpt lat="44.61491" lon="2.09643">
        <ele>348</ele>
        <time>2021-08-30T13:02:37Z</time>
      </trkpt>
      <trkpt lat="44.61482" lon="2.09619">
        <ele>350</ele>
        <time>2021-08-30T13:02:43Z</time>
      </trkpt>
      <trkpt lat="44.61477" lon="2.09585">
        <ele>354</ele>
        <time>2021-08-30T13:02:51Z</time>
      </trkpt>
      <trkpt lat="44.61484" lon="2.09451">
        <ele>357</ele>
        <time>2021-08-30T13:03:23Z</time>
      </trkpt>
      <trkpt lat="44.61496" lon="2.09319">
        <ele>359</ele>
        <time>2021-08-30T13:03:55Z</time>
      </trkpt>
      <trkpt lat="44.61504" lon="2.09196">
        <ele>363</ele>
        <time>2021-08-30T13:04:25Z</time>
      </trkpt>
      <trkpt lat="44.61517" lon="2.09056">
        <ele>368</ele>
        <time>2021-08-30T13:04:57Z</time>
      </trkpt>
      <trkpt lat="44.61519" lon="2.09029">
        <ele>370</ele>
        <time>2021-08-30T13:05:03Z</time>
      </trkpt>
      <trkpt lat="44.61516" lon="2.09003">
        <ele>373</ele>
        <time>2021-08-30T13:05:09Z</time>
      </trkpt>
      <trkpt lat="44.61505" lon="2.08973">
        <ele>378</ele>
        <time>2021-08-30T13:05:17Z</time>
      </trkpt>
      <trkpt lat="44.61454" lon="2.08902">
        <ele>381</ele>
        <time>2021-08-30T13:05:41Z</time>
      </trkpt>
      <trkpt lat="44.61447" lon="2.08887">
        <ele>382</ele>
        <time>2021-08-30T13:05:45Z</time>
      </trkpt>
      <trkpt lat="44.61446" lon="2.08879">
        <ele>383</ele>
        <time>2021-08-30T13:05:47Z</time>
      </trkpt>
      <trkpt lat="44.61447" lon="2.08853">
        <ele>384</ele>
        <time>2021-08-30T13:05:53Z</time>
      </trkpt>
      <trkpt lat="44.61484" lon="2.08712">
        <ele>384</ele>
        <time>2021-08-30T13:06:23Z</time>
      </trkpt>
      <trkpt lat="44.61492" lon="2.0868">
        <ele>385</ele>
        <time>2021-08-30T13:06:29Z</time>
      </trkpt>
      <trkpt lat="44.61493" lon="2.08669">
        <ele>385</ele>
        <time>2021-08-30T13:06:31Z</time>
      </trkpt>
      <trkpt lat="44.61489" lon="2.08634">
        <ele>385</ele>
        <time>2021-08-30T13:06:37Z</time>
      </trkpt>
      <trkpt lat="44.61481" lon="2.08605">
        <ele>385</ele>
        <time>2021-08-30T13:06:42Z</time>
      </trkpt>
      <trkpt lat="44.61474" lon="2.08589">
        <ele>386</ele>
        <time>2021-08-30T13:06:45Z</time>
      </trkpt>
      <trkpt lat="44.61451" lon="2.08569">
        <ele>387</ele>
        <time>2021-08-30T13:06:51Z</time>
      </trkpt>
      <trkpt lat="44.61371" lon="2.08535">
        <ele>389</ele>
        <time>2021-08-30T13:07:09Z</time>
      </trkpt>
      <trkpt lat="44.61359" lon="2.08523">
        <ele>389</ele>
        <time>2021-08-30T13:07:12Z</time>
      </trkpt>
      <trkpt lat="44.61346" lon="2.08502">
        <ele>390</ele>
        <time>2021-08-30T13:07:16Z</time>
      </trkpt>
      <trkpt lat="44.61317" lon="2.08423">
        <ele>393</ele>
        <time>2021-08-30T13:07:29Z</time>
      </trkpt>
      <trkpt lat="44.61312" lon="2.08396">
        <ele>394</ele>
        <time>2021-08-30T13:07:33Z</time>
      </trkpt>
      <trkpt lat="44.6131" lon="2.0828">
        <ele>391</ele>
        <time>2021-08-30T13:07:47Z</time>
      </trkpt>
      <trkpt lat="44.61319" lon="2.08057">
        <ele>381</ele>
        <time>2021-08-30T13:08:40Z</time>
      </trkpt>
      <trkpt lat="44.61319" lon="2.0802">
        <ele>376</ele>
        <time>2021-08-30T13:09:11Z</time>
      </trkpt>
      <trkpt lat="44.61311" lon="2.07992">
        <ele>374</ele>
        <time>2021-08-30T13:09:16Z</time>
      </trkpt>
      <trkpt lat="44.61299" lon="2.07968">
        <ele>375</ele>
        <time>2021-08-30T13:09:20Z</time>
      </trkpt>
      <trkpt lat="44.61283" lon="2.07945">
        <ele>376</ele>
        <time>2021-08-30T13:09:24Z</time>
      </trkpt>
      <trkpt lat="44.61259" lon="2.07923">
        <ele>377</ele>
        <time>2021-08-30T13:09:29Z</time>
      </trkpt>
      <trkpt lat="44.61236" lon="2.07915">
        <ele>377</ele>
        <time>2021-08-30T13:09:33Z</time>
      </trkpt>
      <trkpt lat="44.61212" lon="2.07918">
        <ele>377</ele>
        <time>2021-08-30T13:09:37Z</time>
      </trkpt>
      <trkpt lat="44.61128" lon="2.07942">
        <ele>375</ele>
        <time>2021-08-30T13:09:51Z</time>
      </trkpt>
      <trkpt lat="44.61115" lon="2.07939">
        <ele>375</ele>
        <time>2021-08-30T13:09:53Z</time>
      </trkpt>
      <trkpt lat="44.61108" lon="2.07935">
        <ele>375</ele>
        <time>2021-08-30T13:09:54Z</time>
      </trkpt>
      <trkpt lat="44.61096" lon="2.07922">
        <ele>375</ele>
        <time>2021-08-30T13:09:56Z</time>
      </trkpt>
      <trkpt lat="44.60939" lon="2.07654">
        <ele>367</ele>
        <time>2021-08-30T13:10:24Z</time>
      </trkpt>
      <trkpt lat="44.60878" lon="2.07447">
        <ele>361</ele>
        <time>2021-08-30T13:10:40Z</time>
      </trkpt>
      <trkpt lat="44.60864" lon="2.07425">
        <ele>360</ele>
        <time>2021-08-30T13:10:42Z</time>
      </trkpt>
      <trkpt lat="44.60839" lon="2.07407">
        <ele>358</ele>
        <time>2021-08-30T13:10:45Z</time>
      </trkpt>
      <trkpt lat="44.60666" lon="2.07327">
        <ele>351</ele>
        <time>2021-08-30T13:11:07Z</time>
      </trkpt>
      <trkpt lat="44.6065" lon="2.07309">
        <ele>351</ele>
        <time>2021-08-30T13:11:10Z</time>
      </trkpt>
      <trkpt lat="44.60623" lon="2.07253">
        <ele>351</ele>
        <time>2021-08-30T13:11:17Z</time>
      </trkpt>
      <trkpt lat="44.60561" lon="2.07075">
        <ele>345</ele>
        <time>2021-08-30T13:11:38Z</time>
      </trkpt>
      <trkpt lat="44.60559" lon="2.07057">
        <ele>345</ele>
        <time>2021-08-30T13:11:40Z</time>
      </trkpt>
      <trkpt lat="44.6056" lon="2.07027">
        <ele>345</ele>
        <time>2021-08-30T13:11:43Z</time>
      </trkpt>
      <trkpt lat="44.60575" lon="2.06977">
        <ele>344</ele>
        <time>2021-08-30T13:11:48Z</time>
      </trkpt>
      <trkpt lat="44.60617" lon="2.06871">
        <ele>339</ele>
        <time>2021-08-30T13:12:00Z</time>
      </trkpt>
      <trkpt lat="44.60626" lon="2.0679">
        <ele>335</ele>
        <time>2021-08-30T13:12:08Z</time>
      </trkpt>
      <trkpt lat="44.60625" lon="2.06757">
        <ele>332</ele>
        <time>2021-08-30T13:12:11Z</time>
      </trkpt>
      <trkpt lat="44.60615" lon="2.06722">
        <ele>330</ele>
        <time>2021-08-30T13:12:14Z</time>
      </trkpt>
      <trkpt lat="44.60551" lon="2.06554">
        <ele>317</ele>
        <time>2021-08-30T13:12:28Z</time>
      </trkpt>
      <trkpt lat="44.60512" lon="2.06485">
        <ele>311</ele>
        <time>2021-08-30T13:12:34Z</time>
      </trkpt>
      <trkpt lat="44.60488" lon="2.06414">
        <ele>306</ele>
        <time>2021-08-30T13:12:39Z</time>
      </trkpt>
      <trkpt lat="44.60473" lon="2.06315">
        <ele>298</ele>
        <time>2021-08-30T13:12:46Z</time>
      </trkpt>
      <trkpt lat="44.60473" lon="2.0623">
        <ele>291</ele>
        <time>2021-08-30T13:12:52Z</time>
      </trkpt>
      <trkpt lat="44.60491" lon="2.06133">
        <ele>287</ele>
        <time>2021-08-30T13:12:59Z</time>
      </trkpt>
      <trkpt lat="44.60518" lon="2.06014">
        <ele>279</ele>
        <time>2021-08-30T13:13:08Z</time>
      </trkpt>
      <trkpt lat="44.60519" lon="2.05868">
        <ele>268</ele>
        <time>2021-08-30T13:13:18Z</time>
      </trkpt>
      <trkpt lat="44.60575" lon="2.05632">
        <ele>251</ele>
        <time>2021-08-30T13:13:35Z</time>
      </trkpt>
      <trkpt lat="44.60576" lon="2.05605">
        <ele>249</ele>
        <time>2021-08-30T13:13:37Z</time>
      </trkpt>
      <trkpt lat="44.60574" lon="2.0558">
        <ele>248</ele>
        <time>2021-08-30T13:13:39Z</time>
      </trkpt>
      <trkpt lat="44.60567" lon="2.05558">
        <ele>246</ele>
        <time>2021-08-30T13:13:41Z</time>
      </trkpt>
      <trkpt lat="44.60555" lon="2.05538">
        <ele>244</ele>
        <time>2021-08-30T13:13:43Z</time>
      </trkpt>
      <trkpt lat="44.6051" lon="2.05491">
        <ele>240</ele>
        <time>2021-08-30T13:13:49Z</time>
      </trkpt>
      <trkpt lat="44.60485" lon="2.05446">
        <ele>240</ele>
        <time>2021-08-30T13:13:55Z</time>
      </trkpt>
      <trkpt lat="44.6048" lon="2.05431">
        <ele>240</ele>
        <time>2021-08-30T13:13:58Z</time>
      </trkpt>
      <trkpt lat="44.60475" lon="2.05426">
        <ele>239</ele>
        <time>2021-08-30T13:15:21Z</time>
      </trkpt>
      <trkpt lat="44.60458" lon="2.05367">
        <ele>238</ele>
        <time>2021-08-30T13:15:30Z</time>
      </trkpt>
      <trkpt lat="44.60457" lon="2.05358">
        <ele>238</ele>
        <time>2021-08-30T13:15:31Z</time>
      </trkpt>
      <trkpt lat="44.60457" lon="2.05348">
        <ele>238</ele>
        <time>2021-08-30T13:15:32Z</time>
      </trkpt>
      <trkpt lat="44.60458" lon="2.05337">
        <ele>239</ele>
        <time>2021-08-30T13:15:33Z</time>
      </trkpt>
      <trkpt lat="44.6046" lon="2.05328">
        <ele>240</ele>
        <time>2021-08-30T13:15:34Z</time>
      </trkpt>
      <trkpt lat="44.6047" lon="2.05314">
        <ele>243</ele>
        <time>2021-08-30T13:15:36Z</time>
      </trkpt>
      <trkpt lat="44.60481" lon="2.05307">
        <ele>244</ele>
        <time>2021-08-30T13:15:38Z</time>
      </trkpt>
      <trkpt lat="44.60615" lon="2.05269">
        <ele>246</ele>
        <time>2021-08-30T13:16:06Z</time>
      </trkpt>
      <trkpt lat="44.60619" lon="2.05266">
        <ele>245</ele>
        <time>2021-08-30T13:16:07Z</time>
      </trkpt>
      <trkpt lat="44.60654" lon="2.0522">
        <ele>244</ele>
        <time>2021-08-30T13:16:16Z</time>
      </trkpt>
      <trkpt lat="44.60663" lon="2.05213">
        <ele>245</ele>
        <time>2021-08-30T13:16:18Z</time>
      </trkpt>
      <trkpt lat="44.60675" lon="2.05212">
        <ele>245</ele>
        <time>2021-08-30T13:16:20Z</time>
      </trkpt>
      <trkpt lat="44.60736" lon="2.05222">
        <ele>244</ele>
        <time>2021-08-30T13:16:30Z</time>
      </trkpt>
      <trkpt lat="44.60755" lon="2.05218">
        <ele>243</ele>
        <time>2021-08-30T13:16:33Z</time>
      </trkpt>
      <trkpt lat="44.60767" lon="2.05213">
        <ele>242</ele>
        <time>2021-08-30T13:16:35Z</time>
      </trkpt>
      <trkpt lat="44.60777" lon="2.05204">
        <ele>242</ele>
        <time>2021-08-30T13:16:37Z</time>
      </trkpt>
      <trkpt lat="44.60785" lon="2.05192">
        <ele>241</ele>
        <time>2021-08-30T13:16:39Z</time>
      </trkpt>
      <trkpt lat="44.60787" lon="2.05184">
        <ele>241</ele>
        <time>2021-08-30T13:16:40Z</time>
      </trkpt>
      <trkpt lat="44.60789" lon="2.05164">
        <ele>240</ele>
        <time>2021-08-30T13:16:42Z</time>
      </trkpt>
      <trkpt lat="44.60788" lon="2.05152">
        <ele>240</ele>
        <time>2021-08-30T13:16:43Z</time>
      </trkpt>
      <trkpt lat="44.60787" lon="2.05142">
        <ele>241</ele>
        <time>2021-08-30T13:16:44Z</time>
      </trkpt>
      <trkpt lat="44.60784" lon="2.05131">
        <ele>241</ele>
        <time>2021-08-30T13:16:45Z</time>
      </trkpt>
      <trkpt lat="44.60729" lon="2.05067">
        <ele>241</ele>
        <time>2021-08-30T13:16:55Z</time>
      </trkpt>
      <trkpt lat="44.60723" lon="2.05046">
        <ele>240</ele>
        <time>2021-08-30T13:16:57Z</time>
      </trkpt>
      <trkpt lat="44.60723" lon="2.0499">
        <ele>238</ele>
        <time>2021-08-30T13:17:02Z</time>
      </trkpt>
      <trkpt lat="44.60705" lon="2.04915">
        <ele>234</ele>
        <time>2021-08-30T13:17:09Z</time>
      </trkpt>
      <trkpt lat="44.60686" lon="2.04865">
        <ele>230</ele>
        <time>2021-08-30T13:17:14Z</time>
      </trkpt>
      <trkpt lat="44.60684" lon="2.04852">
        <ele>228</ele>
        <time>2021-08-30T13:17:15Z</time>
      </trkpt>
      <trkpt lat="44.60686" lon="2.04825">
        <ele>228</ele>
        <time>2021-08-30T13:17:17Z</time>
      </trkpt>
      <trkpt lat="44.60695" lon="2.04787">
        <ele>227</ele>
        <time>2021-08-30T13:17:20Z</time>
      </trkpt>
      <trkpt lat="44.60701" lon="2.04703">
        <ele>218</ele>
        <time>2021-08-30T13:17:26Z</time>
      </trkpt>
      <trkpt lat="44.60712" lon="2.04661">
        <ele>215</ele>
        <time>2021-08-30T13:17:29Z</time>
      </trkpt>
      <trkpt lat="44.60714" lon="2.04632">
        <ele>213</ele>
        <time>2021-08-30T13:17:31Z</time>
      </trkpt>
      <trkpt lat="44.60707" lon="2.04404">
        <ele>199</ele>
        <time>2021-08-30T13:17:49Z</time>
      </trkpt>
      <trkpt lat="44.60705" lon="2.04395">
        <ele>197</ele>
        <time>2021-08-30T13:17:51Z</time>
      </trkpt>
      <trkpt lat="44.60702" lon="2.04387">
        <ele>197</ele>
        <time>2021-08-30T13:17:53Z</time>
      </trkpt>
      <trkpt lat="44.60692" lon="2.04353">
        <ele>190</ele>
        <time>2021-08-30T13:18:14Z</time>
      </trkpt>
      <trkpt lat="44.60688" lon="2.04341">
        <ele>189</ele>
        <time>2021-08-30T13:18:16Z</time>
      </trkpt>
      <trkpt lat="44.60688" lon="2.04324">
        <ele>189</ele>
        <time>2021-08-30T13:18:18Z</time>
      </trkpt>
      <trkpt lat="44.60692" lon="2.04307">
        <ele>189</ele>
        <time>2021-08-30T13:18:20Z</time>
      </trkpt>
      <trkpt lat="44.60701" lon="2.04291">
        <ele>188</ele>
        <time>2021-08-30T13:18:22Z</time>
      </trkpt>
      <trkpt lat="44.60705" lon="2.04284">
        <ele>186</ele>
        <time>2021-08-30T13:18:23Z</time>
      </trkpt>
      <trkpt lat="44.60709" lon="2.04245">
        <ele>182</ele>
        <time>2021-08-30T13:18:27Z</time>
      </trkpt>
      <trkpt lat="44.60711" lon="2.04237">
        <ele>182</ele>
        <time>2021-08-30T13:18:28Z</time>
      </trkpt>
      <trkpt lat="44.60714" lon="2.04232">
        <ele>183</ele>
        <time>2021-08-30T13:18:29Z</time>
      </trkpt>
      <trkpt lat="44.60718" lon="2.04228">
        <ele>183</ele>
        <time>2021-08-30T13:18:30Z</time>
      </trkpt>
      <trkpt lat="44.60776" lon="2.04205">
        <ele>181</ele>
        <time>2021-08-30T13:18:40Z</time>
      </trkpt>
      <trkpt lat="44.60803" lon="2.04196">
        <ele>182</ele>
        <time>2021-08-30T13:18:46Z</time>
      </trkpt>
      <trkpt lat="44.60808" lon="2.04194">
        <ele>182</ele>
        <time>2021-08-30T13:18:48Z</time>
      </trkpt>
      <trkpt lat="44.60813" lon="2.04194">
        <ele>182</ele>
        <time>2021-08-30T13:18:51Z</time>
      </trkpt>
      <trkpt lat="44.60818" lon="2.04199">
        <ele>183</ele>
        <time>2021-08-30T13:18:54Z</time>
      </trkpt>
      <trkpt lat="44.60823" lon="2.04201">
        <ele>183</ele>
        <time>2021-08-30T13:18:57Z</time>
      </trkpt>
      <trkpt lat="44.60822" lon="2.04188">
        <ele>185</ele>
        <time>2021-08-30T13:19:21Z</time>
      </trkpt>
      <trkpt lat="44.6082" lon="2.04193">
        <ele>189</ele>
        <time>2021-08-30T13:20:59Z</time>
      </trkpt>
      <trkpt lat="44.60822" lon="2.042">
        <ele>189</ele>
        <time>2021-08-30T13:21:03Z</time>
      </trkpt>
      <trkpt lat="44.60827" lon="2.04201">
        <ele>194</ele>
        <time>2021-08-30T13:21:07Z</time>
      </trkpt>
      <trkpt lat="44.60837" lon="2.04196">
        <ele>195</ele>
        <time>2021-08-30T13:21:11Z</time>
      </trkpt>
      <trkpt lat="44.60841" lon="2.0419">
        <ele>195</ele>
        <time>2021-08-30T13:21:14Z</time>
      </trkpt>
      <trkpt lat="44.60846" lon="2.04191">
        <ele>195</ele>
        <time>2021-08-30T13:21:20Z</time>
      </trkpt>
      <trkpt lat="44.60851" lon="2.04193">
        <ele>199</ele>
        <time>2021-08-30T13:22:19Z</time>
      </trkpt>
      <trkpt lat="44.60851" lon="2.04186">
        <ele>199</ele>
        <time>2021-08-30T13:22:25Z</time>
      </trkpt>
      <trkpt lat="44.60842" lon="2.04181">
        <ele>198</ele>
        <time>2021-08-30T13:22:31Z</time>
      </trkpt>
      <trkpt lat="44.60838" lon="2.04178">
        <ele>198</ele>
        <time>2021-08-30T13:22:35Z</time>
      </trkpt>
    </trkseg>
  </trk>
  <trk>
    <name><![CDATA[j5]]></name>
    <desc><![CDATA[comment ...]]></desc>
    <extensions>
      <line xmlns="http://www.topografix.com/GPX/gpx_style/0/2">
        <color>ff0080</color>
        <width>4</width>
      </line>
    </extensions>
    <trkseg>
      <trkpt lat="44.60857" lon="2.04178">
        <ele>195</ele>
        <time>2021-08-31T07:11:26Z</time>
      </trkpt>
      <trkpt lat="44.60857" lon="2.04178">
        <ele>196</ele>
        <time>2021-08-31T07:11:27Z</time>
      </trkpt>
      <trkpt lat="44.60853" lon="2.04181">
        <ele>203</ele>
        <time>2021-08-31T07:12:19Z</time>
      </trkpt>
      <trkpt lat="44.60853" lon="2.04189">
        <ele>208</ele>
        <time>2021-08-31T07:12:23Z</time>
      </trkpt>
      <trkpt lat="44.6085" lon="2.04195">
        <ele>207</ele>
        <time>2021-08-31T07:12:27Z</time>
      </trkpt>
      <trkpt lat="44.60846" lon="2.04198">
        <ele>207</ele>
        <time>2021-08-31T07:12:32Z</time>
      </trkpt>
      <trkpt lat="44.60842" lon="2.04198">
        <ele>207</ele>
        <time>2021-08-31T07:12:38Z</time>
      </trkpt>
      <trkpt lat="44.60832" lon="2.04201">
        <ele>205</ele>
        <time>2021-08-31T07:12:47Z</time>
      </trkpt>
      <trkpt lat="44.60826" lon="2.04202">
        <ele>204</ele>
        <time>2021-08-31T07:12:52Z</time>
      </trkpt>
      <trkpt lat="44.60825" lon="2.04195">
        <ele>204</ele>
        <time>2021-08-31T07:12:57Z</time>
      </trkpt>
      <trkpt lat="44.60818" lon="2.04186">
        <ele>205</ele>
        <time>2021-08-31T07:13:03Z</time>
      </trkpt>
      <trkpt lat="44.60814" lon="2.0418">
        <ele>206</ele>
        <time>2021-08-31T07:13:06Z</time>
      </trkpt>
      <trkpt lat="44.60814" lon="2.04173">
        <ele>207</ele>
        <time>2021-08-31T07:13:12Z</time>
      </trkpt>
      <trkpt lat="44.6081" lon="2.04176">
        <ele>203</ele>
        <time>2021-08-31T07:13:47Z</time>
      </trkpt>
      <trkpt lat="44.60806" lon="2.04179">
        <ele>202</ele>
        <time>2021-08-31T07:13:51Z</time>
      </trkpt>
      <trkpt lat="44.60807" lon="2.04187">
        <ele>202</ele>
        <time>2021-08-31T07:13:53Z</time>
      </trkpt>
      <trkpt lat="44.60805" lon="2.04194">
        <ele>201</ele>
        <time>2021-08-31T07:13:55Z</time>
      </trkpt>
      <trkpt lat="44.60799" lon="2.04196">
        <ele>202</ele>
        <time>2021-08-31T07:13:57Z</time>
      </trkpt>
      <trkpt lat="44.60793" lon="2.04197">
        <ele>202</ele>
        <time>2021-08-31T07:13:59Z</time>
      </trkpt>
      <trkpt lat="44.60745" lon="2.04213">
        <ele>205</ele>
        <time>2021-08-31T07:14:17Z</time>
      </trkpt>
      <trkpt lat="44.6074" lon="2.04216">
        <ele>205</ele>
        <time>2021-08-31T07:14:19Z</time>
      </trkpt>
      <trkpt lat="44.60729" lon="2.04217">
        <ele>204</ele>
        <time>2021-08-31T07:14:23Z</time>
      </trkpt>
      <trkpt lat="44.6072" lon="2.0422">
        <ele>204</ele>
        <time>2021-08-31T07:14:27Z</time>
      </trkpt>
      <trkpt lat="44.60712" lon="2.04222">
        <ele>203</ele>
        <time>2021-08-31T07:14:31Z</time>
      </trkpt>
      <trkpt lat="44.60707" lon="2.04208">
        <ele>204</ele>
        <time>2021-08-31T07:14:44Z</time>
      </trkpt>
      <trkpt lat="44.60708" lon="2.04192">
        <ele>204</ele>
        <time>2021-08-31T07:14:48Z</time>
      </trkpt>
      <trkpt lat="44.60708" lon="2.04175">
        <ele>204</ele>
        <time>2021-08-31T07:14:52Z</time>
      </trkpt>
      <trkpt lat="44.60691" lon="2.04036">
        <ele>196</ele>
        <time>2021-08-31T07:15:23Z</time>
      </trkpt>
      <trkpt lat="44.60689" lon="2.04019">
        <ele>197</ele>
        <time>2021-08-31T07:15:26Z</time>
      </trkpt>
      <trkpt lat="44.60688" lon="2.04003">
        <ele>197</ele>
        <time>2021-08-31T07:15:29Z</time>
      </trkpt>
      <trkpt lat="44.60681" lon="2.03947">
        <ele>196</ele>
        <time>2021-08-31T07:15:39Z</time>
      </trkpt>
      <trkpt lat="44.60681" lon="2.0394">
        <ele>196</ele>
        <time>2021-08-31T07:15:40Z</time>
      </trkpt>
      <trkpt lat="44.60664" lon="2.03794">
        <ele>192</ele>
        <time>2021-08-31T07:16:03Z</time>
      </trkpt>
      <trkpt lat="44.60651" lon="2.03652">
        <ele>193</ele>
        <time>2021-08-31T07:16:25Z</time>
      </trkpt>
      <trkpt lat="44.60626" lon="2.03446">
        <ele>193</ele>
        <time>2021-08-31T07:16:55Z</time>
      </trkpt>
      <trkpt lat="44.60624" lon="2.03434">
        <ele>193</ele>
        <time>2021-08-31T07:16:57Z</time>
      </trkpt>
      <trkpt lat="44.60624" lon="2.03424">
        <ele>192</ele>
        <time>2021-08-31T07:16:59Z</time>
      </trkpt>
      <trkpt lat="44.60629" lon="2.03418">
        <ele>192</ele>
        <time>2021-08-31T07:17:01Z</time>
      </trkpt>
      <trkpt lat="44.60634" lon="2.03412">
        <ele>192</ele>
        <time>2021-08-31T07:17:03Z</time>
      </trkpt>
      <trkpt lat="44.60638" lon="2.03407">
        <ele>191</ele>
        <time>2021-08-31T07:17:05Z</time>
      </trkpt>
      <trkpt lat="44.60655" lon="2.03403">
        <ele>190</ele>
        <time>2021-08-31T07:17:12Z</time>
      </trkpt>
      <trkpt lat="44.60655" lon="2.03398">
        <ele>191</ele>
        <time>2021-08-31T07:18:57Z</time>
      </trkpt>
      <trkpt lat="44.6065" lon="2.03396">
        <ele>192</ele>
        <time>2021-08-31T07:19:02Z</time>
      </trkpt>
      <trkpt lat="44.60652" lon="2.03368">
        <ele>191</ele>
        <time>2021-08-31T07:19:10Z</time>
      </trkpt>
      <trkpt lat="44.60654" lon="2.03341">
        <ele>188</ele>
        <time>2021-08-31T07:19:14Z</time>
      </trkpt>
      <trkpt lat="44.60657" lon="2.03283">
        <ele>191</ele>
        <time>2021-08-31T07:19:27Z</time>
      </trkpt>
      <trkpt lat="44.60666" lon="2.03231">
        <ele>192</ele>
        <time>2021-08-31T07:19:42Z</time>
      </trkpt>
      <trkpt lat="44.60674" lon="2.03173">
        <ele>189</ele>
        <time>2021-08-31T07:19:52Z</time>
      </trkpt>
      <trkpt lat="44.60677" lon="2.03162">
        <ele>189</ele>
        <time>2021-08-31T07:19:54Z</time>
      </trkpt>
      <trkpt lat="44.6068" lon="2.03151">
        <ele>191</ele>
        <time>2021-08-31T07:19:56Z</time>
      </trkpt>
      <trkpt lat="44.6068" lon="2.03128">
        <ele>189</ele>
        <time>2021-08-31T07:20:00Z</time>
      </trkpt>
      <trkpt lat="44.60681" lon="2.03117">
        <ele>189</ele>
        <time>2021-08-31T07:20:02Z</time>
      </trkpt>
      <trkpt lat="44.60681" lon="2.03108">
        <ele>189</ele>
        <time>2021-08-31T07:20:04Z</time>
      </trkpt>
      <trkpt lat="44.60676" lon="2.031">
        <ele>188</ele>
        <time>2021-08-31T07:20:06Z</time>
      </trkpt>
      <trkpt lat="44.60671" lon="2.03097">
        <ele>187</ele>
        <time>2021-08-31T07:20:09Z</time>
      </trkpt>
      <trkpt lat="44.60628" lon="2.03094">
        <ele>187</ele>
        <time>2021-08-31T07:20:23Z</time>
      </trkpt>
      <trkpt lat="44.60623" lon="2.0309">
        <ele>187</ele>
        <time>2021-08-31T07:20:25Z</time>
      </trkpt>
      <trkpt lat="44.60623" lon="2.03041">
        <ele>184</ele>
        <time>2021-08-31T07:20:35Z</time>
      </trkpt>
      <trkpt lat="44.60626" lon="2.03022">
        <ele>185</ele>
        <time>2021-08-31T07:20:39Z</time>
      </trkpt>
      <trkpt lat="44.60635" lon="2.02996">
        <ele>185</ele>
        <time>2021-08-31T07:20:45Z</time>
      </trkpt>
      <trkpt lat="44.60638" lon="2.02982">
        <ele>185</ele>
        <time>2021-08-31T07:20:50Z</time>
      </trkpt>
      <trkpt lat="44.60641" lon="2.02975">
        <ele>185</ele>
        <time>2021-08-31T07:20:55Z</time>
      </trkpt>
      <trkpt lat="44.60658" lon="2.02984">
        <ele>185</ele>
        <time>2021-08-31T07:21:01Z</time>
      </trkpt>
      <trkpt lat="44.60663" lon="2.02982">
        <ele>185</ele>
        <time>2021-08-31T07:21:03Z</time>
      </trkpt>
      <trkpt lat="44.60668" lon="2.0298">
        <ele>186</ele>
        <time>2021-08-31T07:21:07Z</time>
      </trkpt>
      <trkpt lat="44.6067" lon="2.02965">
        <ele>186</ele>
        <time>2021-08-31T07:21:12Z</time>
      </trkpt>
      <trkpt lat="44.60689" lon="2.02851">
        <ele>190</ele>
        <time>2021-08-31T07:21:40Z</time>
      </trkpt>
      <trkpt lat="44.60695" lon="2.02805">
        <ele>191</ele>
        <time>2021-08-31T07:21:50Z</time>
      </trkpt>
      <trkpt lat="44.60696" lon="2.02788">
        <ele>192</ele>
        <time>2021-08-31T07:21:54Z</time>
      </trkpt>
      <trkpt lat="44.60701" lon="2.02721">
        <ele>191</ele>
        <time>2021-08-31T07:22:08Z</time>
      </trkpt>
      <trkpt lat="44.60706" lon="2.02675">
        <ele>190</ele>
        <time>2021-08-31T07:22:18Z</time>
      </trkpt>
      <trkpt lat="44.607" lon="2.02623">
        <ele>187</ele>
        <time>2021-08-31T07:22:30Z</time>
      </trkpt>
      <trkpt lat="44.60701" lon="2.02617">
        <ele>188</ele>
        <time>2021-08-31T07:23:45Z</time>
      </trkpt>
      <trkpt lat="44.60699" lon="2.0261">
        <ele>188</ele>
        <time>2021-08-31T07:23:48Z</time>
      </trkpt>
      <trkpt lat="44.60693" lon="2.02605">
        <ele>188</ele>
        <time>2021-08-31T07:23:51Z</time>
      </trkpt>
      <trkpt lat="44.60688" lon="2.026">
        <ele>187</ele>
        <time>2021-08-31T07:23:53Z</time>
      </trkpt>
      <trkpt lat="44.60683" lon="2.02582">
        <ele>187</ele>
        <time>2021-08-31T07:23:56Z</time>
      </trkpt>
      <trkpt lat="44.60673" lon="2.02378">
        <ele>190</ele>
        <time>2021-08-31T07:24:26Z</time>
      </trkpt>
      <trkpt lat="44.60633" lon="2.02224">
        <ele>185</ele>
        <time>2021-08-31T07:24:52Z</time>
      </trkpt>
      <trkpt lat="44.60567" lon="2.02087">
        <ele>182</ele>
        <time>2021-08-31T07:25:25Z</time>
      </trkpt>
      <trkpt lat="44.60563" lon="2.02081">
        <ele>180</ele>
        <time>2021-08-31T07:26:14Z</time>
      </trkpt>
      <trkpt lat="44.60453" lon="2.02012">
        <ele>181</ele>
        <time>2021-08-31T07:26:44Z</time>
      </trkpt>
      <trkpt lat="44.60433" lon="2.01999">
        <ele>181</ele>
        <time>2021-08-31T07:26:49Z</time>
      </trkpt>
      <trkpt lat="44.6039" lon="2.01913">
        <ele>178</ele>
        <time>2021-08-31T07:27:07Z</time>
      </trkpt>
      <trkpt lat="44.60381" lon="2.01899">
        <ele>178</ele>
        <time>2021-08-31T07:27:10Z</time>
      </trkpt>
      <trkpt lat="44.60373" lon="2.01893">
        <ele>179</ele>
        <time>2021-08-31T07:27:12Z</time>
      </trkpt>
      <trkpt lat="44.6036" lon="2.0189">
        <ele>179</ele>
        <time>2021-08-31T07:27:15Z</time>
      </trkpt>
      <trkpt lat="44.6028" lon="2.01905">
        <ele>186</ele>
        <time>2021-08-31T07:27:36Z</time>
      </trkpt>
      <trkpt lat="44.60265" lon="2.01902">
        <ele>187</ele>
        <time>2021-08-31T07:27:40Z</time>
      </trkpt>
      <trkpt lat="44.60245" lon="2.01891">
        <ele>190</ele>
        <time>2021-08-31T07:27:46Z</time>
      </trkpt>
      <trkpt lat="44.60162" lon="2.01805">
        <ele>186</ele>
        <time>2021-08-31T07:28:18Z</time>
      </trkpt>
      <trkpt lat="44.60121" lon="2.01765">
        <ele>182</ele>
        <time>2021-08-31T07:28:32Z</time>
      </trkpt>
      <trkpt lat="44.60056" lon="2.01716">
        <ele>181</ele>
        <time>2021-08-31T07:28:47Z</time>
      </trkpt>
      <trkpt lat="44.59986" lon="2.01625">
        <ele>175</ele>
        <time>2021-08-31T07:29:08Z</time>
      </trkpt>
      <trkpt lat="44.59971" lon="2.0159">
        <ele>173</ele>
        <time>2021-08-31T07:29:14Z</time>
      </trkpt>
      <trkpt lat="44.59948" lon="2.01538">
        <ele>171</ele>
        <time>2021-08-31T07:29:22Z</time>
      </trkpt>
      <trkpt lat="44.59825" lon="2.01327">
        <ele>168</ele>
        <time>2021-08-31T07:29:53Z</time>
      </trkpt>
      <trkpt lat="44.59739" lon="2.01128">
        <ele>176</ele>
        <time>2021-08-31T07:30:23Z</time>
      </trkpt>
      <trkpt lat="44.59642" lon="2.00917">
        <ele>179</ele>
        <time>2021-08-31T07:30:54Z</time>
      </trkpt>
      <trkpt lat="44.59544" lon="2.00699">
        <ele>181</ele>
        <time>2021-08-31T07:31:24Z</time>
      </trkpt>
      <trkpt lat="44.59524" lon="2.00663">
        <ele>181</ele>
        <time>2021-08-31T07:31:30Z</time>
      </trkpt>
      <trkpt lat="44.59501" lon="2.00634">
        <ele>180</ele>
        <time>2021-08-31T07:31:35Z</time>
      </trkpt>
      <trkpt lat="44.59353" lon="2.00488">
        <ele>174</ele>
        <time>2021-08-31T07:32:05Z</time>
      </trkpt>
      <trkpt lat="44.59241" lon="2.00317">
        <ele>177</ele>
        <time>2021-08-31T07:32:36Z</time>
      </trkpt>
      <trkpt lat="44.5915" lon="2.00142">
        <ele>180</ele>
        <time>2021-08-31T07:33:06Z</time>
      </trkpt>
      <trkpt lat="44.59085" lon="2.0002">
        <ele>187</ele>
        <time>2021-08-31T07:33:32Z</time>
      </trkpt>
      <trkpt lat="44.59046" lon="1.99976">
        <ele>189</ele>
        <time>2021-08-31T07:33:48Z</time>
      </trkpt>
      <trkpt lat="44.59001" lon="1.99937">
        <ele>188</ele>
        <time>2021-08-31T07:34:01Z</time>
      </trkpt>
      <trkpt lat="44.58884" lon="1.99803">
        <ele>192</ele>
        <time>2021-08-31T07:34:32Z</time>
      </trkpt>
      <trkpt lat="44.58796" lon="1.99704">
        <ele>197</ele>
        <time>2021-08-31T07:35:02Z</time>
      </trkpt>
      <trkpt lat="44.58781" lon="1.99678">
        <ele>197</ele>
        <time>2021-08-31T07:35:08Z</time>
      </trkpt>
      <trkpt lat="44.58771" lon="1.99647">
        <ele>197</ele>
        <time>2021-08-31T07:35:14Z</time>
      </trkpt>
      <trkpt lat="44.58767" lon="1.99615">
        <ele>197</ele>
        <time>2021-08-31T07:35:19Z</time>
      </trkpt>
      <trkpt lat="44.58767" lon="1.99582">
        <ele>197</ele>
        <time>2021-08-31T07:35:24Z</time>
      </trkpt>
      <trkpt lat="44.58774" lon="1.99548">
        <ele>196</ele>
        <time>2021-08-31T07:35:29Z</time>
      </trkpt>
      <trkpt lat="44.58798" lon="1.99467">
        <ele>193</ele>
        <time>2021-08-31T07:35:39Z</time>
      </trkpt>
      <trkpt lat="44.58802" lon="1.99426">
        <ele>192</ele>
        <time>2021-08-31T07:35:43Z</time>
      </trkpt>
      <trkpt lat="44.58797" lon="1.99382">
        <ele>190</ele>
        <time>2021-08-31T07:35:47Z</time>
      </trkpt>
      <trkpt lat="44.58729" lon="1.99098">
        <ele>190</ele>
        <time>2021-08-31T07:36:18Z</time>
      </trkpt>
      <trkpt lat="44.58717" lon="1.99004">
        <ele>189</ele>
        <time>2021-08-31T07:36:35Z</time>
      </trkpt>
      <trkpt lat="44.58716" lon="1.98996">
        <ele>189</ele>
        <time>2021-08-31T07:36:37Z</time>
      </trkpt>
      <trkpt lat="44.58716" lon="1.98988">
        <ele>189</ele>
        <time>2021-08-31T07:36:39Z</time>
      </trkpt>
      <trkpt lat="44.58717" lon="1.98979">
        <ele>190</ele>
        <time>2021-08-31T07:36:41Z</time>
      </trkpt>
      <trkpt lat="44.58715" lon="1.98751">
        <ele>190</ele>
        <time>2021-08-31T07:37:12Z</time>
      </trkpt>
      <trkpt lat="44.58721" lon="1.98711">
        <ele>189</ele>
        <time>2021-08-31T07:37:16Z</time>
      </trkpt>
      <trkpt lat="44.58743" lon="1.98658">
        <ele>188</ele>
        <time>2021-08-31T07:37:21Z</time>
      </trkpt>
      <trkpt lat="44.58839" lon="1.98464">
        <ele>180</ele>
        <time>2021-08-31T07:37:44Z</time>
      </trkpt>
      <trkpt lat="44.58843" lon="1.98459">
        <ele>181</ele>
        <time>2021-08-31T07:37:45Z</time>
      </trkpt>
      <trkpt lat="44.58849" lon="1.98453">
        <ele>182</ele>
        <time>2021-08-31T07:37:47Z</time>
      </trkpt>
      <trkpt lat="44.58859" lon="1.9845">
        <ele>184</ele>
        <time>2021-08-31T07:39:13Z</time>
      </trkpt>
      <trkpt lat="44.58858" lon="1.98442">
        <ele>185</ele>
        <time>2021-08-31T07:39:18Z</time>
      </trkpt>
      <trkpt lat="44.58866" lon="1.98425">
        <ele>185</ele>
        <time>2021-08-31T07:39:22Z</time>
      </trkpt>
      <trkpt lat="44.58873" lon="1.98395">
        <ele>185</ele>
        <time>2021-08-31T07:39:27Z</time>
      </trkpt>
      <trkpt lat="44.58886" lon="1.98157">
        <ele>186</ele>
        <time>2021-08-31T07:39:58Z</time>
      </trkpt>
      <trkpt lat="44.58884" lon="1.98073">
        <ele>185</ele>
        <time>2021-08-31T07:40:09Z</time>
      </trkpt>
      <trkpt lat="44.58864" lon="1.97846">
        <ele>186</ele>
        <time>2021-08-31T07:40:39Z</time>
      </trkpt>
      <trkpt lat="44.58859" lon="1.97806">
        <ele>186</ele>
        <time>2021-08-31T07:40:45Z</time>
      </trkpt>
      <trkpt lat="44.5884" lon="1.97731">
        <ele>188</ele>
        <time>2021-08-31T07:40:59Z</time>
      </trkpt>
      <trkpt lat="44.58805" lon="1.97539">
        <ele>188</ele>
        <time>2021-08-31T07:41:29Z</time>
      </trkpt>
      <trkpt lat="44.58753" lon="1.97317">
        <ele>186</ele>
        <time>2021-08-31T07:42:00Z</time>
      </trkpt>
      <trkpt lat="44.58686" lon="1.97118">
        <ele>183</ele>
        <time>2021-08-31T07:42:30Z</time>
      </trkpt>
      <trkpt lat="44.58644" lon="1.96892">
        <ele>185</ele>
        <time>2021-08-31T07:43:01Z</time>
      </trkpt>
      <trkpt lat="44.58595" lon="1.96684">
        <ele>185</ele>
        <time>2021-08-31T07:43:33Z</time>
      </trkpt>
      <trkpt lat="44.5857" lon="1.96528">
        <ele>190</ele>
        <time>2021-08-31T07:43:59Z</time>
      </trkpt>
      <trkpt lat="44.58569" lon="1.96521">
        <ele>191</ele>
        <time>2021-08-31T07:44:01Z</time>
      </trkpt>
      <trkpt lat="44.5857" lon="1.96513">
        <ele>191</ele>
        <time>2021-08-31T07:44:04Z</time>
      </trkpt>
      <trkpt lat="44.58575" lon="1.96507">
        <ele>191</ele>
        <time>2021-08-31T07:44:37Z</time>
      </trkpt>
      <trkpt lat="44.58588" lon="1.96495">
        <ele>189</ele>
        <time>2021-08-31T07:44:41Z</time>
      </trkpt>
      <trkpt lat="44.58599" lon="1.96476">
        <ele>188</ele>
        <time>2021-08-31T07:44:44Z</time>
      </trkpt>
      <trkpt lat="44.58623" lon="1.96404">
        <ele>184</ele>
        <time>2021-08-31T07:44:52Z</time>
      </trkpt>
      <trkpt lat="44.58632" lon="1.96392">
        <ele>182</ele>
        <time>2021-08-31T07:44:54Z</time>
      </trkpt>
      <trkpt lat="44.58644" lon="1.96384">
        <ele>182</ele>
        <time>2021-08-31T07:44:56Z</time>
      </trkpt>
      <trkpt lat="44.58778" lon="1.96344">
        <ele>179</ele>
        <time>2021-08-31T07:45:16Z</time>
      </trkpt>
      <trkpt lat="44.58919" lon="1.96249">
        <ele>180</ele>
        <time>2021-08-31T07:45:47Z</time>
      </trkpt>
      <trkpt lat="44.5902" lon="1.96177">
        <ele>180</ele>
        <time>2021-08-31T07:46:17Z</time>
      </trkpt>
      <trkpt lat="44.59099" lon="1.96117">
        <ele>180</ele>
        <time>2021-08-31T07:46:37Z</time>
      </trkpt>
      <trkpt lat="44.59118" lon="1.96101">
        <ele>180</ele>
        <time>2021-08-31T07:46:43Z</time>
      </trkpt>
      <trkpt lat="44.59123" lon="1.96097">
        <ele>181</ele>
        <time>2021-08-31T07:46:46Z</time>
      </trkpt>
      <trkpt lat="44.59128" lon="1.9609">
        <ele>180</ele>
        <time>2021-08-31T07:46:48Z</time>
      </trkpt>
      <trkpt lat="44.59128" lon="1.96082">
        <ele>180</ele>
        <time>2021-08-31T07:46:50Z</time>
      </trkpt>
      <trkpt lat="44.59124" lon="1.959">
        <ele>179</ele>
        <time>2021-08-31T07:47:21Z</time>
      </trkpt>
      <trkpt lat="44.59117" lon="1.9568">
        <ele>177</ele>
        <time>2021-08-31T07:47:51Z</time>
      </trkpt>
      <trkpt lat="44.59151" lon="1.95464">
        <ele>177</ele>
        <time>2021-08-31T07:48:21Z</time>
      </trkpt>
      <trkpt lat="44.59189" lon="1.9524">
        <ele>181</ele>
        <time>2021-08-31T07:48:51Z</time>
      </trkpt>
      <trkpt lat="44.59254" lon="1.95015">
        <ele>180</ele>
        <time>2021-08-31T07:49:22Z</time>
      </trkpt>
      <trkpt lat="44.59316" lon="1.9481">
        <ele>178</ele>
        <time>2021-08-31T07:49:52Z</time>
      </trkpt>
      <trkpt lat="44.59349" lon="1.94587">
        <ele>176</ele>
        <time>2021-08-31T07:50:22Z</time>
      </trkpt>
      <trkpt lat="44.59376" lon="1.94485">
        <ele>175</ele>
        <time>2021-08-31T07:50:36Z</time>
      </trkpt>
      <trkpt lat="44.5945" lon="1.94273">
        <ele>176</ele>
        <time>2021-08-31T07:51:06Z</time>
      </trkpt>
      <trkpt lat="44.59525" lon="1.94064">
        <ele>168</ele>
        <time>2021-08-31T07:51:37Z</time>
      </trkpt>
      <trkpt lat="44.59581" lon="1.93887">
        <ele>166</ele>
        <time>2021-08-31T07:52:03Z</time>
      </trkpt>
      <trkpt lat="44.59606" lon="1.93768">
        <ele>160</ele>
        <time>2021-08-31T07:52:20Z</time>
      </trkpt>
      <trkpt lat="44.59689" lon="1.93591">
        <ele>166</ele>
        <time>2021-08-31T07:52:48Z</time>
      </trkpt>
      <trkpt lat="44.59805" lon="1.93419">
        <ele>170</ele>
        <time>2021-08-31T07:53:19Z</time>
      </trkpt>
      <trkpt lat="44.59924" lon="1.93258">
        <ele>172</ele>
        <time>2021-08-31T07:53:49Z</time>
      </trkpt>
      <trkpt lat="44.60005" lon="1.93053">
        <ele>174</ele>
        <time>2021-08-31T07:54:19Z</time>
      </trkpt>
      <trkpt lat="44.60085" lon="1.9284">
        <ele>177</ele>
        <time>2021-08-31T07:54:50Z</time>
      </trkpt>
      <trkpt lat="44.60134" lon="1.92681">
        <ele>178</ele>
        <time>2021-08-31T07:55:12Z</time>
      </trkpt>
      <trkpt lat="44.60174" lon="1.92477">
        <ele>178</ele>
        <time>2021-08-31T07:55:42Z</time>
      </trkpt>
      <trkpt lat="44.60183" lon="1.924">
        <ele>177</ele>
        <time>2021-08-31T07:55:54Z</time>
      </trkpt>
      <trkpt lat="44.60175" lon="1.92207">
        <ele>175</ele>
        <time>2021-08-31T07:56:24Z</time>
      </trkpt>
      <trkpt lat="44.60155" lon="1.91987">
        <ele>175</ele>
        <time>2021-08-31T07:56:53Z</time>
      </trkpt>
      <trkpt lat="44.60143" lon="1.91946">
        <ele>174</ele>
        <time>2021-08-31T07:56:59Z</time>
      </trkpt>
      <trkpt lat="44.60084" lon="1.91833">
        <ele>177</ele>
        <time>2021-08-31T07:57:17Z</time>
      </trkpt>
      <trkpt lat="44.60072" lon="1.91819">
        <ele>177</ele>
        <time>2021-08-31T07:57:20Z</time>
      </trkpt>
      <trkpt lat="44.60026" lon="1.91786">
        <ele>175</ele>
        <time>2021-08-31T07:57:30Z</time>
      </trkpt>
      <trkpt lat="44.59935" lon="1.9174">
        <ele>173</ele>
        <time>2021-08-31T07:57:56Z</time>
      </trkpt>
      <trkpt lat="44.59906" lon="1.91715">
        <ele>172</ele>
        <time>2021-08-31T07:58:04Z</time>
      </trkpt>
      <trkpt lat="44.59824" lon="1.91572">
        <ele>174</ele>
        <time>2021-08-31T07:58:32Z</time>
      </trkpt>
      <trkpt lat="44.59816" lon="1.91545">
        <ele>175</ele>
        <time>2021-08-31T07:58:36Z</time>
      </trkpt>
      <trkpt lat="44.59811" lon="1.91509">
        <ele>176</ele>
        <time>2021-08-31T07:58:41Z</time>
      </trkpt>
      <trkpt lat="44.59814" lon="1.91489">
        <ele>174</ele>
        <time>2021-08-31T07:58:44Z</time>
      </trkpt>
      <trkpt lat="44.59843" lon="1.91279">
        <ele>158</ele>
        <time>2021-08-31T07:59:14Z</time>
      </trkpt>
      <trkpt lat="44.59867" lon="1.91054">
        <ele>156</ele>
        <time>2021-08-31T07:59:45Z</time>
      </trkpt>
      <trkpt lat="44.59885" lon="1.9099">
        <ele>160</ele>
        <time>2021-08-31T07:59:54Z</time>
      </trkpt>
      <trkpt lat="44.59966" lon="1.90816">
        <ele>172</ele>
        <time>2021-08-31T08:00:22Z</time>
      </trkpt>
      <trkpt lat="44.59994" lon="1.90782">
        <ele>173</ele>
        <time>2021-08-31T08:00:29Z</time>
      </trkpt>
      <trkpt lat="44.60145" lon="1.90681">
        <ele>175</ele>
        <time>2021-08-31T08:01:00Z</time>
      </trkpt>
      <trkpt lat="44.60303" lon="1.9058">
        <ele>171</ele>
        <time>2021-08-31T08:01:31Z</time>
      </trkpt>
      <trkpt lat="44.60339" lon="1.90562">
        <ele>172</ele>
        <time>2021-08-31T08:01:38Z</time>
      </trkpt>
      <trkpt lat="44.60385" lon="1.90556">
        <ele>171</ele>
        <time>2021-08-31T08:01:47Z</time>
      </trkpt>
      <trkpt lat="44.60431" lon="1.90561">
        <ele>171</ele>
        <time>2021-08-31T08:01:55Z</time>
      </trkpt>
      <trkpt lat="44.60597" lon="1.90633">
        <ele>169</ele>
        <time>2021-08-31T08:02:26Z</time>
      </trkpt>
      <trkpt lat="44.60749" lon="1.90701">
        <ele>165</ele>
        <time>2021-08-31T08:02:56Z</time>
      </trkpt>
      <trkpt lat="44.60849" lon="1.90724">
        <ele>164</ele>
        <time>2021-08-31T08:03:14Z</time>
      </trkpt>
      <trkpt lat="44.6087" lon="1.90725">
        <ele>164</ele>
        <time>2021-08-31T08:03:18Z</time>
      </trkpt>
      <trkpt lat="44.60909" lon="1.90719">
        <ele>162</ele>
        <time>2021-08-31T08:03:26Z</time>
      </trkpt>
      <trkpt lat="44.60959" lon="1.90682">
        <ele>157</ele>
        <time>2021-08-31T08:03:37Z</time>
      </trkpt>
      <trkpt lat="44.60976" lon="1.90662">
        <ele>156</ele>
        <time>2021-08-31T08:03:41Z</time>
      </trkpt>
      <trkpt lat="44.6099" lon="1.90635">
        <ele>155</ele>
        <time>2021-08-31T08:03:45Z</time>
      </trkpt>
      <trkpt lat="44.61008" lon="1.90564">
        <ele>155</ele>
        <time>2021-08-31T08:03:55Z</time>
      </trkpt>
      <trkpt lat="44.61014" lon="1.90491">
        <ele>153</ele>
        <time>2021-08-31T08:04:05Z</time>
      </trkpt>
      <trkpt lat="44.6101" lon="1.9045">
        <ele>151</ele>
        <time>2021-08-31T08:04:11Z</time>
      </trkpt>
      <trkpt lat="44.60986" lon="1.90381">
        <ele>146</ele>
        <time>2021-08-31T08:04:22Z</time>
      </trkpt>
      <trkpt lat="44.60963" lon="1.90341">
        <ele>150</ele>
        <time>2021-08-31T08:04:28Z</time>
      </trkpt>
      <trkpt lat="44.60889" lon="1.90214">
        <ele>155</ele>
        <time>2021-08-31T08:04:53Z</time>
      </trkpt>
      <trkpt lat="44.60882" lon="1.90208">
        <ele>154</ele>
        <time>2021-08-31T08:04:55Z</time>
      </trkpt>
      <trkpt lat="44.60859" lon="1.9018">
        <ele>154</ele>
        <time>2021-08-31T08:05:04Z</time>
      </trkpt>
      <trkpt lat="44.60853" lon="1.90175">
        <ele>151</ele>
        <time>2021-08-31T08:05:08Z</time>
      </trkpt>
      <trkpt lat="44.60855" lon="1.90167">
        <ele>150</ele>
        <time>2021-08-31T08:06:18Z</time>
      </trkpt>
      <trkpt lat="44.60855" lon="1.90153">
        <ele>149</ele>
        <time>2021-08-31T08:06:34Z</time>
      </trkpt>
      <trkpt lat="44.60849" lon="1.90153">
        <ele>149</ele>
        <time>2021-08-31T08:06:41Z</time>
      </trkpt>
      <trkpt lat="44.60845" lon="1.90149">
        <ele>153</ele>
        <time>2021-08-31T08:07:05Z</time>
      </trkpt>
      <trkpt lat="44.6084" lon="1.90151">
        <ele>156</ele>
        <time>2021-08-31T08:07:08Z</time>
      </trkpt>
      <trkpt lat="44.60785" lon="1.90108">
        <ele>161</ele>
        <time>2021-08-31T08:07:32Z</time>
      </trkpt>
      <trkpt lat="44.6078" lon="1.90105">
        <ele>160</ele>
        <time>2021-08-31T08:07:34Z</time>
      </trkpt>
      <trkpt lat="44.60776" lon="1.90102">
        <ele>160</ele>
        <time>2021-08-31T08:07:36Z</time>
      </trkpt>
      <trkpt lat="44.60772" lon="1.90095">
        <ele>161</ele>
        <time>2021-08-31T08:07:39Z</time>
      </trkpt>
      <trkpt lat="44.60767" lon="1.9009">
        <ele>161</ele>
        <time>2021-08-31T08:07:42Z</time>
      </trkpt>
      <trkpt lat="44.60763" lon="1.90085">
        <ele>162</ele>
        <time>2021-08-31T08:07:45Z</time>
      </trkpt>
      <trkpt lat="44.60759" lon="1.90081">
        <ele>162</ele>
        <time>2021-08-31T08:07:48Z</time>
      </trkpt>
      <trkpt lat="44.60756" lon="1.90075">
        <ele>162</ele>
        <time>2021-08-31T08:07:51Z</time>
      </trkpt>
      <trkpt lat="44.60751" lon="1.90062">
        <ele>161</ele>
        <time>2021-08-31T08:07:55Z</time>
      </trkpt>
      <trkpt lat="44.60747" lon="1.90045">
        <ele>161</ele>
        <time>2021-08-31T08:07:59Z</time>
      </trkpt>
      <trkpt lat="44.60736" lon="1.90005">
        <ele>158</ele>
        <time>2021-08-31T08:08:09Z</time>
      </trkpt>
      <trkpt lat="44.60734" lon="1.89996">
        <ele>158</ele>
        <time>2021-08-31T08:08:11Z</time>
      </trkpt>
      <trkpt lat="44.60732" lon="1.89986">
        <ele>159</ele>
        <time>2021-08-31T08:08:13Z</time>
      </trkpt>
      <trkpt lat="44.60729" lon="1.89979">
        <ele>159</ele>
        <time>2021-08-31T08:08:15Z</time>
      </trkpt>
      <trkpt lat="44.60727" lon="1.89969">
        <ele>160</ele>
        <time>2021-08-31T08:08:17Z</time>
      </trkpt>
      <trkpt lat="44.60717" lon="1.89931">
        <ele>162</ele>
        <time>2021-08-31T08:08:27Z</time>
      </trkpt>
      <trkpt lat="44.60715" lon="1.89918">
        <ele>162</ele>
        <time>2021-08-31T08:08:31Z</time>
      </trkpt>
      <trkpt lat="44.60713" lon="1.89912">
        <ele>162</ele>
        <time>2021-08-31T08:08:33Z</time>
      </trkpt>
      <trkpt lat="44.60698" lon="1.89861">
        <ele>163</ele>
        <time>2021-08-31T08:08:45Z</time>
      </trkpt>
      <trkpt lat="44.60664" lon="1.89723">
        <ele>163</ele>
        <time>2021-08-31T08:09:11Z</time>
      </trkpt>
      <trkpt lat="44.60648" lon="1.89562">
        <ele>165</ele>
        <time>2021-08-31T08:09:37Z</time>
      </trkpt>
      <trkpt lat="44.60649" lon="1.89472">
        <ele>165</ele>
        <time>2021-08-31T08:09:51Z</time>
      </trkpt>
      <trkpt lat="44.60668" lon="1.89371">
        <ele>167</ele>
        <time>2021-08-31T08:10:06Z</time>
      </trkpt>
      <trkpt lat="44.60683" lon="1.89332">
        <ele>168</ele>
        <time>2021-08-31T08:10:12Z</time>
      </trkpt>
      <trkpt lat="44.60722" lon="1.89281">
        <ele>169</ele>
        <time>2021-08-31T08:10:23Z</time>
      </trkpt>
      <trkpt lat="44.60847" lon="1.89169">
        <ele>168</ele>
        <time>2021-08-31T08:10:54Z</time>
      </trkpt>
      <trkpt lat="44.60896" lon="1.89126">
        <ele>166</ele>
        <time>2021-08-31T08:11:06Z</time>
      </trkpt>
      <trkpt lat="44.60943" lon="1.89049">
        <ele>169</ele>
        <time>2021-08-31T08:11:20Z</time>
      </trkpt>
      <trkpt lat="44.60963" lon="1.88988">
        <ele>170</ele>
        <time>2021-08-31T08:11:29Z</time>
      </trkpt>
      <trkpt lat="44.60972" lon="1.8893">
        <ele>171</ele>
        <time>2021-08-31T08:11:37Z</time>
      </trkpt>
      <trkpt lat="44.60973" lon="1.88893">
        <ele>171</ele>
        <time>2021-08-31T08:11:42Z</time>
      </trkpt>
      <trkpt lat="44.6095" lon="1.8876">
        <ele>173</ele>
        <time>2021-08-31T08:12:01Z</time>
      </trkpt>
      <trkpt lat="44.60921" lon="1.88657">
        <ele>170</ele>
        <time>2021-08-31T08:12:16Z</time>
      </trkpt>
      <trkpt lat="44.60875" lon="1.88575">
        <ele>166</ele>
        <time>2021-08-31T08:12:30Z</time>
      </trkpt>
      <trkpt lat="44.60811" lon="1.88503">
        <ele>168</ele>
        <time>2021-08-31T08:12:45Z</time>
      </trkpt>
      <trkpt lat="44.60668" lon="1.88411">
        <ele>164</ele>
        <time>2021-08-31T08:13:15Z</time>
      </trkpt>
      <trkpt lat="44.60592" lon="1.88369">
        <ele>153</ele>
        <time>2021-08-31T08:13:31Z</time>
      </trkpt>
      <trkpt lat="44.60474" lon="1.88325">
        <ele>147</ele>
        <time>2021-08-31T08:13:54Z</time>
      </trkpt>
      <trkpt lat="44.60318" lon="1.88239">
        <ele>146</ele>
        <time>2021-08-31T08:14:26Z</time>
      </trkpt>
      <trkpt lat="44.60187" lon="1.88146">
        <ele>145</ele>
        <time>2021-08-31T08:14:54Z</time>
      </trkpt>
      <trkpt lat="44.60061" lon="1.8801">
        <ele>152</ele>
        <time>2021-08-31T08:15:25Z</time>
      </trkpt>
      <trkpt lat="44.60037" lon="1.87973">
        <ele>152</ele>
        <time>2021-08-31T08:15:32Z</time>
      </trkpt>
      <trkpt lat="44.60023" lon="1.87938">
        <ele>151</ele>
        <time>2021-08-31T08:15:37Z</time>
      </trkpt>
      <trkpt lat="44.59998" lon="1.87858">
        <ele>153</ele>
        <time>2021-08-31T08:15:49Z</time>
      </trkpt>
      <trkpt lat="44.59985" lon="1.87826">
        <ele>153</ele>
        <time>2021-08-31T08:15:54Z</time>
      </trkpt>
      <trkpt lat="44.59967" lon="1.87799">
        <ele>153</ele>
        <time>2021-08-31T08:15:59Z</time>
      </trkpt>
      <trkpt lat="44.59925" lon="1.87756">
        <ele>158</ele>
        <time>2021-08-31T08:16:09Z</time>
      </trkpt>
      <trkpt lat="44.59895" lon="1.87729">
        <ele>159</ele>
        <time>2021-08-31T08:16:16Z</time>
      </trkpt>
      <trkpt lat="44.59756" lon="1.87583">
        <ele>173</ele>
        <time>2021-08-31T08:16:47Z</time>
      </trkpt>
      <trkpt lat="44.59617" lon="1.87449">
        <ele>162</ele>
        <time>2021-08-31T08:17:19Z</time>
      </trkpt>
      <trkpt lat="44.59604" lon="1.87438">
        <ele>161</ele>
        <time>2021-08-31T08:17:22Z</time>
      </trkpt>
      <trkpt lat="44.59594" lon="1.87434">
        <ele>161</ele>
        <time>2021-08-31T08:17:24Z</time>
      </trkpt>
      <trkpt lat="44.59585" lon="1.87426">
        <ele>161</ele>
        <time>2021-08-31T08:17:26Z</time>
      </trkpt>
      <trkpt lat="44.59455" lon="1.87369">
        <ele>166</ele>
        <time>2021-08-31T08:17:53Z</time>
      </trkpt>
      <trkpt lat="44.59422" lon="1.87366">
        <ele>164</ele>
        <time>2021-08-31T08:18:00Z</time>
      </trkpt>
      <trkpt lat="44.59275" lon="1.87304">
        <ele>175</ele>
        <time>2021-08-31T08:18:30Z</time>
      </trkpt>
      <trkpt lat="44.59136" lon="1.87256">
        <ele>174</ele>
        <time>2021-08-31T08:19:01Z</time>
      </trkpt>
      <trkpt lat="44.59109" lon="1.87225">
        <ele>173</ele>
        <time>2021-08-31T08:19:08Z</time>
      </trkpt>
      <trkpt lat="44.59093" lon="1.872">
        <ele>171</ele>
        <time>2021-08-31T08:19:13Z</time>
      </trkpt>
      <trkpt lat="44.59073" lon="1.87155">
        <ele>170</ele>
        <time>2021-08-31T08:19:21Z</time>
      </trkpt>
      <trkpt lat="44.59069" lon="1.87134">
        <ele>172</ele>
        <time>2021-08-31T08:19:24Z</time>
      </trkpt>
      <trkpt lat="44.59068" lon="1.87105">
        <ele>172</ele>
        <time>2021-08-31T08:19:28Z</time>
      </trkpt>
      <trkpt lat="44.5907" lon="1.87086">
        <ele>172</ele>
        <time>2021-08-31T08:19:31Z</time>
      </trkpt>
      <trkpt lat="44.59081" lon="1.87042">
        <ele>171</ele>
        <time>2021-08-31T08:19:39Z</time>
      </trkpt>
      <trkpt lat="44.59143" lon="1.8691">
        <ele>171</ele>
        <time>2021-08-31T08:20:09Z</time>
      </trkpt>
      <trkpt lat="44.5924" lon="1.86765">
        <ele>174</ele>
        <time>2021-08-31T08:20:41Z</time>
      </trkpt>
      <trkpt lat="44.59324" lon="1.8664">
        <ele>178</ele>
        <time>2021-08-31T08:21:08Z</time>
      </trkpt>
      <trkpt lat="44.59328" lon="1.86629">
        <ele>178</ele>
        <time>2021-08-31T08:21:10Z</time>
      </trkpt>
      <trkpt lat="44.59358" lon="1.86575">
        <ele>181</ele>
        <time>2021-08-31T08:21:20Z</time>
      </trkpt>
      <trkpt lat="44.59413" lon="1.86424">
        <ele>177</ele>
        <time>2021-08-31T08:21:44Z</time>
      </trkpt>
      <trkpt lat="44.59421" lon="1.86363">
        <ele>175</ele>
        <time>2021-08-31T08:21:53Z</time>
      </trkpt>
      <trkpt lat="44.59419" lon="1.86294">
        <ele>172</ele>
        <time>2021-08-31T08:22:03Z</time>
      </trkpt>
      <trkpt lat="44.59386" lon="1.86074">
        <ele>169</ele>
        <time>2021-08-31T08:22:34Z</time>
      </trkpt>
      <trkpt lat="44.59348" lon="1.85873">
        <ele>172</ele>
        <time>2021-08-31T08:23:04Z</time>
      </trkpt>
      <trkpt lat="44.59346" lon="1.85843">
        <ele>172</ele>
        <time>2021-08-31T08:23:08Z</time>
      </trkpt>
      <trkpt lat="44.59346" lon="1.85835">
        <ele>172</ele>
        <time>2021-08-31T08:23:09Z</time>
      </trkpt>
      <trkpt lat="44.59343" lon="1.85799">
        <ele>171</ele>
        <time>2021-08-31T08:23:14Z</time>
      </trkpt>
      <trkpt lat="44.59345" lon="1.85745">
        <ele>169</ele>
        <time>2021-08-31T08:23:21Z</time>
      </trkpt>
      <trkpt lat="44.59395" lon="1.8556">
        <ele>168</ele>
        <time>2021-08-31T08:23:52Z</time>
      </trkpt>
      <trkpt lat="44.59444" lon="1.85388">
        <ele>168</ele>
        <time>2021-08-31T08:24:22Z</time>
      </trkpt>
      <trkpt lat="44.59482" lon="1.85189">
        <ele>166</ele>
        <time>2021-08-31T08:24:54Z</time>
      </trkpt>
      <trkpt lat="44.59494" lon="1.85047">
        <ele>165</ele>
        <time>2021-08-31T08:25:15Z</time>
      </trkpt>
      <trkpt lat="44.59489" lon="1.84865">
        <ele>159</ele>
        <time>2021-08-31T08:25:43Z</time>
      </trkpt>
      <trkpt lat="44.59487" lon="1.84853">
        <ele>159</ele>
        <time>2021-08-31T08:25:45Z</time>
      </trkpt>
      <trkpt lat="44.59486" lon="1.84652">
        <ele>156</ele>
        <time>2021-08-31T08:26:16Z</time>
      </trkpt>
      <trkpt lat="44.59478" lon="1.84451">
        <ele>164</ele>
        <time>2021-08-31T08:26:46Z</time>
      </trkpt>
      <trkpt lat="44.59483" lon="1.84408">
        <ele>164</ele>
        <time>2021-08-31T08:26:52Z</time>
      </trkpt>
      <trkpt lat="44.59493" lon="1.8437">
        <ele>164</ele>
        <time>2021-08-31T08:26:58Z</time>
      </trkpt>
      <trkpt lat="44.59527" lon="1.84279">
        <ele>163</ele>
        <time>2021-08-31T08:27:15Z</time>
      </trkpt>
      <trkpt lat="44.59535" lon="1.84213">
        <ele>164</ele>
        <time>2021-08-31T08:27:25Z</time>
      </trkpt>
      <trkpt lat="44.59535" lon="1.84164">
        <ele>163</ele>
        <time>2021-08-31T08:27:33Z</time>
      </trkpt>
      <trkpt lat="44.5953" lon="1.84129">
        <ele>162</ele>
        <time>2021-08-31T08:27:39Z</time>
      </trkpt>
      <trkpt lat="44.59465" lon="1.8396">
        <ele>161</ele>
        <time>2021-08-31T08:28:10Z</time>
      </trkpt>
      <trkpt lat="44.59449" lon="1.83923">
        <ele>158</ele>
        <time>2021-08-31T08:28:17Z</time>
      </trkpt>
      <trkpt lat="44.59425" lon="1.83886">
        <ele>155</ele>
        <time>2021-08-31T08:28:25Z</time>
      </trkpt>
      <trkpt lat="44.59406" lon="1.83874">
        <ele>155</ele>
        <time>2021-08-31T08:28:30Z</time>
      </trkpt>
      <trkpt lat="44.59339" lon="1.83842">
        <ele>154</ele>
        <time>2021-08-31T08:28:46Z</time>
      </trkpt>
      <trkpt lat="44.59331" lon="1.8384">
        <ele>155</ele>
        <time>2021-08-31T08:28:48Z</time>
      </trkpt>
      <trkpt lat="44.59324" lon="1.83847">
        <ele>155</ele>
        <time>2021-08-31T08:28:50Z</time>
      </trkpt>
      <trkpt lat="44.59314" lon="1.83875">
        <ele>157</ele>
        <time>2021-08-31T08:28:58Z</time>
      </trkpt>
      <trkpt lat="44.59311" lon="1.8388">
        <ele>159</ele>
        <time>2021-08-31T08:29:00Z</time>
      </trkpt>
      <trkpt lat="44.59312" lon="1.83888">
        <ele>162</ele>
        <time>2021-08-31T08:30:00Z</time>
      </trkpt>
      <trkpt lat="44.59311" lon="1.83894">
        <ele>162</ele>
        <time>2021-08-31T08:30:04Z</time>
      </trkpt>
      <trkpt lat="44.5931" lon="1.83901">
        <ele>162</ele>
        <time>2021-08-31T08:30:20Z</time>
      </trkpt>
      <trkpt lat="44.59308" lon="1.83908">
        <ele>162</ele>
        <time>2021-08-31T08:30:23Z</time>
      </trkpt>
      <trkpt lat="44.59305" lon="1.83916">
        <ele>163</ele>
        <time>2021-08-31T08:30:26Z</time>
      </trkpt>
      <trkpt lat="44.59299" lon="1.83937">
        <ele>165</ele>
        <time>2021-08-31T08:30:33Z</time>
      </trkpt>
      <trkpt lat="44.59299" lon="1.83958">
        <ele>165</ele>
        <time>2021-08-31T08:30:42Z</time>
      </trkpt>
      <trkpt lat="44.59301" lon="1.83972">
        <ele>165</ele>
        <time>2021-08-31T08:30:49Z</time>
      </trkpt>
      <trkpt lat="44.59298" lon="1.83976">
        <ele>166</ele>
        <time>2021-08-31T08:31:16Z</time>
      </trkpt>
      <trkpt lat="44.59295" lon="1.83976">
        <ele>167</ele>
        <time>2021-08-31T08:36:17Z</time>
      </trkpt>
      <trkpt lat="44.59293" lon="1.83983">
        <ele>167</ele>
        <time>2021-08-31T08:36:19Z</time>
      </trkpt>
      <trkpt lat="44.59296" lon="1.83991">
        <ele>167</ele>
        <time>2021-08-31T08:36:21Z</time>
      </trkpt>
      <trkpt lat="44.59296" lon="1.83999">
        <ele>168</ele>
        <time>2021-08-31T08:36:23Z</time>
      </trkpt>
      <trkpt lat="44.59296" lon="1.84006">
        <ele>168</ele>
        <time>2021-08-31T08:36:25Z</time>
      </trkpt>
      <trkpt lat="44.59292" lon="1.84012">
        <ele>169</ele>
        <time>2021-08-31T08:36:27Z</time>
      </trkpt>
      <trkpt lat="44.59285" lon="1.84023">
        <ele>170</ele>
        <time>2021-08-31T08:36:32Z</time>
      </trkpt>
      <trkpt lat="44.59282" lon="1.84028">
        <ele>169</ele>
        <time>2021-08-31T08:36:45Z</time>
      </trkpt>
      <trkpt lat="44.5927" lon="1.84031">
        <ele>167</ele>
        <time>2021-08-31T08:36:51Z</time>
      </trkpt>
      <trkpt lat="44.59264" lon="1.84031">
        <ele>167</ele>
        <time>2021-08-31T08:36:53Z</time>
      </trkpt>
      <trkpt lat="44.59239" lon="1.8404">
        <ele>166</ele>
        <time>2021-08-31T08:37:06Z</time>
      </trkpt>
      <trkpt lat="44.59234" lon="1.84042">
        <ele>166</ele>
        <time>2021-08-31T08:37:09Z</time>
      </trkpt>
      <trkpt lat="44.59227" lon="1.84045">
        <ele>166</ele>
        <time>2021-08-31T08:37:21Z</time>
      </trkpt>
      <trkpt lat="44.59223" lon="1.8405">
        <ele>166</ele>
        <time>2021-08-31T08:37:24Z</time>
      </trkpt>
      <trkpt lat="44.5922" lon="1.84057">
        <ele>166</ele>
        <time>2021-08-31T08:37:28Z</time>
      </trkpt>
      <trkpt lat="44.59218" lon="1.84054">
        <ele>166</ele>
        <time>2021-08-31T08:38:08Z</time>
      </trkpt>
      <trkpt lat="44.59219" lon="1.84047">
        <ele>166</ele>
        <time>2021-08-31T08:38:39Z</time>
      </trkpt>
      <trkpt lat="44.59223" lon="1.84043">
        <ele>167</ele>
        <time>2021-08-31T08:38:43Z</time>
      </trkpt>
      <trkpt lat="44.59226" lon="1.84038">
        <ele>167</ele>
        <time>2021-08-31T08:38:50Z</time>
      </trkpt>
      <trkpt lat="44.59231" lon="1.84038">
        <ele>167</ele>
        <time>2021-08-31T08:42:06Z</time>
      </trkpt>
      <trkpt lat="44.59238" lon="1.84037">
        <ele>167</ele>
        <time>2021-08-31T08:42:09Z</time>
      </trkpt>
      <trkpt lat="44.59244" lon="1.84033">
        <ele>164</ele>
        <time>2021-08-31T08:42:12Z</time>
      </trkpt>
      <trkpt lat="44.59249" lon="1.84029">
        <ele>163</ele>
        <time>2021-08-31T08:42:15Z</time>
      </trkpt>
      <trkpt lat="44.59265" lon="1.84019">
        <ele>160</ele>
        <time>2021-08-31T08:42:24Z</time>
      </trkpt>
      <trkpt lat="44.5927" lon="1.84015">
        <ele>158</ele>
        <time>2021-08-31T08:42:27Z</time>
      </trkpt>
      <trkpt lat="44.59274" lon="1.84009">
        <ele>157</ele>
        <time>2021-08-31T08:43:02Z</time>
      </trkpt>
      <trkpt lat="44.59286" lon="1.83979">
        <ele>155</ele>
        <time>2021-08-31T08:43:10Z</time>
      </trkpt>
      <trkpt lat="44.59289" lon="1.8397">
        <ele>154</ele>
        <time>2021-08-31T08:43:12Z</time>
      </trkpt>
      <trkpt lat="44.59289" lon="1.83962">
        <ele>153</ele>
        <time>2021-08-31T08:43:14Z</time>
      </trkpt>
      <trkpt lat="44.59294" lon="1.83947">
        <ele>153</ele>
        <time>2021-08-31T08:43:18Z</time>
      </trkpt>
      <trkpt lat="44.59295" lon="1.83929">
        <ele>152</ele>
        <time>2021-08-31T08:43:22Z</time>
      </trkpt>
      <trkpt lat="44.59314" lon="1.83883">
        <ele>150</ele>
        <time>2021-08-31T08:43:34Z</time>
      </trkpt>
      <trkpt lat="44.59319" lon="1.83873">
        <ele>148</ele>
        <time>2021-08-31T08:43:38Z</time>
      </trkpt>
      <trkpt lat="44.59326" lon="1.8385">
        <ele>145</ele>
        <time>2021-08-31T08:43:46Z</time>
      </trkpt>
      <trkpt lat="44.59311" lon="1.83836">
        <ele>141</ele>
        <time>2021-08-31T08:43:53Z</time>
      </trkpt>
      <trkpt lat="44.59277" lon="1.83835">
        <ele>144</ele>
        <time>2021-08-31T08:44:01Z</time>
      </trkpt>
      <trkpt lat="44.59202" lon="1.83857">
        <ele>150</ele>
        <time>2021-08-31T08:44:23Z</time>
      </trkpt>
      <trkpt lat="44.592" lon="1.83863">
        <ele>153</ele>
        <time>2021-08-31T08:44:56Z</time>
      </trkpt>
      <trkpt lat="44.59193" lon="1.83865">
        <ele>153</ele>
        <time>2021-08-31T08:44:58Z</time>
      </trkpt>
      <trkpt lat="44.59176" lon="1.83877">
        <ele>158</ele>
        <time>2021-08-31T08:45:04Z</time>
      </trkpt>
      <trkpt lat="44.59136" lon="1.839">
        <ele>165</ele>
        <time>2021-08-31T08:45:14Z</time>
      </trkpt>
      <trkpt lat="44.59128" lon="1.83903">
        <ele>166</ele>
        <time>2021-08-31T08:45:16Z</time>
      </trkpt>
      <trkpt lat="44.59055" lon="1.83937">
        <ele>170</ele>
        <time>2021-08-31T08:45:34Z</time>
      </trkpt>
      <trkpt lat="44.58966" lon="1.84029">
        <ele>174</ele>
        <time>2021-08-31T08:46:05Z</time>
      </trkpt>
      <trkpt lat="44.58918" lon="1.84069">
        <ele>174</ele>
        <time>2021-08-31T08:46:18Z</time>
      </trkpt>
      <trkpt lat="44.58913" lon="1.84076">
        <ele>174</ele>
        <time>2021-08-31T08:46:20Z</time>
      </trkpt>
      <trkpt lat="44.58858" lon="1.84137">
        <ele>177</ele>
        <time>2021-08-31T08:46:36Z</time>
      </trkpt>
      <trkpt lat="44.58851" lon="1.84144">
        <ele>177</ele>
        <time>2021-08-31T08:46:38Z</time>
      </trkpt>
      <trkpt lat="44.58769" lon="1.84295">
        <ele>185</ele>
        <time>2021-08-31T08:47:08Z</time>
      </trkpt>
      <trkpt lat="44.5876" lon="1.84313">
        <ele>185</ele>
        <time>2021-08-31T08:47:11Z</time>
      </trkpt>
      <trkpt lat="44.58757" lon="1.84316">
        <ele>185</ele>
        <time>2021-08-31T08:47:12Z</time>
      </trkpt>
      <trkpt lat="44.58748" lon="1.84333">
        <ele>186</ele>
        <time>2021-08-31T08:47:15Z</time>
      </trkpt>
      <trkpt lat="44.5874" lon="1.84352">
        <ele>187</ele>
        <time>2021-08-31T08:47:18Z</time>
      </trkpt>
      <trkpt lat="44.5871" lon="1.84398">
        <ele>188</ele>
        <time>2021-08-31T08:47:27Z</time>
      </trkpt>
      <trkpt lat="44.58707" lon="1.84404">
        <ele>188</ele>
        <time>2021-08-31T08:47:28Z</time>
      </trkpt>
      <trkpt lat="44.58666" lon="1.84471">
        <ele>184</ele>
        <time>2021-08-31T08:47:41Z</time>
      </trkpt>
      <trkpt lat="44.58655" lon="1.84483">
        <ele>179</ele>
        <time>2021-08-31T08:47:44Z</time>
      </trkpt>
      <trkpt lat="44.58647" lon="1.84492">
        <ele>175</ele>
        <time>2021-08-31T08:47:46Z</time>
      </trkpt>
      <trkpt lat="44.58632" lon="1.84503">
        <ele>172</ele>
        <time>2021-08-31T08:47:50Z</time>
      </trkpt>
      <trkpt lat="44.58613" lon="1.84513">
        <ele>172</ele>
        <time>2021-08-31T08:47:54Z</time>
      </trkpt>
      <trkpt lat="44.58605" lon="1.84516">
        <ele>172</ele>
        <time>2021-08-31T08:47:56Z</time>
      </trkpt>
      <trkpt lat="44.5859" lon="1.84517">
        <ele>171</ele>
        <time>2021-08-31T08:48:00Z</time>
      </trkpt>
      <trkpt lat="44.5856" lon="1.84493">
        <ele>168</ele>
        <time>2021-08-31T08:48:09Z</time>
      </trkpt>
      <trkpt lat="44.58554" lon="1.84493">
        <ele>168</ele>
        <time>2021-08-31T08:48:11Z</time>
      </trkpt>
      <trkpt lat="44.58554" lon="1.845">
        <ele>168</ele>
        <time>2021-08-31T08:48:20Z</time>
      </trkpt>
      <trkpt lat="44.58558" lon="1.84506">
        <ele>169</ele>
        <time>2021-08-31T08:48:23Z</time>
      </trkpt>
      <trkpt lat="44.5856" lon="1.84501">
        <ele>168</ele>
        <time>2021-08-31T08:52:55Z</time>
      </trkpt>
      <trkpt lat="44.58559" lon="1.84493">
        <ele>168</ele>
        <time>2021-08-31T08:53:01Z</time>
      </trkpt>
      <trkpt lat="44.58552" lon="1.84477">
        <ele>168</ele>
        <time>2021-08-31T08:53:05Z</time>
      </trkpt>
      <trkpt lat="44.58547" lon="1.84467">
        <ele>168</ele>
        <time>2021-08-31T08:53:07Z</time>
      </trkpt>
      <trkpt lat="44.58542" lon="1.84453">
        <ele>169</ele>
        <time>2021-08-31T08:53:11Z</time>
      </trkpt>
      <trkpt lat="44.58543" lon="1.84418">
        <ele>169</ele>
        <time>2021-08-31T08:53:19Z</time>
      </trkpt>
      <trkpt lat="44.5855" lon="1.8439">
        <ele>168</ele>
        <time>2021-08-31T08:53:25Z</time>
      </trkpt>
      <trkpt lat="44.58592" lon="1.84233">
        <ele>162</ele>
        <time>2021-08-31T08:53:57Z</time>
      </trkpt>
      <trkpt lat="44.58635" lon="1.84071">
        <ele>158</ele>
        <time>2021-08-31T08:54:29Z</time>
      </trkpt>
      <trkpt lat="44.58678" lon="1.83916">
        <ele>152</ele>
        <time>2021-08-31T08:54:59Z</time>
      </trkpt>
      <trkpt lat="44.58685" lon="1.83873">
        <ele>151</ele>
        <time>2021-08-31T08:55:07Z</time>
      </trkpt>
      <trkpt lat="44.58696" lon="1.837">
        <ele>145</ele>
        <time>2021-08-31T08:55:39Z</time>
      </trkpt>
      <trkpt lat="44.58699" lon="1.83641">
        <ele>143</ele>
        <time>2021-08-31T08:55:49Z</time>
      </trkpt>
      <trkpt lat="44.58699" lon="1.83629">
        <ele>142</ele>
        <time>2021-08-31T08:55:51Z</time>
      </trkpt>
      <trkpt lat="44.58697" lon="1.83583">
        <ele>140</ele>
        <time>2021-08-31T08:55:59Z</time>
      </trkpt>
      <trkpt lat="44.58687" lon="1.83444">
        <ele>145</ele>
        <time>2021-08-31T08:56:22Z</time>
      </trkpt>
      <trkpt lat="44.58662" lon="1.83357">
        <ele>146</ele>
        <time>2021-08-31T08:56:37Z</time>
      </trkpt>
      <trkpt lat="44.58644" lon="1.83325">
        <ele>146</ele>
        <time>2021-08-31T08:56:43Z</time>
      </trkpt>
      <trkpt lat="44.5859" lon="1.83263">
        <ele>149</ele>
        <time>2021-08-31T08:56:58Z</time>
      </trkpt>
      <trkpt lat="44.58547" lon="1.83237">
        <ele>154</ele>
        <time>2021-08-31T08:57:07Z</time>
      </trkpt>
      <trkpt lat="44.58519" lon="1.83226">
        <ele>158</ele>
        <time>2021-08-31T08:57:13Z</time>
      </trkpt>
      <trkpt lat="44.5846" lon="1.83228">
        <ele>168</ele>
        <time>2021-08-31T08:57:25Z</time>
      </trkpt>
      <trkpt lat="44.58392" lon="1.83262">
        <ele>177</ele>
        <time>2021-08-31T08:57:39Z</time>
      </trkpt>
      <trkpt lat="44.58326" lon="1.83292">
        <ele>174</ele>
        <time>2021-08-31T08:57:53Z</time>
      </trkpt>
      <trkpt lat="44.58289" lon="1.83308">
        <ele>170</ele>
        <time>2021-08-31T08:58:01Z</time>
      </trkpt>
      <trkpt lat="44.58272" lon="1.83315">
        <ele>169</ele>
        <time>2021-08-31T08:58:05Z</time>
      </trkpt>
      <trkpt lat="44.58187" lon="1.83359">
        <ele>167</ele>
        <time>2021-08-31T08:58:24Z</time>
      </trkpt>
      <trkpt lat="44.58163" lon="1.83372">
        <ele>165</ele>
        <time>2021-08-31T08:58:29Z</time>
      </trkpt>
      <trkpt lat="44.58021" lon="1.83441">
        <ele>156</ele>
        <time>2021-08-31T08:59:00Z</time>
      </trkpt>
      <trkpt lat="44.57988" lon="1.83457">
        <ele>152</ele>
        <time>2021-08-31T08:59:07Z</time>
      </trkpt>
      <trkpt lat="44.57942" lon="1.83486">
        <ele>150</ele>
        <time>2021-08-31T08:59:18Z</time>
      </trkpt>
      <trkpt lat="44.57873" lon="1.8352">
        <ele>153</ele>
        <time>2021-08-31T08:59:32Z</time>
      </trkpt>
      <trkpt lat="44.57765" lon="1.8353">
        <ele>161</ele>
        <time>2021-08-31T08:59:53Z</time>
      </trkpt>
      <trkpt lat="44.57717" lon="1.83508">
        <ele>162</ele>
        <time>2021-08-31T09:00:03Z</time>
      </trkpt>
      <trkpt lat="44.57696" lon="1.83487">
        <ele>162</ele>
        <time>2021-08-31T09:00:08Z</time>
      </trkpt>
      <trkpt lat="44.57679" lon="1.83467">
        <ele>163</ele>
        <time>2021-08-31T09:00:12Z</time>
      </trkpt>
      <trkpt lat="44.57665" lon="1.83436">
        <ele>163</ele>
        <time>2021-08-31T09:00:17Z</time>
      </trkpt>
      <trkpt lat="44.57652" lon="1.83375">
        <ele>163</ele>
        <time>2021-08-31T09:00:26Z</time>
      </trkpt>
      <trkpt lat="44.57647" lon="1.83338">
        <ele>163</ele>
        <time>2021-08-31T09:00:32Z</time>
      </trkpt>
      <trkpt lat="44.57648" lon="1.83321">
        <ele>162</ele>
        <time>2021-08-31T09:00:36Z</time>
      </trkpt>
      <trkpt lat="44.57648" lon="1.83314">
        <ele>161</ele>
        <time>2021-08-31T09:00:38Z</time>
      </trkpt>
      <trkpt lat="44.57646" lon="1.83306">
        <ele>158</ele>
        <time>2021-08-31T09:00:40Z</time>
      </trkpt>
      <trkpt lat="44.57648" lon="1.83285">
        <ele>156</ele>
        <time>2021-08-31T09:00:44Z</time>
      </trkpt>
      <trkpt lat="44.57636" lon="1.8311">
        <ele>145</ele>
        <time>2021-08-31T09:01:14Z</time>
      </trkpt>
      <trkpt lat="44.5763" lon="1.83036">
        <ele>144</ele>
        <time>2021-08-31T09:01:26Z</time>
      </trkpt>
      <trkpt lat="44.57627" lon="1.83001">
        <ele>143</ele>
        <time>2021-08-31T09:01:32Z</time>
      </trkpt>
      <trkpt lat="44.57615" lon="1.82784">
        <ele>131</ele>
        <time>2021-08-31T09:02:03Z</time>
      </trkpt>
      <trkpt lat="44.57584" lon="1.82576">
        <ele>121</ele>
        <time>2021-08-31T09:02:34Z</time>
      </trkpt>
      <trkpt lat="44.57542" lon="1.82423">
        <ele>110</ele>
        <time>2021-08-31T09:02:57Z</time>
      </trkpt>
      <trkpt lat="44.57458" lon="1.82235">
        <ele>95</ele>
        <time>2021-08-31T09:03:26Z</time>
      </trkpt>
      <trkpt lat="44.57431" lon="1.82207">
        <ele>95</ele>
        <time>2021-08-31T09:03:32Z</time>
      </trkpt>
      <trkpt lat="44.57396" lon="1.82184">
        <ele>94</ele>
        <time>2021-08-31T09:03:38Z</time>
      </trkpt>
      <trkpt lat="44.57367" lon="1.82172">
        <ele>97</ele>
        <time>2021-08-31T09:03:42Z</time>
      </trkpt>
      <trkpt lat="44.57323" lon="1.82165">
        <ele>100</ele>
        <time>2021-08-31T09:03:48Z</time>
      </trkpt>
      <trkpt lat="44.57311" lon="1.82165">
        <ele>102</ele>
        <time>2021-08-31T09:03:50Z</time>
      </trkpt>
      <trkpt lat="44.57299" lon="1.82167">
        <ele>104</ele>
        <time>2021-08-31T09:03:52Z</time>
      </trkpt>
      <trkpt lat="44.57232" lon="1.82191">
        <ele>115</ele>
        <time>2021-08-31T09:04:04Z</time>
      </trkpt>
      <trkpt lat="44.57202" lon="1.82211">
        <ele>120</ele>
        <time>2021-08-31T09:04:10Z</time>
      </trkpt>
      <trkpt lat="44.57118" lon="1.82292">
        <ele>134</ele>
        <time>2021-08-31T09:04:29Z</time>
      </trkpt>
      <trkpt lat="44.57095" lon="1.82319">
        <ele>139</ele>
        <time>2021-08-31T09:04:35Z</time>
      </trkpt>
      <trkpt lat="44.57071" lon="1.82347">
        <ele>141</ele>
        <time>2021-08-31T09:04:41Z</time>
      </trkpt>
      <trkpt lat="44.57041" lon="1.82384">
        <ele>146</ele>
        <time>2021-08-31T09:04:49Z</time>
      </trkpt>
      <trkpt lat="44.57029" lon="1.82405">
        <ele>150</ele>
        <time>2021-08-31T09:04:53Z</time>
      </trkpt>
      <trkpt lat="44.56907" lon="1.82571">
        <ele>158</ele>
        <time>2021-08-31T09:05:24Z</time>
      </trkpt>
      <trkpt lat="44.56872" lon="1.82621">
        <ele>164</ele>
        <time>2021-08-31T09:05:34Z</time>
      </trkpt>
      <trkpt lat="44.56867" lon="1.82622">
        <ele>161</ele>
        <time>2021-08-31T09:05:35Z</time>
      </trkpt>
      <trkpt lat="44.56863" lon="1.82625">
        <ele>159</ele>
        <time>2021-08-31T09:05:36Z</time>
      </trkpt>
      <trkpt lat="44.56828" lon="1.82667">
        <ele>154</ele>
        <time>2021-08-31T09:05:45Z</time>
      </trkpt>
      <trkpt lat="44.56809" lon="1.82681">
        <ele>152</ele>
        <time>2021-08-31T09:05:49Z</time>
      </trkpt>
      <trkpt lat="44.56804" lon="1.82683">
        <ele>152</ele>
        <time>2021-08-31T09:05:50Z</time>
      </trkpt>
      <trkpt lat="44.56785" lon="1.82688">
        <ele>152</ele>
        <time>2021-08-31T09:05:54Z</time>
      </trkpt>
      <trkpt lat="44.56763" lon="1.8268">
        <ele>151</ele>
        <time>2021-08-31T09:05:58Z</time>
      </trkpt>
      <trkpt lat="44.56754" lon="1.82672">
        <ele>150</ele>
        <time>2021-08-31T09:06:00Z</time>
      </trkpt>
      <trkpt lat="44.56745" lon="1.82659">
        <ele>149</ele>
        <time>2021-08-31T09:06:02Z</time>
      </trkpt>
      <trkpt lat="44.56742" lon="1.82652">
        <ele>148</ele>
        <time>2021-08-31T09:06:03Z</time>
      </trkpt>
      <trkpt lat="44.5674" lon="1.82637">
        <ele>144</ele>
        <time>2021-08-31T09:06:05Z</time>
      </trkpt>
      <trkpt lat="44.56748" lon="1.82433">
        <ele>141</ele>
        <time>2021-08-31T09:06:33Z</time>
      </trkpt>
      <trkpt lat="44.56758" lon="1.82219">
        <ele>141</ele>
        <time>2021-08-31T09:07:04Z</time>
      </trkpt>
      <trkpt lat="44.56762" lon="1.8206">
        <ele>145</ele>
        <time>2021-08-31T09:07:26Z</time>
      </trkpt>
      <trkpt lat="44.56758" lon="1.82041">
        <ele>145</ele>
        <time>2021-08-31T09:07:29Z</time>
      </trkpt>
      <trkpt lat="44.56757" lon="1.82034">
        <ele>146</ele>
        <time>2021-08-31T09:07:30Z</time>
      </trkpt>
      <trkpt lat="44.56732" lon="1.81812">
        <ele>149</ele>
        <time>2021-08-31T09:08:01Z</time>
      </trkpt>
      <trkpt lat="44.56698" lon="1.81587">
        <ele>152</ele>
        <time>2021-08-31T09:08:31Z</time>
      </trkpt>
      <trkpt lat="44.5667" lon="1.81516">
        <ele>154</ele>
        <time>2021-08-31T09:08:42Z</time>
      </trkpt>
      <trkpt lat="44.56662" lon="1.81498">
        <ele>155</ele>
        <time>2021-08-31T09:08:45Z</time>
      </trkpt>
      <trkpt lat="44.56631" lon="1.81421">
        <ele>160</ele>
        <time>2021-08-31T09:08:56Z</time>
      </trkpt>
      <trkpt lat="44.56559" lon="1.8126">
        <ele>160</ele>
        <time>2021-08-31T09:09:20Z</time>
      </trkpt>
      <trkpt lat="44.56499" lon="1.81046">
        <ele>157</ele>
        <time>2021-08-31T09:09:50Z</time>
      </trkpt>
      <trkpt lat="44.56443" lon="1.80826">
        <ele>153</ele>
        <time>2021-08-31T09:10:20Z</time>
      </trkpt>
      <trkpt lat="44.5638" lon="1.80599">
        <ele>151</ele>
        <time>2021-08-31T09:10:51Z</time>
      </trkpt>
      <trkpt lat="44.56338" lon="1.80457">
        <ele>147</ele>
        <time>2021-08-31T09:11:10Z</time>
      </trkpt>
      <trkpt lat="44.56334" lon="1.80423">
        <ele>143</ele>
        <time>2021-08-31T09:11:14Z</time>
      </trkpt>
      <trkpt lat="44.56336" lon="1.8039">
        <ele>140</ele>
        <time>2021-08-31T09:11:18Z</time>
      </trkpt>
      <trkpt lat="44.56351" lon="1.80341">
        <ele>139</ele>
        <time>2021-08-31T09:11:25Z</time>
      </trkpt>
      <trkpt lat="44.56358" lon="1.80327">
        <ele>138</ele>
        <time>2021-08-31T09:11:27Z</time>
      </trkpt>
      <trkpt lat="44.56385" lon="1.8029">
        <ele>123</ele>
        <time>2021-08-31T09:11:33Z</time>
      </trkpt>
      <trkpt lat="44.56429" lon="1.80258">
        <ele>109</ele>
        <time>2021-08-31T09:11:42Z</time>
      </trkpt>
      <trkpt lat="44.56475" lon="1.80234">
        <ele>101</ele>
        <time>2021-08-31T09:11:51Z</time>
      </trkpt>
      <trkpt lat="44.56501" lon="1.80235">
        <ele>103</ele>
        <time>2021-08-31T09:11:57Z</time>
      </trkpt>
      <trkpt lat="44.56575" lon="1.8025">
        <ele>116</ele>
        <time>2021-08-31T09:12:11Z</time>
      </trkpt>
      <trkpt lat="44.56732" lon="1.80318">
        <ele>116</ele>
        <time>2021-08-31T09:12:41Z</time>
      </trkpt>
      <trkpt lat="44.56868" lon="1.80359">
        <ele>122</ele>
        <time>2021-08-31T09:13:07Z</time>
      </trkpt>
      <trkpt lat="44.56897" lon="1.80361">
        <ele>126</ele>
        <time>2021-08-31T09:13:12Z</time>
      </trkpt>
      <trkpt lat="44.56932" lon="1.80347">
        <ele>131</ele>
        <time>2021-08-31T09:13:18Z</time>
      </trkpt>
      <trkpt lat="44.56951" lon="1.80336">
        <ele>129</ele>
        <time>2021-08-31T09:13:21Z</time>
      </trkpt>
      <trkpt lat="44.56965" lon="1.80332">
        <ele>125</ele>
        <time>2021-08-31T09:13:23Z</time>
      </trkpt>
      <trkpt lat="44.57143" lon="1.80257">
        <ele>31</ele>
        <time>2021-08-31T09:13:53Z</time>
      </trkpt>
      <trkpt lat="44.57152" lon="1.80248">
        <ele>31</ele>
        <time>2021-08-31T09:13:55Z</time>
      </trkpt>
      <trkpt lat="44.57164" lon="1.80228">
        <ele>34</ele>
        <time>2021-08-31T09:13:58Z</time>
      </trkpt>
      <trkpt lat="44.57176" lon="1.8022">
        <ele>30</ele>
        <time>2021-08-31T09:14:00Z</time>
      </trkpt>
      <trkpt lat="44.57187" lon="1.80211">
        <ele>19</ele>
        <time>2021-08-31T09:14:02Z</time>
      </trkpt>
      <trkpt lat="44.57203" lon="1.80156">
        <ele>13</ele>
        <time>2021-08-31T09:14:09Z</time>
      </trkpt>
      <trkpt lat="44.57212" lon="1.80142">
        <ele>9</ele>
        <time>2021-08-31T09:14:11Z</time>
      </trkpt>
      <trkpt lat="44.57221" lon="1.80128">
        <ele>6</ele>
        <time>2021-08-31T09:14:13Z</time>
      </trkpt>
      <trkpt lat="44.5723" lon="1.80115">
        <ele>-2</ele>
        <time>2021-08-31T09:14:15Z</time>
      </trkpt>
      <trkpt lat="44.57239" lon="1.80102">
        <ele>-7</ele>
        <time>2021-08-31T09:14:17Z</time>
      </trkpt>
      <trkpt lat="44.57253" lon="1.80071">
        <ele>-8</ele>
        <time>2021-08-31T09:14:21Z</time>
      </trkpt>
      <trkpt lat="44.57257" lon="1.80055">
        <ele>-2</ele>
        <time>2021-08-31T09:14:23Z</time>
      </trkpt>
      <trkpt lat="44.57262" lon="1.80038">
        <ele>194</ele>
        <time>2021-08-31T09:14:25Z</time>
      </trkpt>
      <trkpt lat="44.57267" lon="1.80004">
        <ele>17</ele>
        <time>2021-08-31T09:14:29Z</time>
      </trkpt>
      <trkpt lat="44.57275" lon="1.79956">
        <ele>23</ele>
        <time>2021-08-31T09:14:35Z</time>
      </trkpt>
      <trkpt lat="44.57277" lon="1.79925">
        <ele>27</ele>
        <time>2021-08-31T09:14:39Z</time>
      </trkpt>
      <trkpt lat="44.57276" lon="1.79909">
        <ele>27</ele>
        <time>2021-08-31T09:14:41Z</time>
      </trkpt>
      <trkpt lat="44.57268" lon="1.79892">
        <ele>31</ele>
        <time>2021-08-31T09:14:44Z</time>
      </trkpt>
      <trkpt lat="44.57266" lon="1.79877">
        <ele>36</ele>
        <time>2021-08-31T09:14:46Z</time>
      </trkpt>
      <trkpt lat="44.57257" lon="1.79857">
        <ele>40</ele>
        <time>2021-08-31T09:14:49Z</time>
      </trkpt>
      <trkpt lat="44.57226" lon="1.79715">
        <ele>62</ele>
        <time>2021-08-31T09:15:08Z</time>
      </trkpt>
      <trkpt lat="44.57191" lon="1.79616">
        <ele>66</ele>
        <time>2021-08-31T09:15:22Z</time>
      </trkpt>
      <trkpt lat="44.57176" lon="1.79585">
        <ele>70</ele>
        <time>2021-08-31T09:15:26Z</time>
      </trkpt>
      <trkpt lat="44.57082" lon="1.79453">
        <ele>85</ele>
        <time>2021-08-31T09:15:48Z</time>
      </trkpt>
      <trkpt lat="44.57071" lon="1.79444">
        <ele>86</ele>
        <time>2021-08-31T09:15:50Z</time>
      </trkpt>
      <trkpt lat="44.57041" lon="1.7942">
        <ele>91</ele>
        <time>2021-08-31T09:15:56Z</time>
      </trkpt>
      <trkpt lat="44.56985" lon="1.79369">
        <ele>102</ele>
        <time>2021-08-31T09:16:08Z</time>
      </trkpt>
      <trkpt lat="44.56977" lon="1.79367">
        <ele>103</ele>
        <time>2021-08-31T09:16:11Z</time>
      </trkpt>
      <trkpt lat="44.56962" lon="1.7939">
        <ele>108</ele>
        <time>2021-08-31T09:16:18Z</time>
      </trkpt>
      <trkpt lat="44.56959" lon="1.79387">
        <ele>112</ele>
        <time>2021-08-31T09:17:03Z</time>
      </trkpt>
      <trkpt lat="44.56963" lon="1.79386">
        <ele>127</ele>
        <time>2021-08-31T09:23:28Z</time>
      </trkpt>
      <trkpt lat="44.56972" lon="1.79369">
        <ele>125</ele>
        <time>2021-08-31T09:23:34Z</time>
      </trkpt>
      <trkpt lat="44.56973" lon="1.79362">
        <ele>124</ele>
        <time>2021-08-31T09:23:36Z</time>
      </trkpt>
      <trkpt lat="44.56968" lon="1.79349">
        <ele>124</ele>
        <time>2021-08-31T09:23:41Z</time>
      </trkpt>
      <trkpt lat="44.56954" lon="1.79329">
        <ele>124</ele>
        <time>2021-08-31T09:23:47Z</time>
      </trkpt>
      <trkpt lat="44.56918" lon="1.79252">
        <ele>126</ele>
        <time>2021-08-31T09:24:01Z</time>
      </trkpt>
      <trkpt lat="44.56911" lon="1.79206">
        <ele>127</ele>
        <time>2021-08-31T09:24:08Z</time>
      </trkpt>
      <trkpt lat="44.56909" lon="1.79176">
        <ele>129</ele>
        <time>2021-08-31T09:24:12Z</time>
      </trkpt>
      <trkpt lat="44.5692" lon="1.7913">
        <ele>127</ele>
        <time>2021-08-31T09:24:19Z</time>
      </trkpt>
      <trkpt lat="44.56925" lon="1.79118">
        <ele>124</ele>
        <time>2021-08-31T09:24:21Z</time>
      </trkpt>
      <trkpt lat="44.56929" lon="1.79108">
        <ele>122</ele>
        <time>2021-08-31T09:24:23Z</time>
      </trkpt>
      <trkpt lat="44.56928" lon="1.79101">
        <ele>120</ele>
        <time>2021-08-31T09:24:25Z</time>
      </trkpt>
      <trkpt lat="44.56931" lon="1.79082">
        <ele>117</ele>
        <time>2021-08-31T09:24:31Z</time>
      </trkpt>
      <trkpt lat="44.56934" lon="1.79074">
        <ele>115</ele>
        <time>2021-08-31T09:24:33Z</time>
      </trkpt>
      <trkpt lat="44.56937" lon="1.79066">
        <ele>112</ele>
        <time>2021-08-31T09:24:35Z</time>
      </trkpt>
      <trkpt lat="44.56982" lon="1.78938">
        <ele>80</ele>
        <time>2021-08-31T09:24:55Z</time>
      </trkpt>
      <trkpt lat="44.56989" lon="1.78887">
        <ele>81</ele>
        <time>2021-08-31T09:25:03Z</time>
      </trkpt>
      <trkpt lat="44.56986" lon="1.78878">
        <ele>85</ele>
        <time>2021-08-31T09:25:35Z</time>
      </trkpt>
      <trkpt lat="44.56984" lon="1.78858">
        <ele>93</ele>
        <time>2021-08-31T09:25:40Z</time>
      </trkpt>
      <trkpt lat="44.56971" lon="1.78824">
        <ele>99</ele>
        <time>2021-08-31T09:25:48Z</time>
      </trkpt>
      <trkpt lat="44.56886" lon="1.78689">
        <ele>112</ele>
        <time>2021-08-31T09:26:16Z</time>
      </trkpt>
      <trkpt lat="44.5686" lon="1.78664">
        <ele>114</ele>
        <time>2021-08-31T09:26:22Z</time>
      </trkpt>
      <trkpt lat="44.56762" lon="1.78591">
        <ele>118</ele>
        <time>2021-08-31T09:26:42Z</time>
      </trkpt>
      <trkpt lat="44.56728" lon="1.78577">
        <ele>119</ele>
        <time>2021-08-31T09:26:48Z</time>
      </trkpt>
      <trkpt lat="44.56636" lon="1.78574">
        <ele>122</ele>
        <time>2021-08-31T09:27:04Z</time>
      </trkpt>
      <trkpt lat="44.56605" lon="1.78575">
        <ele>124</ele>
        <time>2021-08-31T09:27:10Z</time>
      </trkpt>
      <trkpt lat="44.56556" lon="1.78573">
        <ele>127</ele>
        <time>2021-08-31T09:27:19Z</time>
      </trkpt>
      <trkpt lat="44.56546" lon="1.78575">
        <ele>127</ele>
        <time>2021-08-31T09:27:21Z</time>
      </trkpt>
      <trkpt lat="44.56535" lon="1.78575">
        <ele>128</ele>
        <time>2021-08-31T09:27:23Z</time>
      </trkpt>
      <trkpt lat="44.56389" lon="1.78578">
        <ele>136</ele>
        <time>2021-08-31T09:27:50Z</time>
      </trkpt>
      <trkpt lat="44.56375" lon="1.78577">
        <ele>141</ele>
        <time>2021-08-31T09:27:53Z</time>
      </trkpt>
      <trkpt lat="44.56361" lon="1.78568">
        <ele>144</ele>
        <time>2021-08-31T09:27:56Z</time>
      </trkpt>
      <trkpt lat="44.56339" lon="1.78546">
        <ele>149</ele>
        <time>2021-08-31T09:28:01Z</time>
      </trkpt>
      <trkpt lat="44.56335" lon="1.7854">
        <ele>148</ele>
        <time>2021-08-31T09:28:02Z</time>
      </trkpt>
      <trkpt lat="44.562" lon="1.78396">
        <ele>128</ele>
        <time>2021-08-31T09:28:33Z</time>
      </trkpt>
      <trkpt lat="44.56067" lon="1.78256">
        <ele>118</ele>
        <time>2021-08-31T09:29:03Z</time>
      </trkpt>
      <trkpt lat="44.56028" lon="1.78213">
        <ele>119</ele>
        <time>2021-08-31T09:29:12Z</time>
      </trkpt>
      <trkpt lat="44.56014" lon="1.7819">
        <ele>119</ele>
        <time>2021-08-31T09:29:16Z</time>
      </trkpt>
      <trkpt lat="44.56002" lon="1.78153">
        <ele>121</ele>
        <time>2021-08-31T09:29:21Z</time>
      </trkpt>
      <trkpt lat="44.56" lon="1.78137">
        <ele>122</ele>
        <time>2021-08-31T09:29:23Z</time>
      </trkpt>
      <trkpt lat="44.56" lon="1.78129">
        <ele>122</ele>
        <time>2021-08-31T09:29:24Z</time>
      </trkpt>
      <trkpt lat="44.56029" lon="1.78043">
        <ele>116</ele>
        <time>2021-08-31T09:29:35Z</time>
      </trkpt>
      <trkpt lat="44.5606" lon="1.77933">
        <ele>106</ele>
        <time>2021-08-31T09:29:50Z</time>
      </trkpt>
      <trkpt lat="44.56075" lon="1.77898">
        <ele>102</ele>
        <time>2021-08-31T09:29:55Z</time>
      </trkpt>
      <trkpt lat="44.5608" lon="1.77883">
        <ele>99</ele>
        <time>2021-08-31T09:29:57Z</time>
      </trkpt>
      <trkpt lat="44.56086" lon="1.77867">
        <ele>97</ele>
        <time>2021-08-31T09:29:59Z</time>
      </trkpt>
      <trkpt lat="44.56091" lon="1.77852">
        <ele>94</ele>
        <time>2021-08-31T09:30:01Z</time>
      </trkpt>
      <trkpt lat="44.56097" lon="1.77837">
        <ele>92</ele>
        <time>2021-08-31T09:30:03Z</time>
      </trkpt>
      <trkpt lat="44.56127" lon="1.77736">
        <ele>87</ele>
        <time>2021-08-31T09:30:17Z</time>
      </trkpt>
      <trkpt lat="44.56149" lon="1.77659">
        <ele>92</ele>
        <time>2021-08-31T09:30:27Z</time>
      </trkpt>
      <trkpt lat="44.56171" lon="1.77613">
        <ele>96</ele>
        <time>2021-08-31T09:30:34Z</time>
      </trkpt>
      <trkpt lat="44.56209" lon="1.77532">
        <ele>105</ele>
        <time>2021-08-31T09:30:46Z</time>
      </trkpt>
      <trkpt lat="44.56222" lon="1.77491">
        <ele>109</ele>
        <time>2021-08-31T09:30:52Z</time>
      </trkpt>
      <trkpt lat="44.56224" lon="1.77476">
        <ele>111</ele>
        <time>2021-08-31T09:30:54Z</time>
      </trkpt>
      <trkpt lat="44.56228" lon="1.77438">
        <ele>116</ele>
        <time>2021-08-31T09:30:59Z</time>
      </trkpt>
      <trkpt lat="44.56227" lon="1.77383">
        <ele>126</ele>
        <time>2021-08-31T09:31:06Z</time>
      </trkpt>
      <trkpt lat="44.56224" lon="1.77367">
        <ele>128</ele>
        <time>2021-08-31T09:31:08Z</time>
      </trkpt>
      <trkpt lat="44.5621" lon="1.77223">
        <ele>144</ele>
        <time>2021-08-31T09:31:27Z</time>
      </trkpt>
      <trkpt lat="44.56206" lon="1.77205">
        <ele>145</ele>
        <time>2021-08-31T09:31:30Z</time>
      </trkpt>
      <trkpt lat="44.56198" lon="1.77112">
        <ele>153</ele>
        <time>2021-08-31T09:31:48Z</time>
      </trkpt>
      <trkpt lat="44.56197" lon="1.77103">
        <ele>154</ele>
        <time>2021-08-31T09:31:51Z</time>
      </trkpt>
      <trkpt lat="44.56196" lon="1.77096">
        <ele>154</ele>
        <time>2021-08-31T09:31:53Z</time>
      </trkpt>
      <trkpt lat="44.56196" lon="1.77083">
        <ele>156</ele>
        <time>2021-08-31T09:31:57Z</time>
      </trkpt>
      <trkpt lat="44.56197" lon="1.77075">
        <ele>156</ele>
        <time>2021-08-31T09:31:59Z</time>
      </trkpt>
      <trkpt lat="44.56192" lon="1.77033">
        <ele>157</ele>
        <time>2021-08-31T09:32:09Z</time>
      </trkpt>
      <trkpt lat="44.56182" lon="1.76993">
        <ele>157</ele>
        <time>2021-08-31T09:32:21Z</time>
      </trkpt>
      <trkpt lat="44.56157" lon="1.76944">
        <ele>154</ele>
        <time>2021-08-31T09:32:33Z</time>
      </trkpt>
      <trkpt lat="44.56126" lon="1.76913">
        <ele>152</ele>
        <time>2021-08-31T09:32:42Z</time>
      </trkpt>
      <trkpt lat="44.56089" lon="1.76895">
        <ele>148</ele>
        <time>2021-08-31T09:32:50Z</time>
      </trkpt>
      <trkpt lat="44.56019" lon="1.76883">
        <ele>144</ele>
        <time>2021-08-31T09:33:04Z</time>
      </trkpt>
      <trkpt lat="44.55879" lon="1.76903">
        <ele>143</ele>
        <time>2021-08-31T09:33:30Z</time>
      </trkpt>
      <trkpt lat="44.55868" lon="1.76908">
        <ele>145</ele>
        <time>2021-08-31T09:33:32Z</time>
      </trkpt>
      <trkpt lat="44.55709" lon="1.77011">
        <ele>155</ele>
        <time>2021-08-31T09:34:02Z</time>
      </trkpt>
      <trkpt lat="44.5558" lon="1.77071">
        <ele>160</ele>
        <time>2021-08-31T09:34:26Z</time>
      </trkpt>
      <trkpt lat="44.55441" lon="1.77106">
        <ele>156</ele>
        <time>2021-08-31T09:34:56Z</time>
      </trkpt>
      <trkpt lat="44.55433" lon="1.77107">
        <ele>155</ele>
        <time>2021-08-31T09:34:58Z</time>
      </trkpt>
      <trkpt lat="44.5542" lon="1.77106">
        <ele>155</ele>
        <time>2021-08-31T09:35:02Z</time>
      </trkpt>
      <trkpt lat="44.55409" lon="1.7711">
        <ele>155</ele>
        <time>2021-08-31T09:35:06Z</time>
      </trkpt>
      <trkpt lat="44.55404" lon="1.77114">
        <ele>154</ele>
        <time>2021-08-31T09:35:08Z</time>
      </trkpt>
      <trkpt lat="44.55375" lon="1.77124">
        <ele>151</ele>
        <time>2021-08-31T09:35:19Z</time>
      </trkpt>
      <trkpt lat="44.5537" lon="1.77124">
        <ele>150</ele>
        <time>2021-08-31T09:35:21Z</time>
      </trkpt>
      <trkpt lat="44.55364" lon="1.7714">
        <ele>148</ele>
        <time>2021-08-31T09:35:26Z</time>
      </trkpt>
      <trkpt lat="44.55363" lon="1.77148">
        <ele>147</ele>
        <time>2021-08-31T09:35:28Z</time>
      </trkpt>
      <trkpt lat="44.55362" lon="1.77159">
        <ele>146</ele>
        <time>2021-08-31T09:35:30Z</time>
      </trkpt>
      <trkpt lat="44.55361" lon="1.77168">
        <ele>145</ele>
        <time>2021-08-31T09:35:32Z</time>
      </trkpt>
      <trkpt lat="44.55358" lon="1.77175">
        <ele>145</ele>
        <time>2021-08-31T09:35:34Z</time>
      </trkpt>
      <trkpt lat="44.55359" lon="1.77182">
        <ele>144</ele>
        <time>2021-08-31T09:35:36Z</time>
      </trkpt>
      <trkpt lat="44.55364" lon="1.77185">
        <ele>143</ele>
        <time>2021-08-31T09:35:40Z</time>
      </trkpt>
      <trkpt lat="44.5538" lon="1.77179">
        <ele>144</ele>
        <time>2021-08-31T09:35:46Z</time>
      </trkpt>
      <trkpt lat="44.55382" lon="1.77172">
        <ele>144</ele>
        <time>2021-08-31T09:35:49Z</time>
      </trkpt>
      <trkpt lat="44.55385" lon="1.77167">
        <ele>142</ele>
        <time>2021-08-31T09:51:54Z</time>
      </trkpt>
      <trkpt lat="44.55386" lon="1.77175">
        <ele>142</ele>
        <time>2021-08-31T09:52:34Z</time>
      </trkpt>
      <trkpt lat="44.55384" lon="1.77185">
        <ele>142</ele>
        <time>2021-08-31T09:52:37Z</time>
      </trkpt>
      <trkpt lat="44.55378" lon="1.77196">
        <ele>142</ele>
        <time>2021-08-31T09:52:41Z</time>
      </trkpt>
      <trkpt lat="44.55376" lon="1.77202">
        <ele>143</ele>
        <time>2021-08-31T09:52:43Z</time>
      </trkpt>
      <trkpt lat="44.55374" lon="1.77215">
        <ele>143</ele>
        <time>2021-08-31T09:52:47Z</time>
      </trkpt>
      <trkpt lat="44.55372" lon="1.77223">
        <ele>144</ele>
        <time>2021-08-31T09:52:50Z</time>
      </trkpt>
      <trkpt lat="44.55368" lon="1.77228">
        <ele>143</ele>
        <time>2021-08-31T09:52:53Z</time>
      </trkpt>
      <trkpt lat="44.55363" lon="1.77233">
        <ele>143</ele>
        <time>2021-08-31T09:52:56Z</time>
      </trkpt>
      <trkpt lat="44.55362" lon="1.77243">
        <ele>142</ele>
        <time>2021-08-31T09:52:59Z</time>
      </trkpt>
      <trkpt lat="44.55365" lon="1.77249">
        <ele>143</ele>
        <time>2021-08-31T09:53:04Z</time>
      </trkpt>
      <trkpt lat="44.55362" lon="1.77254">
        <ele>144</ele>
        <time>2021-08-31T09:53:08Z</time>
      </trkpt>
      <trkpt lat="44.55356" lon="1.77254">
        <ele>144</ele>
        <time>2021-08-31T09:53:23Z</time>
      </trkpt>
      <trkpt lat="44.55351" lon="1.77251">
        <ele>141</ele>
        <time>2021-08-31T09:53:26Z</time>
      </trkpt>
      <trkpt lat="44.55342" lon="1.77243">
        <ele>139</ele>
        <time>2021-08-31T09:53:32Z</time>
      </trkpt>
      <trkpt lat="44.55322" lon="1.77241">
        <ele>137</ele>
        <time>2021-08-31T09:53:41Z</time>
      </trkpt>
      <trkpt lat="44.55312" lon="1.7724">
        <ele>129</ele>
        <time>2021-08-31T09:54:25Z</time>
      </trkpt>
      <trkpt lat="44.5531" lon="1.7723">
        <ele>127</ele>
        <time>2021-08-31T10:00:55Z</time>
      </trkpt>
      <trkpt lat="44.55282" lon="1.7722">
        <ele>127</ele>
        <time>2021-08-31T10:01:48Z</time>
      </trkpt>
      <trkpt lat="44.55261" lon="1.77202">
        <ele>121</ele>
        <time>2021-08-31T10:01:57Z</time>
      </trkpt>
      <trkpt lat="44.55254" lon="1.7719">
        <ele>120</ele>
        <time>2021-08-31T10:02:03Z</time>
      </trkpt>
      <trkpt lat="44.55241" lon="1.77192">
        <ele>119</ele>
        <time>2021-08-31T10:02:07Z</time>
      </trkpt>
      <trkpt lat="44.55232" lon="1.77179">
        <ele>121</ele>
        <time>2021-08-31T10:02:14Z</time>
      </trkpt>
      <trkpt lat="44.5522" lon="1.7717">
        <ele>124</ele>
        <time>2021-08-31T10:02:22Z</time>
      </trkpt>
      <trkpt lat="44.55209" lon="1.77166">
        <ele>130</ele>
        <time>2021-08-31T10:02:27Z</time>
      </trkpt>
      <trkpt lat="44.55199" lon="1.77157">
        <ele>133</ele>
        <time>2021-08-31T10:02:31Z</time>
      </trkpt>
      <trkpt lat="44.55131" lon="1.77094">
        <ele>131</ele>
        <time>2021-08-31T10:02:59Z</time>
      </trkpt>
      <trkpt lat="44.55124" lon="1.7708">
        <ele>132</ele>
        <time>2021-08-31T10:03:05Z</time>
      </trkpt>
      <trkpt lat="44.55121" lon="1.77067">
        <ele>135</ele>
        <time>2021-08-31T10:03:12Z</time>
      </trkpt>
      <trkpt lat="44.5513" lon="1.77049">
        <ele>142</ele>
        <time>2021-08-31T10:03:26Z</time>
      </trkpt>
      <trkpt lat="44.5521" lon="1.76997">
        <ele>154</ele>
        <time>2021-08-31T10:03:58Z</time>
      </trkpt>
      <trkpt lat="44.55237" lon="1.76974">
        <ele>157</ele>
        <time>2021-08-31T10:04:11Z</time>
      </trkpt>
      <trkpt lat="44.55238" lon="1.76959">
        <ele>158</ele>
        <time>2021-08-31T10:04:16Z</time>
      </trkpt>
      <trkpt lat="44.5521" lon="1.76887">
        <ele>158</ele>
        <time>2021-08-31T10:04:36Z</time>
      </trkpt>
      <trkpt lat="44.55168" lon="1.76731">
        <ele>151</ele>
        <time>2021-08-31T10:05:06Z</time>
      </trkpt>
      <trkpt lat="44.55115" lon="1.7656">
        <ele>151</ele>
        <time>2021-08-31T10:05:36Z</time>
      </trkpt>
      <trkpt lat="44.55061" lon="1.76378">
        <ele>151</ele>
        <time>2021-08-31T10:06:07Z</time>
      </trkpt>
      <trkpt lat="44.55013" lon="1.76228">
        <ele>151</ele>
        <time>2021-08-31T10:06:32Z</time>
      </trkpt>
      <trkpt lat="44.54985" lon="1.7618">
        <ele>150</ele>
        <time>2021-08-31T10:06:41Z</time>
      </trkpt>
      <trkpt lat="44.5494" lon="1.76129">
        <ele>148</ele>
        <time>2021-08-31T10:06:53Z</time>
      </trkpt>
      <trkpt lat="44.5481" lon="1.76048">
        <ele>139</ele>
        <time>2021-08-31T10:07:23Z</time>
      </trkpt>
      <trkpt lat="44.54666" lon="1.75976">
        <ele>131</ele>
        <time>2021-08-31T10:07:54Z</time>
      </trkpt>
      <trkpt lat="44.54598" lon="1.75968">
        <ele>124</ele>
        <time>2021-08-31T10:08:08Z</time>
      </trkpt>
      <trkpt lat="44.54479" lon="1.76006">
        <ele>123</ele>
        <time>2021-08-31T10:08:32Z</time>
      </trkpt>
      <trkpt lat="44.54447" lon="1.76027">
        <ele>124</ele>
        <time>2021-08-31T10:08:39Z</time>
      </trkpt>
      <trkpt lat="44.54392" lon="1.76075">
        <ele>132</ele>
        <time>2021-08-31T10:08:51Z</time>
      </trkpt>
      <trkpt lat="44.54377" lon="1.76085">
        <ele>134</ele>
        <time>2021-08-31T10:08:54Z</time>
      </trkpt>
      <trkpt lat="44.54361" lon="1.76087">
        <ele>135</ele>
        <time>2021-08-31T10:08:57Z</time>
      </trkpt>
      <trkpt lat="44.54344" lon="1.76085">
        <ele>135</ele>
        <time>2021-08-31T10:09:00Z</time>
      </trkpt>
      <trkpt lat="44.54283" lon="1.76048">
        <ele>140</ele>
        <time>2021-08-31T10:09:11Z</time>
      </trkpt>
      <trkpt lat="44.54157" lon="1.75895">
        <ele>142</ele>
        <time>2021-08-31T10:09:37Z</time>
      </trkpt>
      <trkpt lat="44.54149" lon="1.75879">
        <ele>141</ele>
        <time>2021-08-31T10:09:39Z</time>
      </trkpt>
      <trkpt lat="44.54143" lon="1.75861">
        <ele>141</ele>
        <time>2021-08-31T10:09:41Z</time>
      </trkpt>
      <trkpt lat="44.5414" lon="1.75842">
        <ele>141</ele>
        <time>2021-08-31T10:09:43Z</time>
      </trkpt>
      <trkpt lat="44.54139" lon="1.75773">
        <ele>140</ele>
        <time>2021-08-31T10:09:50Z</time>
      </trkpt>
      <trkpt lat="44.54105" lon="1.75633">
        <ele>138</ele>
        <time>2021-08-31T10:10:05Z</time>
      </trkpt>
      <trkpt lat="44.54024" lon="1.75452">
        <ele>134</ele>
        <time>2021-08-31T10:10:28Z</time>
      </trkpt>
      <trkpt lat="44.53992" lon="1.754">
        <ele>132</ele>
        <time>2021-08-31T10:10:35Z</time>
      </trkpt>
      <trkpt lat="44.53922" lon="1.75325">
        <ele>130</ele>
        <time>2021-08-31T10:10:48Z</time>
      </trkpt>
      <trkpt lat="44.53889" lon="1.75304">
        <ele>128</ele>
        <time>2021-08-31T10:10:54Z</time>
      </trkpt>
      <trkpt lat="44.53859" lon="1.75292">
        <ele>124</ele>
        <time>2021-08-31T10:10:59Z</time>
      </trkpt>
      <trkpt lat="44.53805" lon="1.75293">
        <ele>120</ele>
        <time>2021-08-31T10:11:08Z</time>
      </trkpt>
      <trkpt lat="44.53699" lon="1.7535">
        <ele>118</ele>
        <time>2021-08-31T10:11:26Z</time>
      </trkpt>
      <trkpt lat="44.53681" lon="1.75371">
        <ele>118</ele>
        <time>2021-08-31T10:11:30Z</time>
      </trkpt>
      <trkpt lat="44.53623" lon="1.75484">
        <ele>125</ele>
        <time>2021-08-31T10:11:47Z</time>
      </trkpt>
      <trkpt lat="44.53616" lon="1.75512">
        <ele>127</ele>
        <time>2021-08-31T10:11:51Z</time>
      </trkpt>
      <trkpt lat="44.53606" lon="1.75543">
        <ele>133</ele>
        <time>2021-08-31T10:11:55Z</time>
      </trkpt>
      <trkpt lat="44.53552" lon="1.75617">
        <ele>139</ele>
        <time>2021-08-31T10:12:07Z</time>
      </trkpt>
      <trkpt lat="44.53537" lon="1.75632">
        <ele>139</ele>
        <time>2021-08-31T10:12:10Z</time>
      </trkpt>
      <trkpt lat="44.53531" lon="1.75636">
        <ele>140</ele>
        <time>2021-08-31T10:12:11Z</time>
      </trkpt>
      <trkpt lat="44.53524" lon="1.75638">
        <ele>139</ele>
        <time>2021-08-31T10:12:12Z</time>
      </trkpt>
      <trkpt lat="44.53511" lon="1.7564">
        <ele>140</ele>
        <time>2021-08-31T10:12:14Z</time>
      </trkpt>
      <trkpt lat="44.53505" lon="1.75639">
        <ele>141</ele>
        <time>2021-08-31T10:12:15Z</time>
      </trkpt>
      <trkpt lat="44.53491" lon="1.75626">
        <ele>144</ele>
        <time>2021-08-31T10:12:18Z</time>
      </trkpt>
      <trkpt lat="44.53399" lon="1.75443">
        <ele>141</ele>
        <time>2021-08-31T10:12:45Z</time>
      </trkpt>
      <trkpt lat="44.53372" lon="1.75331">
        <ele>138</ele>
        <time>2021-08-31T10:13:00Z</time>
      </trkpt>
      <trkpt lat="44.53368" lon="1.75295">
        <ele>138</ele>
        <time>2021-08-31T10:13:05Z</time>
      </trkpt>
      <trkpt lat="44.53382" lon="1.75232">
        <ele>139</ele>
        <time>2021-08-31T10:13:14Z</time>
      </trkpt>
      <trkpt lat="44.53402" lon="1.75169">
        <ele>142</ele>
        <time>2021-08-31T10:13:24Z</time>
      </trkpt>
      <trkpt lat="44.53404" lon="1.75156">
        <ele>143</ele>
        <time>2021-08-31T10:13:26Z</time>
      </trkpt>
      <trkpt lat="44.53476" lon="1.74941">
        <ele>150</ele>
        <time>2021-08-31T10:13:57Z</time>
      </trkpt>
      <trkpt lat="44.53501" lon="1.74868">
        <ele>151</ele>
        <time>2021-08-31T10:14:07Z</time>
      </trkpt>
      <trkpt lat="44.53504" lon="1.74854">
        <ele>151</ele>
        <time>2021-08-31T10:14:09Z</time>
      </trkpt>
      <trkpt lat="44.53502" lon="1.74832">
        <ele>149</ele>
        <time>2021-08-31T10:14:12Z</time>
      </trkpt>
      <trkpt lat="44.53496" lon="1.74817">
        <ele>147</ele>
        <time>2021-08-31T10:14:14Z</time>
      </trkpt>
      <trkpt lat="44.53464" lon="1.74774">
        <ele>145</ele>
        <time>2021-08-31T10:14:22Z</time>
      </trkpt>
      <trkpt lat="44.5335" lon="1.74642">
        <ele>136</ele>
        <time>2021-08-31T10:14:52Z</time>
      </trkpt>
      <trkpt lat="44.5323" lon="1.74495">
        <ele>126</ele>
        <time>2021-08-31T10:15:22Z</time>
      </trkpt>
      <trkpt lat="44.53149" lon="1.74393">
        <ele>126</ele>
        <time>2021-08-31T10:15:41Z</time>
      </trkpt>
      <trkpt lat="44.53049" lon="1.74189">
        <ele>121</ele>
        <time>2021-08-31T10:16:12Z</time>
      </trkpt>
      <trkpt lat="44.52961" lon="1.73983">
        <ele>129</ele>
        <time>2021-08-31T10:16:42Z</time>
      </trkpt>
      <trkpt lat="44.52875" lon="1.73776">
        <ele>133</ele>
        <time>2021-08-31T10:17:12Z</time>
      </trkpt>
      <trkpt lat="44.52835" lon="1.7366">
        <ele>132</ele>
        <time>2021-08-31T10:17:29Z</time>
      </trkpt>
      <trkpt lat="44.52786" lon="1.73426">
        <ele>129</ele>
        <time>2021-08-31T10:17:59Z</time>
      </trkpt>
      <trkpt lat="44.52731" lon="1.73182">
        <ele>128</ele>
        <time>2021-08-31T10:18:30Z</time>
      </trkpt>
      <trkpt lat="44.52698" lon="1.73043">
        <ele>126</ele>
        <time>2021-08-31T10:18:48Z</time>
      </trkpt>
      <trkpt lat="44.52685" lon="1.73016">
        <ele>125</ele>
        <time>2021-08-31T10:18:52Z</time>
      </trkpt>
      <trkpt lat="44.52547" lon="1.72833">
        <ele>121</ele>
        <time>2021-08-31T10:19:23Z</time>
      </trkpt>
      <trkpt lat="44.5252" lon="1.72809">
        <ele>121</ele>
        <time>2021-08-31T10:19:29Z</time>
      </trkpt>
      <trkpt lat="44.52494" lon="1.72796">
        <ele>123</ele>
        <time>2021-08-31T10:19:34Z</time>
      </trkpt>
      <trkpt lat="44.52362" lon="1.72771">
        <ele>119</ele>
        <time>2021-08-31T10:19:57Z</time>
      </trkpt>
      <trkpt lat="44.52233" lon="1.72787">
        <ele>111</ele>
        <time>2021-08-31T10:20:19Z</time>
      </trkpt>
      <trkpt lat="44.52145" lon="1.72781">
        <ele>111</ele>
        <time>2021-08-31T10:20:33Z</time>
      </trkpt>
      <trkpt lat="44.52111" lon="1.72788">
        <ele>114</ele>
        <time>2021-08-31T10:20:39Z</time>
      </trkpt>
      <trkpt lat="44.51978" lon="1.72836">
        <ele>113</ele>
        <time>2021-08-31T10:21:05Z</time>
      </trkpt>
      <trkpt lat="44.51839" lon="1.72871">
        <ele>112</ele>
        <time>2021-08-31T10:21:31Z</time>
      </trkpt>
      <trkpt lat="44.51813" lon="1.72867">
        <ele>116</ele>
        <time>2021-08-31T10:21:37Z</time>
      </trkpt>
      <trkpt lat="44.51793" lon="1.72857">
        <ele>118</ele>
        <time>2021-08-31T10:21:43Z</time>
      </trkpt>
      <trkpt lat="44.5177" lon="1.72852">
        <ele>121</ele>
        <time>2021-08-31T10:21:51Z</time>
      </trkpt>
      <trkpt lat="44.51764" lon="1.7285">
        <ele>122</ele>
        <time>2021-08-31T10:21:53Z</time>
      </trkpt>
      <trkpt lat="44.51732" lon="1.72839">
        <ele>122</ele>
        <time>2021-08-31T10:22:03Z</time>
      </trkpt>
      <trkpt lat="44.51664" lon="1.7279">
        <ele>129</ele>
        <time>2021-08-31T10:22:23Z</time>
      </trkpt>
      <trkpt lat="44.51636" lon="1.72756">
        <ele>130</ele>
        <time>2021-08-31T10:22:33Z</time>
      </trkpt>
      <trkpt lat="44.51615" lon="1.72712">
        <ele>134</ele>
        <time>2021-08-31T10:22:45Z</time>
      </trkpt>
      <trkpt lat="44.51594" lon="1.7264">
        <ele>136</ele>
        <time>2021-08-31T10:22:59Z</time>
      </trkpt>
      <trkpt lat="44.5158" lon="1.7251">
        <ele>135</ele>
        <time>2021-08-31T10:23:20Z</time>
      </trkpt>
      <trkpt lat="44.5158" lon="1.72491">
        <ele>134</ele>
        <time>2021-08-31T10:23:23Z</time>
      </trkpt>
      <trkpt lat="44.51579" lon="1.72434">
        <ele>131</ele>
        <time>2021-08-31T10:23:32Z</time>
      </trkpt>
      <trkpt lat="44.51627" lon="1.7222">
        <ele>129</ele>
        <time>2021-08-31T10:24:03Z</time>
      </trkpt>
      <trkpt lat="44.51648" lon="1.72122">
        <ele>130</ele>
        <time>2021-08-31T10:24:17Z</time>
      </trkpt>
      <trkpt lat="44.51649" lon="1.72108">
        <ele>131</ele>
        <time>2021-08-31T10:24:19Z</time>
      </trkpt>
      <trkpt lat="44.51663" lon="1.72046">
        <ele>136</ele>
        <time>2021-08-31T10:24:28Z</time>
      </trkpt>
      <trkpt lat="44.51669" lon="1.72032">
        <ele>137</ele>
        <time>2021-08-31T10:24:30Z</time>
      </trkpt>
      <trkpt lat="44.51694" lon="1.71999">
        <ele>139</ele>
        <time>2021-08-31T10:24:36Z</time>
      </trkpt>
      <trkpt lat="44.51717" lon="1.71978">
        <ele>142</ele>
        <time>2021-08-31T10:24:41Z</time>
      </trkpt>
      <trkpt lat="44.51739" lon="1.71974">
        <ele>144</ele>
        <time>2021-08-31T10:24:45Z</time>
      </trkpt>
      <trkpt lat="44.518" lon="1.71974">
        <ele>147</ele>
        <time>2021-08-31T10:24:58Z</time>
      </trkpt>
      <trkpt lat="44.51886" lon="1.71973">
        <ele>145</ele>
        <time>2021-08-31T10:25:27Z</time>
      </trkpt>
      <trkpt lat="44.51888" lon="1.71967">
        <ele>145</ele>
        <time>2021-08-31T10:25:29Z</time>
      </trkpt>
      <trkpt lat="44.51884" lon="1.71962">
        <ele>145</ele>
        <time>2021-08-31T10:25:31Z</time>
      </trkpt>
      <trkpt lat="44.51876" lon="1.71962">
        <ele>144</ele>
        <time>2021-08-31T10:25:33Z</time>
      </trkpt>
      <trkpt lat="44.51871" lon="1.71965">
        <ele>144</ele>
        <time>2021-08-31T10:25:35Z</time>
      </trkpt>
      <trkpt lat="44.51867" lon="1.71959">
        <ele>143</ele>
        <time>2021-08-31T10:25:39Z</time>
      </trkpt>
      <trkpt lat="44.51848" lon="1.7195">
        <ele>141</ele>
        <time>2021-08-31T10:26:05Z</time>
      </trkpt>
      <trkpt lat="44.5185" lon="1.71942">
        <ele>138</ele>
        <time>2021-08-31T10:35:11Z</time>
      </trkpt>
      <trkpt lat="44.51854" lon="1.7194">
        <ele>135</ele>
        <time>2021-08-31T10:37:37Z</time>
      </trkpt>
      <trkpt lat="44.51852" lon="1.71932">
        <ele>137</ele>
        <time>2021-08-31T10:52:36Z</time>
      </trkpt>
      <trkpt lat="44.51848" lon="1.71928">
        <ele>146</ele>
        <time>2021-08-31T10:54:50Z</time>
      </trkpt>
      <trkpt lat="44.51844" lon="1.7193">
        <ele>147</ele>
        <time>2021-08-31T10:58:05Z</time>
      </trkpt>
      <trkpt lat="44.5184" lon="1.71935">
        <ele>149</ele>
        <time>2021-08-31T10:58:09Z</time>
      </trkpt>
      <trkpt lat="44.51835" lon="1.71936">
        <ele>149</ele>
        <time>2021-08-31T10:58:15Z</time>
      </trkpt>
      <trkpt lat="44.51833" lon="1.71943">
        <ele>151</ele>
        <time>2021-08-31T10:58:23Z</time>
      </trkpt>
      <trkpt lat="44.51836" lon="1.71949">
        <ele>152</ele>
        <time>2021-08-31T10:58:28Z</time>
      </trkpt>
      <trkpt lat="44.51838" lon="1.71957">
        <ele>151</ele>
        <time>2021-08-31T10:58:32Z</time>
      </trkpt>
      <trkpt lat="44.51841" lon="1.71958">
        <ele>153</ele>
        <time>2021-08-31T11:01:08Z</time>
      </trkpt>
      <trkpt lat="44.51846" lon="1.71954">
        <ele>153</ele>
        <time>2021-08-31T11:01:10Z</time>
      </trkpt>
      <trkpt lat="44.51888" lon="1.71957">
        <ele>156</ele>
        <time>2021-08-31T11:01:26Z</time>
      </trkpt>
      <trkpt lat="44.51904" lon="1.71967">
        <ele>154</ele>
        <time>2021-08-31T11:01:33Z</time>
      </trkpt>
      <trkpt lat="44.51974" lon="1.71912">
        <ele>151</ele>
        <time>2021-08-31T11:01:59Z</time>
      </trkpt>
      <trkpt lat="44.51995" lon="1.71815">
        <ele>151</ele>
        <time>2021-08-31T11:02:19Z</time>
      </trkpt>
      <trkpt lat="44.52001" lon="1.7174">
        <ele>149</ele>
        <time>2021-08-31T11:02:33Z</time>
      </trkpt>
      <trkpt lat="44.51999" lon="1.71701">
        <ele>149</ele>
        <time>2021-08-31T11:02:41Z</time>
      </trkpt>
      <trkpt lat="44.51972" lon="1.7163">
        <ele>149</ele>
        <time>2021-08-31T11:02:54Z</time>
      </trkpt>
      <trkpt lat="44.51963" lon="1.71615">
        <ele>151</ele>
        <time>2021-08-31T11:02:57Z</time>
      </trkpt>
      <trkpt lat="44.51883" lon="1.71508">
        <ele>154</ele>
        <time>2021-08-31T11:03:23Z</time>
      </trkpt>
      <trkpt lat="44.51839" lon="1.71473">
        <ele>153</ele>
        <time>2021-08-31T11:03:35Z</time>
      </trkpt>
      <trkpt lat="44.51831" lon="1.71469">
        <ele>153</ele>
        <time>2021-08-31T11:03:37Z</time>
      </trkpt>
      <trkpt lat="44.51705" lon="1.71394">
        <ele>142</ele>
        <time>2021-08-31T11:04:08Z</time>
      </trkpt>
      <trkpt lat="44.51577" lon="1.71304">
        <ele>136</ele>
        <time>2021-08-31T11:04:39Z</time>
      </trkpt>
      <trkpt lat="44.51536" lon="1.7126">
        <ele>134</ele>
        <time>2021-08-31T11:04:49Z</time>
      </trkpt>
      <trkpt lat="44.5151" lon="1.71214">
        <ele>133</ele>
        <time>2021-08-31T11:04:57Z</time>
      </trkpt>
      <trkpt lat="44.51467" lon="1.71087">
        <ele>134</ele>
        <time>2021-08-31T11:05:16Z</time>
      </trkpt>
      <trkpt lat="44.5146" lon="1.71055">
        <ele>137</ele>
        <time>2021-08-31T11:05:21Z</time>
      </trkpt>
      <trkpt lat="44.5146" lon="1.7101">
        <ele>143</ele>
        <time>2021-08-31T11:05:28Z</time>
      </trkpt>
      <trkpt lat="44.51507" lon="1.70801">
        <ele>143</ele>
        <time>2021-08-31T11:05:58Z</time>
      </trkpt>
      <trkpt lat="44.51582" lon="1.70605">
        <ele>146</ele>
        <time>2021-08-31T11:06:28Z</time>
      </trkpt>
      <trkpt lat="44.51683" lon="1.70421">
        <ele>148</ele>
        <time>2021-08-31T11:06:59Z</time>
      </trkpt>
      <trkpt lat="44.51768" lon="1.70276">
        <ele>151</ele>
        <time>2021-08-31T11:07:24Z</time>
      </trkpt>
      <trkpt lat="44.51899" lon="1.70132">
        <ele>159</ele>
        <time>2021-08-31T11:07:56Z</time>
      </trkpt>
      <trkpt lat="44.5194" lon="1.70092">
        <ele>161</ele>
        <time>2021-08-31T11:08:06Z</time>
      </trkpt>
      <trkpt lat="44.51953" lon="1.70073">
        <ele>161</ele>
        <time>2021-08-31T11:08:10Z</time>
      </trkpt>
      <trkpt lat="44.51972" lon="1.70026">
        <ele>162</ele>
        <time>2021-08-31T11:08:18Z</time>
      </trkpt>
      <trkpt lat="44.51975" lon="1.69989">
        <ele>161</ele>
        <time>2021-08-31T11:08:24Z</time>
      </trkpt>
      <trkpt lat="44.51957" lon="1.69824">
        <ele>174</ele>
        <time>2021-08-31T11:08:51Z</time>
      </trkpt>
      <trkpt lat="44.51949" lon="1.69794">
        <ele>179</ele>
        <time>2021-08-31T11:08:56Z</time>
      </trkpt>
      <trkpt lat="44.51932" lon="1.6974">
        <ele>188</ele>
        <time>2021-08-31T11:09:04Z</time>
      </trkpt>
      <trkpt lat="44.51848" lon="1.69558">
        <ele>189</ele>
        <time>2021-08-31T11:09:33Z</time>
      </trkpt>
      <trkpt lat="44.51839" lon="1.6954">
        <ele>188</ele>
        <time>2021-08-31T11:09:37Z</time>
      </trkpt>
      <trkpt lat="44.51781" lon="1.69383">
        <ele>184</ele>
        <time>2021-08-31T11:10:03Z</time>
      </trkpt>
      <trkpt lat="44.51778" lon="1.69371">
        <ele>181</ele>
        <time>2021-08-31T11:10:05Z</time>
      </trkpt>
      <trkpt lat="44.51765" lon="1.6928">
        <ele>165</ele>
        <time>2021-08-31T11:10:19Z</time>
      </trkpt>
      <trkpt lat="44.51765" lon="1.69271">
        <ele>163</ele>
        <time>2021-08-31T11:10:21Z</time>
      </trkpt>
      <trkpt lat="44.51765" lon="1.69263">
        <ele>161</ele>
        <time>2021-08-31T11:10:23Z</time>
      </trkpt>
      <trkpt lat="44.51762" lon="1.69256">
        <ele>160</ele>
        <time>2021-08-31T11:10:25Z</time>
      </trkpt>
      <trkpt lat="44.51759" lon="1.6925">
        <ele>159</ele>
        <time>2021-08-31T11:10:27Z</time>
      </trkpt>
      <trkpt lat="44.51756" lon="1.69244">
        <ele>159</ele>
        <time>2021-08-31T11:10:29Z</time>
      </trkpt>
      <trkpt lat="44.51754" lon="1.69239">
        <ele>158</ele>
        <time>2021-08-31T11:10:31Z</time>
      </trkpt>
      <trkpt lat="44.5172" lon="1.69076">
        <ele>144</ele>
        <time>2021-08-31T11:11:02Z</time>
      </trkpt>
      <trkpt lat="44.5167" lon="1.6891">
        <ele>150</ele>
        <time>2021-08-31T11:11:26Z</time>
      </trkpt>
      <trkpt lat="44.51589" lon="1.68703">
        <ele>186</ele>
        <time>2021-08-31T11:11:57Z</time>
      </trkpt>
      <trkpt lat="44.51587" lon="1.68673">
        <ele>189</ele>
        <time>2021-08-31T11:12:01Z</time>
      </trkpt>
      <trkpt lat="44.51589" lon="1.68656">
        <ele>186</ele>
        <time>2021-08-31T11:12:03Z</time>
      </trkpt>
      <trkpt lat="44.51591" lon="1.68648">
        <ele>184</ele>
        <time>2021-08-31T11:12:04Z</time>
      </trkpt>
      <trkpt lat="44.51609" lon="1.68535">
        <ele>157</ele>
        <time>2021-08-31T11:12:18Z</time>
      </trkpt>
      <trkpt lat="44.51624" lon="1.68472">
        <ele>152</ele>
        <time>2021-08-31T11:12:27Z</time>
      </trkpt>
      <trkpt lat="44.51658" lon="1.6841">
        <ele>152</ele>
        <time>2021-08-31T11:12:37Z</time>
      </trkpt>
      <trkpt lat="44.51707" lon="1.68347">
        <ele>153</ele>
        <time>2021-08-31T11:12:50Z</time>
      </trkpt>
      <trkpt lat="44.51801" lon="1.6826">
        <ele>160</ele>
        <time>2021-08-31T11:13:11Z</time>
      </trkpt>
      <trkpt lat="44.51928" lon="1.68114">
        <ele>165</ele>
        <time>2021-08-31T11:13:42Z</time>
      </trkpt>
      <trkpt lat="44.51999" lon="1.67964">
        <ele>163</ele>
        <time>2021-08-31T11:14:07Z</time>
      </trkpt>
      <trkpt lat="44.52007" lon="1.67941">
        <ele>162</ele>
        <time>2021-08-31T11:14:11Z</time>
      </trkpt>
      <trkpt lat="44.52022" lon="1.67917">
        <ele>161</ele>
        <time>2021-08-31T11:14:15Z</time>
      </trkpt>
      <trkpt lat="44.52041" lon="1.679">
        <ele>161</ele>
        <time>2021-08-31T11:14:19Z</time>
      </trkpt>
      <trkpt lat="44.521" lon="1.67874">
        <ele>162</ele>
        <time>2021-08-31T11:14:31Z</time>
      </trkpt>
      <trkpt lat="44.52193" lon="1.67772">
        <ele>165</ele>
        <time>2021-08-31T11:14:53Z</time>
      </trkpt>
      <trkpt lat="44.52208" lon="1.6775">
        <ele>166</ele>
        <time>2021-08-31T11:14:57Z</time>
      </trkpt>
      <trkpt lat="44.52228" lon="1.67687">
        <ele>165</ele>
        <time>2021-08-31T11:15:07Z</time>
      </trkpt>
      <trkpt lat="44.52231" lon="1.67653">
        <ele>165</ele>
        <time>2021-08-31T11:15:13Z</time>
      </trkpt>
      <trkpt lat="44.52219" lon="1.67631">
        <ele>164</ele>
        <time>2021-08-31T11:15:20Z</time>
      </trkpt>
      <trkpt lat="44.5221" lon="1.67591">
        <ele>164</ele>
        <time>2021-08-31T11:15:26Z</time>
      </trkpt>
      <trkpt lat="44.52203" lon="1.67548">
        <ele>164</ele>
        <time>2021-08-31T11:15:35Z</time>
      </trkpt>
      <trkpt lat="44.52179" lon="1.67343">
        <ele>171</ele>
        <time>2021-08-31T11:16:12Z</time>
      </trkpt>
      <trkpt lat="44.52176" lon="1.67336">
        <ele>179</ele>
        <time>2021-08-31T11:16:13Z</time>
      </trkpt>
      <trkpt lat="44.5216" lon="1.67337">
        <ele>173</ele>
        <time>2021-08-31T11:16:14Z</time>
      </trkpt>
      <trkpt lat="44.52154" lon="1.67294">
        <ele>154</ele>
        <time>2021-08-31T11:16:23Z</time>
      </trkpt>
      <trkpt lat="44.52157" lon="1.67283">
        <ele>151</ele>
        <time>2021-08-31T11:16:25Z</time>
      </trkpt>
      <trkpt lat="44.52158" lon="1.67271">
        <ele>146</ele>
        <time>2021-08-31T11:16:27Z</time>
      </trkpt>
      <trkpt lat="44.52164" lon="1.6723">
        <ele>134</ele>
        <time>2021-08-31T11:16:34Z</time>
      </trkpt>
      <trkpt lat="44.52166" lon="1.67213">
        <ele>132</ele>
        <time>2021-08-31T11:16:37Z</time>
      </trkpt>
      <trkpt lat="44.52167" lon="1.67204">
        <ele>128</ele>
        <time>2021-08-31T11:16:39Z</time>
      </trkpt>
      <trkpt lat="44.52164" lon="1.67196">
        <ele>127</ele>
        <time>2021-08-31T11:16:40Z</time>
      </trkpt>
      <trkpt lat="44.52155" lon="1.67157">
        <ele>122</ele>
        <time>2021-08-31T11:16:44Z</time>
      </trkpt>
      <trkpt lat="44.52155" lon="1.67138">
        <ele>121</ele>
        <time>2021-08-31T11:16:46Z</time>
      </trkpt>
      <trkpt lat="44.52156" lon="1.67119">
        <ele>119</ele>
        <time>2021-08-31T11:16:48Z</time>
      </trkpt>
      <trkpt lat="44.52152" lon="1.67093">
        <ele>117</ele>
        <time>2021-08-31T11:16:51Z</time>
      </trkpt>
      <trkpt lat="44.52136" lon="1.67019">
        <ele>110</ele>
        <time>2021-08-31T11:17:02Z</time>
      </trkpt>
      <trkpt lat="44.52136" lon="1.66995">
        <ele>106</ele>
        <time>2021-08-31T11:17:07Z</time>
      </trkpt>
      <trkpt lat="44.52133" lon="1.66979">
        <ele>104</ele>
        <time>2021-08-31T11:17:13Z</time>
      </trkpt>
      <trkpt lat="44.5212" lon="1.66981">
        <ele>106</ele>
        <time>2021-08-31T11:17:17Z</time>
      </trkpt>
      <trkpt lat="44.52106" lon="1.6698">
        <ele>118</ele>
        <time>2021-08-31T11:17:21Z</time>
      </trkpt>
      <trkpt lat="44.52082" lon="1.66973">
        <ele>127</ele>
        <time>2021-08-31T11:17:26Z</time>
      </trkpt>
      <trkpt lat="44.52073" lon="1.6697">
        <ele>127</ele>
        <time>2021-08-31T11:17:28Z</time>
      </trkpt>
      <trkpt lat="44.52065" lon="1.66968">
        <ele>125</ele>
        <time>2021-08-31T11:17:30Z</time>
      </trkpt>
      <trkpt lat="44.52055" lon="1.66958">
        <ele>122</ele>
        <time>2021-08-31T11:17:33Z</time>
      </trkpt>
      <trkpt lat="44.52044" lon="1.66955">
        <ele>120</ele>
        <time>2021-08-31T11:17:36Z</time>
      </trkpt>
      <trkpt lat="44.51889" lon="1.66947">
        <ele>126</ele>
        <time>2021-08-31T11:18:06Z</time>
      </trkpt>
      <trkpt lat="44.51744" lon="1.67021">
        <ele>123</ele>
        <time>2021-08-31T11:18:35Z</time>
      </trkpt>
      <trkpt lat="44.51693" lon="1.67032">
        <ele>122</ele>
        <time>2021-08-31T11:18:45Z</time>
      </trkpt>
      <trkpt lat="44.51627" lon="1.67028">
        <ele>127</ele>
        <time>2021-08-31T11:18:58Z</time>
      </trkpt>
      <trkpt lat="44.51521" lon="1.67054">
        <ele>132</ele>
        <time>2021-08-31T11:19:19Z</time>
      </trkpt>
      <trkpt lat="44.51479" lon="1.67072">
        <ele>134</ele>
        <time>2021-08-31T11:19:26Z</time>
      </trkpt>
      <trkpt lat="44.51462" lon="1.67076">
        <ele>134</ele>
        <time>2021-08-31T11:19:29Z</time>
      </trkpt>
      <trkpt lat="44.51452" lon="1.67081">
        <ele>134</ele>
        <time>2021-08-31T11:19:31Z</time>
      </trkpt>
      <trkpt lat="44.51391" lon="1.67107">
        <ele>134</ele>
        <time>2021-08-31T11:19:42Z</time>
      </trkpt>
      <trkpt lat="44.51382" lon="1.67111">
        <ele>133</ele>
        <time>2021-08-31T11:19:44Z</time>
      </trkpt>
      <trkpt lat="44.51373" lon="1.67115">
        <ele>133</ele>
        <time>2021-08-31T11:19:46Z</time>
      </trkpt>
      <trkpt lat="44.51366" lon="1.67119">
        <ele>133</ele>
        <time>2021-08-31T11:19:48Z</time>
      </trkpt>
      <trkpt lat="44.51351" lon="1.67122">
        <ele>133</ele>
        <time>2021-08-31T11:19:51Z</time>
      </trkpt>
      <trkpt lat="44.51328" lon="1.67122">
        <ele>133</ele>
        <time>2021-08-31T11:19:55Z</time>
      </trkpt>
      <trkpt lat="44.51315" lon="1.67115">
        <ele>134</ele>
        <time>2021-08-31T11:19:57Z</time>
      </trkpt>
      <trkpt lat="44.51284" lon="1.67056">
        <ele>143</ele>
        <time>2021-08-31T11:20:06Z</time>
      </trkpt>
      <trkpt lat="44.51279" lon="1.67035">
        <ele>145</ele>
        <time>2021-08-31T11:20:09Z</time>
      </trkpt>
      <trkpt lat="44.51263" lon="1.66913">
        <ele>148</ele>
        <time>2021-08-31T11:20:25Z</time>
      </trkpt>
      <trkpt lat="44.51187" lon="1.66716">
        <ele>150</ele>
        <time>2021-08-31T11:20:55Z</time>
      </trkpt>
      <trkpt lat="44.51111" lon="1.6656">
        <ele>156</ele>
        <time>2021-08-31T11:21:20Z</time>
      </trkpt>
      <trkpt lat="44.51005" lon="1.66401">
        <ele>148</ele>
        <time>2021-08-31T11:21:51Z</time>
      </trkpt>
      <trkpt lat="44.50979" lon="1.6638">
        <ele>146</ele>
        <time>2021-08-31T11:21:58Z</time>
      </trkpt>
      <trkpt lat="44.50972" lon="1.66377">
        <ele>146</ele>
        <time>2021-08-31T11:22:00Z</time>
      </trkpt>
      <trkpt lat="44.50965" lon="1.66377">
        <ele>145</ele>
        <time>2021-08-31T11:22:02Z</time>
      </trkpt>
      <trkpt lat="44.50941" lon="1.66386">
        <ele>146</ele>
        <time>2021-08-31T11:22:08Z</time>
      </trkpt>
      <trkpt lat="44.50924" lon="1.66385">
        <ele>146</ele>
        <time>2021-08-31T11:22:12Z</time>
      </trkpt>
      <trkpt lat="44.50908" lon="1.66378">
        <ele>146</ele>
        <time>2021-08-31T11:22:15Z</time>
      </trkpt>
      <trkpt lat="44.50889" lon="1.66369">
        <ele>143</ele>
        <time>2021-08-31T11:22:18Z</time>
      </trkpt>
      <trkpt lat="44.5085" lon="1.66384">
        <ele>138</ele>
        <time>2021-08-31T11:22:25Z</time>
      </trkpt>
      <trkpt lat="44.50838" lon="1.6638">
        <ele>136</ele>
        <time>2021-08-31T11:22:27Z</time>
      </trkpt>
      <trkpt lat="44.50825" lon="1.66376">
        <ele>132</ele>
        <time>2021-08-31T11:22:29Z</time>
      </trkpt>
      <trkpt lat="44.50796" lon="1.66373">
        <ele>126</ele>
        <time>2021-08-31T11:22:35Z</time>
      </trkpt>
      <trkpt lat="44.50781" lon="1.66364">
        <ele>123</ele>
        <time>2021-08-31T11:22:38Z</time>
      </trkpt>
      <trkpt lat="44.50776" lon="1.66358">
        <ele>122</ele>
        <time>2021-08-31T11:22:39Z</time>
      </trkpt>
      <trkpt lat="44.50768" lon="1.66347">
        <ele>120</ele>
        <time>2021-08-31T11:22:41Z</time>
      </trkpt>
      <trkpt lat="44.50763" lon="1.66335">
        <ele>118</ele>
        <time>2021-08-31T11:22:43Z</time>
      </trkpt>
      <trkpt lat="44.50763" lon="1.66313">
        <ele>118</ele>
        <time>2021-08-31T11:22:47Z</time>
      </trkpt>
      <trkpt lat="44.50765" lon="1.66301">
        <ele>118</ele>
        <time>2021-08-31T11:22:49Z</time>
      </trkpt>
      <trkpt lat="44.50767" lon="1.66286">
        <ele>120</ele>
        <time>2021-08-31T11:22:51Z</time>
      </trkpt>
      <trkpt lat="44.50768" lon="1.66279">
        <ele>123</ele>
        <time>2021-08-31T11:22:52Z</time>
      </trkpt>
      <trkpt lat="44.50835" lon="1.66104">
        <ele>137</ele>
        <time>2021-08-31T11:23:22Z</time>
      </trkpt>
      <trkpt lat="44.50849" lon="1.66072">
        <ele>138</ele>
        <time>2021-08-31T11:23:28Z</time>
      </trkpt>
      <trkpt lat="44.50852" lon="1.66062">
        <ele>138</ele>
        <time>2021-08-31T11:23:30Z</time>
      </trkpt>
      <trkpt lat="44.50862" lon="1.66044">
        <ele>139</ele>
        <time>2021-08-31T11:23:34Z</time>
      </trkpt>
      <trkpt lat="44.5087" lon="1.66002">
        <ele>141</ele>
        <time>2021-08-31T11:23:42Z</time>
      </trkpt>
      <trkpt lat="44.50861" lon="1.65913">
        <ele>143</ele>
        <time>2021-08-31T11:23:59Z</time>
      </trkpt>
      <trkpt lat="44.5085" lon="1.65865">
        <ele>144</ele>
        <time>2021-08-31T11:24:08Z</time>
      </trkpt>
      <trkpt lat="44.50812" lon="1.65806">
        <ele>146</ele>
        <time>2021-08-31T11:24:23Z</time>
      </trkpt>
      <trkpt lat="44.50807" lon="1.65798">
        <ele>146</ele>
        <time>2021-08-31T11:24:25Z</time>
      </trkpt>
      <trkpt lat="44.50769" lon="1.65749">
        <ele>147</ele>
        <time>2021-08-31T11:24:40Z</time>
      </trkpt>
      <trkpt lat="44.50752" lon="1.6573">
        <ele>147</ele>
        <time>2021-08-31T11:24:47Z</time>
      </trkpt>
      <trkpt lat="44.5074" lon="1.65723">
        <ele>146</ele>
        <time>2021-08-31T11:24:51Z</time>
      </trkpt>
      <trkpt lat="44.50708" lon="1.65698">
        <ele>147</ele>
        <time>2021-08-31T11:25:01Z</time>
      </trkpt>
      <trkpt lat="44.50702" lon="1.65691">
        <ele>144</ele>
        <time>2021-08-31T11:25:04Z</time>
      </trkpt>
      <trkpt lat="44.50648" lon="1.65653">
        <ele>131</ele>
        <time>2021-08-31T11:25:22Z</time>
      </trkpt>
      <trkpt lat="44.50643" lon="1.65651">
        <ele>130</ele>
        <time>2021-08-31T11:25:24Z</time>
      </trkpt>
      <trkpt lat="44.5064" lon="1.65644">
        <ele>130</ele>
        <time>2021-08-31T11:25:27Z</time>
      </trkpt>
      <trkpt lat="44.50587" lon="1.65621">
        <ele>130</ele>
        <time>2021-08-31T11:25:41Z</time>
      </trkpt>
      <trkpt lat="44.5058" lon="1.65618">
        <ele>132</ele>
        <time>2021-08-31T11:25:43Z</time>
      </trkpt>
      <trkpt lat="44.50573" lon="1.65614">
        <ele>135</ele>
        <time>2021-08-31T11:25:45Z</time>
      </trkpt>
      <trkpt lat="44.50567" lon="1.65611">
        <ele>138</ele>
        <time>2021-08-31T11:25:47Z</time>
      </trkpt>
      <trkpt lat="44.50557" lon="1.65605">
        <ele>141</ele>
        <time>2021-08-31T11:25:52Z</time>
      </trkpt>
      <trkpt lat="44.50551" lon="1.65605">
        <ele>141</ele>
        <time>2021-08-31T11:25:57Z</time>
      </trkpt>
      <trkpt lat="44.50546" lon="1.65606">
        <ele>141</ele>
        <time>2021-08-31T11:26:17Z</time>
      </trkpt>
      <trkpt lat="44.50544" lon="1.65616">
        <ele>132</ele>
        <time>2021-08-31T11:28:55Z</time>
      </trkpt>
      <trkpt lat="44.50545" lon="1.65614">
        <ele>139</ele>
        <time>2021-08-31T11:33:46Z</time>
      </trkpt>
      <trkpt lat="44.5054" lon="1.65613">
        <ele>139</ele>
        <time>2021-08-31T11:43:25Z</time>
      </trkpt>
      <trkpt lat="44.50543" lon="1.65612">
        <ele>136</ele>
        <time>2021-08-31T11:54:18Z</time>
      </trkpt>
      <trkpt lat="44.5054" lon="1.65606">
        <ele>136</ele>
        <time>2021-08-31T11:54:38Z</time>
      </trkpt>
      <trkpt lat="44.50535" lon="1.65603">
        <ele>129</ele>
        <time>2021-08-31T11:54:52Z</time>
      </trkpt>
      <trkpt lat="44.50513" lon="1.65578">
        <ele>134</ele>
        <time>2021-08-31T11:55:23Z</time>
      </trkpt>
      <trkpt lat="44.50466" lon="1.65509">
        <ele>136</ele>
        <time>2021-08-31T11:55:45Z</time>
      </trkpt>
      <trkpt lat="44.50458" lon="1.655">
        <ele>136</ele>
        <time>2021-08-31T11:55:50Z</time>
      </trkpt>
      <trkpt lat="44.50453" lon="1.65503">
        <ele>136</ele>
        <time>2021-08-31T11:55:52Z</time>
      </trkpt>
      <trkpt lat="44.5045" lon="1.65498">
        <ele>138</ele>
        <time>2021-08-31T11:56:27Z</time>
      </trkpt>
      <trkpt lat="44.50448" lon="1.6549">
        <ele>138</ele>
        <time>2021-08-31T11:56:30Z</time>
      </trkpt>
      <trkpt lat="44.50443" lon="1.65478">
        <ele>138</ele>
        <time>2021-08-31T11:56:34Z</time>
      </trkpt>
      <trkpt lat="44.5044" lon="1.65472">
        <ele>138</ele>
        <time>2021-08-31T11:56:36Z</time>
      </trkpt>
      <trkpt lat="44.50438" lon="1.65465">
        <ele>138</ele>
        <time>2021-08-31T11:56:38Z</time>
      </trkpt>
      <trkpt lat="44.50434" lon="1.6546">
        <ele>138</ele>
        <time>2021-08-31T11:56:40Z</time>
      </trkpt>
      <trkpt lat="44.50428" lon="1.65452">
        <ele>137</ele>
        <time>2021-08-31T11:56:45Z</time>
      </trkpt>
      <trkpt lat="44.5042" lon="1.65448">
        <ele>138</ele>
        <time>2021-08-31T11:56:50Z</time>
      </trkpt>
      <trkpt lat="44.5042" lon="1.65455">
        <ele>140</ele>
        <time>2021-08-31T11:56:55Z</time>
      </trkpt>
      <trkpt lat="44.50425" lon="1.65453">
        <ele>141</ele>
        <time>2021-08-31T11:57:13Z</time>
      </trkpt>
      <trkpt lat="44.5043" lon="1.65448">
        <ele>141</ele>
        <time>2021-08-31T11:57:16Z</time>
      </trkpt>
      <trkpt lat="44.50425" lon="1.65444">
        <ele>141</ele>
        <time>2021-08-31T11:57:19Z</time>
      </trkpt>
      <trkpt lat="44.50413" lon="1.65427">
        <ele>140</ele>
        <time>2021-08-31T11:57:26Z</time>
      </trkpt>
      <trkpt lat="44.50407" lon="1.65417">
        <ele>136</ele>
        <time>2021-08-31T11:57:29Z</time>
      </trkpt>
      <trkpt lat="44.50401" lon="1.65406">
        <ele>134</ele>
        <time>2021-08-31T11:57:32Z</time>
      </trkpt>
      <trkpt lat="44.50395" lon="1.65393">
        <ele>129</ele>
        <time>2021-08-31T11:57:35Z</time>
      </trkpt>
      <trkpt lat="44.50388" lon="1.6538">
        <ele>125</ele>
        <time>2021-08-31T11:57:38Z</time>
      </trkpt>
      <trkpt lat="44.5038" lon="1.65367">
        <ele>120</ele>
        <time>2021-08-31T11:57:41Z</time>
      </trkpt>
      <trkpt lat="44.50364" lon="1.65341">
        <ele>116</ele>
        <time>2021-08-31T11:57:47Z</time>
      </trkpt>
      <trkpt lat="44.50356" lon="1.65331">
        <ele>114</ele>
        <time>2021-08-31T11:57:50Z</time>
      </trkpt>
      <trkpt lat="44.50348" lon="1.65322">
        <ele>113</ele>
        <time>2021-08-31T11:57:53Z</time>
      </trkpt>
      <trkpt lat="44.50343" lon="1.65316">
        <ele>112</ele>
        <time>2021-08-31T11:57:55Z</time>
      </trkpt>
      <trkpt lat="44.50318" lon="1.65284">
        <ele>115</ele>
        <time>2021-08-31T11:58:25Z</time>
      </trkpt>
      <trkpt lat="44.50224" lon="1.65138">
        <ele>112</ele>
        <time>2021-08-31T11:58:57Z</time>
      </trkpt>
      <trkpt lat="44.50166" lon="1.65065">
        <ele>115</ele>
        <time>2021-08-31T11:59:15Z</time>
      </trkpt>
      <trkpt lat="44.50091" lon="1.65002">
        <ele>119</ele>
        <time>2021-08-31T11:59:34Z</time>
      </trkpt>
      <trkpt lat="44.50061" lon="1.64987">
        <ele>119</ele>
        <time>2021-08-31T11:59:41Z</time>
      </trkpt>
      <trkpt lat="44.5001" lon="1.64977">
        <ele>117</ele>
        <time>2021-08-31T11:59:52Z</time>
      </trkpt>
      <trkpt lat="44.4995" lon="1.64985">
        <ele>117</ele>
        <time>2021-08-31T12:00:05Z</time>
      </trkpt>
      <trkpt lat="44.49922" lon="1.64996">
        <ele>118</ele>
        <time>2021-08-31T12:00:11Z</time>
      </trkpt>
      <trkpt lat="44.49885" lon="1.65025">
        <ele>117</ele>
        <time>2021-08-31T12:00:19Z</time>
      </trkpt>
      <trkpt lat="44.49791" lon="1.65176">
        <ele>116</ele>
        <time>2021-08-31T12:00:49Z</time>
      </trkpt>
      <trkpt lat="44.49723" lon="1.6533">
        <ele>121</ele>
        <time>2021-08-31T12:01:17Z</time>
      </trkpt>
      <trkpt lat="44.4972" lon="1.65335">
        <ele>121</ele>
        <time>2021-08-31T12:01:21Z</time>
      </trkpt>
      <trkpt lat="44.49716" lon="1.65343">
        <ele>121</ele>
        <time>2021-08-31T12:02:15Z</time>
      </trkpt>
      <trkpt lat="44.49717" lon="1.65351">
        <ele>123</ele>
        <time>2021-08-31T12:02:18Z</time>
      </trkpt>
      <trkpt lat="44.49711" lon="1.65366">
        <ele>125</ele>
        <time>2021-08-31T12:02:24Z</time>
      </trkpt>
      <trkpt lat="44.49709" lon="1.65372">
        <ele>125</ele>
        <time>2021-08-31T12:02:26Z</time>
      </trkpt>
      <trkpt lat="44.4966" lon="1.655">
        <ele>129</ele>
        <time>2021-08-31T12:02:52Z</time>
      </trkpt>
      <trkpt lat="44.49648" lon="1.65537">
        <ele>132</ele>
        <time>2021-08-31T12:02:58Z</time>
      </trkpt>
      <trkpt lat="44.49643" lon="1.65549">
        <ele>133</ele>
        <time>2021-08-31T12:03:00Z</time>
      </trkpt>
      <trkpt lat="44.49633" lon="1.65564">
        <ele>136</ele>
        <time>2021-08-31T12:03:03Z</time>
      </trkpt>
      <trkpt lat="44.49626" lon="1.65573">
        <ele>137</ele>
        <time>2021-08-31T12:03:05Z</time>
      </trkpt>
      <trkpt lat="44.49613" lon="1.65579">
        <ele>139</ele>
        <time>2021-08-31T12:03:08Z</time>
      </trkpt>
      <trkpt lat="44.49574" lon="1.6558">
        <ele>141</ele>
        <time>2021-08-31T12:03:16Z</time>
      </trkpt>
      <trkpt lat="44.4955" lon="1.65572">
        <ele>141</ele>
        <time>2021-08-31T12:03:21Z</time>
      </trkpt>
      <trkpt lat="44.49521" lon="1.65548">
        <ele>142</ele>
        <time>2021-08-31T12:03:28Z</time>
      </trkpt>
      <trkpt lat="44.495" lon="1.65522">
        <ele>142</ele>
        <time>2021-08-31T12:03:34Z</time>
      </trkpt>
      <trkpt lat="44.49451" lon="1.65436">
        <ele>141</ele>
        <time>2021-08-31T12:03:51Z</time>
      </trkpt>
      <trkpt lat="44.49396" lon="1.65384">
        <ele>143</ele>
        <time>2021-08-31T12:04:04Z</time>
      </trkpt>
      <trkpt lat="44.49373" lon="1.65372">
        <ele>144</ele>
        <time>2021-08-31T12:04:09Z</time>
      </trkpt>
      <trkpt lat="44.49343" lon="1.65369">
        <ele>143</ele>
        <time>2021-08-31T12:04:15Z</time>
      </trkpt>
      <trkpt lat="44.49334" lon="1.65372">
        <ele>143</ele>
        <time>2021-08-31T12:04:17Z</time>
      </trkpt>
      <trkpt lat="44.49334" lon="1.65393">
        <ele>162</ele>
        <time>2021-08-31T12:04:19Z</time>
      </trkpt>
      <trkpt lat="44.49298" lon="1.65405">
        <ele>163</ele>
        <time>2021-08-31T12:04:26Z</time>
      </trkpt>
      <trkpt lat="44.49265" lon="1.65432">
        <ele>163</ele>
        <time>2021-08-31T12:04:33Z</time>
      </trkpt>
      <trkpt lat="44.49222" lon="1.65466">
        <ele>163</ele>
        <time>2021-08-31T12:04:42Z</time>
      </trkpt>
      <trkpt lat="44.49184" lon="1.65481">
        <ele>162</ele>
        <time>2021-08-31T12:04:49Z</time>
      </trkpt>
      <trkpt lat="44.49118" lon="1.65499">
        <ele>158</ele>
        <time>2021-08-31T12:05:01Z</time>
      </trkpt>
      <trkpt lat="44.49089" lon="1.65497">
        <ele>157</ele>
        <time>2021-08-31T12:05:06Z</time>
      </trkpt>
      <trkpt lat="44.49045" lon="1.65475">
        <ele>155</ele>
        <time>2021-08-31T12:05:14Z</time>
      </trkpt>
      <trkpt lat="44.48984" lon="1.65413">
        <ele>152</ele>
        <time>2021-08-31T12:05:28Z</time>
      </trkpt>
      <trkpt lat="44.48868" lon="1.65279">
        <ele>148</ele>
        <time>2021-08-31T12:05:58Z</time>
      </trkpt>
      <trkpt lat="44.48747" lon="1.65139">
        <ele>149</ele>
        <time>2021-08-31T12:06:28Z</time>
      </trkpt>
      <trkpt lat="44.48648" lon="1.65036">
        <ele>147</ele>
        <time>2021-08-31T12:06:52Z</time>
      </trkpt>
      <trkpt lat="44.48599" lon="1.65011">
        <ele>146</ele>
        <time>2021-08-31T12:07:02Z</time>
      </trkpt>
      <trkpt lat="44.48488" lon="1.64988">
        <ele>147</ele>
        <time>2021-08-31T12:07:24Z</time>
      </trkpt>
      <trkpt lat="44.48377" lon="1.64977">
        <ele>140</ele>
        <time>2021-08-31T12:07:46Z</time>
      </trkpt>
      <trkpt lat="44.48274" lon="1.64992">
        <ele>135</ele>
        <time>2021-08-31T12:08:08Z</time>
      </trkpt>
      <trkpt lat="44.48227" lon="1.6501">
        <ele>137</ele>
        <time>2021-08-31T12:08:18Z</time>
      </trkpt>
      <trkpt lat="44.48123" lon="1.65026">
        <ele>138</ele>
        <time>2021-08-31T12:08:38Z</time>
      </trkpt>
      <trkpt lat="44.4797" lon="1.65093">
        <ele>140</ele>
        <time>2021-08-31T12:09:08Z</time>
      </trkpt>
      <trkpt lat="44.4791" lon="1.6512">
        <ele>143</ele>
        <time>2021-08-31T12:09:21Z</time>
      </trkpt>
      <trkpt lat="44.47906" lon="1.65121">
        <ele>143</ele>
        <time>2021-08-31T12:09:22Z</time>
      </trkpt>
      <trkpt lat="44.47889" lon="1.65119">
        <ele>140</ele>
        <time>2021-08-31T12:09:25Z</time>
      </trkpt>
      <trkpt lat="44.47875" lon="1.65116">
        <ele>139</ele>
        <time>2021-08-31T12:09:28Z</time>
      </trkpt>
      <trkpt lat="44.47861" lon="1.65108">
        <ele>138</ele>
        <time>2021-08-31T12:09:31Z</time>
      </trkpt>
      <trkpt lat="44.47843" lon="1.65075">
        <ele>136</ele>
        <time>2021-08-31T12:09:37Z</time>
      </trkpt>
      <trkpt lat="44.47835" lon="1.65054">
        <ele>136</ele>
        <time>2021-08-31T12:09:41Z</time>
      </trkpt>
      <trkpt lat="44.4783" lon="1.65046">
        <ele>136</ele>
        <time>2021-08-31T12:09:43Z</time>
      </trkpt>
      <trkpt lat="44.47825" lon="1.6504">
        <ele>136</ele>
        <time>2021-08-31T12:09:45Z</time>
      </trkpt>
      <trkpt lat="44.47817" lon="1.65037">
        <ele>137</ele>
        <time>2021-08-31T12:09:47Z</time>
      </trkpt>
      <trkpt lat="44.47717" lon="1.65149">
        <ele>135</ele>
        <time>2021-08-31T12:10:19Z</time>
      </trkpt>
      <trkpt lat="44.47664" lon="1.65208">
        <ele>133</ele>
        <time>2021-08-31T12:10:35Z</time>
      </trkpt>
      <trkpt lat="44.47611" lon="1.65241">
        <ele>132</ele>
        <time>2021-08-31T12:10:48Z</time>
      </trkpt>
      <trkpt lat="44.47551" lon="1.653">
        <ele>132</ele>
        <time>2021-08-31T12:11:05Z</time>
      </trkpt>
      <trkpt lat="44.47546" lon="1.65308">
        <ele>132</ele>
        <time>2021-08-31T12:11:07Z</time>
      </trkpt>
      <trkpt lat="44.47403" lon="1.65624">
        <ele>130</ele>
        <time>2021-08-31T12:12:04Z</time>
      </trkpt>
      <trkpt lat="44.47403" lon="1.65635">
        <ele>139</ele>
        <time>2021-08-31T12:12:05Z</time>
      </trkpt>
      <trkpt lat="44.47408" lon="1.65646">
        <ele>139</ele>
        <time>2021-08-31T12:12:06Z</time>
      </trkpt>
      <trkpt lat="44.47397" lon="1.65657">
        <ele>148</ele>
        <time>2021-08-31T12:12:08Z</time>
      </trkpt>
      <trkpt lat="44.47393" lon="1.6567">
        <ele>148</ele>
        <time>2021-08-31T12:12:10Z</time>
      </trkpt>
      <trkpt lat="44.47389" lon="1.65675">
        <ele>150</ele>
        <time>2021-08-31T12:12:11Z</time>
      </trkpt>
      <trkpt lat="44.47383" lon="1.65688">
        <ele>153</ele>
        <time>2021-08-31T12:12:13Z</time>
      </trkpt>
      <trkpt lat="44.47368" lon="1.65913">
        <ele>140</ele>
        <time>2021-08-31T12:12:44Z</time>
      </trkpt>
      <trkpt lat="44.47342" lon="1.6599">
        <ele>148</ele>
        <time>2021-08-31T12:12:56Z</time>
      </trkpt>
      <trkpt lat="44.473" lon="1.6602">
        <ele>150</ele>
        <time>2021-08-31T12:13:07Z</time>
      </trkpt>
      <trkpt lat="44.47296" lon="1.6609">
        <ele>145</ele>
        <time>2021-08-31T12:13:13Z</time>
      </trkpt>
      <trkpt lat="44.47311" lon="1.6613">
        <ele>138</ele>
        <time>2021-08-31T12:13:18Z</time>
      </trkpt>
      <trkpt lat="44.47309" lon="1.66177">
        <ele>155</ele>
        <time>2021-08-31T12:13:23Z</time>
      </trkpt>
      <trkpt lat="44.47301" lon="1.66288">
        <ele>143</ele>
        <time>2021-08-31T12:13:39Z</time>
      </trkpt>
      <trkpt lat="44.47247" lon="1.66446">
        <ele>144</ele>
        <time>2021-08-31T12:14:04Z</time>
      </trkpt>
      <trkpt lat="44.47244" lon="1.66452">
        <ele>144</ele>
        <time>2021-08-31T12:14:05Z</time>
      </trkpt>
      <trkpt lat="44.47226" lon="1.66487">
        <ele>133</ele>
        <time>2021-08-31T12:14:11Z</time>
      </trkpt>
      <trkpt lat="44.47182" lon="1.66534">
        <ele>130</ele>
        <time>2021-08-31T12:14:22Z</time>
      </trkpt>
      <trkpt lat="44.47133" lon="1.66566">
        <ele>131</ele>
        <time>2021-08-31T12:14:33Z</time>
      </trkpt>
      <trkpt lat="44.47124" lon="1.66573">
        <ele>132</ele>
        <time>2021-08-31T12:14:35Z</time>
      </trkpt>
      <trkpt lat="44.46982" lon="1.66669">
        <ele>133</ele>
        <time>2021-08-31T12:15:05Z</time>
      </trkpt>
      <trkpt lat="44.46865" lon="1.66759">
        <ele>136</ele>
        <time>2021-08-31T12:15:31Z</time>
      </trkpt>
      <trkpt lat="44.4683" lon="1.66804">
        <ele>137</ele>
        <time>2021-08-31T12:15:42Z</time>
      </trkpt>
      <trkpt lat="44.46794" lon="1.66871">
        <ele>137</ele>
        <time>2021-08-31T12:15:55Z</time>
      </trkpt>
      <trkpt lat="44.4678" lon="1.66907">
        <ele>138</ele>
        <time>2021-08-31T12:16:01Z</time>
      </trkpt>
      <trkpt lat="44.46765" lon="1.66994">
        <ele>134</ele>
        <time>2021-08-31T12:16:14Z</time>
      </trkpt>
      <trkpt lat="44.46766" lon="1.67046">
        <ele>135</ele>
        <time>2021-08-31T12:16:27Z</time>
      </trkpt>
      <trkpt lat="44.46769" lon="1.67057">
        <ele>136</ele>
        <time>2021-08-31T12:16:29Z</time>
      </trkpt>
      <trkpt lat="44.4677" lon="1.67068">
        <ele>136</ele>
        <time>2021-08-31T12:16:31Z</time>
      </trkpt>
      <trkpt lat="44.46784" lon="1.67165">
        <ele>135</ele>
        <time>2021-08-31T12:16:49Z</time>
      </trkpt>
      <trkpt lat="44.46787" lon="1.67176">
        <ele>135</ele>
        <time>2021-08-31T12:16:51Z</time>
      </trkpt>
      <trkpt lat="44.4679" lon="1.67199">
        <ele>135</ele>
        <time>2021-08-31T12:16:55Z</time>
      </trkpt>
      <trkpt lat="44.46835" lon="1.67371">
        <ele>137</ele>
        <time>2021-08-31T12:17:26Z</time>
      </trkpt>
      <trkpt lat="44.46842" lon="1.67393">
        <ele>138</ele>
        <time>2021-08-31T12:17:30Z</time>
      </trkpt>
      <trkpt lat="44.46863" lon="1.67431">
        <ele>139</ele>
        <time>2021-08-31T12:17:38Z</time>
      </trkpt>
      <trkpt lat="44.4689" lon="1.6746">
        <ele>140</ele>
        <time>2021-08-31T12:17:46Z</time>
      </trkpt>
      <trkpt lat="44.46897" lon="1.67463">
        <ele>140</ele>
        <time>2021-08-31T12:17:49Z</time>
      </trkpt>
      <trkpt lat="44.46965" lon="1.67489">
        <ele>139</ele>
        <time>2021-08-31T12:18:02Z</time>
      </trkpt>
      <trkpt lat="44.46977" lon="1.67498">
        <ele>137</ele>
        <time>2021-08-31T12:18:05Z</time>
      </trkpt>
      <trkpt lat="44.47007" lon="1.67535">
        <ele>139</ele>
        <time>2021-08-31T12:18:13Z</time>
      </trkpt>
      <trkpt lat="44.47021" lon="1.6756">
        <ele>141</ele>
        <time>2021-08-31T12:18:18Z</time>
      </trkpt>
      <trkpt lat="44.4703" lon="1.67567">
        <ele>141</ele>
        <time>2021-08-31T12:18:20Z</time>
      </trkpt>
      <trkpt lat="44.47046" lon="1.67579">
        <ele>143</ele>
        <time>2021-08-31T12:18:24Z</time>
      </trkpt>
      <trkpt lat="44.47051" lon="1.67583">
        <ele>141</ele>
        <time>2021-08-31T12:18:25Z</time>
      </trkpt>
      <trkpt lat="44.47066" lon="1.67621">
        <ele>137</ele>
        <time>2021-08-31T12:18:32Z</time>
      </trkpt>
      <trkpt lat="44.47127" lon="1.67742">
        <ele>133</ele>
        <time>2021-08-31T12:18:57Z</time>
      </trkpt>
      <trkpt lat="44.47131" lon="1.67755">
        <ele>133</ele>
        <time>2021-08-31T12:18:59Z</time>
      </trkpt>
      <trkpt lat="44.4714" lon="1.67824">
        <ele>131</ele>
        <time>2021-08-31T12:19:10Z</time>
      </trkpt>
      <trkpt lat="44.47204" lon="1.68013">
        <ele>131</ele>
        <time>2021-08-31T12:19:41Z</time>
      </trkpt>
      <trkpt lat="44.47217" lon="1.68145">
        <ele>131</ele>
        <time>2021-08-31T12:20:01Z</time>
      </trkpt>
      <trkpt lat="44.47229" lon="1.68359">
        <ele>133</ele>
        <time>2021-08-31T12:20:32Z</time>
      </trkpt>
      <trkpt lat="44.47229" lon="1.68381">
        <ele>132</ele>
        <time>2021-08-31T12:20:35Z</time>
      </trkpt>
      <trkpt lat="44.4722" lon="1.68422">
        <ele>132</ele>
        <time>2021-08-31T12:20:41Z</time>
      </trkpt>
      <trkpt lat="44.47174" lon="1.68504">
        <ele>132</ele>
        <time>2021-08-31T12:20:55Z</time>
      </trkpt>
      <trkpt lat="44.47098" lon="1.68617">
        <ele>137</ele>
        <time>2021-08-31T12:21:18Z</time>
      </trkpt>
      <trkpt lat="44.47086" lon="1.68638">
        <ele>136</ele>
        <time>2021-08-31T12:21:22Z</time>
      </trkpt>
      <trkpt lat="44.47078" lon="1.68648">
        <ele>137</ele>
        <time>2021-08-31T12:21:24Z</time>
      </trkpt>
      <trkpt lat="44.47074" lon="1.68651">
        <ele>137</ele>
        <time>2021-08-31T12:21:25Z</time>
      </trkpt>
      <trkpt lat="44.4707" lon="1.68652">
        <ele>138</ele>
        <time>2021-08-31T12:21:26Z</time>
      </trkpt>
      <trkpt lat="44.47065" lon="1.68651">
        <ele>138</ele>
        <time>2021-08-31T12:21:27Z</time>
      </trkpt>
      <trkpt lat="44.4706" lon="1.68647">
        <ele>138</ele>
        <time>2021-08-31T12:21:28Z</time>
      </trkpt>
      <trkpt lat="44.4704" lon="1.68598">
        <ele>139</ele>
        <time>2021-08-31T12:21:35Z</time>
      </trkpt>
      <trkpt lat="44.46983" lon="1.68402">
        <ele>144</ele>
        <time>2021-08-31T12:22:06Z</time>
      </trkpt>
      <trkpt lat="44.4693" lon="1.68215">
        <ele>147</ele>
        <time>2021-08-31T12:22:37Z</time>
      </trkpt>
      <trkpt lat="44.46912" lon="1.68161">
        <ele>149</ele>
        <time>2021-08-31T12:22:45Z</time>
      </trkpt>
      <trkpt lat="44.46913" lon="1.68151">
        <ele>148</ele>
        <time>2021-08-31T12:22:47Z</time>
      </trkpt>
      <trkpt lat="44.46915" lon="1.68143">
        <ele>148</ele>
        <time>2021-08-31T12:22:49Z</time>
      </trkpt>
      <trkpt lat="44.46914" lon="1.68136">
        <ele>147</ele>
        <time>2021-08-31T12:22:51Z</time>
      </trkpt>
      <trkpt lat="44.46911" lon="1.68132">
        <ele>146</ele>
        <time>2021-08-31T12:22:54Z</time>
      </trkpt>
      <trkpt lat="44.46909" lon="1.68125">
        <ele>145</ele>
        <time>2021-08-31T12:22:57Z</time>
      </trkpt>
      <trkpt lat="44.46905" lon="1.68119">
        <ele>145</ele>
        <time>2021-08-31T12:23:00Z</time>
      </trkpt>
      <trkpt lat="44.46902" lon="1.68115">
        <ele>144</ele>
        <time>2021-08-31T12:23:02Z</time>
      </trkpt>
      <trkpt lat="44.46899" lon="1.68105">
        <ele>143</ele>
        <time>2021-08-31T12:23:05Z</time>
      </trkpt>
      <trkpt lat="44.46868" lon="1.68062">
        <ele>144</ele>
        <time>2021-08-31T12:23:19Z</time>
      </trkpt>
      <trkpt lat="44.4685" lon="1.68034">
        <ele>147</ele>
        <time>2021-08-31T12:23:27Z</time>
      </trkpt>
      <trkpt lat="44.46841" lon="1.68023">
        <ele>148</ele>
        <time>2021-08-31T12:23:31Z</time>
      </trkpt>
      <trkpt lat="44.46837" lon="1.68018">
        <ele>148</ele>
        <time>2021-08-31T12:23:33Z</time>
      </trkpt>
      <trkpt lat="44.4683" lon="1.68007">
        <ele>148</ele>
        <time>2021-08-31T12:23:37Z</time>
      </trkpt>
      <trkpt lat="44.46827" lon="1.68002">
        <ele>148</ele>
        <time>2021-08-31T12:23:39Z</time>
      </trkpt>
      <trkpt lat="44.46806" lon="1.67969">
        <ele>147</ele>
        <time>2021-08-31T12:23:51Z</time>
      </trkpt>
      <trkpt lat="44.46803" lon="1.67964">
        <ele>147</ele>
        <time>2021-08-31T12:23:53Z</time>
      </trkpt>
      <trkpt lat="44.46799" lon="1.67959">
        <ele>147</ele>
        <time>2021-08-31T12:23:55Z</time>
      </trkpt>
      <trkpt lat="44.4677" lon="1.67918">
        <ele>149</ele>
        <time>2021-08-31T12:24:11Z</time>
      </trkpt>
      <trkpt lat="44.46755" lon="1.67909">
        <ele>150</ele>
        <time>2021-08-31T12:24:17Z</time>
      </trkpt>
      <trkpt lat="44.46749" lon="1.67908">
        <ele>151</ele>
        <time>2021-08-31T12:24:19Z</time>
      </trkpt>
      <trkpt lat="44.46738" lon="1.67912">
        <ele>152</ele>
        <time>2021-08-31T12:24:23Z</time>
      </trkpt>
      <trkpt lat="44.46722" lon="1.67919">
        <ele>153</ele>
        <time>2021-08-31T12:24:29Z</time>
      </trkpt>
      <trkpt lat="44.46707" lon="1.67919">
        <ele>154</ele>
        <time>2021-08-31T12:24:35Z</time>
      </trkpt>
      <trkpt lat="44.46696" lon="1.67918">
        <ele>155</ele>
        <time>2021-08-31T12:24:39Z</time>
      </trkpt>
      <trkpt lat="44.4667" lon="1.67899">
        <ele>157</ele>
        <time>2021-08-31T12:24:51Z</time>
      </trkpt>
      <trkpt lat="44.46637" lon="1.67869">
        <ele>156</ele>
        <time>2021-08-31T12:25:08Z</time>
      </trkpt>
      <trkpt lat="44.46591" lon="1.67825">
        <ele>147</ele>
        <time>2021-08-31T12:25:30Z</time>
      </trkpt>
      <trkpt lat="44.46585" lon="1.67812">
        <ele>146</ele>
        <time>2021-08-31T12:25:35Z</time>
      </trkpt>
      <trkpt lat="44.46582" lon="1.67794">
        <ele>148</ele>
        <time>2021-08-31T12:25:41Z</time>
      </trkpt>
      <trkpt lat="44.4658" lon="1.67753">
        <ele>153</ele>
        <time>2021-08-31T12:25:54Z</time>
      </trkpt>
      <trkpt lat="44.4658" lon="1.67732">
        <ele>155</ele>
        <time>2021-08-31T12:26:00Z</time>
      </trkpt>
      <trkpt lat="44.46578" lon="1.67708">
        <ele>155</ele>
        <time>2021-08-31T12:26:08Z</time>
      </trkpt>
      <trkpt lat="44.4657" lon="1.67677">
        <ele>157</ele>
        <time>2021-08-31T12:26:18Z</time>
      </trkpt>
      <trkpt lat="44.46567" lon="1.67671">
        <ele>157</ele>
        <time>2021-08-31T12:26:20Z</time>
      </trkpt>
      <trkpt lat="44.46547" lon="1.67619">
        <ele>157</ele>
        <time>2021-08-31T12:26:37Z</time>
      </trkpt>
      <trkpt lat="44.46547" lon="1.67613">
        <ele>157</ele>
        <time>2021-08-31T12:26:39Z</time>
      </trkpt>
      <trkpt lat="44.46546" lon="1.67606">
        <ele>159</ele>
        <time>2021-08-31T12:26:41Z</time>
      </trkpt>
      <trkpt lat="44.46519" lon="1.6751">
        <ele>168</ele>
        <time>2021-08-31T12:27:12Z</time>
      </trkpt>
      <trkpt lat="44.46505" lon="1.67404">
        <ele>175</ele>
        <time>2021-08-31T12:27:43Z</time>
      </trkpt>
      <trkpt lat="44.46501" lon="1.67368">
        <ele>179</ele>
        <time>2021-08-31T12:27:54Z</time>
      </trkpt>
      <trkpt lat="44.465" lon="1.67346">
        <ele>181</ele>
        <time>2021-08-31T12:28:01Z</time>
      </trkpt>
      <trkpt lat="44.465" lon="1.67339">
        <ele>182</ele>
        <time>2021-08-31T12:28:03Z</time>
      </trkpt>
      <trkpt lat="44.46499" lon="1.67333">
        <ele>182</ele>
        <time>2021-08-31T12:28:05Z</time>
      </trkpt>
      <trkpt lat="44.46496" lon="1.67327">
        <ele>183</ele>
        <time>2021-08-31T12:28:07Z</time>
      </trkpt>
      <trkpt lat="44.46492" lon="1.67323">
        <ele>183</ele>
        <time>2021-08-31T12:28:10Z</time>
      </trkpt>
      <trkpt lat="44.46468" lon="1.67307">
        <ele>186</ele>
        <time>2021-08-31T12:28:23Z</time>
      </trkpt>
      <trkpt lat="44.4643" lon="1.67286">
        <ele>189</ele>
        <time>2021-08-31T12:28:41Z</time>
      </trkpt>
      <trkpt lat="44.46425" lon="1.67283">
        <ele>189</ele>
        <time>2021-08-31T12:28:43Z</time>
      </trkpt>
      <trkpt lat="44.46422" lon="1.6728">
        <ele>189</ele>
        <time>2021-08-31T12:28:45Z</time>
      </trkpt>
      <trkpt lat="44.46408" lon="1.67265">
        <ele>189</ele>
        <time>2021-08-31T12:28:53Z</time>
      </trkpt>
      <trkpt lat="44.46405" lon="1.67259">
        <ele>190</ele>
        <time>2021-08-31T12:28:56Z</time>
      </trkpt>
      <trkpt lat="44.46397" lon="1.67244">
        <ele>190</ele>
        <time>2021-08-31T12:29:02Z</time>
      </trkpt>
      <trkpt lat="44.46395" lon="1.67239">
        <ele>190</ele>
        <time>2021-08-31T12:29:04Z</time>
      </trkpt>
      <trkpt lat="44.4639" lon="1.67198">
        <ele>193</ele>
        <time>2021-08-31T12:29:19Z</time>
      </trkpt>
      <trkpt lat="44.4637" lon="1.67138">
        <ele>202</ele>
        <time>2021-08-31T12:29:43Z</time>
      </trkpt>
      <trkpt lat="44.46368" lon="1.6712">
        <ele>203</ele>
        <time>2021-08-31T12:29:49Z</time>
      </trkpt>
      <trkpt lat="44.46368" lon="1.67111">
        <ele>204</ele>
        <time>2021-08-31T12:29:52Z</time>
      </trkpt>
      <trkpt lat="44.46377" lon="1.67083">
        <ele>206</ele>
        <time>2021-08-31T12:30:02Z</time>
      </trkpt>
      <trkpt lat="44.46381" lon="1.67076">
        <ele>207</ele>
        <time>2021-08-31T12:30:05Z</time>
      </trkpt>
      <trkpt lat="44.46401" lon="1.67014">
        <ele>211</ele>
        <time>2021-08-31T12:30:29Z</time>
      </trkpt>
      <trkpt lat="44.46405" lon="1.66975">
        <ele>214</ele>
        <time>2021-08-31T12:30:43Z</time>
      </trkpt>
      <trkpt lat="44.46405" lon="1.66968">
        <ele>214</ele>
        <time>2021-08-31T12:30:45Z</time>
      </trkpt>
      <trkpt lat="44.46405" lon="1.6696">
        <ele>215</ele>
        <time>2021-08-31T12:30:48Z</time>
      </trkpt>
      <trkpt lat="44.46406" lon="1.66951">
        <ele>215</ele>
        <time>2021-08-31T12:30:51Z</time>
      </trkpt>
      <trkpt lat="44.46406" lon="1.66935">
        <ele>215</ele>
        <time>2021-08-31T12:30:57Z</time>
      </trkpt>
      <trkpt lat="44.46407" lon="1.66927">
        <ele>215</ele>
        <time>2021-08-31T12:31:00Z</time>
      </trkpt>
      <trkpt lat="44.46406" lon="1.66857">
        <ele>218</ele>
        <time>2021-08-31T12:31:23Z</time>
      </trkpt>
      <trkpt lat="44.46393" lon="1.66825">
        <ele>219</ele>
        <time>2021-08-31T12:31:38Z</time>
      </trkpt>
      <trkpt lat="44.46394" lon="1.66803">
        <ele>218</ele>
        <time>2021-08-31T12:31:48Z</time>
      </trkpt>
      <trkpt lat="44.46396" lon="1.66796">
        <ele>218</ele>
        <time>2021-08-31T12:31:50Z</time>
      </trkpt>
      <trkpt lat="44.46399" lon="1.66788">
        <ele>219</ele>
        <time>2021-08-31T12:31:52Z</time>
      </trkpt>
      <trkpt lat="44.46407" lon="1.66776">
        <ele>220</ele>
        <time>2021-08-31T12:31:56Z</time>
      </trkpt>
      <trkpt lat="44.46417" lon="1.6677">
        <ele>223</ele>
        <time>2021-08-31T12:32:03Z</time>
      </trkpt>
      <trkpt lat="44.46422" lon="1.66772">
        <ele>226</ele>
        <time>2021-08-31T12:32:07Z</time>
      </trkpt>
      <trkpt lat="44.46426" lon="1.66768">
        <ele>227</ele>
        <time>2021-08-31T12:32:19Z</time>
      </trkpt>
      <trkpt lat="44.46431" lon="1.66769">
        <ele>229</ele>
        <time>2021-08-31T12:32:23Z</time>
      </trkpt>
      <trkpt lat="44.46436" lon="1.66771">
        <ele>230</ele>
        <time>2021-08-31T12:32:26Z</time>
      </trkpt>
      <trkpt lat="44.4644" lon="1.66771">
        <ele>232</ele>
        <time>2021-08-31T12:32:30Z</time>
      </trkpt>
      <trkpt lat="44.46437" lon="1.66765">
        <ele>233</ele>
        <time>2021-08-31T12:32:56Z</time>
      </trkpt>
      <trkpt lat="44.46432" lon="1.66766">
        <ele>233</ele>
        <time>2021-08-31T12:32:58Z</time>
      </trkpt>
      <trkpt lat="44.46427" lon="1.66765">
        <ele>233</ele>
        <time>2021-08-31T12:33:01Z</time>
      </trkpt>
      <trkpt lat="44.46422" lon="1.66765">
        <ele>232</ele>
        <time>2021-08-31T12:33:07Z</time>
      </trkpt>
      <trkpt lat="44.46424" lon="1.66772">
        <ele>232</ele>
        <time>2021-08-31T12:33:24Z</time>
      </trkpt>
      <trkpt lat="44.46428" lon="1.66775">
        <ele>232</ele>
        <time>2021-08-31T12:33:27Z</time>
      </trkpt>
      <trkpt lat="44.46433" lon="1.66774">
        <ele>232</ele>
        <time>2021-08-31T12:33:30Z</time>
      </trkpt>
      <trkpt lat="44.46437" lon="1.6677">
        <ele>232</ele>
        <time>2021-08-31T12:33:33Z</time>
      </trkpt>
      <trkpt lat="44.46437" lon="1.66763">
        <ele>232</ele>
        <time>2021-08-31T12:33:35Z</time>
      </trkpt>
      <trkpt lat="44.46433" lon="1.66758">
        <ele>232</ele>
        <time>2021-08-31T12:33:39Z</time>
      </trkpt>
      <trkpt lat="44.46436" lon="1.66761">
        <ele>234</ele>
        <time>2021-08-31T12:35:48Z</time>
      </trkpt>
      <trkpt lat="44.46437" lon="1.66761">
        <ele>238</ele>
        <time>2021-08-31T12:42:09Z</time>
      </trkpt>
      <trkpt lat="44.46432" lon="1.66762">
        <ele>237</ele>
        <time>2021-08-31T12:42:14Z</time>
      </trkpt>
      <trkpt lat="44.46433" lon="1.66763">
        <ele>237</ele>
        <time>2021-08-31T12:46:06Z</time>
      </trkpt>
      <trkpt lat="44.46433" lon="1.66768">
        <ele>233</ele>
        <time>2021-08-31T12:48:00Z</time>
      </trkpt>
      <trkpt lat="44.46428" lon="1.66766">
        <ele>233</ele>
        <time>2021-08-31T12:48:07Z</time>
      </trkpt>
      <trkpt lat="44.46422" lon="1.66768">
        <ele>234</ele>
        <time>2021-08-31T12:48:12Z</time>
      </trkpt>
      <trkpt lat="44.46431" lon="1.66776">
        <ele>234</ele>
        <time>2021-08-31T12:48:37Z</time>
      </trkpt>
      <trkpt lat="44.46432" lon="1.6679">
        <ele>228</ele>
        <time>2021-08-31T12:49:29Z</time>
      </trkpt>
      <trkpt lat="44.46433" lon="1.66796">
        <ele>226</ele>
        <time>2021-08-31T12:49:41Z</time>
      </trkpt>
      <trkpt lat="44.4644" lon="1.66802">
        <ele>225</ele>
        <time>2021-08-31T12:51:09Z</time>
      </trkpt>
      <trkpt lat="44.46436" lon="1.66797">
        <ele>224</ele>
        <time>2021-08-31T12:52:40Z</time>
      </trkpt>
      <trkpt lat="44.46431" lon="1.66802">
        <ele>226</ele>
        <time>2021-08-31T12:52:52Z</time>
      </trkpt>
      <trkpt lat="44.46432" lon="1.66809">
        <ele>222</ele>
        <time>2021-08-31T12:54:46Z</time>
      </trkpt>
      <trkpt lat="44.46436" lon="1.66813">
        <ele>222</ele>
        <time>2021-08-31T12:55:01Z</time>
      </trkpt>
      <trkpt lat="44.46439" lon="1.66817">
        <ele>221</ele>
        <time>2021-08-31T12:55:06Z</time>
      </trkpt>
      <trkpt lat="44.46444" lon="1.6682">
        <ele>220</ele>
        <time>2021-08-31T12:55:10Z</time>
      </trkpt>
      <trkpt lat="44.46448" lon="1.66824">
        <ele>222</ele>
        <time>2021-08-31T12:55:35Z</time>
      </trkpt>
      <trkpt lat="44.46451" lon="1.66829">
        <ele>223</ele>
        <time>2021-08-31T12:55:53Z</time>
      </trkpt>
      <trkpt lat="44.46435" lon="1.6678">
        <ele>224</ele>
        <time>2021-08-31T13:49:10Z</time>
      </trkpt>
      <trkpt lat="44.46435" lon="1.6678">
        <ele>224</ele>
        <time>2021-08-31T13:49:11Z</time>
      </trkpt>
      <trkpt lat="44.46438" lon="1.66772">
        <ele>224</ele>
        <time>2021-08-31T13:49:43Z</time>
      </trkpt>
      <trkpt lat="44.46437" lon="1.66765">
        <ele>222</ele>
        <time>2021-08-31T13:49:48Z</time>
      </trkpt>
      <trkpt lat="44.46436" lon="1.66765">
        <ele>224</ele>
        <time>2021-08-31T13:58:02Z</time>
      </trkpt>
      <trkpt lat="44.46429" lon="1.66767">
        <ele>224</ele>
        <time>2021-08-31T13:58:20Z</time>
      </trkpt>
      <trkpt lat="44.46411" lon="1.6677">
        <ele>229</ele>
        <time>2021-08-31T13:58:27Z</time>
      </trkpt>
      <trkpt lat="44.46406" lon="1.66773">
        <ele>229</ele>
        <time>2021-08-31T13:58:29Z</time>
      </trkpt>
      <trkpt lat="44.46399" lon="1.66776">
        <ele>229</ele>
        <time>2021-08-31T13:58:31Z</time>
      </trkpt>
      <trkpt lat="44.46393" lon="1.66782">
        <ele>229</ele>
        <time>2021-08-31T13:58:33Z</time>
      </trkpt>
      <trkpt lat="44.46389" lon="1.668">
        <ele>228</ele>
        <time>2021-08-31T13:58:37Z</time>
      </trkpt>
      <trkpt lat="44.46389" lon="1.66807">
        <ele>227</ele>
        <time>2021-08-31T13:58:39Z</time>
      </trkpt>
      <trkpt lat="44.46395" lon="1.66834">
        <ele>224</ele>
        <time>2021-08-31T13:58:50Z</time>
      </trkpt>
      <trkpt lat="44.46397" lon="1.66828">
        <ele>227</ele>
        <time>2021-08-31T13:59:01Z</time>
      </trkpt>
      <trkpt lat="44.46395" lon="1.66821">
        <ele>229</ele>
        <time>2021-08-31T13:59:08Z</time>
      </trkpt>
      <trkpt lat="44.46396" lon="1.66814">
        <ele>230</ele>
        <time>2021-08-31T13:59:11Z</time>
      </trkpt>
      <trkpt lat="44.464" lon="1.66811">
        <ele>233</ele>
        <time>2021-08-31T13:59:49Z</time>
      </trkpt>
      <trkpt lat="44.464" lon="1.66823">
        <ele>233</ele>
        <time>2021-08-31T14:01:11Z</time>
      </trkpt>
      <trkpt lat="44.46398" lon="1.66817">
        <ele>232</ele>
        <time>2021-08-31T14:02:01Z</time>
      </trkpt>
      <trkpt lat="44.46394" lon="1.66812">
        <ele>232</ele>
        <time>2021-08-31T14:02:04Z</time>
      </trkpt>
      <trkpt lat="44.46396" lon="1.66828">
        <ele>230</ele>
        <time>2021-08-31T14:02:40Z</time>
      </trkpt>
      <trkpt lat="44.46403" lon="1.66843">
        <ele>230</ele>
        <time>2021-08-31T14:02:43Z</time>
      </trkpt>
      <trkpt lat="44.4641" lon="1.66858">
        <ele>230</ele>
        <time>2021-08-31T14:02:46Z</time>
      </trkpt>
      <trkpt lat="44.46408" lon="1.67006">
        <ele>222</ele>
        <time>2021-08-31T14:03:15Z</time>
      </trkpt>
      <trkpt lat="44.46395" lon="1.67047">
        <ele>220</ele>
        <time>2021-08-31T14:03:24Z</time>
      </trkpt>
      <trkpt lat="44.46391" lon="1.67057">
        <ele>218</ele>
        <time>2021-08-31T14:03:29Z</time>
      </trkpt>
      <trkpt lat="44.46388" lon="1.67064">
        <ele>217</ele>
        <time>2021-08-31T14:08:11Z</time>
      </trkpt>
      <trkpt lat="44.46366" lon="1.67106">
        <ele>214</ele>
        <time>2021-08-31T14:08:23Z</time>
      </trkpt>
      <trkpt lat="44.46361" lon="1.67121">
        <ele>212</ele>
        <time>2021-08-31T14:08:29Z</time>
      </trkpt>
      <trkpt lat="44.46362" lon="1.67128">
        <ele>211</ele>
        <time>2021-08-31T14:08:41Z</time>
      </trkpt>
      <trkpt lat="44.46368" lon="1.67126">
        <ele>210</ele>
        <time>2021-08-31T14:08:44Z</time>
      </trkpt>
      <trkpt lat="44.46364" lon="1.67124">
        <ele>210</ele>
        <time>2021-08-31T14:09:13Z</time>
      </trkpt>
      <trkpt lat="44.46361" lon="1.67128">
        <ele>210</ele>
        <time>2021-08-31T14:09:17Z</time>
      </trkpt>
      <trkpt lat="44.46366" lon="1.67132">
        <ele>210</ele>
        <time>2021-08-31T14:09:29Z</time>
      </trkpt>
      <trkpt lat="44.4637" lon="1.67147">
        <ele>208</ele>
        <time>2021-08-31T14:09:33Z</time>
      </trkpt>
      <trkpt lat="44.46375" lon="1.67157">
        <ele>207</ele>
        <time>2021-08-31T14:09:35Z</time>
      </trkpt>
      <trkpt lat="44.4638" lon="1.67169">
        <ele>206</ele>
        <time>2021-08-31T14:09:37Z</time>
      </trkpt>
      <trkpt lat="44.4639" lon="1.67187">
        <ele>204</ele>
        <time>2021-08-31T14:09:40Z</time>
      </trkpt>
      <trkpt lat="44.46394" lon="1.67201">
        <ele>204</ele>
        <time>2021-08-31T14:09:42Z</time>
      </trkpt>
      <trkpt lat="44.46393" lon="1.67217">
        <ele>203</ele>
        <time>2021-08-31T14:09:44Z</time>
      </trkpt>
      <trkpt lat="44.46395" lon="1.67232">
        <ele>202</ele>
        <time>2021-08-31T14:09:46Z</time>
      </trkpt>
      <trkpt lat="44.46405" lon="1.67253">
        <ele>200</ele>
        <time>2021-08-31T14:09:49Z</time>
      </trkpt>
      <trkpt lat="44.46424" lon="1.67271">
        <ele>197</ele>
        <time>2021-08-31T14:09:53Z</time>
      </trkpt>
      <trkpt lat="44.4644" lon="1.67281">
        <ele>194</ele>
        <time>2021-08-31T14:09:59Z</time>
      </trkpt>
      <trkpt lat="44.46449" lon="1.67284">
        <ele>191</ele>
        <time>2021-08-31T14:10:01Z</time>
      </trkpt>
      <trkpt lat="44.46474" lon="1.673">
        <ele>187</ele>
        <time>2021-08-31T14:10:07Z</time>
      </trkpt>
      <trkpt lat="44.46479" lon="1.67306">
        <ele>186</ele>
        <time>2021-08-31T14:10:09Z</time>
      </trkpt>
      <trkpt lat="44.46486" lon="1.67318">
        <ele>185</ele>
        <time>2021-08-31T14:12:31Z</time>
      </trkpt>
      <trkpt lat="44.46492" lon="1.67328">
        <ele>184</ele>
        <time>2021-08-31T14:12:36Z</time>
      </trkpt>
      <trkpt lat="44.46493" lon="1.67334">
        <ele>182</ele>
        <time>2021-08-31T14:12:49Z</time>
      </trkpt>
      <trkpt lat="44.46491" lon="1.67362">
        <ele>181</ele>
        <time>2021-08-31T14:12:55Z</time>
      </trkpt>
      <trkpt lat="44.46514" lon="1.67566">
        <ele>166</ele>
        <time>2021-08-31T14:13:19Z</time>
      </trkpt>
      <trkpt lat="44.46557" lon="1.67696">
        <ele>157</ele>
        <time>2021-08-31T14:13:33Z</time>
      </trkpt>
      <trkpt lat="44.46561" lon="1.67739">
        <ele>154</ele>
        <time>2021-08-31T14:13:37Z</time>
      </trkpt>
      <trkpt lat="44.4656" lon="1.67798">
        <ele>152</ele>
        <time>2021-08-31T14:13:43Z</time>
      </trkpt>
      <trkpt lat="44.46563" lon="1.67814">
        <ele>150</ele>
        <time>2021-08-31T14:13:45Z</time>
      </trkpt>
      <trkpt lat="44.46578" lon="1.6783">
        <ele>147</ele>
        <time>2021-08-31T14:13:48Z</time>
      </trkpt>
      <trkpt lat="44.46675" lon="1.67918">
        <ele>136</ele>
        <time>2021-08-31T14:14:03Z</time>
      </trkpt>
      <trkpt lat="44.46694" lon="1.67924">
        <ele>136</ele>
        <time>2021-08-31T14:14:05Z</time>
      </trkpt>
      <trkpt lat="44.46711" lon="1.67922">
        <ele>137</ele>
        <time>2021-08-31T14:14:07Z</time>
      </trkpt>
      <trkpt lat="44.46734" lon="1.67912">
        <ele>136</ele>
        <time>2021-08-31T14:14:10Z</time>
      </trkpt>
      <trkpt lat="44.46749" lon="1.67914">
        <ele>136</ele>
        <time>2021-08-31T14:14:12Z</time>
      </trkpt>
      <trkpt lat="44.46761" lon="1.67924">
        <ele>136</ele>
        <time>2021-08-31T14:14:14Z</time>
      </trkpt>
      <trkpt lat="44.46885" lon="1.68101">
        <ele>127</ele>
        <time>2021-08-31T14:14:40Z</time>
      </trkpt>
      <trkpt lat="44.46918" lon="1.68205">
        <ele>128</ele>
        <time>2021-08-31T14:14:54Z</time>
      </trkpt>
      <trkpt lat="44.46918" lon="1.68215">
        <ele>128</ele>
        <time>2021-08-31T14:14:56Z</time>
      </trkpt>
      <trkpt lat="44.4691" lon="1.68231">
        <ele>128</ele>
        <time>2021-08-31T14:14:59Z</time>
      </trkpt>
      <trkpt lat="44.46898" lon="1.68241">
        <ele>128</ele>
        <time>2021-08-31T14:15:02Z</time>
      </trkpt>
      <trkpt lat="44.46891" lon="1.68251">
        <ele>129</ele>
        <time>2021-08-31T14:15:04Z</time>
      </trkpt>
      <trkpt lat="44.4688" lon="1.68262">
        <ele>130</ele>
        <time>2021-08-31T14:15:07Z</time>
      </trkpt>
      <trkpt lat="44.46836" lon="1.68279">
        <ele>131</ele>
        <time>2021-08-31T14:15:17Z</time>
      </trkpt>
      <trkpt lat="44.46753" lon="1.68311">
        <ele>140</ele>
        <time>2021-08-31T14:15:40Z</time>
      </trkpt>
      <trkpt lat="44.4672" lon="1.68324">
        <ele>139</ele>
        <time>2021-08-31T14:15:48Z</time>
      </trkpt>
      <trkpt lat="44.46589" lon="1.68371">
        <ele>134</ele>
        <time>2021-08-31T14:16:19Z</time>
      </trkpt>
      <trkpt lat="44.46517" lon="1.68402">
        <ele>135</ele>
        <time>2021-08-31T14:16:36Z</time>
      </trkpt>
      <trkpt lat="44.46478" lon="1.68427">
        <ele>136</ele>
        <time>2021-08-31T14:16:47Z</time>
      </trkpt>
      <trkpt lat="44.46435" lon="1.68441">
        <ele>133</ele>
        <time>2021-08-31T14:17:01Z</time>
      </trkpt>
      <trkpt lat="44.46429" lon="1.68443">
        <ele>132</ele>
        <time>2021-08-31T14:17:03Z</time>
      </trkpt>
      <trkpt lat="44.46396" lon="1.68463">
        <ele>131</ele>
        <time>2021-08-31T14:17:13Z</time>
      </trkpt>
      <trkpt lat="44.46391" lon="1.68467">
        <ele>132</ele>
        <time>2021-08-31T14:17:15Z</time>
      </trkpt>
      <trkpt lat="44.46387" lon="1.68472">
        <ele>132</ele>
        <time>2021-08-31T14:17:17Z</time>
      </trkpt>
      <trkpt lat="44.46382" lon="1.68476">
        <ele>134</ele>
        <time>2021-08-31T14:17:20Z</time>
      </trkpt>
      <trkpt lat="44.46377" lon="1.68479">
        <ele>136</ele>
        <time>2021-08-31T14:18:58Z</time>
      </trkpt>
      <trkpt lat="44.46277" lon="1.68558">
        <ele>132</ele>
        <time>2021-08-31T14:19:29Z</time>
      </trkpt>
      <trkpt lat="44.46174" lon="1.68627">
        <ele>125</ele>
        <time>2021-08-31T14:19:59Z</time>
      </trkpt>
      <trkpt lat="44.46105" lon="1.68689">
        <ele>123</ele>
        <time>2021-08-31T14:20:19Z</time>
      </trkpt>
      <trkpt lat="44.45989" lon="1.688">
        <ele>125</ele>
        <time>2021-08-31T14:20:49Z</time>
      </trkpt>
      <trkpt lat="44.45914" lon="1.68881">
        <ele>122</ele>
        <time>2021-08-31T14:21:07Z</time>
      </trkpt>
      <trkpt lat="44.45883" lon="1.68928">
        <ele>119</ele>
        <time>2021-08-31T14:21:16Z</time>
      </trkpt>
      <trkpt lat="44.45835" lon="1.68991">
        <ele>118</ele>
        <time>2021-08-31T14:21:30Z</time>
      </trkpt>
      <trkpt lat="44.45827" lon="1.68993">
        <ele>117</ele>
        <time>2021-08-31T14:21:32Z</time>
      </trkpt>
      <trkpt lat="44.45814" lon="1.69012">
        <ele>114</ele>
        <time>2021-08-31T14:21:38Z</time>
      </trkpt>
      <trkpt lat="44.45784" lon="1.69042">
        <ele>113</ele>
        <time>2021-08-31T14:21:46Z</time>
      </trkpt>
      <trkpt lat="44.45772" lon="1.69062">
        <ele>112</ele>
        <time>2021-08-31T14:21:49Z</time>
      </trkpt>
      <trkpt lat="44.45756" lon="1.69076">
        <ele>111</ele>
        <time>2021-08-31T14:21:53Z</time>
      </trkpt>
      <trkpt lat="44.45747" lon="1.69096">
        <ele>113</ele>
        <time>2021-08-31T14:21:57Z</time>
      </trkpt>
      <trkpt lat="44.45736" lon="1.69126">
        <ele>114</ele>
        <time>2021-08-31T14:22:03Z</time>
      </trkpt>
      <trkpt lat="44.45732" lon="1.69133">
        <ele>115</ele>
        <time>2021-08-31T14:22:05Z</time>
      </trkpt>
      <trkpt lat="44.45701" lon="1.69244">
        <ele>119</ele>
        <time>2021-08-31T14:22:24Z</time>
      </trkpt>
      <trkpt lat="44.4569" lon="1.69262">
        <ele>120</ele>
        <time>2021-08-31T14:22:28Z</time>
      </trkpt>
      <trkpt lat="44.45684" lon="1.69273">
        <ele>119</ele>
        <time>2021-08-31T14:22:30Z</time>
      </trkpt>
      <trkpt lat="44.45681" lon="1.69284">
        <ele>118</ele>
        <time>2021-08-31T14:22:32Z</time>
      </trkpt>
      <trkpt lat="44.45663" lon="1.69311">
        <ele>116</ele>
        <time>2021-08-31T14:22:38Z</time>
      </trkpt>
      <trkpt lat="44.45656" lon="1.69338">
        <ele>116</ele>
        <time>2021-08-31T14:22:42Z</time>
      </trkpt>
      <trkpt lat="44.45655" lon="1.69346">
        <ele>116</ele>
        <time>2021-08-31T14:22:43Z</time>
      </trkpt>
      <trkpt lat="44.45643" lon="1.69418">
        <ele>119</ele>
        <time>2021-08-31T14:22:52Z</time>
      </trkpt>
      <trkpt lat="44.45636" lon="1.69429">
        <ele>121</ele>
        <time>2021-08-31T14:22:54Z</time>
      </trkpt>
      <trkpt lat="44.4563" lon="1.69431">
        <ele>121</ele>
        <time>2021-08-31T14:22:55Z</time>
      </trkpt>
      <trkpt lat="44.45626" lon="1.69445">
        <ele>123</ele>
        <time>2021-08-31T14:22:59Z</time>
      </trkpt>
      <trkpt lat="44.45626" lon="1.69455">
        <ele>122</ele>
        <time>2021-08-31T14:23:02Z</time>
      </trkpt>
      <trkpt lat="44.45622" lon="1.69462">
        <ele>123</ele>
        <time>2021-08-31T14:23:04Z</time>
      </trkpt>
      <trkpt lat="44.45574" lon="1.69473">
        <ele>127</ele>
        <time>2021-08-31T14:23:18Z</time>
      </trkpt>
      <trkpt lat="44.45569" lon="1.69474">
        <ele>127</ele>
        <time>2021-08-31T14:23:20Z</time>
      </trkpt>
      <trkpt lat="44.45563" lon="1.69476">
        <ele>128</ele>
        <time>2021-08-31T14:23:22Z</time>
      </trkpt>
      <trkpt lat="44.45528" lon="1.6948">
        <ele>130</ele>
        <time>2021-08-31T14:23:32Z</time>
      </trkpt>
      <trkpt lat="44.45512" lon="1.69481">
        <ele>131</ele>
        <time>2021-08-31T14:23:36Z</time>
      </trkpt>
      <trkpt lat="44.45498" lon="1.69487">
        <ele>132</ele>
        <time>2021-08-31T14:23:39Z</time>
      </trkpt>
      <trkpt lat="44.45471" lon="1.69504">
        <ele>134</ele>
        <time>2021-08-31T14:23:44Z</time>
      </trkpt>
      <trkpt lat="44.45445" lon="1.69516">
        <ele>136</ele>
        <time>2021-08-31T14:23:48Z</time>
      </trkpt>
      <trkpt lat="44.45435" lon="1.69528">
        <ele>136</ele>
        <time>2021-08-31T14:23:50Z</time>
      </trkpt>
      <trkpt lat="44.45431" lon="1.69536">
        <ele>136</ele>
        <time>2021-08-31T14:23:51Z</time>
      </trkpt>
      <trkpt lat="44.45425" lon="1.69552">
        <ele>135</ele>
        <time>2021-08-31T14:23:53Z</time>
      </trkpt>
      <trkpt lat="44.45427" lon="1.69612">
        <ele>134</ele>
        <time>2021-08-31T14:24:01Z</time>
      </trkpt>
      <trkpt lat="44.45434" lon="1.69662">
        <ele>133</ele>
        <time>2021-08-31T14:24:10Z</time>
      </trkpt>
      <trkpt lat="44.45432" lon="1.6967">
        <ele>133</ele>
        <time>2021-08-31T14:25:03Z</time>
      </trkpt>
      <trkpt lat="44.45436" lon="1.69673">
        <ele>133</ele>
        <time>2021-08-31T14:25:06Z</time>
      </trkpt>
      <trkpt lat="44.45542" lon="1.69692">
        <ele>135</ele>
        <time>2021-08-31T14:25:38Z</time>
      </trkpt>
      <trkpt lat="44.45624" lon="1.69706">
        <ele>137</ele>
        <time>2021-08-31T14:26:08Z</time>
      </trkpt>
      <trkpt lat="44.45668" lon="1.69707">
        <ele>138</ele>
        <time>2021-08-31T14:26:24Z</time>
      </trkpt>
      <trkpt lat="44.45686" lon="1.69723">
        <ele>137</ele>
        <time>2021-08-31T14:26:29Z</time>
      </trkpt>
      <trkpt lat="44.45692" lon="1.69736">
        <ele>137</ele>
        <time>2021-08-31T14:26:31Z</time>
      </trkpt>
      <trkpt lat="44.45695" lon="1.69757">
        <ele>136</ele>
        <time>2021-08-31T14:26:33Z</time>
      </trkpt>
      <trkpt lat="44.45698" lon="1.69845">
        <ele>136</ele>
        <time>2021-08-31T14:26:47Z</time>
      </trkpt>
      <trkpt lat="44.4575" lon="1.70045">
        <ele>134</ele>
        <time>2021-08-31T14:27:17Z</time>
      </trkpt>
      <trkpt lat="44.45799" lon="1.70253">
        <ele>137</ele>
        <time>2021-08-31T14:27:48Z</time>
      </trkpt>
      <trkpt lat="44.45822" lon="1.70354">
        <ele>135</ele>
        <time>2021-08-31T14:28:04Z</time>
      </trkpt>
      <trkpt lat="44.45834" lon="1.70388">
        <ele>136</ele>
        <time>2021-08-31T14:28:10Z</time>
      </trkpt>
      <trkpt lat="44.45867" lon="1.70525">
        <ele>144</ele>
        <time>2021-08-31T14:28:32Z</time>
      </trkpt>
      <trkpt lat="44.45928" lon="1.70682">
        <ele>146</ele>
        <time>2021-08-31T14:28:58Z</time>
      </trkpt>
      <trkpt lat="44.45953" lon="1.70796">
        <ele>149</ele>
        <time>2021-08-31T14:29:16Z</time>
      </trkpt>
      <trkpt lat="44.45959" lon="1.70814">
        <ele>149</ele>
        <time>2021-08-31T14:29:19Z</time>
      </trkpt>
      <trkpt lat="44.45969" lon="1.7083">
        <ele>151</ele>
        <time>2021-08-31T14:29:22Z</time>
      </trkpt>
      <trkpt lat="44.45975" lon="1.70856">
        <ele>151</ele>
        <time>2021-08-31T14:29:26Z</time>
      </trkpt>
      <trkpt lat="44.45976" lon="1.70869">
        <ele>150</ele>
        <time>2021-08-31T14:29:28Z</time>
      </trkpt>
      <trkpt lat="44.45983" lon="1.70911">
        <ele>147</ele>
        <time>2021-08-31T14:29:34Z</time>
      </trkpt>
      <trkpt lat="44.46013" lon="1.71068">
        <ele>142</ele>
        <time>2021-08-31T14:29:59Z</time>
      </trkpt>
      <trkpt lat="44.46017" lon="1.71114">
        <ele>139</ele>
        <time>2021-08-31T14:30:06Z</time>
      </trkpt>
      <trkpt lat="44.46016" lon="1.71126">
        <ele>139</ele>
        <time>2021-08-31T14:30:08Z</time>
      </trkpt>
      <trkpt lat="44.46039" lon="1.71319">
        <ele>136</ele>
        <time>2021-08-31T14:30:39Z</time>
      </trkpt>
      <trkpt lat="44.46048" lon="1.71395">
        <ele>135</ele>
        <time>2021-08-31T14:30:50Z</time>
      </trkpt>
      <trkpt lat="44.46059" lon="1.71431">
        <ele>135</ele>
        <time>2021-08-31T14:30:55Z</time>
      </trkpt>
      <trkpt lat="44.46132" lon="1.71594">
        <ele>141</ele>
        <time>2021-08-31T14:31:26Z</time>
      </trkpt>
      <trkpt lat="44.46135" lon="1.71602">
        <ele>141</ele>
        <time>2021-08-31T14:31:28Z</time>
      </trkpt>
      <trkpt lat="44.46137" lon="1.71611">
        <ele>141</ele>
        <time>2021-08-31T14:31:30Z</time>
      </trkpt>
      <trkpt lat="44.46151" lon="1.71658">
        <ele>142</ele>
        <time>2021-08-31T14:31:39Z</time>
      </trkpt>
      <trkpt lat="44.46178" lon="1.71701">
        <ele>142</ele>
        <time>2021-08-31T14:31:49Z</time>
      </trkpt>
      <trkpt lat="44.46198" lon="1.71722">
        <ele>141</ele>
        <time>2021-08-31T14:31:55Z</time>
      </trkpt>
      <trkpt lat="44.46275" lon="1.71776">
        <ele>139</ele>
        <time>2021-08-31T14:32:13Z</time>
      </trkpt>
      <trkpt lat="44.46357" lon="1.71786">
        <ele>136</ele>
        <time>2021-08-31T14:32:27Z</time>
      </trkpt>
      <trkpt lat="44.4637" lon="1.71792">
        <ele>136</ele>
        <time>2021-08-31T14:32:29Z</time>
      </trkpt>
      <trkpt lat="44.4638" lon="1.71803">
        <ele>137</ele>
        <time>2021-08-31T14:32:31Z</time>
      </trkpt>
      <trkpt lat="44.46433" lon="1.71891">
        <ele>137</ele>
        <time>2021-08-31T14:32:47Z</time>
      </trkpt>
      <trkpt lat="44.46449" lon="1.71935">
        <ele>137</ele>
        <time>2021-08-31T14:32:54Z</time>
      </trkpt>
      <trkpt lat="44.46456" lon="1.71973">
        <ele>137</ele>
        <time>2021-08-31T14:32:59Z</time>
      </trkpt>
      <trkpt lat="44.46448" lon="1.72201">
        <ele>134</ele>
        <time>2021-08-31T14:33:30Z</time>
      </trkpt>
      <trkpt lat="44.46442" lon="1.72378">
        <ele>133</ele>
        <time>2021-08-31T14:33:56Z</time>
      </trkpt>
      <trkpt lat="44.46403" lon="1.72525">
        <ele>134</ele>
        <time>2021-08-31T14:34:21Z</time>
      </trkpt>
      <trkpt lat="44.46399" lon="1.72555">
        <ele>133</ele>
        <time>2021-08-31T14:34:27Z</time>
      </trkpt>
      <trkpt lat="44.46399" lon="1.72566">
        <ele>132</ele>
        <time>2021-08-31T14:34:29Z</time>
      </trkpt>
      <trkpt lat="44.46399" lon="1.72577">
        <ele>131</ele>
        <time>2021-08-31T14:34:31Z</time>
      </trkpt>
      <trkpt lat="44.46404" lon="1.72605">
        <ele>133</ele>
        <time>2021-08-31T14:34:35Z</time>
      </trkpt>
      <trkpt lat="44.46405" lon="1.72626">
        <ele>134</ele>
        <time>2021-08-31T14:34:38Z</time>
      </trkpt>
      <trkpt lat="44.46389" lon="1.7269">
        <ele>137</ele>
        <time>2021-08-31T14:34:50Z</time>
      </trkpt>
      <trkpt lat="44.46307" lon="1.72852">
        <ele>139</ele>
        <time>2021-08-31T14:35:20Z</time>
      </trkpt>
      <trkpt lat="44.46296" lon="1.72892">
        <ele>137</ele>
        <time>2021-08-31T14:35:30Z</time>
      </trkpt>
      <trkpt lat="44.46289" lon="1.72908">
        <ele>136</ele>
        <time>2021-08-31T14:35:34Z</time>
      </trkpt>
      <trkpt lat="44.46267" lon="1.72978">
        <ele>131</ele>
        <time>2021-08-31T14:35:45Z</time>
      </trkpt>
      <trkpt lat="44.46239" lon="1.7302">
        <ele>131</ele>
        <time>2021-08-31T14:35:51Z</time>
      </trkpt>
      <trkpt lat="44.46227" lon="1.73038">
        <ele>131</ele>
        <time>2021-08-31T14:35:54Z</time>
      </trkpt>
      <trkpt lat="44.46107" lon="1.73236">
        <ele>136</ele>
        <time>2021-08-31T14:36:24Z</time>
      </trkpt>
      <trkpt lat="44.46005" lon="1.73428">
        <ele>137</ele>
        <time>2021-08-31T14:36:55Z</time>
      </trkpt>
      <trkpt lat="44.45976" lon="1.73494">
        <ele>140</ele>
        <time>2021-08-31T14:37:06Z</time>
      </trkpt>
      <trkpt lat="44.45939" lon="1.73709">
        <ele>142</ele>
        <time>2021-08-31T14:37:36Z</time>
      </trkpt>
      <trkpt lat="44.45932" lon="1.73782">
        <ele>142</ele>
        <time>2021-08-31T14:37:46Z</time>
      </trkpt>
      <trkpt lat="44.45926" lon="1.7381">
        <ele>142</ele>
        <time>2021-08-31T14:37:50Z</time>
      </trkpt>
      <trkpt lat="44.4591" lon="1.73866">
        <ele>144</ele>
        <time>2021-08-31T14:37:58Z</time>
      </trkpt>
      <trkpt lat="44.4589" lon="1.7397">
        <ele>148</ele>
        <time>2021-08-31T14:38:13Z</time>
      </trkpt>
      <trkpt lat="44.45891" lon="1.74058">
        <ele>148</ele>
        <time>2021-08-31T14:38:25Z</time>
      </trkpt>
      <trkpt lat="44.45905" lon="1.74119">
        <ele>147</ele>
        <time>2021-08-31T14:38:33Z</time>
      </trkpt>
      <trkpt lat="44.4597" lon="1.74262">
        <ele>140</ele>
        <time>2021-08-31T14:38:56Z</time>
      </trkpt>
      <trkpt lat="44.46038" lon="1.74347">
        <ele>138</ele>
        <time>2021-08-31T14:39:13Z</time>
      </trkpt>
      <trkpt lat="44.46059" lon="1.74359">
        <ele>137</ele>
        <time>2021-08-31T14:39:17Z</time>
      </trkpt>
      <trkpt lat="44.46174" lon="1.74426">
        <ele>139</ele>
        <time>2021-08-31T14:39:42Z</time>
      </trkpt>
      <trkpt lat="44.46208" lon="1.74454">
        <ele>140</ele>
        <time>2021-08-31T14:39:51Z</time>
      </trkpt>
      <trkpt lat="44.46213" lon="1.7446">
        <ele>139</ele>
        <time>2021-08-31T14:39:53Z</time>
      </trkpt>
      <trkpt lat="44.46216" lon="1.74466">
        <ele>140</ele>
        <time>2021-08-31T14:39:55Z</time>
      </trkpt>
      <trkpt lat="44.46219" lon="1.74471">
        <ele>140</ele>
        <time>2021-08-31T14:39:57Z</time>
      </trkpt>
      <trkpt lat="44.46222" lon="1.74476">
        <ele>140</ele>
        <time>2021-08-31T14:39:59Z</time>
      </trkpt>
      <trkpt lat="44.46225" lon="1.74484">
        <ele>140</ele>
        <time>2021-08-31T14:40:02Z</time>
      </trkpt>
      <trkpt lat="44.46232" lon="1.74505">
        <ele>141</ele>
        <time>2021-08-31T14:40:09Z</time>
      </trkpt>
      <trkpt lat="44.46237" lon="1.74519">
        <ele>140</ele>
        <time>2021-08-31T14:40:13Z</time>
      </trkpt>
      <trkpt lat="44.46261" lon="1.74606">
        <ele>139</ele>
        <time>2021-08-31T14:40:33Z</time>
      </trkpt>
      <trkpt lat="44.46262" lon="1.74615">
        <ele>139</ele>
        <time>2021-08-31T14:40:35Z</time>
      </trkpt>
      <trkpt lat="44.46264" lon="1.74625">
        <ele>140</ele>
        <time>2021-08-31T14:40:37Z</time>
      </trkpt>
      <trkpt lat="44.46268" lon="1.74644">
        <ele>139</ele>
        <time>2021-08-31T14:40:41Z</time>
      </trkpt>
      <trkpt lat="44.46273" lon="1.74663">
        <ele>140</ele>
        <time>2021-08-31T14:40:45Z</time>
      </trkpt>
      <trkpt lat="44.46277" lon="1.7468">
        <ele>141</ele>
        <time>2021-08-31T14:40:49Z</time>
      </trkpt>
      <trkpt lat="44.4628" lon="1.74705">
        <ele>141</ele>
        <time>2021-08-31T14:40:55Z</time>
      </trkpt>
      <trkpt lat="44.46279" lon="1.74713">
        <ele>141</ele>
        <time>2021-08-31T14:40:57Z</time>
      </trkpt>
      <trkpt lat="44.4626" lon="1.7476">
        <ele>138</ele>
        <time>2021-08-31T14:41:11Z</time>
      </trkpt>
      <trkpt lat="44.46248" lon="1.74785">
        <ele>134</ele>
        <time>2021-08-31T14:41:17Z</time>
      </trkpt>
      <trkpt lat="44.46243" lon="1.7479">
        <ele>134</ele>
        <time>2021-08-31T14:41:19Z</time>
      </trkpt>
      <trkpt lat="44.4621" lon="1.74835">
        <ele>136</ele>
        <time>2021-08-31T14:41:32Z</time>
      </trkpt>
      <trkpt lat="44.46207" lon="1.7484">
        <ele>137</ele>
        <time>2021-08-31T14:41:34Z</time>
      </trkpt>
      <trkpt lat="44.46208" lon="1.74847">
        <ele>137</ele>
        <time>2021-08-31T14:41:37Z</time>
      </trkpt>
      <trkpt lat="44.46248" lon="1.74917">
        <ele>140</ele>
        <time>2021-08-31T14:42:02Z</time>
      </trkpt>
      <trkpt lat="44.46261" lon="1.74918">
        <ele>139</ele>
        <time>2021-08-31T14:42:06Z</time>
      </trkpt>
      <trkpt lat="44.4629" lon="1.74911">
        <ele>140</ele>
        <time>2021-08-31T14:42:17Z</time>
      </trkpt>
      <trkpt lat="44.46294" lon="1.74905">
        <ele>142</ele>
        <time>2021-08-31T14:42:56Z</time>
      </trkpt>
      <trkpt lat="44.46315" lon="1.74893">
        <ele>146</ele>
        <time>2021-08-31T14:43:03Z</time>
      </trkpt>
      <trkpt lat="44.4634" lon="1.7488">
        <ele>147</ele>
        <time>2021-08-31T14:43:09Z</time>
      </trkpt>
      <trkpt lat="44.46424" lon="1.74854">
        <ele>155</ele>
        <time>2021-08-31T14:43:30Z</time>
      </trkpt>
      <trkpt lat="44.46444" lon="1.74844">
        <ele>156</ele>
        <time>2021-08-31T14:43:35Z</time>
      </trkpt>
      <trkpt lat="44.46487" lon="1.74807">
        <ele>153</ele>
        <time>2021-08-31T14:43:45Z</time>
      </trkpt>
      <trkpt lat="44.465" lon="1.74801">
        <ele>152</ele>
        <time>2021-08-31T14:43:47Z</time>
      </trkpt>
      <trkpt lat="44.46507" lon="1.74799">
        <ele>151</ele>
        <time>2021-08-31T14:43:48Z</time>
      </trkpt>
      <trkpt lat="44.46519" lon="1.74799">
        <ele>151</ele>
        <time>2021-08-31T14:43:50Z</time>
      </trkpt>
      <trkpt lat="44.46559" lon="1.7482">
        <ele>150</ele>
        <time>2021-08-31T14:43:58Z</time>
      </trkpt>
      <trkpt lat="44.46568" lon="1.74829">
        <ele>150</ele>
        <time>2021-08-31T14:44:00Z</time>
      </trkpt>
      <trkpt lat="44.46616" lon="1.74918">
        <ele>148</ele>
        <time>2021-08-31T14:44:15Z</time>
      </trkpt>
      <trkpt lat="44.46629" lon="1.74953">
        <ele>146</ele>
        <time>2021-08-31T14:44:20Z</time>
      </trkpt>
      <trkpt lat="44.46633" lon="1.7501">
        <ele>144</ele>
        <time>2021-08-31T14:44:26Z</time>
      </trkpt>
      <trkpt lat="44.46633" lon="1.75051">
        <ele>143</ele>
        <time>2021-08-31T14:44:30Z</time>
      </trkpt>
      <trkpt lat="44.4663" lon="1.75071">
        <ele>143</ele>
        <time>2021-08-31T14:44:32Z</time>
      </trkpt>
      <trkpt lat="44.46624" lon="1.75088">
        <ele>143</ele>
        <time>2021-08-31T14:44:34Z</time>
      </trkpt>
      <trkpt lat="44.46613" lon="1.75109">
        <ele>143</ele>
        <time>2021-08-31T14:44:37Z</time>
      </trkpt>
      <trkpt lat="44.46584" lon="1.75134">
        <ele>143</ele>
        <time>2021-08-31T14:44:44Z</time>
      </trkpt>
      <trkpt lat="44.46544" lon="1.75166">
        <ele>144</ele>
        <time>2021-08-31T14:44:56Z</time>
      </trkpt>
      <trkpt lat="44.46538" lon="1.75169">
        <ele>140</ele>
        <time>2021-08-31T14:44:59Z</time>
      </trkpt>
      <trkpt lat="44.46533" lon="1.75172">
        <ele>139</ele>
        <time>2021-08-31T14:45:01Z</time>
      </trkpt>
      <trkpt lat="44.46527" lon="1.75178">
        <ele>136</ele>
        <time>2021-08-31T14:45:04Z</time>
      </trkpt>
      <trkpt lat="44.46521" lon="1.75184">
        <ele>133</ele>
        <time>2021-08-31T14:45:06Z</time>
      </trkpt>
      <trkpt lat="44.46513" lon="1.75189">
        <ele>132</ele>
        <time>2021-08-31T14:45:08Z</time>
      </trkpt>
      <trkpt lat="44.46451" lon="1.75233">
        <ele>123</ele>
        <time>2021-08-31T14:45:21Z</time>
      </trkpt>
      <trkpt lat="44.46447" lon="1.75239">
        <ele>122</ele>
        <time>2021-08-31T14:45:22Z</time>
      </trkpt>
      <trkpt lat="44.46416" lon="1.75301">
        <ele>123</ele>
        <time>2021-08-31T14:45:31Z</time>
      </trkpt>
      <trkpt lat="44.46314" lon="1.75412">
        <ele>124</ele>
        <time>2021-08-31T14:45:58Z</time>
      </trkpt>
      <trkpt lat="44.46305" lon="1.7542">
        <ele>125</ele>
        <time>2021-08-31T14:46:00Z</time>
      </trkpt>
      <trkpt lat="44.46278" lon="1.75446">
        <ele>125</ele>
        <time>2021-08-31T14:46:07Z</time>
      </trkpt>
      <trkpt lat="44.46226" lon="1.75483">
        <ele>120</ele>
        <time>2021-08-31T14:46:24Z</time>
      </trkpt>
      <trkpt lat="44.46187" lon="1.75505">
        <ele>113</ele>
        <time>2021-08-31T14:46:36Z</time>
      </trkpt>
      <trkpt lat="44.4607" lon="1.75607">
        <ele>123</ele>
        <time>2021-08-31T14:47:07Z</time>
      </trkpt>
      <trkpt lat="44.46055" lon="1.75621">
        <ele>124</ele>
        <time>2021-08-31T14:47:11Z</time>
      </trkpt>
      <trkpt lat="44.46047" lon="1.75627">
        <ele>124</ele>
        <time>2021-08-31T14:47:13Z</time>
      </trkpt>
      <trkpt lat="44.46002" lon="1.75668">
        <ele>125</ele>
        <time>2021-08-31T14:47:23Z</time>
      </trkpt>
      <trkpt lat="44.45995" lon="1.75679">
        <ele>125</ele>
        <time>2021-08-31T14:47:25Z</time>
      </trkpt>
      <trkpt lat="44.4599" lon="1.75693">
        <ele>125</ele>
        <time>2021-08-31T14:47:27Z</time>
      </trkpt>
      <trkpt lat="44.45985" lon="1.75714">
        <ele>124</ele>
        <time>2021-08-31T14:47:30Z</time>
      </trkpt>
      <trkpt lat="44.45983" lon="1.75746">
        <ele>123</ele>
        <time>2021-08-31T14:47:34Z</time>
      </trkpt>
      <trkpt lat="44.46007" lon="1.7592">
        <ele>129</ele>
        <time>2021-08-31T14:47:57Z</time>
      </trkpt>
      <trkpt lat="44.46003" lon="1.76128">
        <ele>136</ele>
        <time>2021-08-31T14:48:27Z</time>
      </trkpt>
      <trkpt lat="44.46" lon="1.76218">
        <ele>138</ele>
        <time>2021-08-31T14:48:39Z</time>
      </trkpt>
      <trkpt lat="44.45967" lon="1.76424">
        <ele>139</ele>
        <time>2021-08-31T14:49:10Z</time>
      </trkpt>
      <trkpt lat="44.45947" lon="1.76597">
        <ele>140</ele>
        <time>2021-08-31T14:49:36Z</time>
      </trkpt>
      <trkpt lat="44.45948" lon="1.76646">
        <ele>141</ele>
        <time>2021-08-31T14:49:43Z</time>
      </trkpt>
      <trkpt lat="44.45981" lon="1.76839">
        <ele>144</ele>
        <time>2021-08-31T14:50:13Z</time>
      </trkpt>
      <trkpt lat="44.45998" lon="1.76959">
        <ele>149</ele>
        <time>2021-08-31T14:50:36Z</time>
      </trkpt>
      <trkpt lat="44.46" lon="1.76965">
        <ele>149</ele>
        <time>2021-08-31T14:50:39Z</time>
      </trkpt>
      <trkpt lat="44.46003" lon="1.76972">
        <ele>149</ele>
        <time>2021-08-31T14:50:43Z</time>
      </trkpt>
      <trkpt lat="44.46005" lon="1.76979">
        <ele>148</ele>
        <time>2021-08-31T14:51:05Z</time>
      </trkpt>
      <trkpt lat="44.46007" lon="1.76986">
        <ele>148</ele>
        <time>2021-08-31T14:51:08Z</time>
      </trkpt>
      <trkpt lat="44.46028" lon="1.77121">
        <ele>143</ele>
        <time>2021-08-31T14:51:38Z</time>
      </trkpt>
      <trkpt lat="44.46038" lon="1.77161">
        <ele>142</ele>
        <time>2021-08-31T14:51:46Z</time>
      </trkpt>
      <trkpt lat="44.46063" lon="1.77218">
        <ele>140</ele>
        <time>2021-08-31T14:51:58Z</time>
      </trkpt>
      <trkpt lat="44.46068" lon="1.77226">
        <ele>139</ele>
        <time>2021-08-31T14:52:00Z</time>
      </trkpt>
      <trkpt lat="44.46072" lon="1.77233">
        <ele>139</ele>
        <time>2021-08-31T14:52:02Z</time>
      </trkpt>
      <trkpt lat="44.46128" lon="1.77351">
        <ele>137</ele>
        <time>2021-08-31T14:52:26Z</time>
      </trkpt>
      <trkpt lat="44.46133" lon="1.77373">
        <ele>138</ele>
        <time>2021-08-31T14:52:30Z</time>
      </trkpt>
      <trkpt lat="44.46132" lon="1.77451">
        <ele>139</ele>
        <time>2021-08-31T14:52:48Z</time>
      </trkpt>
      <trkpt lat="44.46129" lon="1.77539">
        <ele>142</ele>
        <time>2021-08-31T14:53:10Z</time>
      </trkpt>
      <trkpt lat="44.46125" lon="1.77574">
        <ele>143</ele>
        <time>2021-08-31T14:53:18Z</time>
      </trkpt>
      <trkpt lat="44.46119" lon="1.77592">
        <ele>145</ele>
        <time>2021-08-31T14:53:22Z</time>
      </trkpt>
      <trkpt lat="44.46114" lon="1.77605">
        <ele>146</ele>
        <time>2021-08-31T14:53:26Z</time>
      </trkpt>
      <trkpt lat="44.46106" lon="1.77615">
        <ele>146</ele>
        <time>2021-08-31T14:53:30Z</time>
      </trkpt>
      <trkpt lat="44.46101" lon="1.77621">
        <ele>146</ele>
        <time>2021-08-31T14:53:32Z</time>
      </trkpt>
      <trkpt lat="44.46072" lon="1.77652">
        <ele>147</ele>
        <time>2021-08-31T14:53:46Z</time>
      </trkpt>
      <trkpt lat="44.46061" lon="1.77654">
        <ele>147</ele>
        <time>2021-08-31T14:53:50Z</time>
      </trkpt>
      <trkpt lat="44.46044" lon="1.77651">
        <ele>147</ele>
        <time>2021-08-31T14:53:56Z</time>
      </trkpt>
      <trkpt lat="44.46025" lon="1.77643">
        <ele>147</ele>
        <time>2021-08-31T14:54:04Z</time>
      </trkpt>
      <trkpt lat="44.46015" lon="1.77635">
        <ele>147</ele>
        <time>2021-08-31T14:54:09Z</time>
      </trkpt>
      <trkpt lat="44.4601" lon="1.7763">
        <ele>147</ele>
        <time>2021-08-31T14:54:12Z</time>
      </trkpt>
      <trkpt lat="44.46002" lon="1.77622">
        <ele>147</ele>
        <time>2021-08-31T14:54:17Z</time>
      </trkpt>
      <trkpt lat="44.45997" lon="1.77618">
        <ele>147</ele>
        <time>2021-08-31T14:54:19Z</time>
      </trkpt>
      <trkpt lat="44.45985" lon="1.77603">
        <ele>148</ele>
        <time>2021-08-31T14:54:26Z</time>
      </trkpt>
      <trkpt lat="44.45979" lon="1.77598">
        <ele>148</ele>
        <time>2021-08-31T14:54:29Z</time>
      </trkpt>
      <trkpt lat="44.45934" lon="1.77545">
        <ele>154</ele>
        <time>2021-08-31T14:54:53Z</time>
      </trkpt>
      <trkpt lat="44.45928" lon="1.77541">
        <ele>154</ele>
        <time>2021-08-31T14:54:55Z</time>
      </trkpt>
      <trkpt lat="44.45923" lon="1.77539">
        <ele>154</ele>
        <time>2021-08-31T14:54:57Z</time>
      </trkpt>
      <trkpt lat="44.45918" lon="1.77541">
        <ele>154</ele>
        <time>2021-08-31T14:54:59Z</time>
      </trkpt>
      <trkpt lat="44.45914" lon="1.77546">
        <ele>154</ele>
        <time>2021-08-31T14:55:01Z</time>
      </trkpt>
      <trkpt lat="44.4591" lon="1.77551">
        <ele>154</ele>
        <time>2021-08-31T14:55:03Z</time>
      </trkpt>
      <trkpt lat="44.45908" lon="1.77557">
        <ele>154</ele>
        <time>2021-08-31T14:55:05Z</time>
      </trkpt>
      <trkpt lat="44.45908" lon="1.77565">
        <ele>154</ele>
        <time>2021-08-31T14:55:08Z</time>
      </trkpt>
      <trkpt lat="44.45911" lon="1.77573">
        <ele>154</ele>
        <time>2021-08-31T14:55:11Z</time>
      </trkpt>
      <trkpt lat="44.45916" lon="1.77578">
        <ele>154</ele>
        <time>2021-08-31T14:55:14Z</time>
      </trkpt>
      <trkpt lat="44.45921" lon="1.77582">
        <ele>153</ele>
        <time>2021-08-31T14:55:17Z</time>
      </trkpt>
      <trkpt lat="44.45931" lon="1.77593">
        <ele>153</ele>
        <time>2021-08-31T14:55:23Z</time>
      </trkpt>
      <trkpt lat="44.45943" lon="1.77605">
        <ele>154</ele>
        <time>2021-08-31T14:55:30Z</time>
      </trkpt>
      <trkpt lat="44.45947" lon="1.7761">
        <ele>153</ele>
        <time>2021-08-31T14:55:32Z</time>
      </trkpt>
      <trkpt lat="44.45951" lon="1.77614">
        <ele>153</ele>
        <time>2021-08-31T14:55:34Z</time>
      </trkpt>
      <trkpt lat="44.45954" lon="1.77619">
        <ele>153</ele>
        <time>2021-08-31T14:55:36Z</time>
      </trkpt>
      <trkpt lat="44.45996" lon="1.7767">
        <ele>152</ele>
        <time>2021-08-31T14:55:56Z</time>
      </trkpt>
      <trkpt lat="44.46049" lon="1.77744">
        <ele>144</ele>
        <time>2021-08-31T14:56:25Z</time>
      </trkpt>
      <trkpt lat="44.46054" lon="1.77757">
        <ele>142</ele>
        <time>2021-08-31T14:56:29Z</time>
      </trkpt>
      <trkpt lat="44.46057" lon="1.77764">
        <ele>140</ele>
        <time>2021-08-31T14:56:31Z</time>
      </trkpt>
      <trkpt lat="44.46066" lon="1.77787">
        <ele>136</ele>
        <time>2021-08-31T14:56:37Z</time>
      </trkpt>
      <trkpt lat="44.46072" lon="1.778">
        <ele>133</ele>
        <time>2021-08-31T14:56:40Z</time>
      </trkpt>
      <trkpt lat="44.46082" lon="1.7781">
        <ele>131</ele>
        <time>2021-08-31T14:56:43Z</time>
      </trkpt>
      <trkpt lat="44.46116" lon="1.77822">
        <ele>133</ele>
        <time>2021-08-31T14:56:50Z</time>
      </trkpt>
      <trkpt lat="44.46165" lon="1.77822">
        <ele>140</ele>
        <time>2021-08-31T14:57:02Z</time>
      </trkpt>
      <trkpt lat="44.46216" lon="1.77839">
        <ele>146</ele>
        <time>2021-08-31T14:57:23Z</time>
      </trkpt>
      <trkpt lat="44.4622" lon="1.77841">
        <ele>146</ele>
        <time>2021-08-31T14:57:25Z</time>
      </trkpt>
      <trkpt lat="44.46251" lon="1.77852">
        <ele>148</ele>
        <time>2021-08-31T14:57:38Z</time>
      </trkpt>
      <trkpt lat="44.46256" lon="1.77854">
        <ele>149</ele>
        <time>2021-08-31T14:57:41Z</time>
      </trkpt>
      <trkpt lat="44.46301" lon="1.77886">
        <ele>157</ele>
        <time>2021-08-31T14:57:59Z</time>
      </trkpt>
      <trkpt lat="44.4631" lon="1.77896">
        <ele>158</ele>
        <time>2021-08-31T14:58:03Z</time>
      </trkpt>
      <trkpt lat="44.46328" lon="1.77901">
        <ele>159</ele>
        <time>2021-08-31T14:58:10Z</time>
      </trkpt>
      <trkpt lat="44.46342" lon="1.77902">
        <ele>163</ele>
        <time>2021-08-31T14:58:18Z</time>
      </trkpt>
      <trkpt lat="44.46344" lon="1.77909">
        <ele>164</ele>
        <time>2021-08-31T14:58:56Z</time>
      </trkpt>
      <trkpt lat="44.4634" lon="1.77908">
        <ele>165</ele>
        <time>2021-08-31T14:58:58Z</time>
      </trkpt>
      <trkpt lat="44.46335" lon="1.7791">
        <ele>165</ele>
        <time>2021-08-31T14:59:00Z</time>
      </trkpt>
      <trkpt lat="44.46329" lon="1.77912">
        <ele>170</ele>
        <time>2021-08-31T14:59:03Z</time>
      </trkpt>
      <trkpt lat="44.46324" lon="1.7791">
        <ele>172</ele>
        <time>2021-08-31T14:59:07Z</time>
      </trkpt>
      <trkpt lat="44.4632" lon="1.77909">
        <ele>174</ele>
        <time>2021-08-31T15:00:04Z</time>
      </trkpt>
      <trkpt lat="44.46315" lon="1.7791">
        <ele>175</ele>
        <time>2021-08-31T15:00:14Z</time>
      </trkpt>
      <trkpt lat="44.4631" lon="1.7791">
        <ele>176</ele>
        <time>2021-08-31T15:00:20Z</time>
      </trkpt>
      <trkpt lat="44.46306" lon="1.77914">
        <ele>179</ele>
        <time>2021-08-31T15:01:08Z</time>
      </trkpt>
      <trkpt lat="44.46299" lon="1.77906">
        <ele>181</ele>
        <time>2021-08-31T15:01:22Z</time>
      </trkpt>
      <trkpt lat="44.46289" lon="1.77898">
        <ele>182</ele>
        <time>2021-08-31T15:01:33Z</time>
      </trkpt>
      <trkpt lat="44.46286" lon="1.77893">
        <ele>182</ele>
        <time>2021-08-31T15:01:50Z</time>
      </trkpt>
    </trkseg>
  </trk>
  <trk>
    <name><![CDATA[j6]]></name>
    <desc><![CDATA[comment ...]]></desc>
    <extensions>
      <line xmlns="http://www.topografix.com/GPX/gpx_style/0/2">
        <color>00ecec</color>
        <width>4</width>
      </line>
    </extensions>
    <trkseg>
      <trkpt lat="44.46328" lon="1.77903">
        <ele>190</ele>
        <time>2021-09-01T07:45:42Z</time>
      </trkpt>
      <trkpt lat="44.46326" lon="1.77909">
        <ele>182</ele>
        <time>2021-09-01T07:45:52Z</time>
      </trkpt>
      <trkpt lat="44.46298" lon="1.7799">
        <ele>188</ele>
        <time>2021-09-01T07:48:08Z</time>
      </trkpt>
      <trkpt lat="44.46233" lon="1.78139">
        <ele>303</ele>
        <time>2021-09-01T07:48:09Z</time>
      </trkpt>
      <trkpt lat="44.46207" lon="1.78109">
        <ele>196</ele>
        <time>2021-09-01T07:49:24Z</time>
      </trkpt>
      <trkpt lat="44.46205" lon="1.78104">
        <ele>187</ele>
        <time>2021-09-01T07:49:50Z</time>
      </trkpt>
      <trkpt lat="44.46198" lon="1.78103">
        <ele>186</ele>
        <time>2021-09-01T07:49:53Z</time>
      </trkpt>
      <trkpt lat="44.46189" lon="1.78109">
        <ele>172</ele>
        <time>2021-09-01T07:50:02Z</time>
      </trkpt>
      <trkpt lat="44.46185" lon="1.78114">
        <ele>169</ele>
        <time>2021-09-01T07:50:04Z</time>
      </trkpt>
      <trkpt lat="44.46179" lon="1.7812">
        <ele>168</ele>
        <time>2021-09-01T07:50:07Z</time>
      </trkpt>
      <trkpt lat="44.46134" lon="1.78177">
        <ele>141</ele>
        <time>2021-09-01T07:50:37Z</time>
      </trkpt>
      <trkpt lat="44.46129" lon="1.78209">
        <ele>145</ele>
        <time>2021-09-01T07:50:48Z</time>
      </trkpt>
      <trkpt lat="44.46125" lon="1.78221">
        <ele>147</ele>
        <time>2021-09-01T07:50:52Z</time>
      </trkpt>
      <trkpt lat="44.46096" lon="1.78281">
        <ele>143</ele>
        <time>2021-09-01T07:51:14Z</time>
      </trkpt>
      <trkpt lat="44.46095" lon="1.78305">
        <ele>144</ele>
        <time>2021-09-01T07:51:20Z</time>
      </trkpt>
      <trkpt lat="44.46074" lon="1.78349">
        <ele>145</ele>
        <time>2021-09-01T07:51:32Z</time>
      </trkpt>
      <trkpt lat="44.4604" lon="1.78447">
        <ele>142</ele>
        <time>2021-09-01T07:51:54Z</time>
      </trkpt>
      <trkpt lat="44.46034" lon="1.78468">
        <ele>143</ele>
        <time>2021-09-01T07:51:58Z</time>
      </trkpt>
      <trkpt lat="44.46015" lon="1.78624">
        <ele>146</ele>
        <time>2021-09-01T07:52:27Z</time>
      </trkpt>
      <trkpt lat="44.46011" lon="1.78684">
        <ele>146</ele>
        <time>2021-09-01T07:52:37Z</time>
      </trkpt>
      <trkpt lat="44.46023" lon="1.78755">
        <ele>151</ele>
        <time>2021-09-01T07:52:49Z</time>
      </trkpt>
      <trkpt lat="44.4603" lon="1.78798">
        <ele>150</ele>
        <time>2021-09-01T07:52:57Z</time>
      </trkpt>
      <trkpt lat="44.46033" lon="1.7881">
        <ele>150</ele>
        <time>2021-09-01T07:52:59Z</time>
      </trkpt>
      <trkpt lat="44.46041" lon="1.78829">
        <ele>150</ele>
        <time>2021-09-01T07:53:03Z</time>
      </trkpt>
      <trkpt lat="44.46045" lon="1.7884">
        <ele>150</ele>
        <time>2021-09-01T07:53:05Z</time>
      </trkpt>
      <trkpt lat="44.46054" lon="1.78874">
        <ele>152</ele>
        <time>2021-09-01T07:53:11Z</time>
      </trkpt>
      <trkpt lat="44.46089" lon="1.78976">
        <ele>154</ele>
        <time>2021-09-01T07:53:30Z</time>
      </trkpt>
      <trkpt lat="44.4609" lon="1.78989">
        <ele>155</ele>
        <time>2021-09-01T07:53:32Z</time>
      </trkpt>
      <trkpt lat="44.46089" lon="1.78996">
        <ele>155</ele>
        <time>2021-09-01T07:53:33Z</time>
      </trkpt>
      <trkpt lat="44.46082" lon="1.79008">
        <ele>155</ele>
        <time>2021-09-01T07:53:35Z</time>
      </trkpt>
      <trkpt lat="44.46075" lon="1.79016">
        <ele>156</ele>
        <time>2021-09-01T07:53:37Z</time>
      </trkpt>
      <trkpt lat="44.46064" lon="1.7902">
        <ele>154</ele>
        <time>2021-09-01T07:53:39Z</time>
      </trkpt>
      <trkpt lat="44.45999" lon="1.79059">
        <ele>156</ele>
        <time>2021-09-01T07:53:55Z</time>
      </trkpt>
      <trkpt lat="44.45961" lon="1.79064">
        <ele>155</ele>
        <time>2021-09-01T07:54:05Z</time>
      </trkpt>
      <trkpt lat="44.45913" lon="1.79057">
        <ele>155</ele>
        <time>2021-09-01T07:54:21Z</time>
      </trkpt>
      <trkpt lat="44.45907" lon="1.79054">
        <ele>155</ele>
        <time>2021-09-01T07:54:23Z</time>
      </trkpt>
      <trkpt lat="44.45898" lon="1.79051">
        <ele>156</ele>
        <time>2021-09-01T07:54:26Z</time>
      </trkpt>
      <trkpt lat="44.45892" lon="1.79053">
        <ele>157</ele>
        <time>2021-09-01T07:54:28Z</time>
      </trkpt>
      <trkpt lat="44.45885" lon="1.7906">
        <ele>159</ele>
        <time>2021-09-01T07:54:31Z</time>
      </trkpt>
      <trkpt lat="44.45885" lon="1.79065">
        <ele>158</ele>
        <time>2021-09-01T07:55:18Z</time>
      </trkpt>
      <trkpt lat="44.45885" lon="1.79073">
        <ele>154</ele>
        <time>2021-09-01T07:55:24Z</time>
      </trkpt>
      <trkpt lat="44.45876" lon="1.79103">
        <ele>153</ele>
        <time>2021-09-01T07:55:33Z</time>
      </trkpt>
      <trkpt lat="44.45876" lon="1.79118">
        <ele>154</ele>
        <time>2021-09-01T07:55:37Z</time>
      </trkpt>
      <trkpt lat="44.45882" lon="1.79135">
        <ele>154</ele>
        <time>2021-09-01T07:55:43Z</time>
      </trkpt>
      <trkpt lat="44.45884" lon="1.79141">
        <ele>156</ele>
        <time>2021-09-01T07:55:46Z</time>
      </trkpt>
      <trkpt lat="44.45899" lon="1.7915">
        <ele>158</ele>
        <time>2021-09-01T07:55:55Z</time>
      </trkpt>
      <trkpt lat="44.45926" lon="1.79167">
        <ele>160</ele>
        <time>2021-09-01T07:56:10Z</time>
      </trkpt>
      <trkpt lat="44.45965" lon="1.7917">
        <ele>165</ele>
        <time>2021-09-01T07:56:32Z</time>
      </trkpt>
      <trkpt lat="44.45971" lon="1.79174">
        <ele>166</ele>
        <time>2021-09-01T07:56:35Z</time>
      </trkpt>
      <trkpt lat="44.45974" lon="1.79178">
        <ele>166</ele>
        <time>2021-09-01T07:56:37Z</time>
      </trkpt>
      <trkpt lat="44.45976" lon="1.79185">
        <ele>166</ele>
        <time>2021-09-01T07:56:40Z</time>
      </trkpt>
      <trkpt lat="44.45976" lon="1.79233">
        <ele>167</ele>
        <time>2021-09-01T07:56:58Z</time>
      </trkpt>
      <trkpt lat="44.45971" lon="1.79269">
        <ele>167</ele>
        <time>2021-09-01T07:57:13Z</time>
      </trkpt>
      <trkpt lat="44.45966" lon="1.79283">
        <ele>167</ele>
        <time>2021-09-01T07:57:19Z</time>
      </trkpt>
      <trkpt lat="44.4596" lon="1.79311">
        <ele>166</ele>
        <time>2021-09-01T07:57:30Z</time>
      </trkpt>
      <trkpt lat="44.45961" lon="1.79333">
        <ele>166</ele>
        <time>2021-09-01T07:57:39Z</time>
      </trkpt>
      <trkpt lat="44.45969" lon="1.79355">
        <ele>167</ele>
        <time>2021-09-01T07:57:49Z</time>
      </trkpt>
      <trkpt lat="44.45992" lon="1.79382">
        <ele>174</ele>
        <time>2021-09-01T07:58:07Z</time>
      </trkpt>
      <trkpt lat="44.46051" lon="1.79422">
        <ele>179</ele>
        <time>2021-09-01T07:58:40Z</time>
      </trkpt>
      <trkpt lat="44.46113" lon="1.79461">
        <ele>184</ele>
        <time>2021-09-01T07:59:12Z</time>
      </trkpt>
      <trkpt lat="44.46217" lon="1.79548">
        <ele>177</ele>
        <time>2021-09-01T07:59:32Z</time>
      </trkpt>
      <trkpt lat="44.46265" lon="1.79608">
        <ele>174</ele>
        <time>2021-09-01T07:59:40Z</time>
      </trkpt>
      <trkpt lat="44.46319" lon="1.79709">
        <ele>172</ele>
        <time>2021-09-01T07:59:55Z</time>
      </trkpt>
      <trkpt lat="44.46372" lon="1.79764">
        <ele>169</ele>
        <time>2021-09-01T08:00:09Z</time>
      </trkpt>
      <trkpt lat="44.46417" lon="1.79868">
        <ele>173</ele>
        <time>2021-09-01T08:00:35Z</time>
      </trkpt>
      <trkpt lat="44.46456" lon="1.79967">
        <ele>176</ele>
        <time>2021-09-01T08:01:05Z</time>
      </trkpt>
      <trkpt lat="44.46491" lon="1.80069">
        <ele>179</ele>
        <time>2021-09-01T08:01:36Z</time>
      </trkpt>
      <trkpt lat="44.46495" lon="1.80081">
        <ele>179</ele>
        <time>2021-09-01T08:01:40Z</time>
      </trkpt>
      <trkpt lat="44.46502" lon="1.80094">
        <ele>180</ele>
        <time>2021-09-01T08:01:45Z</time>
      </trkpt>
      <trkpt lat="44.46511" lon="1.80104">
        <ele>181</ele>
        <time>2021-09-01T08:01:49Z</time>
      </trkpt>
      <trkpt lat="44.46587" lon="1.80131">
        <ele>186</ele>
        <time>2021-09-01T08:02:21Z</time>
      </trkpt>
      <trkpt lat="44.46631" lon="1.80145">
        <ele>188</ele>
        <time>2021-09-01T08:02:42Z</time>
      </trkpt>
      <trkpt lat="44.46642" lon="1.80153">
        <ele>189</ele>
        <time>2021-09-01T08:02:48Z</time>
      </trkpt>
      <trkpt lat="44.46647" lon="1.80158">
        <ele>189</ele>
        <time>2021-09-01T08:02:51Z</time>
      </trkpt>
      <trkpt lat="44.4665" lon="1.80165">
        <ele>190</ele>
        <time>2021-09-01T08:02:54Z</time>
      </trkpt>
      <trkpt lat="44.46651" lon="1.80171">
        <ele>190</ele>
        <time>2021-09-01T08:02:56Z</time>
      </trkpt>
      <trkpt lat="44.46644" lon="1.80199">
        <ele>191</ele>
        <time>2021-09-01T08:03:05Z</time>
      </trkpt>
      <trkpt lat="44.46641" lon="1.80206">
        <ele>192</ele>
        <time>2021-09-01T08:03:08Z</time>
      </trkpt>
      <trkpt lat="44.46634" lon="1.80221">
        <ele>193</ele>
        <time>2021-09-01T08:03:14Z</time>
      </trkpt>
      <trkpt lat="44.4663" lon="1.80228">
        <ele>193</ele>
        <time>2021-09-01T08:03:17Z</time>
      </trkpt>
      <trkpt lat="44.46605" lon="1.80305">
        <ele>195</ele>
        <time>2021-09-01T08:03:46Z</time>
      </trkpt>
      <trkpt lat="44.46601" lon="1.8032">
        <ele>195</ele>
        <time>2021-09-01T08:03:52Z</time>
      </trkpt>
      <trkpt lat="44.46586" lon="1.80375">
        <ele>194</ele>
        <time>2021-09-01T08:04:13Z</time>
      </trkpt>
      <trkpt lat="44.46571" lon="1.80456">
        <ele>196</ele>
        <time>2021-09-01T08:04:43Z</time>
      </trkpt>
      <trkpt lat="44.46554" lon="1.80515">
        <ele>201</ele>
        <time>2021-09-01T08:05:07Z</time>
      </trkpt>
      <trkpt lat="44.46516" lon="1.80577">
        <ele>207</ele>
        <time>2021-09-01T08:05:37Z</time>
      </trkpt>
      <trkpt lat="44.46495" lon="1.80606">
        <ele>210</ele>
        <time>2021-09-01T08:05:52Z</time>
      </trkpt>
      <trkpt lat="44.46491" lon="1.80612">
        <ele>210</ele>
        <time>2021-09-01T08:05:55Z</time>
      </trkpt>
      <trkpt lat="44.46465" lon="1.80655">
        <ele>214</ele>
        <time>2021-09-01T08:06:16Z</time>
      </trkpt>
      <trkpt lat="44.46461" lon="1.80662">
        <ele>214</ele>
        <time>2021-09-01T08:06:19Z</time>
      </trkpt>
      <trkpt lat="44.46444" lon="1.80695">
        <ele>218</ele>
        <time>2021-09-01T08:06:34Z</time>
      </trkpt>
      <trkpt lat="44.46438" lon="1.80709">
        <ele>218</ele>
        <time>2021-09-01T08:06:40Z</time>
      </trkpt>
      <trkpt lat="44.46404" lon="1.80775">
        <ele>225</ele>
        <time>2021-09-01T08:07:10Z</time>
      </trkpt>
      <trkpt lat="44.46397" lon="1.80797">
        <ele>226</ele>
        <time>2021-09-01T08:07:19Z</time>
      </trkpt>
      <trkpt lat="44.46391" lon="1.8085">
        <ele>229</ele>
        <time>2021-09-01T08:07:37Z</time>
      </trkpt>
      <trkpt lat="44.46388" lon="1.80865">
        <ele>231</ele>
        <time>2021-09-01T08:07:43Z</time>
      </trkpt>
      <trkpt lat="44.46376" lon="1.80899">
        <ele>232</ele>
        <time>2021-09-01T08:07:58Z</time>
      </trkpt>
      <trkpt lat="44.46369" lon="1.8091">
        <ele>232</ele>
        <time>2021-09-01T08:08:04Z</time>
      </trkpt>
      <trkpt lat="44.46347" lon="1.80946">
        <ele>236</ele>
        <time>2021-09-01T08:08:20Z</time>
      </trkpt>
      <trkpt lat="44.46339" lon="1.80954">
        <ele>237</ele>
        <time>2021-09-01T08:08:26Z</time>
      </trkpt>
      <trkpt lat="44.4633" lon="1.80961">
        <ele>237</ele>
        <time>2021-09-01T08:10:16Z</time>
      </trkpt>
      <trkpt lat="44.46305" lon="1.80981">
        <ele>237</ele>
        <time>2021-09-01T08:10:27Z</time>
      </trkpt>
      <trkpt lat="44.463" lon="1.80983">
        <ele>237</ele>
        <time>2021-09-01T08:10:29Z</time>
      </trkpt>
      <trkpt lat="44.46278" lon="1.80996">
        <ele>237</ele>
        <time>2021-09-01T08:10:37Z</time>
      </trkpt>
      <trkpt lat="44.46234" lon="1.81052">
        <ele>235</ele>
        <time>2021-09-01T08:10:51Z</time>
      </trkpt>
      <trkpt lat="44.46223" lon="1.8106">
        <ele>234</ele>
        <time>2021-09-01T08:10:53Z</time>
      </trkpt>
      <trkpt lat="44.462" lon="1.81068">
        <ele>232</ele>
        <time>2021-09-01T08:10:57Z</time>
      </trkpt>
      <trkpt lat="44.46195" lon="1.81072">
        <ele>232</ele>
        <time>2021-09-01T08:10:58Z</time>
      </trkpt>
      <trkpt lat="44.46191" lon="1.81076">
        <ele>231</ele>
        <time>2021-09-01T08:10:59Z</time>
      </trkpt>
      <trkpt lat="44.4619" lon="1.81084">
        <ele>231</ele>
        <time>2021-09-01T08:11:00Z</time>
      </trkpt>
      <trkpt lat="44.4619" lon="1.81094">
        <ele>230</ele>
        <time>2021-09-01T08:11:01Z</time>
      </trkpt>
      <trkpt lat="44.46191" lon="1.81103">
        <ele>230</ele>
        <time>2021-09-01T08:11:02Z</time>
      </trkpt>
      <trkpt lat="44.46194" lon="1.81111">
        <ele>230</ele>
        <time>2021-09-01T08:11:03Z</time>
      </trkpt>
      <trkpt lat="44.46212" lon="1.81127">
        <ele>230</ele>
        <time>2021-09-01T08:11:07Z</time>
      </trkpt>
      <trkpt lat="44.46217" lon="1.81131">
        <ele>230</ele>
        <time>2021-09-01T08:11:08Z</time>
      </trkpt>
      <trkpt lat="44.46237" lon="1.81133">
        <ele>229</ele>
        <time>2021-09-01T08:11:11Z</time>
      </trkpt>
      <trkpt lat="44.46258" lon="1.8113">
        <ele>228</ele>
        <time>2021-09-01T08:11:14Z</time>
      </trkpt>
      <trkpt lat="44.46326" lon="1.81097">
        <ele>224</ele>
        <time>2021-09-01T08:11:24Z</time>
      </trkpt>
      <trkpt lat="44.46332" lon="1.81096">
        <ele>223</ele>
        <time>2021-09-01T08:11:25Z</time>
      </trkpt>
      <trkpt lat="44.46343" lon="1.81098">
        <ele>221</ele>
        <time>2021-09-01T08:11:27Z</time>
      </trkpt>
      <trkpt lat="44.46509" lon="1.81255">
        <ele>206</ele>
        <time>2021-09-01T08:11:57Z</time>
      </trkpt>
      <trkpt lat="44.46537" lon="1.81283">
        <ele>202</ele>
        <time>2021-09-01T08:12:02Z</time>
      </trkpt>
      <trkpt lat="44.46541" lon="1.8129">
        <ele>201</ele>
        <time>2021-09-01T08:12:03Z</time>
      </trkpt>
      <trkpt lat="44.46543" lon="1.81297">
        <ele>201</ele>
        <time>2021-09-01T08:12:04Z</time>
      </trkpt>
      <trkpt lat="44.46545" lon="1.81305">
        <ele>200</ele>
        <time>2021-09-01T08:12:05Z</time>
      </trkpt>
      <trkpt lat="44.46545" lon="1.81313">
        <ele>200</ele>
        <time>2021-09-01T08:12:06Z</time>
      </trkpt>
      <trkpt lat="44.46539" lon="1.81329">
        <ele>199</ele>
        <time>2021-09-01T08:12:08Z</time>
      </trkpt>
      <trkpt lat="44.46393" lon="1.81488">
        <ele>182</ele>
        <time>2021-09-01T08:12:33Z</time>
      </trkpt>
      <trkpt lat="44.4638" lon="1.81514">
        <ele>181</ele>
        <time>2021-09-01T08:12:36Z</time>
      </trkpt>
      <trkpt lat="44.46376" lon="1.81534">
        <ele>180</ele>
        <time>2021-09-01T08:12:38Z</time>
      </trkpt>
      <trkpt lat="44.46374" lon="1.81569">
        <ele>177</ele>
        <time>2021-09-01T08:12:41Z</time>
      </trkpt>
      <trkpt lat="44.46389" lon="1.81684">
        <ele>172</ele>
        <time>2021-09-01T08:12:51Z</time>
      </trkpt>
      <trkpt lat="44.46389" lon="1.81709">
        <ele>171</ele>
        <time>2021-09-01T08:12:54Z</time>
      </trkpt>
      <trkpt lat="44.46386" lon="1.81726">
        <ele>170</ele>
        <time>2021-09-01T08:12:56Z</time>
      </trkpt>
      <trkpt lat="44.46374" lon="1.81761">
        <ele>168</ele>
        <time>2021-09-01T08:13:00Z</time>
      </trkpt>
      <trkpt lat="44.4636" lon="1.8178">
        <ele>166</ele>
        <time>2021-09-01T08:13:03Z</time>
      </trkpt>
      <trkpt lat="44.46348" lon="1.8179">
        <ele>165</ele>
        <time>2021-09-01T08:13:05Z</time>
      </trkpt>
      <trkpt lat="44.4629" lon="1.81805">
        <ele>162</ele>
        <time>2021-09-01T08:13:13Z</time>
      </trkpt>
      <trkpt lat="44.46269" lon="1.81823">
        <ele>160</ele>
        <time>2021-09-01T08:13:16Z</time>
      </trkpt>
      <trkpt lat="44.46239" lon="1.81863">
        <ele>157</ele>
        <time>2021-09-01T08:13:21Z</time>
      </trkpt>
      <trkpt lat="44.46235" lon="1.81871">
        <ele>156</ele>
        <time>2021-09-01T08:13:22Z</time>
      </trkpt>
      <trkpt lat="44.46234" lon="1.8188">
        <ele>155</ele>
        <time>2021-09-01T08:13:23Z</time>
      </trkpt>
      <trkpt lat="44.46235" lon="1.81891">
        <ele>154</ele>
        <time>2021-09-01T08:13:24Z</time>
      </trkpt>
      <trkpt lat="44.46238" lon="1.81903">
        <ele>153</ele>
        <time>2021-09-01T08:13:25Z</time>
      </trkpt>
      <trkpt lat="44.46242" lon="1.81913">
        <ele>153</ele>
        <time>2021-09-01T08:13:26Z</time>
      </trkpt>
      <trkpt lat="44.46247" lon="1.81919">
        <ele>152</ele>
        <time>2021-09-01T08:13:27Z</time>
      </trkpt>
      <trkpt lat="44.46253" lon="1.81923">
        <ele>152</ele>
        <time>2021-09-01T08:13:28Z</time>
      </trkpt>
      <trkpt lat="44.46271" lon="1.81925">
        <ele>151</ele>
        <time>2021-09-01T08:13:31Z</time>
      </trkpt>
      <trkpt lat="44.46304" lon="1.81912">
        <ele>149</ele>
        <time>2021-09-01T08:13:41Z</time>
      </trkpt>
      <trkpt lat="44.46367" lon="1.81951">
        <ele>164</ele>
        <time>2021-09-01T08:14:11Z</time>
      </trkpt>
      <trkpt lat="44.46416" lon="1.81958">
        <ele>171</ele>
        <time>2021-09-01T08:14:34Z</time>
      </trkpt>
      <trkpt lat="44.4644" lon="1.8195">
        <ele>173</ele>
        <time>2021-09-01T08:14:44Z</time>
      </trkpt>
      <trkpt lat="44.46453" lon="1.81952">
        <ele>175</ele>
        <time>2021-09-01T08:14:50Z</time>
      </trkpt>
      <trkpt lat="44.4646" lon="1.81963">
        <ele>177</ele>
        <time>2021-09-01T08:14:57Z</time>
      </trkpt>
      <trkpt lat="44.46465" lon="1.82032">
        <ele>178</ele>
        <time>2021-09-01T08:15:16Z</time>
      </trkpt>
      <trkpt lat="44.4646" lon="1.82211">
        <ele>176</ele>
        <time>2021-09-01T08:15:48Z</time>
      </trkpt>
      <trkpt lat="44.46463" lon="1.8226">
        <ele>177</ele>
        <time>2021-09-01T08:15:58Z</time>
      </trkpt>
      <trkpt lat="44.46487" lon="1.82503">
        <ele>171</ele>
        <time>2021-09-01T08:16:28Z</time>
      </trkpt>
      <trkpt lat="44.46493" lon="1.82578">
        <ele>171</ele>
        <time>2021-09-01T08:16:41Z</time>
      </trkpt>
      <trkpt lat="44.46511" lon="1.82618">
        <ele>170</ele>
        <time>2021-09-01T08:16:49Z</time>
      </trkpt>
      <trkpt lat="44.46592" lon="1.82844">
        <ele>159</ele>
        <time>2021-09-01T08:17:20Z</time>
      </trkpt>
      <trkpt lat="44.46599" lon="1.82861">
        <ele>158</ele>
        <time>2021-09-01T08:17:22Z</time>
      </trkpt>
      <trkpt lat="44.46608" lon="1.82876">
        <ele>157</ele>
        <time>2021-09-01T08:17:24Z</time>
      </trkpt>
      <trkpt lat="44.46615" lon="1.8288">
        <ele>156</ele>
        <time>2021-09-01T08:17:25Z</time>
      </trkpt>
      <trkpt lat="44.46622" lon="1.82884">
        <ele>155</ele>
        <time>2021-09-01T08:17:26Z</time>
      </trkpt>
      <trkpt lat="44.46648" lon="1.82883">
        <ele>154</ele>
        <time>2021-09-01T08:17:29Z</time>
      </trkpt>
      <trkpt lat="44.46735" lon="1.82863">
        <ele>150</ele>
        <time>2021-09-01T08:17:40Z</time>
      </trkpt>
      <trkpt lat="44.46798" lon="1.82869">
        <ele>147</ele>
        <time>2021-09-01T08:17:49Z</time>
      </trkpt>
      <trkpt lat="44.46814" lon="1.82874">
        <ele>147</ele>
        <time>2021-09-01T08:17:51Z</time>
      </trkpt>
      <trkpt lat="44.46835" lon="1.82892">
        <ele>146</ele>
        <time>2021-09-01T08:17:54Z</time>
      </trkpt>
      <trkpt lat="44.46844" lon="1.82907">
        <ele>146</ele>
        <time>2021-09-01T08:17:56Z</time>
      </trkpt>
      <trkpt lat="44.46854" lon="1.82934">
        <ele>147</ele>
        <time>2021-09-01T08:17:59Z</time>
      </trkpt>
      <trkpt lat="44.46858" lon="1.82961">
        <ele>146</ele>
        <time>2021-09-01T08:18:02Z</time>
      </trkpt>
      <trkpt lat="44.46865" lon="1.83222">
        <ele>148</ele>
        <time>2021-09-01T08:18:32Z</time>
      </trkpt>
      <trkpt lat="44.46863" lon="1.83282">
        <ele>149</ele>
        <time>2021-09-01T08:18:39Z</time>
      </trkpt>
      <trkpt lat="44.46838" lon="1.83505">
        <ele>150</ele>
        <time>2021-09-01T08:19:09Z</time>
      </trkpt>
      <trkpt lat="44.46842" lon="1.83562">
        <ele>150</ele>
        <time>2021-09-01T08:19:17Z</time>
      </trkpt>
      <trkpt lat="44.46848" lon="1.8359">
        <ele>150</ele>
        <time>2021-09-01T08:19:21Z</time>
      </trkpt>
      <trkpt lat="44.46862" lon="1.83626">
        <ele>150</ele>
        <time>2021-09-01T08:19:27Z</time>
      </trkpt>
      <trkpt lat="44.46885" lon="1.83656">
        <ele>149</ele>
        <time>2021-09-01T08:19:33Z</time>
      </trkpt>
      <trkpt lat="44.46917" lon="1.83689">
        <ele>150</ele>
        <time>2021-09-01T08:19:41Z</time>
      </trkpt>
      <trkpt lat="44.46948" lon="1.83705">
        <ele>152</ele>
        <time>2021-09-01T08:19:49Z</time>
      </trkpt>
      <trkpt lat="44.47054" lon="1.83684">
        <ele>155</ele>
        <time>2021-09-01T08:20:21Z</time>
      </trkpt>
      <trkpt lat="44.47125" lon="1.8361">
        <ele>161</ele>
        <time>2021-09-01T08:20:51Z</time>
      </trkpt>
      <trkpt lat="44.47208" lon="1.83586">
        <ele>167</ele>
        <time>2021-09-01T08:21:21Z</time>
      </trkpt>
      <trkpt lat="44.47304" lon="1.83567">
        <ele>171</ele>
        <time>2021-09-01T08:21:53Z</time>
      </trkpt>
      <trkpt lat="44.47399" lon="1.83545">
        <ele>174</ele>
        <time>2021-09-01T08:22:25Z</time>
      </trkpt>
      <trkpt lat="44.47499" lon="1.83541">
        <ele>174</ele>
        <time>2021-09-01T08:22:57Z</time>
      </trkpt>
      <trkpt lat="44.47533" lon="1.83539">
        <ele>171</ele>
        <time>2021-09-01T08:23:09Z</time>
      </trkpt>
      <trkpt lat="44.47555" lon="1.83548">
        <ele>170</ele>
        <time>2021-09-01T08:23:17Z</time>
      </trkpt>
      <trkpt lat="44.47589" lon="1.83573">
        <ele>173</ele>
        <time>2021-09-01T08:23:31Z</time>
      </trkpt>
      <trkpt lat="44.47594" lon="1.83577">
        <ele>173</ele>
        <time>2021-09-01T08:23:33Z</time>
      </trkpt>
      <trkpt lat="44.47673" lon="1.83636">
        <ele>176</ele>
        <time>2021-09-01T08:23:54Z</time>
      </trkpt>
      <trkpt lat="44.47686" lon="1.83641">
        <ele>175</ele>
        <time>2021-09-01T08:23:57Z</time>
      </trkpt>
      <trkpt lat="44.47716" lon="1.83641">
        <ele>173</ele>
        <time>2021-09-01T08:24:02Z</time>
      </trkpt>
      <trkpt lat="44.47748" lon="1.83636">
        <ele>173</ele>
        <time>2021-09-01T08:24:07Z</time>
      </trkpt>
      <trkpt lat="44.47804" lon="1.83614">
        <ele>171</ele>
        <time>2021-09-01T08:24:16Z</time>
      </trkpt>
      <trkpt lat="44.47929" lon="1.83625">
        <ele>169</ele>
        <time>2021-09-01T08:24:41Z</time>
      </trkpt>
      <trkpt lat="44.48104" lon="1.83689">
        <ele>166</ele>
        <time>2021-09-01T08:25:11Z</time>
      </trkpt>
      <trkpt lat="44.48286" lon="1.83738">
        <ele>160</ele>
        <time>2021-09-01T08:25:35Z</time>
      </trkpt>
      <trkpt lat="44.48458" lon="1.83816">
        <ele>157</ele>
        <time>2021-09-01T08:26:05Z</time>
      </trkpt>
      <trkpt lat="44.4855" lon="1.83855">
        <ele>157</ele>
        <time>2021-09-01T08:26:21Z</time>
      </trkpt>
      <trkpt lat="44.48574" lon="1.83877">
        <ele>156</ele>
        <time>2021-09-01T08:26:26Z</time>
      </trkpt>
      <trkpt lat="44.48582" lon="1.83888">
        <ele>155</ele>
        <time>2021-09-01T08:26:28Z</time>
      </trkpt>
      <trkpt lat="44.48588" lon="1.83903">
        <ele>155</ele>
        <time>2021-09-01T08:26:30Z</time>
      </trkpt>
      <trkpt lat="44.48583" lon="1.84126">
        <ele>153</ele>
        <time>2021-09-01T08:26:55Z</time>
      </trkpt>
      <trkpt lat="44.48583" lon="1.84136">
        <ele>153</ele>
        <time>2021-09-01T08:26:57Z</time>
      </trkpt>
      <trkpt lat="44.48581" lon="1.84152">
        <ele>154</ele>
        <time>2021-09-01T08:27:02Z</time>
      </trkpt>
      <trkpt lat="44.48578" lon="1.84158">
        <ele>155</ele>
        <time>2021-09-01T08:27:34Z</time>
      </trkpt>
      <trkpt lat="44.48576" lon="1.84166">
        <ele>155</ele>
        <time>2021-09-01T08:27:37Z</time>
      </trkpt>
      <trkpt lat="44.48586" lon="1.84171">
        <ele>154</ele>
        <time>2021-09-01T08:27:46Z</time>
      </trkpt>
      <trkpt lat="44.48591" lon="1.84171">
        <ele>154</ele>
        <time>2021-09-01T08:27:49Z</time>
      </trkpt>
      <trkpt lat="44.48595" lon="1.84176">
        <ele>155</ele>
        <time>2021-09-01T08:27:52Z</time>
      </trkpt>
      <trkpt lat="44.48619" lon="1.84189">
        <ele>155</ele>
        <time>2021-09-01T08:28:00Z</time>
      </trkpt>
      <trkpt lat="44.48631" lon="1.84192">
        <ele>155</ele>
        <time>2021-09-01T08:28:04Z</time>
      </trkpt>
      <trkpt lat="44.48637" lon="1.8419">
        <ele>155</ele>
        <time>2021-09-01T08:28:06Z</time>
      </trkpt>
      <trkpt lat="44.48642" lon="1.84194">
        <ele>154</ele>
        <time>2021-09-01T08:28:08Z</time>
      </trkpt>
      <trkpt lat="44.48649" lon="1.84216">
        <ele>152</ele>
        <time>2021-09-01T08:28:15Z</time>
      </trkpt>
      <trkpt lat="44.48651" lon="1.84231">
        <ele>150</ele>
        <time>2021-09-01T08:28:22Z</time>
      </trkpt>
      <trkpt lat="44.48656" lon="1.84245">
        <ele>149</ele>
        <time>2021-09-01T08:28:28Z</time>
      </trkpt>
      <trkpt lat="44.4866" lon="1.84261">
        <ele>149</ele>
        <time>2021-09-01T08:28:32Z</time>
      </trkpt>
      <trkpt lat="44.4866" lon="1.84269">
        <ele>149</ele>
        <time>2021-09-01T08:28:34Z</time>
      </trkpt>
      <trkpt lat="44.48658" lon="1.84298">
        <ele>149</ele>
        <time>2021-09-01T08:28:45Z</time>
      </trkpt>
      <trkpt lat="44.48662" lon="1.843">
        <ele>148</ele>
        <time>2021-09-01T08:29:56Z</time>
      </trkpt>
      <trkpt lat="44.48667" lon="1.84296">
        <ele>146</ele>
        <time>2021-09-01T08:30:05Z</time>
      </trkpt>
      <trkpt lat="44.48669" lon="1.84291">
        <ele>145</ele>
        <time>2021-09-01T08:32:51Z</time>
      </trkpt>
      <trkpt lat="44.48672" lon="1.84286">
        <ele>151</ele>
        <time>2021-09-01T08:33:45Z</time>
      </trkpt>
      <trkpt lat="44.4867" lon="1.84277">
        <ele>157</ele>
        <time>2021-09-01T08:34:30Z</time>
      </trkpt>
      <trkpt lat="44.48667" lon="1.84291">
        <ele>167</ele>
        <time>2021-09-01T08:39:12Z</time>
      </trkpt>
      <trkpt lat="44.48646" lon="1.84276">
        <ele>188</ele>
        <time>2021-09-01T08:39:14Z</time>
      </trkpt>
      <trkpt lat="44.48645" lon="1.84282">
        <ele>187</ele>
        <time>2021-09-01T08:39:21Z</time>
      </trkpt>
      <trkpt lat="44.48643" lon="1.84288">
        <ele>185</ele>
        <time>2021-09-01T08:39:49Z</time>
      </trkpt>
      <trkpt lat="44.4864" lon="1.84293">
        <ele>184</ele>
        <time>2021-09-01T08:40:02Z</time>
      </trkpt>
      <trkpt lat="44.48642" lon="1.84303">
        <ele>181</ele>
        <time>2021-09-01T08:41:27Z</time>
      </trkpt>
      <trkpt lat="44.48639" lon="1.84308">
        <ele>173</ele>
        <time>2021-09-01T08:43:20Z</time>
      </trkpt>
      <trkpt lat="44.48635" lon="1.84312">
        <ele>167</ele>
        <time>2021-09-01T08:43:24Z</time>
      </trkpt>
      <trkpt lat="44.48638" lon="1.84318">
        <ele>163</ele>
        <time>2021-09-01T08:45:41Z</time>
      </trkpt>
      <trkpt lat="44.48629" lon="1.84328">
        <ele>163</ele>
        <time>2021-09-01T08:45:50Z</time>
      </trkpt>
      <trkpt lat="44.48664" lon="1.84317">
        <ele>164</ele>
        <time>2021-09-01T08:46:03Z</time>
      </trkpt>
      <trkpt lat="44.48685" lon="1.84307">
        <ele>164</ele>
        <time>2021-09-01T08:46:07Z</time>
      </trkpt>
      <trkpt lat="44.48684" lon="1.843">
        <ele>164</ele>
        <time>2021-09-01T08:46:11Z</time>
      </trkpt>
      <trkpt lat="44.48607" lon="1.84318">
        <ele>165</ele>
        <time>2021-09-01T08:46:31Z</time>
      </trkpt>
      <trkpt lat="44.48617" lon="1.84302">
        <ele>165</ele>
        <time>2021-09-01T08:46:39Z</time>
      </trkpt>
      <trkpt lat="44.48643" lon="1.84258">
        <ele>165</ele>
        <time>2021-09-01T08:46:52Z</time>
      </trkpt>
      <trkpt lat="44.48634" lon="1.8426">
        <ele>165</ele>
        <time>2021-09-01T08:47:01Z</time>
      </trkpt>
      <trkpt lat="44.48623" lon="1.84294">
        <ele>164</ele>
        <time>2021-09-01T08:47:25Z</time>
      </trkpt>
      <trkpt lat="44.48642" lon="1.84328">
        <ele>165</ele>
        <time>2021-09-01T08:47:27Z</time>
      </trkpt>
      <trkpt lat="44.4865" lon="1.84329">
        <ele>166</ele>
        <time>2021-09-01T08:47:37Z</time>
      </trkpt>
      <trkpt lat="44.4865" lon="1.8432">
        <ele>166</ele>
        <time>2021-09-01T08:47:38Z</time>
      </trkpt>
      <trkpt lat="44.48639" lon="1.84323">
        <ele>165</ele>
        <time>2021-09-01T08:47:40Z</time>
      </trkpt>
      <trkpt lat="44.4863" lon="1.84324">
        <ele>162</ele>
        <time>2021-09-01T08:47:41Z</time>
      </trkpt>
      <trkpt lat="44.48625" lon="1.84326">
        <ele>157</ele>
        <time>2021-09-01T08:48:36Z</time>
      </trkpt>
      <trkpt lat="44.4862" lon="1.84333">
        <ele>158</ele>
        <time>2021-09-01T08:48:47Z</time>
      </trkpt>
      <trkpt lat="44.48613" lon="1.84335">
        <ele>159</ele>
        <time>2021-09-01T08:49:06Z</time>
      </trkpt>
      <trkpt lat="44.48607" lon="1.84337">
        <ele>160</ele>
        <time>2021-09-01T08:49:08Z</time>
      </trkpt>
      <trkpt lat="44.48605" lon="1.84343">
        <ele>159</ele>
        <time>2021-09-01T08:49:15Z</time>
      </trkpt>
      <trkpt lat="44.486" lon="1.84347">
        <ele>160</ele>
        <time>2021-09-01T08:49:25Z</time>
      </trkpt>
      <trkpt lat="44.48601" lon="1.84353">
        <ele>159</ele>
        <time>2021-09-01T08:49:32Z</time>
      </trkpt>
      <trkpt lat="44.48609" lon="1.84345">
        <ele>157</ele>
        <time>2021-09-01T08:49:52Z</time>
      </trkpt>
      <trkpt lat="44.48614" lon="1.84341">
        <ele>160</ele>
        <time>2021-09-01T08:50:08Z</time>
      </trkpt>
      <trkpt lat="44.48618" lon="1.84338">
        <ele>161</ele>
        <time>2021-09-01T08:50:12Z</time>
      </trkpt>
      <trkpt lat="44.48636" lon="1.84322">
        <ele>158</ele>
        <time>2021-09-01T08:50:32Z</time>
      </trkpt>
      <trkpt lat="44.48641" lon="1.84321">
        <ele>157</ele>
        <time>2021-09-01T08:50:38Z</time>
      </trkpt>
      <trkpt lat="44.48654" lon="1.843">
        <ele>159</ele>
        <time>2021-09-01T08:51:05Z</time>
      </trkpt>
      <trkpt lat="44.48671" lon="1.84286">
        <ele>159</ele>
        <time>2021-09-01T08:55:11Z</time>
      </trkpt>
      <trkpt lat="44.48674" lon="1.84281">
        <ele>158</ele>
        <time>2021-09-01T08:55:15Z</time>
      </trkpt>
      <trkpt lat="44.48679" lon="1.84275">
        <ele>157</ele>
        <time>2021-09-01T08:55:19Z</time>
      </trkpt>
      <trkpt lat="44.48689" lon="1.8427">
        <ele>158</ele>
        <time>2021-09-01T08:55:25Z</time>
      </trkpt>
      <trkpt lat="44.48694" lon="1.84268">
        <ele>157</ele>
        <time>2021-09-01T08:55:27Z</time>
      </trkpt>
      <trkpt lat="44.48696" lon="1.8426">
        <ele>156</ele>
        <time>2021-09-01T08:55:30Z</time>
      </trkpt>
      <trkpt lat="44.48687" lon="1.8424">
        <ele>154</ele>
        <time>2021-09-01T08:55:37Z</time>
      </trkpt>
      <trkpt lat="44.48631" lon="1.8418">
        <ele>148</ele>
        <time>2021-09-01T08:56:05Z</time>
      </trkpt>
      <trkpt lat="44.48625" lon="1.84177">
        <ele>147</ele>
        <time>2021-09-01T08:56:07Z</time>
      </trkpt>
      <trkpt lat="44.48536" lon="1.84164">
        <ele>149</ele>
        <time>2021-09-01T08:56:35Z</time>
      </trkpt>
      <trkpt lat="44.4853" lon="1.84167">
        <ele>149</ele>
        <time>2021-09-01T08:56:38Z</time>
      </trkpt>
      <trkpt lat="44.48512" lon="1.84179">
        <ele>150</ele>
        <time>2021-09-01T08:56:46Z</time>
      </trkpt>
      <trkpt lat="44.48508" lon="1.84184">
        <ele>149</ele>
        <time>2021-09-01T08:56:48Z</time>
      </trkpt>
      <trkpt lat="44.48481" lon="1.84197">
        <ele>150</ele>
        <time>2021-09-01T08:56:56Z</time>
      </trkpt>
      <trkpt lat="44.48478" lon="1.84203">
        <ele>147</ele>
        <time>2021-09-01T08:57:52Z</time>
      </trkpt>
      <trkpt lat="44.48476" lon="1.84217">
        <ele>146</ele>
        <time>2021-09-01T08:57:58Z</time>
      </trkpt>
      <trkpt lat="44.48473" lon="1.84223">
        <ele>145</ele>
        <time>2021-09-01T08:58:00Z</time>
      </trkpt>
      <trkpt lat="44.48469" lon="1.8423">
        <ele>145</ele>
        <time>2021-09-01T08:58:03Z</time>
      </trkpt>
      <trkpt lat="44.48466" lon="1.84238">
        <ele>144</ele>
        <time>2021-09-01T08:58:06Z</time>
      </trkpt>
      <trkpt lat="44.48465" lon="1.84248">
        <ele>144</ele>
        <time>2021-09-01T08:58:09Z</time>
      </trkpt>
      <trkpt lat="44.48469" lon="1.84303">
        <ele>142</ele>
        <time>2021-09-01T08:58:21Z</time>
      </trkpt>
      <trkpt lat="44.48473" lon="1.84331">
        <ele>140</ele>
        <time>2021-09-01T08:58:27Z</time>
      </trkpt>
      <trkpt lat="44.48473" lon="1.8434">
        <ele>138</ele>
        <time>2021-09-01T08:58:29Z</time>
      </trkpt>
      <trkpt lat="44.48472" lon="1.84347">
        <ele>137</ele>
        <time>2021-09-01T08:58:31Z</time>
      </trkpt>
      <trkpt lat="44.48464" lon="1.84358">
        <ele>137</ele>
        <time>2021-09-01T08:58:35Z</time>
      </trkpt>
      <trkpt lat="44.48369" lon="1.84415">
        <ele>142</ele>
        <time>2021-09-01T08:59:05Z</time>
      </trkpt>
      <trkpt lat="44.48347" lon="1.84421">
        <ele>143</ele>
        <time>2021-09-01T08:59:14Z</time>
      </trkpt>
      <trkpt lat="44.48344" lon="1.84427">
        <ele>146</ele>
        <time>2021-09-01T08:59:42Z</time>
      </trkpt>
      <trkpt lat="44.4834" lon="1.84423">
        <ele>146</ele>
        <time>2021-09-01T08:59:57Z</time>
      </trkpt>
      <trkpt lat="44.48311" lon="1.84441">
        <ele>146</ele>
        <time>2021-09-01T09:00:29Z</time>
      </trkpt>
      <trkpt lat="44.48279" lon="1.84458">
        <ele>144</ele>
        <time>2021-09-01T09:01:02Z</time>
      </trkpt>
      <trkpt lat="44.48256" lon="1.8447">
        <ele>142</ele>
        <time>2021-09-01T09:01:24Z</time>
      </trkpt>
      <trkpt lat="44.48247" lon="1.84473">
        <ele>140</ele>
        <time>2021-09-01T09:01:54Z</time>
      </trkpt>
      <trkpt lat="44.48241" lon="1.84478">
        <ele>139</ele>
        <time>2021-09-01T09:02:24Z</time>
      </trkpt>
      <trkpt lat="44.48231" lon="1.84493">
        <ele>138</ele>
        <time>2021-09-01T09:02:31Z</time>
      </trkpt>
      <trkpt lat="44.48237" lon="1.84501">
        <ele>138</ele>
        <time>2021-09-01T09:02:33Z</time>
      </trkpt>
      <trkpt lat="44.48248" lon="1.84504">
        <ele>139</ele>
        <time>2021-09-01T09:02:37Z</time>
      </trkpt>
      <trkpt lat="44.48261" lon="1.84529">
        <ele>139</ele>
        <time>2021-09-01T09:02:42Z</time>
      </trkpt>
      <trkpt lat="44.4827" lon="1.84567">
        <ele>140</ele>
        <time>2021-09-01T09:02:48Z</time>
      </trkpt>
      <trkpt lat="44.48278" lon="1.8461">
        <ele>145</ele>
        <time>2021-09-01T09:02:56Z</time>
      </trkpt>
      <trkpt lat="44.48282" lon="1.84614">
        <ele>147</ele>
        <time>2021-09-01T09:03:19Z</time>
      </trkpt>
      <trkpt lat="44.48281" lon="1.84622">
        <ele>147</ele>
        <time>2021-09-01T09:03:25Z</time>
      </trkpt>
      <trkpt lat="44.48276" lon="1.84755">
        <ele>149</ele>
        <time>2021-09-01T09:03:55Z</time>
      </trkpt>
      <trkpt lat="44.4827" lon="1.84908">
        <ele>151</ele>
        <time>2021-09-01T09:04:25Z</time>
      </trkpt>
      <trkpt lat="44.48256" lon="1.85093">
        <ele>150</ele>
        <time>2021-09-01T09:04:56Z</time>
      </trkpt>
      <trkpt lat="44.48247" lon="1.85212">
        <ele>151</ele>
        <time>2021-09-01T09:05:15Z</time>
      </trkpt>
      <trkpt lat="44.48262" lon="1.85363">
        <ele>150</ele>
        <time>2021-09-01T09:05:45Z</time>
      </trkpt>
      <trkpt lat="44.48262" lon="1.85371">
        <ele>150</ele>
        <time>2021-09-01T09:05:47Z</time>
      </trkpt>
      <trkpt lat="44.48263" lon="1.85381">
        <ele>150</ele>
        <time>2021-09-01T09:05:49Z</time>
      </trkpt>
      <trkpt lat="44.48271" lon="1.85447">
        <ele>146</ele>
        <time>2021-09-01T09:06:01Z</time>
      </trkpt>
      <trkpt lat="44.48275" lon="1.85543">
        <ele>151</ele>
        <time>2021-09-01T09:06:19Z</time>
      </trkpt>
      <trkpt lat="44.4828" lon="1.85575">
        <ele>150</ele>
        <time>2021-09-01T09:06:25Z</time>
      </trkpt>
      <trkpt lat="44.48291" lon="1.85631">
        <ele>147</ele>
        <time>2021-09-01T09:06:35Z</time>
      </trkpt>
      <trkpt lat="44.48304" lon="1.85685">
        <ele>149</ele>
        <time>2021-09-01T09:06:45Z</time>
      </trkpt>
      <trkpt lat="44.48307" lon="1.85737">
        <ele>150</ele>
        <time>2021-09-01T09:06:55Z</time>
      </trkpt>
      <trkpt lat="44.48304" lon="1.85891">
        <ele>153</ele>
        <time>2021-09-01T09:07:25Z</time>
      </trkpt>
      <trkpt lat="44.48307" lon="1.85942">
        <ele>154</ele>
        <time>2021-09-01T09:07:35Z</time>
      </trkpt>
      <trkpt lat="44.48331" lon="1.86043">
        <ele>154</ele>
        <time>2021-09-01T09:07:52Z</time>
      </trkpt>
      <trkpt lat="44.48348" lon="1.86083">
        <ele>153</ele>
        <time>2021-09-01T09:07:58Z</time>
      </trkpt>
      <trkpt lat="44.4838" lon="1.86136">
        <ele>152</ele>
        <time>2021-09-01T09:08:06Z</time>
      </trkpt>
      <trkpt lat="44.48393" lon="1.86177">
        <ele>151</ele>
        <time>2021-09-01T09:08:11Z</time>
      </trkpt>
      <trkpt lat="44.48408" lon="1.86305">
        <ele>150</ele>
        <time>2021-09-01T09:08:27Z</time>
      </trkpt>
      <trkpt lat="44.48401" lon="1.86506">
        <ele>148</ele>
        <time>2021-09-01T09:08:58Z</time>
      </trkpt>
      <trkpt lat="44.48404" lon="1.86572">
        <ele>148</ele>
        <time>2021-09-01T09:09:08Z</time>
      </trkpt>
      <trkpt lat="44.48423" lon="1.8678">
        <ele>147</ele>
        <time>2021-09-01T09:09:38Z</time>
      </trkpt>
      <trkpt lat="44.48431" lon="1.86935">
        <ele>146</ele>
        <time>2021-09-01T09:10:00Z</time>
      </trkpt>
      <trkpt lat="44.48424" lon="1.86969">
        <ele>145</ele>
        <time>2021-09-01T09:10:05Z</time>
      </trkpt>
      <trkpt lat="44.48418" lon="1.86995">
        <ele>143</ele>
        <time>2021-09-01T09:10:09Z</time>
      </trkpt>
      <trkpt lat="44.48417" lon="1.87008">
        <ele>142</ele>
        <time>2021-09-01T09:10:11Z</time>
      </trkpt>
      <trkpt lat="44.48415" lon="1.87019">
        <ele>141</ele>
        <time>2021-09-01T09:10:13Z</time>
      </trkpt>
      <trkpt lat="44.48412" lon="1.87043">
        <ele>139</ele>
        <time>2021-09-01T09:10:17Z</time>
      </trkpt>
      <trkpt lat="44.48399" lon="1.87113">
        <ele>131</ele>
        <time>2021-09-01T09:10:28Z</time>
      </trkpt>
      <trkpt lat="44.48387" lon="1.87146">
        <ele>128</ele>
        <time>2021-09-01T09:10:33Z</time>
      </trkpt>
      <trkpt lat="44.48361" lon="1.8728">
        <ele>137</ele>
        <time>2021-09-01T09:10:58Z</time>
      </trkpt>
      <trkpt lat="44.48352" lon="1.87397">
        <ele>150</ele>
        <time>2021-09-01T09:11:29Z</time>
      </trkpt>
      <trkpt lat="44.48354" lon="1.87419">
        <ele>151</ele>
        <time>2021-09-01T09:11:36Z</time>
      </trkpt>
      <trkpt lat="44.48349" lon="1.87469">
        <ele>155</ele>
        <time>2021-09-01T09:11:50Z</time>
      </trkpt>
      <trkpt lat="44.48349" lon="1.87477">
        <ele>155</ele>
        <time>2021-09-01T09:11:52Z</time>
      </trkpt>
      <trkpt lat="44.48344" lon="1.87595">
        <ele>162</ele>
        <time>2021-09-01T09:12:22Z</time>
      </trkpt>
      <trkpt lat="44.48342" lon="1.87677">
        <ele>165</ele>
        <time>2021-09-01T09:12:42Z</time>
      </trkpt>
      <trkpt lat="44.48347" lon="1.87737">
        <ele>168</ele>
        <time>2021-09-01T09:12:56Z</time>
      </trkpt>
      <trkpt lat="44.48346" lon="1.87746">
        <ele>168</ele>
        <time>2021-09-01T09:12:58Z</time>
      </trkpt>
      <trkpt lat="44.48344" lon="1.87762">
        <ele>167</ele>
        <time>2021-09-01T09:13:02Z</time>
      </trkpt>
      <trkpt lat="44.48339" lon="1.87818">
        <ele>168</ele>
        <time>2021-09-01T09:13:14Z</time>
      </trkpt>
      <trkpt lat="44.48341" lon="1.87904">
        <ele>171</ele>
        <time>2021-09-01T09:13:28Z</time>
      </trkpt>
      <trkpt lat="44.48329" lon="1.88106">
        <ele>170</ele>
        <time>2021-09-01T09:13:59Z</time>
      </trkpt>
      <trkpt lat="44.48331" lon="1.88137">
        <ele>169</ele>
        <time>2021-09-01T09:14:03Z</time>
      </trkpt>
      <trkpt lat="44.48347" lon="1.88214">
        <ele>169</ele>
        <time>2021-09-01T09:14:14Z</time>
      </trkpt>
      <trkpt lat="44.48349" lon="1.88248">
        <ele>170</ele>
        <time>2021-09-01T09:14:19Z</time>
      </trkpt>
      <trkpt lat="44.48393" lon="1.88433">
        <ele>162</ele>
        <time>2021-09-01T09:14:49Z</time>
      </trkpt>
      <trkpt lat="44.484" lon="1.88453">
        <ele>162</ele>
        <time>2021-09-01T09:14:52Z</time>
      </trkpt>
      <trkpt lat="44.48411" lon="1.8848">
        <ele>161</ele>
        <time>2021-09-01T09:14:56Z</time>
      </trkpt>
      <trkpt lat="44.48419" lon="1.88507">
        <ele>160</ele>
        <time>2021-09-01T09:15:00Z</time>
      </trkpt>
      <trkpt lat="44.48441" lon="1.88541">
        <ele>159</ele>
        <time>2021-09-01T09:15:06Z</time>
      </trkpt>
      <trkpt lat="44.48583" lon="1.88691">
        <ele>160</ele>
        <time>2021-09-01T09:15:36Z</time>
      </trkpt>
      <trkpt lat="44.48721" lon="1.88777">
        <ele>160</ele>
        <time>2021-09-01T09:16:00Z</time>
      </trkpt>
      <trkpt lat="44.48876" lon="1.88842">
        <ele>156</ele>
        <time>2021-09-01T09:16:30Z</time>
      </trkpt>
      <trkpt lat="44.48899" lon="1.88849">
        <ele>156</ele>
        <time>2021-09-01T09:16:41Z</time>
      </trkpt>
      <trkpt lat="44.48905" lon="1.88849">
        <ele>156</ele>
        <time>2021-09-01T09:16:45Z</time>
      </trkpt>
      <trkpt lat="44.48922" lon="1.88852">
        <ele>156</ele>
        <time>2021-09-01T09:18:10Z</time>
      </trkpt>
      <trkpt lat="44.48928" lon="1.88854">
        <ele>157</ele>
        <time>2021-09-01T09:19:14Z</time>
      </trkpt>
      <trkpt lat="44.49007" lon="1.88866">
        <ele>154</ele>
        <time>2021-09-01T09:19:34Z</time>
      </trkpt>
      <trkpt lat="44.49158" lon="1.88877">
        <ele>152</ele>
        <time>2021-09-01T09:20:04Z</time>
      </trkpt>
      <trkpt lat="44.49291" lon="1.88878">
        <ele>152</ele>
        <time>2021-09-01T09:20:30Z</time>
      </trkpt>
      <trkpt lat="44.49424" lon="1.88854">
        <ele>155</ele>
        <time>2021-09-01T09:21:00Z</time>
      </trkpt>
      <trkpt lat="44.49469" lon="1.8884">
        <ele>158</ele>
        <time>2021-09-01T09:21:12Z</time>
      </trkpt>
      <trkpt lat="44.49494" lon="1.88842">
        <ele>159</ele>
        <time>2021-09-01T09:21:20Z</time>
      </trkpt>
      <trkpt lat="44.49528" lon="1.88932">
        <ele>158</ele>
        <time>2021-09-01T09:21:50Z</time>
      </trkpt>
      <trkpt lat="44.49539" lon="1.8902">
        <ele>158</ele>
        <time>2021-09-01T09:22:21Z</time>
      </trkpt>
      <trkpt lat="44.4955" lon="1.89111">
        <ele>163</ele>
        <time>2021-09-01T09:22:52Z</time>
      </trkpt>
      <trkpt lat="44.49595" lon="1.89162">
        <ele>167</ele>
        <time>2021-09-01T09:23:22Z</time>
      </trkpt>
      <trkpt lat="44.49621" lon="1.8918">
        <ele>169</ele>
        <time>2021-09-01T09:23:36Z</time>
      </trkpt>
      <trkpt lat="44.49624" lon="1.89186">
        <ele>168</ele>
        <time>2021-09-01T09:23:39Z</time>
      </trkpt>
      <trkpt lat="44.49625" lon="1.89229">
        <ele>167</ele>
        <time>2021-09-01T09:23:52Z</time>
      </trkpt>
      <trkpt lat="44.49623" lon="1.89236">
        <ele>167</ele>
        <time>2021-09-01T09:23:55Z</time>
      </trkpt>
      <trkpt lat="44.49619" lon="1.89247">
        <ele>168</ele>
        <time>2021-09-01T09:23:59Z</time>
      </trkpt>
      <trkpt lat="44.496" lon="1.89267">
        <ele>168</ele>
        <time>2021-09-01T09:24:10Z</time>
      </trkpt>
      <trkpt lat="44.49586" lon="1.89286">
        <ele>168</ele>
        <time>2021-09-01T09:24:18Z</time>
      </trkpt>
      <trkpt lat="44.49553" lon="1.89369">
        <ele>174</ele>
        <time>2021-09-01T09:24:49Z</time>
      </trkpt>
      <trkpt lat="44.49537" lon="1.89412">
        <ele>178</ele>
        <time>2021-09-01T09:25:05Z</time>
      </trkpt>
      <trkpt lat="44.49532" lon="1.89435">
        <ele>179</ele>
        <time>2021-09-01T09:25:13Z</time>
      </trkpt>
      <trkpt lat="44.49539" lon="1.89538">
        <ele>178</ele>
        <time>2021-09-01T09:25:44Z</time>
      </trkpt>
      <trkpt lat="44.49551" lon="1.89653">
        <ele>183</ele>
        <time>2021-09-01T09:26:12Z</time>
      </trkpt>
      <trkpt lat="44.4955" lon="1.89677">
        <ele>184</ele>
        <time>2021-09-01T09:26:18Z</time>
      </trkpt>
      <trkpt lat="44.49549" lon="1.89684">
        <ele>183</ele>
        <time>2021-09-01T09:26:20Z</time>
      </trkpt>
      <trkpt lat="44.49545" lon="1.8969">
        <ele>184</ele>
        <time>2021-09-01T09:26:22Z</time>
      </trkpt>
      <trkpt lat="44.49539" lon="1.89689">
        <ele>184</ele>
        <time>2021-09-01T09:26:24Z</time>
      </trkpt>
      <trkpt lat="44.49535" lon="1.89682">
        <ele>186</ele>
        <time>2021-09-01T09:26:26Z</time>
      </trkpt>
      <trkpt lat="44.49536" lon="1.89673">
        <ele>187</ele>
        <time>2021-09-01T09:26:28Z</time>
      </trkpt>
      <trkpt lat="44.49536" lon="1.89665">
        <ele>187</ele>
        <time>2021-09-01T09:26:30Z</time>
      </trkpt>
      <trkpt lat="44.49529" lon="1.89636">
        <ele>192</ele>
        <time>2021-09-01T09:26:41Z</time>
      </trkpt>
      <trkpt lat="44.49527" lon="1.89628">
        <ele>193</ele>
        <time>2021-09-01T09:26:44Z</time>
      </trkpt>
      <trkpt lat="44.49523" lon="1.89605">
        <ele>196</ele>
        <time>2021-09-01T09:26:53Z</time>
      </trkpt>
      <trkpt lat="44.49499" lon="1.89529">
        <ele>203</ele>
        <time>2021-09-01T09:27:23Z</time>
      </trkpt>
      <trkpt lat="44.49496" lon="1.89522">
        <ele>203</ele>
        <time>2021-09-01T09:27:26Z</time>
      </trkpt>
      <trkpt lat="44.49489" lon="1.89509">
        <ele>204</ele>
        <time>2021-09-01T09:27:32Z</time>
      </trkpt>
      <trkpt lat="44.49455" lon="1.89454">
        <ele>210</ele>
        <time>2021-09-01T09:27:58Z</time>
      </trkpt>
      <trkpt lat="44.49451" lon="1.89449">
        <ele>210</ele>
        <time>2021-09-01T09:28:01Z</time>
      </trkpt>
      <trkpt lat="44.49446" lon="1.89443">
        <ele>210</ele>
        <time>2021-09-01T09:28:05Z</time>
      </trkpt>
      <trkpt lat="44.49442" lon="1.89438">
        <ele>210</ele>
        <time>2021-09-01T09:28:08Z</time>
      </trkpt>
      <trkpt lat="44.49437" lon="1.89432">
        <ele>212</ele>
        <time>2021-09-01T09:28:11Z</time>
      </trkpt>
      <trkpt lat="44.49421" lon="1.89423">
        <ele>214</ele>
        <time>2021-09-01T09:28:20Z</time>
      </trkpt>
      <trkpt lat="44.49369" lon="1.8941">
        <ele>216</ele>
        <time>2021-09-01T09:28:47Z</time>
      </trkpt>
      <trkpt lat="44.49341" lon="1.89414">
        <ele>217</ele>
        <time>2021-09-01T09:29:02Z</time>
      </trkpt>
      <trkpt lat="44.49274" lon="1.8943">
        <ele>223</ele>
        <time>2021-09-01T09:29:35Z</time>
      </trkpt>
      <trkpt lat="44.49268" lon="1.89431">
        <ele>223</ele>
        <time>2021-09-01T09:29:38Z</time>
      </trkpt>
      <trkpt lat="44.49262" lon="1.89433">
        <ele>224</ele>
        <time>2021-09-01T09:29:41Z</time>
      </trkpt>
      <trkpt lat="44.49197" lon="1.89451">
        <ele>228</ele>
        <time>2021-09-01T09:30:14Z</time>
      </trkpt>
      <trkpt lat="44.49179" lon="1.8946">
        <ele>229</ele>
        <time>2021-09-01T09:30:23Z</time>
      </trkpt>
      <trkpt lat="44.49173" lon="1.89462">
        <ele>230</ele>
        <time>2021-09-01T09:30:26Z</time>
      </trkpt>
      <trkpt lat="44.49168" lon="1.89466">
        <ele>231</ele>
        <time>2021-09-01T09:30:29Z</time>
      </trkpt>
      <trkpt lat="44.49162" lon="1.8947">
        <ele>231</ele>
        <time>2021-09-01T09:30:32Z</time>
      </trkpt>
      <trkpt lat="44.49158" lon="1.89472">
        <ele>231</ele>
        <time>2021-09-01T09:30:34Z</time>
      </trkpt>
      <trkpt lat="44.49139" lon="1.89487">
        <ele>232</ele>
        <time>2021-09-01T09:30:44Z</time>
      </trkpt>
      <trkpt lat="44.49135" lon="1.8949">
        <ele>233</ele>
        <time>2021-09-01T09:30:46Z</time>
      </trkpt>
      <trkpt lat="44.49131" lon="1.89494">
        <ele>233</ele>
        <time>2021-09-01T09:30:48Z</time>
      </trkpt>
      <trkpt lat="44.49122" lon="1.89502">
        <ele>234</ele>
        <time>2021-09-01T09:30:53Z</time>
      </trkpt>
      <trkpt lat="44.49079" lon="1.89561">
        <ele>236</ele>
        <time>2021-09-01T09:31:23Z</time>
      </trkpt>
      <trkpt lat="44.49033" lon="1.89625">
        <ele>240</ele>
        <time>2021-09-01T09:31:54Z</time>
      </trkpt>
      <trkpt lat="44.4901" lon="1.89654">
        <ele>242</ele>
        <time>2021-09-01T09:32:08Z</time>
      </trkpt>
      <trkpt lat="44.48991" lon="1.89666">
        <ele>242</ele>
        <time>2021-09-01T09:32:17Z</time>
      </trkpt>
      <trkpt lat="44.48986" lon="1.89672">
        <ele>243</ele>
        <time>2021-09-01T09:32:20Z</time>
      </trkpt>
      <trkpt lat="44.48984" lon="1.8968">
        <ele>243</ele>
        <time>2021-09-01T09:32:23Z</time>
      </trkpt>
      <trkpt lat="44.48986" lon="1.89686">
        <ele>244</ele>
        <time>2021-09-01T09:32:25Z</time>
      </trkpt>
      <trkpt lat="44.48993" lon="1.89687">
        <ele>245</ele>
        <time>2021-09-01T09:32:28Z</time>
      </trkpt>
      <trkpt lat="44.49002" lon="1.89679">
        <ele>246</ele>
        <time>2021-09-01T09:32:32Z</time>
      </trkpt>
      <trkpt lat="44.49015" lon="1.89662">
        <ele>248</ele>
        <time>2021-09-01T09:32:38Z</time>
      </trkpt>
      <trkpt lat="44.49028" lon="1.89649">
        <ele>248</ele>
        <time>2021-09-01T09:32:44Z</time>
      </trkpt>
      <trkpt lat="44.49055" lon="1.89634">
        <ele>251</ele>
        <time>2021-09-01T09:32:54Z</time>
      </trkpt>
      <trkpt lat="44.4913" lon="1.89575">
        <ele>255</ele>
        <time>2021-09-01T09:33:24Z</time>
      </trkpt>
      <trkpt lat="44.49165" lon="1.89547">
        <ele>258</ele>
        <time>2021-09-01T09:33:38Z</time>
      </trkpt>
      <trkpt lat="44.49171" lon="1.89548">
        <ele>258</ele>
        <time>2021-09-01T09:33:40Z</time>
      </trkpt>
      <trkpt lat="44.49175" lon="1.89555">
        <ele>258</ele>
        <time>2021-09-01T09:33:42Z</time>
      </trkpt>
      <trkpt lat="44.49176" lon="1.89564">
        <ele>258</ele>
        <time>2021-09-01T09:33:44Z</time>
      </trkpt>
      <trkpt lat="44.49173" lon="1.89569">
        <ele>259</ele>
        <time>2021-09-01T09:33:46Z</time>
      </trkpt>
      <trkpt lat="44.49099" lon="1.89637">
        <ele>263</ele>
        <time>2021-09-01T09:34:18Z</time>
      </trkpt>
      <trkpt lat="44.49051" lon="1.89711">
        <ele>267</ele>
        <time>2021-09-01T09:34:50Z</time>
      </trkpt>
      <trkpt lat="44.48995" lon="1.89757">
        <ele>269</ele>
        <time>2021-09-01T09:35:20Z</time>
      </trkpt>
      <trkpt lat="44.48943" lon="1.89822">
        <ele>271</ele>
        <time>2021-09-01T09:35:52Z</time>
      </trkpt>
      <trkpt lat="44.48933" lon="1.89849">
        <ele>273</ele>
        <time>2021-09-01T09:36:02Z</time>
      </trkpt>
      <trkpt lat="44.48927" lon="1.89866">
        <ele>274</ele>
        <time>2021-09-01T09:36:08Z</time>
      </trkpt>
      <trkpt lat="44.48921" lon="1.8988">
        <ele>274</ele>
        <time>2021-09-01T09:36:13Z</time>
      </trkpt>
      <trkpt lat="44.48912" lon="1.89909">
        <ele>277</ele>
        <time>2021-09-01T09:36:23Z</time>
      </trkpt>
      <trkpt lat="44.48908" lon="1.89923">
        <ele>278</ele>
        <time>2021-09-01T09:36:28Z</time>
      </trkpt>
      <trkpt lat="44.48902" lon="1.89941">
        <ele>280</ele>
        <time>2021-09-01T09:36:34Z</time>
      </trkpt>
      <trkpt lat="44.489" lon="1.89948">
        <ele>280</ele>
        <time>2021-09-01T09:36:36Z</time>
      </trkpt>
      <trkpt lat="44.48897" lon="1.89954">
        <ele>280</ele>
        <time>2021-09-01T09:36:38Z</time>
      </trkpt>
      <trkpt lat="44.48893" lon="1.89967">
        <ele>280</ele>
        <time>2021-09-01T09:36:42Z</time>
      </trkpt>
      <trkpt lat="44.4889" lon="1.8998">
        <ele>281</ele>
        <time>2021-09-01T09:36:46Z</time>
      </trkpt>
      <trkpt lat="44.48854" lon="1.90077">
        <ele>286</ele>
        <time>2021-09-01T09:37:14Z</time>
      </trkpt>
      <trkpt lat="44.48786" lon="1.90173">
        <ele>289</ele>
        <time>2021-09-01T09:37:44Z</time>
      </trkpt>
      <trkpt lat="44.48751" lon="1.90203">
        <ele>290</ele>
        <time>2021-09-01T09:37:56Z</time>
      </trkpt>
      <trkpt lat="44.48649" lon="1.90255">
        <ele>297</ele>
        <time>2021-09-01T09:38:28Z</time>
      </trkpt>
      <trkpt lat="44.48623" lon="1.90272">
        <ele>298</ele>
        <time>2021-09-01T09:38:36Z</time>
      </trkpt>
      <trkpt lat="44.48599" lon="1.90314">
        <ele>298</ele>
        <time>2021-09-01T09:38:45Z</time>
      </trkpt>
      <trkpt lat="44.48531" lon="1.90454">
        <ele>299</ele>
        <time>2021-09-01T09:39:15Z</time>
      </trkpt>
      <trkpt lat="44.48521" lon="1.90472">
        <ele>299</ele>
        <time>2021-09-01T09:39:21Z</time>
      </trkpt>
      <trkpt lat="44.48518" lon="1.90479">
        <ele>299</ele>
        <time>2021-09-01T09:39:23Z</time>
      </trkpt>
      <trkpt lat="44.4852" lon="1.90488">
        <ele>300</ele>
        <time>2021-09-01T09:39:25Z</time>
      </trkpt>
      <trkpt lat="44.48522" lon="1.90496">
        <ele>300</ele>
        <time>2021-09-01T09:39:27Z</time>
      </trkpt>
      <trkpt lat="44.4853" lon="1.9051">
        <ele>301</ele>
        <time>2021-09-01T09:39:31Z</time>
      </trkpt>
      <trkpt lat="44.48532" lon="1.90527">
        <ele>302</ele>
        <time>2021-09-01T09:39:35Z</time>
      </trkpt>
      <trkpt lat="44.48524" lon="1.90596">
        <ele>302</ele>
        <time>2021-09-01T09:39:49Z</time>
      </trkpt>
      <trkpt lat="44.48495" lon="1.90785">
        <ele>301</ele>
        <time>2021-09-01T09:40:21Z</time>
      </trkpt>
      <trkpt lat="44.48472" lon="1.90923">
        <ele>307</ele>
        <time>2021-09-01T09:40:51Z</time>
      </trkpt>
      <trkpt lat="44.48471" lon="1.90931">
        <ele>308</ele>
        <time>2021-09-01T09:40:53Z</time>
      </trkpt>
      <trkpt lat="44.48469" lon="1.90938">
        <ele>308</ele>
        <time>2021-09-01T09:40:55Z</time>
      </trkpt>
      <trkpt lat="44.48453" lon="1.91008">
        <ele>312</ele>
        <time>2021-09-01T09:41:13Z</time>
      </trkpt>
      <trkpt lat="44.4845" lon="1.91014">
        <ele>312</ele>
        <time>2021-09-01T09:41:15Z</time>
      </trkpt>
      <trkpt lat="44.48441" lon="1.91048">
        <ele>311</ele>
        <time>2021-09-01T09:41:26Z</time>
      </trkpt>
      <trkpt lat="44.48451" lon="1.90994">
        <ele>313</ele>
        <time>2021-09-01T09:41:44Z</time>
      </trkpt>
      <trkpt lat="44.48454" lon="1.90985">
        <ele>313</ele>
        <time>2021-09-01T09:41:46Z</time>
      </trkpt>
      <trkpt lat="44.48475" lon="1.90916">
        <ele>311</ele>
        <time>2021-09-01T09:42:09Z</time>
      </trkpt>
      <trkpt lat="44.48474" lon="1.90909">
        <ele>311</ele>
        <time>2021-09-01T09:46:57Z</time>
      </trkpt>
      <trkpt lat="44.48473" lon="1.90902">
        <ele>311</ele>
        <time>2021-09-01T09:47:06Z</time>
      </trkpt>
      <trkpt lat="44.48474" lon="1.90895">
        <ele>311</ele>
        <time>2021-09-01T09:47:08Z</time>
      </trkpt>
      <trkpt lat="44.48514" lon="1.90659">
        <ele>309</ele>
        <time>2021-09-01T09:47:38Z</time>
      </trkpt>
      <trkpt lat="44.48531" lon="1.90544">
        <ele>308</ele>
        <time>2021-09-01T09:47:57Z</time>
      </trkpt>
      <trkpt lat="44.48531" lon="1.90532">
        <ele>307</ele>
        <time>2021-09-01T09:47:59Z</time>
      </trkpt>
      <trkpt lat="44.4853" lon="1.90514">
        <ele>307</ele>
        <time>2021-09-01T09:48:02Z</time>
      </trkpt>
      <trkpt lat="44.48525" lon="1.90497">
        <ele>307</ele>
        <time>2021-09-01T09:48:06Z</time>
      </trkpt>
      <trkpt lat="44.48527" lon="1.90505">
        <ele>308</ele>
        <time>2021-09-01T09:49:04Z</time>
      </trkpt>
      <trkpt lat="44.48532" lon="1.90518">
        <ele>307</ele>
        <time>2021-09-01T09:49:08Z</time>
      </trkpt>
      <trkpt lat="44.48526" lon="1.90591">
        <ele>303</ele>
        <time>2021-09-01T09:49:24Z</time>
      </trkpt>
      <trkpt lat="44.485" lon="1.90759">
        <ele>304</ele>
        <time>2021-09-01T09:49:56Z</time>
      </trkpt>
      <trkpt lat="44.48478" lon="1.90892">
        <ele>308</ele>
        <time>2021-09-01T09:50:26Z</time>
      </trkpt>
      <trkpt lat="44.48452" lon="1.91005">
        <ele>311</ele>
        <time>2021-09-01T09:50:56Z</time>
      </trkpt>
      <trkpt lat="44.4839" lon="1.91257">
        <ele>302</ele>
        <time>2021-09-01T09:51:27Z</time>
      </trkpt>
      <trkpt lat="44.4838" lon="1.91311">
        <ele>301</ele>
        <time>2021-09-01T09:51:31Z</time>
      </trkpt>
      <trkpt lat="44.48369" lon="1.91504">
        <ele>302</ele>
        <time>2021-09-01T09:52:00Z</time>
      </trkpt>
      <trkpt lat="44.48375" lon="1.91532">
        <ele>302</ele>
        <time>2021-09-01T09:52:09Z</time>
      </trkpt>
      <trkpt lat="44.48396" lon="1.91634">
        <ele>305</ele>
        <time>2021-09-01T09:52:40Z</time>
      </trkpt>
      <trkpt lat="44.48425" lon="1.91731">
        <ele>307</ele>
        <time>2021-09-01T09:53:12Z</time>
      </trkpt>
      <trkpt lat="44.48447" lon="1.91802">
        <ele>307</ele>
        <time>2021-09-01T09:53:35Z</time>
      </trkpt>
      <trkpt lat="44.48493" lon="1.91896">
        <ele>309</ele>
        <time>2021-09-01T09:54:07Z</time>
      </trkpt>
      <trkpt lat="44.48502" lon="1.91913">
        <ele>310</ele>
        <time>2021-09-01T09:54:13Z</time>
      </trkpt>
      <trkpt lat="44.48506" lon="1.9192">
        <ele>310</ele>
        <time>2021-09-01T09:54:16Z</time>
      </trkpt>
      <trkpt lat="44.48529" lon="1.91961">
        <ele>311</ele>
        <time>2021-09-01T09:54:25Z</time>
      </trkpt>
      <trkpt lat="44.48533" lon="1.91965">
        <ele>311</ele>
        <time>2021-09-01T09:54:28Z</time>
      </trkpt>
      <trkpt lat="44.48537" lon="1.91967">
        <ele>312</ele>
        <time>2021-09-01T09:54:44Z</time>
      </trkpt>
      <trkpt lat="44.48541" lon="1.91971">
        <ele>312</ele>
        <time>2021-09-01T09:55:06Z</time>
      </trkpt>
      <trkpt lat="44.48544" lon="1.91978">
        <ele>313</ele>
        <time>2021-09-01T09:55:10Z</time>
      </trkpt>
      <trkpt lat="44.48541" lon="1.91985">
        <ele>313</ele>
        <time>2021-09-01T09:55:17Z</time>
      </trkpt>
      <trkpt lat="44.48544" lon="1.91991">
        <ele>313</ele>
        <time>2021-09-01T09:55:27Z</time>
      </trkpt>
      <trkpt lat="44.48552" lon="1.9201">
        <ele>313</ele>
        <time>2021-09-01T09:55:31Z</time>
      </trkpt>
      <trkpt lat="44.48574" lon="1.9206">
        <ele>310</ele>
        <time>2021-09-01T09:55:38Z</time>
      </trkpt>
      <trkpt lat="44.48607" lon="1.92178">
        <ele>304</ele>
        <time>2021-09-01T09:55:50Z</time>
      </trkpt>
      <trkpt lat="44.48608" lon="1.92205">
        <ele>303</ele>
        <time>2021-09-01T09:55:53Z</time>
      </trkpt>
      <trkpt lat="44.48606" lon="1.92214">
        <ele>302</ele>
        <time>2021-09-01T09:55:54Z</time>
      </trkpt>
      <trkpt lat="44.48593" lon="1.92244">
        <ele>299</ele>
        <time>2021-09-01T09:55:58Z</time>
      </trkpt>
      <trkpt lat="44.48592" lon="1.92263">
        <ele>298</ele>
        <time>2021-09-01T09:56:00Z</time>
      </trkpt>
      <trkpt lat="44.48595" lon="1.92284">
        <ele>298</ele>
        <time>2021-09-01T09:56:02Z</time>
      </trkpt>
      <trkpt lat="44.486" lon="1.92303">
        <ele>299</ele>
        <time>2021-09-01T09:56:04Z</time>
      </trkpt>
      <trkpt lat="44.48623" lon="1.92338">
        <ele>298</ele>
        <time>2021-09-01T09:56:09Z</time>
      </trkpt>
      <trkpt lat="44.4869" lon="1.92435">
        <ele>294</ele>
        <time>2021-09-01T09:56:27Z</time>
      </trkpt>
      <trkpt lat="44.48711" lon="1.92484">
        <ele>291</ele>
        <time>2021-09-01T09:56:36Z</time>
      </trkpt>
      <trkpt lat="44.48722" lon="1.92518">
        <ele>291</ele>
        <time>2021-09-01T09:56:41Z</time>
      </trkpt>
      <trkpt lat="44.48732" lon="1.92534">
        <ele>291</ele>
        <time>2021-09-01T09:56:44Z</time>
      </trkpt>
      <trkpt lat="44.4874" lon="1.92541">
        <ele>291</ele>
        <time>2021-09-01T09:56:46Z</time>
      </trkpt>
      <trkpt lat="44.48744" lon="1.92543">
        <ele>291</ele>
        <time>2021-09-01T09:56:47Z</time>
      </trkpt>
      <trkpt lat="44.48769" lon="1.92544">
        <ele>293</ele>
        <time>2021-09-01T09:56:56Z</time>
      </trkpt>
      <trkpt lat="44.48797" lon="1.92554">
        <ele>297</ele>
        <time>2021-09-01T09:57:06Z</time>
      </trkpt>
      <trkpt lat="44.48819" lon="1.92579">
        <ele>298</ele>
        <time>2021-09-01T09:57:16Z</time>
      </trkpt>
      <trkpt lat="44.48876" lon="1.92667">
        <ele>302</ele>
        <time>2021-09-01T09:57:46Z</time>
      </trkpt>
      <trkpt lat="44.48927" lon="1.92752">
        <ele>306</ele>
        <time>2021-09-01T09:58:12Z</time>
      </trkpt>
      <trkpt lat="44.48956" lon="1.92848">
        <ele>311</ele>
        <time>2021-09-01T09:58:43Z</time>
      </trkpt>
      <trkpt lat="44.48974" lon="1.92891">
        <ele>310</ele>
        <time>2021-09-01T09:58:55Z</time>
      </trkpt>
      <trkpt lat="44.48993" lon="1.92916">
        <ele>311</ele>
        <time>2021-09-01T09:59:03Z</time>
      </trkpt>
      <trkpt lat="44.49034" lon="1.9295">
        <ele>314</ele>
        <time>2021-09-01T09:59:20Z</time>
      </trkpt>
      <trkpt lat="44.49086" lon="1.93003">
        <ele>320</ele>
        <time>2021-09-01T09:59:51Z</time>
      </trkpt>
      <trkpt lat="44.49132" lon="1.93056">
        <ele>323</ele>
        <time>2021-09-01T10:00:21Z</time>
      </trkpt>
      <trkpt lat="44.49171" lon="1.93126">
        <ele>323</ele>
        <time>2021-09-01T10:00:48Z</time>
      </trkpt>
      <trkpt lat="44.49174" lon="1.93131">
        <ele>323</ele>
        <time>2021-09-01T10:00:50Z</time>
      </trkpt>
      <trkpt lat="44.49175" lon="1.93139">
        <ele>325</ele>
        <time>2021-09-01T10:00:56Z</time>
      </trkpt>
      <trkpt lat="44.4917" lon="1.93141">
        <ele>326</ele>
        <time>2021-09-01T10:01:25Z</time>
      </trkpt>
      <trkpt lat="44.49131" lon="1.93134">
        <ele>324</ele>
        <time>2021-09-01T10:01:39Z</time>
      </trkpt>
      <trkpt lat="44.49071" lon="1.93129">
        <ele>322</ele>
        <time>2021-09-01T10:01:57Z</time>
      </trkpt>
      <trkpt lat="44.49055" lon="1.93133">
        <ele>321</ele>
        <time>2021-09-01T10:02:01Z</time>
      </trkpt>
      <trkpt lat="44.49017" lon="1.93155">
        <ele>319</ele>
        <time>2021-09-01T10:02:11Z</time>
      </trkpt>
      <trkpt lat="44.48873" lon="1.93188">
        <ele>310</ele>
        <time>2021-09-01T10:02:42Z</time>
      </trkpt>
      <trkpt lat="44.48845" lon="1.93189">
        <ele>308</ele>
        <time>2021-09-01T10:02:46Z</time>
      </trkpt>
      <trkpt lat="44.4875" lon="1.93169">
        <ele>301</ele>
        <time>2021-09-01T10:02:57Z</time>
      </trkpt>
      <trkpt lat="44.48707" lon="1.93143">
        <ele>298</ele>
        <time>2021-09-01T10:03:02Z</time>
      </trkpt>
      <trkpt lat="44.48656" lon="1.93137">
        <ele>295</ele>
        <time>2021-09-01T10:03:07Z</time>
      </trkpt>
      <trkpt lat="44.48559" lon="1.9316">
        <ele>291</ele>
        <time>2021-09-01T10:03:18Z</time>
      </trkpt>
      <trkpt lat="44.48536" lon="1.93172">
        <ele>292</ele>
        <time>2021-09-01T10:03:21Z</time>
      </trkpt>
      <trkpt lat="44.48514" lon="1.93176">
        <ele>292</ele>
        <time>2021-09-01T10:03:24Z</time>
      </trkpt>
      <trkpt lat="44.48484" lon="1.93174">
        <ele>292</ele>
        <time>2021-09-01T10:03:28Z</time>
      </trkpt>
      <trkpt lat="44.48447" lon="1.93182">
        <ele>290</ele>
        <time>2021-09-01T10:03:33Z</time>
      </trkpt>
      <trkpt lat="44.48421" lon="1.93205">
        <ele>289</ele>
        <time>2021-09-01T10:03:38Z</time>
      </trkpt>
      <trkpt lat="44.48349" lon="1.9329">
        <ele>286</ele>
        <time>2021-09-01T10:03:56Z</time>
      </trkpt>
      <trkpt lat="44.48344" lon="1.93294">
        <ele>286</ele>
        <time>2021-09-01T10:03:57Z</time>
      </trkpt>
      <trkpt lat="44.48338" lon="1.93296">
        <ele>286</ele>
        <time>2021-09-01T10:03:58Z</time>
      </trkpt>
      <trkpt lat="44.48333" lon="1.93297">
        <ele>286</ele>
        <time>2021-09-01T10:03:59Z</time>
      </trkpt>
      <trkpt lat="44.48321" lon="1.93293">
        <ele>287</ele>
        <time>2021-09-01T10:04:01Z</time>
      </trkpt>
      <trkpt lat="44.48205" lon="1.93204">
        <ele>293</ele>
        <time>2021-09-01T10:04:32Z</time>
      </trkpt>
      <trkpt lat="44.48191" lon="1.93199">
        <ele>292</ele>
        <time>2021-09-01T10:04:38Z</time>
      </trkpt>
      <trkpt lat="44.48118" lon="1.93199">
        <ele>288</ele>
        <time>2021-09-01T10:05:08Z</time>
      </trkpt>
      <trkpt lat="44.48043" lon="1.93216">
        <ele>289</ele>
        <time>2021-09-01T10:05:38Z</time>
      </trkpt>
      <trkpt lat="44.47962" lon="1.93223">
        <ele>295</ele>
        <time>2021-09-01T10:06:08Z</time>
      </trkpt>
      <trkpt lat="44.47941" lon="1.93221">
        <ele>297</ele>
        <time>2021-09-01T10:06:17Z</time>
      </trkpt>
      <trkpt lat="44.47868" lon="1.93194">
        <ele>305</ele>
        <time>2021-09-01T10:06:47Z</time>
      </trkpt>
      <trkpt lat="44.47779" lon="1.93174">
        <ele>300</ele>
        <time>2021-09-01T10:07:09Z</time>
      </trkpt>
      <trkpt lat="44.47538" lon="1.9322">
        <ele>293</ele>
        <time>2021-09-01T10:07:40Z</time>
      </trkpt>
      <trkpt lat="44.47413" lon="1.93226">
        <ele>300</ele>
        <time>2021-09-01T10:08:11Z</time>
      </trkpt>
      <trkpt lat="44.47322" lon="1.93237">
        <ele>303</ele>
        <time>2021-09-01T10:08:41Z</time>
      </trkpt>
      <trkpt lat="44.47235" lon="1.93245">
        <ele>303</ele>
        <time>2021-09-01T10:09:13Z</time>
      </trkpt>
      <trkpt lat="44.47134" lon="1.93257">
        <ele>302</ele>
        <time>2021-09-01T10:09:45Z</time>
      </trkpt>
      <trkpt lat="44.47077" lon="1.93263">
        <ele>305</ele>
        <time>2021-09-01T10:10:01Z</time>
      </trkpt>
      <trkpt lat="44.47063" lon="1.93268">
        <ele>305</ele>
        <time>2021-09-01T10:10:05Z</time>
      </trkpt>
      <trkpt lat="44.4701" lon="1.93324">
        <ele>305</ele>
        <time>2021-09-01T10:10:23Z</time>
      </trkpt>
      <trkpt lat="44.46899" lon="1.93382">
        <ele>311</ele>
        <time>2021-09-01T10:10:53Z</time>
      </trkpt>
      <trkpt lat="44.4679" lon="1.93462">
        <ele>318</ele>
        <time>2021-09-01T10:11:25Z</time>
      </trkpt>
      <trkpt lat="44.46748" lon="1.93493">
        <ele>318</ele>
        <time>2021-09-01T10:11:39Z</time>
      </trkpt>
      <trkpt lat="44.46721" lon="1.93506">
        <ele>318</ele>
        <time>2021-09-01T10:11:47Z</time>
      </trkpt>
      <trkpt lat="44.46642" lon="1.93498">
        <ele>319</ele>
        <time>2021-09-01T10:12:09Z</time>
      </trkpt>
      <trkpt lat="44.46626" lon="1.93506">
        <ele>319</ele>
        <time>2021-09-01T10:12:15Z</time>
      </trkpt>
      <trkpt lat="44.46618" lon="1.9352">
        <ele>319</ele>
        <time>2021-09-01T10:12:19Z</time>
      </trkpt>
      <trkpt lat="44.46612" lon="1.93535">
        <ele>319</ele>
        <time>2021-09-01T10:12:23Z</time>
      </trkpt>
      <trkpt lat="44.4661" lon="1.93542">
        <ele>318</ele>
        <time>2021-09-01T10:12:25Z</time>
      </trkpt>
      <trkpt lat="44.46605" lon="1.93556">
        <ele>319</ele>
        <time>2021-09-01T10:13:04Z</time>
      </trkpt>
      <trkpt lat="44.46602" lon="1.93572">
        <ele>319</ele>
        <time>2021-09-01T10:13:08Z</time>
      </trkpt>
      <trkpt lat="44.46601" lon="1.93579">
        <ele>319</ele>
        <time>2021-09-01T10:13:10Z</time>
      </trkpt>
      <trkpt lat="44.46601" lon="1.93586">
        <ele>319</ele>
        <time>2021-09-01T10:13:12Z</time>
      </trkpt>
      <trkpt lat="44.46562" lon="1.93705">
        <ele>324</ele>
        <time>2021-09-01T10:13:44Z</time>
      </trkpt>
      <trkpt lat="44.46522" lon="1.9383">
        <ele>322</ele>
        <time>2021-09-01T10:14:16Z</time>
      </trkpt>
      <trkpt lat="44.46516" lon="1.93847">
        <ele>322</ele>
        <time>2021-09-01T10:14:20Z</time>
      </trkpt>
      <trkpt lat="44.46488" lon="1.93985">
        <ele>322</ele>
        <time>2021-09-01T10:14:50Z</time>
      </trkpt>
      <trkpt lat="44.46467" lon="1.94076">
        <ele>322</ele>
        <time>2021-09-01T10:15:11Z</time>
      </trkpt>
      <trkpt lat="44.46466" lon="1.94083">
        <ele>322</ele>
        <time>2021-09-01T10:15:14Z</time>
      </trkpt>
      <trkpt lat="44.46464" lon="1.94092">
        <ele>322</ele>
        <time>2021-09-01T10:15:58Z</time>
      </trkpt>
      <trkpt lat="44.46463" lon="1.941">
        <ele>322</ele>
        <time>2021-09-01T10:16:00Z</time>
      </trkpt>
      <trkpt lat="44.46461" lon="1.94111">
        <ele>322</ele>
        <time>2021-09-01T10:16:02Z</time>
      </trkpt>
      <trkpt lat="44.46458" lon="1.94175">
        <ele>321</ele>
        <time>2021-09-01T10:16:12Z</time>
      </trkpt>
      <trkpt lat="44.46437" lon="1.94242">
        <ele>315</ele>
        <time>2021-09-01T10:16:20Z</time>
      </trkpt>
      <trkpt lat="44.46361" lon="1.94411">
        <ele>307</ele>
        <time>2021-09-01T10:16:37Z</time>
      </trkpt>
      <trkpt lat="44.46353" lon="1.94445">
        <ele>308</ele>
        <time>2021-09-01T10:16:40Z</time>
      </trkpt>
      <trkpt lat="44.46372" lon="1.94678">
        <ele>313</ele>
        <time>2021-09-01T10:17:11Z</time>
      </trkpt>
      <trkpt lat="44.4637" lon="1.94916">
        <ele>315</ele>
        <time>2021-09-01T10:17:42Z</time>
      </trkpt>
      <trkpt lat="44.46369" lon="1.95086">
        <ele>322</ele>
        <time>2021-09-01T10:18:14Z</time>
      </trkpt>
      <trkpt lat="44.46364" lon="1.95126">
        <ele>322</ele>
        <time>2021-09-01T10:18:22Z</time>
      </trkpt>
      <trkpt lat="44.46353" lon="1.95184">
        <ele>320</ele>
        <time>2021-09-01T10:18:32Z</time>
      </trkpt>
      <trkpt lat="44.46348" lon="1.95272">
        <ele>319</ele>
        <time>2021-09-01T10:18:44Z</time>
      </trkpt>
      <trkpt lat="44.46352" lon="1.9531">
        <ele>320</ele>
        <time>2021-09-01T10:18:49Z</time>
      </trkpt>
      <trkpt lat="44.46395" lon="1.95536">
        <ele>321</ele>
        <time>2021-09-01T10:19:20Z</time>
      </trkpt>
      <trkpt lat="44.46427" lon="1.95705">
        <ele>319</ele>
        <time>2021-09-01T10:19:42Z</time>
      </trkpt>
      <trkpt lat="44.46472" lon="1.95881">
        <ele>320</ele>
        <time>2021-09-01T10:20:08Z</time>
      </trkpt>
      <trkpt lat="44.46475" lon="1.95899">
        <ele>320</ele>
        <time>2021-09-01T10:20:12Z</time>
      </trkpt>
      <trkpt lat="44.46474" lon="1.95917">
        <ele>320</ele>
        <time>2021-09-01T10:20:16Z</time>
      </trkpt>
      <trkpt lat="44.46469" lon="1.9593">
        <ele>318</ele>
        <time>2021-09-01T10:20:22Z</time>
      </trkpt>
      <trkpt lat="44.46472" lon="1.95936">
        <ele>318</ele>
        <time>2021-09-01T10:21:25Z</time>
      </trkpt>
      <trkpt lat="44.46472" lon="1.95942">
        <ele>319</ele>
        <time>2021-09-01T10:21:27Z</time>
      </trkpt>
      <trkpt lat="44.46471" lon="1.95949">
        <ele>320</ele>
        <time>2021-09-01T10:21:29Z</time>
      </trkpt>
      <trkpt lat="44.46466" lon="1.95963">
        <ele>320</ele>
        <time>2021-09-01T10:21:33Z</time>
      </trkpt>
      <trkpt lat="44.46462" lon="1.95999">
        <ele>320</ele>
        <time>2021-09-01T10:21:39Z</time>
      </trkpt>
      <trkpt lat="44.46494" lon="1.9621">
        <ele>312</ele>
        <time>2021-09-01T10:22:06Z</time>
      </trkpt>
      <trkpt lat="44.46482" lon="1.96282">
        <ele>313</ele>
        <time>2021-09-01T10:22:15Z</time>
      </trkpt>
      <trkpt lat="44.46429" lon="1.96496">
        <ele>312</ele>
        <time>2021-09-01T10:22:46Z</time>
      </trkpt>
      <trkpt lat="44.46393" lon="1.96641">
        <ele>310</ele>
        <time>2021-09-01T10:23:07Z</time>
      </trkpt>
      <trkpt lat="44.46392" lon="1.96706">
        <ele>307</ele>
        <time>2021-09-01T10:23:14Z</time>
      </trkpt>
      <trkpt lat="44.46394" lon="1.96785">
        <ele>304</ele>
        <time>2021-09-01T10:23:21Z</time>
      </trkpt>
      <trkpt lat="44.46392" lon="1.96809">
        <ele>303</ele>
        <time>2021-09-01T10:23:23Z</time>
      </trkpt>
      <trkpt lat="44.46389" lon="1.96821">
        <ele>303</ele>
        <time>2021-09-01T10:23:24Z</time>
      </trkpt>
      <trkpt lat="44.46375" lon="1.9685">
        <ele>301</ele>
        <time>2021-09-01T10:23:27Z</time>
      </trkpt>
      <trkpt lat="44.46363" lon="1.96864">
        <ele>300</ele>
        <time>2021-09-01T10:23:29Z</time>
      </trkpt>
      <trkpt lat="44.46344" lon="1.96894">
        <ele>298</ele>
        <time>2021-09-01T10:23:33Z</time>
      </trkpt>
      <trkpt lat="44.46336" lon="1.9692">
        <ele>298</ele>
        <time>2021-09-01T10:23:36Z</time>
      </trkpt>
      <trkpt lat="44.46322" lon="1.97022">
        <ele>299</ele>
        <time>2021-09-01T10:23:51Z</time>
      </trkpt>
      <trkpt lat="44.46316" lon="1.97084">
        <ele>300</ele>
        <time>2021-09-01T10:24:03Z</time>
      </trkpt>
      <trkpt lat="44.46309" lon="1.97116">
        <ele>301</ele>
        <time>2021-09-01T10:24:09Z</time>
      </trkpt>
      <trkpt lat="44.46306" lon="1.97126">
        <ele>301</ele>
        <time>2021-09-01T10:24:11Z</time>
      </trkpt>
      <trkpt lat="44.46275" lon="1.97179">
        <ele>302</ele>
        <time>2021-09-01T10:24:23Z</time>
      </trkpt>
      <trkpt lat="44.46265" lon="1.97209">
        <ele>302</ele>
        <time>2021-09-01T10:24:28Z</time>
      </trkpt>
      <trkpt lat="44.46237" lon="1.97426">
        <ele>307</ele>
        <time>2021-09-01T10:24:57Z</time>
      </trkpt>
      <trkpt lat="44.46225" lon="1.97462">
        <ele>307</ele>
        <time>2021-09-01T10:25:02Z</time>
      </trkpt>
      <trkpt lat="44.46112" lon="1.97682">
        <ele>300</ele>
        <time>2021-09-01T10:25:33Z</time>
      </trkpt>
      <trkpt lat="44.46102" lon="1.97712">
        <ele>300</ele>
        <time>2021-09-01T10:25:37Z</time>
      </trkpt>
      <trkpt lat="44.46094" lon="1.97837">
        <ele>302</ele>
        <time>2021-09-01T10:25:54Z</time>
      </trkpt>
      <trkpt lat="44.4609" lon="1.9785">
        <ele>301</ele>
        <time>2021-09-01T10:25:56Z</time>
      </trkpt>
      <trkpt lat="44.46078" lon="1.97866">
        <ele>302</ele>
        <time>2021-09-01T10:25:59Z</time>
      </trkpt>
      <trkpt lat="44.46035" lon="1.97908">
        <ele>302</ele>
        <time>2021-09-01T10:26:10Z</time>
      </trkpt>
      <trkpt lat="44.45995" lon="1.9798">
        <ele>299</ele>
        <time>2021-09-01T10:26:26Z</time>
      </trkpt>
      <trkpt lat="44.45981" lon="1.98005">
        <ele>297</ele>
        <time>2021-09-01T10:26:32Z</time>
      </trkpt>
      <trkpt lat="44.45971" lon="1.98021">
        <ele>296</ele>
        <time>2021-09-01T10:26:36Z</time>
      </trkpt>
      <trkpt lat="44.45965" lon="1.98028">
        <ele>295</ele>
        <time>2021-09-01T10:26:38Z</time>
      </trkpt>
      <trkpt lat="44.45952" lon="1.98034">
        <ele>296</ele>
        <time>2021-09-01T10:26:41Z</time>
      </trkpt>
      <trkpt lat="44.45887" lon="1.98038">
        <ele>304</ele>
        <time>2021-09-01T10:26:57Z</time>
      </trkpt>
      <trkpt lat="44.45861" lon="1.98047">
        <ele>304</ele>
        <time>2021-09-01T10:27:05Z</time>
      </trkpt>
      <trkpt lat="44.45773" lon="1.98124">
        <ele>300</ele>
        <time>2021-09-01T10:27:35Z</time>
      </trkpt>
      <trkpt lat="44.45746" lon="1.98149">
        <ele>302</ele>
        <time>2021-09-01T10:27:45Z</time>
      </trkpt>
      <trkpt lat="44.45722" lon="1.98163">
        <ele>304</ele>
        <time>2021-09-01T10:27:53Z</time>
      </trkpt>
      <trkpt lat="44.45689" lon="1.98174">
        <ele>307</ele>
        <time>2021-09-01T10:28:05Z</time>
      </trkpt>
      <trkpt lat="44.45684" lon="1.98175">
        <ele>307</ele>
        <time>2021-09-01T10:28:07Z</time>
      </trkpt>
      <trkpt lat="44.45643" lon="1.98195">
        <ele>309</ele>
        <time>2021-09-01T10:28:23Z</time>
      </trkpt>
      <trkpt lat="44.45578" lon="1.98236">
        <ele>305</ele>
        <time>2021-09-01T10:28:49Z</time>
      </trkpt>
      <trkpt lat="44.45569" lon="1.98245">
        <ele>305</ele>
        <time>2021-09-01T10:28:53Z</time>
      </trkpt>
      <trkpt lat="44.45556" lon="1.98266">
        <ele>305</ele>
        <time>2021-09-01T10:28:59Z</time>
      </trkpt>
      <trkpt lat="44.45547" lon="1.98295">
        <ele>306</ele>
        <time>2021-09-01T10:29:07Z</time>
      </trkpt>
      <trkpt lat="44.45545" lon="1.98313">
        <ele>307</ele>
        <time>2021-09-01T10:29:11Z</time>
      </trkpt>
      <trkpt lat="44.45542" lon="1.9838">
        <ele>307</ele>
        <time>2021-09-01T10:29:27Z</time>
      </trkpt>
      <trkpt lat="44.45531" lon="1.9842">
        <ele>310</ele>
        <time>2021-09-01T10:29:37Z</time>
      </trkpt>
      <trkpt lat="44.45501" lon="1.98477">
        <ele>316</ele>
        <time>2021-09-01T10:29:53Z</time>
      </trkpt>
      <trkpt lat="44.45484" lon="1.98536">
        <ele>322</ele>
        <time>2021-09-01T10:30:07Z</time>
      </trkpt>
      <trkpt lat="44.45483" lon="1.98544">
        <ele>323</ele>
        <time>2021-09-01T10:30:09Z</time>
      </trkpt>
      <trkpt lat="44.45476" lon="1.98598">
        <ele>325</ele>
        <time>2021-09-01T10:30:21Z</time>
      </trkpt>
      <trkpt lat="44.45476" lon="1.98651">
        <ele>332</ele>
        <time>2021-09-01T10:30:33Z</time>
      </trkpt>
      <trkpt lat="44.45488" lon="1.98718">
        <ele>335</ele>
        <time>2021-09-01T10:30:49Z</time>
      </trkpt>
      <trkpt lat="44.4549" lon="1.98726">
        <ele>334</ele>
        <time>2021-09-01T10:30:51Z</time>
      </trkpt>
      <trkpt lat="44.45508" lon="1.98854">
        <ele>333</ele>
        <time>2021-09-01T10:31:21Z</time>
      </trkpt>
      <trkpt lat="44.45517" lon="1.98901">
        <ele>336</ele>
        <time>2021-09-01T10:31:33Z</time>
      </trkpt>
      <trkpt lat="44.45519" lon="1.9892">
        <ele>335</ele>
        <time>2021-09-01T10:31:37Z</time>
      </trkpt>
      <trkpt lat="44.45516" lon="1.9894">
        <ele>335</ele>
        <time>2021-09-01T10:31:41Z</time>
      </trkpt>
      <trkpt lat="44.4551" lon="1.98957">
        <ele>336</ele>
        <time>2021-09-01T10:31:45Z</time>
      </trkpt>
      <trkpt lat="44.45495" lon="1.98977">
        <ele>336</ele>
        <time>2021-09-01T10:31:51Z</time>
      </trkpt>
      <trkpt lat="44.45468" lon="1.98997">
        <ele>337</ele>
        <time>2021-09-01T10:31:59Z</time>
      </trkpt>
      <trkpt lat="44.45386" lon="1.99021">
        <ele>339</ele>
        <time>2021-09-01T10:32:21Z</time>
      </trkpt>
      <trkpt lat="44.45355" lon="1.9902">
        <ele>341</ele>
        <time>2021-09-01T10:32:29Z</time>
      </trkpt>
      <trkpt lat="44.45348" lon="1.99017">
        <ele>341</ele>
        <time>2021-09-01T10:32:31Z</time>
      </trkpt>
      <trkpt lat="44.45306" lon="1.99016">
        <ele>343</ele>
        <time>2021-09-01T10:32:43Z</time>
      </trkpt>
      <trkpt lat="44.452" lon="1.99055">
        <ele>343</ele>
        <time>2021-09-01T10:33:13Z</time>
      </trkpt>
      <trkpt lat="44.45168" lon="1.99061">
        <ele>339</ele>
        <time>2021-09-01T10:33:23Z</time>
      </trkpt>
      <trkpt lat="44.45116" lon="1.99066">
        <ele>337</ele>
        <time>2021-09-01T10:33:39Z</time>
      </trkpt>
      <trkpt lat="44.45063" lon="1.99093">
        <ele>336</ele>
        <time>2021-09-01T10:33:55Z</time>
      </trkpt>
      <trkpt lat="44.44994" lon="1.99117">
        <ele>338</ele>
        <time>2021-09-01T10:34:10Z</time>
      </trkpt>
      <trkpt lat="44.4497" lon="1.99132">
        <ele>340</ele>
        <time>2021-09-01T10:34:15Z</time>
      </trkpt>
      <trkpt lat="44.44876" lon="1.99226">
        <ele>343</ele>
        <time>2021-09-01T10:34:38Z</time>
      </trkpt>
      <trkpt lat="44.44766" lon="1.99361">
        <ele>343</ele>
        <time>2021-09-01T10:35:08Z</time>
      </trkpt>
      <trkpt lat="44.44664" lon="1.99489">
        <ele>346</ele>
        <time>2021-09-01T10:35:34Z</time>
      </trkpt>
      <trkpt lat="44.44645" lon="1.99545">
        <ele>346</ele>
        <time>2021-09-01T10:35:43Z</time>
      </trkpt>
      <trkpt lat="44.44632" lon="1.99653">
        <ele>347</ele>
        <time>2021-09-01T10:36:00Z</time>
      </trkpt>
      <trkpt lat="44.44611" lon="1.99816">
        <ele>353</ele>
        <time>2021-09-01T10:36:31Z</time>
      </trkpt>
      <trkpt lat="44.44595" lon="1.99989">
        <ele>354</ele>
        <time>2021-09-01T10:37:03Z</time>
      </trkpt>
      <trkpt lat="44.44586" lon="2.00086">
        <ele>350</ele>
        <time>2021-09-01T10:37:19Z</time>
      </trkpt>
      <trkpt lat="44.44589" lon="2.00122">
        <ele>348</ele>
        <time>2021-09-01T10:37:25Z</time>
      </trkpt>
      <trkpt lat="44.44601" lon="2.00168">
        <ele>347</ele>
        <time>2021-09-01T10:37:33Z</time>
      </trkpt>
      <trkpt lat="44.44603" lon="2.00174">
        <ele>347</ele>
        <time>2021-09-01T10:37:34Z</time>
      </trkpt>
      <trkpt lat="44.44606" lon="2.00181">
        <ele>347</ele>
        <time>2021-09-01T10:37:36Z</time>
      </trkpt>
      <trkpt lat="44.446" lon="2.00194">
        <ele>346</ele>
        <time>2021-09-01T10:37:40Z</time>
      </trkpt>
      <trkpt lat="44.446" lon="2.00205">
        <ele>345</ele>
        <time>2021-09-01T10:37:43Z</time>
      </trkpt>
      <trkpt lat="44.44597" lon="2.002">
        <ele>349</ele>
        <time>2021-09-01T10:38:36Z</time>
      </trkpt>
      <trkpt lat="44.44586" lon="2.00197">
        <ele>352</ele>
        <time>2021-09-01T10:38:40Z</time>
      </trkpt>
      <trkpt lat="44.44578" lon="2.00195">
        <ele>352</ele>
        <time>2021-09-01T10:38:42Z</time>
      </trkpt>
      <trkpt lat="44.44461" lon="2.00132">
        <ele>365</ele>
        <time>2021-09-01T10:39:14Z</time>
      </trkpt>
      <trkpt lat="44.44209" lon="1.99977">
        <ele>371</ele>
        <time>2021-09-01T10:39:33Z</time>
      </trkpt>
      <trkpt lat="44.44144" lon="1.99934">
        <ele>371</ele>
        <time>2021-09-01T10:39:37Z</time>
      </trkpt>
      <trkpt lat="44.44058" lon="1.99766">
        <ele>371</ele>
        <time>2021-09-01T10:39:44Z</time>
      </trkpt>
      <trkpt lat="44.43988" lon="1.99638">
        <ele>370</ele>
        <time>2021-09-01T10:41:21Z</time>
      </trkpt>
      <trkpt lat="44.43982" lon="1.99466">
        <ele>408</ele>
        <time>2021-09-01T10:51:56Z</time>
      </trkpt>
      <trkpt lat="44.43896" lon="1.99329">
        <ele>388</ele>
        <time>2021-09-01T10:52:03Z</time>
      </trkpt>
      <trkpt lat="44.43639" lon="1.992">
        <ele>362</ele>
        <time>2021-09-01T10:52:04Z</time>
      </trkpt>
      <trkpt lat="44.43556" lon="1.99208">
        <ele>368</ele>
        <time>2021-09-01T10:52:06Z</time>
      </trkpt>
      <trkpt lat="44.43498" lon="1.99277">
        <ele>395</ele>
        <time>2021-09-01T10:52:07Z</time>
      </trkpt>
      <trkpt lat="44.43397" lon="1.99144">
        <ele>391</ele>
        <time>2021-09-01T10:52:10Z</time>
      </trkpt>
      <trkpt lat="44.43145" lon="1.99024">
        <ele>385</ele>
        <time>2021-09-01T10:52:20Z</time>
      </trkpt>
      <trkpt lat="44.43041" lon="1.9902">
        <ele>394</ele>
        <time>2021-09-01T10:52:29Z</time>
      </trkpt>
      <trkpt lat="44.42974" lon="1.98938">
        <ele>286</ele>
        <time>2021-09-01T10:52:34Z</time>
      </trkpt>
      <trkpt lat="44.42912" lon="1.98882">
        <ele>227</ele>
        <time>2021-09-01T10:52:38Z</time>
      </trkpt>
      <trkpt lat="44.42857" lon="1.98835">
        <ele>210</ele>
        <time>2021-09-01T10:52:41Z</time>
      </trkpt>
      <trkpt lat="44.42774" lon="1.98784">
        <ele>345</ele>
        <time>2021-09-01T10:52:56Z</time>
      </trkpt>
      <trkpt lat="44.42751" lon="1.98787">
        <ele>355</ele>
        <time>2021-09-01T10:53:00Z</time>
      </trkpt>
      <trkpt lat="44.42746" lon="1.98789">
        <ele>356</ele>
        <time>2021-09-01T10:53:01Z</time>
      </trkpt>
      <trkpt lat="44.42722" lon="1.98794">
        <ele>363</ele>
        <time>2021-09-01T10:53:05Z</time>
      </trkpt>
      <trkpt lat="44.42634" lon="1.98771">
        <ele>373</ele>
        <time>2021-09-01T10:53:22Z</time>
      </trkpt>
      <trkpt lat="44.42517" lon="1.98684">
        <ele>380</ele>
        <time>2021-09-01T10:53:51Z</time>
      </trkpt>
      <trkpt lat="44.42511" lon="1.98677">
        <ele>382</ele>
        <time>2021-09-01T10:53:53Z</time>
      </trkpt>
      <trkpt lat="44.42465" lon="1.98649">
        <ele>381</ele>
        <time>2021-09-01T10:54:05Z</time>
      </trkpt>
      <trkpt lat="44.42295" lon="1.98498">
        <ele>406</ele>
        <time>2021-09-01T10:54:37Z</time>
      </trkpt>
      <trkpt lat="44.42261" lon="1.9849">
        <ele>404</ele>
        <time>2021-09-01T10:54:49Z</time>
      </trkpt>
      <trkpt lat="44.42225" lon="1.98499">
        <ele>398</ele>
        <time>2021-09-01T10:55:01Z</time>
      </trkpt>
      <trkpt lat="44.42178" lon="1.9851">
        <ele>394</ele>
        <time>2021-09-01T10:55:15Z</time>
      </trkpt>
      <trkpt lat="44.42159" lon="1.98509">
        <ele>392</ele>
        <time>2021-09-01T10:55:19Z</time>
      </trkpt>
      <trkpt lat="44.42149" lon="1.98503">
        <ele>390</ele>
        <time>2021-09-01T10:55:21Z</time>
      </trkpt>
      <trkpt lat="44.4213" lon="1.98478">
        <ele>390</ele>
        <time>2021-09-01T10:55:26Z</time>
      </trkpt>
      <trkpt lat="44.42107" lon="1.98421">
        <ele>387</ele>
        <time>2021-09-01T10:55:36Z</time>
      </trkpt>
      <trkpt lat="44.42066" lon="1.9832">
        <ele>387</ele>
        <time>2021-09-01T10:55:49Z</time>
      </trkpt>
      <trkpt lat="44.42026" lon="1.9824">
        <ele>385</ele>
        <time>2021-09-01T10:55:59Z</time>
      </trkpt>
      <trkpt lat="44.41983" lon="1.98184">
        <ele>384</ele>
        <time>2021-09-01T10:56:12Z</time>
      </trkpt>
      <trkpt lat="44.41952" lon="1.98126">
        <ele>401</ele>
        <time>2021-09-01T10:56:14Z</time>
      </trkpt>
      <trkpt lat="44.41967" lon="1.98155">
        <ele>392</ele>
        <time>2021-09-01T10:56:15Z</time>
      </trkpt>
      <trkpt lat="44.41924" lon="1.98126">
        <ele>394</ele>
        <time>2021-09-01T10:56:28Z</time>
      </trkpt>
      <trkpt lat="44.4192" lon="1.98118">
        <ele>394</ele>
        <time>2021-09-01T10:56:30Z</time>
      </trkpt>
      <trkpt lat="44.41881" lon="1.98018">
        <ele>399</ele>
        <time>2021-09-01T10:56:52Z</time>
      </trkpt>
      <trkpt lat="44.41877" lon="1.97996">
        <ele>398</ele>
        <time>2021-09-01T10:56:56Z</time>
      </trkpt>
      <trkpt lat="44.41873" lon="1.98006">
        <ele>402</ele>
        <time>2021-09-01T10:56:58Z</time>
      </trkpt>
      <trkpt lat="44.41871" lon="1.97976">
        <ele>402</ele>
        <time>2021-09-01T10:57:02Z</time>
      </trkpt>
      <trkpt lat="44.41866" lon="1.97993">
        <ele>406</ele>
        <time>2021-09-01T10:57:03Z</time>
      </trkpt>
      <trkpt lat="44.41865" lon="1.97953">
        <ele>405</ele>
        <time>2021-09-01T10:57:07Z</time>
      </trkpt>
      <trkpt lat="44.41862" lon="1.97933">
        <ele>404</ele>
        <time>2021-09-01T10:57:09Z</time>
      </trkpt>
      <trkpt lat="44.41825" lon="1.97849">
        <ele>399</ele>
        <time>2021-09-01T10:57:19Z</time>
      </trkpt>
      <trkpt lat="44.41791" lon="1.97985">
        <ele>413</ele>
        <time>2021-09-01T10:57:25Z</time>
      </trkpt>
      <trkpt lat="44.41791" lon="1.98131">
        <ele>401</ele>
        <time>2021-09-01T10:57:28Z</time>
      </trkpt>
      <trkpt lat="44.41729" lon="1.98239">
        <ele>371</ele>
        <time>2021-09-01T11:00:23Z</time>
      </trkpt>
      <trkpt lat="44.41672" lon="1.98467">
        <ele>389</ele>
        <time>2021-09-01T11:00:57Z</time>
      </trkpt>
      <trkpt lat="44.41714" lon="1.98508">
        <ele>331</ele>
        <time>2021-09-01T11:01:24Z</time>
      </trkpt>
      <trkpt lat="44.41728" lon="1.98557">
        <ele>368</ele>
        <time>2021-09-01T11:01:34Z</time>
      </trkpt>
      <trkpt lat="44.41733" lon="1.98559">
        <ele>371</ele>
        <time>2021-09-01T11:01:35Z</time>
      </trkpt>
      <trkpt lat="44.41748" lon="1.98636">
        <ele>372</ele>
        <time>2021-09-01T11:01:51Z</time>
      </trkpt>
      <trkpt lat="44.41744" lon="1.98845">
        <ele>330</ele>
        <time>2021-09-01T11:02:03Z</time>
      </trkpt>
      <trkpt lat="44.41748" lon="1.98795">
        <ele>359</ele>
        <time>2021-09-01T11:02:24Z</time>
      </trkpt>
      <trkpt lat="44.41741" lon="1.98847">
        <ele>360</ele>
        <time>2021-09-01T11:02:36Z</time>
      </trkpt>
      <trkpt lat="44.41713" lon="1.98939">
        <ele>375</ele>
        <time>2021-09-01T11:02:57Z</time>
      </trkpt>
      <trkpt lat="44.41708" lon="1.98945">
        <ele>377</ele>
        <time>2021-09-01T11:02:58Z</time>
      </trkpt>
      <trkpt lat="44.41708" lon="1.98953">
        <ele>379</ele>
        <time>2021-09-01T11:03:00Z</time>
      </trkpt>
      <trkpt lat="44.41702" lon="1.98997">
        <ele>374</ele>
        <time>2021-09-01T11:03:08Z</time>
      </trkpt>
      <trkpt lat="44.41697" lon="1.99011">
        <ele>376</ele>
        <time>2021-09-01T11:03:11Z</time>
      </trkpt>
      <trkpt lat="44.41693" lon="1.99065">
        <ele>385</ele>
        <time>2021-09-01T11:03:21Z</time>
      </trkpt>
      <trkpt lat="44.41699" lon="1.99069">
        <ele>384</ele>
        <time>2021-09-01T11:03:23Z</time>
      </trkpt>
      <trkpt lat="44.41714" lon="1.99106">
        <ele>382</ele>
        <time>2021-09-01T11:03:32Z</time>
      </trkpt>
      <trkpt lat="44.41719" lon="1.99109">
        <ele>382</ele>
        <time>2021-09-01T11:03:35Z</time>
      </trkpt>
      <trkpt lat="44.41737" lon="1.99136">
        <ele>394</ele>
        <time>2021-09-01T11:03:45Z</time>
      </trkpt>
      <trkpt lat="44.41751" lon="1.99141">
        <ele>384</ele>
        <time>2021-09-01T11:03:48Z</time>
      </trkpt>
      <trkpt lat="44.41773" lon="1.9918">
        <ele>395</ele>
        <time>2021-09-01T11:04:01Z</time>
      </trkpt>
      <trkpt lat="44.41782" lon="1.99184">
        <ele>393</ele>
        <time>2021-09-01T11:04:03Z</time>
      </trkpt>
      <trkpt lat="44.41847" lon="1.99261">
        <ele>383</ele>
        <time>2021-09-01T11:04:33Z</time>
      </trkpt>
      <trkpt lat="44.41856" lon="1.99285">
        <ele>384</ele>
        <time>2021-09-01T11:04:41Z</time>
      </trkpt>
      <trkpt lat="44.41861" lon="1.993">
        <ele>385</ele>
        <time>2021-09-01T11:04:46Z</time>
      </trkpt>
      <trkpt lat="44.41903" lon="1.99381">
        <ele>395</ele>
        <time>2021-09-01T11:05:17Z</time>
      </trkpt>
      <trkpt lat="44.41906" lon="1.99387">
        <ele>395</ele>
        <time>2021-09-01T11:05:19Z</time>
      </trkpt>
      <trkpt lat="44.41917" lon="1.99414">
        <ele>394</ele>
        <time>2021-09-01T11:05:28Z</time>
      </trkpt>
      <trkpt lat="44.41933" lon="1.99452">
        <ele>393</ele>
        <time>2021-09-01T11:05:41Z</time>
      </trkpt>
      <trkpt lat="44.41937" lon="1.99479">
        <ele>393</ele>
        <time>2021-09-01T11:05:49Z</time>
      </trkpt>
      <trkpt lat="44.41934" lon="1.99525">
        <ele>393</ele>
        <time>2021-09-01T11:06:04Z</time>
      </trkpt>
      <trkpt lat="44.41931" lon="1.99551">
        <ele>393</ele>
        <time>2021-09-01T11:06:12Z</time>
      </trkpt>
      <trkpt lat="44.41933" lon="1.99588">
        <ele>391</ele>
        <time>2021-09-01T11:06:23Z</time>
      </trkpt>
      <trkpt lat="44.41957" lon="1.99698">
        <ele>392</ele>
        <time>2021-09-01T11:06:53Z</time>
      </trkpt>
      <trkpt lat="44.41962" lon="1.99719">
        <ele>394</ele>
        <time>2021-09-01T11:06:59Z</time>
      </trkpt>
      <trkpt lat="44.41964" lon="1.99726">
        <ele>394</ele>
        <time>2021-09-01T11:07:01Z</time>
      </trkpt>
      <trkpt lat="44.41974" lon="1.99743">
        <ele>394</ele>
        <time>2021-09-01T11:07:07Z</time>
      </trkpt>
      <trkpt lat="44.42001" lon="1.99774">
        <ele>393</ele>
        <time>2021-09-01T11:07:19Z</time>
      </trkpt>
      <trkpt lat="44.42011" lon="1.99786">
        <ele>393</ele>
        <time>2021-09-01T11:07:23Z</time>
      </trkpt>
      <trkpt lat="44.42018" lon="1.9981">
        <ele>393</ele>
        <time>2021-09-01T11:07:29Z</time>
      </trkpt>
      <trkpt lat="44.42015" lon="1.9984">
        <ele>394</ele>
        <time>2021-09-01T11:07:37Z</time>
      </trkpt>
      <trkpt lat="44.42009" lon="1.99874">
        <ele>394</ele>
        <time>2021-09-01T11:07:47Z</time>
      </trkpt>
      <trkpt lat="44.41993" lon="1.99917">
        <ele>395</ele>
        <time>2021-09-01T11:07:59Z</time>
      </trkpt>
      <trkpt lat="44.41921" lon="2.00036">
        <ele>404</ele>
        <time>2021-09-01T11:08:31Z</time>
      </trkpt>
      <trkpt lat="44.41912" lon="2.00053">
        <ele>405</ele>
        <time>2021-09-01T11:08:35Z</time>
      </trkpt>
      <trkpt lat="44.41909" lon="2.00071">
        <ele>405</ele>
        <time>2021-09-01T11:08:39Z</time>
      </trkpt>
      <trkpt lat="44.4191" lon="2.00082">
        <ele>405</ele>
        <time>2021-09-01T11:08:41Z</time>
      </trkpt>
      <trkpt lat="44.41919" lon="2.0011">
        <ele>405</ele>
        <time>2021-09-01T11:08:46Z</time>
      </trkpt>
      <trkpt lat="44.41997" lon="2.00236">
        <ele>406</ele>
        <time>2021-09-01T11:09:18Z</time>
      </trkpt>
      <trkpt lat="44.42062" lon="2.00329">
        <ele>408</ele>
        <time>2021-09-01T11:09:44Z</time>
      </trkpt>
      <trkpt lat="44.42086" lon="2.00358">
        <ele>409</ele>
        <time>2021-09-01T11:09:54Z</time>
      </trkpt>
      <trkpt lat="44.42101" lon="2.0039">
        <ele>410</ele>
        <time>2021-09-01T11:10:02Z</time>
      </trkpt>
      <trkpt lat="44.42114" lon="2.0045">
        <ele>413</ele>
        <time>2021-09-01T11:10:16Z</time>
      </trkpt>
      <trkpt lat="44.42114" lon="2.00457">
        <ele>413</ele>
        <time>2021-09-01T11:10:18Z</time>
      </trkpt>
      <trkpt lat="44.42112" lon="2.00465">
        <ele>411</ele>
        <time>2021-09-01T11:12:01Z</time>
      </trkpt>
      <trkpt lat="44.42111" lon="2.00472">
        <ele>411</ele>
        <time>2021-09-01T11:12:04Z</time>
      </trkpt>
      <trkpt lat="44.42102" lon="2.00494">
        <ele>414</ele>
        <time>2021-09-01T11:12:11Z</time>
      </trkpt>
      <trkpt lat="44.42095" lon="2.00508">
        <ele>414</ele>
        <time>2021-09-01T11:12:15Z</time>
      </trkpt>
      <trkpt lat="44.42091" lon="2.00526">
        <ele>412</ele>
        <time>2021-09-01T11:12:19Z</time>
      </trkpt>
      <trkpt lat="44.42083" lon="2.00558">
        <ele>407</ele>
        <time>2021-09-01T11:12:25Z</time>
      </trkpt>
      <trkpt lat="44.41971" lon="2.00706">
        <ele>397</ele>
        <time>2021-09-01T11:12:55Z</time>
      </trkpt>
      <trkpt lat="44.41959" lon="2.00728">
        <ele>397</ele>
        <time>2021-09-01T11:12:59Z</time>
      </trkpt>
      <trkpt lat="44.41952" lon="2.00746">
        <ele>397</ele>
        <time>2021-09-01T11:13:03Z</time>
      </trkpt>
      <trkpt lat="44.41948" lon="2.00767">
        <ele>395</ele>
        <time>2021-09-01T11:13:07Z</time>
      </trkpt>
      <trkpt lat="44.41945" lon="2.00777">
        <ele>395</ele>
        <time>2021-09-01T11:13:09Z</time>
      </trkpt>
      <trkpt lat="44.41941" lon="2.00785">
        <ele>394</ele>
        <time>2021-09-01T11:13:11Z</time>
      </trkpt>
      <trkpt lat="44.4193" lon="2.00793">
        <ele>395</ele>
        <time>2021-09-01T11:13:15Z</time>
      </trkpt>
      <trkpt lat="44.41925" lon="2.00799">
        <ele>394</ele>
        <time>2021-09-01T11:13:17Z</time>
      </trkpt>
      <trkpt lat="44.41918" lon="2.00819">
        <ele>391</ele>
        <time>2021-09-01T11:13:24Z</time>
      </trkpt>
      <trkpt lat="44.41916" lon="2.00825">
        <ele>390</ele>
        <time>2021-09-01T11:13:27Z</time>
      </trkpt>
      <trkpt lat="44.41909" lon="2.0083">
        <ele>389</ele>
        <time>2021-09-01T11:13:30Z</time>
      </trkpt>
      <trkpt lat="44.41902" lon="2.00833">
        <ele>391</ele>
        <time>2021-09-01T11:13:32Z</time>
      </trkpt>
      <trkpt lat="44.41897" lon="2.00831">
        <ele>392</ele>
        <time>2021-09-01T11:13:34Z</time>
      </trkpt>
      <trkpt lat="44.41885" lon="2.00827">
        <ele>394</ele>
        <time>2021-09-01T11:13:39Z</time>
      </trkpt>
      <trkpt lat="44.41881" lon="2.00824">
        <ele>395</ele>
        <time>2021-09-01T11:13:41Z</time>
      </trkpt>
      <trkpt lat="44.41856" lon="2.00809">
        <ele>396</ele>
        <time>2021-09-01T11:13:51Z</time>
      </trkpt>
      <trkpt lat="44.41851" lon="2.00806">
        <ele>397</ele>
        <time>2021-09-01T11:13:53Z</time>
      </trkpt>
      <trkpt lat="44.41798" lon="2.00782">
        <ele>394</ele>
        <time>2021-09-01T11:14:06Z</time>
      </trkpt>
      <trkpt lat="44.41769" lon="2.0076">
        <ele>391</ele>
        <time>2021-09-01T11:14:11Z</time>
      </trkpt>
      <trkpt lat="44.41732" lon="2.00724">
        <ele>387</ele>
        <time>2021-09-01T11:14:17Z</time>
      </trkpt>
      <trkpt lat="44.41708" lon="2.00713">
        <ele>385</ele>
        <time>2021-09-01T11:14:20Z</time>
      </trkpt>
      <trkpt lat="44.41638" lon="2.00694">
        <ele>383</ele>
        <time>2021-09-01T11:14:28Z</time>
      </trkpt>
      <trkpt lat="44.41499" lon="2.00625">
        <ele>383</ele>
        <time>2021-09-01T11:14:48Z</time>
      </trkpt>
      <trkpt lat="44.41402" lon="2.00537">
        <ele>386</ele>
        <time>2021-09-01T11:15:19Z</time>
      </trkpt>
      <trkpt lat="44.4138" lon="2.00512">
        <ele>389</ele>
        <time>2021-09-01T11:15:31Z</time>
      </trkpt>
      <trkpt lat="44.41374" lon="2.00501">
        <ele>389</ele>
        <time>2021-09-01T11:15:38Z</time>
      </trkpt>
      <trkpt lat="44.41368" lon="2.00488">
        <ele>390</ele>
        <time>2021-09-01T11:15:43Z</time>
      </trkpt>
      <trkpt lat="44.4135" lon="2.00451">
        <ele>390</ele>
        <time>2021-09-01T11:15:55Z</time>
      </trkpt>
      <trkpt lat="44.41341" lon="2.00425">
        <ele>392</ele>
        <time>2021-09-01T11:16:01Z</time>
      </trkpt>
      <trkpt lat="44.41332" lon="2.00383">
        <ele>394</ele>
        <time>2021-09-01T11:16:09Z</time>
      </trkpt>
      <trkpt lat="44.41325" lon="2.0036">
        <ele>395</ele>
        <time>2021-09-01T11:16:13Z</time>
      </trkpt>
      <trkpt lat="44.41276" lon="2.00286">
        <ele>401</ele>
        <time>2021-09-01T11:16:33Z</time>
      </trkpt>
      <trkpt lat="44.41272" lon="2.0028">
        <ele>402</ele>
        <time>2021-09-01T11:16:35Z</time>
      </trkpt>
      <trkpt lat="44.41264" lon="2.00267">
        <ele>402</ele>
        <time>2021-09-01T11:16:39Z</time>
      </trkpt>
      <trkpt lat="44.41211" lon="2.00187">
        <ele>402</ele>
        <time>2021-09-01T11:17:09Z</time>
      </trkpt>
      <trkpt lat="44.41186" lon="2.00145">
        <ele>402</ele>
        <time>2021-09-01T11:17:23Z</time>
      </trkpt>
      <trkpt lat="44.41183" lon="2.00139">
        <ele>402</ele>
        <time>2021-09-01T11:17:25Z</time>
      </trkpt>
      <trkpt lat="44.41178" lon="2.00125">
        <ele>401</ele>
        <time>2021-09-01T11:17:30Z</time>
      </trkpt>
      <trkpt lat="44.41139" lon="1.99967">
        <ele>402</ele>
        <time>2021-09-01T11:18:01Z</time>
      </trkpt>
      <trkpt lat="44.41122" lon="1.99926">
        <ele>404</ele>
        <time>2021-09-01T11:18:10Z</time>
      </trkpt>
      <trkpt lat="44.41068" lon="1.9987">
        <ele>407</ele>
        <time>2021-09-01T11:18:38Z</time>
      </trkpt>
      <trkpt lat="44.41009" lon="1.99819">
        <ele>410</ele>
        <time>2021-09-01T11:19:09Z</time>
      </trkpt>
      <trkpt lat="44.41" lon="1.99806">
        <ele>411</ele>
        <time>2021-09-01T11:19:15Z</time>
      </trkpt>
      <trkpt lat="44.40993" lon="1.99794">
        <ele>412</ele>
        <time>2021-09-01T11:19:20Z</time>
      </trkpt>
      <trkpt lat="44.40984" lon="1.99769">
        <ele>413</ele>
        <time>2021-09-01T11:19:51Z</time>
      </trkpt>
      <trkpt lat="44.40982" lon="1.99761">
        <ele>414</ele>
        <time>2021-09-01T11:19:53Z</time>
      </trkpt>
      <trkpt lat="44.4098" lon="1.99754">
        <ele>414</ele>
        <time>2021-09-01T11:19:55Z</time>
      </trkpt>
      <trkpt lat="44.4096" lon="1.99702">
        <ele>413</ele>
        <time>2021-09-01T11:20:09Z</time>
      </trkpt>
      <trkpt lat="44.40954" lon="1.99692">
        <ele>412</ele>
        <time>2021-09-01T11:20:13Z</time>
      </trkpt>
      <trkpt lat="44.40918" lon="1.99623">
        <ele>417</ele>
        <time>2021-09-01T11:20:34Z</time>
      </trkpt>
      <trkpt lat="44.40916" lon="1.99615">
        <ele>418</ele>
        <time>2021-09-01T11:21:11Z</time>
      </trkpt>
      <trkpt lat="44.4091" lon="1.99614">
        <ele>418</ele>
        <time>2021-09-01T11:21:14Z</time>
      </trkpt>
      <trkpt lat="44.40906" lon="1.99618">
        <ele>419</ele>
        <time>2021-09-01T11:21:17Z</time>
      </trkpt>
      <trkpt lat="44.40902" lon="1.99622">
        <ele>419</ele>
        <time>2021-09-01T11:21:22Z</time>
      </trkpt>
      <trkpt lat="44.40899" lon="1.99627">
        <ele>419</ele>
        <time>2021-09-01T11:21:25Z</time>
      </trkpt>
      <trkpt lat="44.40847" lon="1.9968">
        <ele>427</ele>
        <time>2021-09-01T11:21:57Z</time>
      </trkpt>
      <trkpt lat="44.40814" lon="1.99713">
        <ele>429</ele>
        <time>2021-09-01T11:22:15Z</time>
      </trkpt>
      <trkpt lat="44.40719" lon="1.99761">
        <ele>426</ele>
        <time>2021-09-01T11:22:47Z</time>
      </trkpt>
      <trkpt lat="44.40614" lon="1.99805">
        <ele>432</ele>
        <time>2021-09-01T11:23:19Z</time>
      </trkpt>
      <trkpt lat="44.40505" lon="1.99831">
        <ele>434</ele>
        <time>2021-09-01T11:23:49Z</time>
      </trkpt>
      <trkpt lat="44.40336" lon="1.9986">
        <ele>425</ele>
        <time>2021-09-01T11:24:20Z</time>
      </trkpt>
      <trkpt lat="44.40135" lon="1.99882">
        <ele>425</ele>
        <time>2021-09-01T11:24:51Z</time>
      </trkpt>
      <trkpt lat="44.40079" lon="1.99889">
        <ele>428</ele>
        <time>2021-09-01T11:25:11Z</time>
      </trkpt>
      <trkpt lat="44.40005" lon="1.99888">
        <ele>423</ele>
        <time>2021-09-01T11:25:30Z</time>
      </trkpt>
      <trkpt lat="44.39994" lon="1.99885">
        <ele>422</ele>
        <time>2021-09-01T11:25:32Z</time>
      </trkpt>
      <trkpt lat="44.39928" lon="1.99873">
        <ele>424</ele>
        <time>2021-09-01T11:25:45Z</time>
      </trkpt>
      <trkpt lat="44.3992" lon="1.99872">
        <ele>426</ele>
        <time>2021-09-01T11:25:47Z</time>
      </trkpt>
      <trkpt lat="44.39825" lon="1.99939">
        <ele>427</ele>
        <time>2021-09-01T11:26:11Z</time>
      </trkpt>
      <trkpt lat="44.39724" lon="2.00022">
        <ele>416</ele>
        <time>2021-09-01T11:26:31Z</time>
      </trkpt>
      <trkpt lat="44.39692" lon="2.00038">
        <ele>412</ele>
        <time>2021-09-01T11:26:36Z</time>
      </trkpt>
      <trkpt lat="44.39686" lon="2.00043">
        <ele>410</ele>
        <time>2021-09-01T11:26:37Z</time>
      </trkpt>
      <trkpt lat="44.39675" lon="2.00059">
        <ele>410</ele>
        <time>2021-09-01T11:26:39Z</time>
      </trkpt>
      <trkpt lat="44.39666" lon="2.0009">
        <ele>408</ele>
        <time>2021-09-01T11:26:42Z</time>
      </trkpt>
      <trkpt lat="44.39662" lon="2.0011">
        <ele>406</ele>
        <time>2021-09-01T11:26:44Z</time>
      </trkpt>
      <trkpt lat="44.39662" lon="2.00169">
        <ele>401</ele>
        <time>2021-09-01T11:26:50Z</time>
      </trkpt>
      <trkpt lat="44.39662" lon="2.00178">
        <ele>401</ele>
        <time>2021-09-01T11:26:51Z</time>
      </trkpt>
      <trkpt lat="44.3966" lon="2.00184">
        <ele>400</ele>
        <time>2021-09-01T11:26:52Z</time>
      </trkpt>
      <trkpt lat="44.39657" lon="2.00189">
        <ele>400</ele>
        <time>2021-09-01T11:26:53Z</time>
      </trkpt>
      <trkpt lat="44.39625" lon="2.0019">
        <ele>396</ele>
        <time>2021-09-01T11:26:58Z</time>
      </trkpt>
      <trkpt lat="44.39435" lon="2.00176">
        <ele>385</ele>
        <time>2021-09-01T11:27:26Z</time>
      </trkpt>
      <trkpt lat="44.3943" lon="2.0017">
        <ele>384</ele>
        <time>2021-09-01T11:27:32Z</time>
      </trkpt>
      <trkpt lat="44.39406" lon="2.00083">
        <ele>377</ele>
        <time>2021-09-01T11:27:44Z</time>
      </trkpt>
      <trkpt lat="44.39403" lon="2.00072">
        <ele>377</ele>
        <time>2021-09-01T11:27:45Z</time>
      </trkpt>
      <trkpt lat="44.39398" lon="2.00063">
        <ele>377</ele>
        <time>2021-09-01T11:27:46Z</time>
      </trkpt>
      <trkpt lat="44.39391" lon="2.00056">
        <ele>377</ele>
        <time>2021-09-01T11:27:47Z</time>
      </trkpt>
      <trkpt lat="44.39372" lon="2.00046">
        <ele>376</ele>
        <time>2021-09-01T11:27:50Z</time>
      </trkpt>
      <trkpt lat="44.39213" lon="2.0002">
        <ele>358</ele>
        <time>2021-09-01T11:28:12Z</time>
      </trkpt>
      <trkpt lat="44.39203" lon="2.00015">
        <ele>356</ele>
        <time>2021-09-01T11:28:14Z</time>
      </trkpt>
      <trkpt lat="44.39194" lon="2.00009">
        <ele>354</ele>
        <time>2021-09-01T11:28:16Z</time>
      </trkpt>
      <trkpt lat="44.39182" lon="1.99986">
        <ele>351</ele>
        <time>2021-09-01T11:28:20Z</time>
      </trkpt>
      <trkpt lat="44.39171" lon="1.99972">
        <ele>350</ele>
        <time>2021-09-01T11:28:23Z</time>
      </trkpt>
      <trkpt lat="44.39018" lon="1.99899">
        <ele>335</ele>
        <time>2021-09-01T11:28:42Z</time>
      </trkpt>
      <trkpt lat="44.38993" lon="1.99872">
        <ele>332</ele>
        <time>2021-09-01T11:28:46Z</time>
      </trkpt>
      <trkpt lat="44.38987" lon="1.99869">
        <ele>331</ele>
        <time>2021-09-01T11:28:47Z</time>
      </trkpt>
      <trkpt lat="44.38972" lon="1.99869">
        <ele>328</ele>
        <time>2021-09-01T11:28:49Z</time>
      </trkpt>
      <trkpt lat="44.38886" lon="1.99894">
        <ele>318</ele>
        <time>2021-09-01T11:29:00Z</time>
      </trkpt>
      <trkpt lat="44.38879" lon="1.99894">
        <ele>318</ele>
        <time>2021-09-01T11:29:01Z</time>
      </trkpt>
      <trkpt lat="44.38867" lon="1.99891">
        <ele>317</ele>
        <time>2021-09-01T11:29:03Z</time>
      </trkpt>
      <trkpt lat="44.38856" lon="1.99881">
        <ele>316</ele>
        <time>2021-09-01T11:29:05Z</time>
      </trkpt>
      <trkpt lat="44.38848" lon="1.99866">
        <ele>315</ele>
        <time>2021-09-01T11:29:07Z</time>
      </trkpt>
      <trkpt lat="44.38838" lon="1.99836">
        <ele>313</ele>
        <time>2021-09-01T11:29:10Z</time>
      </trkpt>
      <trkpt lat="44.38827" lon="1.99783">
        <ele>314</ele>
        <time>2021-09-01T11:29:15Z</time>
      </trkpt>
      <trkpt lat="44.38824" lon="1.99775">
        <ele>314</ele>
        <time>2021-09-01T11:29:16Z</time>
      </trkpt>
      <trkpt lat="44.38819" lon="1.99768">
        <ele>314</ele>
        <time>2021-09-01T11:29:17Z</time>
      </trkpt>
      <trkpt lat="44.38814" lon="1.99763">
        <ele>314</ele>
        <time>2021-09-01T11:29:18Z</time>
      </trkpt>
      <trkpt lat="44.38713" lon="1.9974">
        <ele>313</ele>
        <time>2021-09-01T11:29:35Z</time>
      </trkpt>
      <trkpt lat="44.38691" lon="1.99726">
        <ele>312</ele>
        <time>2021-09-01T11:29:40Z</time>
      </trkpt>
      <trkpt lat="44.38631" lon="1.99684">
        <ele>312</ele>
        <time>2021-09-01T11:29:56Z</time>
      </trkpt>
      <trkpt lat="44.38587" lon="1.99668">
        <ele>306</ele>
        <time>2021-09-01T11:30:07Z</time>
      </trkpt>
      <trkpt lat="44.38567" lon="1.99668">
        <ele>303</ele>
        <time>2021-09-01T11:30:11Z</time>
      </trkpt>
      <trkpt lat="44.38553" lon="1.99672">
        <ele>301</ele>
        <time>2021-09-01T11:30:16Z</time>
      </trkpt>
      <trkpt lat="44.38515" lon="1.99685">
        <ele>294</ele>
        <time>2021-09-01T11:30:21Z</time>
      </trkpt>
      <trkpt lat="44.38421" lon="1.99753">
        <ele>291</ele>
        <time>2021-09-01T11:30:38Z</time>
      </trkpt>
      <trkpt lat="44.38248" lon="1.99791">
        <ele>296</ele>
        <time>2021-09-01T11:31:06Z</time>
      </trkpt>
      <trkpt lat="44.38241" lon="1.99792">
        <ele>297</ele>
        <time>2021-09-01T11:31:08Z</time>
      </trkpt>
      <trkpt lat="44.38239" lon="1.99798">
        <ele>299</ele>
        <time>2021-09-01T11:31:45Z</time>
      </trkpt>
      <trkpt lat="44.38231" lon="1.99846">
        <ele>298</ele>
        <time>2021-09-01T11:31:56Z</time>
      </trkpt>
      <trkpt lat="44.38223" lon="1.99863">
        <ele>297</ele>
        <time>2021-09-01T11:32:00Z</time>
      </trkpt>
      <trkpt lat="44.38207" lon="1.99888">
        <ele>296</ele>
        <time>2021-09-01T11:32:06Z</time>
      </trkpt>
      <trkpt lat="44.38197" lon="1.99902">
        <ele>297</ele>
        <time>2021-09-01T11:32:10Z</time>
      </trkpt>
      <trkpt lat="44.38187" lon="1.99919">
        <ele>296</ele>
        <time>2021-09-01T11:32:14Z</time>
      </trkpt>
      <trkpt lat="44.38167" lon="1.99973">
        <ele>293</ele>
        <time>2021-09-01T11:32:26Z</time>
      </trkpt>
      <trkpt lat="44.38165" lon="1.99981">
        <ele>293</ele>
        <time>2021-09-01T11:32:28Z</time>
      </trkpt>
      <trkpt lat="44.38171" lon="1.99992">
        <ele>295</ele>
        <time>2021-09-01T11:32:33Z</time>
      </trkpt>
      <trkpt lat="44.38176" lon="1.99996">
        <ele>296</ele>
        <time>2021-09-01T11:32:40Z</time>
      </trkpt>
      <trkpt lat="44.38188" lon="1.99996">
        <ele>296</ele>
        <time>2021-09-01T11:32:47Z</time>
      </trkpt>
      <trkpt lat="44.38203" lon="2">
        <ele>297</ele>
        <time>2021-09-01T11:32:58Z</time>
      </trkpt>
      <trkpt lat="44.38209" lon="2.00002">
        <ele>299</ele>
        <time>2021-09-01T11:33:03Z</time>
      </trkpt>
      <trkpt lat="44.38211" lon="2.0001">
        <ele>299</ele>
        <time>2021-09-01T11:33:07Z</time>
      </trkpt>
      <trkpt lat="44.38215" lon="2.00016">
        <ele>300</ele>
        <time>2021-09-01T11:33:16Z</time>
      </trkpt>
      <trkpt lat="44.38221" lon="2.00015">
        <ele>302</ele>
        <time>2021-09-01T11:33:33Z</time>
      </trkpt>
      <trkpt lat="44.38226" lon="2.00011">
        <ele>307</ele>
        <time>2021-09-01T11:33:39Z</time>
      </trkpt>
      <trkpt lat="44.38229" lon="2.00003">
        <ele>308</ele>
        <time>2021-09-01T11:33:51Z</time>
      </trkpt>
      <trkpt lat="44.38229" lon="1.99995">
        <ele>309</ele>
        <time>2021-09-01T11:33:54Z</time>
      </trkpt>
      <trkpt lat="44.3824" lon="1.99986">
        <ele>310</ele>
        <time>2021-09-01T11:34:00Z</time>
      </trkpt>
      <trkpt lat="44.38243" lon="1.99978">
        <ele>311</ele>
        <time>2021-09-01T11:34:03Z</time>
      </trkpt>
      <trkpt lat="44.38241" lon="1.9997">
        <ele>310</ele>
        <time>2021-09-01T11:34:06Z</time>
      </trkpt>
      <trkpt lat="44.38229" lon="1.99956">
        <ele>311</ele>
        <time>2021-09-01T11:34:12Z</time>
      </trkpt>
      <trkpt lat="44.38203" lon="2.00004">
        <ele>306</ele>
        <time>2021-09-01T11:34:30Z</time>
      </trkpt>
      <trkpt lat="44.38171" lon="1.99991">
        <ele>302</ele>
        <time>2021-09-01T11:34:40Z</time>
      </trkpt>
      <trkpt lat="44.38167" lon="1.99989">
        <ele>303</ele>
        <time>2021-09-01T11:34:50Z</time>
      </trkpt>
      <trkpt lat="44.38159" lon="2">
        <ele>303</ele>
        <time>2021-09-01T11:34:56Z</time>
      </trkpt>
      <trkpt lat="44.38155" lon="2.00001">
        <ele>303</ele>
        <time>2021-09-01T11:35:10Z</time>
      </trkpt>
      <trkpt lat="44.3815" lon="1.99997">
        <ele>303</ele>
        <time>2021-09-01T11:35:13Z</time>
      </trkpt>
      <trkpt lat="44.38144" lon="1.99994">
        <ele>303</ele>
        <time>2021-09-01T11:35:15Z</time>
      </trkpt>
      <trkpt lat="44.38139" lon="1.99995">
        <ele>303</ele>
        <time>2021-09-01T11:35:16Z</time>
      </trkpt>
      <trkpt lat="44.38135" lon="1.99999">
        <ele>303</ele>
        <time>2021-09-01T11:35:17Z</time>
      </trkpt>
      <trkpt lat="44.38131" lon="2.00004">
        <ele>303</ele>
        <time>2021-09-01T11:35:18Z</time>
      </trkpt>
      <trkpt lat="44.381" lon="2.00044">
        <ele>300</ele>
        <time>2021-09-01T11:35:30Z</time>
      </trkpt>
      <trkpt lat="44.38095" lon="2.00048">
        <ele>300</ele>
        <time>2021-09-01T11:35:32Z</time>
      </trkpt>
      <trkpt lat="44.3809" lon="2.00046">
        <ele>299</ele>
        <time>2021-09-01T11:35:34Z</time>
      </trkpt>
      <trkpt lat="44.38086" lon="2.0004">
        <ele>299</ele>
        <time>2021-09-01T11:35:36Z</time>
      </trkpt>
      <trkpt lat="44.38085" lon="2.00032">
        <ele>300</ele>
        <time>2021-09-01T11:35:38Z</time>
      </trkpt>
      <trkpt lat="44.38082" lon="2.00025">
        <ele>300</ele>
        <time>2021-09-01T11:35:40Z</time>
      </trkpt>
      <trkpt lat="44.38079" lon="2.00019">
        <ele>300</ele>
        <time>2021-09-01T11:35:42Z</time>
      </trkpt>
      <trkpt lat="44.38077" lon="2.00012">
        <ele>301</ele>
        <time>2021-09-01T11:35:45Z</time>
      </trkpt>
      <trkpt lat="44.3808" lon="2.00008">
        <ele>301</ele>
        <time>2021-09-01T11:35:58Z</time>
      </trkpt>
      <trkpt lat="44.38076" lon="2.0001">
        <ele>301</ele>
        <time>2021-09-01T11:36:54Z</time>
      </trkpt>
      <trkpt lat="44.38071" lon="2.00012">
        <ele>299</ele>
        <time>2021-09-01T11:36:58Z</time>
      </trkpt>
      <trkpt lat="44.38066" lon="2.0001">
        <ele>300</ele>
        <time>2021-09-01T11:37:02Z</time>
      </trkpt>
      <trkpt lat="44.38062" lon="2.00005">
        <ele>300</ele>
        <time>2021-09-01T11:37:06Z</time>
      </trkpt>
      <trkpt lat="44.38059" lon="1.99999">
        <ele>302</ele>
        <time>2021-09-01T11:38:10Z</time>
      </trkpt>
      <trkpt lat="44.38063" lon="1.99998">
        <ele>303</ele>
        <time>2021-09-01T12:01:34Z</time>
      </trkpt>
      <trkpt lat="44.38064" lon="2.00005">
        <ele>303</ele>
        <time>2021-09-01T12:03:23Z</time>
      </trkpt>
      <trkpt lat="44.38069" lon="2.0001">
        <ele>303</ele>
        <time>2021-09-01T12:03:26Z</time>
      </trkpt>
      <trkpt lat="44.38086" lon="2.00041">
        <ele>306</ele>
        <time>2021-09-01T12:03:38Z</time>
      </trkpt>
      <trkpt lat="44.38089" lon="2.00048">
        <ele>307</ele>
        <time>2021-09-01T12:03:40Z</time>
      </trkpt>
      <trkpt lat="44.38094" lon="2.00051">
        <ele>307</ele>
        <time>2021-09-01T12:03:43Z</time>
      </trkpt>
      <trkpt lat="44.381" lon="2.00051">
        <ele>307</ele>
        <time>2021-09-01T12:03:46Z</time>
      </trkpt>
      <trkpt lat="44.38107" lon="2.00039">
        <ele>306</ele>
        <time>2021-09-01T12:03:51Z</time>
      </trkpt>
      <trkpt lat="44.38117" lon="2.00027">
        <ele>305</ele>
        <time>2021-09-01T12:03:57Z</time>
      </trkpt>
      <trkpt lat="44.38122" lon="2.00025">
        <ele>305</ele>
        <time>2021-09-01T12:04:00Z</time>
      </trkpt>
      <trkpt lat="44.38125" lon="2.00032">
        <ele>306</ele>
        <time>2021-09-01T12:04:04Z</time>
      </trkpt>
      <trkpt lat="44.38123" lon="2.00039">
        <ele>306</ele>
        <time>2021-09-01T12:04:07Z</time>
      </trkpt>
      <trkpt lat="44.38119" lon="2.00043">
        <ele>307</ele>
        <time>2021-09-01T12:05:48Z</time>
      </trkpt>
      <trkpt lat="44.38115" lon="2.00039">
        <ele>306</ele>
        <time>2021-09-01T12:06:26Z</time>
      </trkpt>
      <trkpt lat="44.3811" lon="2.00041">
        <ele>300</ele>
        <time>2021-09-01T12:07:14Z</time>
      </trkpt>
      <trkpt lat="44.3811" lon="2.00044">
        <ele>306</ele>
        <time>2021-09-01T12:31:14Z</time>
      </trkpt>
      <trkpt lat="44.38115" lon="2.00041">
        <ele>303</ele>
        <time>2021-09-01T12:34:15Z</time>
      </trkpt>
      <trkpt lat="44.38118" lon="2.00036">
        <ele>303</ele>
        <time>2021-09-01T12:34:32Z</time>
      </trkpt>
      <trkpt lat="44.38119" lon="2.00045">
        <ele>279</ele>
        <time>2021-09-01T12:40:46Z</time>
      </trkpt>
      <trkpt lat="44.38114" lon="2.00045">
        <ele>323</ele>
        <time>2021-09-01T12:41:02Z</time>
      </trkpt>
      <trkpt lat="44.38113" lon="2.00049">
        <ele>314</ele>
        <time>2021-09-01T12:41:11Z</time>
      </trkpt>
      <trkpt lat="44.38125" lon="2.00049">
        <ele>307</ele>
        <time>2021-09-01T12:41:12Z</time>
      </trkpt>
      <trkpt lat="44.38125" lon="2.00047">
        <ele>301</ele>
        <time>2021-09-01T12:41:16Z</time>
      </trkpt>
      <trkpt lat="44.38121" lon="2.00045">
        <ele>306</ele>
        <time>2021-09-01T12:41:18Z</time>
      </trkpt>
      <trkpt lat="44.38112" lon="2.00045">
        <ele>309</ele>
        <time>2021-09-01T12:41:19Z</time>
      </trkpt>
      <trkpt lat="44.38118" lon="2.00036">
        <ele>295</ele>
        <time>2021-09-01T12:41:26Z</time>
      </trkpt>
      <trkpt lat="44.38116" lon="2.00042">
        <ele>320</ele>
        <time>2021-09-01T12:41:29Z</time>
      </trkpt>
      <trkpt lat="44.38121" lon="2.00054">
        <ele>302</ele>
        <time>2021-09-01T12:41:36Z</time>
      </trkpt>
      <trkpt lat="44.3812" lon="2.00055">
        <ele>299</ele>
        <time>2021-09-01T12:41:54Z</time>
      </trkpt>
      <trkpt lat="44.38116" lon="2.00052">
        <ele>303</ele>
        <time>2021-09-01T12:41:57Z</time>
      </trkpt>
      <trkpt lat="44.38113" lon="2.00044">
        <ele>324</ele>
        <time>2021-09-01T12:42:03Z</time>
      </trkpt>
      <trkpt lat="44.38116" lon="2.00044">
        <ele>301</ele>
        <time>2021-09-01T12:42:06Z</time>
      </trkpt>
      <trkpt lat="44.38094" lon="2.00022">
        <ele>373</ele>
        <time>2021-09-01T12:42:16Z</time>
      </trkpt>
      <trkpt lat="44.38112" lon="2.00036">
        <ele>332</ele>
        <time>2021-09-01T12:42:22Z</time>
      </trkpt>
      <trkpt lat="44.38117" lon="2.00034">
        <ele>316</ele>
        <time>2021-09-01T12:43:50Z</time>
      </trkpt>
      <trkpt lat="44.38121" lon="2.00027">
        <ele>314</ele>
        <time>2021-09-01T12:44:01Z</time>
      </trkpt>
      <trkpt lat="44.38122" lon="2.0002">
        <ele>312</ele>
        <time>2021-09-01T12:44:04Z</time>
      </trkpt>
      <trkpt lat="44.38123" lon="2.00012">
        <ele>312</ele>
        <time>2021-09-01T12:44:06Z</time>
      </trkpt>
      <trkpt lat="44.38126" lon="2.00005">
        <ele>312</ele>
        <time>2021-09-01T12:44:08Z</time>
      </trkpt>
      <trkpt lat="44.3813" lon="2">
        <ele>312</ele>
        <time>2021-09-01T12:44:10Z</time>
      </trkpt>
      <trkpt lat="44.3814" lon="1.99991">
        <ele>311</ele>
        <time>2021-09-01T12:44:16Z</time>
      </trkpt>
      <trkpt lat="44.38146" lon="1.99991">
        <ele>310</ele>
        <time>2021-09-01T12:44:19Z</time>
      </trkpt>
      <trkpt lat="44.3815" lon="1.99998">
        <ele>310</ele>
        <time>2021-09-01T12:44:22Z</time>
      </trkpt>
      <trkpt lat="44.38118" lon="2.00106">
        <ele>307</ele>
        <time>2021-09-01T12:44:52Z</time>
      </trkpt>
      <trkpt lat="44.38106" lon="2.00141">
        <ele>307</ele>
        <time>2021-09-01T12:45:00Z</time>
      </trkpt>
      <trkpt lat="44.38042" lon="2.00301">
        <ele>303</ele>
        <time>2021-09-01T12:45:30Z</time>
      </trkpt>
      <trkpt lat="44.37975" lon="2.00431">
        <ele>298</ele>
        <time>2021-09-01T12:45:49Z</time>
      </trkpt>
      <trkpt lat="44.37838" lon="2.00629">
        <ele>285</ele>
        <time>2021-09-01T12:46:19Z</time>
      </trkpt>
      <trkpt lat="44.37762" lon="2.00747">
        <ele>284</ele>
        <time>2021-09-01T12:46:34Z</time>
      </trkpt>
      <trkpt lat="44.3768" lon="2.0096">
        <ele>285</ele>
        <time>2021-09-01T12:46:59Z</time>
      </trkpt>
      <trkpt lat="44.37672" lon="2.0097">
        <ele>286</ele>
        <time>2021-09-01T12:47:01Z</time>
      </trkpt>
      <trkpt lat="44.37658" lon="2.0098">
        <ele>288</ele>
        <time>2021-09-01T12:47:04Z</time>
      </trkpt>
      <trkpt lat="44.37654" lon="2.00984">
        <ele>288</ele>
        <time>2021-09-01T12:47:05Z</time>
      </trkpt>
      <trkpt lat="44.37651" lon="2.00991">
        <ele>288</ele>
        <time>2021-09-01T12:47:06Z</time>
      </trkpt>
      <trkpt lat="44.37649" lon="2.00999">
        <ele>288</ele>
        <time>2021-09-01T12:47:07Z</time>
      </trkpt>
      <trkpt lat="44.37649" lon="2.01025">
        <ele>290</ele>
        <time>2021-09-01T12:47:10Z</time>
      </trkpt>
      <trkpt lat="44.37649" lon="2.01038">
        <ele>290</ele>
        <time>2021-09-01T12:47:12Z</time>
      </trkpt>
      <trkpt lat="44.37575" lon="2.01213">
        <ele>287</ele>
        <time>2021-09-01T12:47:39Z</time>
      </trkpt>
      <trkpt lat="44.375" lon="2.01307">
        <ele>282</ele>
        <time>2021-09-01T12:47:57Z</time>
      </trkpt>
      <trkpt lat="44.37476" lon="2.01329">
        <ele>282</ele>
        <time>2021-09-01T12:48:03Z</time>
      </trkpt>
      <trkpt lat="44.37461" lon="2.01335">
        <ele>282</ele>
        <time>2021-09-01T12:48:06Z</time>
      </trkpt>
      <trkpt lat="44.37446" lon="2.01346">
        <ele>282</ele>
        <time>2021-09-01T12:48:10Z</time>
      </trkpt>
      <trkpt lat="44.37434" lon="2.01361">
        <ele>280</ele>
        <time>2021-09-01T12:48:13Z</time>
      </trkpt>
      <trkpt lat="44.37274" lon="2.01449">
        <ele>276</ele>
        <time>2021-09-01T12:48:44Z</time>
      </trkpt>
      <trkpt lat="44.37101" lon="2.01593">
        <ele>273</ele>
        <time>2021-09-01T12:49:14Z</time>
      </trkpt>
      <trkpt lat="44.37064" lon="2.01609">
        <ele>274</ele>
        <time>2021-09-01T12:49:20Z</time>
      </trkpt>
      <trkpt lat="44.37027" lon="2.01615">
        <ele>274</ele>
        <time>2021-09-01T12:49:26Z</time>
      </trkpt>
      <trkpt lat="44.36912" lon="2.01585">
        <ele>273</ele>
        <time>2021-09-01T12:49:47Z</time>
      </trkpt>
      <trkpt lat="44.36807" lon="2.01555">
        <ele>270</ele>
        <time>2021-09-01T12:50:08Z</time>
      </trkpt>
      <trkpt lat="44.3676" lon="2.01554">
        <ele>269</ele>
        <time>2021-09-01T12:50:17Z</time>
      </trkpt>
      <trkpt lat="44.36702" lon="2.01574">
        <ele>270</ele>
        <time>2021-09-01T12:50:29Z</time>
      </trkpt>
      <trkpt lat="44.36569" lon="2.01674">
        <ele>271</ele>
        <time>2021-09-01T12:50:59Z</time>
      </trkpt>
      <trkpt lat="44.36445" lon="2.01794">
        <ele>273</ele>
        <time>2021-09-01T12:51:30Z</time>
      </trkpt>
      <trkpt lat="44.36328" lon="2.01927">
        <ele>272</ele>
        <time>2021-09-01T12:52:01Z</time>
      </trkpt>
      <trkpt lat="44.36234" lon="2.02088">
        <ele>274</ele>
        <time>2021-09-01T12:52:31Z</time>
      </trkpt>
      <trkpt lat="44.36137" lon="2.02264">
        <ele>279</ele>
        <time>2021-09-01T12:53:02Z</time>
      </trkpt>
      <trkpt lat="44.36055" lon="2.0241">
        <ele>282</ele>
        <time>2021-09-01T12:53:28Z</time>
      </trkpt>
      <trkpt lat="44.36044" lon="2.02436">
        <ele>282</ele>
        <time>2021-09-01T12:53:32Z</time>
      </trkpt>
      <trkpt lat="44.35945" lon="2.02612">
        <ele>278</ele>
        <time>2021-09-01T12:54:02Z</time>
      </trkpt>
      <trkpt lat="44.35883" lon="2.02713">
        <ele>276</ele>
        <time>2021-09-01T12:54:22Z</time>
      </trkpt>
      <trkpt lat="44.35865" lon="2.0273">
        <ele>277</ele>
        <time>2021-09-01T12:54:28Z</time>
      </trkpt>
      <trkpt lat="44.35861" lon="2.02733">
        <ele>278</ele>
        <time>2021-09-01T12:55:05Z</time>
      </trkpt>
      <trkpt lat="44.35857" lon="2.02738">
        <ele>278</ele>
        <time>2021-09-01T12:55:07Z</time>
      </trkpt>
      <trkpt lat="44.35854" lon="2.02746">
        <ele>278</ele>
        <time>2021-09-01T12:55:09Z</time>
      </trkpt>
      <trkpt lat="44.35846" lon="2.02762">
        <ele>278</ele>
        <time>2021-09-01T12:55:13Z</time>
      </trkpt>
      <trkpt lat="44.35736" lon="2.0285">
        <ele>274</ele>
        <time>2021-09-01T12:55:44Z</time>
      </trkpt>
      <trkpt lat="44.35613" lon="2.02944">
        <ele>275</ele>
        <time>2021-09-01T12:56:16Z</time>
      </trkpt>
      <trkpt lat="44.35592" lon="2.02956">
        <ele>274</ele>
        <time>2021-09-01T12:56:22Z</time>
      </trkpt>
      <trkpt lat="44.35586" lon="2.02958">
        <ele>274</ele>
        <time>2021-09-01T12:56:24Z</time>
      </trkpt>
      <trkpt lat="44.35574" lon="2.02951">
        <ele>274</ele>
        <time>2021-09-01T12:56:28Z</time>
      </trkpt>
      <trkpt lat="44.35567" lon="2.02951">
        <ele>273</ele>
        <time>2021-09-01T12:56:30Z</time>
      </trkpt>
      <trkpt lat="44.35562" lon="2.02954">
        <ele>274</ele>
        <time>2021-09-01T12:56:31Z</time>
      </trkpt>
      <trkpt lat="44.35554" lon="2.02959">
        <ele>274</ele>
        <time>2021-09-01T12:56:33Z</time>
      </trkpt>
      <trkpt lat="44.35445" lon="2.03021">
        <ele>272</ele>
        <time>2021-09-01T12:56:55Z</time>
      </trkpt>
      <trkpt lat="44.35435" lon="2.03022">
        <ele>271</ele>
        <time>2021-09-01T12:56:57Z</time>
      </trkpt>
      <trkpt lat="44.35421" lon="2.03015">
        <ele>271</ele>
        <time>2021-09-01T12:57:00Z</time>
      </trkpt>
      <trkpt lat="44.35408" lon="2.02999">
        <ele>272</ele>
        <time>2021-09-01T12:57:04Z</time>
      </trkpt>
      <trkpt lat="44.35382" lon="2.02972">
        <ele>275</ele>
        <time>2021-09-01T12:57:14Z</time>
      </trkpt>
      <trkpt lat="44.35378" lon="2.02967">
        <ele>275</ele>
        <time>2021-09-01T12:57:17Z</time>
      </trkpt>
      <trkpt lat="44.35373" lon="2.02963">
        <ele>275</ele>
        <time>2021-09-01T12:57:22Z</time>
      </trkpt>
      <trkpt lat="44.35368" lon="2.02969">
        <ele>275</ele>
        <time>2021-09-01T12:57:24Z</time>
      </trkpt>
      <trkpt lat="44.35343" lon="2.03019">
        <ele>273</ele>
        <time>2021-09-01T12:57:35Z</time>
      </trkpt>
      <trkpt lat="44.35291" lon="2.03143">
        <ele>269</ele>
        <time>2021-09-01T12:57:55Z</time>
      </trkpt>
      <trkpt lat="44.35278" lon="2.03172">
        <ele>270</ele>
        <time>2021-09-01T12:58:01Z</time>
      </trkpt>
      <trkpt lat="44.35275" lon="2.0318">
        <ele>270</ele>
        <time>2021-09-01T12:58:03Z</time>
      </trkpt>
      <trkpt lat="44.35289" lon="2.03207">
        <ele>271</ele>
        <time>2021-09-01T12:58:09Z</time>
      </trkpt>
      <trkpt lat="44.35293" lon="2.03216">
        <ele>271</ele>
        <time>2021-09-01T12:58:11Z</time>
      </trkpt>
      <trkpt lat="44.35297" lon="2.03225">
        <ele>272</ele>
        <time>2021-09-01T12:58:13Z</time>
      </trkpt>
      <trkpt lat="44.35301" lon="2.03252">
        <ele>272</ele>
        <time>2021-09-01T12:58:19Z</time>
      </trkpt>
      <trkpt lat="44.35302" lon="2.03262">
        <ele>273</ele>
        <time>2021-09-01T12:58:21Z</time>
      </trkpt>
      <trkpt lat="44.35302" lon="2.03271">
        <ele>273</ele>
        <time>2021-09-01T12:58:23Z</time>
      </trkpt>
      <trkpt lat="44.35301" lon="2.0328">
        <ele>273</ele>
        <time>2021-09-01T12:58:25Z</time>
      </trkpt>
      <trkpt lat="44.35297" lon="2.0334">
        <ele>271</ele>
        <time>2021-09-01T12:58:39Z</time>
      </trkpt>
      <trkpt lat="44.35285" lon="2.0337">
        <ele>271</ele>
        <time>2021-09-01T12:58:45Z</time>
      </trkpt>
      <trkpt lat="44.35283" lon="2.03379">
        <ele>271</ele>
        <time>2021-09-01T12:58:47Z</time>
      </trkpt>
      <trkpt lat="44.35283" lon="2.03388">
        <ele>272</ele>
        <time>2021-09-01T12:58:49Z</time>
      </trkpt>
      <trkpt lat="44.35283" lon="2.03396">
        <ele>272</ele>
        <time>2021-09-01T12:58:53Z</time>
      </trkpt>
      <trkpt lat="44.35279" lon="2.03401">
        <ele>268</ele>
        <time>2021-09-01T12:59:43Z</time>
      </trkpt>
      <trkpt lat="44.35165" lon="2.03441">
        <ele>252</ele>
        <time>2021-09-01T13:00:09Z</time>
      </trkpt>
      <trkpt lat="44.35031" lon="2.03554">
        <ele>250</ele>
        <time>2021-09-01T13:00:40Z</time>
      </trkpt>
      <trkpt lat="44.34965" lon="2.03615">
        <ele>249</ele>
        <time>2021-09-01T13:01:01Z</time>
      </trkpt>
      <trkpt lat="44.3496" lon="2.03622">
        <ele>248</ele>
        <time>2021-09-01T13:01:03Z</time>
      </trkpt>
      <trkpt lat="44.34955" lon="2.03643">
        <ele>245</ele>
        <time>2021-09-01T13:01:07Z</time>
      </trkpt>
      <trkpt lat="44.34954" lon="2.03655">
        <ele>244</ele>
        <time>2021-09-01T13:01:09Z</time>
      </trkpt>
      <trkpt lat="44.34981" lon="2.03838">
        <ele>246</ele>
        <time>2021-09-01T13:01:39Z</time>
      </trkpt>
      <trkpt lat="44.35018" lon="2.04026">
        <ele>247</ele>
        <time>2021-09-01T13:02:10Z</time>
      </trkpt>
      <trkpt lat="44.35039" lon="2.04165">
        <ele>248</ele>
        <time>2021-09-01T13:02:34Z</time>
      </trkpt>
      <trkpt lat="44.3504" lon="2.04181">
        <ele>248</ele>
        <time>2021-09-01T13:02:39Z</time>
      </trkpt>
      <trkpt lat="44.35042" lon="2.04187">
        <ele>248</ele>
        <time>2021-09-01T13:03:22Z</time>
      </trkpt>
      <trkpt lat="44.3504" lon="2.04196">
        <ele>248</ele>
        <time>2021-09-01T13:03:25Z</time>
      </trkpt>
      <trkpt lat="44.35042" lon="2.04206">
        <ele>247</ele>
        <time>2021-09-01T13:03:27Z</time>
      </trkpt>
      <trkpt lat="44.35052" lon="2.04239">
        <ele>243</ele>
        <time>2021-09-01T13:03:33Z</time>
      </trkpt>
      <trkpt lat="44.35055" lon="2.04274">
        <ele>239</ele>
        <time>2021-09-01T13:03:39Z</time>
      </trkpt>
      <trkpt lat="44.35057" lon="2.04282">
        <ele>238</ele>
        <time>2021-09-01T13:03:41Z</time>
      </trkpt>
      <trkpt lat="44.35069" lon="2.04331">
        <ele>232</ele>
        <time>2021-09-01T13:03:49Z</time>
      </trkpt>
      <trkpt lat="44.35081" lon="2.04389">
        <ele>243</ele>
        <time>2021-09-01T13:03:59Z</time>
      </trkpt>
      <trkpt lat="44.35083" lon="2.044">
        <ele>244</ele>
        <time>2021-09-01T13:04:01Z</time>
      </trkpt>
      <trkpt lat="44.35082" lon="2.04407">
        <ele>244</ele>
        <time>2021-09-01T13:04:03Z</time>
      </trkpt>
      <trkpt lat="44.35065" lon="2.04412">
        <ele>247</ele>
        <time>2021-09-01T13:04:07Z</time>
      </trkpt>
      <trkpt lat="44.35057" lon="2.04416">
        <ele>248</ele>
        <time>2021-09-01T13:04:09Z</time>
      </trkpt>
      <trkpt lat="44.35039" lon="2.0444">
        <ele>250</ele>
        <time>2021-09-01T13:04:15Z</time>
      </trkpt>
      <trkpt lat="44.35036" lon="2.04447">
        <ele>249</ele>
        <time>2021-09-01T13:04:17Z</time>
      </trkpt>
      <trkpt lat="44.35034" lon="2.04454">
        <ele>249</ele>
        <time>2021-09-01T13:04:19Z</time>
      </trkpt>
      <trkpt lat="44.35029" lon="2.04455">
        <ele>250</ele>
        <time>2021-09-01T13:04:29Z</time>
      </trkpt>
      <trkpt lat="44.35028" lon="2.04461">
        <ele>250</ele>
        <time>2021-09-01T13:04:34Z</time>
      </trkpt>
      <trkpt lat="44.35019" lon="2.0445">
        <ele>252</ele>
        <time>2021-09-01T13:04:43Z</time>
      </trkpt>
      <trkpt lat="44.34996" lon="2.04458">
        <ele>255</ele>
        <time>2021-09-01T13:04:51Z</time>
      </trkpt>
      <trkpt lat="44.34989" lon="2.0446">
        <ele>255</ele>
        <time>2021-09-01T13:04:53Z</time>
      </trkpt>
      <trkpt lat="44.34977" lon="2.04471">
        <ele>255</ele>
        <time>2021-09-01T13:04:57Z</time>
      </trkpt>
      <trkpt lat="44.34906" lon="2.04598">
        <ele>253</ele>
        <time>2021-09-01T13:05:23Z</time>
      </trkpt>
      <trkpt lat="44.34895" lon="2.0461">
        <ele>253</ele>
        <time>2021-09-01T13:05:26Z</time>
      </trkpt>
      <trkpt lat="44.34883" lon="2.04621">
        <ele>255</ele>
        <time>2021-09-01T13:05:29Z</time>
      </trkpt>
      <trkpt lat="44.34878" lon="2.04627">
        <ele>255</ele>
        <time>2021-09-01T13:05:31Z</time>
      </trkpt>
      <trkpt lat="44.34869" lon="2.04638">
        <ele>256</ele>
        <time>2021-09-01T13:05:35Z</time>
      </trkpt>
      <trkpt lat="44.34863" lon="2.04641">
        <ele>256</ele>
        <time>2021-09-01T13:05:37Z</time>
      </trkpt>
      <trkpt lat="44.34841" lon="2.04648">
        <ele>253</ele>
        <time>2021-09-01T13:05:43Z</time>
      </trkpt>
      <trkpt lat="44.34784" lon="2.04655">
        <ele>250</ele>
        <time>2021-09-01T13:05:59Z</time>
      </trkpt>
      <trkpt lat="44.34765" lon="2.04664">
        <ele>246</ele>
        <time>2021-09-01T13:06:05Z</time>
      </trkpt>
      <trkpt lat="44.34753" lon="2.04669">
        <ele>242</ele>
        <time>2021-09-01T13:06:09Z</time>
      </trkpt>
      <trkpt lat="44.34748" lon="2.04672">
        <ele>240</ele>
        <time>2021-09-01T13:06:11Z</time>
      </trkpt>
      <trkpt lat="44.34729" lon="2.04678">
        <ele>234</ele>
        <time>2021-09-01T13:06:17Z</time>
      </trkpt>
      <trkpt lat="44.34724" lon="2.04679">
        <ele>233</ele>
        <time>2021-09-01T13:06:19Z</time>
      </trkpt>
      <trkpt lat="44.34694" lon="2.04677">
        <ele>225</ele>
        <time>2021-09-01T13:06:29Z</time>
      </trkpt>
      <trkpt lat="44.34689" lon="2.04675">
        <ele>226</ele>
        <time>2021-09-01T13:06:31Z</time>
      </trkpt>
      <trkpt lat="44.34684" lon="2.04673">
        <ele>227</ele>
        <time>2021-09-01T13:06:34Z</time>
      </trkpt>
      <trkpt lat="44.34678" lon="2.04673">
        <ele>231</ele>
        <time>2021-09-01T13:06:57Z</time>
      </trkpt>
    </trkseg>
  </trk>
  <trk>
    <name><![CDATA[j7]]></name>
    <desc><![CDATA[comment ...]]></desc>
    <extensions>
      <line xmlns="http://www.topografix.com/GPX/gpx_style/0/2">
        <color>ff0000</color>
        <width>4</width>
      </line>
    </extensions>
    <trkseg>
      <trkpt lat="44.34643" lon="2.04603">
        <ele>368</ele>
        <time>2021-09-02T07:30:08Z</time>
      </trkpt>
      <trkpt lat="44.34646" lon="2.04612">
        <ele>386</ele>
        <time>2021-09-02T07:30:15Z</time>
      </trkpt>
      <trkpt lat="44.34628" lon="2.04579">
        <ele>421</ele>
        <time>2021-09-02T07:30:17Z</time>
      </trkpt>
      <trkpt lat="44.34648" lon="2.04569">
        <ele>457</ele>
        <time>2021-09-02T07:30:22Z</time>
      </trkpt>
      <trkpt lat="44.34648" lon="2.04579">
        <ele>453</ele>
        <time>2021-09-02T07:30:28Z</time>
      </trkpt>
      <trkpt lat="44.34657" lon="2.04599">
        <ele>403</ele>
        <time>2021-09-02T07:30:38Z</time>
      </trkpt>
      <trkpt lat="44.34659" lon="2.04614">
        <ele>372</ele>
        <time>2021-09-02T07:30:42Z</time>
      </trkpt>
      <trkpt lat="44.34668" lon="2.04627">
        <ele>356</ele>
        <time>2021-09-02T07:31:03Z</time>
      </trkpt>
      <trkpt lat="44.34668" lon="2.04621">
        <ele>353</ele>
        <time>2021-09-02T07:31:15Z</time>
      </trkpt>
      <trkpt lat="44.34672" lon="2.04655">
        <ele>355</ele>
        <time>2021-09-02T07:31:23Z</time>
      </trkpt>
      <trkpt lat="44.34668" lon="2.04663">
        <ele>301</ele>
        <time>2021-09-02T07:31:26Z</time>
      </trkpt>
      <trkpt lat="44.34662" lon="2.04664">
        <ele>286</ele>
        <time>2021-09-02T07:31:28Z</time>
      </trkpt>
      <trkpt lat="44.34655" lon="2.04665">
        <ele>280</ele>
        <time>2021-09-02T07:31:30Z</time>
      </trkpt>
      <trkpt lat="44.34646" lon="2.04664">
        <ele>274</ele>
        <time>2021-09-02T07:31:32Z</time>
      </trkpt>
      <trkpt lat="44.34548" lon="2.04663">
        <ele>268</ele>
        <time>2021-09-02T07:31:56Z</time>
      </trkpt>
      <trkpt lat="44.34512" lon="2.04672">
        <ele>264</ele>
        <time>2021-09-02T07:32:06Z</time>
      </trkpt>
      <trkpt lat="44.3444" lon="2.04708">
        <ele>257</ele>
        <time>2021-09-02T07:32:23Z</time>
      </trkpt>
      <trkpt lat="44.34432" lon="2.04714">
        <ele>256</ele>
        <time>2021-09-02T07:32:25Z</time>
      </trkpt>
      <trkpt lat="44.34409" lon="2.04765">
        <ele>253</ele>
        <time>2021-09-02T07:32:35Z</time>
      </trkpt>
      <trkpt lat="44.34403" lon="2.04771">
        <ele>252</ele>
        <time>2021-09-02T07:32:37Z</time>
      </trkpt>
      <trkpt lat="44.34394" lon="2.04787">
        <ele>251</ele>
        <time>2021-09-02T07:32:41Z</time>
      </trkpt>
      <trkpt lat="44.34381" lon="2.04826">
        <ele>246</ele>
        <time>2021-09-02T07:32:51Z</time>
      </trkpt>
      <trkpt lat="44.34353" lon="2.04943">
        <ele>236</ele>
        <time>2021-09-02T07:33:19Z</time>
      </trkpt>
      <trkpt lat="44.3434" lon="2.0499">
        <ele>234</ele>
        <time>2021-09-02T07:33:29Z</time>
      </trkpt>
      <trkpt lat="44.34327" lon="2.05036">
        <ele>235</ele>
        <time>2021-09-02T07:33:39Z</time>
      </trkpt>
      <trkpt lat="44.34314" lon="2.05085">
        <ele>237</ele>
        <time>2021-09-02T07:33:49Z</time>
      </trkpt>
      <trkpt lat="44.34311" lon="2.05101">
        <ele>238</ele>
        <time>2021-09-02T07:33:52Z</time>
      </trkpt>
      <trkpt lat="44.3431" lon="2.05123">
        <ele>238</ele>
        <time>2021-09-02T07:33:56Z</time>
      </trkpt>
      <trkpt lat="44.34313" lon="2.05145">
        <ele>237</ele>
        <time>2021-09-02T07:34:00Z</time>
      </trkpt>
      <trkpt lat="44.34336" lon="2.05219">
        <ele>240</ele>
        <time>2021-09-02T07:34:14Z</time>
      </trkpt>
      <trkpt lat="44.34364" lon="2.05258">
        <ele>242</ele>
        <time>2021-09-02T07:34:24Z</time>
      </trkpt>
      <trkpt lat="44.34433" lon="2.05378">
        <ele>246</ele>
        <time>2021-09-02T07:34:54Z</time>
      </trkpt>
      <trkpt lat="44.3445" lon="2.054">
        <ele>246</ele>
        <time>2021-09-02T07:35:01Z</time>
      </trkpt>
      <trkpt lat="44.34467" lon="2.05413">
        <ele>246</ele>
        <time>2021-09-02T07:35:07Z</time>
      </trkpt>
      <trkpt lat="44.34504" lon="2.0541">
        <ele>246</ele>
        <time>2021-09-02T07:35:19Z</time>
      </trkpt>
      <trkpt lat="44.34514" lon="2.05395">
        <ele>247</ele>
        <time>2021-09-02T07:35:23Z</time>
      </trkpt>
      <trkpt lat="44.3453" lon="2.05339">
        <ele>246</ele>
        <time>2021-09-02T07:35:35Z</time>
      </trkpt>
      <trkpt lat="44.34537" lon="2.05329">
        <ele>246</ele>
        <time>2021-09-02T07:35:37Z</time>
      </trkpt>
      <trkpt lat="44.34545" lon="2.05323">
        <ele>246</ele>
        <time>2021-09-02T07:35:39Z</time>
      </trkpt>
      <trkpt lat="44.34598" lon="2.05303">
        <ele>249</ele>
        <time>2021-09-02T07:35:55Z</time>
      </trkpt>
      <trkpt lat="44.34605" lon="2.05301">
        <ele>251</ele>
        <time>2021-09-02T07:35:57Z</time>
      </trkpt>
      <trkpt lat="44.34624" lon="2.05295">
        <ele>255</ele>
        <time>2021-09-02T07:36:02Z</time>
      </trkpt>
      <trkpt lat="44.34685" lon="2.05277">
        <ele>263</ele>
        <time>2021-09-02T07:36:19Z</time>
      </trkpt>
      <trkpt lat="44.34769" lon="2.05351">
        <ele>268</ele>
        <time>2021-09-02T07:36:50Z</time>
      </trkpt>
      <trkpt lat="44.34811" lon="2.05434">
        <ele>263</ele>
        <time>2021-09-02T07:37:12Z</time>
      </trkpt>
      <trkpt lat="44.34837" lon="2.05492">
        <ele>263</ele>
        <time>2021-09-02T07:37:24Z</time>
      </trkpt>
      <trkpt lat="44.34863" lon="2.05581">
        <ele>262</ele>
        <time>2021-09-02T07:37:41Z</time>
      </trkpt>
      <trkpt lat="44.34901" lon="2.05652">
        <ele>261</ele>
        <time>2021-09-02T07:38:01Z</time>
      </trkpt>
      <trkpt lat="44.34937" lon="2.0571">
        <ele>261</ele>
        <time>2021-09-02T07:38:17Z</time>
      </trkpt>
      <trkpt lat="44.34942" lon="2.05723">
        <ele>261</ele>
        <time>2021-09-02T07:38:21Z</time>
      </trkpt>
      <trkpt lat="44.34951" lon="2.05734">
        <ele>260</ele>
        <time>2021-09-02T07:38:25Z</time>
      </trkpt>
      <trkpt lat="44.34956" lon="2.0574">
        <ele>260</ele>
        <time>2021-09-02T07:38:27Z</time>
      </trkpt>
      <trkpt lat="44.34962" lon="2.05745">
        <ele>259</ele>
        <time>2021-09-02T07:38:29Z</time>
      </trkpt>
      <trkpt lat="44.35052" lon="2.05827">
        <ele>257</ele>
        <time>2021-09-02T07:38:59Z</time>
      </trkpt>
      <trkpt lat="44.35064" lon="2.05844">
        <ele>258</ele>
        <time>2021-09-02T07:39:03Z</time>
      </trkpt>
      <trkpt lat="44.35068" lon="2.05851">
        <ele>258</ele>
        <time>2021-09-02T07:39:05Z</time>
      </trkpt>
      <trkpt lat="44.35072" lon="2.05859">
        <ele>258</ele>
        <time>2021-09-02T07:39:07Z</time>
      </trkpt>
      <trkpt lat="44.35084" lon="2.05884">
        <ele>255</ele>
        <time>2021-09-02T07:39:13Z</time>
      </trkpt>
      <trkpt lat="44.35104" lon="2.05928">
        <ele>256</ele>
        <time>2021-09-02T07:39:22Z</time>
      </trkpt>
      <trkpt lat="44.35119" lon="2.05965">
        <ele>254</ele>
        <time>2021-09-02T07:39:30Z</time>
      </trkpt>
      <trkpt lat="44.35124" lon="2.05983">
        <ele>251</ele>
        <time>2021-09-02T07:39:34Z</time>
      </trkpt>
      <trkpt lat="44.35132" lon="2.06002">
        <ele>248</ele>
        <time>2021-09-02T07:39:38Z</time>
      </trkpt>
      <trkpt lat="44.35135" lon="2.06011">
        <ele>247</ele>
        <time>2021-09-02T07:39:40Z</time>
      </trkpt>
      <trkpt lat="44.35145" lon="2.06048">
        <ele>243</ele>
        <time>2021-09-02T07:39:48Z</time>
      </trkpt>
      <trkpt lat="44.35185" lon="2.06231">
        <ele>243</ele>
        <time>2021-09-02T07:40:19Z</time>
      </trkpt>
      <trkpt lat="44.35204" lon="2.0633">
        <ele>241</ele>
        <time>2021-09-02T07:40:31Z</time>
      </trkpt>
      <trkpt lat="44.35183" lon="2.06506">
        <ele>245</ele>
        <time>2021-09-02T07:40:49Z</time>
      </trkpt>
      <trkpt lat="44.3515" lon="2.0673">
        <ele>254</ele>
        <time>2021-09-02T07:41:20Z</time>
      </trkpt>
      <trkpt lat="44.35148" lon="2.06775">
        <ele>255</ele>
        <time>2021-09-02T07:41:27Z</time>
      </trkpt>
      <trkpt lat="44.35154" lon="2.06819">
        <ele>256</ele>
        <time>2021-09-02T07:41:34Z</time>
      </trkpt>
      <trkpt lat="44.35188" lon="2.06966">
        <ele>268</ele>
        <time>2021-09-02T07:42:05Z</time>
      </trkpt>
      <trkpt lat="44.35201" lon="2.07013">
        <ele>270</ele>
        <time>2021-09-02T07:42:15Z</time>
      </trkpt>
      <trkpt lat="44.35232" lon="2.07073">
        <ele>274</ele>
        <time>2021-09-02T07:42:29Z</time>
      </trkpt>
      <trkpt lat="44.35264" lon="2.07107">
        <ele>277</ele>
        <time>2021-09-02T07:42:39Z</time>
      </trkpt>
      <trkpt lat="44.35299" lon="2.07129">
        <ele>274</ele>
        <time>2021-09-02T07:42:49Z</time>
      </trkpt>
      <trkpt lat="44.35346" lon="2.07146">
        <ele>276</ele>
        <time>2021-09-02T07:43:01Z</time>
      </trkpt>
      <trkpt lat="44.35352" lon="2.07148">
        <ele>275</ele>
        <time>2021-09-02T07:43:03Z</time>
      </trkpt>
      <trkpt lat="44.35357" lon="2.0715">
        <ele>273</ele>
        <time>2021-09-02T07:43:05Z</time>
      </trkpt>
      <trkpt lat="44.3537" lon="2.07157">
        <ele>270</ele>
        <time>2021-09-02T07:43:09Z</time>
      </trkpt>
      <trkpt lat="44.35384" lon="2.07167">
        <ele>261</ele>
        <time>2021-09-02T07:43:14Z</time>
      </trkpt>
      <trkpt lat="44.35399" lon="2.07177">
        <ele>256</ele>
        <time>2021-09-02T07:43:20Z</time>
      </trkpt>
      <trkpt lat="44.35433" lon="2.0719">
        <ele>248</ele>
        <time>2021-09-02T07:43:28Z</time>
      </trkpt>
      <trkpt lat="44.35443" lon="2.07198">
        <ele>246</ele>
        <time>2021-09-02T07:43:31Z</time>
      </trkpt>
      <trkpt lat="44.35462" lon="2.07214">
        <ele>242</ele>
        <time>2021-09-02T07:43:38Z</time>
      </trkpt>
      <trkpt lat="44.35473" lon="2.07219">
        <ele>241</ele>
        <time>2021-09-02T07:43:41Z</time>
      </trkpt>
      <trkpt lat="44.35492" lon="2.07225">
        <ele>243</ele>
        <time>2021-09-02T07:43:45Z</time>
      </trkpt>
      <trkpt lat="44.35502" lon="2.07233">
        <ele>248</ele>
        <time>2021-09-02T07:43:48Z</time>
      </trkpt>
      <trkpt lat="44.35511" lon="2.07239">
        <ele>248</ele>
        <time>2021-09-02T07:43:50Z</time>
      </trkpt>
      <trkpt lat="44.35518" lon="2.07243">
        <ele>245</ele>
        <time>2021-09-02T07:43:52Z</time>
      </trkpt>
      <trkpt lat="44.35526" lon="2.07247">
        <ele>243</ele>
        <time>2021-09-02T07:43:55Z</time>
      </trkpt>
      <trkpt lat="44.35536" lon="2.07253">
        <ele>237</ele>
        <time>2021-09-02T07:43:58Z</time>
      </trkpt>
      <trkpt lat="44.35547" lon="2.07259">
        <ele>234</ele>
        <time>2021-09-02T07:44:01Z</time>
      </trkpt>
      <trkpt lat="44.35578" lon="2.07277">
        <ele>227</ele>
        <time>2021-09-02T07:44:10Z</time>
      </trkpt>
      <trkpt lat="44.35591" lon="2.07282">
        <ele>227</ele>
        <time>2021-09-02T07:44:13Z</time>
      </trkpt>
      <trkpt lat="44.35606" lon="2.07286">
        <ele>231</ele>
        <time>2021-09-02T07:44:16Z</time>
      </trkpt>
      <trkpt lat="44.35626" lon="2.07293">
        <ele>234</ele>
        <time>2021-09-02T07:44:20Z</time>
      </trkpt>
      <trkpt lat="44.35709" lon="2.07297">
        <ele>237</ele>
        <time>2021-09-02T07:44:41Z</time>
      </trkpt>
      <trkpt lat="44.35731" lon="2.07293">
        <ele>235</ele>
        <time>2021-09-02T07:44:47Z</time>
      </trkpt>
      <trkpt lat="44.35784" lon="2.07333">
        <ele>237</ele>
        <time>2021-09-02T07:45:04Z</time>
      </trkpt>
      <trkpt lat="44.35793" lon="2.07344">
        <ele>239</ele>
        <time>2021-09-02T07:45:06Z</time>
      </trkpt>
      <trkpt lat="44.35801" lon="2.07354">
        <ele>241</ele>
        <time>2021-09-02T07:45:08Z</time>
      </trkpt>
      <trkpt lat="44.3581" lon="2.07364">
        <ele>244</ele>
        <time>2021-09-02T07:45:10Z</time>
      </trkpt>
      <trkpt lat="44.35816" lon="2.07374">
        <ele>247</ele>
        <time>2021-09-02T07:45:12Z</time>
      </trkpt>
      <trkpt lat="44.35821" lon="2.07384">
        <ele>248</ele>
        <time>2021-09-02T07:45:14Z</time>
      </trkpt>
      <trkpt lat="44.35826" lon="2.07394">
        <ele>250</ele>
        <time>2021-09-02T07:45:16Z</time>
      </trkpt>
      <trkpt lat="44.35839" lon="2.0742">
        <ele>248</ele>
        <time>2021-09-02T07:45:21Z</time>
      </trkpt>
      <trkpt lat="44.35843" lon="2.07453">
        <ele>250</ele>
        <time>2021-09-02T07:45:27Z</time>
      </trkpt>
      <trkpt lat="44.35838" lon="2.07485">
        <ele>257</ele>
        <time>2021-09-02T07:45:32Z</time>
      </trkpt>
      <trkpt lat="44.35828" lon="2.07518">
        <ele>260</ele>
        <time>2021-09-02T07:45:38Z</time>
      </trkpt>
      <trkpt lat="44.35798" lon="2.0758">
        <ele>265</ele>
        <time>2021-09-02T07:45:51Z</time>
      </trkpt>
      <trkpt lat="44.35793" lon="2.0759">
        <ele>265</ele>
        <time>2021-09-02T07:45:53Z</time>
      </trkpt>
      <trkpt lat="44.35785" lon="2.07609">
        <ele>265</ele>
        <time>2021-09-02T07:45:57Z</time>
      </trkpt>
      <trkpt lat="44.35742" lon="2.07687">
        <ele>269</ele>
        <time>2021-09-02T07:46:15Z</time>
      </trkpt>
      <trkpt lat="44.35736" lon="2.07694">
        <ele>269</ele>
        <time>2021-09-02T07:46:17Z</time>
      </trkpt>
      <trkpt lat="44.3571" lon="2.0773">
        <ele>272</ele>
        <time>2021-09-02T07:46:27Z</time>
      </trkpt>
      <trkpt lat="44.35692" lon="2.07771">
        <ele>276</ele>
        <time>2021-09-02T07:46:35Z</time>
      </trkpt>
      <trkpt lat="44.35686" lon="2.07813">
        <ele>275</ele>
        <time>2021-09-02T07:46:43Z</time>
      </trkpt>
      <trkpt lat="44.35688" lon="2.07833">
        <ele>275</ele>
        <time>2021-09-02T07:46:47Z</time>
      </trkpt>
      <trkpt lat="44.35709" lon="2.07911">
        <ele>275</ele>
        <time>2021-09-02T07:47:03Z</time>
      </trkpt>
      <trkpt lat="44.35726" lon="2.07948">
        <ele>275</ele>
        <time>2021-09-02T07:47:11Z</time>
      </trkpt>
      <trkpt lat="44.35728" lon="2.07956">
        <ele>275</ele>
        <time>2021-09-02T07:47:13Z</time>
      </trkpt>
      <trkpt lat="44.35732" lon="2.07963">
        <ele>276</ele>
        <time>2021-09-02T07:47:15Z</time>
      </trkpt>
      <trkpt lat="44.35752" lon="2.07992">
        <ele>276</ele>
        <time>2021-09-02T07:47:23Z</time>
      </trkpt>
      <trkpt lat="44.35792" lon="2.08029">
        <ele>281</ele>
        <time>2021-09-02T07:47:34Z</time>
      </trkpt>
      <trkpt lat="44.35842" lon="2.0808">
        <ele>290</ele>
        <time>2021-09-02T07:47:49Z</time>
      </trkpt>
      <trkpt lat="44.35847" lon="2.08087">
        <ele>291</ele>
        <time>2021-09-02T07:47:51Z</time>
      </trkpt>
      <trkpt lat="44.35851" lon="2.08094">
        <ele>291</ele>
        <time>2021-09-02T07:47:53Z</time>
      </trkpt>
      <trkpt lat="44.35856" lon="2.08099">
        <ele>293</ele>
        <time>2021-09-02T07:47:55Z</time>
      </trkpt>
      <trkpt lat="44.35866" lon="2.08112">
        <ele>295</ele>
        <time>2021-09-02T07:47:59Z</time>
      </trkpt>
      <trkpt lat="44.35869" lon="2.08118">
        <ele>296</ele>
        <time>2021-09-02T07:48:01Z</time>
      </trkpt>
      <trkpt lat="44.35873" lon="2.08127">
        <ele>296</ele>
        <time>2021-09-02T07:48:04Z</time>
      </trkpt>
      <trkpt lat="44.35883" lon="2.08147">
        <ele>295</ele>
        <time>2021-09-02T07:48:08Z</time>
      </trkpt>
      <trkpt lat="44.35957" lon="2.08223">
        <ele>297</ele>
        <time>2021-09-02T07:48:32Z</time>
      </trkpt>
      <trkpt lat="44.35964" lon="2.08236">
        <ele>298</ele>
        <time>2021-09-02T07:48:36Z</time>
      </trkpt>
      <trkpt lat="44.35978" lon="2.08254">
        <ele>299</ele>
        <time>2021-09-02T07:48:42Z</time>
      </trkpt>
      <trkpt lat="44.35991" lon="2.08268">
        <ele>301</ele>
        <time>2021-09-02T07:48:49Z</time>
      </trkpt>
      <trkpt lat="44.35996" lon="2.08273">
        <ele>302</ele>
        <time>2021-09-02T07:50:17Z</time>
      </trkpt>
      <trkpt lat="44.36011" lon="2.08289">
        <ele>299</ele>
        <time>2021-09-02T07:50:31Z</time>
      </trkpt>
      <trkpt lat="44.36016" lon="2.08291">
        <ele>297</ele>
        <time>2021-09-02T07:50:33Z</time>
      </trkpt>
      <trkpt lat="44.36038" lon="2.08294">
        <ele>289</ele>
        <time>2021-09-02T07:50:43Z</time>
      </trkpt>
      <trkpt lat="44.36048" lon="2.08285">
        <ele>287</ele>
        <time>2021-09-02T07:50:47Z</time>
      </trkpt>
      <trkpt lat="44.36055" lon="2.08277">
        <ele>286</ele>
        <time>2021-09-02T07:50:50Z</time>
      </trkpt>
      <trkpt lat="44.36106" lon="2.08204">
        <ele>279</ele>
        <time>2021-09-02T07:51:12Z</time>
      </trkpt>
      <trkpt lat="44.36119" lon="2.0819">
        <ele>278</ele>
        <time>2021-09-02T07:51:16Z</time>
      </trkpt>
      <trkpt lat="44.36135" lon="2.08182">
        <ele>278</ele>
        <time>2021-09-02T07:51:20Z</time>
      </trkpt>
      <trkpt lat="44.36158" lon="2.08176">
        <ele>279</ele>
        <time>2021-09-02T07:51:26Z</time>
      </trkpt>
      <trkpt lat="44.36179" lon="2.08177">
        <ele>280</ele>
        <time>2021-09-02T07:51:31Z</time>
      </trkpt>
      <trkpt lat="44.36197" lon="2.08182">
        <ele>280</ele>
        <time>2021-09-02T07:51:37Z</time>
      </trkpt>
      <trkpt lat="44.36221" lon="2.08201">
        <ele>283</ele>
        <time>2021-09-02T07:51:44Z</time>
      </trkpt>
      <trkpt lat="44.36238" lon="2.08226">
        <ele>287</ele>
        <time>2021-09-02T07:51:50Z</time>
      </trkpt>
      <trkpt lat="44.36247" lon="2.08247">
        <ele>290</ele>
        <time>2021-09-02T07:51:54Z</time>
      </trkpt>
      <trkpt lat="44.36252" lon="2.08269">
        <ele>292</ele>
        <time>2021-09-02T07:51:58Z</time>
      </trkpt>
      <trkpt lat="44.36262" lon="2.08295">
        <ele>291</ele>
        <time>2021-09-02T07:52:02Z</time>
      </trkpt>
      <trkpt lat="44.36286" lon="2.08435">
        <ele>289</ele>
        <time>2021-09-02T07:52:24Z</time>
      </trkpt>
      <trkpt lat="44.36278" lon="2.08659">
        <ele>294</ele>
        <time>2021-09-02T07:52:55Z</time>
      </trkpt>
      <trkpt lat="44.36279" lon="2.08738">
        <ele>296</ele>
        <time>2021-09-02T07:53:06Z</time>
      </trkpt>
      <trkpt lat="44.36283" lon="2.08754">
        <ele>295</ele>
        <time>2021-09-02T07:53:09Z</time>
      </trkpt>
      <trkpt lat="44.36286" lon="2.08772">
        <ele>295</ele>
        <time>2021-09-02T07:53:12Z</time>
      </trkpt>
      <trkpt lat="44.36292" lon="2.08799">
        <ele>295</ele>
        <time>2021-09-02T07:53:16Z</time>
      </trkpt>
      <trkpt lat="44.36294" lon="2.08811">
        <ele>295</ele>
        <time>2021-09-02T07:53:18Z</time>
      </trkpt>
      <trkpt lat="44.3634" lon="2.0893">
        <ele>294</ele>
        <time>2021-09-02T07:53:39Z</time>
      </trkpt>
      <trkpt lat="44.36348" lon="2.08948">
        <ele>293</ele>
        <time>2021-09-02T07:53:42Z</time>
      </trkpt>
      <trkpt lat="44.36376" lon="2.09073">
        <ele>290</ele>
        <time>2021-09-02T07:54:02Z</time>
      </trkpt>
      <trkpt lat="44.36378" lon="2.09098">
        <ele>291</ele>
        <time>2021-09-02T07:54:06Z</time>
      </trkpt>
      <trkpt lat="44.36377" lon="2.09123">
        <ele>292</ele>
        <time>2021-09-02T07:54:10Z</time>
      </trkpt>
      <trkpt lat="44.36368" lon="2.09154">
        <ele>293</ele>
        <time>2021-09-02T07:54:15Z</time>
      </trkpt>
      <trkpt lat="44.36357" lon="2.09181">
        <ele>293</ele>
        <time>2021-09-02T07:54:20Z</time>
      </trkpt>
      <trkpt lat="44.36339" lon="2.09258">
        <ele>289</ele>
        <time>2021-09-02T07:54:33Z</time>
      </trkpt>
      <trkpt lat="44.36332" lon="2.09281">
        <ele>288</ele>
        <time>2021-09-02T07:54:37Z</time>
      </trkpt>
      <trkpt lat="44.36251" lon="2.09445">
        <ele>284</ele>
        <time>2021-09-02T07:55:09Z</time>
      </trkpt>
      <trkpt lat="44.36241" lon="2.09466">
        <ele>285</ele>
        <time>2021-09-02T07:55:13Z</time>
      </trkpt>
      <trkpt lat="44.36239" lon="2.09478">
        <ele>285</ele>
        <time>2021-09-02T07:55:15Z</time>
      </trkpt>
      <trkpt lat="44.36236" lon="2.09495">
        <ele>286</ele>
        <time>2021-09-02T07:55:19Z</time>
      </trkpt>
      <trkpt lat="44.36238" lon="2.09485">
        <ele>287</ele>
        <time>2021-09-02T07:56:02Z</time>
      </trkpt>
      <trkpt lat="44.36243" lon="2.09455">
        <ele>287</ele>
        <time>2021-09-02T07:56:08Z</time>
      </trkpt>
      <trkpt lat="44.36244" lon="2.09456">
        <ele>289</ele>
        <time>2021-09-02T07:56:15Z</time>
      </trkpt>
      <trkpt lat="44.36241" lon="2.09473">
        <ele>290</ele>
        <time>2021-09-02T07:56:19Z</time>
      </trkpt>
      <trkpt lat="44.3624" lon="2.09487">
        <ele>294</ele>
        <time>2021-09-02T07:56:23Z</time>
      </trkpt>
      <trkpt lat="44.36239" lon="2.09495">
        <ele>294</ele>
        <time>2021-09-02T07:56:25Z</time>
      </trkpt>
      <trkpt lat="44.36246" lon="2.09524">
        <ele>295</ele>
        <time>2021-09-02T07:56:34Z</time>
      </trkpt>
      <trkpt lat="44.36264" lon="2.09577">
        <ele>297</ele>
        <time>2021-09-02T07:56:46Z</time>
      </trkpt>
      <trkpt lat="44.36267" lon="2.09585">
        <ele>298</ele>
        <time>2021-09-02T07:56:48Z</time>
      </trkpt>
      <trkpt lat="44.3629" lon="2.09611">
        <ele>304</ele>
        <time>2021-09-02T07:56:56Z</time>
      </trkpt>
      <trkpt lat="44.36312" lon="2.09634">
        <ele>303</ele>
        <time>2021-09-02T07:57:03Z</time>
      </trkpt>
      <trkpt lat="44.36323" lon="2.09651">
        <ele>299</ele>
        <time>2021-09-02T07:57:07Z</time>
      </trkpt>
      <trkpt lat="44.36343" lon="2.09696">
        <ele>298</ele>
        <time>2021-09-02T07:57:17Z</time>
      </trkpt>
      <trkpt lat="44.36349" lon="2.09715">
        <ele>298</ele>
        <time>2021-09-02T07:57:21Z</time>
      </trkpt>
      <trkpt lat="44.36352" lon="2.09724">
        <ele>298</ele>
        <time>2021-09-02T07:57:23Z</time>
      </trkpt>
      <trkpt lat="44.3637" lon="2.09761">
        <ele>297</ele>
        <time>2021-09-02T07:57:31Z</time>
      </trkpt>
      <trkpt lat="44.36372" lon="2.0977">
        <ele>297</ele>
        <time>2021-09-02T07:57:33Z</time>
      </trkpt>
      <trkpt lat="44.36378" lon="2.09778">
        <ele>297</ele>
        <time>2021-09-02T07:57:35Z</time>
      </trkpt>
      <trkpt lat="44.36382" lon="2.09788">
        <ele>297</ele>
        <time>2021-09-02T07:57:37Z</time>
      </trkpt>
      <trkpt lat="44.36394" lon="2.09813">
        <ele>296</ele>
        <time>2021-09-02T07:57:42Z</time>
      </trkpt>
      <trkpt lat="44.36397" lon="2.09832">
        <ele>295</ele>
        <time>2021-09-02T07:57:46Z</time>
      </trkpt>
      <trkpt lat="44.36405" lon="2.09848">
        <ele>295</ele>
        <time>2021-09-02T07:57:49Z</time>
      </trkpt>
      <trkpt lat="44.36415" lon="2.09864">
        <ele>294</ele>
        <time>2021-09-02T07:57:52Z</time>
      </trkpt>
      <trkpt lat="44.3644" lon="2.09921">
        <ele>292</ele>
        <time>2021-09-02T07:58:03Z</time>
      </trkpt>
      <trkpt lat="44.36485" lon="2.10079">
        <ele>291</ele>
        <time>2021-09-02T07:58:33Z</time>
      </trkpt>
      <trkpt lat="44.36494" lon="2.10127">
        <ele>292</ele>
        <time>2021-09-02T07:58:42Z</time>
      </trkpt>
      <trkpt lat="44.36493" lon="2.10168">
        <ele>294</ele>
        <time>2021-09-02T07:58:48Z</time>
      </trkpt>
      <trkpt lat="44.36491" lon="2.10188">
        <ele>295</ele>
        <time>2021-09-02T07:58:51Z</time>
      </trkpt>
      <trkpt lat="44.36474" lon="2.10239">
        <ele>292</ele>
        <time>2021-09-02T07:59:00Z</time>
      </trkpt>
      <trkpt lat="44.36455" lon="2.10274">
        <ele>288</ele>
        <time>2021-09-02T07:59:08Z</time>
      </trkpt>
      <trkpt lat="44.36441" lon="2.1029">
        <ele>288</ele>
        <time>2021-09-02T07:59:13Z</time>
      </trkpt>
      <trkpt lat="44.36425" lon="2.10299">
        <ele>288</ele>
        <time>2021-09-02T07:59:17Z</time>
      </trkpt>
      <trkpt lat="44.36403" lon="2.10302">
        <ele>288</ele>
        <time>2021-09-02T07:59:22Z</time>
      </trkpt>
      <trkpt lat="44.36334" lon="2.1029">
        <ele>294</ele>
        <time>2021-09-02T07:59:39Z</time>
      </trkpt>
      <trkpt lat="44.36285" lon="2.10274">
        <ele>296</ele>
        <time>2021-09-02T07:59:50Z</time>
      </trkpt>
      <trkpt lat="44.36167" lon="2.10261">
        <ele>299</ele>
        <time>2021-09-02T08:00:21Z</time>
      </trkpt>
      <trkpt lat="44.36132" lon="2.10255">
        <ele>305</ele>
        <time>2021-09-02T08:00:29Z</time>
      </trkpt>
      <trkpt lat="44.36069" lon="2.10269">
        <ele>305</ele>
        <time>2021-09-02T08:00:45Z</time>
      </trkpt>
      <trkpt lat="44.3603" lon="2.10292">
        <ele>308</ele>
        <time>2021-09-02T08:00:55Z</time>
      </trkpt>
      <trkpt lat="44.36016" lon="2.10314">
        <ele>310</ele>
        <time>2021-09-02T08:00:59Z</time>
      </trkpt>
      <trkpt lat="44.35968" lon="2.10425">
        <ele>314</ele>
        <time>2021-09-02T08:01:18Z</time>
      </trkpt>
      <trkpt lat="44.35947" lon="2.10449">
        <ele>312</ele>
        <time>2021-09-02T08:01:24Z</time>
      </trkpt>
      <trkpt lat="44.35936" lon="2.10459">
        <ele>312</ele>
        <time>2021-09-02T08:01:27Z</time>
      </trkpt>
      <trkpt lat="44.35918" lon="2.10488">
        <ele>314</ele>
        <time>2021-09-02T08:01:33Z</time>
      </trkpt>
      <trkpt lat="44.35902" lon="2.10528">
        <ele>319</ele>
        <time>2021-09-02T08:01:40Z</time>
      </trkpt>
      <trkpt lat="44.35899" lon="2.10541">
        <ele>320</ele>
        <time>2021-09-02T08:01:42Z</time>
      </trkpt>
      <trkpt lat="44.359" lon="2.1058">
        <ele>319</ele>
        <time>2021-09-02T08:01:48Z</time>
      </trkpt>
      <trkpt lat="44.35908" lon="2.10612">
        <ele>313</ele>
        <time>2021-09-02T08:01:53Z</time>
      </trkpt>
      <trkpt lat="44.35938" lon="2.10669">
        <ele>311</ele>
        <time>2021-09-02T08:02:04Z</time>
      </trkpt>
      <trkpt lat="44.35951" lon="2.10683">
        <ele>312</ele>
        <time>2021-09-02T08:02:08Z</time>
      </trkpt>
      <trkpt lat="44.36036" lon="2.10749">
        <ele>311</ele>
        <time>2021-09-02T08:02:30Z</time>
      </trkpt>
      <trkpt lat="44.36054" lon="2.10771">
        <ele>309</ele>
        <time>2021-09-02T08:02:36Z</time>
      </trkpt>
      <trkpt lat="44.36096" lon="2.1079">
        <ele>308</ele>
        <time>2021-09-02T08:02:46Z</time>
      </trkpt>
      <trkpt lat="44.36141" lon="2.10806">
        <ele>307</ele>
        <time>2021-09-02T08:02:56Z</time>
      </trkpt>
      <trkpt lat="44.36181" lon="2.10837">
        <ele>308</ele>
        <time>2021-09-02T08:03:06Z</time>
      </trkpt>
      <trkpt lat="44.36233" lon="2.10913">
        <ele>310</ele>
        <time>2021-09-02T08:03:23Z</time>
      </trkpt>
      <trkpt lat="44.36238" lon="2.10921">
        <ele>310</ele>
        <time>2021-09-02T08:03:25Z</time>
      </trkpt>
      <trkpt lat="44.36272" lon="2.10977">
        <ele>306</ele>
        <time>2021-09-02T08:03:37Z</time>
      </trkpt>
      <trkpt lat="44.36284" lon="2.10991">
        <ele>301</ele>
        <time>2021-09-02T08:03:41Z</time>
      </trkpt>
      <trkpt lat="44.36288" lon="2.10998">
        <ele>301</ele>
        <time>2021-09-02T08:03:43Z</time>
      </trkpt>
      <trkpt lat="44.36295" lon="2.11014">
        <ele>301</ele>
        <time>2021-09-02T08:03:47Z</time>
      </trkpt>
      <trkpt lat="44.363" lon="2.11031">
        <ele>302</ele>
        <time>2021-09-02T08:03:50Z</time>
      </trkpt>
      <trkpt lat="44.36306" lon="2.11051">
        <ele>304</ele>
        <time>2021-09-02T08:03:53Z</time>
      </trkpt>
      <trkpt lat="44.36319" lon="2.11094">
        <ele>305</ele>
        <time>2021-09-02T08:04:01Z</time>
      </trkpt>
      <trkpt lat="44.36322" lon="2.11102">
        <ele>306</ele>
        <time>2021-09-02T08:04:03Z</time>
      </trkpt>
      <trkpt lat="44.36323" lon="2.11128">
        <ele>306</ele>
        <time>2021-09-02T08:04:07Z</time>
      </trkpt>
      <trkpt lat="44.36317" lon="2.11174">
        <ele>310</ele>
        <time>2021-09-02T08:04:14Z</time>
      </trkpt>
      <trkpt lat="44.36296" lon="2.11228">
        <ele>309</ele>
        <time>2021-09-02T08:04:24Z</time>
      </trkpt>
      <trkpt lat="44.36281" lon="2.1125">
        <ele>309</ele>
        <time>2021-09-02T08:04:30Z</time>
      </trkpt>
      <trkpt lat="44.36263" lon="2.11266">
        <ele>308</ele>
        <time>2021-09-02T08:04:36Z</time>
      </trkpt>
      <trkpt lat="44.36236" lon="2.11286">
        <ele>304</ele>
        <time>2021-09-02T08:04:44Z</time>
      </trkpt>
      <trkpt lat="44.36214" lon="2.11297">
        <ele>305</ele>
        <time>2021-09-02T08:04:50Z</time>
      </trkpt>
      <trkpt lat="44.36208" lon="2.113">
        <ele>305</ele>
        <time>2021-09-02T08:04:52Z</time>
      </trkpt>
      <trkpt lat="44.36198" lon="2.11315">
        <ele>305</ele>
        <time>2021-09-02T08:04:56Z</time>
      </trkpt>
      <trkpt lat="44.36193" lon="2.11324">
        <ele>307</ele>
        <time>2021-09-02T08:04:58Z</time>
      </trkpt>
      <trkpt lat="44.36189" lon="2.11333">
        <ele>308</ele>
        <time>2021-09-02T08:05:00Z</time>
      </trkpt>
      <trkpt lat="44.36187" lon="2.11353">
        <ele>313</ele>
        <time>2021-09-02T08:05:04Z</time>
      </trkpt>
      <trkpt lat="44.36191" lon="2.1137">
        <ele>314</ele>
        <time>2021-09-02T08:05:08Z</time>
      </trkpt>
      <trkpt lat="44.36193" lon="2.11376">
        <ele>316</ele>
        <time>2021-09-02T08:05:10Z</time>
      </trkpt>
      <trkpt lat="44.3622" lon="2.11416">
        <ele>320</ele>
        <time>2021-09-02T08:05:20Z</time>
      </trkpt>
      <trkpt lat="44.36222" lon="2.11427">
        <ele>319</ele>
        <time>2021-09-02T08:05:22Z</time>
      </trkpt>
      <trkpt lat="44.36223" lon="2.11438">
        <ele>318</ele>
        <time>2021-09-02T08:05:24Z</time>
      </trkpt>
      <trkpt lat="44.36173" lon="2.11531">
        <ele>324</ele>
        <time>2021-09-02T08:05:48Z</time>
      </trkpt>
      <trkpt lat="44.36169" lon="2.11537">
        <ele>323</ele>
        <time>2021-09-02T08:05:50Z</time>
      </trkpt>
      <trkpt lat="44.36166" lon="2.11544">
        <ele>323</ele>
        <time>2021-09-02T08:05:52Z</time>
      </trkpt>
      <trkpt lat="44.36164" lon="2.11551">
        <ele>323</ele>
        <time>2021-09-02T08:05:54Z</time>
      </trkpt>
      <trkpt lat="44.36135" lon="2.11601">
        <ele>325</ele>
        <time>2021-09-02T08:06:13Z</time>
      </trkpt>
      <trkpt lat="44.3609" lon="2.11689">
        <ele>335</ele>
        <time>2021-09-02T08:06:45Z</time>
      </trkpt>
      <trkpt lat="44.36056" lon="2.11774">
        <ele>337</ele>
        <time>2021-09-02T08:07:15Z</time>
      </trkpt>
      <trkpt lat="44.36046" lon="2.11803">
        <ele>338</ele>
        <time>2021-09-02T08:07:25Z</time>
      </trkpt>
      <trkpt lat="44.36045" lon="2.11816">
        <ele>338</ele>
        <time>2021-09-02T08:07:29Z</time>
      </trkpt>
      <trkpt lat="44.36043" lon="2.11823">
        <ele>338</ele>
        <time>2021-09-02T08:07:31Z</time>
      </trkpt>
      <trkpt lat="44.36041" lon="2.11858">
        <ele>341</ele>
        <time>2021-09-02T08:07:41Z</time>
      </trkpt>
      <trkpt lat="44.36031" lon="2.11882">
        <ele>344</ele>
        <time>2021-09-02T08:07:49Z</time>
      </trkpt>
      <trkpt lat="44.36005" lon="2.1192">
        <ele>347</ele>
        <time>2021-09-02T08:08:04Z</time>
      </trkpt>
      <trkpt lat="44.35997" lon="2.11923">
        <ele>348</ele>
        <time>2021-09-02T08:08:08Z</time>
      </trkpt>
      <trkpt lat="44.35974" lon="2.11933">
        <ele>351</ele>
        <time>2021-09-02T08:08:17Z</time>
      </trkpt>
      <trkpt lat="44.35953" lon="2.11945">
        <ele>350</ele>
        <time>2021-09-02T08:08:27Z</time>
      </trkpt>
      <trkpt lat="44.35913" lon="2.11988">
        <ele>351</ele>
        <time>2021-09-02T08:08:48Z</time>
      </trkpt>
      <trkpt lat="44.35867" lon="2.12068">
        <ele>361</ele>
        <time>2021-09-02T08:09:20Z</time>
      </trkpt>
      <trkpt lat="44.3586" lon="2.12081">
        <ele>363</ele>
        <time>2021-09-02T08:09:25Z</time>
      </trkpt>
      <trkpt lat="44.35857" lon="2.12096">
        <ele>367</ele>
        <time>2021-09-02T08:09:30Z</time>
      </trkpt>
      <trkpt lat="44.35852" lon="2.12111">
        <ele>370</ele>
        <time>2021-09-02T08:09:34Z</time>
      </trkpt>
      <trkpt lat="44.35853" lon="2.1212">
        <ele>371</ele>
        <time>2021-09-02T08:09:36Z</time>
      </trkpt>
      <trkpt lat="44.35851" lon="2.12127">
        <ele>373</ele>
        <time>2021-09-02T08:09:38Z</time>
      </trkpt>
      <trkpt lat="44.35851" lon="2.12134">
        <ele>373</ele>
        <time>2021-09-02T08:09:40Z</time>
      </trkpt>
      <trkpt lat="44.35848" lon="2.12142">
        <ele>374</ele>
        <time>2021-09-02T08:09:42Z</time>
      </trkpt>
      <trkpt lat="44.35843" lon="2.12158">
        <ele>375</ele>
        <time>2021-09-02T08:09:47Z</time>
      </trkpt>
      <trkpt lat="44.35848" lon="2.12189">
        <ele>379</ele>
        <time>2021-09-02T08:09:56Z</time>
      </trkpt>
      <trkpt lat="44.35845" lon="2.12195">
        <ele>380</ele>
        <time>2021-09-02T08:09:58Z</time>
      </trkpt>
      <trkpt lat="44.35835" lon="2.12225">
        <ele>381</ele>
        <time>2021-09-02T08:10:08Z</time>
      </trkpt>
      <trkpt lat="44.35821" lon="2.12261">
        <ele>382</ele>
        <time>2021-09-02T08:10:21Z</time>
      </trkpt>
      <trkpt lat="44.35767" lon="2.12337">
        <ele>381</ele>
        <time>2021-09-02T08:10:53Z</time>
      </trkpt>
      <trkpt lat="44.35749" lon="2.12354">
        <ele>383</ele>
        <time>2021-09-02T08:11:01Z</time>
      </trkpt>
      <trkpt lat="44.35744" lon="2.1236">
        <ele>382</ele>
        <time>2021-09-02T08:11:04Z</time>
      </trkpt>
      <trkpt lat="44.35727" lon="2.12364">
        <ele>380</ele>
        <time>2021-09-02T08:11:10Z</time>
      </trkpt>
      <trkpt lat="44.3571" lon="2.12362">
        <ele>379</ele>
        <time>2021-09-02T08:11:16Z</time>
      </trkpt>
      <trkpt lat="44.3569" lon="2.12352">
        <ele>378</ele>
        <time>2021-09-02T08:11:22Z</time>
      </trkpt>
      <trkpt lat="44.35677" lon="2.12336">
        <ele>376</ele>
        <time>2021-09-02T08:11:28Z</time>
      </trkpt>
      <trkpt lat="44.35666" lon="2.12308">
        <ele>373</ele>
        <time>2021-09-02T08:11:36Z</time>
      </trkpt>
      <trkpt lat="44.35655" lon="2.12277">
        <ele>369</ele>
        <time>2021-09-02T08:11:45Z</time>
      </trkpt>
      <trkpt lat="44.3565" lon="2.12271">
        <ele>369</ele>
        <time>2021-09-02T08:11:47Z</time>
      </trkpt>
      <trkpt lat="44.35645" lon="2.12265">
        <ele>369</ele>
        <time>2021-09-02T08:11:49Z</time>
      </trkpt>
      <trkpt lat="44.35636" lon="2.12258">
        <ele>369</ele>
        <time>2021-09-02T08:11:52Z</time>
      </trkpt>
      <trkpt lat="44.35614" lon="2.12253">
        <ele>372</ele>
        <time>2021-09-02T08:12:00Z</time>
      </trkpt>
      <trkpt lat="44.35594" lon="2.12258">
        <ele>378</ele>
        <time>2021-09-02T08:12:08Z</time>
      </trkpt>
      <trkpt lat="44.35576" lon="2.12268">
        <ele>379</ele>
        <time>2021-09-02T08:12:16Z</time>
      </trkpt>
      <trkpt lat="44.35563" lon="2.1228">
        <ele>379</ele>
        <time>2021-09-02T08:12:22Z</time>
      </trkpt>
      <trkpt lat="44.35556" lon="2.1229">
        <ele>380</ele>
        <time>2021-09-02T08:12:26Z</time>
      </trkpt>
      <trkpt lat="44.35552" lon="2.12301">
        <ele>382</ele>
        <time>2021-09-02T08:12:30Z</time>
      </trkpt>
      <trkpt lat="44.35542" lon="2.12398">
        <ele>391</ele>
        <time>2021-09-02T08:12:56Z</time>
      </trkpt>
      <trkpt lat="44.35541" lon="2.12428">
        <ele>394</ele>
        <time>2021-09-02T08:13:04Z</time>
      </trkpt>
      <trkpt lat="44.35539" lon="2.12435">
        <ele>395</ele>
        <time>2021-09-02T08:13:07Z</time>
      </trkpt>
      <trkpt lat="44.35531" lon="2.12471">
        <ele>399</ele>
        <time>2021-09-02T08:13:18Z</time>
      </trkpt>
      <trkpt lat="44.35528" lon="2.12478">
        <ele>399</ele>
        <time>2021-09-02T08:13:20Z</time>
      </trkpt>
      <trkpt lat="44.35497" lon="2.125">
        <ele>401</ele>
        <time>2021-09-02T08:13:33Z</time>
      </trkpt>
      <trkpt lat="44.3544" lon="2.12575">
        <ele>404</ele>
        <time>2021-09-02T08:14:05Z</time>
      </trkpt>
      <trkpt lat="44.35415" lon="2.12596">
        <ele>395</ele>
        <time>2021-09-02T08:14:17Z</time>
      </trkpt>
      <trkpt lat="44.35406" lon="2.12602">
        <ele>393</ele>
        <time>2021-09-02T08:14:21Z</time>
      </trkpt>
      <trkpt lat="44.35358" lon="2.12608">
        <ele>392</ele>
        <time>2021-09-02T08:14:40Z</time>
      </trkpt>
      <trkpt lat="44.35343" lon="2.12617">
        <ele>393</ele>
        <time>2021-09-02T08:14:47Z</time>
      </trkpt>
      <trkpt lat="44.3533" lon="2.12634">
        <ele>393</ele>
        <time>2021-09-02T08:14:54Z</time>
      </trkpt>
      <trkpt lat="44.35309" lon="2.12679">
        <ele>393</ele>
        <time>2021-09-02T08:15:10Z</time>
      </trkpt>
      <trkpt lat="44.35301" lon="2.12688">
        <ele>392</ele>
        <time>2021-09-02T08:15:14Z</time>
      </trkpt>
      <trkpt lat="44.35291" lon="2.12692">
        <ele>393</ele>
        <time>2021-09-02T08:15:18Z</time>
      </trkpt>
      <trkpt lat="44.35281" lon="2.1269">
        <ele>393</ele>
        <time>2021-09-02T08:15:22Z</time>
      </trkpt>
      <trkpt lat="44.35275" lon="2.12685">
        <ele>393</ele>
        <time>2021-09-02T08:15:25Z</time>
      </trkpt>
      <trkpt lat="44.35268" lon="2.12675">
        <ele>391</ele>
        <time>2021-09-02T08:15:29Z</time>
      </trkpt>
      <trkpt lat="44.35258" lon="2.12656">
        <ele>390</ele>
        <time>2021-09-02T08:15:35Z</time>
      </trkpt>
      <trkpt lat="44.35256" lon="2.1265">
        <ele>390</ele>
        <time>2021-09-02T08:15:37Z</time>
      </trkpt>
      <trkpt lat="44.35255" lon="2.12644">
        <ele>388</ele>
        <time>2021-09-02T08:15:39Z</time>
      </trkpt>
      <trkpt lat="44.35254" lon="2.12631">
        <ele>384</ele>
        <time>2021-09-02T08:15:43Z</time>
      </trkpt>
      <trkpt lat="44.35265" lon="2.12569">
        <ele>390</ele>
        <time>2021-09-02T08:15:59Z</time>
      </trkpt>
      <trkpt lat="44.35286" lon="2.12515">
        <ele>395</ele>
        <time>2021-09-02T08:16:16Z</time>
      </trkpt>
      <trkpt lat="44.35289" lon="2.125">
        <ele>397</ele>
        <time>2021-09-02T08:16:20Z</time>
      </trkpt>
      <trkpt lat="44.35289" lon="2.12492">
        <ele>397</ele>
        <time>2021-09-02T08:16:22Z</time>
      </trkpt>
      <trkpt lat="44.35289" lon="2.12484">
        <ele>398</ele>
        <time>2021-09-02T08:16:24Z</time>
      </trkpt>
      <trkpt lat="44.35288" lon="2.12477">
        <ele>398</ele>
        <time>2021-09-02T08:16:26Z</time>
      </trkpt>
      <trkpt lat="44.35285" lon="2.12471">
        <ele>397</ele>
        <time>2021-09-02T08:16:28Z</time>
      </trkpt>
      <trkpt lat="44.35276" lon="2.12463">
        <ele>396</ele>
        <time>2021-09-02T08:16:32Z</time>
      </trkpt>
      <trkpt lat="44.35271" lon="2.12461">
        <ele>396</ele>
        <time>2021-09-02T08:16:34Z</time>
      </trkpt>
      <trkpt lat="44.35255" lon="2.12464">
        <ele>396</ele>
        <time>2021-09-02T08:16:40Z</time>
      </trkpt>
      <trkpt lat="44.35244" lon="2.12473">
        <ele>396</ele>
        <time>2021-09-02T08:16:44Z</time>
      </trkpt>
      <trkpt lat="44.35235" lon="2.12488">
        <ele>398</ele>
        <time>2021-09-02T08:16:48Z</time>
      </trkpt>
      <trkpt lat="44.35218" lon="2.12516">
        <ele>405</ele>
        <time>2021-09-02T08:16:56Z</time>
      </trkpt>
      <trkpt lat="44.35188" lon="2.1256">
        <ele>407</ele>
        <time>2021-09-02T08:17:10Z</time>
      </trkpt>
      <trkpt lat="44.35114" lon="2.12636">
        <ele>411</ele>
        <time>2021-09-02T08:17:42Z</time>
      </trkpt>
      <trkpt lat="44.35037" lon="2.12711">
        <ele>415</ele>
        <time>2021-09-02T08:18:14Z</time>
      </trkpt>
      <trkpt lat="44.35028" lon="2.12721">
        <ele>416</ele>
        <time>2021-09-02T08:18:18Z</time>
      </trkpt>
      <trkpt lat="44.35017" lon="2.12729">
        <ele>417</ele>
        <time>2021-09-02T08:18:22Z</time>
      </trkpt>
      <trkpt lat="44.35011" lon="2.1273">
        <ele>417</ele>
        <time>2021-09-02T08:18:24Z</time>
      </trkpt>
      <trkpt lat="44.34999" lon="2.12725">
        <ele>418</ele>
        <time>2021-09-02T08:18:28Z</time>
      </trkpt>
      <trkpt lat="44.34957" lon="2.12681">
        <ele>414</ele>
        <time>2021-09-02T08:18:46Z</time>
      </trkpt>
      <trkpt lat="44.34947" lon="2.12675">
        <ele>412</ele>
        <time>2021-09-02T08:18:50Z</time>
      </trkpt>
      <trkpt lat="44.34935" lon="2.12673">
        <ele>411</ele>
        <time>2021-09-02T08:18:54Z</time>
      </trkpt>
      <trkpt lat="44.34838" lon="2.12728">
        <ele>414</ele>
        <time>2021-09-02T08:19:26Z</time>
      </trkpt>
      <trkpt lat="44.34801" lon="2.12757">
        <ele>416</ele>
        <time>2021-09-02T08:19:38Z</time>
      </trkpt>
      <trkpt lat="44.34784" lon="2.12778">
        <ele>418</ele>
        <time>2021-09-02T08:19:44Z</time>
      </trkpt>
      <trkpt lat="44.34724" lon="2.12919">
        <ele>420</ele>
        <time>2021-09-02T08:20:16Z</time>
      </trkpt>
      <trkpt lat="44.34702" lon="2.1297">
        <ele>421</ele>
        <time>2021-09-02T08:20:26Z</time>
      </trkpt>
      <trkpt lat="44.34606" lon="2.131">
        <ele>415</ele>
        <time>2021-09-02T08:20:57Z</time>
      </trkpt>
      <trkpt lat="44.34568" lon="2.13143">
        <ele>416</ele>
        <time>2021-09-02T08:21:11Z</time>
      </trkpt>
      <trkpt lat="44.34555" lon="2.13152">
        <ele>417</ele>
        <time>2021-09-02T08:21:15Z</time>
      </trkpt>
      <trkpt lat="44.34544" lon="2.13154">
        <ele>418</ele>
        <time>2021-09-02T08:21:19Z</time>
      </trkpt>
      <trkpt lat="44.34539" lon="2.13154">
        <ele>418</ele>
        <time>2021-09-02T08:21:21Z</time>
      </trkpt>
      <trkpt lat="44.34533" lon="2.13152">
        <ele>418</ele>
        <time>2021-09-02T08:21:23Z</time>
      </trkpt>
      <trkpt lat="44.34524" lon="2.13142">
        <ele>418</ele>
        <time>2021-09-02T08:21:27Z</time>
      </trkpt>
      <trkpt lat="44.34517" lon="2.13127">
        <ele>417</ele>
        <time>2021-09-02T08:21:31Z</time>
      </trkpt>
      <trkpt lat="44.34517" lon="2.13118">
        <ele>417</ele>
        <time>2021-09-02T08:21:33Z</time>
      </trkpt>
      <trkpt lat="44.34519" lon="2.13082">
        <ele>418</ele>
        <time>2021-09-02T08:21:41Z</time>
      </trkpt>
      <trkpt lat="44.34531" lon="2.1303">
        <ele>422</ele>
        <time>2021-09-02T08:21:55Z</time>
      </trkpt>
      <trkpt lat="44.34534" lon="2.13014">
        <ele>424</ele>
        <time>2021-09-02T08:21:59Z</time>
      </trkpt>
      <trkpt lat="44.34536" lon="2.12991">
        <ele>426</ele>
        <time>2021-09-02T08:22:05Z</time>
      </trkpt>
      <trkpt lat="44.34536" lon="2.12983">
        <ele>427</ele>
        <time>2021-09-02T08:22:07Z</time>
      </trkpt>
      <trkpt lat="44.34534" lon="2.12976">
        <ele>427</ele>
        <time>2021-09-02T08:22:09Z</time>
      </trkpt>
      <trkpt lat="44.34522" lon="2.12965">
        <ele>430</ele>
        <time>2021-09-02T08:22:13Z</time>
      </trkpt>
      <trkpt lat="44.34471" lon="2.12937">
        <ele>434</ele>
        <time>2021-09-02T08:22:31Z</time>
      </trkpt>
      <trkpt lat="44.3446" lon="2.12935">
        <ele>435</ele>
        <time>2021-09-02T08:22:35Z</time>
      </trkpt>
      <trkpt lat="44.3445" lon="2.12937">
        <ele>436</ele>
        <time>2021-09-02T08:22:39Z</time>
      </trkpt>
      <trkpt lat="44.34426" lon="2.1295">
        <ele>437</ele>
        <time>2021-09-02T08:22:47Z</time>
      </trkpt>
      <trkpt lat="44.34356" lon="2.13012">
        <ele>444</ele>
        <time>2021-09-02T08:23:17Z</time>
      </trkpt>
      <trkpt lat="44.34309" lon="2.1309">
        <ele>449</ele>
        <time>2021-09-02T08:23:47Z</time>
      </trkpt>
      <trkpt lat="44.34263" lon="2.13171">
        <ele>454</ele>
        <time>2021-09-02T08:24:17Z</time>
      </trkpt>
      <trkpt lat="44.3424" lon="2.13218">
        <ele>458</ele>
        <time>2021-09-02T08:24:35Z</time>
      </trkpt>
      <trkpt lat="44.34231" lon="2.13249">
        <ele>460</ele>
        <time>2021-09-02T08:24:47Z</time>
      </trkpt>
      <trkpt lat="44.34229" lon="2.13264">
        <ele>461</ele>
        <time>2021-09-02T08:24:52Z</time>
      </trkpt>
      <trkpt lat="44.34227" lon="2.13279">
        <ele>462</ele>
        <time>2021-09-02T08:24:57Z</time>
      </trkpt>
      <trkpt lat="44.34224" lon="2.13287">
        <ele>462</ele>
        <time>2021-09-02T08:25:00Z</time>
      </trkpt>
      <trkpt lat="44.3422" lon="2.13291">
        <ele>462</ele>
        <time>2021-09-02T08:25:03Z</time>
      </trkpt>
      <trkpt lat="44.34214" lon="2.13292">
        <ele>462</ele>
        <time>2021-09-02T08:26:09Z</time>
      </trkpt>
      <trkpt lat="44.3421" lon="2.13297">
        <ele>461</ele>
        <time>2021-09-02T08:26:09Z</time>
      </trkpt>
      <trkpt lat="44.342" lon="2.13304">
        <ele>459</ele>
        <time>2021-09-02T08:26:09Z</time>
      </trkpt>
      <trkpt lat="44.3414" lon="2.13347">
        <ele>457</ele>
        <time>2021-09-02T08:26:22Z</time>
      </trkpt>
      <trkpt lat="44.34128" lon="2.13358">
        <ele>455</ele>
        <time>2021-09-02T08:26:25Z</time>
      </trkpt>
      <trkpt lat="44.34085" lon="2.13392">
        <ele>454</ele>
        <time>2021-09-02T08:26:39Z</time>
      </trkpt>
      <trkpt lat="44.34064" lon="2.13397">
        <ele>454</ele>
        <time>2021-09-02T08:26:50Z</time>
      </trkpt>
      <trkpt lat="44.34061" lon="2.13403">
        <ele>453</ele>
        <time>2021-09-02T08:26:57Z</time>
      </trkpt>
      <trkpt lat="44.34058" lon="2.1341">
        <ele>453</ele>
        <time>2021-09-02T08:27:02Z</time>
      </trkpt>
      <trkpt lat="44.34055" lon="2.13404">
        <ele>451</ele>
        <time>2021-09-02T08:27:52Z</time>
      </trkpt>
      <trkpt lat="44.34051" lon="2.13408">
        <ele>449</ele>
        <time>2021-09-02T08:28:03Z</time>
      </trkpt>
      <trkpt lat="44.34041" lon="2.13414">
        <ele>450</ele>
        <time>2021-09-02T08:28:07Z</time>
      </trkpt>
      <trkpt lat="44.34037" lon="2.13419">
        <ele>452</ele>
        <time>2021-09-02T08:28:10Z</time>
      </trkpt>
      <trkpt lat="44.34039" lon="2.13426">
        <ele>453</ele>
        <time>2021-09-02T08:28:13Z</time>
      </trkpt>
      <trkpt lat="44.3404" lon="2.13435">
        <ele>453</ele>
        <time>2021-09-02T08:28:16Z</time>
      </trkpt>
      <trkpt lat="44.3404" lon="2.13444">
        <ele>453</ele>
        <time>2021-09-02T08:28:19Z</time>
      </trkpt>
      <trkpt lat="44.34039" lon="2.13454">
        <ele>453</ele>
        <time>2021-09-02T08:28:22Z</time>
      </trkpt>
      <trkpt lat="44.34042" lon="2.135">
        <ele>455</ele>
        <time>2021-09-02T08:28:40Z</time>
      </trkpt>
      <trkpt lat="44.34042" lon="2.13508">
        <ele>456</ele>
        <time>2021-09-02T08:28:43Z</time>
      </trkpt>
      <trkpt lat="44.34042" lon="2.13516">
        <ele>456</ele>
        <time>2021-09-02T08:28:46Z</time>
      </trkpt>
      <trkpt lat="44.34043" lon="2.13525">
        <ele>456</ele>
        <time>2021-09-02T08:28:49Z</time>
      </trkpt>
      <trkpt lat="44.34055" lon="2.13581">
        <ele>456</ele>
        <time>2021-09-02T08:29:10Z</time>
      </trkpt>
      <trkpt lat="44.34084" lon="2.13598">
        <ele>459</ele>
        <time>2021-09-02T08:29:25Z</time>
      </trkpt>
      <trkpt lat="44.34089" lon="2.13599">
        <ele>460</ele>
        <time>2021-09-02T08:29:28Z</time>
      </trkpt>
      <trkpt lat="44.34095" lon="2.13602">
        <ele>461</ele>
        <time>2021-09-02T08:29:31Z</time>
      </trkpt>
      <trkpt lat="44.34115" lon="2.13614">
        <ele>463</ele>
        <time>2021-09-02T08:29:43Z</time>
      </trkpt>
      <trkpt lat="44.34121" lon="2.13618">
        <ele>464</ele>
        <time>2021-09-02T08:29:46Z</time>
      </trkpt>
      <trkpt lat="44.34127" lon="2.13623">
        <ele>465</ele>
        <time>2021-09-02T08:29:49Z</time>
      </trkpt>
      <trkpt lat="44.34131" lon="2.13626">
        <ele>465</ele>
        <time>2021-09-02T08:29:51Z</time>
      </trkpt>
      <trkpt lat="44.34135" lon="2.13631">
        <ele>465</ele>
        <time>2021-09-02T08:29:53Z</time>
      </trkpt>
      <trkpt lat="44.34141" lon="2.13636">
        <ele>465</ele>
        <time>2021-09-02T08:29:56Z</time>
      </trkpt>
      <trkpt lat="44.34172" lon="2.13657">
        <ele>466</ele>
        <time>2021-09-02T08:30:14Z</time>
      </trkpt>
      <trkpt lat="44.34176" lon="2.1366">
        <ele>467</ele>
        <time>2021-09-02T08:30:17Z</time>
      </trkpt>
      <trkpt lat="44.34179" lon="2.13667">
        <ele>468</ele>
        <time>2021-09-02T08:30:21Z</time>
      </trkpt>
      <trkpt lat="44.34182" lon="2.13674">
        <ele>469</ele>
        <time>2021-09-02T08:30:48Z</time>
      </trkpt>
      <trkpt lat="44.34176" lon="2.13784">
        <ele>478</ele>
        <time>2021-09-02T08:31:21Z</time>
      </trkpt>
      <trkpt lat="44.34176" lon="2.13801">
        <ele>479</ele>
        <time>2021-09-02T08:31:27Z</time>
      </trkpt>
      <trkpt lat="44.34176" lon="2.13808">
        <ele>480</ele>
        <time>2021-09-02T08:31:31Z</time>
      </trkpt>
      <trkpt lat="44.34176" lon="2.13815">
        <ele>481</ele>
        <time>2021-09-02T08:31:33Z</time>
      </trkpt>
      <trkpt lat="44.34177" lon="2.13823">
        <ele>482</ele>
        <time>2021-09-02T08:31:37Z</time>
      </trkpt>
      <trkpt lat="44.34179" lon="2.13851">
        <ele>484</ele>
        <time>2021-09-02T08:31:48Z</time>
      </trkpt>
      <trkpt lat="44.34178" lon="2.13858">
        <ele>484</ele>
        <time>2021-09-02T08:31:51Z</time>
      </trkpt>
      <trkpt lat="44.34178" lon="2.13868">
        <ele>483</ele>
        <time>2021-09-02T08:31:55Z</time>
      </trkpt>
      <trkpt lat="44.34172" lon="2.13922">
        <ele>487</ele>
        <time>2021-09-02T08:32:12Z</time>
      </trkpt>
      <trkpt lat="44.34178" lon="2.13952">
        <ele>490</ele>
        <time>2021-09-02T08:32:24Z</time>
      </trkpt>
      <trkpt lat="44.3418" lon="2.13957">
        <ele>490</ele>
        <time>2021-09-02T08:32:27Z</time>
      </trkpt>
      <trkpt lat="44.34183" lon="2.13963">
        <ele>491</ele>
        <time>2021-09-02T08:32:30Z</time>
      </trkpt>
      <trkpt lat="44.34193" lon="2.13989">
        <ele>491</ele>
        <time>2021-09-02T08:32:42Z</time>
      </trkpt>
      <trkpt lat="44.34204" lon="2.1407">
        <ele>498</ele>
        <time>2021-09-02T08:33:12Z</time>
      </trkpt>
      <trkpt lat="44.34205" lon="2.14097">
        <ele>501</ele>
        <time>2021-09-02T08:33:22Z</time>
      </trkpt>
      <trkpt lat="44.34202" lon="2.14103">
        <ele>502</ele>
        <time>2021-09-02T08:33:27Z</time>
      </trkpt>
      <trkpt lat="44.34185" lon="2.14115">
        <ele>501</ele>
        <time>2021-09-02T08:33:36Z</time>
      </trkpt>
      <trkpt lat="44.34165" lon="2.14134">
        <ele>501</ele>
        <time>2021-09-02T08:33:47Z</time>
      </trkpt>
      <trkpt lat="44.34136" lon="2.14151">
        <ele>504</ele>
        <time>2021-09-02T08:34:01Z</time>
      </trkpt>
      <trkpt lat="44.34077" lon="2.14159">
        <ele>504</ele>
        <time>2021-09-02T08:34:30Z</time>
      </trkpt>
      <trkpt lat="44.34061" lon="2.14168">
        <ele>505</ele>
        <time>2021-09-02T08:34:38Z</time>
      </trkpt>
      <trkpt lat="44.34044" lon="2.14176">
        <ele>507</ele>
        <time>2021-09-02T08:34:47Z</time>
      </trkpt>
      <trkpt lat="44.34038" lon="2.14178">
        <ele>508</ele>
        <time>2021-09-02T08:34:50Z</time>
      </trkpt>
      <trkpt lat="44.34031" lon="2.1418">
        <ele>509</ele>
        <time>2021-09-02T08:34:53Z</time>
      </trkpt>
      <trkpt lat="44.34014" lon="2.14181">
        <ele>511</ele>
        <time>2021-09-02T08:35:03Z</time>
      </trkpt>
      <trkpt lat="44.33982" lon="2.1417">
        <ele>516</ele>
        <time>2021-09-02T08:35:21Z</time>
      </trkpt>
      <trkpt lat="44.33974" lon="2.14163">
        <ele>517</ele>
        <time>2021-09-02T08:35:27Z</time>
      </trkpt>
      <trkpt lat="44.33964" lon="2.14157">
        <ele>520</ele>
        <time>2021-09-02T08:35:33Z</time>
      </trkpt>
      <trkpt lat="44.33959" lon="2.14154">
        <ele>521</ele>
        <time>2021-09-02T08:35:36Z</time>
      </trkpt>
      <trkpt lat="44.33953" lon="2.14155">
        <ele>523</ele>
        <time>2021-09-02T08:35:40Z</time>
      </trkpt>
      <trkpt lat="44.33937" lon="2.14161">
        <ele>526</ele>
        <time>2021-09-02T08:35:49Z</time>
      </trkpt>
      <trkpt lat="44.33931" lon="2.14166">
        <ele>526</ele>
        <time>2021-09-02T08:35:52Z</time>
      </trkpt>
      <trkpt lat="44.33926" lon="2.14171">
        <ele>527</ele>
        <time>2021-09-02T08:35:55Z</time>
      </trkpt>
      <trkpt lat="44.3392" lon="2.14183">
        <ele>528</ele>
        <time>2021-09-02T08:36:01Z</time>
      </trkpt>
      <trkpt lat="44.33916" lon="2.14191">
        <ele>528</ele>
        <time>2021-09-02T08:36:04Z</time>
      </trkpt>
      <trkpt lat="44.33904" lon="2.14217">
        <ele>525</ele>
        <time>2021-09-02T08:36:13Z</time>
      </trkpt>
      <trkpt lat="44.339" lon="2.14232">
        <ele>526</ele>
        <time>2021-09-02T08:36:17Z</time>
      </trkpt>
      <trkpt lat="44.33869" lon="2.14287">
        <ele>522</ele>
        <time>2021-09-02T08:36:29Z</time>
      </trkpt>
      <trkpt lat="44.33865" lon="2.143">
        <ele>521</ele>
        <time>2021-09-02T08:36:31Z</time>
      </trkpt>
      <trkpt lat="44.33862" lon="2.1432">
        <ele>521</ele>
        <time>2021-09-02T08:36:34Z</time>
      </trkpt>
      <trkpt lat="44.3386" lon="2.14412">
        <ele>526</ele>
        <time>2021-09-02T08:37:01Z</time>
      </trkpt>
      <trkpt lat="44.33853" lon="2.14482">
        <ele>530</ele>
        <time>2021-09-02T08:37:28Z</time>
      </trkpt>
      <trkpt lat="44.33851" lon="2.14491">
        <ele>531</ele>
        <time>2021-09-02T08:37:31Z</time>
      </trkpt>
      <trkpt lat="44.33846" lon="2.14514">
        <ele>534</ele>
        <time>2021-09-02T08:37:40Z</time>
      </trkpt>
      <trkpt lat="44.33844" lon="2.14522">
        <ele>535</ele>
        <time>2021-09-02T08:37:43Z</time>
      </trkpt>
      <trkpt lat="44.33844" lon="2.14566">
        <ele>537</ele>
        <time>2021-09-02T08:38:03Z</time>
      </trkpt>
      <trkpt lat="44.33839" lon="2.14585">
        <ele>537</ele>
        <time>2021-09-02T08:38:13Z</time>
      </trkpt>
      <trkpt lat="44.33823" lon="2.14616">
        <ele>536</ele>
        <time>2021-09-02T08:38:29Z</time>
      </trkpt>
      <trkpt lat="44.33804" lon="2.14638">
        <ele>539</ele>
        <time>2021-09-02T08:38:41Z</time>
      </trkpt>
      <trkpt lat="44.33768" lon="2.14659">
        <ele>541</ele>
        <time>2021-09-02T08:39:01Z</time>
      </trkpt>
      <trkpt lat="44.33732" lon="2.14694">
        <ele>538</ele>
        <time>2021-09-02T08:39:16Z</time>
      </trkpt>
      <trkpt lat="44.33696" lon="2.14764">
        <ele>537</ele>
        <time>2021-09-02T08:39:33Z</time>
      </trkpt>
      <trkpt lat="44.33674" lon="2.148">
        <ele>536</ele>
        <time>2021-09-02T08:39:45Z</time>
      </trkpt>
      <trkpt lat="44.33667" lon="2.14816">
        <ele>535</ele>
        <time>2021-09-02T08:39:49Z</time>
      </trkpt>
      <trkpt lat="44.33662" lon="2.14833">
        <ele>535</ele>
        <time>2021-09-02T08:39:53Z</time>
      </trkpt>
      <trkpt lat="44.33656" lon="2.14876">
        <ele>537</ele>
        <time>2021-09-02T08:40:00Z</time>
      </trkpt>
      <trkpt lat="44.33652" lon="2.14901">
        <ele>539</ele>
        <time>2021-09-02T08:40:03Z</time>
      </trkpt>
      <trkpt lat="44.3364" lon="2.14929">
        <ele>540</ele>
        <time>2021-09-02T08:40:08Z</time>
      </trkpt>
      <trkpt lat="44.33631" lon="2.14941">
        <ele>541</ele>
        <time>2021-09-02T08:40:12Z</time>
      </trkpt>
      <trkpt lat="44.3362" lon="2.14965">
        <ele>540</ele>
        <time>2021-09-02T08:40:21Z</time>
      </trkpt>
      <trkpt lat="44.33615" lon="2.14985">
        <ele>543</ele>
        <time>2021-09-02T08:40:28Z</time>
      </trkpt>
      <trkpt lat="44.33614" lon="2.15007">
        <ele>547</ele>
        <time>2021-09-02T08:40:37Z</time>
      </trkpt>
      <trkpt lat="44.33614" lon="2.15015">
        <ele>548</ele>
        <time>2021-09-02T08:40:40Z</time>
      </trkpt>
      <trkpt lat="44.33625" lon="2.15074">
        <ele>556</ele>
        <time>2021-09-02T08:41:04Z</time>
      </trkpt>
      <trkpt lat="44.33623" lon="2.1509">
        <ele>557</ele>
        <time>2021-09-02T08:41:10Z</time>
      </trkpt>
      <trkpt lat="44.33607" lon="2.15115">
        <ele>559</ele>
        <time>2021-09-02T08:41:22Z</time>
      </trkpt>
      <trkpt lat="44.33604" lon="2.15123">
        <ele>559</ele>
        <time>2021-09-02T08:41:25Z</time>
      </trkpt>
      <trkpt lat="44.33599" lon="2.15144">
        <ele>559</ele>
        <time>2021-09-02T08:41:32Z</time>
      </trkpt>
      <trkpt lat="44.33595" lon="2.15175">
        <ele>563</ele>
        <time>2021-09-02T08:41:44Z</time>
      </trkpt>
      <trkpt lat="44.33594" lon="2.15182">
        <ele>564</ele>
        <time>2021-09-02T08:41:47Z</time>
      </trkpt>
      <trkpt lat="44.33592" lon="2.15188">
        <ele>566</ele>
        <time>2021-09-02T08:41:50Z</time>
      </trkpt>
      <trkpt lat="44.33587" lon="2.15194">
        <ele>566</ele>
        <time>2021-09-02T08:43:11Z</time>
      </trkpt>
      <trkpt lat="44.33571" lon="2.15197">
        <ele>567</ele>
        <time>2021-09-02T08:43:18Z</time>
      </trkpt>
      <trkpt lat="44.33565" lon="2.15198">
        <ele>567</ele>
        <time>2021-09-02T08:43:21Z</time>
      </trkpt>
      <trkpt lat="44.33518" lon="2.15211">
        <ele>566</ele>
        <time>2021-09-02T08:43:39Z</time>
      </trkpt>
      <trkpt lat="44.3348" lon="2.15212">
        <ele>563</ele>
        <time>2021-09-02T08:43:47Z</time>
      </trkpt>
      <trkpt lat="44.33438" lon="2.15227">
        <ele>560</ele>
        <time>2021-09-02T08:43:53Z</time>
      </trkpt>
      <trkpt lat="44.33418" lon="2.15239">
        <ele>559</ele>
        <time>2021-09-02T08:43:56Z</time>
      </trkpt>
      <trkpt lat="44.33319" lon="2.15272">
        <ele>556</ele>
        <time>2021-09-02T08:44:13Z</time>
      </trkpt>
      <trkpt lat="44.33305" lon="2.15268">
        <ele>555</ele>
        <time>2021-09-02T08:44:17Z</time>
      </trkpt>
      <trkpt lat="44.33285" lon="2.15248">
        <ele>556</ele>
        <time>2021-09-02T08:44:25Z</time>
      </trkpt>
      <trkpt lat="44.33281" lon="2.15245">
        <ele>555</ele>
        <time>2021-09-02T08:44:27Z</time>
      </trkpt>
      <trkpt lat="44.33262" lon="2.15242">
        <ele>555</ele>
        <time>2021-09-02T08:44:32Z</time>
      </trkpt>
      <trkpt lat="44.33252" lon="2.15237">
        <ele>554</ele>
        <time>2021-09-02T08:44:34Z</time>
      </trkpt>
      <trkpt lat="44.33225" lon="2.15209">
        <ele>551</ele>
        <time>2021-09-02T08:44:39Z</time>
      </trkpt>
      <trkpt lat="44.3322" lon="2.15201">
        <ele>550</ele>
        <time>2021-09-02T08:44:40Z</time>
      </trkpt>
      <trkpt lat="44.33206" lon="2.15169">
        <ele>551</ele>
        <time>2021-09-02T08:44:44Z</time>
      </trkpt>
      <trkpt lat="44.332" lon="2.15163">
        <ele>552</ele>
        <time>2021-09-02T08:44:46Z</time>
      </trkpt>
      <trkpt lat="44.33195" lon="2.15166">
        <ele>551</ele>
        <time>2021-09-02T08:45:39Z</time>
      </trkpt>
      <trkpt lat="44.33184" lon="2.1517">
        <ele>551</ele>
        <time>2021-09-02T08:45:44Z</time>
      </trkpt>
      <trkpt lat="44.33139" lon="2.15205">
        <ele>557</ele>
        <time>2021-09-02T08:46:06Z</time>
      </trkpt>
      <trkpt lat="44.33065" lon="2.1523">
        <ele>560</ele>
        <time>2021-09-02T08:46:36Z</time>
      </trkpt>
      <trkpt lat="44.33035" lon="2.15245">
        <ele>560</ele>
        <time>2021-09-02T08:46:48Z</time>
      </trkpt>
      <trkpt lat="44.32983" lon="2.15279">
        <ele>559</ele>
        <time>2021-09-02T08:47:08Z</time>
      </trkpt>
      <trkpt lat="44.32959" lon="2.1529">
        <ele>558</ele>
        <time>2021-09-02T08:47:18Z</time>
      </trkpt>
      <trkpt lat="44.32932" lon="2.15315">
        <ele>558</ele>
        <time>2021-09-02T08:47:31Z</time>
      </trkpt>
      <trkpt lat="44.32873" lon="2.15413">
        <ele>561</ele>
        <time>2021-09-02T08:48:03Z</time>
      </trkpt>
      <trkpt lat="44.32817" lon="2.15503">
        <ele>570</ele>
        <time>2021-09-02T08:48:33Z</time>
      </trkpt>
      <trkpt lat="44.32784" lon="2.1557">
        <ele>569</ele>
        <time>2021-09-02T08:48:57Z</time>
      </trkpt>
      <trkpt lat="44.32762" lon="2.15593">
        <ele>568</ele>
        <time>2021-09-02T08:49:09Z</time>
      </trkpt>
      <trkpt lat="44.32747" lon="2.156">
        <ele>570</ele>
        <time>2021-09-02T08:49:15Z</time>
      </trkpt>
      <trkpt lat="44.32736" lon="2.156">
        <ele>573</ele>
        <time>2021-09-02T08:49:19Z</time>
      </trkpt>
      <trkpt lat="44.3273" lon="2.15598">
        <ele>573</ele>
        <time>2021-09-02T08:49:21Z</time>
      </trkpt>
      <trkpt lat="44.32721" lon="2.1559">
        <ele>574</ele>
        <time>2021-09-02T08:49:25Z</time>
      </trkpt>
      <trkpt lat="44.32709" lon="2.15574">
        <ele>575</ele>
        <time>2021-09-02T08:49:33Z</time>
      </trkpt>
      <trkpt lat="44.32702" lon="2.15566">
        <ele>576</ele>
        <time>2021-09-02T08:49:37Z</time>
      </trkpt>
      <trkpt lat="44.32689" lon="2.15564">
        <ele>577</ele>
        <time>2021-09-02T08:49:43Z</time>
      </trkpt>
      <trkpt lat="44.32685" lon="2.15566">
        <ele>578</ele>
        <time>2021-09-02T08:49:45Z</time>
      </trkpt>
      <trkpt lat="44.32681" lon="2.15569">
        <ele>578</ele>
        <time>2021-09-02T08:49:47Z</time>
      </trkpt>
      <trkpt lat="44.32646" lon="2.15637">
        <ele>583</ele>
        <time>2021-09-02T08:50:20Z</time>
      </trkpt>
      <trkpt lat="44.3263" lon="2.15653">
        <ele>586</ele>
        <time>2021-09-02T08:50:29Z</time>
      </trkpt>
      <trkpt lat="44.3262" lon="2.15659">
        <ele>587</ele>
        <time>2021-09-02T08:50:34Z</time>
      </trkpt>
      <trkpt lat="44.32603" lon="2.15659">
        <ele>588</ele>
        <time>2021-09-02T08:50:42Z</time>
      </trkpt>
      <trkpt lat="44.32593" lon="2.15657">
        <ele>589</ele>
        <time>2021-09-02T08:50:46Z</time>
      </trkpt>
      <trkpt lat="44.32588" lon="2.15656">
        <ele>589</ele>
        <time>2021-09-02T08:50:48Z</time>
      </trkpt>
      <trkpt lat="44.32584" lon="2.15655">
        <ele>590</ele>
        <time>2021-09-02T08:50:50Z</time>
      </trkpt>
      <trkpt lat="44.32574" lon="2.15653">
        <ele>591</ele>
        <time>2021-09-02T08:50:56Z</time>
      </trkpt>
      <trkpt lat="44.32568" lon="2.15652">
        <ele>591</ele>
        <time>2021-09-02T08:50:58Z</time>
      </trkpt>
      <trkpt lat="44.32499" lon="2.15642">
        <ele>595</ele>
        <time>2021-09-02T08:51:30Z</time>
      </trkpt>
      <trkpt lat="44.32445" lon="2.15637">
        <ele>597</ele>
        <time>2021-09-02T08:51:56Z</time>
      </trkpt>
      <trkpt lat="44.32439" lon="2.15636">
        <ele>597</ele>
        <time>2021-09-02T08:51:59Z</time>
      </trkpt>
      <trkpt lat="44.32435" lon="2.1564">
        <ele>597</ele>
        <time>2021-09-02T08:52:33Z</time>
      </trkpt>
      <trkpt lat="44.3231" lon="2.15662">
        <ele>591</ele>
        <time>2021-09-02T08:52:58Z</time>
      </trkpt>
      <trkpt lat="44.32223" lon="2.15695">
        <ele>589</ele>
        <time>2021-09-02T08:53:16Z</time>
      </trkpt>
      <trkpt lat="44.32156" lon="2.15712">
        <ele>589</ele>
        <time>2021-09-02T08:53:38Z</time>
      </trkpt>
      <trkpt lat="44.32098" lon="2.15735">
        <ele>583</ele>
        <time>2021-09-02T08:53:49Z</time>
      </trkpt>
      <trkpt lat="44.32088" lon="2.15735">
        <ele>581</ele>
        <time>2021-09-02T08:53:51Z</time>
      </trkpt>
      <trkpt lat="44.3208" lon="2.15736">
        <ele>580</ele>
        <time>2021-09-02T08:53:53Z</time>
      </trkpt>
      <trkpt lat="44.32069" lon="2.15749">
        <ele>577</ele>
        <time>2021-09-02T08:53:56Z</time>
      </trkpt>
      <trkpt lat="44.32046" lon="2.15807">
        <ele>576</ele>
        <time>2021-09-02T08:54:05Z</time>
      </trkpt>
      <trkpt lat="44.32035" lon="2.15848">
        <ele>575</ele>
        <time>2021-09-02T08:54:10Z</time>
      </trkpt>
      <trkpt lat="44.32028" lon="2.15863">
        <ele>574</ele>
        <time>2021-09-02T08:54:12Z</time>
      </trkpt>
      <trkpt lat="44.32014" lon="2.15883">
        <ele>574</ele>
        <time>2021-09-02T08:54:15Z</time>
      </trkpt>
      <trkpt lat="44.31966" lon="2.15934">
        <ele>578</ele>
        <time>2021-09-02T08:54:30Z</time>
      </trkpt>
      <trkpt lat="44.31872" lon="2.16085">
        <ele>570</ele>
        <time>2021-09-02T08:54:55Z</time>
      </trkpt>
      <trkpt lat="44.31865" lon="2.16114">
        <ele>569</ele>
        <time>2021-09-02T08:54:58Z</time>
      </trkpt>
      <trkpt lat="44.31863" lon="2.1613">
        <ele>568</ele>
        <time>2021-09-02T08:55:00Z</time>
      </trkpt>
      <trkpt lat="44.31865" lon="2.16146">
        <ele>566</ele>
        <time>2021-09-02T08:56:25Z</time>
      </trkpt>
      <trkpt lat="44.31868" lon="2.16184">
        <ele>567</ele>
        <time>2021-09-02T08:56:32Z</time>
      </trkpt>
      <trkpt lat="44.31945" lon="2.16444">
        <ele>559</ele>
        <time>2021-09-02T08:56:59Z</time>
      </trkpt>
      <trkpt lat="44.31949" lon="2.16492">
        <ele>556</ele>
        <time>2021-09-02T08:57:05Z</time>
      </trkpt>
      <trkpt lat="44.31949" lon="2.16567">
        <ele>554</ele>
        <time>2021-09-02T08:57:14Z</time>
      </trkpt>
      <trkpt lat="44.31948" lon="2.16574">
        <ele>553</ele>
        <time>2021-09-02T08:57:15Z</time>
      </trkpt>
      <trkpt lat="44.31943" lon="2.16584">
        <ele>553</ele>
        <time>2021-09-02T08:57:17Z</time>
      </trkpt>
      <trkpt lat="44.31933" lon="2.16594">
        <ele>552</ele>
        <time>2021-09-02T08:57:20Z</time>
      </trkpt>
      <trkpt lat="44.31929" lon="2.16599">
        <ele>553</ele>
        <time>2021-09-02T08:57:21Z</time>
      </trkpt>
      <trkpt lat="44.31926" lon="2.16609">
        <ele>554</ele>
        <time>2021-09-02T08:57:23Z</time>
      </trkpt>
      <trkpt lat="44.31925" lon="2.16625">
        <ele>555</ele>
        <time>2021-09-02T08:57:27Z</time>
      </trkpt>
      <trkpt lat="44.31921" lon="2.16651">
        <ele>556</ele>
        <time>2021-09-02T08:57:35Z</time>
      </trkpt>
      <trkpt lat="44.31918" lon="2.16659">
        <ele>556</ele>
        <time>2021-09-02T08:57:38Z</time>
      </trkpt>
      <trkpt lat="44.31914" lon="2.16664">
        <ele>557</ele>
        <time>2021-09-02T08:57:41Z</time>
      </trkpt>
      <trkpt lat="44.31909" lon="2.16666">
        <ele>557</ele>
        <time>2021-09-02T08:57:44Z</time>
      </trkpt>
      <trkpt lat="44.31899" lon="2.1667">
        <ele>558</ele>
        <time>2021-09-02T08:57:49Z</time>
      </trkpt>
      <trkpt lat="44.31831" lon="2.16702">
        <ele>559</ele>
        <time>2021-09-02T08:58:22Z</time>
      </trkpt>
      <trkpt lat="44.31827" lon="2.16705">
        <ele>560</ele>
        <time>2021-09-02T08:58:24Z</time>
      </trkpt>
      <trkpt lat="44.31808" lon="2.16711">
        <ele>562</ele>
        <time>2021-09-02T08:58:32Z</time>
      </trkpt>
      <trkpt lat="44.31803" lon="2.16711">
        <ele>563</ele>
        <time>2021-09-02T08:58:34Z</time>
      </trkpt>
      <trkpt lat="44.31742" lon="2.16716">
        <ele>567</ele>
        <time>2021-09-02T08:58:58Z</time>
      </trkpt>
      <trkpt lat="44.31715" lon="2.1671">
        <ele>568</ele>
        <time>2021-09-02T08:59:11Z</time>
      </trkpt>
      <trkpt lat="44.31663" lon="2.16719">
        <ele>570</ele>
        <time>2021-09-02T08:59:35Z</time>
      </trkpt>
      <trkpt lat="44.31648" lon="2.16722">
        <ele>572</ele>
        <time>2021-09-02T09:00:29Z</time>
      </trkpt>
      <trkpt lat="44.31643" lon="2.1672">
        <ele>572</ele>
        <time>2021-09-02T09:00:33Z</time>
      </trkpt>
      <trkpt lat="44.31633" lon="2.16717">
        <ele>573</ele>
        <time>2021-09-02T09:00:40Z</time>
      </trkpt>
      <trkpt lat="44.31629" lon="2.16712">
        <ele>573</ele>
        <time>2021-09-02T09:00:44Z</time>
      </trkpt>
      <trkpt lat="44.31623" lon="2.16713">
        <ele>573</ele>
        <time>2021-09-02T09:00:49Z</time>
      </trkpt>
      <trkpt lat="44.31605" lon="2.16704">
        <ele>572</ele>
        <time>2021-09-02T09:00:56Z</time>
      </trkpt>
      <trkpt lat="44.31568" lon="2.16699">
        <ele>572</ele>
        <time>2021-09-02T09:01:08Z</time>
      </trkpt>
      <trkpt lat="44.31562" lon="2.16702">
        <ele>573</ele>
        <time>2021-09-02T09:01:11Z</time>
      </trkpt>
      <trkpt lat="44.31558" lon="2.16708">
        <ele>573</ele>
        <time>2021-09-02T09:01:14Z</time>
      </trkpt>
      <trkpt lat="44.31555" lon="2.16715">
        <ele>573</ele>
        <time>2021-09-02T09:01:17Z</time>
      </trkpt>
      <trkpt lat="44.31552" lon="2.16737">
        <ele>573</ele>
        <time>2021-09-02T09:01:27Z</time>
      </trkpt>
      <trkpt lat="44.31551" lon="2.16745">
        <ele>574</ele>
        <time>2021-09-02T09:01:30Z</time>
      </trkpt>
      <trkpt lat="44.31534" lon="2.16775">
        <ele>574</ele>
        <time>2021-09-02T09:01:45Z</time>
      </trkpt>
      <trkpt lat="44.31531" lon="2.16781">
        <ele>574</ele>
        <time>2021-09-02T09:01:48Z</time>
      </trkpt>
      <trkpt lat="44.31526" lon="2.16785">
        <ele>576</ele>
        <time>2021-09-02T09:01:51Z</time>
      </trkpt>
      <trkpt lat="44.31522" lon="2.16789">
        <ele>577</ele>
        <time>2021-09-02T09:02:20Z</time>
      </trkpt>
      <trkpt lat="44.31517" lon="2.16791">
        <ele>579</ele>
        <time>2021-09-02T09:02:43Z</time>
      </trkpt>
      <trkpt lat="44.31512" lon="2.16793">
        <ele>580</ele>
        <time>2021-09-02T09:02:45Z</time>
      </trkpt>
      <trkpt lat="44.31479" lon="2.16812">
        <ele>581</ele>
        <time>2021-09-02T09:02:55Z</time>
      </trkpt>
      <trkpt lat="44.31447" lon="2.16846">
        <ele>581</ele>
        <time>2021-09-02T09:03:05Z</time>
      </trkpt>
      <trkpt lat="44.31412" lon="2.16863">
        <ele>582</ele>
        <time>2021-09-02T09:03:15Z</time>
      </trkpt>
      <trkpt lat="44.3139" lon="2.16869">
        <ele>581</ele>
        <time>2021-09-02T09:03:21Z</time>
      </trkpt>
      <trkpt lat="44.31344" lon="2.16894">
        <ele>582</ele>
        <time>2021-09-02T09:03:38Z</time>
      </trkpt>
      <trkpt lat="44.31307" lon="2.16896">
        <ele>589</ele>
        <time>2021-09-02T09:04:00Z</time>
      </trkpt>
      <trkpt lat="44.31286" lon="2.16892">
        <ele>589</ele>
        <time>2021-09-02T09:04:13Z</time>
      </trkpt>
      <trkpt lat="44.31276" lon="2.16892">
        <ele>589</ele>
        <time>2021-09-02T09:04:19Z</time>
      </trkpt>
      <trkpt lat="44.31259" lon="2.16887">
        <ele>591</ele>
        <time>2021-09-02T09:04:28Z</time>
      </trkpt>
      <trkpt lat="44.31253" lon="2.16884">
        <ele>592</ele>
        <time>2021-09-02T09:04:31Z</time>
      </trkpt>
      <trkpt lat="44.31228" lon="2.16844">
        <ele>597</ele>
        <time>2021-09-02T09:04:52Z</time>
      </trkpt>
      <trkpt lat="44.31224" lon="2.16839">
        <ele>598</ele>
        <time>2021-09-02T09:04:55Z</time>
      </trkpt>
      <trkpt lat="44.31209" lon="2.16831">
        <ele>599</ele>
        <time>2021-09-02T09:05:03Z</time>
      </trkpt>
      <trkpt lat="44.31204" lon="2.16828">
        <ele>599</ele>
        <time>2021-09-02T09:05:06Z</time>
      </trkpt>
      <trkpt lat="44.312" lon="2.16825">
        <ele>600</ele>
        <time>2021-09-02T09:05:09Z</time>
      </trkpt>
      <trkpt lat="44.31195" lon="2.16823">
        <ele>601</ele>
        <time>2021-09-02T09:05:12Z</time>
      </trkpt>
      <trkpt lat="44.3119" lon="2.1682">
        <ele>603</ele>
        <time>2021-09-02T09:05:16Z</time>
      </trkpt>
      <trkpt lat="44.31171" lon="2.16816">
        <ele>607</ele>
        <time>2021-09-02T09:05:28Z</time>
      </trkpt>
      <trkpt lat="44.3116" lon="2.16816">
        <ele>608</ele>
        <time>2021-09-02T09:05:34Z</time>
      </trkpt>
      <trkpt lat="44.31154" lon="2.16819">
        <ele>609</ele>
        <time>2021-09-02T09:05:37Z</time>
      </trkpt>
      <trkpt lat="44.31149" lon="2.16824">
        <ele>609</ele>
        <time>2021-09-02T09:05:40Z</time>
      </trkpt>
      <trkpt lat="44.31142" lon="2.16838">
        <ele>610</ele>
        <time>2021-09-02T09:05:46Z</time>
      </trkpt>
      <trkpt lat="44.31132" lon="2.16911">
        <ele>615</ele>
        <time>2021-09-02T09:06:16Z</time>
      </trkpt>
      <trkpt lat="44.31124" lon="2.16962">
        <ele>619</ele>
        <time>2021-09-02T09:06:34Z</time>
      </trkpt>
      <trkpt lat="44.31122" lon="2.16968">
        <ele>619</ele>
        <time>2021-09-02T09:06:36Z</time>
      </trkpt>
      <trkpt lat="44.3112" lon="2.16973">
        <ele>619</ele>
        <time>2021-09-02T09:06:38Z</time>
      </trkpt>
      <trkpt lat="44.31115" lon="2.16987">
        <ele>619</ele>
        <time>2021-09-02T09:06:43Z</time>
      </trkpt>
      <trkpt lat="44.31103" lon="2.17005">
        <ele>619</ele>
        <time>2021-09-02T09:06:51Z</time>
      </trkpt>
      <trkpt lat="44.31094" lon="2.17013">
        <ele>619</ele>
        <time>2021-09-02T09:06:56Z</time>
      </trkpt>
      <trkpt lat="44.31084" lon="2.17018">
        <ele>619</ele>
        <time>2021-09-02T09:07:01Z</time>
      </trkpt>
      <trkpt lat="44.31071" lon="2.17022">
        <ele>620</ele>
        <time>2021-09-02T09:07:07Z</time>
      </trkpt>
      <trkpt lat="44.3106" lon="2.17022">
        <ele>622</ele>
        <time>2021-09-02T09:07:12Z</time>
      </trkpt>
      <trkpt lat="44.31054" lon="2.17024">
        <ele>623</ele>
        <time>2021-09-02T09:07:15Z</time>
      </trkpt>
      <trkpt lat="44.31043" lon="2.17025">
        <ele>624</ele>
        <time>2021-09-02T09:07:21Z</time>
      </trkpt>
      <trkpt lat="44.31039" lon="2.17029">
        <ele>625</ele>
        <time>2021-09-02T09:07:24Z</time>
      </trkpt>
      <trkpt lat="44.31029" lon="2.1703">
        <ele>627</ele>
        <time>2021-09-02T09:07:30Z</time>
      </trkpt>
      <trkpt lat="44.31012" lon="2.17035">
        <ele>628</ele>
        <time>2021-09-02T09:07:39Z</time>
      </trkpt>
      <trkpt lat="44.31" lon="2.1704">
        <ele>628</ele>
        <time>2021-09-02T09:07:45Z</time>
      </trkpt>
      <trkpt lat="44.30995" lon="2.17042">
        <ele>629</ele>
        <time>2021-09-02T09:07:48Z</time>
      </trkpt>
      <trkpt lat="44.3099" lon="2.17044">
        <ele>629</ele>
        <time>2021-09-02T09:07:51Z</time>
      </trkpt>
      <trkpt lat="44.30986" lon="2.17047">
        <ele>630</ele>
        <time>2021-09-02T09:07:54Z</time>
      </trkpt>
      <trkpt lat="44.30965" lon="2.1707">
        <ele>631</ele>
        <time>2021-09-02T09:08:09Z</time>
      </trkpt>
      <trkpt lat="44.30962" lon="2.17076">
        <ele>630</ele>
        <time>2021-09-02T09:08:12Z</time>
      </trkpt>
      <trkpt lat="44.30948" lon="2.17092">
        <ele>628</ele>
        <time>2021-09-02T09:08:21Z</time>
      </trkpt>
      <trkpt lat="44.30944" lon="2.17094">
        <ele>629</ele>
        <time>2021-09-02T09:08:24Z</time>
      </trkpt>
      <trkpt lat="44.3092" lon="2.1709">
        <ele>631</ele>
        <time>2021-09-02T09:08:35Z</time>
      </trkpt>
      <trkpt lat="44.30878" lon="2.17094">
        <ele>630</ele>
        <time>2021-09-02T09:08:50Z</time>
      </trkpt>
      <trkpt lat="44.30872" lon="2.17096">
        <ele>630</ele>
        <time>2021-09-02T09:08:52Z</time>
      </trkpt>
      <trkpt lat="44.30868" lon="2.17099">
        <ele>630</ele>
        <time>2021-09-02T09:08:54Z</time>
      </trkpt>
      <trkpt lat="44.30864" lon="2.17103">
        <ele>630</ele>
        <time>2021-09-02T09:08:56Z</time>
      </trkpt>
      <trkpt lat="44.30856" lon="2.17146">
        <ele>633</ele>
        <time>2021-09-02T09:09:10Z</time>
      </trkpt>
      <trkpt lat="44.30846" lon="2.17174">
        <ele>637</ele>
        <time>2021-09-02T09:09:22Z</time>
      </trkpt>
      <trkpt lat="44.30842" lon="2.17181">
        <ele>639</ele>
        <time>2021-09-02T09:09:25Z</time>
      </trkpt>
      <trkpt lat="44.30796" lon="2.17245">
        <ele>644</ele>
        <time>2021-09-02T09:09:57Z</time>
      </trkpt>
      <trkpt lat="44.30767" lon="2.17279">
        <ele>649</ele>
        <time>2021-09-02T09:10:18Z</time>
      </trkpt>
      <trkpt lat="44.30762" lon="2.17285">
        <ele>649</ele>
        <time>2021-09-02T09:10:22Z</time>
      </trkpt>
      <trkpt lat="44.30744" lon="2.17307">
        <ele>648</ele>
        <time>2021-09-02T09:10:34Z</time>
      </trkpt>
      <trkpt lat="44.30738" lon="2.17309">
        <ele>648</ele>
        <time>2021-09-02T09:10:37Z</time>
      </trkpt>
      <trkpt lat="44.30733" lon="2.17315">
        <ele>647</ele>
        <time>2021-09-02T09:10:41Z</time>
      </trkpt>
      <trkpt lat="44.3071" lon="2.17337">
        <ele>646</ele>
        <time>2021-09-02T09:10:51Z</time>
      </trkpt>
      <trkpt lat="44.30706" lon="2.17342">
        <ele>647</ele>
        <time>2021-09-02T09:10:54Z</time>
      </trkpt>
      <trkpt lat="44.30703" lon="2.17346">
        <ele>648</ele>
        <time>2021-09-02T09:10:57Z</time>
      </trkpt>
      <trkpt lat="44.30701" lon="2.17353">
        <ele>649</ele>
        <time>2021-09-02T09:11:00Z</time>
      </trkpt>
      <trkpt lat="44.30701" lon="2.17362">
        <ele>650</ele>
        <time>2021-09-02T09:11:03Z</time>
      </trkpt>
      <trkpt lat="44.30702" lon="2.17369">
        <ele>652</ele>
        <time>2021-09-02T09:11:07Z</time>
      </trkpt>
      <trkpt lat="44.30741" lon="2.17395">
        <ele>657</ele>
        <time>2021-09-02T09:11:29Z</time>
      </trkpt>
      <trkpt lat="44.30744" lon="2.174">
        <ele>657</ele>
        <time>2021-09-02T09:11:32Z</time>
      </trkpt>
      <trkpt lat="44.30747" lon="2.17416">
        <ele>659</ele>
        <time>2021-09-02T09:11:38Z</time>
      </trkpt>
      <trkpt lat="44.30746" lon="2.17423">
        <ele>660</ele>
        <time>2021-09-02T09:11:41Z</time>
      </trkpt>
      <trkpt lat="44.30741" lon="2.17427">
        <ele>661</ele>
        <time>2021-09-02T09:11:44Z</time>
      </trkpt>
      <trkpt lat="44.30731" lon="2.17427">
        <ele>661</ele>
        <time>2021-09-02T09:11:48Z</time>
      </trkpt>
      <trkpt lat="44.30721" lon="2.17423">
        <ele>662</ele>
        <time>2021-09-02T09:11:52Z</time>
      </trkpt>
      <trkpt lat="44.30689" lon="2.17389">
        <ele>666</ele>
        <time>2021-09-02T09:12:08Z</time>
      </trkpt>
      <trkpt lat="44.30675" lon="2.17381">
        <ele>667</ele>
        <time>2021-09-02T09:12:14Z</time>
      </trkpt>
      <trkpt lat="44.30658" lon="2.17377">
        <ele>668</ele>
        <time>2021-09-02T09:12:20Z</time>
      </trkpt>
      <trkpt lat="44.30641" lon="2.17381">
        <ele>670</ele>
        <time>2021-09-02T09:12:26Z</time>
      </trkpt>
      <trkpt lat="44.30619" lon="2.17396">
        <ele>671</ele>
        <time>2021-09-02T09:12:34Z</time>
      </trkpt>
      <trkpt lat="44.30573" lon="2.17447">
        <ele>672</ele>
        <time>2021-09-02T09:12:55Z</time>
      </trkpt>
      <trkpt lat="44.30568" lon="2.1745">
        <ele>672</ele>
        <time>2021-09-02T09:12:58Z</time>
      </trkpt>
      <trkpt lat="44.30567" lon="2.17457">
        <ele>673</ele>
        <time>2021-09-02T09:13:35Z</time>
      </trkpt>
      <trkpt lat="44.30563" lon="2.17463">
        <ele>672</ele>
        <time>2021-09-02T09:13:37Z</time>
      </trkpt>
      <trkpt lat="44.30553" lon="2.17477">
        <ele>670</ele>
        <time>2021-09-02T09:13:41Z</time>
      </trkpt>
      <trkpt lat="44.3042" lon="2.17632">
        <ele>658</ele>
        <time>2021-09-02T09:14:11Z</time>
      </trkpt>
      <trkpt lat="44.3036" lon="2.17676">
        <ele>658</ele>
        <time>2021-09-02T09:14:27Z</time>
      </trkpt>
      <trkpt lat="44.30343" lon="2.17684">
        <ele>658</ele>
        <time>2021-09-02T09:14:32Z</time>
      </trkpt>
      <trkpt lat="44.30331" lon="2.17686">
        <ele>658</ele>
        <time>2021-09-02T09:14:38Z</time>
      </trkpt>
      <trkpt lat="44.30327" lon="2.17687">
        <ele>658</ele>
        <time>2021-09-02T09:14:43Z</time>
      </trkpt>
      <trkpt lat="44.30326" lon="2.17687">
        <ele>657</ele>
        <time>2021-09-02T09:18:01Z</time>
      </trkpt>
      <trkpt lat="44.30323" lon="2.17683">
        <ele>655</ele>
        <time>2021-09-02T09:19:34Z</time>
      </trkpt>
      <trkpt lat="44.30321" lon="2.1769">
        <ele>655</ele>
        <time>2021-09-02T09:19:53Z</time>
      </trkpt>
      <trkpt lat="44.30316" lon="2.17689">
        <ele>656</ele>
        <time>2021-09-02T09:19:56Z</time>
      </trkpt>
      <trkpt lat="44.30255" lon="2.17698">
        <ele>652</ele>
        <time>2021-09-02T09:20:10Z</time>
      </trkpt>
      <trkpt lat="44.3022" lon="2.17716">
        <ele>648</ele>
        <time>2021-09-02T09:20:16Z</time>
      </trkpt>
      <trkpt lat="44.30187" lon="2.1775">
        <ele>643</ele>
        <time>2021-09-02T09:20:22Z</time>
      </trkpt>
      <trkpt lat="44.30141" lon="2.17816">
        <ele>636</ele>
        <time>2021-09-02T09:20:30Z</time>
      </trkpt>
      <trkpt lat="44.30007" lon="2.18043">
        <ele>630</ele>
        <time>2021-09-02T09:21:01Z</time>
      </trkpt>
      <trkpt lat="44.29962" lon="2.18118">
        <ele>626</ele>
        <time>2021-09-02T09:21:14Z</time>
      </trkpt>
      <trkpt lat="44.29958" lon="2.18122">
        <ele>625</ele>
        <time>2021-09-02T09:21:15Z</time>
      </trkpt>
      <trkpt lat="44.29943" lon="2.18128">
        <ele>623</ele>
        <time>2021-09-02T09:21:18Z</time>
      </trkpt>
      <trkpt lat="44.29871" lon="2.18115">
        <ele>616</ele>
        <time>2021-09-02T09:21:28Z</time>
      </trkpt>
      <trkpt lat="44.29797" lon="2.18089">
        <ele>611</ele>
        <time>2021-09-02T09:21:38Z</time>
      </trkpt>
      <trkpt lat="44.29722" lon="2.18092">
        <ele>614</ele>
        <time>2021-09-02T09:21:47Z</time>
      </trkpt>
      <trkpt lat="44.297" lon="2.18099">
        <ele>613</ele>
        <time>2021-09-02T09:21:50Z</time>
      </trkpt>
      <trkpt lat="44.29634" lon="2.18144">
        <ele>610</ele>
        <time>2021-09-02T09:22:01Z</time>
      </trkpt>
      <trkpt lat="44.29566" lon="2.18159">
        <ele>607</ele>
        <time>2021-09-02T09:22:15Z</time>
      </trkpt>
      <trkpt lat="44.29554" lon="2.1816">
        <ele>607</ele>
        <time>2021-09-02T09:22:20Z</time>
      </trkpt>
      <trkpt lat="44.29544" lon="2.18165">
        <ele>607</ele>
        <time>2021-09-02T09:22:31Z</time>
      </trkpt>
      <trkpt lat="44.29517" lon="2.18192">
        <ele>604</ele>
        <time>2021-09-02T09:22:41Z</time>
      </trkpt>
      <trkpt lat="44.29484" lon="2.1824">
        <ele>602</ele>
        <time>2021-09-02T09:22:55Z</time>
      </trkpt>
      <trkpt lat="44.29469" lon="2.1825">
        <ele>600</ele>
        <time>2021-09-02T09:23:03Z</time>
      </trkpt>
      <trkpt lat="44.29465" lon="2.18252">
        <ele>600</ele>
        <time>2021-09-02T09:23:06Z</time>
      </trkpt>
      <trkpt lat="44.2946" lon="2.18251">
        <ele>602</ele>
        <time>2021-09-02T09:24:27Z</time>
      </trkpt>
      <trkpt lat="44.29458" lon="2.18258">
        <ele>602</ele>
        <time>2021-09-02T09:24:30Z</time>
      </trkpt>
      <trkpt lat="44.29461" lon="2.18263">
        <ele>602</ele>
        <time>2021-09-02T09:24:32Z</time>
      </trkpt>
      <trkpt lat="44.29465" lon="2.18269">
        <ele>598</ele>
        <time>2021-09-02T09:24:34Z</time>
      </trkpt>
      <trkpt lat="44.29469" lon="2.18276">
        <ele>597</ele>
        <time>2021-09-02T09:24:36Z</time>
      </trkpt>
      <trkpt lat="44.29473" lon="2.18285">
        <ele>596</ele>
        <time>2021-09-02T09:24:38Z</time>
      </trkpt>
      <trkpt lat="44.29522" lon="2.18358">
        <ele>588</ele>
        <time>2021-09-02T09:24:50Z</time>
      </trkpt>
      <trkpt lat="44.29534" lon="2.18387">
        <ele>586</ele>
        <time>2021-09-02T09:24:53Z</time>
      </trkpt>
      <trkpt lat="44.29546" lon="2.18435">
        <ele>583</ele>
        <time>2021-09-02T09:24:58Z</time>
      </trkpt>
      <trkpt lat="44.29552" lon="2.18484">
        <ele>581</ele>
        <time>2021-09-02T09:25:03Z</time>
      </trkpt>
      <trkpt lat="44.29552" lon="2.18508">
        <ele>583</ele>
        <time>2021-09-02T09:25:06Z</time>
      </trkpt>
      <trkpt lat="44.29553" lon="2.18523">
        <ele>584</ele>
        <time>2021-09-02T09:25:40Z</time>
      </trkpt>
      <trkpt lat="44.29551" lon="2.18619">
        <ele>577</ele>
        <time>2021-09-02T09:25:54Z</time>
      </trkpt>
      <trkpt lat="44.29547" lon="2.18645">
        <ele>576</ele>
        <time>2021-09-02T09:25:57Z</time>
      </trkpt>
      <trkpt lat="44.2953" lon="2.18688">
        <ele>574</ele>
        <time>2021-09-02T09:26:02Z</time>
      </trkpt>
      <trkpt lat="44.29529" lon="2.18695">
        <ele>574</ele>
        <time>2021-09-02T09:26:03Z</time>
      </trkpt>
      <trkpt lat="44.29529" lon="2.18705">
        <ele>574</ele>
        <time>2021-09-02T09:26:05Z</time>
      </trkpt>
      <trkpt lat="44.29528" lon="2.18714">
        <ele>574</ele>
        <time>2021-09-02T09:26:08Z</time>
      </trkpt>
      <trkpt lat="44.29527" lon="2.1872">
        <ele>577</ele>
        <time>2021-09-02T09:26:21Z</time>
      </trkpt>
      <trkpt lat="44.29531" lon="2.18718">
        <ele>578</ele>
        <time>2021-09-02T09:26:46Z</time>
      </trkpt>
      <trkpt lat="44.29533" lon="2.18727">
        <ele>581</ele>
        <time>2021-09-02T09:26:50Z</time>
      </trkpt>
      <trkpt lat="44.29535" lon="2.18734">
        <ele>576</ele>
        <time>2021-09-02T09:26:52Z</time>
      </trkpt>
      <trkpt lat="44.29538" lon="2.18763">
        <ele>572</ele>
        <time>2021-09-02T09:26:58Z</time>
      </trkpt>
      <trkpt lat="44.2954" lon="2.18807">
        <ele>568</ele>
        <time>2021-09-02T09:27:04Z</time>
      </trkpt>
      <trkpt lat="44.29533" lon="2.18827">
        <ele>566</ele>
        <time>2021-09-02T09:27:06Z</time>
      </trkpt>
      <trkpt lat="44.29509" lon="2.18867">
        <ele>559</ele>
        <time>2021-09-02T09:27:12Z</time>
      </trkpt>
      <trkpt lat="44.29497" lon="2.18875">
        <ele>558</ele>
        <time>2021-09-02T09:27:14Z</time>
      </trkpt>
      <trkpt lat="44.29488" lon="2.18878">
        <ele>558</ele>
        <time>2021-09-02T09:27:15Z</time>
      </trkpt>
      <trkpt lat="44.29481" lon="2.18879">
        <ele>558</ele>
        <time>2021-09-02T09:27:16Z</time>
      </trkpt>
      <trkpt lat="44.29451" lon="2.18858">
        <ele>554</ele>
        <time>2021-09-02T09:27:21Z</time>
      </trkpt>
      <trkpt lat="44.29441" lon="2.18856">
        <ele>551</ele>
        <time>2021-09-02T09:27:23Z</time>
      </trkpt>
      <trkpt lat="44.29432" lon="2.18863">
        <ele>549</ele>
        <time>2021-09-02T09:27:25Z</time>
      </trkpt>
      <trkpt lat="44.29427" lon="2.1887">
        <ele>549</ele>
        <time>2021-09-02T09:27:26Z</time>
      </trkpt>
      <trkpt lat="44.29408" lon="2.1892">
        <ele>548</ele>
        <time>2021-09-02T09:27:32Z</time>
      </trkpt>
      <trkpt lat="44.29401" lon="2.18932">
        <ele>547</ele>
        <time>2021-09-02T09:27:34Z</time>
      </trkpt>
      <trkpt lat="44.29379" lon="2.18954">
        <ele>544</ele>
        <time>2021-09-02T09:27:39Z</time>
      </trkpt>
      <trkpt lat="44.29374" lon="2.18958">
        <ele>544</ele>
        <time>2021-09-02T09:27:40Z</time>
      </trkpt>
      <trkpt lat="44.29369" lon="2.18963">
        <ele>544</ele>
        <time>2021-09-02T09:27:41Z</time>
      </trkpt>
      <trkpt lat="44.29317" lon="2.19034">
        <ele>539</ele>
        <time>2021-09-02T09:27:50Z</time>
      </trkpt>
      <trkpt lat="44.29253" lon="2.19086">
        <ele>536</ele>
        <time>2021-09-02T09:27:59Z</time>
      </trkpt>
      <trkpt lat="44.29208" lon="2.19107">
        <ele>535</ele>
        <time>2021-09-02T09:28:05Z</time>
      </trkpt>
      <trkpt lat="44.29174" lon="2.19111">
        <ele>534</ele>
        <time>2021-09-02T09:28:09Z</time>
      </trkpt>
      <trkpt lat="44.29142" lon="2.19117">
        <ele>533</ele>
        <time>2021-09-02T09:28:13Z</time>
      </trkpt>
      <trkpt lat="44.2913" lon="2.19118">
        <ele>532</ele>
        <time>2021-09-02T09:28:15Z</time>
      </trkpt>
      <trkpt lat="44.29124" lon="2.1912">
        <ele>532</ele>
        <time>2021-09-02T09:28:16Z</time>
      </trkpt>
      <trkpt lat="44.29118" lon="2.19123">
        <ele>532</ele>
        <time>2021-09-02T09:28:17Z</time>
      </trkpt>
      <trkpt lat="44.29108" lon="2.19133">
        <ele>531</ele>
        <time>2021-09-02T09:28:19Z</time>
      </trkpt>
      <trkpt lat="44.29081" lon="2.19176">
        <ele>528</ele>
        <time>2021-09-02T09:28:25Z</time>
      </trkpt>
      <trkpt lat="44.29068" lon="2.19189">
        <ele>526</ele>
        <time>2021-09-02T09:28:27Z</time>
      </trkpt>
      <trkpt lat="44.29052" lon="2.19197">
        <ele>524</ele>
        <time>2021-09-02T09:28:29Z</time>
      </trkpt>
      <trkpt lat="44.29018" lon="2.19211">
        <ele>519</ele>
        <time>2021-09-02T09:28:33Z</time>
      </trkpt>
      <trkpt lat="44.28962" lon="2.19232">
        <ele>513</ele>
        <time>2021-09-02T09:28:39Z</time>
      </trkpt>
      <trkpt lat="44.28892" lon="2.19245">
        <ele>508</ele>
        <time>2021-09-02T09:28:50Z</time>
      </trkpt>
      <trkpt lat="44.28885" lon="2.19241">
        <ele>514</ele>
        <time>2021-09-02T09:28:53Z</time>
      </trkpt>
      <trkpt lat="44.28882" lon="2.19233">
        <ele>514</ele>
        <time>2021-09-02T09:28:55Z</time>
      </trkpt>
      <trkpt lat="44.28881" lon="2.19226">
        <ele>513</ele>
        <time>2021-09-02T09:28:57Z</time>
      </trkpt>
      <trkpt lat="44.28879" lon="2.19218">
        <ele>513</ele>
        <time>2021-09-02T09:29:00Z</time>
      </trkpt>
      <trkpt lat="44.28877" lon="2.1921">
        <ele>514</ele>
        <time>2021-09-02T09:29:03Z</time>
      </trkpt>
      <trkpt lat="44.28878" lon="2.19194">
        <ele>517</ele>
        <time>2021-09-02T09:29:10Z</time>
      </trkpt>
      <trkpt lat="44.28874" lon="2.19163">
        <ele>520</ele>
        <time>2021-09-02T09:29:22Z</time>
      </trkpt>
      <trkpt lat="44.2887" lon="2.19148">
        <ele>521</ele>
        <time>2021-09-02T09:29:28Z</time>
      </trkpt>
      <trkpt lat="44.28867" lon="2.1914">
        <ele>521</ele>
        <time>2021-09-02T09:29:31Z</time>
      </trkpt>
      <trkpt lat="44.28861" lon="2.19128">
        <ele>523</ele>
        <time>2021-09-02T09:29:36Z</time>
      </trkpt>
      <trkpt lat="44.28856" lon="2.19123">
        <ele>524</ele>
        <time>2021-09-02T09:29:39Z</time>
      </trkpt>
      <trkpt lat="44.28851" lon="2.19118">
        <ele>525</ele>
        <time>2021-09-02T09:29:42Z</time>
      </trkpt>
      <trkpt lat="44.28842" lon="2.19114">
        <ele>524</ele>
        <time>2021-09-02T09:29:46Z</time>
      </trkpt>
      <trkpt lat="44.28829" lon="2.19114">
        <ele>522</ele>
        <time>2021-09-02T09:29:52Z</time>
      </trkpt>
      <trkpt lat="44.28823" lon="2.19116">
        <ele>522</ele>
        <time>2021-09-02T09:29:55Z</time>
      </trkpt>
      <trkpt lat="44.28807" lon="2.19126">
        <ele>520</ele>
        <time>2021-09-02T09:30:03Z</time>
      </trkpt>
      <trkpt lat="44.28795" lon="2.19127">
        <ele>520</ele>
        <time>2021-09-02T09:30:08Z</time>
      </trkpt>
      <trkpt lat="44.28791" lon="2.19126">
        <ele>522</ele>
        <time>2021-09-02T09:30:10Z</time>
      </trkpt>
      <trkpt lat="44.28787" lon="2.19122">
        <ele>524</ele>
        <time>2021-09-02T09:30:12Z</time>
      </trkpt>
      <trkpt lat="44.28786" lon="2.19115">
        <ele>527</ele>
        <time>2021-09-02T09:30:14Z</time>
      </trkpt>
      <trkpt lat="44.28792" lon="2.19085">
        <ele>532</ele>
        <time>2021-09-02T09:30:25Z</time>
      </trkpt>
      <trkpt lat="44.28793" lon="2.19078">
        <ele>533</ele>
        <time>2021-09-02T09:30:28Z</time>
      </trkpt>
      <trkpt lat="44.28784" lon="2.19049">
        <ele>532</ele>
        <time>2021-09-02T09:30:40Z</time>
      </trkpt>
      <trkpt lat="44.28774" lon="2.19033">
        <ele>531</ele>
        <time>2021-09-02T09:30:49Z</time>
      </trkpt>
      <trkpt lat="44.28761" lon="2.19021">
        <ele>528</ele>
        <time>2021-09-02T09:30:59Z</time>
      </trkpt>
      <trkpt lat="44.28757" lon="2.19016">
        <ele>528</ele>
        <time>2021-09-02T09:31:02Z</time>
      </trkpt>
      <trkpt lat="44.28731" lon="2.1899">
        <ele>522</ele>
        <time>2021-09-02T09:31:20Z</time>
      </trkpt>
      <trkpt lat="44.28698" lon="2.1898">
        <ele>519</ele>
        <time>2021-09-02T09:31:39Z</time>
      </trkpt>
      <trkpt lat="44.28693" lon="2.18978">
        <ele>519</ele>
        <time>2021-09-02T09:31:42Z</time>
      </trkpt>
      <trkpt lat="44.28688" lon="2.18977">
        <ele>519</ele>
        <time>2021-09-02T09:31:45Z</time>
      </trkpt>
      <trkpt lat="44.28656" lon="2.18981">
        <ele>519</ele>
        <time>2021-09-02T09:32:04Z</time>
      </trkpt>
      <trkpt lat="44.28651" lon="2.1898">
        <ele>521</ele>
        <time>2021-09-02T09:32:07Z</time>
      </trkpt>
      <trkpt lat="44.28646" lon="2.18978">
        <ele>522</ele>
        <time>2021-09-02T09:32:10Z</time>
      </trkpt>
      <trkpt lat="44.28636" lon="2.18972">
        <ele>523</ele>
        <time>2021-09-02T09:32:16Z</time>
      </trkpt>
      <trkpt lat="44.28619" lon="2.1897">
        <ele>529</ele>
        <time>2021-09-02T09:32:25Z</time>
      </trkpt>
      <trkpt lat="44.28586" lon="2.18976">
        <ele>531</ele>
        <time>2021-09-02T09:32:42Z</time>
      </trkpt>
      <trkpt lat="44.28581" lon="2.18979">
        <ele>533</ele>
        <time>2021-09-02T09:32:44Z</time>
      </trkpt>
      <trkpt lat="44.28577" lon="2.18983">
        <ele>534</ele>
        <time>2021-09-02T09:32:46Z</time>
      </trkpt>
      <trkpt lat="44.28555" lon="2.19003">
        <ele>537</ele>
        <time>2021-09-02T09:33:01Z</time>
      </trkpt>
      <trkpt lat="44.28532" lon="2.19014">
        <ele>541</ele>
        <time>2021-09-02T09:33:13Z</time>
      </trkpt>
      <trkpt lat="44.28522" lon="2.19015">
        <ele>544</ele>
        <time>2021-09-02T09:33:18Z</time>
      </trkpt>
      <trkpt lat="44.28512" lon="2.19013">
        <ele>547</ele>
        <time>2021-09-02T09:33:23Z</time>
      </trkpt>
      <trkpt lat="44.28506" lon="2.19011">
        <ele>549</ele>
        <time>2021-09-02T09:33:26Z</time>
      </trkpt>
      <trkpt lat="44.28494" lon="2.18997">
        <ele>550</ele>
        <time>2021-09-02T09:33:35Z</time>
      </trkpt>
      <trkpt lat="44.28484" lon="2.18988">
        <ele>550</ele>
        <time>2021-09-02T09:33:41Z</time>
      </trkpt>
      <trkpt lat="44.28473" lon="2.18985">
        <ele>550</ele>
        <time>2021-09-02T09:33:47Z</time>
      </trkpt>
      <trkpt lat="44.28452" lon="2.18988">
        <ele>553</ele>
        <time>2021-09-02T09:33:57Z</time>
      </trkpt>
      <trkpt lat="44.28408" lon="2.19009">
        <ele>557</ele>
        <time>2021-09-02T09:34:21Z</time>
      </trkpt>
      <trkpt lat="44.28372" lon="2.19038">
        <ele>561</ele>
        <time>2021-09-02T09:34:42Z</time>
      </trkpt>
      <trkpt lat="44.28367" lon="2.19041">
        <ele>562</ele>
        <time>2021-09-02T09:34:45Z</time>
      </trkpt>
      <trkpt lat="44.28357" lon="2.19043">
        <ele>564</ele>
        <time>2021-09-02T09:34:49Z</time>
      </trkpt>
      <trkpt lat="44.28352" lon="2.19039">
        <ele>567</ele>
        <time>2021-09-02T09:34:52Z</time>
      </trkpt>
      <trkpt lat="44.2834" lon="2.19022">
        <ele>569</ele>
        <time>2021-09-02T09:35:02Z</time>
      </trkpt>
      <trkpt lat="44.28332" lon="2.19012">
        <ele>571</ele>
        <time>2021-09-02T09:35:08Z</time>
      </trkpt>
      <trkpt lat="44.28314" lon="2.19008">
        <ele>570</ele>
        <time>2021-09-02T09:35:17Z</time>
      </trkpt>
      <trkpt lat="44.28295" lon="2.19015">
        <ele>571</ele>
        <time>2021-09-02T09:35:27Z</time>
      </trkpt>
      <trkpt lat="44.2828" lon="2.19025">
        <ele>573</ele>
        <time>2021-09-02T09:35:34Z</time>
      </trkpt>
      <trkpt lat="44.28269" lon="2.19034">
        <ele>577</ele>
        <time>2021-09-02T09:35:40Z</time>
      </trkpt>
      <trkpt lat="44.2823" lon="2.19091">
        <ele>583</ele>
        <time>2021-09-02T09:36:10Z</time>
      </trkpt>
      <trkpt lat="44.28192" lon="2.19155">
        <ele>592</ele>
        <time>2021-09-02T09:36:43Z</time>
      </trkpt>
      <trkpt lat="44.28183" lon="2.19172">
        <ele>594</ele>
        <time>2021-09-02T09:36:52Z</time>
      </trkpt>
      <trkpt lat="44.28176" lon="2.19193">
        <ele>597</ele>
        <time>2021-09-02T09:37:01Z</time>
      </trkpt>
      <trkpt lat="44.28174" lon="2.1921">
        <ele>599</ele>
        <time>2021-09-02T09:37:07Z</time>
      </trkpt>
      <trkpt lat="44.28176" lon="2.19227">
        <ele>600</ele>
        <time>2021-09-02T09:37:13Z</time>
      </trkpt>
      <trkpt lat="44.28194" lon="2.19258">
        <ele>603</ele>
        <time>2021-09-02T09:37:28Z</time>
      </trkpt>
      <trkpt lat="44.28224" lon="2.19297">
        <ele>605</ele>
        <time>2021-09-02T09:37:49Z</time>
      </trkpt>
      <trkpt lat="44.28245" lon="2.19322">
        <ele>607</ele>
        <time>2021-09-02T09:38:04Z</time>
      </trkpt>
      <trkpt lat="44.28254" lon="2.19334">
        <ele>608</ele>
        <time>2021-09-02T09:38:10Z</time>
      </trkpt>
      <trkpt lat="44.28285" lon="2.19377">
        <ele>613</ele>
        <time>2021-09-02T09:38:31Z</time>
      </trkpt>
      <trkpt lat="44.28288" lon="2.19383">
        <ele>613</ele>
        <time>2021-09-02T09:38:33Z</time>
      </trkpt>
      <trkpt lat="44.2829" lon="2.194">
        <ele>611</ele>
        <time>2021-09-02T09:38:39Z</time>
      </trkpt>
      <trkpt lat="44.28279" lon="2.1945">
        <ele>609</ele>
        <time>2021-09-02T09:38:55Z</time>
      </trkpt>
      <trkpt lat="44.28281" lon="2.19473">
        <ele>606</ele>
        <time>2021-09-02T09:39:04Z</time>
      </trkpt>
      <trkpt lat="44.28282" lon="2.19482">
        <ele>606</ele>
        <time>2021-09-02T09:39:07Z</time>
      </trkpt>
      <trkpt lat="44.28283" lon="2.1949">
        <ele>605</ele>
        <time>2021-09-02T09:39:10Z</time>
      </trkpt>
      <trkpt lat="44.28285" lon="2.19519">
        <ele>601</ele>
        <time>2021-09-02T09:39:19Z</time>
      </trkpt>
      <trkpt lat="44.28286" lon="2.19525">
        <ele>600</ele>
        <time>2021-09-02T09:39:21Z</time>
      </trkpt>
      <trkpt lat="44.28286" lon="2.19533">
        <ele>599</ele>
        <time>2021-09-02T09:39:23Z</time>
      </trkpt>
      <trkpt lat="44.28285" lon="2.19547">
        <ele>601</ele>
        <time>2021-09-02T09:39:27Z</time>
      </trkpt>
      <trkpt lat="44.28282" lon="2.19555">
        <ele>602</ele>
        <time>2021-09-02T09:39:30Z</time>
      </trkpt>
      <trkpt lat="44.28278" lon="2.19561">
        <ele>602</ele>
        <time>2021-09-02T09:39:33Z</time>
      </trkpt>
      <trkpt lat="44.28272" lon="2.19564">
        <ele>601</ele>
        <time>2021-09-02T09:39:36Z</time>
      </trkpt>
      <trkpt lat="44.28253" lon="2.19569">
        <ele>601</ele>
        <time>2021-09-02T09:39:43Z</time>
      </trkpt>
      <trkpt lat="44.2824" lon="2.19573">
        <ele>600</ele>
        <time>2021-09-02T09:39:47Z</time>
      </trkpt>
      <trkpt lat="44.28222" lon="2.19576">
        <ele>599</ele>
        <time>2021-09-02T09:39:53Z</time>
      </trkpt>
      <trkpt lat="44.28197" lon="2.19576">
        <ele>600</ele>
        <time>2021-09-02T09:40:01Z</time>
      </trkpt>
      <trkpt lat="44.28164" lon="2.19575">
        <ele>606</ele>
        <time>2021-09-02T09:40:11Z</time>
      </trkpt>
      <trkpt lat="44.28151" lon="2.19579">
        <ele>607</ele>
        <time>2021-09-02T09:40:15Z</time>
      </trkpt>
      <trkpt lat="44.28138" lon="2.19587">
        <ele>608</ele>
        <time>2021-09-02T09:40:19Z</time>
      </trkpt>
      <trkpt lat="44.28125" lon="2.19598">
        <ele>610</ele>
        <time>2021-09-02T09:40:23Z</time>
      </trkpt>
      <trkpt lat="44.2807" lon="2.19692">
        <ele>621</ele>
        <time>2021-09-02T09:40:55Z</time>
      </trkpt>
      <trkpt lat="44.2804" lon="2.19748">
        <ele>623</ele>
        <time>2021-09-02T09:41:15Z</time>
      </trkpt>
      <trkpt lat="44.28036" lon="2.19754">
        <ele>624</ele>
        <time>2021-09-02T09:41:18Z</time>
      </trkpt>
      <trkpt lat="44.28035" lon="2.19758">
        <ele>625</ele>
        <time>2021-09-02T09:43:08Z</time>
      </trkpt>
      <trkpt lat="44.28039" lon="2.19763">
        <ele>625</ele>
        <time>2021-09-02T09:43:10Z</time>
      </trkpt>
      <trkpt lat="44.2808" lon="2.19796">
        <ele>630</ele>
        <time>2021-09-02T09:43:23Z</time>
      </trkpt>
      <trkpt lat="44.28107" lon="2.19824">
        <ele>632</ele>
        <time>2021-09-02T09:43:31Z</time>
      </trkpt>
      <trkpt lat="44.28122" lon="2.19852">
        <ele>634</ele>
        <time>2021-09-02T09:43:37Z</time>
      </trkpt>
      <trkpt lat="44.2813" lon="2.19882">
        <ele>634</ele>
        <time>2021-09-02T09:43:43Z</time>
      </trkpt>
      <trkpt lat="44.28149" lon="2.20023">
        <ele>635</ele>
        <time>2021-09-02T09:44:11Z</time>
      </trkpt>
      <trkpt lat="44.28163" lon="2.20057">
        <ele>636</ele>
        <time>2021-09-02T09:44:19Z</time>
      </trkpt>
      <trkpt lat="44.28258" lon="2.20168">
        <ele>637</ele>
        <time>2021-09-02T09:44:50Z</time>
      </trkpt>
      <trkpt lat="44.2832" lon="2.20238">
        <ele>638</ele>
        <time>2021-09-02T09:45:10Z</time>
      </trkpt>
      <trkpt lat="44.28329" lon="2.20257">
        <ele>637</ele>
        <time>2021-09-02T09:45:14Z</time>
      </trkpt>
      <trkpt lat="44.28331" lon="2.20278">
        <ele>638</ele>
        <time>2021-09-02T09:45:18Z</time>
      </trkpt>
      <trkpt lat="44.28318" lon="2.20438">
        <ele>642</ele>
        <time>2021-09-02T09:45:50Z</time>
      </trkpt>
      <trkpt lat="44.28298" lon="2.20582">
        <ele>646</ele>
        <time>2021-09-02T09:46:22Z</time>
      </trkpt>
      <trkpt lat="44.28285" lon="2.20711">
        <ele>650</ele>
        <time>2021-09-02T09:46:52Z</time>
      </trkpt>
      <trkpt lat="44.28274" lon="2.20832">
        <ele>652</ele>
        <time>2021-09-02T09:47:20Z</time>
      </trkpt>
      <trkpt lat="44.28264" lon="2.20921">
        <ele>653</ele>
        <time>2021-09-02T09:47:42Z</time>
      </trkpt>
      <trkpt lat="44.28256" lon="2.20996">
        <ele>655</ele>
        <time>2021-09-02T09:48:00Z</time>
      </trkpt>
      <trkpt lat="44.2827" lon="2.21087">
        <ele>662</ele>
        <time>2021-09-02T09:48:26Z</time>
      </trkpt>
      <trkpt lat="44.28271" lon="2.21093">
        <ele>662</ele>
        <time>2021-09-02T09:48:28Z</time>
      </trkpt>
      <trkpt lat="44.28282" lon="2.21194">
        <ele>669</ele>
        <time>2021-09-02T09:48:58Z</time>
      </trkpt>
      <trkpt lat="44.28287" lon="2.21262">
        <ele>671</ele>
        <time>2021-09-02T09:49:20Z</time>
      </trkpt>
      <trkpt lat="44.28288" lon="2.21268">
        <ele>671</ele>
        <time>2021-09-02T09:49:22Z</time>
      </trkpt>
      <trkpt lat="44.28287" lon="2.21283">
        <ele>669</ele>
        <time>2021-09-02T09:49:27Z</time>
      </trkpt>
      <trkpt lat="44.28289" lon="2.21288">
        <ele>670</ele>
        <time>2021-09-02T09:49:30Z</time>
      </trkpt>
      <trkpt lat="44.28294" lon="2.21292">
        <ele>674</ele>
        <time>2021-09-02T09:49:58Z</time>
      </trkpt>
      <trkpt lat="44.28301" lon="2.21337">
        <ele>675</ele>
        <time>2021-09-02T09:50:08Z</time>
      </trkpt>
      <trkpt lat="44.28301" lon="2.21358">
        <ele>675</ele>
        <time>2021-09-02T09:50:12Z</time>
      </trkpt>
      <trkpt lat="44.28316" lon="2.21456">
        <ele>673</ele>
        <time>2021-09-02T09:50:34Z</time>
      </trkpt>
      <trkpt lat="44.28334" lon="2.2159">
        <ele>676</ele>
        <time>2021-09-02T09:51:06Z</time>
      </trkpt>
      <trkpt lat="44.28349" lon="2.21713">
        <ele>678</ele>
        <time>2021-09-02T09:51:36Z</time>
      </trkpt>
      <trkpt lat="44.28365" lon="2.21837">
        <ele>682</ele>
        <time>2021-09-02T09:52:06Z</time>
      </trkpt>
      <trkpt lat="44.28376" lon="2.2192">
        <ele>682</ele>
        <time>2021-09-02T09:52:26Z</time>
      </trkpt>
      <trkpt lat="44.28395" lon="2.21971">
        <ele>683</ele>
        <time>2021-09-02T09:52:40Z</time>
      </trkpt>
      <trkpt lat="44.28412" lon="2.22007">
        <ele>680</ele>
        <time>2021-09-02T09:52:50Z</time>
      </trkpt>
      <trkpt lat="44.28428" lon="2.22064">
        <ele>681</ele>
        <time>2021-09-02T09:53:04Z</time>
      </trkpt>
      <trkpt lat="44.28428" lon="2.22098">
        <ele>682</ele>
        <time>2021-09-02T09:53:12Z</time>
      </trkpt>
      <trkpt lat="44.28428" lon="2.222">
        <ele>687</ele>
        <time>2021-09-02T09:53:42Z</time>
      </trkpt>
      <trkpt lat="44.28424" lon="2.22273">
        <ele>687</ele>
        <time>2021-09-02T09:54:03Z</time>
      </trkpt>
      <trkpt lat="44.28414" lon="2.22307">
        <ele>687</ele>
        <time>2021-09-02T09:54:14Z</time>
      </trkpt>
      <trkpt lat="44.28409" lon="2.2232">
        <ele>688</ele>
        <time>2021-09-02T09:54:18Z</time>
      </trkpt>
      <trkpt lat="44.28391" lon="2.22341">
        <ele>688</ele>
        <time>2021-09-02T09:54:28Z</time>
      </trkpt>
      <trkpt lat="44.2836" lon="2.22358">
        <ele>691</ele>
        <time>2021-09-02T09:54:42Z</time>
      </trkpt>
      <trkpt lat="44.28315" lon="2.22361">
        <ele>696</ele>
        <time>2021-09-02T09:55:00Z</time>
      </trkpt>
      <trkpt lat="44.28299" lon="2.22359">
        <ele>697</ele>
        <time>2021-09-02T09:55:06Z</time>
      </trkpt>
      <trkpt lat="44.28262" lon="2.22362">
        <ele>700</ele>
        <time>2021-09-02T09:55:21Z</time>
      </trkpt>
      <trkpt lat="44.28247" lon="2.22371">
        <ele>699</ele>
        <time>2021-09-02T09:55:28Z</time>
      </trkpt>
      <trkpt lat="44.28235" lon="2.22386">
        <ele>700</ele>
        <time>2021-09-02T09:55:34Z</time>
      </trkpt>
      <trkpt lat="44.28205" lon="2.22464">
        <ele>703</ele>
        <time>2021-09-02T09:55:58Z</time>
      </trkpt>
      <trkpt lat="44.2818" lon="2.22564">
        <ele>707</ele>
        <time>2021-09-02T09:56:28Z</time>
      </trkpt>
      <trkpt lat="44.28162" lon="2.2267">
        <ele>712</ele>
        <time>2021-09-02T09:56:59Z</time>
      </trkpt>
      <trkpt lat="44.28155" lon="2.2275">
        <ele>714</ele>
        <time>2021-09-02T09:57:21Z</time>
      </trkpt>
      <trkpt lat="44.28156" lon="2.22757">
        <ele>714</ele>
        <time>2021-09-02T09:57:23Z</time>
      </trkpt>
      <trkpt lat="44.28153" lon="2.2277">
        <ele>715</ele>
        <time>2021-09-02T09:57:27Z</time>
      </trkpt>
      <trkpt lat="44.28147" lon="2.22781">
        <ele>713</ele>
        <time>2021-09-02T09:58:31Z</time>
      </trkpt>
      <trkpt lat="44.2806" lon="2.22845">
        <ele>705</ele>
        <time>2021-09-02T09:58:54Z</time>
      </trkpt>
      <trkpt lat="44.28032" lon="2.22857">
        <ele>704</ele>
        <time>2021-09-02T09:58:58Z</time>
      </trkpt>
      <trkpt lat="44.27848" lon="2.2284">
        <ele>694</ele>
        <time>2021-09-02T09:59:22Z</time>
      </trkpt>
      <trkpt lat="44.27651" lon="2.22826">
        <ele>684</ele>
        <time>2021-09-02T09:59:46Z</time>
      </trkpt>
      <trkpt lat="44.27618" lon="2.22833">
        <ele>684</ele>
        <time>2021-09-02T09:59:51Z</time>
      </trkpt>
      <trkpt lat="44.27492" lon="2.2289">
        <ele>679</ele>
        <time>2021-09-02T10:00:06Z</time>
      </trkpt>
      <trkpt lat="44.27475" lon="2.22892">
        <ele>678</ele>
        <time>2021-09-02T10:00:08Z</time>
      </trkpt>
      <trkpt lat="44.27442" lon="2.22881">
        <ele>677</ele>
        <time>2021-09-02T10:00:12Z</time>
      </trkpt>
      <trkpt lat="44.27244" lon="2.22767">
        <ele>671</ele>
        <time>2021-09-02T10:00:42Z</time>
      </trkpt>
      <trkpt lat="44.27068" lon="2.22626">
        <ele>667</ele>
        <time>2021-09-02T10:01:12Z</time>
      </trkpt>
      <trkpt lat="44.26946" lon="2.22512">
        <ele>662</ele>
        <time>2021-09-02T10:01:32Z</time>
      </trkpt>
      <trkpt lat="44.26923" lon="2.22505">
        <ele>660</ele>
        <time>2021-09-02T10:01:35Z</time>
      </trkpt>
      <trkpt lat="44.26894" lon="2.22509">
        <ele>659</ele>
        <time>2021-09-02T10:01:39Z</time>
      </trkpt>
      <trkpt lat="44.26691" lon="2.22575">
        <ele>652</ele>
        <time>2021-09-02T10:02:09Z</time>
      </trkpt>
      <trkpt lat="44.26574" lon="2.2258">
        <ele>647</ele>
        <time>2021-09-02T10:02:25Z</time>
      </trkpt>
      <trkpt lat="44.26421" lon="2.22561">
        <ele>644</ele>
        <time>2021-09-02T10:02:54Z</time>
      </trkpt>
      <trkpt lat="44.26345" lon="2.2254">
        <ele>641</ele>
        <time>2021-09-02T10:03:10Z</time>
      </trkpt>
      <trkpt lat="44.26209" lon="2.22522">
        <ele>638</ele>
        <time>2021-09-02T10:03:40Z</time>
      </trkpt>
      <trkpt lat="44.26173" lon="2.22519">
        <ele>639</ele>
        <time>2021-09-02T10:03:47Z</time>
      </trkpt>
      <trkpt lat="44.26169" lon="2.22517">
        <ele>640</ele>
        <time>2021-09-02T10:03:48Z</time>
      </trkpt>
      <trkpt lat="44.26161" lon="2.22515">
        <ele>639</ele>
        <time>2021-09-02T10:03:50Z</time>
      </trkpt>
      <trkpt lat="44.26156" lon="2.22513">
        <ele>639</ele>
        <time>2021-09-02T10:03:51Z</time>
      </trkpt>
      <trkpt lat="44.26152" lon="2.22511">
        <ele>638</ele>
        <time>2021-09-02T10:03:52Z</time>
      </trkpt>
      <trkpt lat="44.26134" lon="2.2251">
        <ele>636</ele>
        <time>2021-09-02T10:03:56Z</time>
      </trkpt>
      <trkpt lat="44.26129" lon="2.22509">
        <ele>636</ele>
        <time>2021-09-02T10:03:57Z</time>
      </trkpt>
      <trkpt lat="44.26066" lon="2.22519">
        <ele>627</ele>
        <time>2021-09-02T10:04:06Z</time>
      </trkpt>
      <trkpt lat="44.25881" lon="2.22621">
        <ele>625</ele>
        <time>2021-09-02T10:04:37Z</time>
      </trkpt>
      <trkpt lat="44.25737" lon="2.22708">
        <ele>621</ele>
        <time>2021-09-02T10:05:07Z</time>
      </trkpt>
      <trkpt lat="44.2557" lon="2.22795">
        <ele>616</ele>
        <time>2021-09-02T10:05:37Z</time>
      </trkpt>
      <trkpt lat="44.2543" lon="2.22844">
        <ele>611</ele>
        <time>2021-09-02T10:06:01Z</time>
      </trkpt>
      <trkpt lat="44.25302" lon="2.22914">
        <ele>601</ele>
        <time>2021-09-02T10:06:22Z</time>
      </trkpt>
      <trkpt lat="44.25183" lon="2.22941">
        <ele>597</ele>
        <time>2021-09-02T10:06:41Z</time>
      </trkpt>
      <trkpt lat="44.25138" lon="2.2294">
        <ele>599</ele>
        <time>2021-09-02T10:06:48Z</time>
      </trkpt>
      <trkpt lat="44.25102" lon="2.22925">
        <ele>601</ele>
        <time>2021-09-02T10:06:54Z</time>
      </trkpt>
      <trkpt lat="44.25038" lon="2.22886">
        <ele>602</ele>
        <time>2021-09-02T10:07:06Z</time>
      </trkpt>
      <trkpt lat="44.24841" lon="2.22827">
        <ele>594</ele>
        <time>2021-09-02T10:07:37Z</time>
      </trkpt>
      <trkpt lat="44.24768" lon="2.22805">
        <ele>593</ele>
        <time>2021-09-02T10:08:44Z</time>
      </trkpt>
      <trkpt lat="44.24617" lon="2.22763">
        <ele>590</ele>
        <time>2021-09-02T10:09:15Z</time>
      </trkpt>
      <trkpt lat="44.24422" lon="2.22721">
        <ele>589</ele>
        <time>2021-09-02T10:09:46Z</time>
      </trkpt>
      <trkpt lat="44.24316" lon="2.22694">
        <ele>587</ele>
        <time>2021-09-02T10:10:09Z</time>
      </trkpt>
      <trkpt lat="44.24255" lon="2.22661">
        <ele>587</ele>
        <time>2021-09-02T10:10:21Z</time>
      </trkpt>
      <trkpt lat="44.24224" lon="2.2263">
        <ele>588</ele>
        <time>2021-09-02T10:10:28Z</time>
      </trkpt>
      <trkpt lat="44.2414" lon="2.22511">
        <ele>588</ele>
        <time>2021-09-02T10:10:52Z</time>
      </trkpt>
      <trkpt lat="44.24134" lon="2.22508">
        <ele>588</ele>
        <time>2021-09-02T10:10:54Z</time>
      </trkpt>
      <trkpt lat="44.2413" lon="2.2251">
        <ele>587</ele>
        <time>2021-09-02T10:10:57Z</time>
      </trkpt>
      <trkpt lat="44.24126" lon="2.22524">
        <ele>588</ele>
        <time>2021-09-02T10:11:40Z</time>
      </trkpt>
      <trkpt lat="44.24105" lon="2.22637">
        <ele>582</ele>
        <time>2021-09-02T10:11:59Z</time>
      </trkpt>
      <trkpt lat="44.24097" lon="2.22668">
        <ele>581</ele>
        <time>2021-09-02T10:12:04Z</time>
      </trkpt>
      <trkpt lat="44.24089" lon="2.22715">
        <ele>580</ele>
        <time>2021-09-02T10:12:11Z</time>
      </trkpt>
      <trkpt lat="44.24096" lon="2.22796">
        <ele>573</ele>
        <time>2021-09-02T10:12:23Z</time>
      </trkpt>
      <trkpt lat="44.24095" lon="2.22812">
        <ele>572</ele>
        <time>2021-09-02T10:12:25Z</time>
      </trkpt>
      <trkpt lat="44.24092" lon="2.22819">
        <ele>571</ele>
        <time>2021-09-02T10:12:26Z</time>
      </trkpt>
      <trkpt lat="44.24085" lon="2.22831">
        <ele>571</ele>
        <time>2021-09-02T10:12:28Z</time>
      </trkpt>
      <trkpt lat="44.24053" lon="2.22851">
        <ele>566</ele>
        <time>2021-09-02T10:12:35Z</time>
      </trkpt>
      <trkpt lat="44.24041" lon="2.22857">
        <ele>564</ele>
        <time>2021-09-02T10:12:39Z</time>
      </trkpt>
      <trkpt lat="44.24036" lon="2.2286">
        <ele>563</ele>
        <time>2021-09-02T10:12:41Z</time>
      </trkpt>
      <trkpt lat="44.23981" lon="2.22884">
        <ele>551</ele>
        <time>2021-09-02T10:12:51Z</time>
      </trkpt>
      <trkpt lat="44.23946" lon="2.22883">
        <ele>551</ele>
        <time>2021-09-02T10:12:56Z</time>
      </trkpt>
      <trkpt lat="44.23879" lon="2.22862">
        <ele>548</ele>
        <time>2021-09-02T10:13:08Z</time>
      </trkpt>
      <trkpt lat="44.23862" lon="2.22859">
        <ele>546</ele>
        <time>2021-09-02T10:13:11Z</time>
      </trkpt>
      <trkpt lat="44.23842" lon="2.22863">
        <ele>544</ele>
        <time>2021-09-02T10:13:14Z</time>
      </trkpt>
      <trkpt lat="44.23822" lon="2.22874">
        <ele>542</ele>
        <time>2021-09-02T10:13:17Z</time>
      </trkpt>
      <trkpt lat="44.23806" lon="2.22894">
        <ele>541</ele>
        <time>2021-09-02T10:13:20Z</time>
      </trkpt>
      <trkpt lat="44.23798" lon="2.2291">
        <ele>539</ele>
        <time>2021-09-02T10:13:22Z</time>
      </trkpt>
      <trkpt lat="44.23792" lon="2.22939">
        <ele>536</ele>
        <time>2021-09-02T10:13:25Z</time>
      </trkpt>
      <trkpt lat="44.2379" lon="2.22958">
        <ele>535</ele>
        <time>2021-09-02T10:13:27Z</time>
      </trkpt>
      <trkpt lat="44.23785" lon="2.22976">
        <ele>534</ele>
        <time>2021-09-02T10:13:29Z</time>
      </trkpt>
      <trkpt lat="44.23776" lon="2.22993">
        <ele>533</ele>
        <time>2021-09-02T10:13:31Z</time>
      </trkpt>
      <trkpt lat="44.23605" lon="2.23165">
        <ele>523</ele>
        <time>2021-09-02T10:13:58Z</time>
      </trkpt>
      <trkpt lat="44.23597" lon="2.2318">
        <ele>523</ele>
        <time>2021-09-02T10:14:00Z</time>
      </trkpt>
      <trkpt lat="44.23586" lon="2.2323">
        <ele>523</ele>
        <time>2021-09-02T10:14:05Z</time>
      </trkpt>
      <trkpt lat="44.23569" lon="2.234">
        <ele>517</ele>
        <time>2021-09-02T10:14:21Z</time>
      </trkpt>
      <trkpt lat="44.2357" lon="2.23408">
        <ele>517</ele>
        <time>2021-09-02T10:14:22Z</time>
      </trkpt>
      <trkpt lat="44.23572" lon="2.23415">
        <ele>516</ele>
        <time>2021-09-02T10:14:23Z</time>
      </trkpt>
      <trkpt lat="44.23575" lon="2.23421">
        <ele>516</ele>
        <time>2021-09-02T10:14:24Z</time>
      </trkpt>
      <trkpt lat="44.2358" lon="2.23427">
        <ele>515</ele>
        <time>2021-09-02T10:14:25Z</time>
      </trkpt>
      <trkpt lat="44.2359" lon="2.23436">
        <ele>514</ele>
        <time>2021-09-02T10:14:27Z</time>
      </trkpt>
      <trkpt lat="44.23638" lon="2.23444">
        <ele>512</ele>
        <time>2021-09-02T10:14:34Z</time>
      </trkpt>
      <trkpt lat="44.23653" lon="2.2345">
        <ele>511</ele>
        <time>2021-09-02T10:14:36Z</time>
      </trkpt>
      <trkpt lat="44.2366" lon="2.23455">
        <ele>510</ele>
        <time>2021-09-02T10:14:37Z</time>
      </trkpt>
      <trkpt lat="44.23664" lon="2.2346">
        <ele>510</ele>
        <time>2021-09-02T10:14:38Z</time>
      </trkpt>
      <trkpt lat="44.23666" lon="2.23467">
        <ele>509</ele>
        <time>2021-09-02T10:14:39Z</time>
      </trkpt>
      <trkpt lat="44.23667" lon="2.23486">
        <ele>507</ele>
        <time>2021-09-02T10:14:41Z</time>
      </trkpt>
      <trkpt lat="44.23667" lon="2.23496">
        <ele>507</ele>
        <time>2021-09-02T10:14:42Z</time>
      </trkpt>
      <trkpt lat="44.23666" lon="2.23503">
        <ele>506</ele>
        <time>2021-09-02T10:14:43Z</time>
      </trkpt>
      <trkpt lat="44.23662" lon="2.2351">
        <ele>505</ele>
        <time>2021-09-02T10:14:44Z</time>
      </trkpt>
      <trkpt lat="44.23653" lon="2.23519">
        <ele>504</ele>
        <time>2021-09-02T10:14:46Z</time>
      </trkpt>
      <trkpt lat="44.23637" lon="2.23527">
        <ele>503</ele>
        <time>2021-09-02T10:14:49Z</time>
      </trkpt>
      <trkpt lat="44.23613" lon="2.23534">
        <ele>504</ele>
        <time>2021-09-02T10:14:54Z</time>
      </trkpt>
      <trkpt lat="44.23597" lon="2.23532">
        <ele>502</ele>
        <time>2021-09-02T10:15:00Z</time>
      </trkpt>
      <trkpt lat="44.23579" lon="2.23539">
        <ele>502</ele>
        <time>2021-09-02T10:15:09Z</time>
      </trkpt>
      <trkpt lat="44.23515" lon="2.23586">
        <ele>514</ele>
        <time>2021-09-02T10:15:40Z</time>
      </trkpt>
      <trkpt lat="44.2351" lon="2.23589">
        <ele>515</ele>
        <time>2021-09-02T10:15:43Z</time>
      </trkpt>
      <trkpt lat="44.23464" lon="2.23624">
        <ele>518</ele>
        <time>2021-09-02T10:16:13Z</time>
      </trkpt>
      <trkpt lat="44.23409" lon="2.23661">
        <ele>522</ele>
        <time>2021-09-02T10:16:44Z</time>
      </trkpt>
      <trkpt lat="44.23366" lon="2.23696">
        <ele>525</ele>
        <time>2021-09-02T10:17:02Z</time>
      </trkpt>
      <trkpt lat="44.23357" lon="2.23706">
        <ele>525</ele>
        <time>2021-09-02T10:17:06Z</time>
      </trkpt>
      <trkpt lat="44.23347" lon="2.23725">
        <ele>524</ele>
        <time>2021-09-02T10:17:12Z</time>
      </trkpt>
      <trkpt lat="44.23342" lon="2.23741">
        <ele>523</ele>
        <time>2021-09-02T10:17:16Z</time>
      </trkpt>
      <trkpt lat="44.2334" lon="2.23759">
        <ele>523</ele>
        <time>2021-09-02T10:17:20Z</time>
      </trkpt>
      <trkpt lat="44.23343" lon="2.23789">
        <ele>525</ele>
        <time>2021-09-02T10:17:26Z</time>
      </trkpt>
      <trkpt lat="44.23354" lon="2.23815">
        <ele>525</ele>
        <time>2021-09-02T10:17:31Z</time>
      </trkpt>
      <trkpt lat="44.23433" lon="2.2393">
        <ele>524</ele>
        <time>2021-09-02T10:17:51Z</time>
      </trkpt>
      <trkpt lat="44.23468" lon="2.2396">
        <ele>521</ele>
        <time>2021-09-02T10:17:58Z</time>
      </trkpt>
      <trkpt lat="44.23472" lon="2.23965">
        <ele>521</ele>
        <time>2021-09-02T10:17:59Z</time>
      </trkpt>
      <trkpt lat="44.23476" lon="2.23979">
        <ele>520</ele>
        <time>2021-09-02T10:18:01Z</time>
      </trkpt>
      <trkpt lat="44.23477" lon="2.23987">
        <ele>518</ele>
        <time>2021-09-02T10:18:02Z</time>
      </trkpt>
      <trkpt lat="44.23476" lon="2.23996">
        <ele>518</ele>
        <time>2021-09-02T10:18:03Z</time>
      </trkpt>
      <trkpt lat="44.23475" lon="2.24004">
        <ele>517</ele>
        <time>2021-09-02T10:18:04Z</time>
      </trkpt>
      <trkpt lat="44.23473" lon="2.24013">
        <ele>516</ele>
        <time>2021-09-02T10:18:05Z</time>
      </trkpt>
      <trkpt lat="44.23469" lon="2.24021">
        <ele>516</ele>
        <time>2021-09-02T10:18:06Z</time>
      </trkpt>
      <trkpt lat="44.23454" lon="2.24036">
        <ele>513</ele>
        <time>2021-09-02T10:18:09Z</time>
      </trkpt>
      <trkpt lat="44.23264" lon="2.24126">
        <ele>492</ele>
        <time>2021-09-02T10:18:35Z</time>
      </trkpt>
      <trkpt lat="44.23213" lon="2.24132">
        <ele>488</ele>
        <time>2021-09-02T10:18:42Z</time>
      </trkpt>
      <trkpt lat="44.232" lon="2.2414">
        <ele>486</ele>
        <time>2021-09-02T10:18:44Z</time>
      </trkpt>
      <trkpt lat="44.23189" lon="2.24152">
        <ele>485</ele>
        <time>2021-09-02T10:18:46Z</time>
      </trkpt>
      <trkpt lat="44.23181" lon="2.24168">
        <ele>483</ele>
        <time>2021-09-02T10:18:48Z</time>
      </trkpt>
      <trkpt lat="44.23176" lon="2.24186">
        <ele>482</ele>
        <time>2021-09-02T10:18:50Z</time>
      </trkpt>
      <trkpt lat="44.23174" lon="2.24195">
        <ele>481</ele>
        <time>2021-09-02T10:18:51Z</time>
      </trkpt>
      <trkpt lat="44.23185" lon="2.2427">
        <ele>475</ele>
        <time>2021-09-02T10:18:59Z</time>
      </trkpt>
      <trkpt lat="44.23192" lon="2.24287">
        <ele>474</ele>
        <time>2021-09-02T10:19:01Z</time>
      </trkpt>
      <trkpt lat="44.23205" lon="2.24305">
        <ele>471</ele>
        <time>2021-09-02T10:19:04Z</time>
      </trkpt>
      <trkpt lat="44.23212" lon="2.2432">
        <ele>471</ele>
        <time>2021-09-02T10:19:06Z</time>
      </trkpt>
      <trkpt lat="44.23214" lon="2.24329">
        <ele>470</ele>
        <time>2021-09-02T10:19:07Z</time>
      </trkpt>
      <trkpt lat="44.23215" lon="2.24346">
        <ele>469</ele>
        <time>2021-09-02T10:19:09Z</time>
      </trkpt>
      <trkpt lat="44.2321" lon="2.24365">
        <ele>469</ele>
        <time>2021-09-02T10:19:11Z</time>
      </trkpt>
      <trkpt lat="44.23177" lon="2.24433">
        <ele>469</ele>
        <time>2021-09-02T10:19:19Z</time>
      </trkpt>
      <trkpt lat="44.23171" lon="2.24459">
        <ele>468</ele>
        <time>2021-09-02T10:19:22Z</time>
      </trkpt>
      <trkpt lat="44.23169" lon="2.24506">
        <ele>467</ele>
        <time>2021-09-02T10:19:27Z</time>
      </trkpt>
      <trkpt lat="44.23179" lon="2.24562">
        <ele>464</ele>
        <time>2021-09-02T10:19:33Z</time>
      </trkpt>
      <trkpt lat="44.23181" lon="2.24568">
        <ele>464</ele>
        <time>2021-09-02T10:19:34Z</time>
      </trkpt>
      <trkpt lat="44.23187" lon="2.2458">
        <ele>463</ele>
        <time>2021-09-02T10:19:36Z</time>
      </trkpt>
      <trkpt lat="44.23202" lon="2.24598">
        <ele>462</ele>
        <time>2021-09-02T10:19:40Z</time>
      </trkpt>
      <trkpt lat="44.23226" lon="2.24609">
        <ele>462</ele>
        <time>2021-09-02T10:19:44Z</time>
      </trkpt>
      <trkpt lat="44.2338" lon="2.24582">
        <ele>459</ele>
        <time>2021-09-02T10:20:04Z</time>
      </trkpt>
      <trkpt lat="44.23387" lon="2.24579">
        <ele>458</ele>
        <time>2021-09-02T10:20:05Z</time>
      </trkpt>
      <trkpt lat="44.23392" lon="2.24574">
        <ele>458</ele>
        <time>2021-09-02T10:20:06Z</time>
      </trkpt>
      <trkpt lat="44.23403" lon="2.2456">
        <ele>457</ele>
        <time>2021-09-02T10:20:09Z</time>
      </trkpt>
      <trkpt lat="44.2341" lon="2.24549">
        <ele>456</ele>
        <time>2021-09-02T10:20:11Z</time>
      </trkpt>
      <trkpt lat="44.23416" lon="2.24546">
        <ele>456</ele>
        <time>2021-09-02T10:20:12Z</time>
      </trkpt>
      <trkpt lat="44.23446" lon="2.24562">
        <ele>454</ele>
        <time>2021-09-02T10:20:17Z</time>
      </trkpt>
      <trkpt lat="44.23458" lon="2.24566">
        <ele>453</ele>
        <time>2021-09-02T10:20:19Z</time>
      </trkpt>
      <trkpt lat="44.23465" lon="2.24565">
        <ele>453</ele>
        <time>2021-09-02T10:20:20Z</time>
      </trkpt>
      <trkpt lat="44.23471" lon="2.24566">
        <ele>452</ele>
        <time>2021-09-02T10:20:21Z</time>
      </trkpt>
      <trkpt lat="44.23575" lon="2.24551">
        <ele>442</ele>
        <time>2021-09-02T10:20:36Z</time>
      </trkpt>
      <trkpt lat="44.23594" lon="2.24538">
        <ele>441</ele>
        <time>2021-09-02T10:20:38Z</time>
      </trkpt>
      <trkpt lat="44.23617" lon="2.24533">
        <ele>439</ele>
        <time>2021-09-02T10:20:40Z</time>
      </trkpt>
      <trkpt lat="44.23636" lon="2.24536">
        <ele>435</ele>
        <time>2021-09-02T10:20:42Z</time>
      </trkpt>
      <trkpt lat="44.23693" lon="2.24561">
        <ele>430</ele>
        <time>2021-09-02T10:20:49Z</time>
      </trkpt>
      <trkpt lat="44.23701" lon="2.24567">
        <ele>429</ele>
        <time>2021-09-02T10:20:50Z</time>
      </trkpt>
      <trkpt lat="44.23708" lon="2.24576">
        <ele>430</ele>
        <time>2021-09-02T10:20:51Z</time>
      </trkpt>
      <trkpt lat="44.23713" lon="2.24587">
        <ele>431</ele>
        <time>2021-09-02T10:20:52Z</time>
      </trkpt>
      <trkpt lat="44.23716" lon="2.24598">
        <ele>430</ele>
        <time>2021-09-02T10:20:53Z</time>
      </trkpt>
      <trkpt lat="44.23714" lon="2.24628">
        <ele>430</ele>
        <time>2021-09-02T10:20:55Z</time>
      </trkpt>
      <trkpt lat="44.23688" lon="2.24744">
        <ele>427</ele>
        <time>2021-09-02T10:21:05Z</time>
      </trkpt>
      <trkpt lat="44.23679" lon="2.24759">
        <ele>427</ele>
        <time>2021-09-02T10:21:07Z</time>
      </trkpt>
      <trkpt lat="44.23669" lon="2.24768">
        <ele>428</ele>
        <time>2021-09-02T10:21:09Z</time>
      </trkpt>
      <trkpt lat="44.23665" lon="2.24772">
        <ele>429</ele>
        <time>2021-09-02T10:21:10Z</time>
      </trkpt>
      <trkpt lat="44.2365" lon="2.24777">
        <ele>429</ele>
        <time>2021-09-02T10:21:14Z</time>
      </trkpt>
      <trkpt lat="44.23639" lon="2.2478">
        <ele>430</ele>
        <time>2021-09-02T10:21:19Z</time>
      </trkpt>
      <trkpt lat="44.2363" lon="2.24783">
        <ele>435</ele>
        <time>2021-09-02T10:22:03Z</time>
      </trkpt>
      <trkpt lat="44.23613" lon="2.24787">
        <ele>437</ele>
        <time>2021-09-02T10:22:32Z</time>
      </trkpt>
      <trkpt lat="44.23597" lon="2.24794">
        <ele>433</ele>
        <time>2021-09-02T10:22:40Z</time>
      </trkpt>
      <trkpt lat="44.23587" lon="2.248">
        <ele>432</ele>
        <time>2021-09-02T10:22:46Z</time>
      </trkpt>
      <trkpt lat="44.23518" lon="2.24817">
        <ele>429</ele>
        <time>2021-09-02T10:23:18Z</time>
      </trkpt>
      <trkpt lat="44.23491" lon="2.24838">
        <ele>420</ele>
        <time>2021-09-02T10:23:32Z</time>
      </trkpt>
      <trkpt lat="44.23472" lon="2.24839">
        <ele>418</ele>
        <time>2021-09-02T10:23:39Z</time>
      </trkpt>
      <trkpt lat="44.23458" lon="2.24835">
        <ele>421</ele>
        <time>2021-09-02T10:23:45Z</time>
      </trkpt>
      <trkpt lat="44.23453" lon="2.24832">
        <ele>422</ele>
        <time>2021-09-02T10:23:47Z</time>
      </trkpt>
      <trkpt lat="44.23447" lon="2.24829">
        <ele>423</ele>
        <time>2021-09-02T10:23:49Z</time>
      </trkpt>
      <trkpt lat="44.23432" lon="2.24827">
        <ele>427</ele>
        <time>2021-09-02T10:23:55Z</time>
      </trkpt>
      <trkpt lat="44.23427" lon="2.24829">
        <ele>427</ele>
        <time>2021-09-02T10:23:57Z</time>
      </trkpt>
      <trkpt lat="44.23418" lon="2.24835">
        <ele>428</ele>
        <time>2021-09-02T10:24:01Z</time>
      </trkpt>
      <trkpt lat="44.23408" lon="2.24856">
        <ele>426</ele>
        <time>2021-09-02T10:24:10Z</time>
      </trkpt>
      <trkpt lat="44.23404" lon="2.24866">
        <ele>425</ele>
        <time>2021-09-02T10:24:13Z</time>
      </trkpt>
      <trkpt lat="44.23399" lon="2.24871">
        <ele>423</ele>
        <time>2021-09-02T10:24:16Z</time>
      </trkpt>
      <trkpt lat="44.2339" lon="2.24873">
        <ele>424</ele>
        <time>2021-09-02T10:24:19Z</time>
      </trkpt>
      <trkpt lat="44.2338" lon="2.24869">
        <ele>428</ele>
        <time>2021-09-02T10:24:23Z</time>
      </trkpt>
      <trkpt lat="44.23375" lon="2.24866">
        <ele>429</ele>
        <time>2021-09-02T10:24:25Z</time>
      </trkpt>
      <trkpt lat="44.23359" lon="2.24861">
        <ele>430</ele>
        <time>2021-09-02T10:24:32Z</time>
      </trkpt>
      <trkpt lat="44.23324" lon="2.24871">
        <ele>433</ele>
        <time>2021-09-02T10:24:48Z</time>
      </trkpt>
      <trkpt lat="44.233" lon="2.24886">
        <ele>433</ele>
        <time>2021-09-02T10:25:02Z</time>
      </trkpt>
      <trkpt lat="44.23295" lon="2.2489">
        <ele>432</ele>
        <time>2021-09-02T10:25:05Z</time>
      </trkpt>
      <trkpt lat="44.23291" lon="2.24893">
        <ele>432</ele>
        <time>2021-09-02T10:25:07Z</time>
      </trkpt>
      <trkpt lat="44.23243" lon="2.24942">
        <ele>427</ele>
        <time>2021-09-02T10:25:33Z</time>
      </trkpt>
      <trkpt lat="44.23232" lon="2.2495">
        <ele>428</ele>
        <time>2021-09-02T10:25:37Z</time>
      </trkpt>
      <trkpt lat="44.23219" lon="2.24953">
        <ele>430</ele>
        <time>2021-09-02T10:25:41Z</time>
      </trkpt>
      <trkpt lat="44.23213" lon="2.24954">
        <ele>431</ele>
        <time>2021-09-02T10:25:43Z</time>
      </trkpt>
      <trkpt lat="44.23208" lon="2.24953">
        <ele>433</ele>
        <time>2021-09-02T10:25:45Z</time>
      </trkpt>
      <trkpt lat="44.23203" lon="2.2495">
        <ele>435</ele>
        <time>2021-09-02T10:25:48Z</time>
      </trkpt>
      <trkpt lat="44.23195" lon="2.24943">
        <ele>438</ele>
        <time>2021-09-02T10:25:54Z</time>
      </trkpt>
      <trkpt lat="44.23184" lon="2.24937">
        <ele>439</ele>
        <time>2021-09-02T10:25:59Z</time>
      </trkpt>
      <trkpt lat="44.23167" lon="2.24933">
        <ele>440</ele>
        <time>2021-09-02T10:26:05Z</time>
      </trkpt>
      <trkpt lat="44.2314" lon="2.24925">
        <ele>442</ele>
        <time>2021-09-02T10:26:16Z</time>
      </trkpt>
      <trkpt lat="44.23134" lon="2.24922">
        <ele>442</ele>
        <time>2021-09-02T10:26:19Z</time>
      </trkpt>
      <trkpt lat="44.23088" lon="2.24913">
        <ele>447</ele>
        <time>2021-09-02T10:26:42Z</time>
      </trkpt>
      <trkpt lat="44.2308" lon="2.24909">
        <ele>448</ele>
        <time>2021-09-02T10:26:46Z</time>
      </trkpt>
      <trkpt lat="44.23067" lon="2.24899">
        <ele>451</ele>
        <time>2021-09-02T10:26:54Z</time>
      </trkpt>
      <trkpt lat="44.23059" lon="2.24894">
        <ele>454</ele>
        <time>2021-09-02T10:26:58Z</time>
      </trkpt>
      <trkpt lat="44.23017" lon="2.24861">
        <ele>466</ele>
        <time>2021-09-02T10:27:20Z</time>
      </trkpt>
      <trkpt lat="44.23002" lon="2.24842">
        <ele>471</ele>
        <time>2021-09-02T10:27:30Z</time>
      </trkpt>
      <trkpt lat="44.22997" lon="2.24838">
        <ele>471</ele>
        <time>2021-09-02T10:27:33Z</time>
      </trkpt>
      <trkpt lat="44.22992" lon="2.24835">
        <ele>472</ele>
        <time>2021-09-02T10:27:36Z</time>
      </trkpt>
      <trkpt lat="44.22986" lon="2.24832">
        <ele>475</ele>
        <time>2021-09-02T10:27:39Z</time>
      </trkpt>
      <trkpt lat="44.2298" lon="2.24832">
        <ele>476</ele>
        <time>2021-09-02T10:27:42Z</time>
      </trkpt>
      <trkpt lat="44.22975" lon="2.24835">
        <ele>476</ele>
        <time>2021-09-02T10:27:45Z</time>
      </trkpt>
      <trkpt lat="44.2297" lon="2.24841">
        <ele>476</ele>
        <time>2021-09-02T10:27:48Z</time>
      </trkpt>
      <trkpt lat="44.22967" lon="2.24846">
        <ele>476</ele>
        <time>2021-09-02T10:27:50Z</time>
      </trkpt>
      <trkpt lat="44.22962" lon="2.24859">
        <ele>476</ele>
        <time>2021-09-02T10:27:54Z</time>
      </trkpt>
      <trkpt lat="44.22963" lon="2.24948">
        <ele>473</ele>
        <time>2021-09-02T10:28:18Z</time>
      </trkpt>
      <trkpt lat="44.2295" lon="2.25016">
        <ele>465</ele>
        <time>2021-09-02T10:28:38Z</time>
      </trkpt>
      <trkpt lat="44.22949" lon="2.2507">
        <ele>461</ele>
        <time>2021-09-02T10:28:52Z</time>
      </trkpt>
      <trkpt lat="44.22968" lon="2.2522">
        <ele>461</ele>
        <time>2021-09-02T10:29:24Z</time>
      </trkpt>
      <trkpt lat="44.22977" lon="2.25277">
        <ele>458</ele>
        <time>2021-09-02T10:29:34Z</time>
      </trkpt>
      <trkpt lat="44.22984" lon="2.25308">
        <ele>457</ele>
        <time>2021-09-02T10:29:40Z</time>
      </trkpt>
      <trkpt lat="44.22989" lon="2.25365">
        <ele>457</ele>
        <time>2021-09-02T10:29:50Z</time>
      </trkpt>
      <trkpt lat="44.22997" lon="2.25398">
        <ele>457</ele>
        <time>2021-09-02T10:29:56Z</time>
      </trkpt>
      <trkpt lat="44.23015" lon="2.25436">
        <ele>456</ele>
        <time>2021-09-02T10:30:04Z</time>
      </trkpt>
      <trkpt lat="44.2304" lon="2.25527">
        <ele>450</ele>
        <time>2021-09-02T10:30:22Z</time>
      </trkpt>
      <trkpt lat="44.23052" lon="2.25559">
        <ele>451</ele>
        <time>2021-09-02T10:30:28Z</time>
      </trkpt>
      <trkpt lat="44.23056" lon="2.2557">
        <ele>452</ele>
        <time>2021-09-02T10:30:30Z</time>
      </trkpt>
      <trkpt lat="44.23058" lon="2.25581">
        <ele>453</ele>
        <time>2021-09-02T10:30:32Z</time>
      </trkpt>
      <trkpt lat="44.23059" lon="2.25591">
        <ele>452</ele>
        <time>2021-09-02T10:30:34Z</time>
      </trkpt>
      <trkpt lat="44.23057" lon="2.25601">
        <ele>452</ele>
        <time>2021-09-02T10:30:36Z</time>
      </trkpt>
      <trkpt lat="44.23048" lon="2.25619">
        <ele>454</ele>
        <time>2021-09-02T10:30:40Z</time>
      </trkpt>
      <trkpt lat="44.23019" lon="2.25656">
        <ele>469</ele>
        <time>2021-09-02T10:30:54Z</time>
      </trkpt>
      <trkpt lat="44.23016" lon="2.25661">
        <ele>470</ele>
        <time>2021-09-02T10:30:56Z</time>
      </trkpt>
      <trkpt lat="44.23008" lon="2.25673">
        <ele>473</ele>
        <time>2021-09-02T10:31:01Z</time>
      </trkpt>
      <trkpt lat="44.23004" lon="2.25681">
        <ele>475</ele>
        <time>2021-09-02T10:31:04Z</time>
      </trkpt>
      <trkpt lat="44.22982" lon="2.25754">
        <ele>480</ele>
        <time>2021-09-02T10:31:29Z</time>
      </trkpt>
      <trkpt lat="44.22973" lon="2.25794">
        <ele>483</ele>
        <time>2021-09-02T10:31:44Z</time>
      </trkpt>
      <trkpt lat="44.22952" lon="2.25874">
        <ele>488</ele>
        <time>2021-09-02T10:32:14Z</time>
      </trkpt>
      <trkpt lat="44.22936" lon="2.25959">
        <ele>497</ele>
        <time>2021-09-02T10:32:42Z</time>
      </trkpt>
      <trkpt lat="44.22935" lon="2.25966">
        <ele>498</ele>
        <time>2021-09-02T10:32:45Z</time>
      </trkpt>
      <trkpt lat="44.22934" lon="2.25974">
        <ele>499</ele>
        <time>2021-09-02T10:32:49Z</time>
      </trkpt>
      <trkpt lat="44.22933" lon="2.2598">
        <ele>500</ele>
        <time>2021-09-02T10:32:52Z</time>
      </trkpt>
      <trkpt lat="44.2293" lon="2.25987">
        <ele>500</ele>
        <time>2021-09-02T10:32:55Z</time>
      </trkpt>
      <trkpt lat="44.22929" lon="2.25994">
        <ele>501</ele>
        <time>2021-09-02T10:32:57Z</time>
      </trkpt>
      <trkpt lat="44.2293" lon="2.26002">
        <ele>501</ele>
        <time>2021-09-02T10:32:59Z</time>
      </trkpt>
      <trkpt lat="44.22947" lon="2.26052">
        <ele>505</ele>
        <time>2021-09-02T10:33:13Z</time>
      </trkpt>
      <trkpt lat="44.22974" lon="2.26123">
        <ele>506</ele>
        <time>2021-09-02T10:33:26Z</time>
      </trkpt>
      <trkpt lat="44.22986" lon="2.26169">
        <ele>507</ele>
        <time>2021-09-02T10:33:34Z</time>
      </trkpt>
      <trkpt lat="44.22991" lon="2.26326">
        <ele>501</ele>
        <time>2021-09-02T10:34:01Z</time>
      </trkpt>
      <trkpt lat="44.23009" lon="2.26373">
        <ele>501</ele>
        <time>2021-09-02T10:34:09Z</time>
      </trkpt>
      <trkpt lat="44.23028" lon="2.26411">
        <ele>500</ele>
        <time>2021-09-02T10:34:15Z</time>
      </trkpt>
      <trkpt lat="44.23089" lon="2.26474">
        <ele>496</ele>
        <time>2021-09-02T10:34:26Z</time>
      </trkpt>
      <trkpt lat="44.23096" lon="2.26491">
        <ele>495</ele>
        <time>2021-09-02T10:34:28Z</time>
      </trkpt>
      <trkpt lat="44.23143" lon="2.26743">
        <ele>492</ele>
        <time>2021-09-02T10:34:58Z</time>
      </trkpt>
      <trkpt lat="44.23168" lon="2.26921">
        <ele>486</ele>
        <time>2021-09-02T10:35:24Z</time>
      </trkpt>
      <trkpt lat="44.2317" lon="2.27166">
        <ele>482</ele>
        <time>2021-09-02T10:35:54Z</time>
      </trkpt>
      <trkpt lat="44.23139" lon="2.27474">
        <ele>480</ele>
        <time>2021-09-02T10:36:20Z</time>
      </trkpt>
      <trkpt lat="44.23129" lon="2.27506">
        <ele>479</ele>
        <time>2021-09-02T10:36:23Z</time>
      </trkpt>
      <trkpt lat="44.22982" lon="2.27818">
        <ele>461</ele>
        <time>2021-09-02T10:36:53Z</time>
      </trkpt>
      <trkpt lat="44.22834" lon="2.28177">
        <ele>438</ele>
        <time>2021-09-02T10:37:24Z</time>
      </trkpt>
      <trkpt lat="44.22789" lon="2.28325">
        <ele>430</ele>
        <time>2021-09-02T10:37:37Z</time>
      </trkpt>
      <trkpt lat="44.22786" lon="2.28354">
        <ele>428</ele>
        <time>2021-09-02T10:37:40Z</time>
      </trkpt>
      <trkpt lat="44.22789" lon="2.28401">
        <ele>422</ele>
        <time>2021-09-02T10:37:45Z</time>
      </trkpt>
      <trkpt lat="44.22771" lon="2.28488">
        <ele>415</ele>
        <time>2021-09-02T10:37:53Z</time>
      </trkpt>
      <trkpt lat="44.22758" lon="2.28531">
        <ele>412</ele>
        <time>2021-09-02T10:37:57Z</time>
      </trkpt>
      <trkpt lat="44.22756" lon="2.28542">
        <ele>411</ele>
        <time>2021-09-02T10:37:58Z</time>
      </trkpt>
      <trkpt lat="44.22755" lon="2.28553">
        <ele>410</ele>
        <time>2021-09-02T10:37:59Z</time>
      </trkpt>
      <trkpt lat="44.22756" lon="2.28563">
        <ele>409</ele>
        <time>2021-09-02T10:38:00Z</time>
      </trkpt>
      <trkpt lat="44.2276" lon="2.28579">
        <ele>408</ele>
        <time>2021-09-02T10:38:02Z</time>
      </trkpt>
      <trkpt lat="44.22767" lon="2.2859">
        <ele>407</ele>
        <time>2021-09-02T10:38:04Z</time>
      </trkpt>
      <trkpt lat="44.22848" lon="2.28551">
        <ele>397</ele>
        <time>2021-09-02T10:38:15Z</time>
      </trkpt>
      <trkpt lat="44.2291" lon="2.28462">
        <ele>388</ele>
        <time>2021-09-02T10:38:25Z</time>
      </trkpt>
      <trkpt lat="44.22928" lon="2.28408">
        <ele>383</ele>
        <time>2021-09-02T10:38:30Z</time>
      </trkpt>
      <trkpt lat="44.22938" lon="2.28393">
        <ele>382</ele>
        <time>2021-09-02T10:38:32Z</time>
      </trkpt>
      <trkpt lat="44.22965" lon="2.28374">
        <ele>380</ele>
        <time>2021-09-02T10:38:36Z</time>
      </trkpt>
      <trkpt lat="44.22983" lon="2.28368">
        <ele>379</ele>
        <time>2021-09-02T10:38:38Z</time>
      </trkpt>
      <trkpt lat="44.23031" lon="2.28374">
        <ele>374</ele>
        <time>2021-09-02T10:38:43Z</time>
      </trkpt>
      <trkpt lat="44.23038" lon="2.28378">
        <ele>374</ele>
        <time>2021-09-02T10:38:44Z</time>
      </trkpt>
      <trkpt lat="44.23046" lon="2.28383">
        <ele>373</ele>
        <time>2021-09-02T10:38:45Z</time>
      </trkpt>
      <trkpt lat="44.23062" lon="2.28394">
        <ele>372</ele>
        <time>2021-09-02T10:38:47Z</time>
      </trkpt>
      <trkpt lat="44.23069" lon="2.28403">
        <ele>373</ele>
        <time>2021-09-02T10:38:48Z</time>
      </trkpt>
      <trkpt lat="44.23073" lon="2.28412">
        <ele>374</ele>
        <time>2021-09-02T10:38:49Z</time>
      </trkpt>
      <trkpt lat="44.23075" lon="2.2842">
        <ele>376</ele>
        <time>2021-09-02T10:38:50Z</time>
      </trkpt>
      <trkpt lat="44.23077" lon="2.28427">
        <ele>378</ele>
        <time>2021-09-02T10:38:51Z</time>
      </trkpt>
      <trkpt lat="44.23074" lon="2.28433">
        <ele>379</ele>
        <time>2021-09-02T10:38:52Z</time>
      </trkpt>
      <trkpt lat="44.23068" lon="2.28436">
        <ele>381</ele>
        <time>2021-09-02T10:38:53Z</time>
      </trkpt>
      <trkpt lat="44.23036" lon="2.28432">
        <ele>380</ele>
        <time>2021-09-02T10:38:57Z</time>
      </trkpt>
      <trkpt lat="44.23022" lon="2.28435">
        <ele>379</ele>
        <time>2021-09-02T10:38:59Z</time>
      </trkpt>
      <trkpt lat="44.2301" lon="2.28445">
        <ele>379</ele>
        <time>2021-09-02T10:39:01Z</time>
      </trkpt>
      <trkpt lat="44.23001" lon="2.28458">
        <ele>379</ele>
        <time>2021-09-02T10:39:03Z</time>
      </trkpt>
      <trkpt lat="44.22995" lon="2.28472">
        <ele>380</ele>
        <time>2021-09-02T10:39:05Z</time>
      </trkpt>
      <trkpt lat="44.22984" lon="2.28535">
        <ele>380</ele>
        <time>2021-09-02T10:39:14Z</time>
      </trkpt>
      <trkpt lat="44.22983" lon="2.28545">
        <ele>380</ele>
        <time>2021-09-02T10:39:16Z</time>
      </trkpt>
      <trkpt lat="44.22974" lon="2.28578">
        <ele>375</ele>
        <time>2021-09-02T10:39:29Z</time>
      </trkpt>
      <trkpt lat="44.2297" lon="2.28595">
        <ele>374</ele>
        <time>2021-09-02T10:39:35Z</time>
      </trkpt>
      <trkpt lat="44.22965" lon="2.286">
        <ele>373</ele>
        <time>2021-09-02T10:39:44Z</time>
      </trkpt>
      <trkpt lat="44.22956" lon="2.2861">
        <ele>369</ele>
        <time>2021-09-02T10:39:53Z</time>
      </trkpt>
      <trkpt lat="44.22952" lon="2.28616">
        <ele>369</ele>
        <time>2021-09-02T10:39:56Z</time>
      </trkpt>
      <trkpt lat="44.22942" lon="2.28631">
        <ele>368</ele>
        <time>2021-09-02T10:40:02Z</time>
      </trkpt>
      <trkpt lat="44.22937" lon="2.2864">
        <ele>366</ele>
        <time>2021-09-02T10:40:06Z</time>
      </trkpt>
      <trkpt lat="44.22932" lon="2.28652">
        <ele>364</ele>
        <time>2021-09-02T10:40:09Z</time>
      </trkpt>
      <trkpt lat="44.22927" lon="2.28662">
        <ele>361</ele>
        <time>2021-09-02T10:40:12Z</time>
      </trkpt>
      <trkpt lat="44.22921" lon="2.28671">
        <ele>358</ele>
        <time>2021-09-02T10:40:15Z</time>
      </trkpt>
      <trkpt lat="44.2291" lon="2.28686">
        <ele>354</ele>
        <time>2021-09-02T10:40:19Z</time>
      </trkpt>
      <trkpt lat="44.22905" lon="2.28693">
        <ele>352</ele>
        <time>2021-09-02T10:40:21Z</time>
      </trkpt>
      <trkpt lat="44.229" lon="2.28698">
        <ele>352</ele>
        <time>2021-09-02T10:40:24Z</time>
      </trkpt>
      <trkpt lat="44.22894" lon="2.28703">
        <ele>351</ele>
        <time>2021-09-02T10:40:27Z</time>
      </trkpt>
      <trkpt lat="44.22886" lon="2.28709">
        <ele>352</ele>
        <time>2021-09-02T10:40:45Z</time>
      </trkpt>
      <trkpt lat="44.22874" lon="2.28714">
        <ele>358</ele>
        <time>2021-09-02T10:40:50Z</time>
      </trkpt>
      <trkpt lat="44.22867" lon="2.28715">
        <ele>361</ele>
        <time>2021-09-02T10:40:52Z</time>
      </trkpt>
      <trkpt lat="44.22854" lon="2.28716">
        <ele>365</ele>
        <time>2021-09-02T10:40:55Z</time>
      </trkpt>
      <trkpt lat="44.22842" lon="2.28716">
        <ele>370</ele>
        <time>2021-09-02T10:40:59Z</time>
      </trkpt>
      <trkpt lat="44.22836" lon="2.28712">
        <ele>373</ele>
        <time>2021-09-02T10:41:01Z</time>
      </trkpt>
      <trkpt lat="44.22832" lon="2.2871">
        <ele>375</ele>
        <time>2021-09-02T10:41:03Z</time>
      </trkpt>
      <trkpt lat="44.22826" lon="2.28709">
        <ele>378</ele>
        <time>2021-09-02T10:41:06Z</time>
      </trkpt>
      <trkpt lat="44.22821" lon="2.2871">
        <ele>380</ele>
        <time>2021-09-02T10:41:10Z</time>
      </trkpt>
      <trkpt lat="44.22819" lon="2.28716">
        <ele>382</ele>
        <time>2021-09-02T10:41:38Z</time>
      </trkpt>
      <trkpt lat="44.22816" lon="2.28726">
        <ele>382</ele>
        <time>2021-09-02T10:41:41Z</time>
      </trkpt>
      <trkpt lat="44.22804" lon="2.28752">
        <ele>381</ele>
        <time>2021-09-02T10:41:47Z</time>
      </trkpt>
      <trkpt lat="44.22764" lon="2.28816">
        <ele>372</ele>
        <time>2021-09-02T10:42:01Z</time>
      </trkpt>
      <trkpt lat="44.22758" lon="2.28827">
        <ele>373</ele>
        <time>2021-09-02T10:42:03Z</time>
      </trkpt>
      <trkpt lat="44.22753" lon="2.28835">
        <ele>374</ele>
        <time>2021-09-02T10:42:05Z</time>
      </trkpt>
      <trkpt lat="44.22747" lon="2.28848">
        <ele>376</ele>
        <time>2021-09-02T10:42:09Z</time>
      </trkpt>
      <trkpt lat="44.22743" lon="2.28853">
        <ele>381</ele>
        <time>2021-09-02T10:45:45Z</time>
      </trkpt>
      <trkpt lat="44.22739" lon="2.28857">
        <ele>381</ele>
        <time>2021-09-02T11:00:06Z</time>
      </trkpt>
      <trkpt lat="44.22744" lon="2.2886">
        <ele>381</ele>
        <time>2021-09-02T11:06:21Z</time>
      </trkpt>
      <trkpt lat="44.22748" lon="2.28857">
        <ele>381</ele>
        <time>2021-09-02T11:06:23Z</time>
      </trkpt>
      <trkpt lat="44.22751" lon="2.28849">
        <ele>381</ele>
        <time>2021-09-02T11:06:25Z</time>
      </trkpt>
      <trkpt lat="44.22753" lon="2.28841">
        <ele>382</ele>
        <time>2021-09-02T11:06:27Z</time>
      </trkpt>
      <trkpt lat="44.22751" lon="2.28834">
        <ele>384</ele>
        <time>2021-09-02T11:06:31Z</time>
      </trkpt>
      <trkpt lat="44.22741" lon="2.28836">
        <ele>386</ele>
        <time>2021-09-02T11:06:35Z</time>
      </trkpt>
      <trkpt lat="44.22738" lon="2.28842">
        <ele>386</ele>
        <time>2021-09-02T11:06:37Z</time>
      </trkpt>
      <trkpt lat="44.22736" lon="2.2885">
        <ele>387</ele>
        <time>2021-09-02T11:06:39Z</time>
      </trkpt>
      <trkpt lat="44.22735" lon="2.2886">
        <ele>387</ele>
        <time>2021-09-02T11:06:41Z</time>
      </trkpt>
      <trkpt lat="44.22741" lon="2.28877">
        <ele>387</ele>
        <time>2021-09-02T11:06:45Z</time>
      </trkpt>
      <trkpt lat="44.22754" lon="2.28889">
        <ele>387</ele>
        <time>2021-09-02T11:06:49Z</time>
      </trkpt>
      <trkpt lat="44.22771" lon="2.28896">
        <ele>387</ele>
        <time>2021-09-02T11:06:53Z</time>
      </trkpt>
      <trkpt lat="44.2279" lon="2.28896">
        <ele>386</ele>
        <time>2021-09-02T11:06:57Z</time>
      </trkpt>
      <trkpt lat="44.22818" lon="2.28893">
        <ele>385</ele>
        <time>2021-09-02T11:07:02Z</time>
      </trkpt>
      <trkpt lat="44.22824" lon="2.28894">
        <ele>385</ele>
        <time>2021-09-02T11:07:03Z</time>
      </trkpt>
      <trkpt lat="44.22845" lon="2.28908">
        <ele>388</ele>
        <time>2021-09-02T11:07:07Z</time>
      </trkpt>
      <trkpt lat="44.22852" lon="2.28915">
        <ele>388</ele>
        <time>2021-09-02T11:07:08Z</time>
      </trkpt>
      <trkpt lat="44.22879" lon="2.28932">
        <ele>387</ele>
        <time>2021-09-02T11:07:13Z</time>
      </trkpt>
      <trkpt lat="44.22899" lon="2.28954">
        <ele>386</ele>
        <time>2021-09-02T11:07:17Z</time>
      </trkpt>
      <trkpt lat="44.22925" lon="2.28972">
        <ele>387</ele>
        <time>2021-09-02T11:07:22Z</time>
      </trkpt>
      <trkpt lat="44.22928" lon="2.28979">
        <ele>387</ele>
        <time>2021-09-02T11:07:23Z</time>
      </trkpt>
      <trkpt lat="44.22942" lon="2.29033">
        <ele>388</ele>
        <time>2021-09-02T11:07:29Z</time>
      </trkpt>
      <trkpt lat="44.22946" lon="2.29059">
        <ele>389</ele>
        <time>2021-09-02T11:07:32Z</time>
      </trkpt>
      <trkpt lat="44.22942" lon="2.29079">
        <ele>389</ele>
        <time>2021-09-02T11:07:35Z</time>
      </trkpt>
      <trkpt lat="44.22929" lon="2.29128">
        <ele>384</ele>
        <time>2021-09-02T11:07:41Z</time>
      </trkpt>
      <trkpt lat="44.22929" lon="2.29137">
        <ele>382</ele>
        <time>2021-09-02T11:07:42Z</time>
      </trkpt>
      <trkpt lat="44.22928" lon="2.29145">
        <ele>380</ele>
        <time>2021-09-02T11:07:43Z</time>
      </trkpt>
      <trkpt lat="44.22929" lon="2.29151">
        <ele>379</ele>
        <time>2021-09-02T11:07:44Z</time>
      </trkpt>
      <trkpt lat="44.22932" lon="2.29163">
        <ele>376</ele>
        <time>2021-09-02T11:07:46Z</time>
      </trkpt>
      <trkpt lat="44.22949" lon="2.2918">
        <ele>373</ele>
        <time>2021-09-02T11:07:49Z</time>
      </trkpt>
      <trkpt lat="44.22976" lon="2.29203">
        <ele>367</ele>
        <time>2021-09-02T11:07:53Z</time>
      </trkpt>
      <trkpt lat="44.2301" lon="2.29237">
        <ele>365</ele>
        <time>2021-09-02T11:07:58Z</time>
      </trkpt>
      <trkpt lat="44.23031" lon="2.29287">
        <ele>367</ele>
        <time>2021-09-02T11:08:03Z</time>
      </trkpt>
      <trkpt lat="44.23035" lon="2.29305">
        <ele>368</ele>
        <time>2021-09-02T11:08:05Z</time>
      </trkpt>
      <trkpt lat="44.23036" lon="2.29312">
        <ele>369</ele>
        <time>2021-09-02T11:08:06Z</time>
      </trkpt>
      <trkpt lat="44.23043" lon="2.29313">
        <ele>370</ele>
        <time>2021-09-02T11:08:08Z</time>
      </trkpt>
      <trkpt lat="44.23077" lon="2.29305">
        <ele>374</ele>
        <time>2021-09-02T11:08:21Z</time>
      </trkpt>
      <trkpt lat="44.23083" lon="2.29301">
        <ele>376</ele>
        <time>2021-09-02T11:08:25Z</time>
      </trkpt>
      <trkpt lat="44.23105" lon="2.29294">
        <ele>375</ele>
        <time>2021-09-02T11:08:39Z</time>
      </trkpt>
      <trkpt lat="44.2311" lon="2.2929">
        <ele>375</ele>
        <time>2021-09-02T11:08:42Z</time>
      </trkpt>
      <trkpt lat="44.23121" lon="2.29284">
        <ele>374</ele>
        <time>2021-09-02T11:08:49Z</time>
      </trkpt>
      <trkpt lat="44.23136" lon="2.29277">
        <ele>373</ele>
        <time>2021-09-02T11:08:56Z</time>
      </trkpt>
      <trkpt lat="44.23158" lon="2.29267">
        <ele>371</ele>
        <time>2021-09-02T11:09:07Z</time>
      </trkpt>
      <trkpt lat="44.2318" lon="2.29247">
        <ele>374</ele>
        <time>2021-09-02T11:09:18Z</time>
      </trkpt>
      <trkpt lat="44.23183" lon="2.29242">
        <ele>376</ele>
        <time>2021-09-02T11:09:21Z</time>
      </trkpt>
      <trkpt lat="44.23187" lon="2.29236">
        <ele>377</ele>
        <time>2021-09-02T11:09:24Z</time>
      </trkpt>
      <trkpt lat="44.23194" lon="2.29224">
        <ele>379</ele>
        <time>2021-09-02T11:09:30Z</time>
      </trkpt>
      <trkpt lat="44.23205" lon="2.29204">
        <ele>383</ele>
        <time>2021-09-02T11:09:39Z</time>
      </trkpt>
      <trkpt lat="44.23221" lon="2.29173">
        <ele>386</ele>
        <time>2021-09-02T11:09:52Z</time>
      </trkpt>
      <trkpt lat="44.23232" lon="2.29155">
        <ele>388</ele>
        <time>2021-09-02T11:10:01Z</time>
      </trkpt>
      <trkpt lat="44.23243" lon="2.29147">
        <ele>390</ele>
        <time>2021-09-02T11:10:07Z</time>
      </trkpt>
      <trkpt lat="44.23292" lon="2.29092">
        <ele>392</ele>
        <time>2021-09-02T11:10:39Z</time>
      </trkpt>
      <trkpt lat="44.23297" lon="2.29088">
        <ele>392</ele>
        <time>2021-09-02T11:10:42Z</time>
      </trkpt>
      <trkpt lat="44.23302" lon="2.29084">
        <ele>393</ele>
        <time>2021-09-02T11:10:45Z</time>
      </trkpt>
      <trkpt lat="44.23308" lon="2.29084">
        <ele>393</ele>
        <time>2021-09-02T11:10:48Z</time>
      </trkpt>
      <trkpt lat="44.23322" lon="2.29096">
        <ele>395</ele>
        <time>2021-09-02T11:10:57Z</time>
      </trkpt>
      <trkpt lat="44.23325" lon="2.29101">
        <ele>396</ele>
        <time>2021-09-02T11:11:01Z</time>
      </trkpt>
      <trkpt lat="44.23333" lon="2.29112">
        <ele>396</ele>
        <time>2021-09-02T11:11:10Z</time>
      </trkpt>
      <trkpt lat="44.23336" lon="2.29116">
        <ele>396</ele>
        <time>2021-09-02T11:11:13Z</time>
      </trkpt>
      <trkpt lat="44.23341" lon="2.2912">
        <ele>396</ele>
        <time>2021-09-02T11:11:16Z</time>
      </trkpt>
      <trkpt lat="44.23351" lon="2.29128">
        <ele>396</ele>
        <time>2021-09-02T11:11:23Z</time>
      </trkpt>
      <trkpt lat="44.23358" lon="2.29128">
        <ele>396</ele>
        <time>2021-09-02T11:11:26Z</time>
      </trkpt>
      <trkpt lat="44.23365" lon="2.29128">
        <ele>396</ele>
        <time>2021-09-02T11:11:30Z</time>
      </trkpt>
      <trkpt lat="44.23372" lon="2.29131">
        <ele>396</ele>
        <time>2021-09-02T11:11:34Z</time>
      </trkpt>
      <trkpt lat="44.23378" lon="2.29132">
        <ele>397</ele>
        <time>2021-09-02T11:11:37Z</time>
      </trkpt>
      <trkpt lat="44.23399" lon="2.29134">
        <ele>397</ele>
        <time>2021-09-02T11:11:49Z</time>
      </trkpt>
      <trkpt lat="44.23406" lon="2.29132">
        <ele>397</ele>
        <time>2021-09-02T11:11:54Z</time>
      </trkpt>
      <trkpt lat="44.23412" lon="2.29128">
        <ele>396</ele>
        <time>2021-09-02T11:11:59Z</time>
      </trkpt>
      <trkpt lat="44.23417" lon="2.29123">
        <ele>394</ele>
        <time>2021-09-02T11:12:04Z</time>
      </trkpt>
      <trkpt lat="44.23423" lon="2.29118">
        <ele>394</ele>
        <time>2021-09-02T11:12:07Z</time>
      </trkpt>
      <trkpt lat="44.23434" lon="2.2911">
        <ele>398</ele>
        <time>2021-09-02T11:12:12Z</time>
      </trkpt>
      <trkpt lat="44.23459" lon="2.29098">
        <ele>400</ele>
        <time>2021-09-02T11:12:22Z</time>
      </trkpt>
      <trkpt lat="44.23493" lon="2.29079">
        <ele>405</ele>
        <time>2021-09-02T11:12:43Z</time>
      </trkpt>
      <trkpt lat="44.23505" lon="2.29074">
        <ele>405</ele>
        <time>2021-09-02T11:12:49Z</time>
      </trkpt>
      <trkpt lat="44.23528" lon="2.29065">
        <ele>405</ele>
        <time>2021-09-02T11:13:00Z</time>
      </trkpt>
      <trkpt lat="44.23538" lon="2.29066">
        <ele>402</ele>
        <time>2021-09-02T11:13:05Z</time>
      </trkpt>
      <trkpt lat="44.23549" lon="2.2906">
        <ele>408</ele>
        <time>2021-09-02T11:13:11Z</time>
      </trkpt>
      <trkpt lat="44.23555" lon="2.29063">
        <ele>413</ele>
        <time>2021-09-02T11:13:15Z</time>
      </trkpt>
      <trkpt lat="44.23559" lon="2.29068">
        <ele>414</ele>
        <time>2021-09-02T11:13:18Z</time>
      </trkpt>
      <trkpt lat="44.23562" lon="2.29073">
        <ele>417</ele>
        <time>2021-09-02T11:13:21Z</time>
      </trkpt>
      <trkpt lat="44.23564" lon="2.2908">
        <ele>417</ele>
        <time>2021-09-02T11:13:24Z</time>
      </trkpt>
      <trkpt lat="44.23563" lon="2.29087">
        <ele>419</ele>
        <time>2021-09-02T11:13:27Z</time>
      </trkpt>
      <trkpt lat="44.23558" lon="2.291">
        <ele>420</ele>
        <time>2021-09-02T11:13:33Z</time>
      </trkpt>
      <trkpt lat="44.23553" lon="2.29105">
        <ele>420</ele>
        <time>2021-09-02T11:13:36Z</time>
      </trkpt>
      <trkpt lat="44.2355" lon="2.2911">
        <ele>420</ele>
        <time>2021-09-02T11:13:39Z</time>
      </trkpt>
      <trkpt lat="44.23539" lon="2.29126">
        <ele>420</ele>
        <time>2021-09-02T11:13:48Z</time>
      </trkpt>
      <trkpt lat="44.23522" lon="2.29151">
        <ele>421</ele>
        <time>2021-09-02T11:14:03Z</time>
      </trkpt>
      <trkpt lat="44.23519" lon="2.29158">
        <ele>422</ele>
        <time>2021-09-02T11:14:08Z</time>
      </trkpt>
      <trkpt lat="44.23518" lon="2.29165">
        <ele>422</ele>
        <time>2021-09-02T11:14:11Z</time>
      </trkpt>
      <trkpt lat="44.23517" lon="2.29172">
        <ele>422</ele>
        <time>2021-09-02T11:14:14Z</time>
      </trkpt>
      <trkpt lat="44.23509" lon="2.29202">
        <ele>422</ele>
        <time>2021-09-02T11:14:26Z</time>
      </trkpt>
      <trkpt lat="44.23506" lon="2.29208">
        <ele>421</ele>
        <time>2021-09-02T11:14:28Z</time>
      </trkpt>
      <trkpt lat="44.23485" lon="2.29256">
        <ele>419</ele>
        <time>2021-09-02T11:14:46Z</time>
      </trkpt>
      <trkpt lat="44.23483" lon="2.29265">
        <ele>420</ele>
        <time>2021-09-02T11:14:49Z</time>
      </trkpt>
      <trkpt lat="44.2348" lon="2.29272">
        <ele>421</ele>
        <time>2021-09-02T11:14:52Z</time>
      </trkpt>
      <trkpt lat="44.23473" lon="2.293">
        <ele>420</ele>
        <time>2021-09-02T11:15:03Z</time>
      </trkpt>
      <trkpt lat="44.23473" lon="2.29315">
        <ele>419</ele>
        <time>2021-09-02T11:15:09Z</time>
      </trkpt>
      <trkpt lat="44.23472" lon="2.29324">
        <ele>418</ele>
        <time>2021-09-02T11:15:12Z</time>
      </trkpt>
      <trkpt lat="44.23472" lon="2.29332">
        <ele>417</ele>
        <time>2021-09-02T11:15:15Z</time>
      </trkpt>
      <trkpt lat="44.23478" lon="2.29364">
        <ele>416</ele>
        <time>2021-09-02T11:15:27Z</time>
      </trkpt>
      <trkpt lat="44.23491" lon="2.29397">
        <ele>421</ele>
        <time>2021-09-02T11:15:41Z</time>
      </trkpt>
      <trkpt lat="44.23494" lon="2.29412">
        <ele>421</ele>
        <time>2021-09-02T11:15:46Z</time>
      </trkpt>
      <trkpt lat="44.23529" lon="2.29475">
        <ele>425</ele>
        <time>2021-09-02T11:16:13Z</time>
      </trkpt>
      <trkpt lat="44.23531" lon="2.29484">
        <ele>426</ele>
        <time>2021-09-02T11:16:16Z</time>
      </trkpt>
      <trkpt lat="44.23532" lon="2.29507">
        <ele>430</ele>
        <time>2021-09-02T11:16:25Z</time>
      </trkpt>
      <trkpt lat="44.2353" lon="2.29513">
        <ele>432</ele>
        <time>2021-09-02T11:16:28Z</time>
      </trkpt>
      <trkpt lat="44.23526" lon="2.29539">
        <ele>433</ele>
        <time>2021-09-02T11:16:35Z</time>
      </trkpt>
      <trkpt lat="44.23526" lon="2.29553">
        <ele>434</ele>
        <time>2021-09-02T11:16:39Z</time>
      </trkpt>
      <trkpt lat="44.23533" lon="2.29572">
        <ele>435</ele>
        <time>2021-09-02T11:16:46Z</time>
      </trkpt>
      <trkpt lat="44.23537" lon="2.29618">
        <ele>437</ele>
        <time>2021-09-02T11:16:58Z</time>
      </trkpt>
      <trkpt lat="44.23561" lon="2.29707">
        <ele>438</ele>
        <time>2021-09-02T11:17:27Z</time>
      </trkpt>
      <trkpt lat="44.23568" lon="2.2975">
        <ele>439</ele>
        <time>2021-09-02T11:17:39Z</time>
      </trkpt>
      <trkpt lat="44.23573" lon="2.29765">
        <ele>439</ele>
        <time>2021-09-02T11:17:43Z</time>
      </trkpt>
      <trkpt lat="44.23581" lon="2.29778">
        <ele>440</ele>
        <time>2021-09-02T11:17:47Z</time>
      </trkpt>
      <trkpt lat="44.23604" lon="2.29792">
        <ele>441</ele>
        <time>2021-09-02T11:17:55Z</time>
      </trkpt>
      <trkpt lat="44.23615" lon="2.29803">
        <ele>442</ele>
        <time>2021-09-02T11:17:59Z</time>
      </trkpt>
      <trkpt lat="44.23657" lon="2.29907">
        <ele>443</ele>
        <time>2021-09-02T11:18:23Z</time>
      </trkpt>
      <trkpt lat="44.23666" lon="2.29974">
        <ele>443</ele>
        <time>2021-09-02T11:18:37Z</time>
      </trkpt>
      <trkpt lat="44.23668" lon="2.29983">
        <ele>444</ele>
        <time>2021-09-02T11:18:39Z</time>
      </trkpt>
      <trkpt lat="44.23697" lon="2.30006">
        <ele>448</ele>
        <time>2021-09-02T11:18:49Z</time>
      </trkpt>
      <trkpt lat="44.23703" lon="2.30011">
        <ele>449</ele>
        <time>2021-09-02T11:18:51Z</time>
      </trkpt>
      <trkpt lat="44.23707" lon="2.30018">
        <ele>450</ele>
        <time>2021-09-02T11:18:53Z</time>
      </trkpt>
      <trkpt lat="44.2371" lon="2.30025">
        <ele>452</ele>
        <time>2021-09-02T11:18:55Z</time>
      </trkpt>
      <trkpt lat="44.2371" lon="2.30046">
        <ele>455</ele>
        <time>2021-09-02T11:19:01Z</time>
      </trkpt>
      <trkpt lat="44.23699" lon="2.30138">
        <ele>458</ele>
        <time>2021-09-02T11:19:33Z</time>
      </trkpt>
      <trkpt lat="44.23697" lon="2.30156">
        <ele>458</ele>
        <time>2021-09-02T11:19:39Z</time>
      </trkpt>
      <trkpt lat="44.23695" lon="2.30162">
        <ele>458</ele>
        <time>2021-09-02T11:19:41Z</time>
      </trkpt>
      <trkpt lat="44.23694" lon="2.30169">
        <ele>459</ele>
        <time>2021-09-02T11:19:43Z</time>
      </trkpt>
      <trkpt lat="44.23694" lon="2.30176">
        <ele>459</ele>
        <time>2021-09-02T11:19:45Z</time>
      </trkpt>
      <trkpt lat="44.23693" lon="2.30183">
        <ele>460</ele>
        <time>2021-09-02T11:19:47Z</time>
      </trkpt>
      <trkpt lat="44.23691" lon="2.30207">
        <ele>463</ele>
        <time>2021-09-02T11:19:54Z</time>
      </trkpt>
      <trkpt lat="44.23691" lon="2.30235">
        <ele>465</ele>
        <time>2021-09-02T11:20:03Z</time>
      </trkpt>
      <trkpt lat="44.23706" lon="2.30305">
        <ele>471</ele>
        <time>2021-09-02T11:20:27Z</time>
      </trkpt>
      <trkpt lat="44.23738" lon="2.30386">
        <ele>473</ele>
        <time>2021-09-02T11:20:49Z</time>
      </trkpt>
      <trkpt lat="44.23747" lon="2.30426">
        <ele>475</ele>
        <time>2021-09-02T11:21:00Z</time>
      </trkpt>
      <trkpt lat="44.23749" lon="2.30432">
        <ele>475</ele>
        <time>2021-09-02T11:21:02Z</time>
      </trkpt>
      <trkpt lat="44.23754" lon="2.30447">
        <ele>476</ele>
        <time>2021-09-02T11:21:06Z</time>
      </trkpt>
      <trkpt lat="44.23796" lon="2.30602">
        <ele>477</ele>
        <time>2021-09-02T11:21:37Z</time>
      </trkpt>
      <trkpt lat="44.23797" lon="2.30619">
        <ele>476</ele>
        <time>2021-09-02T11:21:39Z</time>
      </trkpt>
      <trkpt lat="44.23796" lon="2.30628">
        <ele>476</ele>
        <time>2021-09-02T11:21:40Z</time>
      </trkpt>
      <trkpt lat="44.23789" lon="2.30644">
        <ele>476</ele>
        <time>2021-09-02T11:21:42Z</time>
      </trkpt>
      <trkpt lat="44.23773" lon="2.30664">
        <ele>474</ele>
        <time>2021-09-02T11:21:45Z</time>
      </trkpt>
      <trkpt lat="44.2376" lon="2.30673">
        <ele>473</ele>
        <time>2021-09-02T11:21:47Z</time>
      </trkpt>
      <trkpt lat="44.23746" lon="2.30676">
        <ele>471</ele>
        <time>2021-09-02T11:21:49Z</time>
      </trkpt>
      <trkpt lat="44.23739" lon="2.30675">
        <ele>470</ele>
        <time>2021-09-02T11:21:50Z</time>
      </trkpt>
      <trkpt lat="44.23732" lon="2.30672">
        <ele>469</ele>
        <time>2021-09-02T11:21:51Z</time>
      </trkpt>
      <trkpt lat="44.23727" lon="2.30666">
        <ele>469</ele>
        <time>2021-09-02T11:21:52Z</time>
      </trkpt>
      <trkpt lat="44.23713" lon="2.3064">
        <ele>466</ele>
        <time>2021-09-02T11:21:55Z</time>
      </trkpt>
      <trkpt lat="44.23708" lon="2.30633">
        <ele>466</ele>
        <time>2021-09-02T11:21:56Z</time>
      </trkpt>
      <trkpt lat="44.23701" lon="2.30629">
        <ele>465</ele>
        <time>2021-09-02T11:21:57Z</time>
      </trkpt>
      <trkpt lat="44.23695" lon="2.30629">
        <ele>464</ele>
        <time>2021-09-02T11:21:58Z</time>
      </trkpt>
      <trkpt lat="44.23681" lon="2.30635">
        <ele>462</ele>
        <time>2021-09-02T11:22:00Z</time>
      </trkpt>
      <trkpt lat="44.23669" lon="2.30643">
        <ele>460</ele>
        <time>2021-09-02T11:22:02Z</time>
      </trkpt>
      <trkpt lat="44.23648" lon="2.30653">
        <ele>455</ele>
        <time>2021-09-02T11:22:06Z</time>
      </trkpt>
      <trkpt lat="44.23641" lon="2.3066">
        <ele>453</ele>
        <time>2021-09-02T11:22:08Z</time>
      </trkpt>
      <trkpt lat="44.2364" lon="2.30666">
        <ele>453</ele>
        <time>2021-09-02T11:22:09Z</time>
      </trkpt>
      <trkpt lat="44.23641" lon="2.30731">
        <ele>442</ele>
        <time>2021-09-02T11:22:16Z</time>
      </trkpt>
      <trkpt lat="44.2364" lon="2.30741">
        <ele>442</ele>
        <time>2021-09-02T11:22:17Z</time>
      </trkpt>
      <trkpt lat="44.23637" lon="2.3075">
        <ele>440</ele>
        <time>2021-09-02T11:22:18Z</time>
      </trkpt>
      <trkpt lat="44.23627" lon="2.30768">
        <ele>438</ele>
        <time>2021-09-02T11:22:20Z</time>
      </trkpt>
      <trkpt lat="44.23607" lon="2.30793">
        <ele>436</ele>
        <time>2021-09-02T11:22:23Z</time>
      </trkpt>
      <trkpt lat="44.23595" lon="2.30823">
        <ele>433</ele>
        <time>2021-09-02T11:22:26Z</time>
      </trkpt>
      <trkpt lat="44.2359" lon="2.30843">
        <ele>432</ele>
        <time>2021-09-02T11:22:28Z</time>
      </trkpt>
      <trkpt lat="44.23589" lon="2.30866">
        <ele>430</ele>
        <time>2021-09-02T11:22:30Z</time>
      </trkpt>
      <trkpt lat="44.23591" lon="2.30878">
        <ele>429</ele>
        <time>2021-09-02T11:22:31Z</time>
      </trkpt>
      <trkpt lat="44.23592" lon="2.30889">
        <ele>427</ele>
        <time>2021-09-02T11:22:32Z</time>
      </trkpt>
      <trkpt lat="44.23585" lon="2.30945">
        <ele>421</ele>
        <time>2021-09-02T11:22:37Z</time>
      </trkpt>
      <trkpt lat="44.23562" lon="2.31031">
        <ele>412</ele>
        <time>2021-09-02T11:22:45Z</time>
      </trkpt>
      <trkpt lat="44.23559" lon="2.31039">
        <ele>411</ele>
        <time>2021-09-02T11:22:46Z</time>
      </trkpt>
      <trkpt lat="44.23551" lon="2.31047">
        <ele>412</ele>
        <time>2021-09-02T11:22:48Z</time>
      </trkpt>
      <trkpt lat="44.23545" lon="2.31049">
        <ele>412</ele>
        <time>2021-09-02T11:22:49Z</time>
      </trkpt>
      <trkpt lat="44.23514" lon="2.31048">
        <ele>412</ele>
        <time>2021-09-02T11:22:54Z</time>
      </trkpt>
      <trkpt lat="44.23494" lon="2.31036">
        <ele>409</ele>
        <time>2021-09-02T11:22:59Z</time>
      </trkpt>
      <trkpt lat="44.23476" lon="2.31033">
        <ele>408</ele>
        <time>2021-09-02T11:23:00Z</time>
      </trkpt>
      <trkpt lat="44.23443" lon="2.31072">
        <ele>407</ele>
        <time>2021-09-02T11:23:06Z</time>
      </trkpt>
      <trkpt lat="44.23437" lon="2.31076">
        <ele>406</ele>
        <time>2021-09-02T11:23:07Z</time>
      </trkpt>
      <trkpt lat="44.23431" lon="2.31076">
        <ele>405</ele>
        <time>2021-09-02T11:23:08Z</time>
      </trkpt>
      <trkpt lat="44.23425" lon="2.31074">
        <ele>403</ele>
        <time>2021-09-02T11:23:09Z</time>
      </trkpt>
      <trkpt lat="44.23419" lon="2.3107">
        <ele>402</ele>
        <time>2021-09-02T11:23:10Z</time>
      </trkpt>
      <trkpt lat="44.23401" lon="2.31047">
        <ele>400</ele>
        <time>2021-09-02T11:23:14Z</time>
      </trkpt>
      <trkpt lat="44.23374" lon="2.31032">
        <ele>397</ele>
        <time>2021-09-02T11:23:19Z</time>
      </trkpt>
      <trkpt lat="44.23354" lon="2.31029">
        <ele>394</ele>
        <time>2021-09-02T11:23:22Z</time>
      </trkpt>
      <trkpt lat="44.23302" lon="2.31028">
        <ele>383</ele>
        <time>2021-09-02T11:23:31Z</time>
      </trkpt>
      <trkpt lat="44.23294" lon="2.31026">
        <ele>385</ele>
        <time>2021-09-02T11:23:33Z</time>
      </trkpt>
      <trkpt lat="44.23288" lon="2.31023">
        <ele>388</ele>
        <time>2021-09-02T11:23:35Z</time>
      </trkpt>
      <trkpt lat="44.23283" lon="2.31023">
        <ele>390</ele>
        <time>2021-09-02T11:23:38Z</time>
      </trkpt>
      <trkpt lat="44.23274" lon="2.31014">
        <ele>387</ele>
        <time>2021-09-02T11:23:42Z</time>
      </trkpt>
      <trkpt lat="44.23267" lon="2.31">
        <ele>386</ele>
        <time>2021-09-02T11:23:44Z</time>
      </trkpt>
      <trkpt lat="44.23262" lon="2.30976">
        <ele>384</ele>
        <time>2021-09-02T11:23:47Z</time>
      </trkpt>
      <trkpt lat="44.23264" lon="2.30951">
        <ele>384</ele>
        <time>2021-09-02T11:23:50Z</time>
      </trkpt>
      <trkpt lat="44.23272" lon="2.30913">
        <ele>382</ele>
        <time>2021-09-02T11:23:54Z</time>
      </trkpt>
      <trkpt lat="44.23274" lon="2.30886">
        <ele>381</ele>
        <time>2021-09-02T11:23:57Z</time>
      </trkpt>
      <trkpt lat="44.23269" lon="2.30873">
        <ele>380</ele>
        <time>2021-09-02T11:23:59Z</time>
      </trkpt>
      <trkpt lat="44.23264" lon="2.30869">
        <ele>380</ele>
        <time>2021-09-02T11:24:00Z</time>
      </trkpt>
      <trkpt lat="44.23252" lon="2.30869">
        <ele>379</ele>
        <time>2021-09-02T11:24:02Z</time>
      </trkpt>
      <trkpt lat="44.23248" lon="2.30875">
        <ele>378</ele>
        <time>2021-09-02T11:24:03Z</time>
      </trkpt>
      <trkpt lat="44.23226" lon="2.309">
        <ele>375</ele>
        <time>2021-09-02T11:24:07Z</time>
      </trkpt>
      <trkpt lat="44.23219" lon="2.30902">
        <ele>374</ele>
        <time>2021-09-02T11:24:08Z</time>
      </trkpt>
      <trkpt lat="44.23187" lon="2.30903">
        <ele>371</ele>
        <time>2021-09-02T11:24:12Z</time>
      </trkpt>
      <trkpt lat="44.23162" lon="2.3091">
        <ele>372</ele>
        <time>2021-09-02T11:24:15Z</time>
      </trkpt>
      <trkpt lat="44.23149" lon="2.30922">
        <ele>372</ele>
        <time>2021-09-02T11:24:17Z</time>
      </trkpt>
      <trkpt lat="44.23136" lon="2.3093">
        <ele>373</ele>
        <time>2021-09-02T11:24:19Z</time>
      </trkpt>
      <trkpt lat="44.23129" lon="2.30933">
        <ele>373</ele>
        <time>2021-09-02T11:24:20Z</time>
      </trkpt>
      <trkpt lat="44.23114" lon="2.30932">
        <ele>373</ele>
        <time>2021-09-02T11:24:22Z</time>
      </trkpt>
      <trkpt lat="44.23107" lon="2.30932">
        <ele>373</ele>
        <time>2021-09-02T11:24:23Z</time>
      </trkpt>
      <trkpt lat="44.2308" lon="2.3095">
        <ele>371</ele>
        <time>2021-09-02T11:24:28Z</time>
      </trkpt>
      <trkpt lat="44.23053" lon="2.30962">
        <ele>370</ele>
        <time>2021-09-02T11:24:32Z</time>
      </trkpt>
      <trkpt lat="44.22981" lon="2.31015">
        <ele>360</ele>
        <time>2021-09-02T11:24:42Z</time>
      </trkpt>
      <trkpt lat="44.22958" lon="2.31025">
        <ele>356</ele>
        <time>2021-09-02T11:24:45Z</time>
      </trkpt>
      <trkpt lat="44.22942" lon="2.31026">
        <ele>354</ele>
        <time>2021-09-02T11:24:47Z</time>
      </trkpt>
      <trkpt lat="44.22927" lon="2.31023">
        <ele>351</ele>
        <time>2021-09-02T11:24:49Z</time>
      </trkpt>
      <trkpt lat="44.22916" lon="2.31031">
        <ele>347</ele>
        <time>2021-09-02T11:24:51Z</time>
      </trkpt>
      <trkpt lat="44.22908" lon="2.31048">
        <ele>346</ele>
        <time>2021-09-02T11:24:53Z</time>
      </trkpt>
      <trkpt lat="44.22903" lon="2.31057">
        <ele>346</ele>
        <time>2021-09-02T11:24:54Z</time>
      </trkpt>
      <trkpt lat="44.22897" lon="2.31063">
        <ele>347</ele>
        <time>2021-09-02T11:24:55Z</time>
      </trkpt>
      <trkpt lat="44.22884" lon="2.31071">
        <ele>348</ele>
        <time>2021-09-02T11:24:57Z</time>
      </trkpt>
      <trkpt lat="44.22877" lon="2.3107">
        <ele>347</ele>
        <time>2021-09-02T11:24:59Z</time>
      </trkpt>
      <trkpt lat="44.22859" lon="2.31061">
        <ele>345</ele>
        <time>2021-09-02T11:25:13Z</time>
      </trkpt>
      <trkpt lat="44.22852" lon="2.3106">
        <ele>346</ele>
        <time>2021-09-02T11:25:17Z</time>
      </trkpt>
      <trkpt lat="44.22846" lon="2.31057">
        <ele>350</ele>
        <time>2021-09-02T11:25:20Z</time>
      </trkpt>
      <trkpt lat="44.2284" lon="2.31051">
        <ele>352</ele>
        <time>2021-09-02T11:25:23Z</time>
      </trkpt>
      <trkpt lat="44.22831" lon="2.31042">
        <ele>357</ele>
        <time>2021-09-02T11:25:29Z</time>
      </trkpt>
      <trkpt lat="44.22821" lon="2.31031">
        <ele>362</ele>
        <time>2021-09-02T11:25:34Z</time>
      </trkpt>
      <trkpt lat="44.22817" lon="2.31028">
        <ele>364</ele>
        <time>2021-09-02T11:25:36Z</time>
      </trkpt>
      <trkpt lat="44.22812" lon="2.31027">
        <ele>365</ele>
        <time>2021-09-02T11:25:38Z</time>
      </trkpt>
      <trkpt lat="44.22806" lon="2.31027">
        <ele>367</ele>
        <time>2021-09-02T11:25:41Z</time>
      </trkpt>
      <trkpt lat="44.228" lon="2.31028">
        <ele>369</ele>
        <time>2021-09-02T11:25:44Z</time>
      </trkpt>
      <trkpt lat="44.22776" lon="2.31046">
        <ele>370</ele>
        <time>2021-09-02T11:25:57Z</time>
      </trkpt>
      <trkpt lat="44.2277" lon="2.31051">
        <ele>372</ele>
        <time>2021-09-02T11:26:00Z</time>
      </trkpt>
      <trkpt lat="44.22764" lon="2.31055">
        <ele>373</ele>
        <time>2021-09-02T11:26:04Z</time>
      </trkpt>
      <trkpt lat="44.2275" lon="2.31067">
        <ele>375</ele>
        <time>2021-09-02T11:26:12Z</time>
      </trkpt>
      <trkpt lat="44.22746" lon="2.31074">
        <ele>379</ele>
        <time>2021-09-02T11:26:15Z</time>
      </trkpt>
      <trkpt lat="44.22745" lon="2.31082">
        <ele>380</ele>
        <time>2021-09-02T11:26:18Z</time>
      </trkpt>
      <trkpt lat="44.22732" lon="2.31172">
        <ele>398</ele>
        <time>2021-09-02T11:26:51Z</time>
      </trkpt>
      <trkpt lat="44.22728" lon="2.31187">
        <ele>400</ele>
        <time>2021-09-02T11:26:57Z</time>
      </trkpt>
      <trkpt lat="44.22724" lon="2.31217">
        <ele>404</ele>
        <time>2021-09-02T11:27:08Z</time>
      </trkpt>
      <trkpt lat="44.22721" lon="2.3126">
        <ele>404</ele>
        <time>2021-09-02T11:27:24Z</time>
      </trkpt>
      <trkpt lat="44.22715" lon="2.31283">
        <ele>403</ele>
        <time>2021-09-02T11:27:33Z</time>
      </trkpt>
      <trkpt lat="44.22714" lon="2.31295">
        <ele>400</ele>
        <time>2021-09-02T11:27:38Z</time>
      </trkpt>
      <trkpt lat="44.22714" lon="2.31313">
        <ele>395</ele>
        <time>2021-09-02T11:27:45Z</time>
      </trkpt>
      <trkpt lat="44.22714" lon="2.31321">
        <ele>396</ele>
        <time>2021-09-02T11:27:48Z</time>
      </trkpt>
      <trkpt lat="44.22712" lon="2.31331">
        <ele>396</ele>
        <time>2021-09-02T11:27:51Z</time>
      </trkpt>
      <trkpt lat="44.22706" lon="2.31344">
        <ele>395</ele>
        <time>2021-09-02T11:27:57Z</time>
      </trkpt>
      <trkpt lat="44.22702" lon="2.31349">
        <ele>392</ele>
        <time>2021-09-02T11:28:00Z</time>
      </trkpt>
      <trkpt lat="44.22697" lon="2.31352">
        <ele>393</ele>
        <time>2021-09-02T11:28:03Z</time>
      </trkpt>
      <trkpt lat="44.22691" lon="2.3135">
        <ele>395</ele>
        <time>2021-09-02T11:28:06Z</time>
      </trkpt>
      <trkpt lat="44.22688" lon="2.31344">
        <ele>397</ele>
        <time>2021-09-02T11:28:09Z</time>
      </trkpt>
      <trkpt lat="44.22684" lon="2.31338">
        <ele>401</ele>
        <time>2021-09-02T11:28:12Z</time>
      </trkpt>
      <trkpt lat="44.22682" lon="2.31332">
        <ele>402</ele>
        <time>2021-09-02T11:28:15Z</time>
      </trkpt>
      <trkpt lat="44.2268" lon="2.31324">
        <ele>405</ele>
        <time>2021-09-02T11:28:19Z</time>
      </trkpt>
      <trkpt lat="44.22679" lon="2.3131">
        <ele>408</ele>
        <time>2021-09-02T11:28:24Z</time>
      </trkpt>
      <trkpt lat="44.22683" lon="2.31284">
        <ele>411</ele>
        <time>2021-09-02T11:28:32Z</time>
      </trkpt>
      <trkpt lat="44.22684" lon="2.31274">
        <ele>411</ele>
        <time>2021-09-02T11:28:35Z</time>
      </trkpt>
      <trkpt lat="44.22678" lon="2.31255">
        <ele>414</ele>
        <time>2021-09-02T11:28:41Z</time>
      </trkpt>
      <trkpt lat="44.22665" lon="2.3123">
        <ele>415</ele>
        <time>2021-09-02T11:28:49Z</time>
      </trkpt>
      <trkpt lat="44.22659" lon="2.31219">
        <ele>417</ele>
        <time>2021-09-02T11:28:53Z</time>
      </trkpt>
      <trkpt lat="44.22656" lon="2.31214">
        <ele>417</ele>
        <time>2021-09-02T11:28:55Z</time>
      </trkpt>
      <trkpt lat="44.22649" lon="2.31201">
        <ele>419</ele>
        <time>2021-09-02T11:29:01Z</time>
      </trkpt>
      <trkpt lat="44.22646" lon="2.31196">
        <ele>420</ele>
        <time>2021-09-02T11:29:04Z</time>
      </trkpt>
      <trkpt lat="44.22626" lon="2.31183">
        <ele>421</ele>
        <time>2021-09-02T11:29:16Z</time>
      </trkpt>
      <trkpt lat="44.22621" lon="2.31181">
        <ele>421</ele>
        <time>2021-09-02T11:29:19Z</time>
      </trkpt>
      <trkpt lat="44.22604" lon="2.31176">
        <ele>420</ele>
        <time>2021-09-02T11:29:28Z</time>
      </trkpt>
      <trkpt lat="44.22585" lon="2.31176">
        <ele>422</ele>
        <time>2021-09-02T11:29:37Z</time>
      </trkpt>
      <trkpt lat="44.22575" lon="2.31179">
        <ele>423</ele>
        <time>2021-09-02T11:29:42Z</time>
      </trkpt>
      <trkpt lat="44.22559" lon="2.31188">
        <ele>425</ele>
        <time>2021-09-02T11:29:51Z</time>
      </trkpt>
      <trkpt lat="44.22513" lon="2.31263">
        <ele>427</ele>
        <time>2021-09-02T11:30:24Z</time>
      </trkpt>
      <trkpt lat="44.22492" lon="2.31294">
        <ele>428</ele>
        <time>2021-09-02T11:30:39Z</time>
      </trkpt>
      <trkpt lat="44.22476" lon="2.3132">
        <ele>428</ele>
        <time>2021-09-02T11:30:51Z</time>
      </trkpt>
      <trkpt lat="44.22472" lon="2.31324">
        <ele>428</ele>
        <time>2021-09-02T11:30:54Z</time>
      </trkpt>
      <trkpt lat="44.22467" lon="2.31328">
        <ele>427</ele>
        <time>2021-09-02T11:30:57Z</time>
      </trkpt>
      <trkpt lat="44.22461" lon="2.31328">
        <ele>427</ele>
        <time>2021-09-02T11:31:00Z</time>
      </trkpt>
      <trkpt lat="44.22457" lon="2.31323">
        <ele>428</ele>
        <time>2021-09-02T11:31:03Z</time>
      </trkpt>
      <trkpt lat="44.22453" lon="2.31318">
        <ele>428</ele>
        <time>2021-09-02T11:31:05Z</time>
      </trkpt>
      <trkpt lat="44.22448" lon="2.31307">
        <ele>430</ele>
        <time>2021-09-02T11:31:09Z</time>
      </trkpt>
      <trkpt lat="44.22447" lon="2.31301">
        <ele>430</ele>
        <time>2021-09-02T11:31:11Z</time>
      </trkpt>
      <trkpt lat="44.22445" lon="2.31293">
        <ele>431</ele>
        <time>2021-09-02T11:31:14Z</time>
      </trkpt>
      <trkpt lat="44.22444" lon="2.31277">
        <ele>432</ele>
        <time>2021-09-02T11:31:20Z</time>
      </trkpt>
      <trkpt lat="44.22442" lon="2.3127">
        <ele>433</ele>
        <time>2021-09-02T11:31:23Z</time>
      </trkpt>
      <trkpt lat="44.22433" lon="2.31257">
        <ele>434</ele>
        <time>2021-09-02T11:31:29Z</time>
      </trkpt>
      <trkpt lat="44.22382" lon="2.31229">
        <ele>436</ele>
        <time>2021-09-02T11:31:56Z</time>
      </trkpt>
      <trkpt lat="44.22367" lon="2.31222">
        <ele>436</ele>
        <time>2021-09-02T11:32:03Z</time>
      </trkpt>
      <trkpt lat="44.22352" lon="2.31211">
        <ele>437</ele>
        <time>2021-09-02T11:32:11Z</time>
      </trkpt>
      <trkpt lat="44.22341" lon="2.31205">
        <ele>437</ele>
        <time>2021-09-02T11:32:17Z</time>
      </trkpt>
      <trkpt lat="44.22329" lon="2.31204">
        <ele>439</ele>
        <time>2021-09-02T11:32:22Z</time>
      </trkpt>
      <trkpt lat="44.2232" lon="2.31208">
        <ele>441</ele>
        <time>2021-09-02T11:32:26Z</time>
      </trkpt>
      <trkpt lat="44.2231" lon="2.31215">
        <ele>443</ele>
        <time>2021-09-02T11:32:31Z</time>
      </trkpt>
      <trkpt lat="44.22299" lon="2.31231">
        <ele>445</ele>
        <time>2021-09-02T11:32:38Z</time>
      </trkpt>
      <trkpt lat="44.22285" lon="2.31315">
        <ele>454</ele>
        <time>2021-09-02T11:33:10Z</time>
      </trkpt>
      <trkpt lat="44.22269" lon="2.31397">
        <ele>458</ele>
        <time>2021-09-02T11:33:41Z</time>
      </trkpt>
      <trkpt lat="44.22248" lon="2.31463">
        <ele>460</ele>
        <time>2021-09-02T11:34:03Z</time>
      </trkpt>
      <trkpt lat="44.22246" lon="2.31471">
        <ele>460</ele>
        <time>2021-09-02T11:34:06Z</time>
      </trkpt>
      <trkpt lat="44.22242" lon="2.31487">
        <ele>457</ele>
        <time>2021-09-02T11:34:12Z</time>
      </trkpt>
      <trkpt lat="44.22239" lon="2.31501">
        <ele>458</ele>
        <time>2021-09-02T11:34:16Z</time>
      </trkpt>
      <trkpt lat="44.22234" lon="2.31515">
        <ele>457</ele>
        <time>2021-09-02T11:34:21Z</time>
      </trkpt>
      <trkpt lat="44.2223" lon="2.31527">
        <ele>456</ele>
        <time>2021-09-02T11:34:25Z</time>
      </trkpt>
      <trkpt lat="44.22226" lon="2.31539">
        <ele>456</ele>
        <time>2021-09-02T11:34:29Z</time>
      </trkpt>
      <trkpt lat="44.22211" lon="2.3156">
        <ele>457</ele>
        <time>2021-09-02T11:34:37Z</time>
      </trkpt>
      <trkpt lat="44.22171" lon="2.31614">
        <ele>457</ele>
        <time>2021-09-02T11:34:57Z</time>
      </trkpt>
      <trkpt lat="44.22153" lon="2.31636">
        <ele>458</ele>
        <time>2021-09-02T11:35:05Z</time>
      </trkpt>
      <trkpt lat="44.22132" lon="2.31663">
        <ele>458</ele>
        <time>2021-09-02T11:35:15Z</time>
      </trkpt>
      <trkpt lat="44.22129" lon="2.3167">
        <ele>457</ele>
        <time>2021-09-02T11:35:17Z</time>
      </trkpt>
      <trkpt lat="44.22126" lon="2.31698">
        <ele>454</ele>
        <time>2021-09-02T11:35:23Z</time>
      </trkpt>
      <trkpt lat="44.22125" lon="2.31707">
        <ele>455</ele>
        <time>2021-09-02T11:35:25Z</time>
      </trkpt>
      <trkpt lat="44.22123" lon="2.31713">
        <ele>455</ele>
        <time>2021-09-02T11:35:28Z</time>
      </trkpt>
      <trkpt lat="44.22122" lon="2.31734">
        <ele>454</ele>
        <time>2021-09-02T11:35:34Z</time>
      </trkpt>
      <trkpt lat="44.22122" lon="2.31769">
        <ele>455</ele>
        <time>2021-09-02T11:35:44Z</time>
      </trkpt>
      <trkpt lat="44.22121" lon="2.31775">
        <ele>456</ele>
        <time>2021-09-02T11:35:46Z</time>
      </trkpt>
      <trkpt lat="44.2212" lon="2.31782">
        <ele>457</ele>
        <time>2021-09-02T11:35:49Z</time>
      </trkpt>
      <trkpt lat="44.22109" lon="2.31791">
        <ele>457</ele>
        <time>2021-09-02T11:35:55Z</time>
      </trkpt>
      <trkpt lat="44.22098" lon="2.31793">
        <ele>456</ele>
        <time>2021-09-02T11:36:02Z</time>
      </trkpt>
      <trkpt lat="44.22093" lon="2.31793">
        <ele>453</ele>
        <time>2021-09-02T11:36:05Z</time>
      </trkpt>
      <trkpt lat="44.22081" lon="2.31789">
        <ele>450</ele>
        <time>2021-09-02T11:36:11Z</time>
      </trkpt>
      <trkpt lat="44.22075" lon="2.31787">
        <ele>448</ele>
        <time>2021-09-02T11:36:14Z</time>
      </trkpt>
      <trkpt lat="44.22069" lon="2.31788">
        <ele>446</ele>
        <time>2021-09-02T11:36:17Z</time>
      </trkpt>
      <trkpt lat="44.22062" lon="2.31787">
        <ele>444</ele>
        <time>2021-09-02T11:36:20Z</time>
      </trkpt>
      <trkpt lat="44.22056" lon="2.31785">
        <ele>442</ele>
        <time>2021-09-02T11:36:24Z</time>
      </trkpt>
      <trkpt lat="44.2205" lon="2.31784">
        <ele>440</ele>
        <time>2021-09-02T11:36:27Z</time>
      </trkpt>
      <trkpt lat="44.22039" lon="2.31782">
        <ele>434</ele>
        <time>2021-09-02T11:36:42Z</time>
      </trkpt>
      <trkpt lat="44.22028" lon="2.31779">
        <ele>420</ele>
        <time>2021-09-02T11:36:52Z</time>
      </trkpt>
      <trkpt lat="44.22019" lon="2.31782">
        <ele>417</ele>
        <time>2021-09-02T11:36:57Z</time>
      </trkpt>
      <trkpt lat="44.22012" lon="2.31775">
        <ele>406</ele>
        <time>2021-09-02T11:37:05Z</time>
      </trkpt>
      <trkpt lat="44.22005" lon="2.31773">
        <ele>405</ele>
        <time>2021-09-02T11:37:11Z</time>
      </trkpt>
      <trkpt lat="44.22003" lon="2.31765">
        <ele>406</ele>
        <time>2021-09-02T11:37:15Z</time>
      </trkpt>
      <trkpt lat="44.22004" lon="2.31757">
        <ele>407</ele>
        <time>2021-09-02T11:37:18Z</time>
      </trkpt>
      <trkpt lat="44.22004" lon="2.31762">
        <ele>415</ele>
        <time>2021-09-02T11:37:55Z</time>
      </trkpt>
      <trkpt lat="44.22" lon="2.31772">
        <ele>415</ele>
        <time>2021-09-02T11:37:59Z</time>
      </trkpt>
      <trkpt lat="44.21989" lon="2.31803">
        <ele>432</ele>
        <time>2021-09-02T11:38:12Z</time>
      </trkpt>
      <trkpt lat="44.21985" lon="2.31815">
        <ele>432</ele>
        <time>2021-09-02T11:38:15Z</time>
      </trkpt>
      <trkpt lat="44.2199" lon="2.31827">
        <ele>436</ele>
        <time>2021-09-02T11:38:19Z</time>
      </trkpt>
      <trkpt lat="44.21996" lon="2.31838">
        <ele>445</ele>
        <time>2021-09-02T11:38:24Z</time>
      </trkpt>
      <trkpt lat="44.21995" lon="2.31847">
        <ele>446</ele>
        <time>2021-09-02T11:38:28Z</time>
      </trkpt>
      <trkpt lat="44.21992" lon="2.31871">
        <ele>446</ele>
        <time>2021-09-02T11:38:37Z</time>
      </trkpt>
      <trkpt lat="44.21997" lon="2.31871">
        <ele>446</ele>
        <time>2021-09-02T11:38:51Z</time>
      </trkpt>
      <trkpt lat="44.21994" lon="2.31873">
        <ele>447</ele>
        <time>2021-09-02T11:39:37Z</time>
      </trkpt>
      <trkpt lat="44.21988" lon="2.31867">
        <ele>448</ele>
        <time>2021-09-02T11:39:53Z</time>
      </trkpt>
      <trkpt lat="44.2198" lon="2.31867">
        <ele>448</ele>
        <time>2021-09-02T11:40:00Z</time>
      </trkpt>
      <trkpt lat="44.21977" lon="2.31861">
        <ele>453</ele>
        <time>2021-09-02T11:40:13Z</time>
      </trkpt>
      <trkpt lat="44.21979" lon="2.3185">
        <ele>455</ele>
        <time>2021-09-02T11:40:19Z</time>
      </trkpt>
      <trkpt lat="44.21978" lon="2.31843">
        <ele>458</ele>
        <time>2021-09-02T11:40:23Z</time>
      </trkpt>
      <trkpt lat="44.21981" lon="2.31836">
        <ele>461</ele>
        <time>2021-09-02T11:40:28Z</time>
      </trkpt>
      <trkpt lat="44.21988" lon="2.31831">
        <ele>468</ele>
        <time>2021-09-02T11:40:33Z</time>
      </trkpt>
      <trkpt lat="44.22008" lon="2.31829">
        <ele>481</ele>
        <time>2021-09-02T11:40:43Z</time>
      </trkpt>
      <trkpt lat="44.22018" lon="2.31826">
        <ele>484</ele>
        <time>2021-09-02T11:40:54Z</time>
      </trkpt>
      <trkpt lat="44.22022" lon="2.3183">
        <ele>483</ele>
        <time>2021-09-02T11:41:01Z</time>
      </trkpt>
      <trkpt lat="44.22025" lon="2.31826">
        <ele>481</ele>
        <time>2021-09-02T11:41:30Z</time>
      </trkpt>
      <trkpt lat="44.22023" lon="2.31819">
        <ele>481</ele>
        <time>2021-09-02T11:41:34Z</time>
      </trkpt>
      <trkpt lat="44.22024" lon="2.31821">
        <ele>476</ele>
        <time>2021-09-02T11:41:53Z</time>
      </trkpt>
      <trkpt lat="44.22026" lon="2.31828">
        <ele>476</ele>
        <time>2021-09-02T11:41:56Z</time>
      </trkpt>
      <trkpt lat="44.22028" lon="2.31835">
        <ele>473</ele>
        <time>2021-09-02T11:42:00Z</time>
      </trkpt>
      <trkpt lat="44.22039" lon="2.31829">
        <ele>471</ele>
        <time>2021-09-02T11:44:10Z</time>
      </trkpt>
      <trkpt lat="44.22031" lon="2.31807">
        <ele>471</ele>
        <time>2021-09-02T11:44:27Z</time>
      </trkpt>
      <trkpt lat="44.22014" lon="2.31791">
        <ele>470</ele>
        <time>2021-09-02T11:44:39Z</time>
      </trkpt>
      <trkpt lat="44.22014" lon="2.31863">
        <ele>503</ele>
        <time>2021-09-02T12:46:33Z</time>
      </trkpt>
      <trkpt lat="44.22016" lon="2.31864">
        <ele>500</ele>
        <time>2021-09-02T12:46:35Z</time>
      </trkpt>
      <trkpt lat="44.22016" lon="2.31849">
        <ele>492</ele>
        <time>2021-09-02T12:46:38Z</time>
      </trkpt>
      <trkpt lat="44.22049" lon="2.31777">
        <ele>486</ele>
        <time>2021-09-02T12:47:51Z</time>
      </trkpt>
      <trkpt lat="44.22036" lon="2.31914">
        <ele>489</ele>
        <time>2021-09-02T12:49:16Z</time>
      </trkpt>
      <trkpt lat="44.22003" lon="2.31867">
        <ele>503</ele>
        <time>2021-09-02T12:49:33Z</time>
      </trkpt>
      <trkpt lat="44.22004" lon="2.31854">
        <ele>505</ele>
        <time>2021-09-02T12:49:37Z</time>
      </trkpt>
      <trkpt lat="44.22005" lon="2.31839">
        <ele>502</ele>
        <time>2021-09-02T12:49:39Z</time>
      </trkpt>
      <trkpt lat="44.22005" lon="2.31829">
        <ele>500</ele>
        <time>2021-09-02T12:49:41Z</time>
      </trkpt>
      <trkpt lat="44.22001" lon="2.31824">
        <ele>499</ele>
        <time>2021-09-02T12:49:44Z</time>
      </trkpt>
      <trkpt lat="44.21995" lon="2.31823">
        <ele>497</ele>
        <time>2021-09-02T12:49:48Z</time>
      </trkpt>
      <trkpt lat="44.21989" lon="2.31811">
        <ele>495</ele>
        <time>2021-09-02T12:49:52Z</time>
      </trkpt>
      <trkpt lat="44.2199" lon="2.31804">
        <ele>494</ele>
        <time>2021-09-02T12:49:55Z</time>
      </trkpt>
      <trkpt lat="44.21985" lon="2.31801">
        <ele>493</ele>
        <time>2021-09-02T12:50:00Z</time>
      </trkpt>
      <trkpt lat="44.21981" lon="2.31794">
        <ele>489</ele>
        <time>2021-09-02T12:50:03Z</time>
      </trkpt>
      <trkpt lat="44.21978" lon="2.3179">
        <ele>486</ele>
        <time>2021-09-02T12:50:07Z</time>
      </trkpt>
      <trkpt lat="44.21951" lon="2.31783">
        <ele>486</ele>
        <time>2021-09-02T12:50:37Z</time>
      </trkpt>
      <trkpt lat="44.21924" lon="2.3174">
        <ele>495</ele>
        <time>2021-09-02T12:50:41Z</time>
      </trkpt>
      <trkpt lat="44.21904" lon="2.31746">
        <ele>498</ele>
        <time>2021-09-02T12:50:50Z</time>
      </trkpt>
      <trkpt lat="44.219" lon="2.3175">
        <ele>498</ele>
        <time>2021-09-02T12:50:55Z</time>
      </trkpt>
      <trkpt lat="44.21874" lon="2.31779">
        <ele>489</ele>
        <time>2021-09-02T12:50:58Z</time>
      </trkpt>
      <trkpt lat="44.21878" lon="2.3177">
        <ele>483</ele>
        <time>2021-09-02T12:51:02Z</time>
      </trkpt>
      <trkpt lat="44.21886" lon="2.31749">
        <ele>472</ele>
        <time>2021-09-02T12:51:06Z</time>
      </trkpt>
      <trkpt lat="44.21942" lon="2.31703">
        <ele>434</ele>
        <time>2021-09-02T12:51:09Z</time>
      </trkpt>
      <trkpt lat="44.21862" lon="2.31707">
        <ele>425</ele>
        <time>2021-09-02T12:51:13Z</time>
      </trkpt>
      <trkpt lat="44.21867" lon="2.317">
        <ele>423</ele>
        <time>2021-09-02T12:51:16Z</time>
      </trkpt>
      <trkpt lat="44.21872" lon="2.31696">
        <ele>427</ele>
        <time>2021-09-02T12:51:18Z</time>
      </trkpt>
      <trkpt lat="44.21881" lon="2.31699">
        <ele>433</ele>
        <time>2021-09-02T12:51:22Z</time>
      </trkpt>
      <trkpt lat="44.21877" lon="2.31692">
        <ele>434</ele>
        <time>2021-09-02T12:51:33Z</time>
      </trkpt>
      <trkpt lat="44.21807" lon="2.31679">
        <ele>447</ele>
        <time>2021-09-02T12:51:54Z</time>
      </trkpt>
      <trkpt lat="44.21748" lon="2.3168">
        <ele>427</ele>
        <time>2021-09-02T12:51:56Z</time>
      </trkpt>
      <trkpt lat="44.21752" lon="2.31699">
        <ele>413</ele>
        <time>2021-09-02T12:51:58Z</time>
      </trkpt>
      <trkpt lat="44.21728" lon="2.31711">
        <ele>379</ele>
        <time>2021-09-02T12:52:04Z</time>
      </trkpt>
      <trkpt lat="44.21656" lon="2.31668">
        <ele>372</ele>
        <time>2021-09-02T12:52:23Z</time>
      </trkpt>
      <trkpt lat="44.21646" lon="2.31669">
        <ele>374</ele>
        <time>2021-09-02T12:52:25Z</time>
      </trkpt>
      <trkpt lat="44.21658" lon="2.31687">
        <ele>379</ele>
        <time>2021-09-02T12:52:26Z</time>
      </trkpt>
      <trkpt lat="44.216" lon="2.3169">
        <ele>384</ele>
        <time>2021-09-02T12:52:36Z</time>
      </trkpt>
      <trkpt lat="44.21579" lon="2.31682">
        <ele>386</ele>
        <time>2021-09-02T12:52:40Z</time>
      </trkpt>
      <trkpt lat="44.21549" lon="2.31722">
        <ele>415</ele>
        <time>2021-09-02T12:52:42Z</time>
      </trkpt>
      <trkpt lat="44.21542" lon="2.31682">
        <ele>437</ele>
        <time>2021-09-02T12:52:46Z</time>
      </trkpt>
      <trkpt lat="44.21503" lon="2.31688">
        <ele>438</ele>
        <time>2021-09-02T12:52:50Z</time>
      </trkpt>
      <trkpt lat="44.21471" lon="2.31637">
        <ele>446</ele>
        <time>2021-09-02T12:52:54Z</time>
      </trkpt>
      <trkpt lat="44.21434" lon="2.31637">
        <ele>464</ele>
        <time>2021-09-02T12:52:58Z</time>
      </trkpt>
      <trkpt lat="44.21419" lon="2.31631">
        <ele>461</ele>
        <time>2021-09-02T12:53:00Z</time>
      </trkpt>
      <trkpt lat="44.2141" lon="2.31633">
        <ele>454</ele>
        <time>2021-09-02T12:53:01Z</time>
      </trkpt>
      <trkpt lat="44.21402" lon="2.31631">
        <ele>451</ele>
        <time>2021-09-02T12:53:02Z</time>
      </trkpt>
      <trkpt lat="44.21386" lon="2.31626">
        <ele>447</ele>
        <time>2021-09-02T12:53:04Z</time>
      </trkpt>
      <trkpt lat="44.21262" lon="2.31585">
        <ele>438</ele>
        <time>2021-09-02T12:53:20Z</time>
      </trkpt>
      <trkpt lat="44.21247" lon="2.31576">
        <ele>439</ele>
        <time>2021-09-02T12:53:22Z</time>
      </trkpt>
      <trkpt lat="44.21235" lon="2.3156">
        <ele>439</ele>
        <time>2021-09-02T12:53:24Z</time>
      </trkpt>
      <trkpt lat="44.21227" lon="2.31543">
        <ele>439</ele>
        <time>2021-09-02T12:53:26Z</time>
      </trkpt>
      <trkpt lat="44.21223" lon="2.31521">
        <ele>438</ele>
        <time>2021-09-02T12:53:28Z</time>
      </trkpt>
      <trkpt lat="44.21223" lon="2.31497">
        <ele>437</ele>
        <time>2021-09-02T12:53:30Z</time>
      </trkpt>
      <trkpt lat="44.21232" lon="2.31465">
        <ele>436</ele>
        <time>2021-09-02T12:53:33Z</time>
      </trkpt>
      <trkpt lat="44.21262" lon="2.31411">
        <ele>432</ele>
        <time>2021-09-02T12:53:39Z</time>
      </trkpt>
      <trkpt lat="44.21275" lon="2.31379">
        <ele>434</ele>
        <time>2021-09-02T12:53:42Z</time>
      </trkpt>
      <trkpt lat="44.21307" lon="2.31362">
        <ele>431</ele>
        <time>2021-09-02T12:53:46Z</time>
      </trkpt>
      <trkpt lat="44.21325" lon="2.31358">
        <ele>429</ele>
        <time>2021-09-02T12:53:48Z</time>
      </trkpt>
      <trkpt lat="44.21335" lon="2.31358">
        <ele>428</ele>
        <time>2021-09-02T12:53:49Z</time>
      </trkpt>
      <trkpt lat="44.21423" lon="2.31372">
        <ele>418</ele>
        <time>2021-09-02T12:53:59Z</time>
      </trkpt>
      <trkpt lat="44.21431" lon="2.3137">
        <ele>417</ele>
        <time>2021-09-02T12:54:00Z</time>
      </trkpt>
      <trkpt lat="44.21438" lon="2.31365">
        <ele>416</ele>
        <time>2021-09-02T12:54:01Z</time>
      </trkpt>
      <trkpt lat="44.21445" lon="2.31358">
        <ele>418</ele>
        <time>2021-09-02T12:54:02Z</time>
      </trkpt>
      <trkpt lat="44.2145" lon="2.31349">
        <ele>420</ele>
        <time>2021-09-02T12:54:03Z</time>
      </trkpt>
      <trkpt lat="44.21454" lon="2.31315">
        <ele>420</ele>
        <time>2021-09-02T12:54:06Z</time>
      </trkpt>
      <trkpt lat="44.21449" lon="2.31255">
        <ele>420</ele>
        <time>2021-09-02T12:54:11Z</time>
      </trkpt>
      <trkpt lat="44.2145" lon="2.31232">
        <ele>420</ele>
        <time>2021-09-02T12:54:13Z</time>
      </trkpt>
      <trkpt lat="44.21507" lon="2.31085">
        <ele>411</ele>
        <time>2021-09-02T12:54:27Z</time>
      </trkpt>
      <trkpt lat="44.21576" lon="2.30984">
        <ele>402</ele>
        <time>2021-09-02T12:54:39Z</time>
      </trkpt>
      <trkpt lat="44.2159" lon="2.30966">
        <ele>401</ele>
        <time>2021-09-02T12:54:42Z</time>
      </trkpt>
      <trkpt lat="44.21593" lon="2.30959">
        <ele>400</ele>
        <time>2021-09-02T12:54:43Z</time>
      </trkpt>
      <trkpt lat="44.21595" lon="2.3095">
        <ele>400</ele>
        <time>2021-09-02T12:54:44Z</time>
      </trkpt>
      <trkpt lat="44.21594" lon="2.30941">
        <ele>400</ele>
        <time>2021-09-02T12:54:45Z</time>
      </trkpt>
      <trkpt lat="44.21591" lon="2.30932">
        <ele>400</ele>
        <time>2021-09-02T12:54:46Z</time>
      </trkpt>
      <trkpt lat="44.21587" lon="2.30926">
        <ele>401</ele>
        <time>2021-09-02T12:54:47Z</time>
      </trkpt>
      <trkpt lat="44.21581" lon="2.30925">
        <ele>402</ele>
        <time>2021-09-02T12:54:48Z</time>
      </trkpt>
      <trkpt lat="44.21574" lon="2.30929">
        <ele>402</ele>
        <time>2021-09-02T12:54:49Z</time>
      </trkpt>
      <trkpt lat="44.21566" lon="2.30935">
        <ele>402</ele>
        <time>2021-09-02T12:54:50Z</time>
      </trkpt>
      <trkpt lat="44.21529" lon="2.3101">
        <ele>400</ele>
        <time>2021-09-02T12:54:58Z</time>
      </trkpt>
      <trkpt lat="44.21347" lon="2.31209">
        <ele>371</ele>
        <time>2021-09-02T12:55:25Z</time>
      </trkpt>
      <trkpt lat="44.21316" lon="2.31221">
        <ele>374</ele>
        <time>2021-09-02T12:55:28Z</time>
      </trkpt>
      <trkpt lat="44.21286" lon="2.31228">
        <ele>371</ele>
        <time>2021-09-02T12:55:31Z</time>
      </trkpt>
      <trkpt lat="44.21221" lon="2.31259">
        <ele>365</ele>
        <time>2021-09-02T12:55:38Z</time>
      </trkpt>
      <trkpt lat="44.21172" lon="2.31265">
        <ele>362</ele>
        <time>2021-09-02T12:55:43Z</time>
      </trkpt>
      <trkpt lat="44.21117" lon="2.3126">
        <ele>359</ele>
        <time>2021-09-02T12:55:49Z</time>
      </trkpt>
      <trkpt lat="44.21091" lon="2.31267">
        <ele>356</ele>
        <time>2021-09-02T12:55:52Z</time>
      </trkpt>
      <trkpt lat="44.21066" lon="2.31282">
        <ele>354</ele>
        <time>2021-09-02T12:55:55Z</time>
      </trkpt>
      <trkpt lat="44.21054" lon="2.31299">
        <ele>352</ele>
        <time>2021-09-02T12:55:57Z</time>
      </trkpt>
      <trkpt lat="44.21027" lon="2.31356">
        <ele>350</ele>
        <time>2021-09-02T12:56:02Z</time>
      </trkpt>
      <trkpt lat="44.20996" lon="2.31392">
        <ele>348</ele>
        <time>2021-09-02T12:56:06Z</time>
      </trkpt>
      <trkpt lat="44.20955" lon="2.31428">
        <ele>346</ele>
        <time>2021-09-02T12:56:11Z</time>
      </trkpt>
      <trkpt lat="44.20946" lon="2.31432">
        <ele>348</ele>
        <time>2021-09-02T12:56:12Z</time>
      </trkpt>
      <trkpt lat="44.20937" lon="2.31435">
        <ele>351</ele>
        <time>2021-09-02T12:56:13Z</time>
      </trkpt>
      <trkpt lat="44.20927" lon="2.31437">
        <ele>353</ele>
        <time>2021-09-02T12:56:14Z</time>
      </trkpt>
      <trkpt lat="44.20876" lon="2.31442">
        <ele>360</ele>
        <time>2021-09-02T12:56:21Z</time>
      </trkpt>
      <trkpt lat="44.20872" lon="2.31443">
        <ele>360</ele>
        <time>2021-09-02T12:56:22Z</time>
      </trkpt>
      <trkpt lat="44.20865" lon="2.31449">
        <ele>360</ele>
        <time>2021-09-02T12:56:24Z</time>
      </trkpt>
      <trkpt lat="44.20862" lon="2.31457">
        <ele>360</ele>
        <time>2021-09-02T12:56:26Z</time>
      </trkpt>
      <trkpt lat="44.20863" lon="2.31475">
        <ele>360</ele>
        <time>2021-09-02T12:56:30Z</time>
      </trkpt>
      <trkpt lat="44.20864" lon="2.31494">
        <ele>360</ele>
        <time>2021-09-02T12:56:34Z</time>
      </trkpt>
      <trkpt lat="44.20866" lon="2.31509">
        <ele>359</ele>
        <time>2021-09-02T12:56:38Z</time>
      </trkpt>
      <trkpt lat="44.20873" lon="2.31513">
        <ele>358</ele>
        <time>2021-09-02T12:56:41Z</time>
      </trkpt>
      <trkpt lat="44.20897" lon="2.31555">
        <ele>355</ele>
        <time>2021-09-02T12:56:57Z</time>
      </trkpt>
      <trkpt lat="44.209" lon="2.31561">
        <ele>354</ele>
        <time>2021-09-02T12:56:59Z</time>
      </trkpt>
      <trkpt lat="44.20902" lon="2.31567">
        <ele>354</ele>
        <time>2021-09-02T12:57:01Z</time>
      </trkpt>
      <trkpt lat="44.20907" lon="2.3158">
        <ele>353</ele>
        <time>2021-09-02T12:57:05Z</time>
      </trkpt>
      <trkpt lat="44.20914" lon="2.31591">
        <ele>352</ele>
        <time>2021-09-02T12:57:09Z</time>
      </trkpt>
      <trkpt lat="44.2092" lon="2.31603">
        <ele>351</ele>
        <time>2021-09-02T12:57:13Z</time>
      </trkpt>
      <trkpt lat="44.20923" lon="2.31609">
        <ele>350</ele>
        <time>2021-09-02T12:57:15Z</time>
      </trkpt>
      <trkpt lat="44.20962" lon="2.31671">
        <ele>343</ele>
        <time>2021-09-02T12:57:36Z</time>
      </trkpt>
      <trkpt lat="44.20969" lon="2.31699">
        <ele>342</ele>
        <time>2021-09-02T12:57:42Z</time>
      </trkpt>
      <trkpt lat="44.2097" lon="2.31709">
        <ele>342</ele>
        <time>2021-09-02T12:57:44Z</time>
      </trkpt>
      <trkpt lat="44.20968" lon="2.31719">
        <ele>342</ele>
        <time>2021-09-02T12:57:46Z</time>
      </trkpt>
      <trkpt lat="44.20963" lon="2.31729">
        <ele>343</ele>
        <time>2021-09-02T12:57:48Z</time>
      </trkpt>
      <trkpt lat="44.20956" lon="2.31753">
        <ele>343</ele>
        <time>2021-09-02T12:57:52Z</time>
      </trkpt>
      <trkpt lat="44.20955" lon="2.31776">
        <ele>343</ele>
        <time>2021-09-02T12:57:55Z</time>
      </trkpt>
      <trkpt lat="44.20956" lon="2.31792">
        <ele>343</ele>
        <time>2021-09-02T12:57:57Z</time>
      </trkpt>
      <trkpt lat="44.21006" lon="2.32002">
        <ele>335</ele>
        <time>2021-09-02T12:58:28Z</time>
      </trkpt>
      <trkpt lat="44.2101" lon="2.32019">
        <ele>335</ele>
        <time>2021-09-02T12:58:32Z</time>
      </trkpt>
      <trkpt lat="44.21011" lon="2.32027">
        <ele>337</ele>
        <time>2021-09-02T12:58:34Z</time>
      </trkpt>
      <trkpt lat="44.21017" lon="2.32052">
        <ele>339</ele>
        <time>2021-09-02T12:58:40Z</time>
      </trkpt>
      <trkpt lat="44.21016" lon="2.32093">
        <ele>343</ele>
        <time>2021-09-02T12:58:50Z</time>
      </trkpt>
      <trkpt lat="44.21005" lon="2.32156">
        <ele>347</ele>
        <time>2021-09-02T12:59:08Z</time>
      </trkpt>
      <trkpt lat="44.21005" lon="2.3217">
        <ele>348</ele>
        <time>2021-09-02T12:59:12Z</time>
      </trkpt>
      <trkpt lat="44.21003" lon="2.32184">
        <ele>348</ele>
        <time>2021-09-02T12:59:16Z</time>
      </trkpt>
      <trkpt lat="44.20999" lon="2.32256">
        <ele>345</ele>
        <time>2021-09-02T12:59:35Z</time>
      </trkpt>
      <trkpt lat="44.20997" lon="2.32279">
        <ele>345</ele>
        <time>2021-09-02T12:59:41Z</time>
      </trkpt>
      <trkpt lat="44.20997" lon="2.32285">
        <ele>345</ele>
        <time>2021-09-02T12:59:43Z</time>
      </trkpt>
      <trkpt lat="44.20999" lon="2.32298">
        <ele>345</ele>
        <time>2021-09-02T12:59:47Z</time>
      </trkpt>
      <trkpt lat="44.20995" lon="2.32348">
        <ele>346</ele>
        <time>2021-09-02T13:00:02Z</time>
      </trkpt>
      <trkpt lat="44.20994" lon="2.32356">
        <ele>347</ele>
        <time>2021-09-02T13:00:04Z</time>
      </trkpt>
      <trkpt lat="44.20991" lon="2.32362">
        <ele>347</ele>
        <time>2021-09-02T13:00:06Z</time>
      </trkpt>
      <trkpt lat="44.2099" lon="2.32377">
        <ele>346</ele>
        <time>2021-09-02T13:00:10Z</time>
      </trkpt>
      <trkpt lat="44.20991" lon="2.32385">
        <ele>346</ele>
        <time>2021-09-02T13:00:12Z</time>
      </trkpt>
      <trkpt lat="44.20996" lon="2.32492">
        <ele>348</ele>
        <time>2021-09-02T13:00:43Z</time>
      </trkpt>
      <trkpt lat="44.20997" lon="2.32515">
        <ele>347</ele>
        <time>2021-09-02T13:00:50Z</time>
      </trkpt>
      <trkpt lat="44.2098" lon="2.32615">
        <ele>354</ele>
        <time>2021-09-02T13:01:21Z</time>
      </trkpt>
      <trkpt lat="44.20979" lon="2.32621">
        <ele>354</ele>
        <time>2021-09-02T13:01:23Z</time>
      </trkpt>
      <trkpt lat="44.20968" lon="2.32691">
        <ele>358</ele>
        <time>2021-09-02T13:01:43Z</time>
      </trkpt>
      <trkpt lat="44.20969" lon="2.32706">
        <ele>359</ele>
        <time>2021-09-02T13:01:48Z</time>
      </trkpt>
      <trkpt lat="44.20976" lon="2.32731">
        <ele>359</ele>
        <time>2021-09-02T13:01:56Z</time>
      </trkpt>
      <trkpt lat="44.20985" lon="2.32747">
        <ele>361</ele>
        <time>2021-09-02T13:02:02Z</time>
      </trkpt>
      <trkpt lat="44.20989" lon="2.32759">
        <ele>362</ele>
        <time>2021-09-02T13:02:06Z</time>
      </trkpt>
      <trkpt lat="44.20993" lon="2.32781">
        <ele>362</ele>
        <time>2021-09-02T13:02:13Z</time>
      </trkpt>
      <trkpt lat="44.20997" lon="2.32811">
        <ele>364</ele>
        <time>2021-09-02T13:02:21Z</time>
      </trkpt>
      <trkpt lat="44.20995" lon="2.32825">
        <ele>365</ele>
        <time>2021-09-02T13:02:25Z</time>
      </trkpt>
      <trkpt lat="44.20991" lon="2.32837">
        <ele>367</ele>
        <time>2021-09-02T13:02:29Z</time>
      </trkpt>
      <trkpt lat="44.20961" lon="2.32877">
        <ele>372</ele>
        <time>2021-09-02T13:02:45Z</time>
      </trkpt>
      <trkpt lat="44.20901" lon="2.32936">
        <ele>382</ele>
        <time>2021-09-02T13:03:14Z</time>
      </trkpt>
      <trkpt lat="44.20873" lon="2.32965">
        <ele>385</ele>
        <time>2021-09-02T13:03:28Z</time>
      </trkpt>
      <trkpt lat="44.20808" lon="2.33016">
        <ele>392</ele>
        <time>2021-09-02T13:03:58Z</time>
      </trkpt>
      <trkpt lat="44.20757" lon="2.33056">
        <ele>394</ele>
        <time>2021-09-02T13:04:21Z</time>
      </trkpt>
      <trkpt lat="44.2074" lon="2.33068">
        <ele>395</ele>
        <time>2021-09-02T13:04:29Z</time>
      </trkpt>
      <trkpt lat="44.20719" lon="2.33107">
        <ele>397</ele>
        <time>2021-09-02T13:04:43Z</time>
      </trkpt>
      <trkpt lat="44.20716" lon="2.33113">
        <ele>397</ele>
        <time>2021-09-02T13:04:45Z</time>
      </trkpt>
      <trkpt lat="44.20703" lon="2.33139">
        <ele>398</ele>
        <time>2021-09-02T13:04:53Z</time>
      </trkpt>
      <trkpt lat="44.20701" lon="2.33145">
        <ele>398</ele>
        <time>2021-09-02T13:04:55Z</time>
      </trkpt>
      <trkpt lat="44.20696" lon="2.33157">
        <ele>398</ele>
        <time>2021-09-02T13:04:59Z</time>
      </trkpt>
      <trkpt lat="44.20644" lon="2.3324">
        <ele>408</ele>
        <time>2021-09-02T13:05:30Z</time>
      </trkpt>
      <trkpt lat="44.20613" lon="2.33281">
        <ele>411</ele>
        <time>2021-09-02T13:05:47Z</time>
      </trkpt>
      <trkpt lat="44.20593" lon="2.333">
        <ele>411</ele>
        <time>2021-09-02T13:05:57Z</time>
      </trkpt>
      <trkpt lat="44.20571" lon="2.33313">
        <ele>411</ele>
        <time>2021-09-02T13:06:07Z</time>
      </trkpt>
      <trkpt lat="44.20568" lon="2.33316">
        <ele>411</ele>
        <time>2021-09-02T13:06:09Z</time>
      </trkpt>
      <trkpt lat="44.2055" lon="2.33344">
        <ele>416</ele>
        <time>2021-09-02T13:06:20Z</time>
      </trkpt>
      <trkpt lat="44.20547" lon="2.3335">
        <ele>418</ele>
        <time>2021-09-02T13:06:22Z</time>
      </trkpt>
      <trkpt lat="44.20544" lon="2.33357">
        <ele>419</ele>
        <time>2021-09-02T13:06:25Z</time>
      </trkpt>
      <trkpt lat="44.2054" lon="2.3336">
        <ele>419</ele>
        <time>2021-09-02T13:06:28Z</time>
      </trkpt>
      <trkpt lat="44.20538" lon="2.33363">
        <ele>421</ele>
        <time>2021-09-02T13:08:29Z</time>
      </trkpt>
      <trkpt lat="44.20537" lon="2.3337">
        <ele>420</ele>
        <time>2021-09-02T13:08:31Z</time>
      </trkpt>
      <trkpt lat="44.20536" lon="2.33378">
        <ele>415</ele>
        <time>2021-09-02T13:08:34Z</time>
      </trkpt>
      <trkpt lat="44.20536" lon="2.33385">
        <ele>412</ele>
        <time>2021-09-02T13:08:37Z</time>
      </trkpt>
      <trkpt lat="44.2054" lon="2.33393">
        <ele>412</ele>
        <time>2021-09-02T13:08:40Z</time>
      </trkpt>
      <trkpt lat="44.20554" lon="2.33406">
        <ele>410</ele>
        <time>2021-09-02T13:08:48Z</time>
      </trkpt>
      <trkpt lat="44.20559" lon="2.33412">
        <ele>410</ele>
        <time>2021-09-02T13:08:51Z</time>
      </trkpt>
      <trkpt lat="44.20573" lon="2.33423">
        <ele>412</ele>
        <time>2021-09-02T13:08:59Z</time>
      </trkpt>
      <trkpt lat="44.20639" lon="2.33395">
        <ele>405</ele>
        <time>2021-09-02T13:09:29Z</time>
      </trkpt>
      <trkpt lat="44.20704" lon="2.33339">
        <ele>401</ele>
        <time>2021-09-02T13:10:00Z</time>
      </trkpt>
      <trkpt lat="44.20773" lon="2.33284">
        <ele>393</ele>
        <time>2021-09-02T13:10:31Z</time>
      </trkpt>
      <trkpt lat="44.20783" lon="2.33281">
        <ele>392</ele>
        <time>2021-09-02T13:10:35Z</time>
      </trkpt>
      <trkpt lat="44.20794" lon="2.33283">
        <ele>392</ele>
        <time>2021-09-02T13:10:39Z</time>
      </trkpt>
      <trkpt lat="44.20809" lon="2.33295">
        <ele>394</ele>
        <time>2021-09-02T13:10:45Z</time>
      </trkpt>
      <trkpt lat="44.20813" lon="2.33301">
        <ele>395</ele>
        <time>2021-09-02T13:10:47Z</time>
      </trkpt>
      <trkpt lat="44.20817" lon="2.33307">
        <ele>398</ele>
        <time>2021-09-02T13:10:49Z</time>
      </trkpt>
      <trkpt lat="44.20819" lon="2.33313">
        <ele>399</ele>
        <time>2021-09-02T13:10:51Z</time>
      </trkpt>
      <trkpt lat="44.20821" lon="2.33327">
        <ele>402</ele>
        <time>2021-09-02T13:10:55Z</time>
      </trkpt>
      <trkpt lat="44.20814" lon="2.33399">
        <ele>412</ele>
        <time>2021-09-02T13:11:11Z</time>
      </trkpt>
      <trkpt lat="44.20806" lon="2.3347">
        <ele>422</ele>
        <time>2021-09-02T13:11:29Z</time>
      </trkpt>
      <trkpt lat="44.20805" lon="2.33477">
        <ele>422</ele>
        <time>2021-09-02T13:11:31Z</time>
      </trkpt>
      <trkpt lat="44.20803" lon="2.33492">
        <ele>424</ele>
        <time>2021-09-02T13:11:35Z</time>
      </trkpt>
      <trkpt lat="44.20791" lon="2.33542">
        <ele>425</ele>
        <time>2021-09-02T13:11:52Z</time>
      </trkpt>
      <trkpt lat="44.20788" lon="2.33556">
        <ele>424</ele>
        <time>2021-09-02T13:11:56Z</time>
      </trkpt>
      <trkpt lat="44.20781" lon="2.33579">
        <ele>424</ele>
        <time>2021-09-02T13:12:02Z</time>
      </trkpt>
      <trkpt lat="44.20775" lon="2.33622">
        <ele>430</ele>
        <time>2021-09-02T13:12:14Z</time>
      </trkpt>
      <trkpt lat="44.20774" lon="2.3363">
        <ele>431</ele>
        <time>2021-09-02T13:12:16Z</time>
      </trkpt>
      <trkpt lat="44.20775" lon="2.33646">
        <ele>432</ele>
        <time>2021-09-02T13:12:20Z</time>
      </trkpt>
      <trkpt lat="44.20781" lon="2.3366">
        <ele>433</ele>
        <time>2021-09-02T13:12:24Z</time>
      </trkpt>
      <trkpt lat="44.20789" lon="2.3367">
        <ele>434</ele>
        <time>2021-09-02T13:12:28Z</time>
      </trkpt>
      <trkpt lat="44.20795" lon="2.33683">
        <ele>435</ele>
        <time>2021-09-02T13:12:32Z</time>
      </trkpt>
      <trkpt lat="44.20797" lon="2.33692">
        <ele>436</ele>
        <time>2021-09-02T13:12:34Z</time>
      </trkpt>
      <trkpt lat="44.20795" lon="2.33711">
        <ele>436</ele>
        <time>2021-09-02T13:12:38Z</time>
      </trkpt>
      <trkpt lat="44.20792" lon="2.3372">
        <ele>437</ele>
        <time>2021-09-02T13:12:40Z</time>
      </trkpt>
      <trkpt lat="44.20738" lon="2.33774">
        <ele>442</ele>
        <time>2021-09-02T13:13:02Z</time>
      </trkpt>
      <trkpt lat="44.20709" lon="2.33792">
        <ele>443</ele>
        <time>2021-09-02T13:13:12Z</time>
      </trkpt>
      <trkpt lat="44.20679" lon="2.33792">
        <ele>447</ele>
        <time>2021-09-02T13:13:22Z</time>
      </trkpt>
      <trkpt lat="44.20629" lon="2.33782">
        <ele>457</ele>
        <time>2021-09-02T13:13:40Z</time>
      </trkpt>
      <trkpt lat="44.20618" lon="2.33783">
        <ele>458</ele>
        <time>2021-09-02T13:13:44Z</time>
      </trkpt>
      <trkpt lat="44.20613" lon="2.33782">
        <ele>457</ele>
        <time>2021-09-02T13:13:46Z</time>
      </trkpt>
      <trkpt lat="44.20529" lon="2.33791">
        <ele>465</ele>
        <time>2021-09-02T13:14:16Z</time>
      </trkpt>
      <trkpt lat="44.20488" lon="2.3379">
        <ele>469</ele>
        <time>2021-09-02T13:14:28Z</time>
      </trkpt>
      <trkpt lat="44.20475" lon="2.33786">
        <ele>470</ele>
        <time>2021-09-02T13:14:32Z</time>
      </trkpt>
      <trkpt lat="44.20456" lon="2.33774">
        <ele>472</ele>
        <time>2021-09-02T13:14:38Z</time>
      </trkpt>
      <trkpt lat="44.20439" lon="2.33753">
        <ele>474</ele>
        <time>2021-09-02T13:14:44Z</time>
      </trkpt>
      <trkpt lat="44.20416" lon="2.33709">
        <ele>476</ele>
        <time>2021-09-02T13:14:54Z</time>
      </trkpt>
      <trkpt lat="44.20403" lon="2.33695">
        <ele>477</ele>
        <time>2021-09-02T13:14:58Z</time>
      </trkpt>
      <trkpt lat="44.20387" lon="2.33693">
        <ele>478</ele>
        <time>2021-09-02T13:15:02Z</time>
      </trkpt>
      <trkpt lat="44.20344" lon="2.33728">
        <ele>479</ele>
        <time>2021-09-02T13:15:14Z</time>
      </trkpt>
      <trkpt lat="44.2029" lon="2.33785">
        <ele>480</ele>
        <time>2021-09-02T13:15:30Z</time>
      </trkpt>
      <trkpt lat="44.20254" lon="2.33809">
        <ele>480</ele>
        <time>2021-09-02T13:15:40Z</time>
      </trkpt>
      <trkpt lat="44.20129" lon="2.3383">
        <ele>483</ele>
        <time>2021-09-02T13:16:10Z</time>
      </trkpt>
      <trkpt lat="44.20081" lon="2.33832">
        <ele>485</ele>
        <time>2021-09-02T13:16:22Z</time>
      </trkpt>
      <trkpt lat="44.20067" lon="2.33837">
        <ele>486</ele>
        <time>2021-09-02T13:16:26Z</time>
      </trkpt>
      <trkpt lat="44.20055" lon="2.33847">
        <ele>485</ele>
        <time>2021-09-02T13:16:30Z</time>
      </trkpt>
      <trkpt lat="44.20005" lon="2.33928">
        <ele>486</ele>
        <time>2021-09-02T13:16:48Z</time>
      </trkpt>
      <trkpt lat="44.19927" lon="2.3406">
        <ele>487</ele>
        <time>2021-09-02T13:17:20Z</time>
      </trkpt>
      <trkpt lat="44.19897" lon="2.34114">
        <ele>488</ele>
        <time>2021-09-02T13:17:36Z</time>
      </trkpt>
      <trkpt lat="44.19893" lon="2.34118">
        <ele>488</ele>
        <time>2021-09-02T13:17:38Z</time>
      </trkpt>
      <trkpt lat="44.19886" lon="2.34118">
        <ele>489</ele>
        <time>2021-09-02T13:17:41Z</time>
      </trkpt>
      <trkpt lat="44.19882" lon="2.34115">
        <ele>489</ele>
        <time>2021-09-02T13:17:43Z</time>
      </trkpt>
      <trkpt lat="44.19876" lon="2.34118">
        <ele>488</ele>
        <time>2021-09-02T13:17:46Z</time>
      </trkpt>
      <trkpt lat="44.19868" lon="2.34127">
        <ele>487</ele>
        <time>2021-09-02T13:17:53Z</time>
      </trkpt>
      <trkpt lat="44.19867" lon="2.34134">
        <ele>487</ele>
        <time>2021-09-02T13:18:19Z</time>
      </trkpt>
      <trkpt lat="44.19866" lon="2.34143">
        <ele>486</ele>
        <time>2021-09-02T13:18:22Z</time>
      </trkpt>
      <trkpt lat="44.19868" lon="2.34149">
        <ele>485</ele>
        <time>2021-09-02T13:18:25Z</time>
      </trkpt>
      <trkpt lat="44.19867" lon="2.34156">
        <ele>485</ele>
        <time>2021-09-02T13:18:28Z</time>
      </trkpt>
      <trkpt lat="44.19858" lon="2.34189">
        <ele>484</ele>
        <time>2021-09-02T13:18:40Z</time>
      </trkpt>
      <trkpt lat="44.19856" lon="2.34195">
        <ele>483</ele>
        <time>2021-09-02T13:18:43Z</time>
      </trkpt>
      <trkpt lat="44.19852" lon="2.34201">
        <ele>483</ele>
        <time>2021-09-02T13:18:45Z</time>
      </trkpt>
      <trkpt lat="44.1984" lon="2.34237">
        <ele>480</ele>
        <time>2021-09-02T13:18:57Z</time>
      </trkpt>
      <trkpt lat="44.19837" lon="2.34245">
        <ele>480</ele>
        <time>2021-09-02T13:18:59Z</time>
      </trkpt>
      <trkpt lat="44.19835" lon="2.34251">
        <ele>482</ele>
        <time>2021-09-02T13:19:01Z</time>
      </trkpt>
      <trkpt lat="44.19829" lon="2.34256">
        <ele>484</ele>
        <time>2021-09-02T13:19:04Z</time>
      </trkpt>
      <trkpt lat="44.19823" lon="2.34258">
        <ele>484</ele>
        <time>2021-09-02T13:19:07Z</time>
      </trkpt>
      <trkpt lat="44.19819" lon="2.34259">
        <ele>484</ele>
        <time>2021-09-02T13:19:11Z</time>
      </trkpt>
      <trkpt lat="44.19811" lon="2.34248">
        <ele>485</ele>
        <time>2021-09-02T13:19:18Z</time>
      </trkpt>
      <trkpt lat="44.19804" lon="2.34235">
        <ele>483</ele>
        <time>2021-09-02T13:19:24Z</time>
      </trkpt>
      <trkpt lat="44.19796" lon="2.34199">
        <ele>482</ele>
        <time>2021-09-02T13:19:36Z</time>
      </trkpt>
      <trkpt lat="44.19794" lon="2.34183">
        <ele>490</ele>
        <time>2021-09-02T13:19:41Z</time>
      </trkpt>
      <trkpt lat="44.19794" lon="2.34175">
        <ele>494</ele>
        <time>2021-09-02T13:19:44Z</time>
      </trkpt>
      <trkpt lat="44.19796" lon="2.34167">
        <ele>494</ele>
        <time>2021-09-02T13:19:47Z</time>
      </trkpt>
      <trkpt lat="44.19794" lon="2.34126">
        <ele>492</ele>
        <time>2021-09-02T13:20:00Z</time>
      </trkpt>
      <trkpt lat="44.19791" lon="2.34119">
        <ele>493</ele>
        <time>2021-09-02T13:20:15Z</time>
      </trkpt>
      <trkpt lat="44.19791" lon="2.34109">
        <ele>493</ele>
        <time>2021-09-02T13:20:19Z</time>
      </trkpt>
      <trkpt lat="44.19791" lon="2.34101">
        <ele>494</ele>
        <time>2021-09-02T13:20:22Z</time>
      </trkpt>
      <trkpt lat="44.19792" lon="2.34085">
        <ele>496</ele>
        <time>2021-09-02T13:20:28Z</time>
      </trkpt>
      <trkpt lat="44.19789" lon="2.34079">
        <ele>495</ele>
        <time>2021-09-02T13:20:32Z</time>
      </trkpt>
      <trkpt lat="44.19786" lon="2.34073">
        <ele>496</ele>
        <time>2021-09-02T13:20:35Z</time>
      </trkpt>
      <trkpt lat="44.19787" lon="2.34067">
        <ele>496</ele>
        <time>2021-09-02T13:20:38Z</time>
      </trkpt>
      <trkpt lat="44.1979" lon="2.34061">
        <ele>495</ele>
        <time>2021-09-02T13:20:46Z</time>
      </trkpt>
      <trkpt lat="44.19796" lon="2.34055">
        <ele>493</ele>
        <time>2021-09-02T13:20:48Z</time>
      </trkpt>
      <trkpt lat="44.19803" lon="2.34051">
        <ele>493</ele>
        <time>2021-09-02T13:20:50Z</time>
      </trkpt>
      <trkpt lat="44.19814" lon="2.34052">
        <ele>492</ele>
        <time>2021-09-02T13:20:54Z</time>
      </trkpt>
      <trkpt lat="44.19819" lon="2.34058">
        <ele>492</ele>
        <time>2021-09-02T13:20:56Z</time>
      </trkpt>
      <trkpt lat="44.19869" lon="2.34154">
        <ele>477</ele>
        <time>2021-09-02T13:21:29Z</time>
      </trkpt>
      <trkpt lat="44.19876" lon="2.34141">
        <ele>477</ele>
        <time>2021-09-02T13:21:52Z</time>
      </trkpt>
      <trkpt lat="44.19874" lon="2.34135">
        <ele>475</ele>
        <time>2021-09-02T13:22:06Z</time>
      </trkpt>
      <trkpt lat="44.19865" lon="2.34127">
        <ele>474</ele>
        <time>2021-09-02T13:22:20Z</time>
      </trkpt>
      <trkpt lat="44.19867" lon="2.34128">
        <ele>475</ele>
        <time>2021-09-02T13:23:25Z</time>
      </trkpt>
      <trkpt lat="44.19866" lon="2.34136">
        <ele>475</ele>
        <time>2021-09-02T13:23:29Z</time>
      </trkpt>
      <trkpt lat="44.19866" lon="2.34143">
        <ele>477</ele>
        <time>2021-09-02T13:23:34Z</time>
      </trkpt>
      <trkpt lat="44.19868" lon="2.34149">
        <ele>478</ele>
        <time>2021-09-02T13:23:40Z</time>
      </trkpt>
      <trkpt lat="44.19871" lon="2.34154">
        <ele>478</ele>
        <time>2021-09-02T13:23:47Z</time>
      </trkpt>
      <trkpt lat="44.19875" lon="2.34158">
        <ele>477</ele>
        <time>2021-09-02T13:24:42Z</time>
      </trkpt>
      <trkpt lat="44.1988" lon="2.34148">
        <ele>477</ele>
        <time>2021-09-02T13:25:05Z</time>
      </trkpt>
      <trkpt lat="44.19886" lon="2.34141">
        <ele>477</ele>
        <time>2021-09-02T13:25:08Z</time>
      </trkpt>
      <trkpt lat="44.19882" lon="2.34156">
        <ele>476</ele>
        <time>2021-09-02T13:25:19Z</time>
      </trkpt>
      <trkpt lat="44.19879" lon="2.34155">
        <ele>477</ele>
        <time>2021-09-02T13:25:56Z</time>
      </trkpt>
      <trkpt lat="44.19876" lon="2.34151">
        <ele>472</ele>
        <time>2021-09-02T13:27:02Z</time>
      </trkpt>
      <trkpt lat="44.19875" lon="2.34143">
        <ele>465</ele>
        <time>2021-09-02T13:27:06Z</time>
      </trkpt>
      <trkpt lat="44.19875" lon="2.34136">
        <ele>476</ele>
        <time>2021-09-02T13:27:13Z</time>
      </trkpt>
      <trkpt lat="44.19871" lon="2.34132">
        <ele>488</ele>
        <time>2021-09-02T13:27:17Z</time>
      </trkpt>
      <trkpt lat="44.19868" lon="2.34127">
        <ele>490</ele>
        <time>2021-09-02T13:27:22Z</time>
      </trkpt>
      <trkpt lat="44.19871" lon="2.34125">
        <ele>493</ele>
        <time>2021-09-02T13:28:16Z</time>
      </trkpt>
      <trkpt lat="44.19863" lon="2.34132">
        <ele>493</ele>
        <time>2021-09-02T13:28:22Z</time>
      </trkpt>
      <trkpt lat="44.19863" lon="2.34103">
        <ele>491</ele>
        <time>2021-09-02T13:29:03Z</time>
      </trkpt>
      <trkpt lat="44.19877" lon="2.34122">
        <ele>492</ele>
        <time>2021-09-02T13:29:04Z</time>
      </trkpt>
      <trkpt lat="44.19871" lon="2.34123">
        <ele>492</ele>
        <time>2021-09-02T13:29:17Z</time>
      </trkpt>
      <trkpt lat="44.19867" lon="2.34125">
        <ele>491</ele>
        <time>2021-09-02T13:30:01Z</time>
      </trkpt>
      <trkpt lat="44.19861" lon="2.34123">
        <ele>491</ele>
        <time>2021-09-02T13:30:04Z</time>
      </trkpt>
      <trkpt lat="44.1985" lon="2.34115">
        <ele>491</ele>
        <time>2021-09-02T13:30:08Z</time>
      </trkpt>
      <trkpt lat="44.19843" lon="2.34116">
        <ele>491</ele>
        <time>2021-09-02T13:30:11Z</time>
      </trkpt>
      <trkpt lat="44.19838" lon="2.34119">
        <ele>491</ele>
        <time>2021-09-02T13:30:14Z</time>
      </trkpt>
      <trkpt lat="44.19839" lon="2.34128">
        <ele>491</ele>
        <time>2021-09-02T13:30:18Z</time>
      </trkpt>
      <trkpt lat="44.19836" lon="2.34137">
        <ele>490</ele>
        <time>2021-09-02T13:30:22Z</time>
      </trkpt>
      <trkpt lat="44.19837" lon="2.34144">
        <ele>489</ele>
        <time>2021-09-02T13:30:26Z</time>
      </trkpt>
      <trkpt lat="44.19834" lon="2.3415">
        <ele>487</ele>
        <time>2021-09-02T13:30:34Z</time>
      </trkpt>
      <trkpt lat="44.19809" lon="2.34167">
        <ele>484</ele>
        <time>2021-09-02T13:30:43Z</time>
      </trkpt>
      <trkpt lat="44.19805" lon="2.34171">
        <ele>484</ele>
        <time>2021-09-02T13:30:46Z</time>
      </trkpt>
      <trkpt lat="44.19799" lon="2.34172">
        <ele>487</ele>
        <time>2021-09-02T13:30:53Z</time>
      </trkpt>
      <trkpt lat="44.19789" lon="2.34174">
        <ele>488</ele>
        <time>2021-09-02T13:30:58Z</time>
      </trkpt>
      <trkpt lat="44.19784" lon="2.34176">
        <ele>489</ele>
        <time>2021-09-02T13:31:03Z</time>
      </trkpt>
      <trkpt lat="44.19781" lon="2.3418">
        <ele>489</ele>
        <time>2021-09-02T13:31:05Z</time>
      </trkpt>
      <trkpt lat="44.19769" lon="2.34186">
        <ele>489</ele>
        <time>2021-09-02T13:31:13Z</time>
      </trkpt>
      <trkpt lat="44.19764" lon="2.3419">
        <ele>489</ele>
        <time>2021-09-02T13:31:15Z</time>
      </trkpt>
      <trkpt lat="44.19753" lon="2.34198">
        <ele>488</ele>
        <time>2021-09-02T13:31:19Z</time>
      </trkpt>
      <trkpt lat="44.19741" lon="2.34209">
        <ele>491</ele>
        <time>2021-09-02T13:31:31Z</time>
      </trkpt>
      <trkpt lat="44.19739" lon="2.34215">
        <ele>490</ele>
        <time>2021-09-02T13:31:36Z</time>
      </trkpt>
      <trkpt lat="44.19749" lon="2.3422">
        <ele>489</ele>
        <time>2021-09-02T13:31:43Z</time>
      </trkpt>
      <trkpt lat="44.19747" lon="2.34227">
        <ele>489</ele>
        <time>2021-09-02T13:32:22Z</time>
      </trkpt>
      <trkpt lat="44.19747" lon="2.34228">
        <ele>486</ele>
        <time>2021-09-02T13:51:37Z</time>
      </trkpt>
      <trkpt lat="44.19746" lon="2.34219">
        <ele>486</ele>
        <time>2021-09-02T13:52:00Z</time>
      </trkpt>
      <trkpt lat="44.19746" lon="2.34211">
        <ele>486</ele>
        <time>2021-09-02T13:52:03Z</time>
      </trkpt>
      <trkpt lat="44.19745" lon="2.34202">
        <ele>483</ele>
        <time>2021-09-02T13:52:07Z</time>
      </trkpt>
      <trkpt lat="44.19726" lon="2.34174">
        <ele>482</ele>
        <time>2021-09-02T13:52:15Z</time>
      </trkpt>
      <trkpt lat="44.19724" lon="2.34147">
        <ele>482</ele>
        <time>2021-09-02T13:52:20Z</time>
      </trkpt>
      <trkpt lat="44.19728" lon="2.34133">
        <ele>483</ele>
        <time>2021-09-02T13:52:25Z</time>
      </trkpt>
      <trkpt lat="44.19724" lon="2.34128">
        <ele>485</ele>
        <time>2021-09-02T13:52:39Z</time>
      </trkpt>
      <trkpt lat="44.1972" lon="2.34126">
        <ele>485</ele>
        <time>2021-09-02T13:52:41Z</time>
      </trkpt>
      <trkpt lat="44.19697" lon="2.34122">
        <ele>483</ele>
        <time>2021-09-02T13:52:46Z</time>
      </trkpt>
      <trkpt lat="44.19688" lon="2.34117">
        <ele>483</ele>
        <time>2021-09-02T13:52:48Z</time>
      </trkpt>
      <trkpt lat="44.19679" lon="2.3411">
        <ele>483</ele>
        <time>2021-09-02T13:52:50Z</time>
      </trkpt>
      <trkpt lat="44.19626" lon="2.34076">
        <ele>478</ele>
        <time>2021-09-02T13:53:01Z</time>
      </trkpt>
      <trkpt lat="44.19621" lon="2.34071">
        <ele>478</ele>
        <time>2021-09-02T13:53:02Z</time>
      </trkpt>
      <trkpt lat="44.19616" lon="2.34065">
        <ele>477</ele>
        <time>2021-09-02T13:53:03Z</time>
      </trkpt>
      <trkpt lat="44.19608" lon="2.34044">
        <ele>474</ele>
        <time>2021-09-02T13:53:06Z</time>
      </trkpt>
      <trkpt lat="44.19596" lon="2.34026">
        <ele>473</ele>
        <time>2021-09-02T13:53:09Z</time>
      </trkpt>
      <trkpt lat="44.19587" lon="2.34022">
        <ele>474</ele>
        <time>2021-09-02T13:53:11Z</time>
      </trkpt>
      <trkpt lat="44.19574" lon="2.34023">
        <ele>474</ele>
        <time>2021-09-02T13:53:13Z</time>
      </trkpt>
      <trkpt lat="44.19529" lon="2.34046">
        <ele>472</ele>
        <time>2021-09-02T13:53:22Z</time>
      </trkpt>
      <trkpt lat="44.19516" lon="2.3405">
        <ele>471</ele>
        <time>2021-09-02T13:53:26Z</time>
      </trkpt>
      <trkpt lat="44.19511" lon="2.34051">
        <ele>472</ele>
        <time>2021-09-02T13:54:06Z</time>
      </trkpt>
      <trkpt lat="44.19505" lon="2.34054">
        <ele>471</ele>
        <time>2021-09-02T13:54:09Z</time>
      </trkpt>
      <trkpt lat="44.19477" lon="2.3405">
        <ele>470</ele>
        <time>2021-09-02T13:54:17Z</time>
      </trkpt>
      <trkpt lat="44.19408" lon="2.34025">
        <ele>472</ele>
        <time>2021-09-02T13:54:42Z</time>
      </trkpt>
      <trkpt lat="44.19344" lon="2.34017">
        <ele>479</ele>
        <time>2021-09-02T13:55:13Z</time>
      </trkpt>
      <trkpt lat="44.1927" lon="2.34014">
        <ele>482</ele>
        <time>2021-09-02T13:55:43Z</time>
      </trkpt>
      <trkpt lat="44.19175" lon="2.34007">
        <ele>481</ele>
        <time>2021-09-02T13:56:11Z</time>
      </trkpt>
      <trkpt lat="44.19075" lon="2.33971">
        <ele>484</ele>
        <time>2021-09-02T13:56:43Z</time>
      </trkpt>
      <trkpt lat="44.19012" lon="2.33959">
        <ele>482</ele>
        <time>2021-09-02T13:57:01Z</time>
      </trkpt>
      <trkpt lat="44.18993" lon="2.33947">
        <ele>482</ele>
        <time>2021-09-02T13:57:07Z</time>
      </trkpt>
      <trkpt lat="44.18968" lon="2.33911">
        <ele>481</ele>
        <time>2021-09-02T13:57:17Z</time>
      </trkpt>
      <trkpt lat="44.1889" lon="2.33771">
        <ele>477</ele>
        <time>2021-09-02T13:57:47Z</time>
      </trkpt>
      <trkpt lat="44.18787" lon="2.33591">
        <ele>472</ele>
        <time>2021-09-02T13:58:17Z</time>
      </trkpt>
      <trkpt lat="44.18692" lon="2.33429">
        <ele>470</ele>
        <time>2021-09-02T13:58:47Z</time>
      </trkpt>
      <trkpt lat="44.18577" lon="2.33275">
        <ele>470</ele>
        <time>2021-09-02T13:59:18Z</time>
      </trkpt>
      <trkpt lat="44.18455" lon="2.33118">
        <ele>468</ele>
        <time>2021-09-02T13:59:49Z</time>
      </trkpt>
      <trkpt lat="44.1833" lon="2.32976">
        <ele>466</ele>
        <time>2021-09-02T14:00:20Z</time>
      </trkpt>
      <trkpt lat="44.18289" lon="2.32922">
        <ele>466</ele>
        <time>2021-09-02T14:00:31Z</time>
      </trkpt>
      <trkpt lat="44.18216" lon="2.3277">
        <ele>470</ele>
        <time>2021-09-02T14:01:02Z</time>
      </trkpt>
      <trkpt lat="44.18154" lon="2.32616">
        <ele>475</ele>
        <time>2021-09-02T14:01:34Z</time>
      </trkpt>
      <trkpt lat="44.18111" lon="2.32448">
        <ele>478</ele>
        <time>2021-09-02T14:02:06Z</time>
      </trkpt>
      <trkpt lat="44.18074" lon="2.32288">
        <ele>483</ele>
        <time>2021-09-02T14:02:36Z</time>
      </trkpt>
      <trkpt lat="44.18023" lon="2.32118">
        <ele>485</ele>
        <time>2021-09-02T14:03:05Z</time>
      </trkpt>
      <trkpt lat="44.1796" lon="2.31968">
        <ele>485</ele>
        <time>2021-09-02T14:03:31Z</time>
      </trkpt>
      <trkpt lat="44.17871" lon="2.31841">
        <ele>485</ele>
        <time>2021-09-02T14:04:03Z</time>
      </trkpt>
      <trkpt lat="44.17786" lon="2.31743">
        <ele>489</ele>
        <time>2021-09-02T14:04:33Z</time>
      </trkpt>
      <trkpt lat="44.17725" lon="2.31668">
        <ele>493</ele>
        <time>2021-09-02T14:04:57Z</time>
      </trkpt>
      <trkpt lat="44.17644" lon="2.31535">
        <ele>495</ele>
        <time>2021-09-02T14:05:28Z</time>
      </trkpt>
      <trkpt lat="44.1756" lon="2.31404">
        <ele>494</ele>
        <time>2021-09-02T14:05:58Z</time>
      </trkpt>
      <trkpt lat="44.17528" lon="2.31317">
        <ele>496</ele>
        <time>2021-09-02T14:06:14Z</time>
      </trkpt>
      <trkpt lat="44.17507" lon="2.31279">
        <ele>497</ele>
        <time>2021-09-02T14:06:22Z</time>
      </trkpt>
      <trkpt lat="44.1741" lon="2.31165">
        <ele>499</ele>
        <time>2021-09-02T14:06:54Z</time>
      </trkpt>
      <trkpt lat="44.17358" lon="2.31098">
        <ele>501</ele>
        <time>2021-09-02T14:07:12Z</time>
      </trkpt>
      <trkpt lat="44.17268" lon="2.30871">
        <ele>496</ele>
        <time>2021-09-02T14:07:42Z</time>
      </trkpt>
      <trkpt lat="44.17185" lon="2.30566">
        <ele>489</ele>
        <time>2021-09-02T14:08:10Z</time>
      </trkpt>
      <trkpt lat="44.17154" lon="2.30513">
        <ele>487</ele>
        <time>2021-09-02T14:08:17Z</time>
      </trkpt>
      <trkpt lat="44.17088" lon="2.30411">
        <ele>486</ele>
        <time>2021-09-02T14:08:33Z</time>
      </trkpt>
      <trkpt lat="44.16993" lon="2.30207">
        <ele>486</ele>
        <time>2021-09-02T14:09:02Z</time>
      </trkpt>
      <trkpt lat="44.16983" lon="2.30169">
        <ele>487</ele>
        <time>2021-09-02T14:09:07Z</time>
      </trkpt>
      <trkpt lat="44.1698" lon="2.30096">
        <ele>490</ele>
        <time>2021-09-02T14:09:18Z</time>
      </trkpt>
      <trkpt lat="44.16974" lon="2.30062">
        <ele>491</ele>
        <time>2021-09-02T14:09:24Z</time>
      </trkpt>
      <trkpt lat="44.16901" lon="2.29848">
        <ele>493</ele>
        <time>2021-09-02T14:09:55Z</time>
      </trkpt>
      <trkpt lat="44.16854" lon="2.29677">
        <ele>494</ele>
        <time>2021-09-02T14:10:18Z</time>
      </trkpt>
      <trkpt lat="44.16839" lon="2.29648">
        <ele>494</ele>
        <time>2021-09-02T14:10:23Z</time>
      </trkpt>
      <trkpt lat="44.16817" lon="2.2962">
        <ele>494</ele>
        <time>2021-09-02T14:10:29Z</time>
      </trkpt>
      <trkpt lat="44.16785" lon="2.29601">
        <ele>495</ele>
        <time>2021-09-02T14:10:36Z</time>
      </trkpt>
      <trkpt lat="44.16728" lon="2.29571">
        <ele>496</ele>
        <time>2021-09-02T14:10:50Z</time>
      </trkpt>
      <trkpt lat="44.16686" lon="2.29529">
        <ele>498</ele>
        <time>2021-09-02T14:11:02Z</time>
      </trkpt>
      <trkpt lat="44.16624" lon="2.2946">
        <ele>498</ele>
        <time>2021-09-02T14:11:18Z</time>
      </trkpt>
      <trkpt lat="44.16546" lon="2.2938">
        <ele>496</ele>
        <time>2021-09-02T14:11:35Z</time>
      </trkpt>
      <trkpt lat="44.16417" lon="2.29231">
        <ele>493</ele>
        <time>2021-09-02T14:12:05Z</time>
      </trkpt>
      <trkpt lat="44.16327" lon="2.29142">
        <ele>489</ele>
        <time>2021-09-02T14:12:21Z</time>
      </trkpt>
      <trkpt lat="44.16314" lon="2.29119">
        <ele>488</ele>
        <time>2021-09-02T14:12:24Z</time>
      </trkpt>
      <trkpt lat="44.16305" lon="2.29093">
        <ele>488</ele>
        <time>2021-09-02T14:12:27Z</time>
      </trkpt>
      <trkpt lat="44.16274" lon="2.28861">
        <ele>491</ele>
        <time>2021-09-02T14:12:57Z</time>
      </trkpt>
      <trkpt lat="44.16236" lon="2.28653">
        <ele>486</ele>
        <time>2021-09-02T14:13:20Z</time>
      </trkpt>
      <trkpt lat="44.16198" lon="2.28546">
        <ele>483</ele>
        <time>2021-09-02T14:13:30Z</time>
      </trkpt>
      <trkpt lat="44.16108" lon="2.28372">
        <ele>476</ele>
        <time>2021-09-02T14:13:56Z</time>
      </trkpt>
      <trkpt lat="44.16104" lon="2.28377">
        <ele>473</ele>
        <time>2021-09-02T14:15:11Z</time>
      </trkpt>
      <trkpt lat="44.161" lon="2.28376">
        <ele>473</ele>
        <time>2021-09-02T14:15:27Z</time>
      </trkpt>
      <trkpt lat="44.16092" lon="2.28397">
        <ele>474</ele>
        <time>2021-09-02T14:15:36Z</time>
      </trkpt>
      <trkpt lat="44.16113" lon="2.28471">
        <ele>474</ele>
        <time>2021-09-02T14:15:56Z</time>
      </trkpt>
      <trkpt lat="44.1613" lon="2.28543">
        <ele>472</ele>
        <time>2021-09-02T14:16:08Z</time>
      </trkpt>
      <trkpt lat="44.16133" lon="2.28595">
        <ele>475</ele>
        <time>2021-09-02T14:16:17Z</time>
      </trkpt>
      <trkpt lat="44.16129" lon="2.28613">
        <ele>475</ele>
        <time>2021-09-02T14:16:21Z</time>
      </trkpt>
      <trkpt lat="44.16073" lon="2.28725">
        <ele>477</ele>
        <time>2021-09-02T14:16:51Z</time>
      </trkpt>
      <trkpt lat="44.16006" lon="2.28869">
        <ele>480</ele>
        <time>2021-09-02T14:17:23Z</time>
      </trkpt>
      <trkpt lat="44.15974" lon="2.28906">
        <ele>480</ele>
        <time>2021-09-02T14:17:32Z</time>
      </trkpt>
      <trkpt lat="44.15825" lon="2.29039">
        <ele>479</ele>
        <time>2021-09-02T14:18:02Z</time>
      </trkpt>
      <trkpt lat="44.15709" lon="2.29162">
        <ele>475</ele>
        <time>2021-09-02T14:18:25Z</time>
      </trkpt>
      <trkpt lat="44.157" lon="2.29179">
        <ele>473</ele>
        <time>2021-09-02T14:18:27Z</time>
      </trkpt>
      <trkpt lat="44.15667" lon="2.29296">
        <ele>466</ele>
        <time>2021-09-02T14:18:39Z</time>
      </trkpt>
      <trkpt lat="44.15666" lon="2.29306">
        <ele>466</ele>
        <time>2021-09-02T14:18:41Z</time>
      </trkpt>
      <trkpt lat="44.15673" lon="2.29314">
        <ele>465</ele>
        <time>2021-09-02T14:18:43Z</time>
      </trkpt>
      <trkpt lat="44.15678" lon="2.29316">
        <ele>465</ele>
        <time>2021-09-02T14:18:44Z</time>
      </trkpt>
      <trkpt lat="44.1586" lon="2.29262">
        <ele>439</ele>
        <time>2021-09-02T14:19:13Z</time>
      </trkpt>
      <trkpt lat="44.15858" lon="2.29272">
        <ele>438</ele>
        <time>2021-09-02T14:19:15Z</time>
      </trkpt>
      <trkpt lat="44.15836" lon="2.29287">
        <ele>435</ele>
        <time>2021-09-02T14:19:21Z</time>
      </trkpt>
      <trkpt lat="44.15819" lon="2.29307">
        <ele>431</ele>
        <time>2021-09-02T14:19:28Z</time>
      </trkpt>
      <trkpt lat="44.15815" lon="2.29313">
        <ele>430</ele>
        <time>2021-09-02T14:19:30Z</time>
      </trkpt>
      <trkpt lat="44.15811" lon="2.29321">
        <ele>430</ele>
        <time>2021-09-02T14:19:34Z</time>
      </trkpt>
      <trkpt lat="44.15802" lon="2.29336">
        <ele>427</ele>
        <time>2021-09-02T14:19:38Z</time>
      </trkpt>
      <trkpt lat="44.15797" lon="2.29345">
        <ele>425</ele>
        <time>2021-09-02T14:19:40Z</time>
      </trkpt>
      <trkpt lat="44.15791" lon="2.29353">
        <ele>423</ele>
        <time>2021-09-02T14:19:42Z</time>
      </trkpt>
      <trkpt lat="44.15708" lon="2.29437">
        <ele>415</ele>
        <time>2021-09-02T14:19:55Z</time>
      </trkpt>
      <trkpt lat="44.15647" lon="2.29508">
        <ele>418</ele>
        <time>2021-09-02T14:20:04Z</time>
      </trkpt>
      <trkpt lat="44.15636" lon="2.29518">
        <ele>419</ele>
        <time>2021-09-02T14:20:06Z</time>
      </trkpt>
      <trkpt lat="44.1563" lon="2.2952">
        <ele>419</ele>
        <time>2021-09-02T14:20:07Z</time>
      </trkpt>
      <trkpt lat="44.15624" lon="2.29521">
        <ele>419</ele>
        <time>2021-09-02T14:20:08Z</time>
      </trkpt>
      <trkpt lat="44.15618" lon="2.29517">
        <ele>418</ele>
        <time>2021-09-02T14:20:09Z</time>
      </trkpt>
      <trkpt lat="44.15613" lon="2.29513">
        <ele>417</ele>
        <time>2021-09-02T14:20:10Z</time>
      </trkpt>
      <trkpt lat="44.15611" lon="2.29506">
        <ele>417</ele>
        <time>2021-09-02T14:20:11Z</time>
      </trkpt>
      <trkpt lat="44.15608" lon="2.29498">
        <ele>416</ele>
        <time>2021-09-02T14:20:12Z</time>
      </trkpt>
      <trkpt lat="44.15606" lon="2.29437">
        <ele>415</ele>
        <time>2021-09-02T14:20:19Z</time>
      </trkpt>
      <trkpt lat="44.15605" lon="2.29431">
        <ele>414</ele>
        <time>2021-09-02T14:20:20Z</time>
      </trkpt>
      <trkpt lat="44.15601" lon="2.29426">
        <ele>414</ele>
        <time>2021-09-02T14:20:21Z</time>
      </trkpt>
      <trkpt lat="44.15594" lon="2.29428">
        <ele>415</ele>
        <time>2021-09-02T14:20:23Z</time>
      </trkpt>
      <trkpt lat="44.1559" lon="2.29433">
        <ele>415</ele>
        <time>2021-09-02T14:20:24Z</time>
      </trkpt>
      <trkpt lat="44.15589" lon="2.29478">
        <ele>415</ele>
        <time>2021-09-02T14:20:30Z</time>
      </trkpt>
      <trkpt lat="44.15588" lon="2.29496">
        <ele>414</ele>
        <time>2021-09-02T14:20:32Z</time>
      </trkpt>
      <trkpt lat="44.15576" lon="2.29545">
        <ele>412</ele>
        <time>2021-09-02T14:20:37Z</time>
      </trkpt>
      <trkpt lat="44.15576" lon="2.29553">
        <ele>411</ele>
        <time>2021-09-02T14:20:38Z</time>
      </trkpt>
      <trkpt lat="44.15578" lon="2.2956">
        <ele>411</ele>
        <time>2021-09-02T14:20:39Z</time>
      </trkpt>
      <trkpt lat="44.15592" lon="2.29581">
        <ele>409</ele>
        <time>2021-09-02T14:20:42Z</time>
      </trkpt>
      <trkpt lat="44.15595" lon="2.29588">
        <ele>408</ele>
        <time>2021-09-02T14:20:43Z</time>
      </trkpt>
      <trkpt lat="44.15595" lon="2.296">
        <ele>408</ele>
        <time>2021-09-02T14:20:45Z</time>
      </trkpt>
      <trkpt lat="44.15589" lon="2.2961">
        <ele>408</ele>
        <time>2021-09-02T14:20:47Z</time>
      </trkpt>
      <trkpt lat="44.15582" lon="2.29612">
        <ele>408</ele>
        <time>2021-09-02T14:20:48Z</time>
      </trkpt>
      <trkpt lat="44.1557" lon="2.29615">
        <ele>407</ele>
        <time>2021-09-02T14:20:50Z</time>
      </trkpt>
      <trkpt lat="44.15565" lon="2.29617">
        <ele>407</ele>
        <time>2021-09-02T14:20:51Z</time>
      </trkpt>
      <trkpt lat="44.15561" lon="2.2962">
        <ele>407</ele>
        <time>2021-09-02T14:20:52Z</time>
      </trkpt>
      <trkpt lat="44.15555" lon="2.29631">
        <ele>407</ele>
        <time>2021-09-02T14:20:54Z</time>
      </trkpt>
      <trkpt lat="44.15552" lon="2.29642">
        <ele>407</ele>
        <time>2021-09-02T14:20:56Z</time>
      </trkpt>
      <trkpt lat="44.15552" lon="2.29648">
        <ele>406</ele>
        <time>2021-09-02T14:20:57Z</time>
      </trkpt>
      <trkpt lat="44.15555" lon="2.29654">
        <ele>405</ele>
        <time>2021-09-02T14:20:58Z</time>
      </trkpt>
      <trkpt lat="44.15574" lon="2.29672">
        <ele>403</ele>
        <time>2021-09-02T14:21:02Z</time>
      </trkpt>
      <trkpt lat="44.1558" lon="2.29686">
        <ele>402</ele>
        <time>2021-09-02T14:21:04Z</time>
      </trkpt>
      <trkpt lat="44.15581" lon="2.29854">
        <ele>392</ele>
        <time>2021-09-02T14:21:21Z</time>
      </trkpt>
      <trkpt lat="44.15594" lon="2.29867">
        <ele>389</ele>
        <time>2021-09-02T14:21:24Z</time>
      </trkpt>
      <trkpt lat="44.15606" lon="2.29872">
        <ele>388</ele>
        <time>2021-09-02T14:21:26Z</time>
      </trkpt>
      <trkpt lat="44.15612" lon="2.29874">
        <ele>389</ele>
        <time>2021-09-02T14:21:27Z</time>
      </trkpt>
      <trkpt lat="44.15618" lon="2.29874">
        <ele>390</ele>
        <time>2021-09-02T14:21:28Z</time>
      </trkpt>
      <trkpt lat="44.15622" lon="2.2987">
        <ele>392</ele>
        <time>2021-09-02T14:21:29Z</time>
      </trkpt>
      <trkpt lat="44.15634" lon="2.29843">
        <ele>393</ele>
        <time>2021-09-02T14:21:35Z</time>
      </trkpt>
      <trkpt lat="44.15641" lon="2.29835">
        <ele>392</ele>
        <time>2021-09-02T14:21:37Z</time>
      </trkpt>
      <trkpt lat="44.15659" lon="2.29835">
        <ele>391</ele>
        <time>2021-09-02T14:21:41Z</time>
      </trkpt>
      <trkpt lat="44.15669" lon="2.2985">
        <ele>387</ele>
        <time>2021-09-02T14:21:45Z</time>
      </trkpt>
      <trkpt lat="44.15672" lon="2.29857">
        <ele>386</ele>
        <time>2021-09-02T14:21:47Z</time>
      </trkpt>
      <trkpt lat="44.15673" lon="2.29865">
        <ele>386</ele>
        <time>2021-09-02T14:21:49Z</time>
      </trkpt>
      <trkpt lat="44.15675" lon="2.29873">
        <ele>387</ele>
        <time>2021-09-02T14:21:52Z</time>
      </trkpt>
      <trkpt lat="44.15674" lon="2.2988">
        <ele>388</ele>
        <time>2021-09-02T14:21:55Z</time>
      </trkpt>
      <trkpt lat="44.15656" lon="2.29918">
        <ele>395</ele>
        <time>2021-09-02T14:22:17Z</time>
      </trkpt>
      <trkpt lat="44.15651" lon="2.29922">
        <ele>397</ele>
        <time>2021-09-02T14:22:20Z</time>
      </trkpt>
      <trkpt lat="44.15631" lon="2.2994">
        <ele>398</ele>
        <time>2021-09-02T14:22:32Z</time>
      </trkpt>
      <trkpt lat="44.15621" lon="2.29943">
        <ele>399</ele>
        <time>2021-09-02T14:22:38Z</time>
      </trkpt>
      <trkpt lat="44.15609" lon="2.29946">
        <ele>400</ele>
        <time>2021-09-02T14:22:44Z</time>
      </trkpt>
      <trkpt lat="44.15589" lon="2.29956">
        <ele>397</ele>
        <time>2021-09-02T14:22:55Z</time>
      </trkpt>
      <trkpt lat="44.15584" lon="2.29957">
        <ele>396</ele>
        <time>2021-09-02T14:22:58Z</time>
      </trkpt>
      <trkpt lat="44.15579" lon="2.29955">
        <ele>394</ele>
        <time>2021-09-02T14:23:00Z</time>
      </trkpt>
      <trkpt lat="44.15574" lon="2.29952">
        <ele>394</ele>
        <time>2021-09-02T14:23:02Z</time>
      </trkpt>
      <trkpt lat="44.15571" lon="2.29948">
        <ele>393</ele>
        <time>2021-09-02T14:23:05Z</time>
      </trkpt>
      <trkpt lat="44.15565" lon="2.29944">
        <ele>393</ele>
        <time>2021-09-02T14:23:08Z</time>
      </trkpt>
      <trkpt lat="44.1555" lon="2.29921">
        <ele>396</ele>
        <time>2021-09-02T14:23:20Z</time>
      </trkpt>
      <trkpt lat="44.15549" lon="2.29913">
        <ele>397</ele>
        <time>2021-09-02T14:23:23Z</time>
      </trkpt>
      <trkpt lat="44.15546" lon="2.29908">
        <ele>398</ele>
        <time>2021-09-02T14:23:25Z</time>
      </trkpt>
      <trkpt lat="44.15538" lon="2.29892">
        <ele>399</ele>
        <time>2021-09-02T14:23:31Z</time>
      </trkpt>
      <trkpt lat="44.15534" lon="2.29886">
        <ele>399</ele>
        <time>2021-09-02T14:23:33Z</time>
      </trkpt>
      <trkpt lat="44.15531" lon="2.2988">
        <ele>399</ele>
        <time>2021-09-02T14:23:35Z</time>
      </trkpt>
      <trkpt lat="44.15526" lon="2.29845">
        <ele>401</ele>
        <time>2021-09-02T14:23:47Z</time>
      </trkpt>
      <trkpt lat="44.15523" lon="2.29832">
        <ele>402</ele>
        <time>2021-09-02T14:23:52Z</time>
      </trkpt>
      <trkpt lat="44.15519" lon="2.29829">
        <ele>403</ele>
        <time>2021-09-02T14:23:54Z</time>
      </trkpt>
      <trkpt lat="44.1551" lon="2.29817">
        <ele>407</ele>
        <time>2021-09-02T14:24:00Z</time>
      </trkpt>
      <trkpt lat="44.15507" lon="2.29809">
        <ele>408</ele>
        <time>2021-09-02T14:24:03Z</time>
      </trkpt>
      <trkpt lat="44.15504" lon="2.29802">
        <ele>410</ele>
        <time>2021-09-02T14:24:06Z</time>
      </trkpt>
      <trkpt lat="44.15503" lon="2.29795">
        <ele>411</ele>
        <time>2021-09-02T14:24:09Z</time>
      </trkpt>
      <trkpt lat="44.15503" lon="2.29789">
        <ele>411</ele>
        <time>2021-09-02T14:24:12Z</time>
      </trkpt>
      <trkpt lat="44.155" lon="2.2978">
        <ele>411</ele>
        <time>2021-09-02T14:24:15Z</time>
      </trkpt>
      <trkpt lat="44.15495" lon="2.29775">
        <ele>411</ele>
        <time>2021-09-02T14:24:18Z</time>
      </trkpt>
      <trkpt lat="44.15492" lon="2.2977">
        <ele>412</ele>
        <time>2021-09-02T14:24:21Z</time>
      </trkpt>
      <trkpt lat="44.1549" lon="2.29761">
        <ele>416</ele>
        <time>2021-09-02T14:24:24Z</time>
      </trkpt>
      <trkpt lat="44.15445" lon="2.29691">
        <ele>422</ele>
        <time>2021-09-02T14:24:55Z</time>
      </trkpt>
      <trkpt lat="44.15424" lon="2.29669">
        <ele>421</ele>
        <time>2021-09-02T14:25:05Z</time>
      </trkpt>
      <trkpt lat="44.15419" lon="2.29665">
        <ele>422</ele>
        <time>2021-09-02T14:25:08Z</time>
      </trkpt>
      <trkpt lat="44.15413" lon="2.29663">
        <ele>423</ele>
        <time>2021-09-02T14:25:11Z</time>
      </trkpt>
      <trkpt lat="44.15408" lon="2.29665">
        <ele>425</ele>
        <time>2021-09-02T14:25:14Z</time>
      </trkpt>
      <trkpt lat="44.15361" lon="2.29714">
        <ele>432</ele>
        <time>2021-09-02T14:25:44Z</time>
      </trkpt>
      <trkpt lat="44.15349" lon="2.29733">
        <ele>433</ele>
        <time>2021-09-02T14:25:50Z</time>
      </trkpt>
      <trkpt lat="44.15333" lon="2.29759">
        <ele>431</ele>
        <time>2021-09-02T14:26:01Z</time>
      </trkpt>
      <trkpt lat="44.1533" lon="2.29766">
        <ele>429</ele>
        <time>2021-09-02T14:26:04Z</time>
      </trkpt>
      <trkpt lat="44.1532" lon="2.29785">
        <ele>428</ele>
        <time>2021-09-02T14:26:12Z</time>
      </trkpt>
      <trkpt lat="44.15316" lon="2.29792">
        <ele>426</ele>
        <time>2021-09-02T14:26:15Z</time>
      </trkpt>
      <trkpt lat="44.15312" lon="2.29797">
        <ele>426</ele>
        <time>2021-09-02T14:26:17Z</time>
      </trkpt>
      <trkpt lat="44.15308" lon="2.29799">
        <ele>426</ele>
        <time>2021-09-02T14:26:19Z</time>
      </trkpt>
      <trkpt lat="44.15302" lon="2.29801">
        <ele>426</ele>
        <time>2021-09-02T14:26:22Z</time>
      </trkpt>
      <trkpt lat="44.15298" lon="2.29802">
        <ele>428</ele>
        <time>2021-09-02T14:26:54Z</time>
      </trkpt>
      <trkpt lat="44.15293" lon="2.29802">
        <ele>428</ele>
        <time>2021-09-02T14:26:56Z</time>
      </trkpt>
      <trkpt lat="44.15288" lon="2.298">
        <ele>429</ele>
        <time>2021-09-02T14:26:58Z</time>
      </trkpt>
      <trkpt lat="44.15285" lon="2.29797">
        <ele>429</ele>
        <time>2021-09-02T14:27:00Z</time>
      </trkpt>
      <trkpt lat="44.15282" lon="2.29783">
        <ele>429</ele>
        <time>2021-09-02T14:27:04Z</time>
      </trkpt>
      <trkpt lat="44.15281" lon="2.29767">
        <ele>429</ele>
        <time>2021-09-02T14:27:08Z</time>
      </trkpt>
      <trkpt lat="44.15283" lon="2.29701">
        <ele>431</ele>
        <time>2021-09-02T14:27:23Z</time>
      </trkpt>
      <trkpt lat="44.15286" lon="2.29681">
        <ele>433</ele>
        <time>2021-09-02T14:27:27Z</time>
      </trkpt>
      <trkpt lat="44.15287" lon="2.29671">
        <ele>434</ele>
        <time>2021-09-02T14:27:29Z</time>
      </trkpt>
      <trkpt lat="44.15284" lon="2.29652">
        <ele>435</ele>
        <time>2021-09-02T14:27:33Z</time>
      </trkpt>
      <trkpt lat="44.15278" lon="2.29638">
        <ele>436</ele>
        <time>2021-09-02T14:27:37Z</time>
      </trkpt>
      <trkpt lat="44.15268" lon="2.29626">
        <ele>438</ele>
        <time>2021-09-02T14:27:41Z</time>
      </trkpt>
      <trkpt lat="44.15257" lon="2.2962">
        <ele>438</ele>
        <time>2021-09-02T14:27:45Z</time>
      </trkpt>
      <trkpt lat="44.1524" lon="2.29618">
        <ele>440</ele>
        <time>2021-09-02T14:27:51Z</time>
      </trkpt>
      <trkpt lat="44.15166" lon="2.29645">
        <ele>449</ele>
        <time>2021-09-02T14:28:23Z</time>
      </trkpt>
      <trkpt lat="44.15124" lon="2.29654">
        <ele>454</ele>
        <time>2021-09-02T14:28:39Z</time>
      </trkpt>
      <trkpt lat="44.15119" lon="2.29657">
        <ele>454</ele>
        <time>2021-09-02T14:28:41Z</time>
      </trkpt>
      <trkpt lat="44.15111" lon="2.29666">
        <ele>455</ele>
        <time>2021-09-02T14:28:45Z</time>
      </trkpt>
      <trkpt lat="44.15105" lon="2.29677">
        <ele>457</ele>
        <time>2021-09-02T14:28:49Z</time>
      </trkpt>
      <trkpt lat="44.15102" lon="2.29689">
        <ele>457</ele>
        <time>2021-09-02T14:28:53Z</time>
      </trkpt>
      <trkpt lat="44.15102" lon="2.29721">
        <ele>457</ele>
        <time>2021-09-02T14:29:02Z</time>
      </trkpt>
      <trkpt lat="44.15103" lon="2.29728">
        <ele>457</ele>
        <time>2021-09-02T14:29:04Z</time>
      </trkpt>
      <trkpt lat="44.15098" lon="2.29822">
        <ele>458</ele>
        <time>2021-09-02T14:29:34Z</time>
      </trkpt>
      <trkpt lat="44.15093" lon="2.29913">
        <ele>462</ele>
        <time>2021-09-02T14:30:01Z</time>
      </trkpt>
      <trkpt lat="44.15087" lon="2.29942">
        <ele>464</ele>
        <time>2021-09-02T14:30:10Z</time>
      </trkpt>
      <trkpt lat="44.15067" lon="2.30057">
        <ele>468</ele>
        <time>2021-09-02T14:30:41Z</time>
      </trkpt>
      <trkpt lat="44.15064" lon="2.3012">
        <ele>470</ele>
        <time>2021-09-02T14:30:58Z</time>
      </trkpt>
      <trkpt lat="44.15066" lon="2.30137">
        <ele>470</ele>
        <time>2021-09-02T14:31:02Z</time>
      </trkpt>
      <trkpt lat="44.15071" lon="2.30155">
        <ele>471</ele>
        <time>2021-09-02T14:31:06Z</time>
      </trkpt>
      <trkpt lat="44.15137" lon="2.30284">
        <ele>473</ele>
        <time>2021-09-02T14:31:38Z</time>
      </trkpt>
      <trkpt lat="44.15168" lon="2.3034">
        <ele>475</ele>
        <time>2021-09-02T14:31:50Z</time>
      </trkpt>
      <trkpt lat="44.15222" lon="2.30422">
        <ele>476</ele>
        <time>2021-09-02T14:32:12Z</time>
      </trkpt>
      <trkpt lat="44.15237" lon="2.30453">
        <ele>477</ele>
        <time>2021-09-02T14:32:20Z</time>
      </trkpt>
      <trkpt lat="44.1524" lon="2.30469">
        <ele>477</ele>
        <time>2021-09-02T14:32:24Z</time>
      </trkpt>
      <trkpt lat="44.1524" lon="2.30495">
        <ele>478</ele>
        <time>2021-09-02T14:32:30Z</time>
      </trkpt>
      <trkpt lat="44.15238" lon="2.30505">
        <ele>477</ele>
        <time>2021-09-02T14:32:32Z</time>
      </trkpt>
      <trkpt lat="44.15242" lon="2.30531">
        <ele>476</ele>
        <time>2021-09-02T14:32:38Z</time>
      </trkpt>
      <trkpt lat="44.15243" lon="2.30538">
        <ele>475</ele>
        <time>2021-09-02T14:32:40Z</time>
      </trkpt>
      <trkpt lat="44.15245" lon="2.30543">
        <ele>475</ele>
        <time>2021-09-02T14:32:42Z</time>
      </trkpt>
      <trkpt lat="44.15249" lon="2.30549">
        <ele>475</ele>
        <time>2021-09-02T14:32:44Z</time>
      </trkpt>
      <trkpt lat="44.15253" lon="2.30554">
        <ele>475</ele>
        <time>2021-09-02T14:32:46Z</time>
      </trkpt>
      <trkpt lat="44.15257" lon="2.30559">
        <ele>476</ele>
        <time>2021-09-02T14:32:48Z</time>
      </trkpt>
      <trkpt lat="44.15262" lon="2.30563">
        <ele>476</ele>
        <time>2021-09-02T14:32:50Z</time>
      </trkpt>
      <trkpt lat="44.15275" lon="2.30569">
        <ele>476</ele>
        <time>2021-09-02T14:32:54Z</time>
      </trkpt>
      <trkpt lat="44.15287" lon="2.30566">
        <ele>477</ele>
        <time>2021-09-02T14:32:59Z</time>
      </trkpt>
      <trkpt lat="44.15293" lon="2.30568">
        <ele>476</ele>
        <time>2021-09-02T14:33:03Z</time>
      </trkpt>
      <trkpt lat="44.15292" lon="2.30577">
        <ele>476</ele>
        <time>2021-09-02T14:33:49Z</time>
      </trkpt>
      <trkpt lat="44.15287" lon="2.30584">
        <ele>476</ele>
        <time>2021-09-02T14:33:52Z</time>
      </trkpt>
      <trkpt lat="44.15284" lon="2.30593">
        <ele>476</ele>
        <time>2021-09-02T14:33:55Z</time>
      </trkpt>
      <trkpt lat="44.15284" lon="2.30609">
        <ele>476</ele>
        <time>2021-09-02T14:33:59Z</time>
      </trkpt>
      <trkpt lat="44.15262" lon="2.30719">
        <ele>470</ele>
        <time>2021-09-02T14:34:19Z</time>
      </trkpt>
      <trkpt lat="44.15198" lon="2.30842">
        <ele>468</ele>
        <time>2021-09-02T14:34:35Z</time>
      </trkpt>
      <trkpt lat="44.15196" lon="2.3085">
        <ele>468</ele>
        <time>2021-09-02T14:34:36Z</time>
      </trkpt>
      <trkpt lat="44.1522" lon="2.31081">
        <ele>452</ele>
        <time>2021-09-02T14:35:01Z</time>
      </trkpt>
      <trkpt lat="44.15211" lon="2.3113">
        <ele>449</ele>
        <time>2021-09-02T14:35:05Z</time>
      </trkpt>
      <trkpt lat="44.15204" lon="2.3115">
        <ele>448</ele>
        <time>2021-09-02T14:35:07Z</time>
      </trkpt>
      <trkpt lat="44.15148" lon="2.31247">
        <ele>436</ele>
        <time>2021-09-02T14:35:19Z</time>
      </trkpt>
      <trkpt lat="44.15102" lon="2.31282">
        <ele>432</ele>
        <time>2021-09-02T14:35:26Z</time>
      </trkpt>
      <trkpt lat="44.15095" lon="2.31283">
        <ele>432</ele>
        <time>2021-09-02T14:35:27Z</time>
      </trkpt>
      <trkpt lat="44.15079" lon="2.31281">
        <ele>432</ele>
        <time>2021-09-02T14:35:29Z</time>
      </trkpt>
      <trkpt lat="44.15057" lon="2.31251">
        <ele>429</ele>
        <time>2021-09-02T14:35:33Z</time>
      </trkpt>
      <trkpt lat="44.15042" lon="2.31235">
        <ele>429</ele>
        <time>2021-09-02T14:35:35Z</time>
      </trkpt>
      <trkpt lat="44.15034" lon="2.31228">
        <ele>429</ele>
        <time>2021-09-02T14:35:36Z</time>
      </trkpt>
      <trkpt lat="44.15027" lon="2.31226">
        <ele>429</ele>
        <time>2021-09-02T14:35:37Z</time>
      </trkpt>
      <trkpt lat="44.15021" lon="2.31229">
        <ele>430</ele>
        <time>2021-09-02T14:35:38Z</time>
      </trkpt>
      <trkpt lat="44.15008" lon="2.31259">
        <ele>432</ele>
        <time>2021-09-02T14:35:44Z</time>
      </trkpt>
      <trkpt lat="44.14991" lon="2.3129">
        <ele>434</ele>
        <time>2021-09-02T14:35:57Z</time>
      </trkpt>
      <trkpt lat="44.14987" lon="2.31295">
        <ele>435</ele>
        <time>2021-09-02T14:36:00Z</time>
      </trkpt>
      <trkpt lat="44.14976" lon="2.31305">
        <ele>436</ele>
        <time>2021-09-02T14:36:06Z</time>
      </trkpt>
      <trkpt lat="44.1496" lon="2.31332">
        <ele>440</ele>
        <time>2021-09-02T14:36:21Z</time>
      </trkpt>
      <trkpt lat="44.14947" lon="2.31349">
        <ele>442</ele>
        <time>2021-09-02T14:36:30Z</time>
      </trkpt>
      <trkpt lat="44.14939" lon="2.31362">
        <ele>445</ele>
        <time>2021-09-02T14:36:36Z</time>
      </trkpt>
      <trkpt lat="44.14935" lon="2.31369">
        <ele>446</ele>
        <time>2021-09-02T14:36:39Z</time>
      </trkpt>
      <trkpt lat="44.14916" lon="2.31394">
        <ele>447</ele>
        <time>2021-09-02T14:36:53Z</time>
      </trkpt>
      <trkpt lat="44.14912" lon="2.314">
        <ele>447</ele>
        <time>2021-09-02T14:36:56Z</time>
      </trkpt>
      <trkpt lat="44.14908" lon="2.31406">
        <ele>447</ele>
        <time>2021-09-02T14:36:59Z</time>
      </trkpt>
      <trkpt lat="44.14871" lon="2.31442">
        <ele>451</ele>
        <time>2021-09-02T14:37:20Z</time>
      </trkpt>
      <trkpt lat="44.14856" lon="2.31449">
        <ele>452</ele>
        <time>2021-09-02T14:37:30Z</time>
      </trkpt>
      <trkpt lat="44.14853" lon="2.31454">
        <ele>452</ele>
        <time>2021-09-02T14:37:33Z</time>
      </trkpt>
      <trkpt lat="44.1479" lon="2.31488">
        <ele>450</ele>
        <time>2021-09-02T14:38:05Z</time>
      </trkpt>
      <trkpt lat="44.14775" lon="2.31493">
        <ele>451</ele>
        <time>2021-09-02T14:38:12Z</time>
      </trkpt>
      <trkpt lat="44.14747" lon="2.31493">
        <ele>454</ele>
        <time>2021-09-02T14:38:22Z</time>
      </trkpt>
      <trkpt lat="44.14732" lon="2.31485">
        <ele>455</ele>
        <time>2021-09-02T14:38:29Z</time>
      </trkpt>
      <trkpt lat="44.14728" lon="2.31482">
        <ele>456</ele>
        <time>2021-09-02T14:38:31Z</time>
      </trkpt>
      <trkpt lat="44.14719" lon="2.31469">
        <ele>457</ele>
        <time>2021-09-02T14:38:37Z</time>
      </trkpt>
      <trkpt lat="44.14714" lon="2.31456">
        <ele>458</ele>
        <time>2021-09-02T14:38:43Z</time>
      </trkpt>
      <trkpt lat="44.14711" lon="2.3144">
        <ele>460</ele>
        <time>2021-09-02T14:38:49Z</time>
      </trkpt>
      <trkpt lat="44.1471" lon="2.31432">
        <ele>461</ele>
        <time>2021-09-02T14:38:52Z</time>
      </trkpt>
      <trkpt lat="44.14698" lon="2.31376">
        <ele>466</ele>
        <time>2021-09-02T14:39:12Z</time>
      </trkpt>
      <trkpt lat="44.14697" lon="2.31367">
        <ele>466</ele>
        <time>2021-09-02T14:39:15Z</time>
      </trkpt>
      <trkpt lat="44.14692" lon="2.31362">
        <ele>469</ele>
        <time>2021-09-02T14:39:58Z</time>
      </trkpt>
      <trkpt lat="44.14689" lon="2.31368">
        <ele>469</ele>
        <time>2021-09-02T14:40:00Z</time>
      </trkpt>
      <trkpt lat="44.1466" lon="2.3139">
        <ele>471</ele>
        <time>2021-09-02T14:40:14Z</time>
      </trkpt>
      <trkpt lat="44.14655" lon="2.31392">
        <ele>471</ele>
        <time>2021-09-02T14:40:16Z</time>
      </trkpt>
      <trkpt lat="44.14635" lon="2.31402">
        <ele>472</ele>
        <time>2021-09-02T14:40:24Z</time>
      </trkpt>
      <trkpt lat="44.14629" lon="2.31405">
        <ele>472</ele>
        <time>2021-09-02T14:40:26Z</time>
      </trkpt>
      <trkpt lat="44.14622" lon="2.31408">
        <ele>474</ele>
        <time>2021-09-02T14:40:28Z</time>
      </trkpt>
      <trkpt lat="44.14617" lon="2.31411">
        <ele>475</ele>
        <time>2021-09-02T14:40:30Z</time>
      </trkpt>
      <trkpt lat="44.14525" lon="2.31464">
        <ele>476</ele>
        <time>2021-09-02T14:41:02Z</time>
      </trkpt>
      <trkpt lat="44.14455" lon="2.31504">
        <ele>479</ele>
        <time>2021-09-02T14:41:26Z</time>
      </trkpt>
      <trkpt lat="44.14451" lon="2.31501">
        <ele>479</ele>
        <time>2021-09-02T14:41:30Z</time>
      </trkpt>
      <trkpt lat="44.14449" lon="2.31495">
        <ele>478</ele>
        <time>2021-09-02T14:42:18Z</time>
      </trkpt>
      <trkpt lat="44.1444" lon="2.31474">
        <ele>478</ele>
        <time>2021-09-02T14:42:24Z</time>
      </trkpt>
      <trkpt lat="44.14356" lon="2.31304">
        <ele>469</ele>
        <time>2021-09-02T14:42:48Z</time>
      </trkpt>
      <trkpt lat="44.14337" lon="2.31264">
        <ele>468</ele>
        <time>2021-09-02T14:42:54Z</time>
      </trkpt>
      <trkpt lat="44.14334" lon="2.3126">
        <ele>468</ele>
        <time>2021-09-02T14:42:55Z</time>
      </trkpt>
      <trkpt lat="44.14324" lon="2.31254">
        <ele>468</ele>
        <time>2021-09-02T14:42:57Z</time>
      </trkpt>
      <trkpt lat="44.1424" lon="2.31241">
        <ele>467</ele>
        <time>2021-09-02T14:43:19Z</time>
      </trkpt>
      <trkpt lat="44.14108" lon="2.31251">
        <ele>465</ele>
        <time>2021-09-02T14:43:50Z</time>
      </trkpt>
      <trkpt lat="44.14038" lon="2.31242">
        <ele>463</ele>
        <time>2021-09-02T14:44:04Z</time>
      </trkpt>
      <trkpt lat="44.13836" lon="2.31157">
        <ele>455</ele>
        <time>2021-09-02T14:44:35Z</time>
      </trkpt>
      <trkpt lat="44.13681" lon="2.3106">
        <ele>447</ele>
        <time>2021-09-02T14:44:57Z</time>
      </trkpt>
      <trkpt lat="44.13673" lon="2.31062">
        <ele>447</ele>
        <time>2021-09-02T14:44:59Z</time>
      </trkpt>
      <trkpt lat="44.13669" lon="2.31074">
        <ele>447</ele>
        <time>2021-09-02T14:45:01Z</time>
      </trkpt>
      <trkpt lat="44.1365" lon="2.31134">
        <ele>445</ele>
        <time>2021-09-02T14:45:09Z</time>
      </trkpt>
      <trkpt lat="44.13643" lon="2.31147">
        <ele>445</ele>
        <time>2021-09-02T14:45:13Z</time>
      </trkpt>
      <trkpt lat="44.1358" lon="2.31102">
        <ele>449</ele>
        <time>2021-09-02T14:45:45Z</time>
      </trkpt>
      <trkpt lat="44.13558" lon="2.31089">
        <ele>451</ele>
        <time>2021-09-02T14:45:55Z</time>
      </trkpt>
      <trkpt lat="44.13537" lon="2.31081">
        <ele>453</ele>
        <time>2021-09-02T14:46:04Z</time>
      </trkpt>
      <trkpt lat="44.13515" lon="2.31081">
        <ele>454</ele>
        <time>2021-09-02T14:46:12Z</time>
      </trkpt>
      <trkpt lat="44.13497" lon="2.31093">
        <ele>454</ele>
        <time>2021-09-02T14:46:18Z</time>
      </trkpt>
      <trkpt lat="44.13434" lon="2.31163">
        <ele>455</ele>
        <time>2021-09-02T14:46:39Z</time>
      </trkpt>
      <trkpt lat="44.13395" lon="2.31185">
        <ele>455</ele>
        <time>2021-09-02T14:46:51Z</time>
      </trkpt>
      <trkpt lat="44.13391" lon="2.3119">
        <ele>455</ele>
        <time>2021-09-02T14:46:53Z</time>
      </trkpt>
      <trkpt lat="44.13386" lon="2.31194">
        <ele>454</ele>
        <time>2021-09-02T14:46:55Z</time>
      </trkpt>
      <trkpt lat="44.13364" lon="2.31195">
        <ele>450</ele>
        <time>2021-09-02T14:47:05Z</time>
      </trkpt>
      <trkpt lat="44.13349" lon="2.31188">
        <ele>449</ele>
        <time>2021-09-02T14:47:13Z</time>
      </trkpt>
      <trkpt lat="44.13359" lon="2.31198">
        <ele>450</ele>
        <time>2021-09-02T14:47:29Z</time>
      </trkpt>
      <trkpt lat="44.13356" lon="2.31203">
        <ele>450</ele>
        <time>2021-09-02T14:47:31Z</time>
      </trkpt>
      <trkpt lat="44.13342" lon="2.31213">
        <ele>451</ele>
        <time>2021-09-02T14:47:39Z</time>
      </trkpt>
      <trkpt lat="44.1334" lon="2.31219">
        <ele>451</ele>
        <time>2021-09-02T14:47:44Z</time>
      </trkpt>
      <trkpt lat="44.13338" lon="2.31248">
        <ele>451</ele>
        <time>2021-09-02T14:48:16Z</time>
      </trkpt>
    </trkseg>
  </trk>
  <trk>
    <name><![CDATA[j8]]></name>
    <desc><![CDATA[comment ...]]></desc>
    <extensions>
      <line xmlns="http://www.topografix.com/GPX/gpx_style/0/2">
        <color>0000FF</color>
        <width>4</width>
      </line>
    </extensions>
    <trkseg>
      <trkpt lat="44.13361" lon="2.31211">
        <ele>611</ele>
        <time>2021-09-03T07:21:30Z</time>
      </trkpt>
      <trkpt lat="44.13361" lon="2.31211">
        <ele>611</ele>
        <time>2021-09-03T07:21:31Z</time>
      </trkpt>
      <trkpt lat="44.13364" lon="2.31223">
        <ele>609</ele>
        <time>2021-09-03T07:22:00Z</time>
      </trkpt>
      <trkpt lat="44.13366" lon="2.31239">
        <ele>606</ele>
        <time>2021-09-03T07:22:13Z</time>
      </trkpt>
      <trkpt lat="44.13371" lon="2.3125">
        <ele>585</ele>
        <time>2021-09-03T07:22:22Z</time>
      </trkpt>
      <trkpt lat="44.13377" lon="2.31258">
        <ele>561</ele>
        <time>2021-09-03T07:22:30Z</time>
      </trkpt>
      <trkpt lat="44.13378" lon="2.31268">
        <ele>549</ele>
        <time>2021-09-03T07:22:35Z</time>
      </trkpt>
      <trkpt lat="44.13372" lon="2.31277">
        <ele>537</ele>
        <time>2021-09-03T07:22:40Z</time>
      </trkpt>
      <trkpt lat="44.13364" lon="2.31289">
        <ele>509</ele>
        <time>2021-09-03T07:22:53Z</time>
      </trkpt>
      <trkpt lat="44.13364" lon="2.31296">
        <ele>504</ele>
        <time>2021-09-03T07:22:55Z</time>
      </trkpt>
      <trkpt lat="44.13379" lon="2.31343">
        <ele>480</ele>
        <time>2021-09-03T07:23:12Z</time>
      </trkpt>
      <trkpt lat="44.13376" lon="2.31349">
        <ele>479</ele>
        <time>2021-09-03T07:23:14Z</time>
      </trkpt>
      <trkpt lat="44.13363" lon="2.31376">
        <ele>472</ele>
        <time>2021-09-03T07:23:22Z</time>
      </trkpt>
      <trkpt lat="44.13355" lon="2.31385">
        <ele>470</ele>
        <time>2021-09-03T07:23:28Z</time>
      </trkpt>
      <trkpt lat="44.13353" lon="2.31394">
        <ele>469</ele>
        <time>2021-09-03T07:23:30Z</time>
      </trkpt>
      <trkpt lat="44.13341" lon="2.31415">
        <ele>468</ele>
        <time>2021-09-03T07:23:34Z</time>
      </trkpt>
      <trkpt lat="44.13309" lon="2.31447">
        <ele>451</ele>
        <time>2021-09-03T07:23:43Z</time>
      </trkpt>
      <trkpt lat="44.13305" lon="2.31457">
        <ele>447</ele>
        <time>2021-09-03T07:23:46Z</time>
      </trkpt>
      <trkpt lat="44.13307" lon="2.31465">
        <ele>445</ele>
        <time>2021-09-03T07:23:48Z</time>
      </trkpt>
      <trkpt lat="44.13312" lon="2.31472">
        <ele>442</ele>
        <time>2021-09-03T07:23:50Z</time>
      </trkpt>
      <trkpt lat="44.13319" lon="2.31479">
        <ele>439</ele>
        <time>2021-09-03T07:23:56Z</time>
      </trkpt>
      <trkpt lat="44.13322" lon="2.31484">
        <ele>438</ele>
        <time>2021-09-03T07:23:57Z</time>
      </trkpt>
      <trkpt lat="44.13423" lon="2.3156">
        <ele>430</ele>
        <time>2021-09-03T07:24:42Z</time>
      </trkpt>
      <trkpt lat="44.13418" lon="2.3157">
        <ele>433</ele>
        <time>2021-09-03T07:24:43Z</time>
      </trkpt>
      <trkpt lat="44.13412" lon="2.3157">
        <ele>438</ele>
        <time>2021-09-03T07:25:17Z</time>
      </trkpt>
      <trkpt lat="44.13406" lon="2.31565">
        <ele>436</ele>
        <time>2021-09-03T07:25:19Z</time>
      </trkpt>
      <trkpt lat="44.13313" lon="2.31534">
        <ele>425</ele>
        <time>2021-09-03T07:25:34Z</time>
      </trkpt>
      <trkpt lat="44.13072" lon="2.31381">
        <ele>399</ele>
        <time>2021-09-03T07:26:04Z</time>
      </trkpt>
      <trkpt lat="44.12986" lon="2.31337">
        <ele>390</ele>
        <time>2021-09-03T07:26:14Z</time>
      </trkpt>
      <trkpt lat="44.12969" lon="2.31335">
        <ele>388</ele>
        <time>2021-09-03T07:26:16Z</time>
      </trkpt>
      <trkpt lat="44.12934" lon="2.31345">
        <ele>384</ele>
        <time>2021-09-03T07:26:20Z</time>
      </trkpt>
      <trkpt lat="44.12827" lon="2.31406">
        <ele>372</ele>
        <time>2021-09-03T07:26:33Z</time>
      </trkpt>
      <trkpt lat="44.12813" lon="2.3142">
        <ele>370</ele>
        <time>2021-09-03T07:26:35Z</time>
      </trkpt>
      <trkpt lat="44.12796" lon="2.3146">
        <ele>365</ele>
        <time>2021-09-03T07:26:39Z</time>
      </trkpt>
      <trkpt lat="44.12753" lon="2.31628">
        <ele>355</ele>
        <time>2021-09-03T07:26:53Z</time>
      </trkpt>
      <trkpt lat="44.12741" lon="2.31648">
        <ele>354</ele>
        <time>2021-09-03T07:26:55Z</time>
      </trkpt>
      <trkpt lat="44.12726" lon="2.31663">
        <ele>353</ele>
        <time>2021-09-03T07:26:57Z</time>
      </trkpt>
      <trkpt lat="44.12699" lon="2.31675">
        <ele>349</ele>
        <time>2021-09-03T07:27:00Z</time>
      </trkpt>
      <trkpt lat="44.12639" lon="2.31703">
        <ele>343</ele>
        <time>2021-09-03T07:27:07Z</time>
      </trkpt>
      <trkpt lat="44.1261" lon="2.3173">
        <ele>339</ele>
        <time>2021-09-03T07:27:11Z</time>
      </trkpt>
      <trkpt lat="44.12597" lon="2.31747">
        <ele>337</ele>
        <time>2021-09-03T07:27:13Z</time>
      </trkpt>
      <trkpt lat="44.12592" lon="2.31757">
        <ele>336</ele>
        <time>2021-09-03T07:27:14Z</time>
      </trkpt>
      <trkpt lat="44.12562" lon="2.31878">
        <ele>330</ele>
        <time>2021-09-03T07:27:30Z</time>
      </trkpt>
      <trkpt lat="44.12549" lon="2.319">
        <ele>329</ele>
        <time>2021-09-03T07:27:33Z</time>
      </trkpt>
      <trkpt lat="44.12534" lon="2.31917">
        <ele>329</ele>
        <time>2021-09-03T07:27:36Z</time>
      </trkpt>
      <trkpt lat="44.12522" lon="2.31925">
        <ele>327</ele>
        <time>2021-09-03T07:27:38Z</time>
      </trkpt>
      <trkpt lat="44.12504" lon="2.31932">
        <ele>323</ele>
        <time>2021-09-03T07:27:41Z</time>
      </trkpt>
      <trkpt lat="44.12472" lon="2.31929">
        <ele>319</ele>
        <time>2021-09-03T07:27:49Z</time>
      </trkpt>
      <trkpt lat="44.12462" lon="2.31933">
        <ele>321</ele>
        <time>2021-09-03T07:27:54Z</time>
      </trkpt>
      <trkpt lat="44.12461" lon="2.3194">
        <ele>322</ele>
        <time>2021-09-03T07:28:26Z</time>
      </trkpt>
      <trkpt lat="44.12462" lon="2.31947">
        <ele>323</ele>
        <time>2021-09-03T07:28:29Z</time>
      </trkpt>
      <trkpt lat="44.12464" lon="2.31956">
        <ele>323</ele>
        <time>2021-09-03T07:28:32Z</time>
      </trkpt>
      <trkpt lat="44.12466" lon="2.31972">
        <ele>323</ele>
        <time>2021-09-03T07:28:36Z</time>
      </trkpt>
      <trkpt lat="44.12467" lon="2.31979">
        <ele>322</ele>
        <time>2021-09-03T07:28:38Z</time>
      </trkpt>
      <trkpt lat="44.12469" lon="2.31975">
        <ele>321</ele>
        <time>2021-09-03T07:28:47Z</time>
      </trkpt>
      <trkpt lat="44.12464" lon="2.3196">
        <ele>322</ele>
        <time>2021-09-03T07:28:51Z</time>
      </trkpt>
      <trkpt lat="44.12465" lon="2.31954">
        <ele>322</ele>
        <time>2021-09-03T07:28:53Z</time>
      </trkpt>
      <trkpt lat="44.12466" lon="2.31957">
        <ele>322</ele>
        <time>2021-09-03T07:31:48Z</time>
      </trkpt>
      <trkpt lat="44.1247" lon="2.31982">
        <ele>322</ele>
        <time>2021-09-03T07:31:53Z</time>
      </trkpt>
      <trkpt lat="44.12471" lon="2.31988">
        <ele>322</ele>
        <time>2021-09-03T07:31:54Z</time>
      </trkpt>
      <trkpt lat="44.12477" lon="2.31996">
        <ele>322</ele>
        <time>2021-09-03T07:31:56Z</time>
      </trkpt>
      <trkpt lat="44.12484" lon="2.31999">
        <ele>322</ele>
        <time>2021-09-03T07:31:58Z</time>
      </trkpt>
      <trkpt lat="44.12494" lon="2.31993">
        <ele>322</ele>
        <time>2021-09-03T07:32:02Z</time>
      </trkpt>
      <trkpt lat="44.12498" lon="2.31986">
        <ele>321</ele>
        <time>2021-09-03T07:32:04Z</time>
      </trkpt>
      <trkpt lat="44.12498" lon="2.31977">
        <ele>321</ele>
        <time>2021-09-03T07:32:06Z</time>
      </trkpt>
      <trkpt lat="44.12501" lon="2.31968">
        <ele>321</ele>
        <time>2021-09-03T07:32:08Z</time>
      </trkpt>
      <trkpt lat="44.12509" lon="2.31955">
        <ele>321</ele>
        <time>2021-09-03T07:32:11Z</time>
      </trkpt>
      <trkpt lat="44.1253" lon="2.31948">
        <ele>321</ele>
        <time>2021-09-03T07:32:15Z</time>
      </trkpt>
      <trkpt lat="44.12535" lon="2.31948">
        <ele>321</ele>
        <time>2021-09-03T07:32:16Z</time>
      </trkpt>
      <trkpt lat="44.12542" lon="2.31949">
        <ele>321</ele>
        <time>2021-09-03T07:32:17Z</time>
      </trkpt>
      <trkpt lat="44.12548" lon="2.31952">
        <ele>321</ele>
        <time>2021-09-03T07:32:18Z</time>
      </trkpt>
      <trkpt lat="44.12552" lon="2.31957">
        <ele>321</ele>
        <time>2021-09-03T07:32:19Z</time>
      </trkpt>
      <trkpt lat="44.12554" lon="2.31963">
        <ele>321</ele>
        <time>2021-09-03T07:32:20Z</time>
      </trkpt>
      <trkpt lat="44.12555" lon="2.31969">
        <ele>320</ele>
        <time>2021-09-03T07:32:21Z</time>
      </trkpt>
      <trkpt lat="44.12554" lon="2.31976">
        <ele>320</ele>
        <time>2021-09-03T07:32:22Z</time>
      </trkpt>
      <trkpt lat="44.12548" lon="2.31985">
        <ele>320</ele>
        <time>2021-09-03T07:32:24Z</time>
      </trkpt>
      <trkpt lat="44.12535" lon="2.31996">
        <ele>319</ele>
        <time>2021-09-03T07:32:27Z</time>
      </trkpt>
      <trkpt lat="44.12527" lon="2.32008">
        <ele>319</ele>
        <time>2021-09-03T07:32:29Z</time>
      </trkpt>
      <trkpt lat="44.1248" lon="2.32138">
        <ele>309</ele>
        <time>2021-09-03T07:32:44Z</time>
      </trkpt>
      <trkpt lat="44.12477" lon="2.32164">
        <ele>308</ele>
        <time>2021-09-03T07:32:47Z</time>
      </trkpt>
      <trkpt lat="44.12496" lon="2.32284">
        <ele>300</ele>
        <time>2021-09-03T07:33:04Z</time>
      </trkpt>
      <trkpt lat="44.12495" lon="2.32296">
        <ele>299</ele>
        <time>2021-09-03T07:33:06Z</time>
      </trkpt>
      <trkpt lat="44.12499" lon="2.3232">
        <ele>296</ele>
        <time>2021-09-03T07:33:10Z</time>
      </trkpt>
      <trkpt lat="44.12521" lon="2.32352">
        <ele>293</ele>
        <time>2021-09-03T07:33:18Z</time>
      </trkpt>
      <trkpt lat="44.12525" lon="2.32358">
        <ele>293</ele>
        <time>2021-09-03T07:33:20Z</time>
      </trkpt>
      <trkpt lat="44.12524" lon="2.32365">
        <ele>294</ele>
        <time>2021-09-03T07:34:15Z</time>
      </trkpt>
      <trkpt lat="44.12528" lon="2.32401">
        <ele>296</ele>
        <time>2021-09-03T07:34:26Z</time>
      </trkpt>
      <trkpt lat="44.12528" lon="2.32427">
        <ele>297</ele>
        <time>2021-09-03T07:34:32Z</time>
      </trkpt>
      <trkpt lat="44.12492" lon="2.32602">
        <ele>289</ele>
        <time>2021-09-03T07:35:03Z</time>
      </trkpt>
      <trkpt lat="44.12485" lon="2.3263">
        <ele>288</ele>
        <time>2021-09-03T07:35:09Z</time>
      </trkpt>
      <trkpt lat="44.12482" lon="2.32638">
        <ele>287</ele>
        <time>2021-09-03T07:35:11Z</time>
      </trkpt>
      <trkpt lat="44.12473" lon="2.32667">
        <ele>287</ele>
        <time>2021-09-03T07:35:17Z</time>
      </trkpt>
      <trkpt lat="44.12471" lon="2.32693">
        <ele>287</ele>
        <time>2021-09-03T07:35:21Z</time>
      </trkpt>
      <trkpt lat="44.12466" lon="2.32724">
        <ele>285</ele>
        <time>2021-09-03T07:35:25Z</time>
      </trkpt>
      <trkpt lat="44.12467" lon="2.32734">
        <ele>285</ele>
        <time>2021-09-03T07:35:27Z</time>
      </trkpt>
      <trkpt lat="44.12461" lon="2.32766">
        <ele>286</ele>
        <time>2021-09-03T07:35:33Z</time>
      </trkpt>
      <trkpt lat="44.12457" lon="2.32775">
        <ele>286</ele>
        <time>2021-09-03T07:35:35Z</time>
      </trkpt>
      <trkpt lat="44.12441" lon="2.32801">
        <ele>286</ele>
        <time>2021-09-03T07:35:40Z</time>
      </trkpt>
      <trkpt lat="44.12426" lon="2.32829">
        <ele>287</ele>
        <time>2021-09-03T07:35:44Z</time>
      </trkpt>
      <trkpt lat="44.12402" lon="2.32956">
        <ele>288</ele>
        <time>2021-09-03T07:36:02Z</time>
      </trkpt>
      <trkpt lat="44.12402" lon="2.32963">
        <ele>288</ele>
        <time>2021-09-03T07:36:04Z</time>
      </trkpt>
      <trkpt lat="44.12399" lon="2.32973">
        <ele>288</ele>
        <time>2021-09-03T07:36:07Z</time>
      </trkpt>
      <trkpt lat="44.12393" lon="2.33001">
        <ele>284</ele>
        <time>2021-09-03T07:36:15Z</time>
      </trkpt>
      <trkpt lat="44.12385" lon="2.33028">
        <ele>286</ele>
        <time>2021-09-03T07:36:21Z</time>
      </trkpt>
      <trkpt lat="44.12384" lon="2.33038">
        <ele>287</ele>
        <time>2021-09-03T07:36:23Z</time>
      </trkpt>
      <trkpt lat="44.12386" lon="2.33045">
        <ele>287</ele>
        <time>2021-09-03T07:36:25Z</time>
      </trkpt>
      <trkpt lat="44.12385" lon="2.33052">
        <ele>288</ele>
        <time>2021-09-03T07:36:27Z</time>
      </trkpt>
      <trkpt lat="44.12383" lon="2.33079">
        <ele>289</ele>
        <time>2021-09-03T07:36:32Z</time>
      </trkpt>
      <trkpt lat="44.12383" lon="2.33087">
        <ele>289</ele>
        <time>2021-09-03T07:36:33Z</time>
      </trkpt>
      <trkpt lat="44.12382" lon="2.33099">
        <ele>289</ele>
        <time>2021-09-03T07:36:35Z</time>
      </trkpt>
      <trkpt lat="44.12382" lon="2.33114">
        <ele>290</ele>
        <time>2021-09-03T07:36:37Z</time>
      </trkpt>
      <trkpt lat="44.12379" lon="2.33132">
        <ele>291</ele>
        <time>2021-09-03T07:36:40Z</time>
      </trkpt>
      <trkpt lat="44.12374" lon="2.33149">
        <ele>292</ele>
        <time>2021-09-03T07:36:44Z</time>
      </trkpt>
      <trkpt lat="44.12373" lon="2.33155">
        <ele>292</ele>
        <time>2021-09-03T07:36:46Z</time>
      </trkpt>
      <trkpt lat="44.12372" lon="2.33172">
        <ele>291</ele>
        <time>2021-09-03T07:36:50Z</time>
      </trkpt>
      <trkpt lat="44.12372" lon="2.33182">
        <ele>289</ele>
        <time>2021-09-03T07:36:52Z</time>
      </trkpt>
      <trkpt lat="44.12373" lon="2.33193">
        <ele>288</ele>
        <time>2021-09-03T07:36:54Z</time>
      </trkpt>
      <trkpt lat="44.12373" lon="2.33202">
        <ele>287</ele>
        <time>2021-09-03T07:36:56Z</time>
      </trkpt>
      <trkpt lat="44.12366" lon="2.33233">
        <ele>283</ele>
        <time>2021-09-03T07:37:08Z</time>
      </trkpt>
      <trkpt lat="44.12363" lon="2.33251">
        <ele>281</ele>
        <time>2021-09-03T07:37:13Z</time>
      </trkpt>
      <trkpt lat="44.12358" lon="2.3326">
        <ele>281</ele>
        <time>2021-09-03T07:37:15Z</time>
      </trkpt>
      <trkpt lat="44.12355" lon="2.33272">
        <ele>280</ele>
        <time>2021-09-03T07:37:17Z</time>
      </trkpt>
      <trkpt lat="44.12352" lon="2.33279">
        <ele>280</ele>
        <time>2021-09-03T07:37:18Z</time>
      </trkpt>
      <trkpt lat="44.1235" lon="2.33293">
        <ele>280</ele>
        <time>2021-09-03T07:37:20Z</time>
      </trkpt>
      <trkpt lat="44.12344" lon="2.33308">
        <ele>281</ele>
        <time>2021-09-03T07:37:22Z</time>
      </trkpt>
      <trkpt lat="44.12342" lon="2.33316">
        <ele>281</ele>
        <time>2021-09-03T07:37:23Z</time>
      </trkpt>
      <trkpt lat="44.1234" lon="2.33323">
        <ele>280</ele>
        <time>2021-09-03T07:37:24Z</time>
      </trkpt>
      <trkpt lat="44.12338" lon="2.3333">
        <ele>280</ele>
        <time>2021-09-03T07:37:25Z</time>
      </trkpt>
      <trkpt lat="44.12334" lon="2.33347">
        <ele>281</ele>
        <time>2021-09-03T07:37:28Z</time>
      </trkpt>
      <trkpt lat="44.12332" lon="2.33358">
        <ele>282</ele>
        <time>2021-09-03T07:37:30Z</time>
      </trkpt>
      <trkpt lat="44.12324" lon="2.33379">
        <ele>281</ele>
        <time>2021-09-03T07:37:34Z</time>
      </trkpt>
      <trkpt lat="44.12312" lon="2.33439">
        <ele>272</ele>
        <time>2021-09-03T07:37:43Z</time>
      </trkpt>
      <trkpt lat="44.12304" lon="2.33486">
        <ele>275</ele>
        <time>2021-09-03T07:37:53Z</time>
      </trkpt>
      <trkpt lat="44.12289" lon="2.33512">
        <ele>280</ele>
        <time>2021-09-03T07:38:00Z</time>
      </trkpt>
      <trkpt lat="44.12283" lon="2.33521">
        <ele>282</ele>
        <time>2021-09-03T07:38:02Z</time>
      </trkpt>
      <trkpt lat="44.12277" lon="2.33527">
        <ele>283</ele>
        <time>2021-09-03T07:38:04Z</time>
      </trkpt>
      <trkpt lat="44.12273" lon="2.33533">
        <ele>285</ele>
        <time>2021-09-03T07:38:06Z</time>
      </trkpt>
      <trkpt lat="44.12222" lon="2.33596">
        <ele>294</ele>
        <time>2021-09-03T07:38:24Z</time>
      </trkpt>
      <trkpt lat="44.12205" lon="2.3362">
        <ele>294</ele>
        <time>2021-09-03T07:38:30Z</time>
      </trkpt>
      <trkpt lat="44.12181" lon="2.33651">
        <ele>296</ele>
        <time>2021-09-03T07:38:38Z</time>
      </trkpt>
      <trkpt lat="44.12169" lon="2.33672">
        <ele>298</ele>
        <time>2021-09-03T07:38:44Z</time>
      </trkpt>
      <trkpt lat="44.12166" lon="2.33677">
        <ele>299</ele>
        <time>2021-09-03T07:38:45Z</time>
      </trkpt>
      <trkpt lat="44.12142" lon="2.33717">
        <ele>302</ele>
        <time>2021-09-03T07:38:53Z</time>
      </trkpt>
      <trkpt lat="44.12116" lon="2.33753">
        <ele>300</ele>
        <time>2021-09-03T07:39:01Z</time>
      </trkpt>
      <trkpt lat="44.12111" lon="2.3376">
        <ele>299</ele>
        <time>2021-09-03T07:39:03Z</time>
      </trkpt>
      <trkpt lat="44.12106" lon="2.33769">
        <ele>298</ele>
        <time>2021-09-03T07:39:05Z</time>
      </trkpt>
      <trkpt lat="44.12094" lon="2.33788">
        <ele>296</ele>
        <time>2021-09-03T07:39:09Z</time>
      </trkpt>
      <trkpt lat="44.12091" lon="2.33796">
        <ele>295</ele>
        <time>2021-09-03T07:39:11Z</time>
      </trkpt>
      <trkpt lat="44.12087" lon="2.33816">
        <ele>294</ele>
        <time>2021-09-03T07:39:15Z</time>
      </trkpt>
      <trkpt lat="44.1209" lon="2.33838">
        <ele>297</ele>
        <time>2021-09-03T07:39:19Z</time>
      </trkpt>
      <trkpt lat="44.12095" lon="2.33847">
        <ele>298</ele>
        <time>2021-09-03T07:39:21Z</time>
      </trkpt>
      <trkpt lat="44.12101" lon="2.33856">
        <ele>300</ele>
        <time>2021-09-03T07:39:23Z</time>
      </trkpt>
      <trkpt lat="44.12106" lon="2.33865">
        <ele>303</ele>
        <time>2021-09-03T07:39:25Z</time>
      </trkpt>
      <trkpt lat="44.12175" lon="2.33903">
        <ele>315</ele>
        <time>2021-09-03T07:39:42Z</time>
      </trkpt>
      <trkpt lat="44.12188" lon="2.33905">
        <ele>317</ele>
        <time>2021-09-03T07:39:46Z</time>
      </trkpt>
      <trkpt lat="44.12202" lon="2.33909">
        <ele>319</ele>
        <time>2021-09-03T07:39:50Z</time>
      </trkpt>
      <trkpt lat="44.12334" lon="2.33931">
        <ele>316</ele>
        <time>2021-09-03T07:40:21Z</time>
      </trkpt>
      <trkpt lat="44.12357" lon="2.33939">
        <ele>314</ele>
        <time>2021-09-03T07:40:26Z</time>
      </trkpt>
      <trkpt lat="44.12374" lon="2.33949">
        <ele>311</ele>
        <time>2021-09-03T07:40:30Z</time>
      </trkpt>
      <trkpt lat="44.12386" lon="2.3396">
        <ele>309</ele>
        <time>2021-09-03T07:40:33Z</time>
      </trkpt>
      <trkpt lat="44.12414" lon="2.34027">
        <ele>303</ele>
        <time>2021-09-03T07:40:46Z</time>
      </trkpt>
      <trkpt lat="44.12424" lon="2.34088">
        <ele>301</ele>
        <time>2021-09-03T07:40:56Z</time>
      </trkpt>
      <trkpt lat="44.12424" lon="2.34144">
        <ele>299</ele>
        <time>2021-09-03T07:41:06Z</time>
      </trkpt>
      <trkpt lat="44.12421" lon="2.34163">
        <ele>299</ele>
        <time>2021-09-03T07:41:10Z</time>
      </trkpt>
      <trkpt lat="44.12414" lon="2.34182">
        <ele>300</ele>
        <time>2021-09-03T07:41:14Z</time>
      </trkpt>
      <trkpt lat="44.12391" lon="2.34211">
        <ele>299</ele>
        <time>2021-09-03T07:41:22Z</time>
      </trkpt>
      <trkpt lat="44.12357" lon="2.34228">
        <ele>300</ele>
        <time>2021-09-03T07:41:29Z</time>
      </trkpt>
      <trkpt lat="44.12253" lon="2.3425">
        <ele>303</ele>
        <time>2021-09-03T07:41:53Z</time>
      </trkpt>
      <trkpt lat="44.12225" lon="2.3427">
        <ele>304</ele>
        <time>2021-09-03T07:42:00Z</time>
      </trkpt>
      <trkpt lat="44.12124" lon="2.34394">
        <ele>309</ele>
        <time>2021-09-03T07:42:31Z</time>
      </trkpt>
      <trkpt lat="44.12031" lon="2.34519">
        <ele>315</ele>
        <time>2021-09-03T07:43:01Z</time>
      </trkpt>
      <trkpt lat="44.11949" lon="2.34614">
        <ele>315</ele>
        <time>2021-09-03T07:43:24Z</time>
      </trkpt>
      <trkpt lat="44.11921" lon="2.34651">
        <ele>318</ele>
        <time>2021-09-03T07:43:36Z</time>
      </trkpt>
      <trkpt lat="44.11847" lon="2.34738">
        <ele>321</ele>
        <time>2021-09-03T07:44:08Z</time>
      </trkpt>
      <trkpt lat="44.11797" lon="2.34794">
        <ele>320</ele>
        <time>2021-09-03T07:44:28Z</time>
      </trkpt>
      <trkpt lat="44.11787" lon="2.34813">
        <ele>320</ele>
        <time>2021-09-03T07:44:32Z</time>
      </trkpt>
      <trkpt lat="44.11757" lon="2.34882">
        <ele>314</ele>
        <time>2021-09-03T07:44:53Z</time>
      </trkpt>
      <trkpt lat="44.11748" lon="2.34944">
        <ele>317</ele>
        <time>2021-09-03T07:45:10Z</time>
      </trkpt>
      <trkpt lat="44.11747" lon="2.34969">
        <ele>316</ele>
        <time>2021-09-03T07:45:19Z</time>
      </trkpt>
      <trkpt lat="44.11747" lon="2.34994">
        <ele>316</ele>
        <time>2021-09-03T07:45:28Z</time>
      </trkpt>
      <trkpt lat="44.11748" lon="2.35002">
        <ele>317</ele>
        <time>2021-09-03T07:45:31Z</time>
      </trkpt>
      <trkpt lat="44.11749" lon="2.35008">
        <ele>317</ele>
        <time>2021-09-03T07:45:34Z</time>
      </trkpt>
      <trkpt lat="44.11745" lon="2.35015">
        <ele>318</ele>
        <time>2021-09-03T07:46:18Z</time>
      </trkpt>
      <trkpt lat="44.11745" lon="2.35022">
        <ele>320</ele>
        <time>2021-09-03T07:46:20Z</time>
      </trkpt>
      <trkpt lat="44.1175" lon="2.35037">
        <ele>322</ele>
        <time>2021-09-03T07:46:24Z</time>
      </trkpt>
      <trkpt lat="44.11802" lon="2.35105">
        <ele>315</ele>
        <time>2021-09-03T07:46:36Z</time>
      </trkpt>
      <trkpt lat="44.11854" lon="2.35132">
        <ele>311</ele>
        <time>2021-09-03T07:46:45Z</time>
      </trkpt>
      <trkpt lat="44.11858" lon="2.35136">
        <ele>310</ele>
        <time>2021-09-03T07:46:46Z</time>
      </trkpt>
      <trkpt lat="44.1186" lon="2.35142">
        <ele>309</ele>
        <time>2021-09-03T07:46:47Z</time>
      </trkpt>
      <trkpt lat="44.11861" lon="2.35155">
        <ele>308</ele>
        <time>2021-09-03T07:46:49Z</time>
      </trkpt>
      <trkpt lat="44.11827" lon="2.35304">
        <ele>315</ele>
        <time>2021-09-03T07:47:15Z</time>
      </trkpt>
      <trkpt lat="44.11828" lon="2.35311">
        <ele>315</ele>
        <time>2021-09-03T07:47:18Z</time>
      </trkpt>
      <trkpt lat="44.11832" lon="2.35319">
        <ele>314</ele>
        <time>2021-09-03T07:47:21Z</time>
      </trkpt>
      <trkpt lat="44.11878" lon="2.35381">
        <ele>318</ele>
        <time>2021-09-03T07:47:53Z</time>
      </trkpt>
      <trkpt lat="44.11887" lon="2.3539">
        <ele>320</ele>
        <time>2021-09-03T07:47:59Z</time>
      </trkpt>
      <trkpt lat="44.11895" lon="2.354">
        <ele>321</ele>
        <time>2021-09-03T07:48:05Z</time>
      </trkpt>
      <trkpt lat="44.11926" lon="2.35432">
        <ele>323</ele>
        <time>2021-09-03T07:48:26Z</time>
      </trkpt>
      <trkpt lat="44.11971" lon="2.35477">
        <ele>328</ele>
        <time>2021-09-03T07:48:57Z</time>
      </trkpt>
      <trkpt lat="44.11995" lon="2.3552">
        <ele>331</ele>
        <time>2021-09-03T07:49:20Z</time>
      </trkpt>
      <trkpt lat="44.11998" lon="2.35527">
        <ele>332</ele>
        <time>2021-09-03T07:49:23Z</time>
      </trkpt>
      <trkpt lat="44.12018" lon="2.35561">
        <ele>334</ele>
        <time>2021-09-03T07:49:41Z</time>
      </trkpt>
      <trkpt lat="44.12022" lon="2.35565">
        <ele>334</ele>
        <time>2021-09-03T07:49:44Z</time>
      </trkpt>
      <trkpt lat="44.12037" lon="2.35604">
        <ele>329</ele>
        <time>2021-09-03T07:50:02Z</time>
      </trkpt>
      <trkpt lat="44.12041" lon="2.3561">
        <ele>328</ele>
        <time>2021-09-03T07:50:05Z</time>
      </trkpt>
      <trkpt lat="44.12047" lon="2.35611">
        <ele>328</ele>
        <time>2021-09-03T07:50:08Z</time>
      </trkpt>
      <trkpt lat="44.12053" lon="2.3561">
        <ele>328</ele>
        <time>2021-09-03T07:50:10Z</time>
      </trkpt>
      <trkpt lat="44.12064" lon="2.3559">
        <ele>331</ele>
        <time>2021-09-03T07:50:16Z</time>
      </trkpt>
      <trkpt lat="44.1207" lon="2.35575">
        <ele>332</ele>
        <time>2021-09-03T07:50:20Z</time>
      </trkpt>
      <trkpt lat="44.12082" lon="2.3554">
        <ele>333</ele>
        <time>2021-09-03T07:50:28Z</time>
      </trkpt>
      <trkpt lat="44.121" lon="2.35523">
        <ele>333</ele>
        <time>2021-09-03T07:50:34Z</time>
      </trkpt>
      <trkpt lat="44.12179" lon="2.35489">
        <ele>337</ele>
        <time>2021-09-03T07:50:58Z</time>
      </trkpt>
      <trkpt lat="44.12246" lon="2.35473">
        <ele>338</ele>
        <time>2021-09-03T07:51:16Z</time>
      </trkpt>
      <trkpt lat="44.12319" lon="2.35428">
        <ele>341</ele>
        <time>2021-09-03T07:51:46Z</time>
      </trkpt>
      <trkpt lat="44.12375" lon="2.35395">
        <ele>348</ele>
        <time>2021-09-03T07:52:12Z</time>
      </trkpt>
      <trkpt lat="44.12444" lon="2.3538">
        <ele>356</ele>
        <time>2021-09-03T07:52:45Z</time>
      </trkpt>
      <trkpt lat="44.12515" lon="2.35374">
        <ele>359</ele>
        <time>2021-09-03T07:53:17Z</time>
      </trkpt>
      <trkpt lat="44.12527" lon="2.35375">
        <ele>359</ele>
        <time>2021-09-03T07:53:23Z</time>
      </trkpt>
      <trkpt lat="44.12539" lon="2.35379">
        <ele>359</ele>
        <time>2021-09-03T07:53:29Z</time>
      </trkpt>
      <trkpt lat="44.12543" lon="2.35385">
        <ele>360</ele>
        <time>2021-09-03T07:53:32Z</time>
      </trkpt>
      <trkpt lat="44.12545" lon="2.35394">
        <ele>361</ele>
        <time>2021-09-03T07:53:35Z</time>
      </trkpt>
      <trkpt lat="44.12543" lon="2.35409">
        <ele>362</ele>
        <time>2021-09-03T07:53:40Z</time>
      </trkpt>
      <trkpt lat="44.12541" lon="2.35414">
        <ele>362</ele>
        <time>2021-09-03T07:53:42Z</time>
      </trkpt>
      <trkpt lat="44.12523" lon="2.35431">
        <ele>364</ele>
        <time>2021-09-03T07:53:52Z</time>
      </trkpt>
      <trkpt lat="44.12513" lon="2.35438">
        <ele>365</ele>
        <time>2021-09-03T07:53:57Z</time>
      </trkpt>
      <trkpt lat="44.12492" lon="2.35457">
        <ele>366</ele>
        <time>2021-09-03T07:54:08Z</time>
      </trkpt>
      <trkpt lat="44.12488" lon="2.3546">
        <ele>366</ele>
        <time>2021-09-03T07:54:10Z</time>
      </trkpt>
      <trkpt lat="44.12482" lon="2.35463">
        <ele>367</ele>
        <time>2021-09-03T07:54:13Z</time>
      </trkpt>
      <trkpt lat="44.12477" lon="2.35468">
        <ele>367</ele>
        <time>2021-09-03T07:54:16Z</time>
      </trkpt>
      <trkpt lat="44.12467" lon="2.35477">
        <ele>368</ele>
        <time>2021-09-03T07:54:22Z</time>
      </trkpt>
      <trkpt lat="44.12458" lon="2.35485">
        <ele>371</ele>
        <time>2021-09-03T07:54:28Z</time>
      </trkpt>
      <trkpt lat="44.12454" lon="2.3549">
        <ele>371</ele>
        <time>2021-09-03T07:55:09Z</time>
      </trkpt>
      <trkpt lat="44.12457" lon="2.35496">
        <ele>371</ele>
        <time>2021-09-03T07:55:11Z</time>
      </trkpt>
      <trkpt lat="44.12459" lon="2.35504">
        <ele>370</ele>
        <time>2021-09-03T07:55:13Z</time>
      </trkpt>
      <trkpt lat="44.1246" lon="2.35515">
        <ele>369</ele>
        <time>2021-09-03T07:55:15Z</time>
      </trkpt>
      <trkpt lat="44.12444" lon="2.35574">
        <ele>366</ele>
        <time>2021-09-03T07:55:23Z</time>
      </trkpt>
      <trkpt lat="44.12438" lon="2.35591">
        <ele>365</ele>
        <time>2021-09-03T07:55:25Z</time>
      </trkpt>
      <trkpt lat="44.12427" lon="2.35663">
        <ele>362</ele>
        <time>2021-09-03T07:55:33Z</time>
      </trkpt>
      <trkpt lat="44.12421" lon="2.35682">
        <ele>359</ele>
        <time>2021-09-03T07:55:35Z</time>
      </trkpt>
      <trkpt lat="44.12396" lon="2.35733">
        <ele>356</ele>
        <time>2021-09-03T07:55:41Z</time>
      </trkpt>
      <trkpt lat="44.12391" lon="2.35752">
        <ele>355</ele>
        <time>2021-09-03T07:55:43Z</time>
      </trkpt>
      <trkpt lat="44.12387" lon="2.35815">
        <ele>355</ele>
        <time>2021-09-03T07:55:49Z</time>
      </trkpt>
      <trkpt lat="44.12387" lon="2.35852">
        <ele>354</ele>
        <time>2021-09-03T07:55:53Z</time>
      </trkpt>
      <trkpt lat="44.12383" lon="2.35885">
        <ele>353</ele>
        <time>2021-09-03T07:55:57Z</time>
      </trkpt>
      <trkpt lat="44.12374" lon="2.35915">
        <ele>352</ele>
        <time>2021-09-03T07:56:02Z</time>
      </trkpt>
      <trkpt lat="44.12352" lon="2.35958">
        <ele>350</ele>
        <time>2021-09-03T07:56:10Z</time>
      </trkpt>
      <trkpt lat="44.12334" lon="2.36017">
        <ele>347</ele>
        <time>2021-09-03T07:56:18Z</time>
      </trkpt>
      <trkpt lat="44.12332" lon="2.36024">
        <ele>346</ele>
        <time>2021-09-03T07:56:19Z</time>
      </trkpt>
      <trkpt lat="44.1231" lon="2.36063">
        <ele>345</ele>
        <time>2021-09-03T07:56:25Z</time>
      </trkpt>
      <trkpt lat="44.12305" lon="2.36071">
        <ele>344</ele>
        <time>2021-09-03T07:56:27Z</time>
      </trkpt>
      <trkpt lat="44.12299" lon="2.36082">
        <ele>341</ele>
        <time>2021-09-03T07:58:02Z</time>
      </trkpt>
      <trkpt lat="44.12287" lon="2.36113">
        <ele>337</ele>
        <time>2021-09-03T07:58:11Z</time>
      </trkpt>
      <trkpt lat="44.12284" lon="2.36195">
        <ele>331</ele>
        <time>2021-09-03T07:58:21Z</time>
      </trkpt>
      <trkpt lat="44.12293" lon="2.36365">
        <ele>322</ele>
        <time>2021-09-03T07:58:38Z</time>
      </trkpt>
      <trkpt lat="44.12287" lon="2.36423">
        <ele>320</ele>
        <time>2021-09-03T07:58:44Z</time>
      </trkpt>
      <trkpt lat="44.12302" lon="2.3648">
        <ele>317</ele>
        <time>2021-09-03T07:58:50Z</time>
      </trkpt>
      <trkpt lat="44.12307" lon="2.36522">
        <ele>316</ele>
        <time>2021-09-03T07:58:54Z</time>
      </trkpt>
      <trkpt lat="44.12308" lon="2.36537">
        <ele>315</ele>
        <time>2021-09-03T07:58:56Z</time>
      </trkpt>
      <trkpt lat="44.1231" lon="2.36547">
        <ele>315</ele>
        <time>2021-09-03T07:58:58Z</time>
      </trkpt>
      <trkpt lat="44.12315" lon="2.3655">
        <ele>317</ele>
        <time>2021-09-03T07:59:01Z</time>
      </trkpt>
      <trkpt lat="44.12352" lon="2.36539">
        <ele>321</ele>
        <time>2021-09-03T07:59:11Z</time>
      </trkpt>
      <trkpt lat="44.1236" lon="2.36535">
        <ele>321</ele>
        <time>2021-09-03T07:59:13Z</time>
      </trkpt>
      <trkpt lat="44.12422" lon="2.36532">
        <ele>319</ele>
        <time>2021-09-03T07:59:31Z</time>
      </trkpt>
      <trkpt lat="44.12479" lon="2.36585">
        <ele>319</ele>
        <time>2021-09-03T08:00:03Z</time>
      </trkpt>
      <trkpt lat="44.12481" lon="2.36591">
        <ele>319</ele>
        <time>2021-09-03T08:00:05Z</time>
      </trkpt>
      <trkpt lat="44.1248" lon="2.36608">
        <ele>319</ele>
        <time>2021-09-03T08:00:11Z</time>
      </trkpt>
      <trkpt lat="44.12465" lon="2.36647">
        <ele>318</ele>
        <time>2021-09-03T08:00:26Z</time>
      </trkpt>
      <trkpt lat="44.12497" lon="2.36737">
        <ele>322</ele>
        <time>2021-09-03T08:00:58Z</time>
      </trkpt>
      <trkpt lat="44.12501" lon="2.36761">
        <ele>323</ele>
        <time>2021-09-03T08:01:08Z</time>
      </trkpt>
      <trkpt lat="44.12498" lon="2.36766">
        <ele>322</ele>
        <time>2021-09-03T08:02:20Z</time>
      </trkpt>
      <trkpt lat="44.12499" lon="2.36773">
        <ele>322</ele>
        <time>2021-09-03T08:02:22Z</time>
      </trkpt>
      <trkpt lat="44.125" lon="2.36781">
        <ele>322</ele>
        <time>2021-09-03T08:02:24Z</time>
      </trkpt>
      <trkpt lat="44.12502" lon="2.36801">
        <ele>321</ele>
        <time>2021-09-03T08:02:28Z</time>
      </trkpt>
      <trkpt lat="44.12494" lon="2.37056">
        <ele>305</ele>
        <time>2021-09-03T08:02:59Z</time>
      </trkpt>
      <trkpt lat="44.12502" lon="2.37129">
        <ele>305</ele>
        <time>2021-09-03T08:03:05Z</time>
      </trkpt>
      <trkpt lat="44.12523" lon="2.37195">
        <ele>308</ele>
        <time>2021-09-03T08:03:12Z</time>
      </trkpt>
      <trkpt lat="44.12564" lon="2.37287">
        <ele>308</ele>
        <time>2021-09-03T08:03:28Z</time>
      </trkpt>
      <trkpt lat="44.12574" lon="2.37305">
        <ele>308</ele>
        <time>2021-09-03T08:03:32Z</time>
      </trkpt>
      <trkpt lat="44.12604" lon="2.37356">
        <ele>310</ele>
        <time>2021-09-03T08:03:44Z</time>
      </trkpt>
      <trkpt lat="44.12635" lon="2.37403">
        <ele>311</ele>
        <time>2021-09-03T08:03:55Z</time>
      </trkpt>
      <trkpt lat="44.12664" lon="2.37426">
        <ele>312</ele>
        <time>2021-09-03T08:04:02Z</time>
      </trkpt>
      <trkpt lat="44.12705" lon="2.37452">
        <ele>312</ele>
        <time>2021-09-03T08:04:12Z</time>
      </trkpt>
      <trkpt lat="44.12713" lon="2.3746">
        <ele>312</ele>
        <time>2021-09-03T08:04:14Z</time>
      </trkpt>
      <trkpt lat="44.12719" lon="2.37473">
        <ele>312</ele>
        <time>2021-09-03T08:04:16Z</time>
      </trkpt>
      <trkpt lat="44.12713" lon="2.37563">
        <ele>311</ele>
        <time>2021-09-03T08:04:29Z</time>
      </trkpt>
      <trkpt lat="44.12707" lon="2.37573">
        <ele>311</ele>
        <time>2021-09-03T08:04:31Z</time>
      </trkpt>
      <trkpt lat="44.12702" lon="2.37576">
        <ele>311</ele>
        <time>2021-09-03T08:04:32Z</time>
      </trkpt>
      <trkpt lat="44.12634" lon="2.37548">
        <ele>311</ele>
        <time>2021-09-03T08:04:47Z</time>
      </trkpt>
      <trkpt lat="44.12516" lon="2.37523">
        <ele>320</ele>
        <time>2021-09-03T08:05:09Z</time>
      </trkpt>
      <trkpt lat="44.12481" lon="2.37523">
        <ele>320</ele>
        <time>2021-09-03T08:05:16Z</time>
      </trkpt>
      <trkpt lat="44.12472" lon="2.37523">
        <ele>320</ele>
        <time>2021-09-03T08:05:18Z</time>
      </trkpt>
      <trkpt lat="44.12463" lon="2.37524">
        <ele>319</ele>
        <time>2021-09-03T08:05:20Z</time>
      </trkpt>
      <trkpt lat="44.12452" lon="2.37533">
        <ele>319</ele>
        <time>2021-09-03T08:05:23Z</time>
      </trkpt>
      <trkpt lat="44.12438" lon="2.37558">
        <ele>318</ele>
        <time>2021-09-03T08:05:28Z</time>
      </trkpt>
      <trkpt lat="44.12433" lon="2.37568">
        <ele>318</ele>
        <time>2021-09-03T08:05:30Z</time>
      </trkpt>
      <trkpt lat="44.12419" lon="2.376">
        <ele>317</ele>
        <time>2021-09-03T08:05:38Z</time>
      </trkpt>
      <trkpt lat="44.1239" lon="2.3768">
        <ele>312</ele>
        <time>2021-09-03T08:05:58Z</time>
      </trkpt>
      <trkpt lat="44.12383" lon="2.3772">
        <ele>313</ele>
        <time>2021-09-03T08:06:06Z</time>
      </trkpt>
      <trkpt lat="44.12382" lon="2.37746">
        <ele>314</ele>
        <time>2021-09-03T08:06:12Z</time>
      </trkpt>
      <trkpt lat="44.12392" lon="2.37819">
        <ele>314</ele>
        <time>2021-09-03T08:06:36Z</time>
      </trkpt>
      <trkpt lat="44.12394" lon="2.37827">
        <ele>313</ele>
        <time>2021-09-03T08:06:39Z</time>
      </trkpt>
      <trkpt lat="44.12397" lon="2.3785">
        <ele>312</ele>
        <time>2021-09-03T08:06:46Z</time>
      </trkpt>
      <trkpt lat="44.12406" lon="2.37953">
        <ele>312</ele>
        <time>2021-09-03T08:07:16Z</time>
      </trkpt>
      <trkpt lat="44.12412" lon="2.38055">
        <ele>308</ele>
        <time>2021-09-03T08:07:47Z</time>
      </trkpt>
      <trkpt lat="44.1241" lon="2.38094">
        <ele>306</ele>
        <time>2021-09-03T08:07:57Z</time>
      </trkpt>
      <trkpt lat="44.1239" lon="2.38216">
        <ele>306</ele>
        <time>2021-09-03T08:08:19Z</time>
      </trkpt>
      <trkpt lat="44.12391" lon="2.38231">
        <ele>307</ele>
        <time>2021-09-03T08:08:21Z</time>
      </trkpt>
      <trkpt lat="44.12394" lon="2.38246">
        <ele>309</ele>
        <time>2021-09-03T08:08:23Z</time>
      </trkpt>
      <trkpt lat="44.12402" lon="2.38263">
        <ele>310</ele>
        <time>2021-09-03T08:08:26Z</time>
      </trkpt>
      <trkpt lat="44.12417" lon="2.38279">
        <ele>311</ele>
        <time>2021-09-03T08:08:30Z</time>
      </trkpt>
      <trkpt lat="44.12508" lon="2.38335">
        <ele>310</ele>
        <time>2021-09-03T08:08:51Z</time>
      </trkpt>
      <trkpt lat="44.12543" lon="2.38348">
        <ele>309</ele>
        <time>2021-09-03T08:08:58Z</time>
      </trkpt>
      <trkpt lat="44.12562" lon="2.38362">
        <ele>309</ele>
        <time>2021-09-03T08:09:02Z</time>
      </trkpt>
      <trkpt lat="44.12653" lon="2.38406">
        <ele>303</ele>
        <time>2021-09-03T08:09:20Z</time>
      </trkpt>
      <trkpt lat="44.12728" lon="2.38423">
        <ele>302</ele>
        <time>2021-09-03T08:09:32Z</time>
      </trkpt>
      <trkpt lat="44.12911" lon="2.38403">
        <ele>318</ele>
        <time>2021-09-03T08:10:03Z</time>
      </trkpt>
      <trkpt lat="44.12963" lon="2.38393">
        <ele>320</ele>
        <time>2021-09-03T08:10:14Z</time>
      </trkpt>
      <trkpt lat="44.13061" lon="2.38405">
        <ele>314</ele>
        <time>2021-09-03T08:10:36Z</time>
      </trkpt>
      <trkpt lat="44.13076" lon="2.38416">
        <ele>313</ele>
        <time>2021-09-03T08:10:40Z</time>
      </trkpt>
      <trkpt lat="44.13107" lon="2.38464">
        <ele>313</ele>
        <time>2021-09-03T08:10:49Z</time>
      </trkpt>
      <trkpt lat="44.13118" lon="2.38491">
        <ele>313</ele>
        <time>2021-09-03T08:10:53Z</time>
      </trkpt>
      <trkpt lat="44.13134" lon="2.3865">
        <ele>325</ele>
        <time>2021-09-03T08:11:19Z</time>
      </trkpt>
      <trkpt lat="44.13133" lon="2.38734">
        <ele>329</ele>
        <time>2021-09-03T08:11:37Z</time>
      </trkpt>
      <trkpt lat="44.13109" lon="2.38811">
        <ele>329</ele>
        <time>2021-09-03T08:11:53Z</time>
      </trkpt>
      <trkpt lat="44.13085" lon="2.38859">
        <ele>327</ele>
        <time>2021-09-03T08:12:05Z</time>
      </trkpt>
      <trkpt lat="44.13033" lon="2.38943">
        <ele>319</ele>
        <time>2021-09-03T08:12:21Z</time>
      </trkpt>
      <trkpt lat="44.1301" lon="2.39006">
        <ele>317</ele>
        <time>2021-09-03T08:12:30Z</time>
      </trkpt>
      <trkpt lat="44.12999" lon="2.3908">
        <ele>311</ele>
        <time>2021-09-03T08:12:40Z</time>
      </trkpt>
      <trkpt lat="44.12992" lon="2.39157">
        <ele>305</ele>
        <time>2021-09-03T08:12:51Z</time>
      </trkpt>
      <trkpt lat="44.12997" lon="2.39196">
        <ele>306</ele>
        <time>2021-09-03T08:12:57Z</time>
      </trkpt>
      <trkpt lat="44.12997" lon="2.39203">
        <ele>310</ele>
        <time>2021-09-03T08:12:59Z</time>
      </trkpt>
      <trkpt lat="44.1299" lon="2.39205">
        <ele>312</ele>
        <time>2021-09-03T08:13:03Z</time>
      </trkpt>
      <trkpt lat="44.12985" lon="2.3921">
        <ele>315</ele>
        <time>2021-09-03T08:13:55Z</time>
      </trkpt>
      <trkpt lat="44.1298" lon="2.39212">
        <ele>315</ele>
        <time>2021-09-03T08:13:57Z</time>
      </trkpt>
      <trkpt lat="44.12944" lon="2.39227">
        <ele>313</ele>
        <time>2021-09-03T08:14:09Z</time>
      </trkpt>
      <trkpt lat="44.12938" lon="2.39226">
        <ele>312</ele>
        <time>2021-09-03T08:14:11Z</time>
      </trkpt>
      <trkpt lat="44.12929" lon="2.39214">
        <ele>312</ele>
        <time>2021-09-03T08:14:15Z</time>
      </trkpt>
      <trkpt lat="44.12923" lon="2.39196">
        <ele>312</ele>
        <time>2021-09-03T08:14:19Z</time>
      </trkpt>
      <trkpt lat="44.12922" lon="2.39164">
        <ele>313</ele>
        <time>2021-09-03T08:14:27Z</time>
      </trkpt>
      <trkpt lat="44.12893" lon="2.39051">
        <ele>320</ele>
        <time>2021-09-03T08:14:53Z</time>
      </trkpt>
      <trkpt lat="44.12891" lon="2.39043">
        <ele>319</ele>
        <time>2021-09-03T08:14:56Z</time>
      </trkpt>
      <trkpt lat="44.12888" lon="2.39019">
        <ele>318</ele>
        <time>2021-09-03T08:15:04Z</time>
      </trkpt>
      <trkpt lat="44.12876" lon="2.38991">
        <ele>313</ele>
        <time>2021-09-03T08:15:12Z</time>
      </trkpt>
      <trkpt lat="44.12872" lon="2.38974">
        <ele>313</ele>
        <time>2021-09-03T08:15:16Z</time>
      </trkpt>
      <trkpt lat="44.12876" lon="2.38926">
        <ele>313</ele>
        <time>2021-09-03T08:15:28Z</time>
      </trkpt>
      <trkpt lat="44.12878" lon="2.3892">
        <ele>312</ele>
        <time>2021-09-03T08:15:30Z</time>
      </trkpt>
      <trkpt lat="44.12881" lon="2.38913">
        <ele>312</ele>
        <time>2021-09-03T08:15:32Z</time>
      </trkpt>
      <trkpt lat="44.12915" lon="2.38898">
        <ele>312</ele>
        <time>2021-09-03T08:15:47Z</time>
      </trkpt>
      <trkpt lat="44.12936" lon="2.38871">
        <ele>316</ele>
        <time>2021-09-03T08:15:57Z</time>
      </trkpt>
      <trkpt lat="44.12945" lon="2.38856">
        <ele>317</ele>
        <time>2021-09-03T08:16:01Z</time>
      </trkpt>
      <trkpt lat="44.1295" lon="2.38849">
        <ele>317</ele>
        <time>2021-09-03T08:16:03Z</time>
      </trkpt>
      <trkpt lat="44.12963" lon="2.3883">
        <ele>318</ele>
        <time>2021-09-03T08:16:09Z</time>
      </trkpt>
      <trkpt lat="44.12968" lon="2.38826">
        <ele>319</ele>
        <time>2021-09-03T08:16:11Z</time>
      </trkpt>
      <trkpt lat="44.12972" lon="2.38818">
        <ele>320</ele>
        <time>2021-09-03T08:16:14Z</time>
      </trkpt>
      <trkpt lat="44.12975" lon="2.38813">
        <ele>321</ele>
        <time>2021-09-03T08:16:16Z</time>
      </trkpt>
      <trkpt lat="44.1298" lon="2.38801">
        <ele>323</ele>
        <time>2021-09-03T08:16:20Z</time>
      </trkpt>
      <trkpt lat="44.1298" lon="2.38787">
        <ele>320</ele>
        <time>2021-09-03T08:16:24Z</time>
      </trkpt>
      <trkpt lat="44.12981" lon="2.3878">
        <ele>319</ele>
        <time>2021-09-03T08:16:26Z</time>
      </trkpt>
      <trkpt lat="44.12983" lon="2.38767">
        <ele>319</ele>
        <time>2021-09-03T08:16:30Z</time>
      </trkpt>
      <trkpt lat="44.1299" lon="2.38735">
        <ele>323</ele>
        <time>2021-09-03T08:16:40Z</time>
      </trkpt>
      <trkpt lat="44.12992" lon="2.38721">
        <ele>326</ele>
        <time>2021-09-03T08:16:45Z</time>
      </trkpt>
      <trkpt lat="44.12994" lon="2.38707">
        <ele>329</ele>
        <time>2021-09-03T08:16:49Z</time>
      </trkpt>
      <trkpt lat="44.12994" lon="2.387">
        <ele>330</ele>
        <time>2021-09-03T08:16:51Z</time>
      </trkpt>
      <trkpt lat="44.12996" lon="2.38685">
        <ele>333</ele>
        <time>2021-09-03T08:16:55Z</time>
      </trkpt>
      <trkpt lat="44.12997" lon="2.38678">
        <ele>334</ele>
        <time>2021-09-03T08:16:58Z</time>
      </trkpt>
      <trkpt lat="44.12999" lon="2.3865">
        <ele>342</ele>
        <time>2021-09-03T08:17:06Z</time>
      </trkpt>
      <trkpt lat="44.12998" lon="2.38644">
        <ele>343</ele>
        <time>2021-09-03T08:17:08Z</time>
      </trkpt>
      <trkpt lat="44.12992" lon="2.38621">
        <ele>341</ele>
        <time>2021-09-03T08:17:14Z</time>
      </trkpt>
      <trkpt lat="44.12992" lon="2.38615">
        <ele>341</ele>
        <time>2021-09-03T08:17:16Z</time>
      </trkpt>
      <trkpt lat="44.12988" lon="2.38598">
        <ele>343</ele>
        <time>2021-09-03T08:17:22Z</time>
      </trkpt>
      <trkpt lat="44.1298" lon="2.38586">
        <ele>342</ele>
        <time>2021-09-03T08:17:27Z</time>
      </trkpt>
      <trkpt lat="44.12967" lon="2.38571">
        <ele>340</ele>
        <time>2021-09-03T08:17:35Z</time>
      </trkpt>
      <trkpt lat="44.12963" lon="2.38568">
        <ele>340</ele>
        <time>2021-09-03T08:17:37Z</time>
      </trkpt>
      <trkpt lat="44.12953" lon="2.38565">
        <ele>341</ele>
        <time>2021-09-03T08:17:42Z</time>
      </trkpt>
      <trkpt lat="44.12914" lon="2.38574">
        <ele>344</ele>
        <time>2021-09-03T08:17:57Z</time>
      </trkpt>
      <trkpt lat="44.12905" lon="2.38579">
        <ele>345</ele>
        <time>2021-09-03T08:18:01Z</time>
      </trkpt>
      <trkpt lat="44.12831" lon="2.38613">
        <ele>350</ele>
        <time>2021-09-03T08:18:33Z</time>
      </trkpt>
      <trkpt lat="44.12747" lon="2.38636">
        <ele>354</ele>
        <time>2021-09-03T08:19:05Z</time>
      </trkpt>
      <trkpt lat="44.12676" lon="2.38651">
        <ele>356</ele>
        <time>2021-09-03T08:19:33Z</time>
      </trkpt>
      <trkpt lat="44.12594" lon="2.38648">
        <ele>362</ele>
        <time>2021-09-03T08:20:05Z</time>
      </trkpt>
      <trkpt lat="44.12559" lon="2.38646">
        <ele>363</ele>
        <time>2021-09-03T08:20:19Z</time>
      </trkpt>
      <trkpt lat="44.12538" lon="2.38647">
        <ele>365</ele>
        <time>2021-09-03T08:20:27Z</time>
      </trkpt>
      <trkpt lat="44.12491" lon="2.38648">
        <ele>368</ele>
        <time>2021-09-03T08:20:45Z</time>
      </trkpt>
      <trkpt lat="44.12438" lon="2.38654">
        <ele>370</ele>
        <time>2021-09-03T08:21:05Z</time>
      </trkpt>
      <trkpt lat="44.12404" lon="2.3865">
        <ele>373</ele>
        <time>2021-09-03T08:21:18Z</time>
      </trkpt>
      <trkpt lat="44.12382" lon="2.3864">
        <ele>370</ele>
        <time>2021-09-03T08:21:28Z</time>
      </trkpt>
      <trkpt lat="44.12356" lon="2.38604">
        <ele>372</ele>
        <time>2021-09-03T08:21:41Z</time>
      </trkpt>
      <trkpt lat="44.12346" lon="2.38596">
        <ele>372</ele>
        <time>2021-09-03T08:21:45Z</time>
      </trkpt>
      <trkpt lat="44.12335" lon="2.38591">
        <ele>373</ele>
        <time>2021-09-03T08:21:49Z</time>
      </trkpt>
      <trkpt lat="44.12322" lon="2.38589">
        <ele>375</ele>
        <time>2021-09-03T08:21:53Z</time>
      </trkpt>
      <trkpt lat="44.12302" lon="2.38598">
        <ele>378</ele>
        <time>2021-09-03T08:22:01Z</time>
      </trkpt>
      <trkpt lat="44.12272" lon="2.38615">
        <ele>379</ele>
        <time>2021-09-03T08:22:13Z</time>
      </trkpt>
      <trkpt lat="44.12243" lon="2.38651">
        <ele>382</ele>
        <time>2021-09-03T08:22:29Z</time>
      </trkpt>
      <trkpt lat="44.12229" lon="2.38662">
        <ele>383</ele>
        <time>2021-09-03T08:22:36Z</time>
      </trkpt>
      <trkpt lat="44.12225" lon="2.38664">
        <ele>384</ele>
        <time>2021-09-03T08:22:38Z</time>
      </trkpt>
      <trkpt lat="44.12203" lon="2.38702">
        <ele>384</ele>
        <time>2021-09-03T08:22:48Z</time>
      </trkpt>
      <trkpt lat="44.12183" lon="2.38761">
        <ele>393</ele>
        <time>2021-09-03T08:23:06Z</time>
      </trkpt>
      <trkpt lat="44.12145" lon="2.38826">
        <ele>399</ele>
        <time>2021-09-03T08:23:30Z</time>
      </trkpt>
      <trkpt lat="44.12113" lon="2.38858">
        <ele>402</ele>
        <time>2021-09-03T08:23:45Z</time>
      </trkpt>
      <trkpt lat="44.12059" lon="2.38892">
        <ele>406</ele>
        <time>2021-09-03T08:24:07Z</time>
      </trkpt>
      <trkpt lat="44.1202" lon="2.38911">
        <ele>407</ele>
        <time>2021-09-03T08:24:25Z</time>
      </trkpt>
      <trkpt lat="44.12015" lon="2.38913">
        <ele>408</ele>
        <time>2021-09-03T08:24:28Z</time>
      </trkpt>
      <trkpt lat="44.12011" lon="2.38916">
        <ele>408</ele>
        <time>2021-09-03T08:24:31Z</time>
      </trkpt>
      <trkpt lat="44.12006" lon="2.38916">
        <ele>407</ele>
        <time>2021-09-03T08:26:50Z</time>
      </trkpt>
      <trkpt lat="44.12002" lon="2.38919">
        <ele>407</ele>
        <time>2021-09-03T08:28:05Z</time>
      </trkpt>
      <trkpt lat="44.11998" lon="2.38922">
        <ele>403</ele>
        <time>2021-09-03T08:32:03Z</time>
      </trkpt>
      <trkpt lat="44.11987" lon="2.3893">
        <ele>403</ele>
        <time>2021-09-03T08:32:09Z</time>
      </trkpt>
      <trkpt lat="44.11955" lon="2.38951">
        <ele>406</ele>
        <time>2021-09-03T08:32:25Z</time>
      </trkpt>
      <trkpt lat="44.11945" lon="2.38957">
        <ele>406</ele>
        <time>2021-09-03T08:32:31Z</time>
      </trkpt>
      <trkpt lat="44.11931" lon="2.38967">
        <ele>404</ele>
        <time>2021-09-03T08:32:37Z</time>
      </trkpt>
      <trkpt lat="44.11913" lon="2.38971">
        <ele>399</ele>
        <time>2021-09-03T08:32:46Z</time>
      </trkpt>
      <trkpt lat="44.11858" lon="2.38964">
        <ele>404</ele>
        <time>2021-09-03T08:33:14Z</time>
      </trkpt>
      <trkpt lat="44.11843" lon="2.38971">
        <ele>405</ele>
        <time>2021-09-03T08:33:22Z</time>
      </trkpt>
      <trkpt lat="44.11793" lon="2.39017">
        <ele>406</ele>
        <time>2021-09-03T08:33:48Z</time>
      </trkpt>
      <trkpt lat="44.11771" lon="2.39051">
        <ele>409</ele>
        <time>2021-09-03T08:34:03Z</time>
      </trkpt>
      <trkpt lat="44.11767" lon="2.39056">
        <ele>409</ele>
        <time>2021-09-03T08:34:06Z</time>
      </trkpt>
      <trkpt lat="44.11749" lon="2.39075">
        <ele>414</ele>
        <time>2021-09-03T08:34:15Z</time>
      </trkpt>
      <trkpt lat="44.11739" lon="2.3908">
        <ele>416</ele>
        <time>2021-09-03T08:34:20Z</time>
      </trkpt>
      <trkpt lat="44.11724" lon="2.39088">
        <ele>418</ele>
        <time>2021-09-03T08:34:26Z</time>
      </trkpt>
      <trkpt lat="44.11707" lon="2.39094">
        <ele>420</ele>
        <time>2021-09-03T08:34:33Z</time>
      </trkpt>
      <trkpt lat="44.11664" lon="2.39121">
        <ele>423</ele>
        <time>2021-09-03T08:34:53Z</time>
      </trkpt>
      <trkpt lat="44.11652" lon="2.39128">
        <ele>421</ele>
        <time>2021-09-03T08:34:59Z</time>
      </trkpt>
      <trkpt lat="44.11583" lon="2.39161">
        <ele>426</ele>
        <time>2021-09-03T08:35:29Z</time>
      </trkpt>
      <trkpt lat="44.11574" lon="2.39169">
        <ele>427</ele>
        <time>2021-09-03T08:35:34Z</time>
      </trkpt>
      <trkpt lat="44.11569" lon="2.39175">
        <ele>427</ele>
        <time>2021-09-03T08:35:37Z</time>
      </trkpt>
      <trkpt lat="44.11563" lon="2.39186">
        <ele>427</ele>
        <time>2021-09-03T08:35:41Z</time>
      </trkpt>
      <trkpt lat="44.1156" lon="2.39199">
        <ele>427</ele>
        <time>2021-09-03T08:35:45Z</time>
      </trkpt>
      <trkpt lat="44.1156" lon="2.39213">
        <ele>428</ele>
        <time>2021-09-03T08:35:49Z</time>
      </trkpt>
      <trkpt lat="44.11568" lon="2.39286">
        <ele>433</ele>
        <time>2021-09-03T08:36:11Z</time>
      </trkpt>
      <trkpt lat="44.1158" lon="2.39321">
        <ele>431</ele>
        <time>2021-09-03T08:36:23Z</time>
      </trkpt>
      <trkpt lat="44.11584" lon="2.39333">
        <ele>430</ele>
        <time>2021-09-03T08:36:27Z</time>
      </trkpt>
      <trkpt lat="44.11588" lon="2.39349">
        <ele>430</ele>
        <time>2021-09-03T08:36:32Z</time>
      </trkpt>
      <trkpt lat="44.11589" lon="2.39373">
        <ele>428</ele>
        <time>2021-09-03T08:36:39Z</time>
      </trkpt>
      <trkpt lat="44.11588" lon="2.39398">
        <ele>424</ele>
        <time>2021-09-03T08:36:47Z</time>
      </trkpt>
      <trkpt lat="44.11586" lon="2.39413">
        <ele>421</ele>
        <time>2021-09-03T08:36:52Z</time>
      </trkpt>
      <trkpt lat="44.11585" lon="2.39422">
        <ele>419</ele>
        <time>2021-09-03T08:36:55Z</time>
      </trkpt>
      <trkpt lat="44.11571" lon="2.39514">
        <ele>406</ele>
        <time>2021-09-03T08:37:24Z</time>
      </trkpt>
      <trkpt lat="44.1157" lon="2.39522">
        <ele>405</ele>
        <time>2021-09-03T08:37:27Z</time>
      </trkpt>
      <trkpt lat="44.11567" lon="2.3953">
        <ele>403</ele>
        <time>2021-09-03T08:37:30Z</time>
      </trkpt>
      <trkpt lat="44.11565" lon="2.39536">
        <ele>403</ele>
        <time>2021-09-03T08:37:32Z</time>
      </trkpt>
      <trkpt lat="44.11552" lon="2.39561">
        <ele>400</ele>
        <time>2021-09-03T08:37:41Z</time>
      </trkpt>
      <trkpt lat="44.11548" lon="2.39569">
        <ele>400</ele>
        <time>2021-09-03T08:37:43Z</time>
      </trkpt>
      <trkpt lat="44.11513" lon="2.39583">
        <ele>412</ele>
        <time>2021-09-03T08:37:54Z</time>
      </trkpt>
      <trkpt lat="44.11493" lon="2.39589">
        <ele>416</ele>
        <time>2021-09-03T08:38:02Z</time>
      </trkpt>
      <trkpt lat="44.1148" lon="2.39601">
        <ele>417</ele>
        <time>2021-09-03T08:38:08Z</time>
      </trkpt>
      <trkpt lat="44.11468" lon="2.39626">
        <ele>417</ele>
        <time>2021-09-03T08:38:17Z</time>
      </trkpt>
      <trkpt lat="44.11459" lon="2.39658">
        <ele>420</ele>
        <time>2021-09-03T08:38:27Z</time>
      </trkpt>
      <trkpt lat="44.11452" lon="2.3967">
        <ele>422</ele>
        <time>2021-09-03T08:38:31Z</time>
      </trkpt>
      <trkpt lat="44.11447" lon="2.39675">
        <ele>424</ele>
        <time>2021-09-03T08:38:33Z</time>
      </trkpt>
      <trkpt lat="44.11439" lon="2.39677">
        <ele>430</ele>
        <time>2021-09-03T08:38:35Z</time>
      </trkpt>
      <trkpt lat="44.11432" lon="2.39675">
        <ele>433</ele>
        <time>2021-09-03T08:38:37Z</time>
      </trkpt>
      <trkpt lat="44.11392" lon="2.39639">
        <ele>449</ele>
        <time>2021-09-03T08:38:53Z</time>
      </trkpt>
      <trkpt lat="44.11384" lon="2.39632">
        <ele>451</ele>
        <time>2021-09-03T08:38:57Z</time>
      </trkpt>
      <trkpt lat="44.1137" lon="2.39629">
        <ele>452</ele>
        <time>2021-09-03T08:39:03Z</time>
      </trkpt>
      <trkpt lat="44.11356" lon="2.39634">
        <ele>453</ele>
        <time>2021-09-03T08:39:09Z</time>
      </trkpt>
      <trkpt lat="44.11339" lon="2.39647">
        <ele>453</ele>
        <time>2021-09-03T08:39:17Z</time>
      </trkpt>
      <trkpt lat="44.11285" lon="2.39722">
        <ele>452</ele>
        <time>2021-09-03T08:39:49Z</time>
      </trkpt>
      <trkpt lat="44.11265" lon="2.39752">
        <ele>449</ele>
        <time>2021-09-03T08:39:59Z</time>
      </trkpt>
      <trkpt lat="44.11254" lon="2.39784">
        <ele>450</ele>
        <time>2021-09-03T08:40:10Z</time>
      </trkpt>
      <trkpt lat="44.11243" lon="2.39831">
        <ele>454</ele>
        <time>2021-09-03T08:40:25Z</time>
      </trkpt>
      <trkpt lat="44.1124" lon="2.39861">
        <ele>454</ele>
        <time>2021-09-03T08:40:33Z</time>
      </trkpt>
      <trkpt lat="44.11241" lon="2.39869">
        <ele>455</ele>
        <time>2021-09-03T08:40:35Z</time>
      </trkpt>
      <trkpt lat="44.11244" lon="2.39883">
        <ele>456</ele>
        <time>2021-09-03T08:40:39Z</time>
      </trkpt>
      <trkpt lat="44.1125" lon="2.39896">
        <ele>458</ele>
        <time>2021-09-03T08:40:43Z</time>
      </trkpt>
      <trkpt lat="44.11254" lon="2.3991">
        <ele>459</ele>
        <time>2021-09-03T08:40:47Z</time>
      </trkpt>
      <trkpt lat="44.11255" lon="2.39917">
        <ele>459</ele>
        <time>2021-09-03T08:40:49Z</time>
      </trkpt>
      <trkpt lat="44.11254" lon="2.39925">
        <ele>460</ele>
        <time>2021-09-03T08:40:51Z</time>
      </trkpt>
      <trkpt lat="44.11252" lon="2.39958">
        <ele>461</ele>
        <time>2021-09-03T08:40:59Z</time>
      </trkpt>
      <trkpt lat="44.11249" lon="2.3998">
        <ele>462</ele>
        <time>2021-09-03T08:41:05Z</time>
      </trkpt>
      <trkpt lat="44.11248" lon="2.40066">
        <ele>461</ele>
        <time>2021-09-03T08:41:28Z</time>
      </trkpt>
      <trkpt lat="44.11254" lon="2.40103">
        <ele>463</ele>
        <time>2021-09-03T08:41:38Z</time>
      </trkpt>
      <trkpt lat="44.11255" lon="2.40112">
        <ele>464</ele>
        <time>2021-09-03T08:41:40Z</time>
      </trkpt>
      <trkpt lat="44.11269" lon="2.40137">
        <ele>465</ele>
        <time>2021-09-03T08:41:48Z</time>
      </trkpt>
      <trkpt lat="44.11271" lon="2.40143">
        <ele>465</ele>
        <time>2021-09-03T08:41:50Z</time>
      </trkpt>
      <trkpt lat="44.11273" lon="2.40151">
        <ele>466</ele>
        <time>2021-09-03T08:41:52Z</time>
      </trkpt>
      <trkpt lat="44.11274" lon="2.4016">
        <ele>467</ele>
        <time>2021-09-03T08:41:54Z</time>
      </trkpt>
      <trkpt lat="44.11271" lon="2.40169">
        <ele>467</ele>
        <time>2021-09-03T08:41:56Z</time>
      </trkpt>
      <trkpt lat="44.11228" lon="2.40209">
        <ele>469</ele>
        <time>2021-09-03T08:42:14Z</time>
      </trkpt>
      <trkpt lat="44.11222" lon="2.40213">
        <ele>469</ele>
        <time>2021-09-03T08:42:16Z</time>
      </trkpt>
      <trkpt lat="44.11216" lon="2.40213">
        <ele>470</ele>
        <time>2021-09-03T08:42:18Z</time>
      </trkpt>
      <trkpt lat="44.11209" lon="2.40209">
        <ele>470</ele>
        <time>2021-09-03T08:42:20Z</time>
      </trkpt>
      <trkpt lat="44.11203" lon="2.40203">
        <ele>472</ele>
        <time>2021-09-03T08:42:22Z</time>
      </trkpt>
      <trkpt lat="44.11199" lon="2.40188">
        <ele>474</ele>
        <time>2021-09-03T08:42:26Z</time>
      </trkpt>
      <trkpt lat="44.11187" lon="2.40162">
        <ele>475</ele>
        <time>2021-09-03T08:42:34Z</time>
      </trkpt>
      <trkpt lat="44.11138" lon="2.40105">
        <ele>476</ele>
        <time>2021-09-03T08:42:56Z</time>
      </trkpt>
      <trkpt lat="44.11121" lon="2.40101">
        <ele>477</ele>
        <time>2021-09-03T08:43:02Z</time>
      </trkpt>
      <trkpt lat="44.11111" lon="2.40108">
        <ele>478</ele>
        <time>2021-09-03T08:43:06Z</time>
      </trkpt>
      <trkpt lat="44.11103" lon="2.40119">
        <ele>479</ele>
        <time>2021-09-03T08:43:10Z</time>
      </trkpt>
      <trkpt lat="44.11096" lon="2.40141">
        <ele>481</ele>
        <time>2021-09-03T08:43:16Z</time>
      </trkpt>
      <trkpt lat="44.11096" lon="2.40148">
        <ele>482</ele>
        <time>2021-09-03T08:43:19Z</time>
      </trkpt>
      <trkpt lat="44.11096" lon="2.40157">
        <ele>482</ele>
        <time>2021-09-03T08:43:59Z</time>
      </trkpt>
      <trkpt lat="44.11095" lon="2.40167">
        <ele>482</ele>
        <time>2021-09-03T08:44:02Z</time>
      </trkpt>
      <trkpt lat="44.11093" lon="2.40175">
        <ele>483</ele>
        <time>2021-09-03T08:44:04Z</time>
      </trkpt>
      <trkpt lat="44.11075" lon="2.4031">
        <ele>487</ele>
        <time>2021-09-03T08:44:34Z</time>
      </trkpt>
      <trkpt lat="44.11059" lon="2.40413">
        <ele>491</ele>
        <time>2021-09-03T08:44:56Z</time>
      </trkpt>
      <trkpt lat="44.11052" lon="2.40429">
        <ele>491</ele>
        <time>2021-09-03T08:45:00Z</time>
      </trkpt>
      <trkpt lat="44.11047" lon="2.40436">
        <ele>491</ele>
        <time>2021-09-03T08:45:02Z</time>
      </trkpt>
      <trkpt lat="44.11031" lon="2.4045">
        <ele>492</ele>
        <time>2021-09-03T08:45:07Z</time>
      </trkpt>
      <trkpt lat="44.11008" lon="2.4046">
        <ele>493</ele>
        <time>2021-09-03T08:45:15Z</time>
      </trkpt>
      <trkpt lat="44.11003" lon="2.4046">
        <ele>495</ele>
        <time>2021-09-03T08:45:59Z</time>
      </trkpt>
      <trkpt lat="44.10983" lon="2.40462">
        <ele>494</ele>
        <time>2021-09-03T08:46:08Z</time>
      </trkpt>
      <trkpt lat="44.10892" lon="2.40505">
        <ele>495</ele>
        <time>2021-09-03T08:46:36Z</time>
      </trkpt>
      <trkpt lat="44.10791" lon="2.40529">
        <ele>496</ele>
        <time>2021-09-03T08:47:04Z</time>
      </trkpt>
      <trkpt lat="44.10675" lon="2.40587">
        <ele>495</ele>
        <time>2021-09-03T08:47:34Z</time>
      </trkpt>
      <trkpt lat="44.10637" lon="2.40601">
        <ele>493</ele>
        <time>2021-09-03T08:47:42Z</time>
      </trkpt>
      <trkpt lat="44.106" lon="2.40619">
        <ele>493</ele>
        <time>2021-09-03T08:47:49Z</time>
      </trkpt>
      <trkpt lat="44.10575" lon="2.40624">
        <ele>491</ele>
        <time>2021-09-03T08:47:53Z</time>
      </trkpt>
      <trkpt lat="44.10499" lon="2.40611">
        <ele>487</ele>
        <time>2021-09-03T08:48:04Z</time>
      </trkpt>
      <trkpt lat="44.10453" lon="2.40587">
        <ele>486</ele>
        <time>2021-09-03T08:48:12Z</time>
      </trkpt>
      <trkpt lat="44.1034" lon="2.40499">
        <ele>485</ele>
        <time>2021-09-03T08:48:41Z</time>
      </trkpt>
      <trkpt lat="44.10288" lon="2.40449">
        <ele>483</ele>
        <time>2021-09-03T08:48:55Z</time>
      </trkpt>
      <trkpt lat="44.10273" lon="2.4044">
        <ele>483</ele>
        <time>2021-09-03T08:48:58Z</time>
      </trkpt>
      <trkpt lat="44.10216" lon="2.40434">
        <ele>482</ele>
        <time>2021-09-03T08:49:08Z</time>
      </trkpt>
      <trkpt lat="44.10049" lon="2.40435">
        <ele>481</ele>
        <time>2021-09-03T08:49:39Z</time>
      </trkpt>
      <trkpt lat="44.09919" lon="2.40456">
        <ele>483</ele>
        <time>2021-09-03T08:50:08Z</time>
      </trkpt>
      <trkpt lat="44.09796" lon="2.40515">
        <ele>485</ele>
        <time>2021-09-03T08:50:36Z</time>
      </trkpt>
      <trkpt lat="44.09672" lon="2.40597">
        <ele>486</ele>
        <time>2021-09-03T08:51:07Z</time>
      </trkpt>
      <trkpt lat="44.09638" lon="2.40625">
        <ele>487</ele>
        <time>2021-09-03T08:51:16Z</time>
      </trkpt>
      <trkpt lat="44.09604" lon="2.40666">
        <ele>485</ele>
        <time>2021-09-03T08:51:26Z</time>
      </trkpt>
      <trkpt lat="44.09596" lon="2.40673">
        <ele>485</ele>
        <time>2021-09-03T08:51:28Z</time>
      </trkpt>
      <trkpt lat="44.09584" lon="2.40678">
        <ele>485</ele>
        <time>2021-09-03T08:51:31Z</time>
      </trkpt>
      <trkpt lat="44.09506" lon="2.4068">
        <ele>488</ele>
        <time>2021-09-03T08:51:49Z</time>
      </trkpt>
      <trkpt lat="44.09478" lon="2.40691">
        <ele>488</ele>
        <time>2021-09-03T08:51:55Z</time>
      </trkpt>
      <trkpt lat="44.0934" lon="2.4078">
        <ele>485</ele>
        <time>2021-09-03T08:52:25Z</time>
      </trkpt>
      <trkpt lat="44.09334" lon="2.40783">
        <ele>486</ele>
        <time>2021-09-03T08:52:27Z</time>
      </trkpt>
      <trkpt lat="44.09319" lon="2.40792">
        <ele>486</ele>
        <time>2021-09-03T08:52:51Z</time>
      </trkpt>
      <trkpt lat="44.09246" lon="2.40938">
        <ele>486</ele>
        <time>2021-09-03T08:53:21Z</time>
      </trkpt>
      <trkpt lat="44.09188" lon="2.41081">
        <ele>489</ele>
        <time>2021-09-03T08:53:51Z</time>
      </trkpt>
      <trkpt lat="44.09105" lon="2.41261">
        <ele>488</ele>
        <time>2021-09-03T08:54:22Z</time>
      </trkpt>
      <trkpt lat="44.09052" lon="2.41389">
        <ele>489</ele>
        <time>2021-09-03T08:54:40Z</time>
      </trkpt>
      <trkpt lat="44.08952" lon="2.41569">
        <ele>488</ele>
        <time>2021-09-03T08:55:10Z</time>
      </trkpt>
      <trkpt lat="44.08864" lon="2.41782">
        <ele>487</ele>
        <time>2021-09-03T08:55:41Z</time>
      </trkpt>
      <trkpt lat="44.08797" lon="2.41995">
        <ele>487</ele>
        <time>2021-09-03T08:56:11Z</time>
      </trkpt>
      <trkpt lat="44.08745" lon="2.42188">
        <ele>488</ele>
        <time>2021-09-03T08:56:43Z</time>
      </trkpt>
      <trkpt lat="44.08678" lon="2.42381">
        <ele>487</ele>
        <time>2021-09-03T08:57:13Z</time>
      </trkpt>
      <trkpt lat="44.08599" lon="2.42575">
        <ele>486</ele>
        <time>2021-09-03T08:57:44Z</time>
      </trkpt>
      <trkpt lat="44.08542" lon="2.42739">
        <ele>485</ele>
        <time>2021-09-03T08:58:08Z</time>
      </trkpt>
      <trkpt lat="44.08524" lon="2.42853">
        <ele>484</ele>
        <time>2021-09-03T08:58:26Z</time>
      </trkpt>
      <trkpt lat="44.08526" lon="2.43053">
        <ele>487</ele>
        <time>2021-09-03T08:58:57Z</time>
      </trkpt>
      <trkpt lat="44.08525" lon="2.43221">
        <ele>489</ele>
        <time>2021-09-03T08:59:27Z</time>
      </trkpt>
      <trkpt lat="44.08503" lon="2.43392">
        <ele>492</ele>
        <time>2021-09-03T08:59:57Z</time>
      </trkpt>
      <trkpt lat="44.08471" lon="2.43613">
        <ele>491</ele>
        <time>2021-09-03T09:00:28Z</time>
      </trkpt>
      <trkpt lat="44.08423" lon="2.43786">
        <ele>493</ele>
        <time>2021-09-03T09:00:54Z</time>
      </trkpt>
      <trkpt lat="44.08345" lon="2.43938">
        <ele>494</ele>
        <time>2021-09-03T09:01:24Z</time>
      </trkpt>
      <trkpt lat="44.08277" lon="2.44059">
        <ele>497</ele>
        <time>2021-09-03T09:01:51Z</time>
      </trkpt>
      <trkpt lat="44.08209" lon="2.44153">
        <ele>498</ele>
        <time>2021-09-03T09:02:12Z</time>
      </trkpt>
      <trkpt lat="44.08185" lon="2.44193">
        <ele>502</ele>
        <time>2021-09-03T09:02:22Z</time>
      </trkpt>
      <trkpt lat="44.08102" lon="2.44297">
        <ele>506</ele>
        <time>2021-09-03T09:02:52Z</time>
      </trkpt>
      <trkpt lat="44.08001" lon="2.44432">
        <ele>505</ele>
        <time>2021-09-03T09:03:22Z</time>
      </trkpt>
      <trkpt lat="44.0787" lon="2.44604">
        <ele>502</ele>
        <time>2021-09-03T09:03:53Z</time>
      </trkpt>
      <trkpt lat="44.07735" lon="2.44756">
        <ele>501</ele>
        <time>2021-09-03T09:04:24Z</time>
      </trkpt>
      <trkpt lat="44.07607" lon="2.44887">
        <ele>499</ele>
        <time>2021-09-03T09:04:55Z</time>
      </trkpt>
      <trkpt lat="44.07563" lon="2.44951">
        <ele>499</ele>
        <time>2021-09-03T09:05:07Z</time>
      </trkpt>
      <trkpt lat="44.07482" lon="2.45129">
        <ele>499</ele>
        <time>2021-09-03T09:05:38Z</time>
      </trkpt>
      <trkpt lat="44.07406" lon="2.45272">
        <ele>502</ele>
        <time>2021-09-03T09:06:08Z</time>
      </trkpt>
      <trkpt lat="44.0732" lon="2.45405">
        <ele>505</ele>
        <time>2021-09-03T09:06:40Z</time>
      </trkpt>
      <trkpt lat="44.07235" lon="2.45527">
        <ele>504</ele>
        <time>2021-09-03T09:07:10Z</time>
      </trkpt>
      <trkpt lat="44.07168" lon="2.45638">
        <ele>508</ele>
        <time>2021-09-03T09:07:40Z</time>
      </trkpt>
      <trkpt lat="44.07093" lon="2.45758">
        <ele>510</ele>
        <time>2021-09-03T09:08:12Z</time>
      </trkpt>
      <trkpt lat="44.0702" lon="2.45849">
        <ele>512</ele>
        <time>2021-09-03T09:08:40Z</time>
      </trkpt>
      <trkpt lat="44.06934" lon="2.4594">
        <ele>516</ele>
        <time>2021-09-03T09:09:12Z</time>
      </trkpt>
      <trkpt lat="44.06855" lon="2.46058">
        <ele>518</ele>
        <time>2021-09-03T09:09:43Z</time>
      </trkpt>
      <trkpt lat="44.06785" lon="2.46184">
        <ele>519</ele>
        <time>2021-09-03T09:10:13Z</time>
      </trkpt>
      <trkpt lat="44.06718" lon="2.46303">
        <ele>522</ele>
        <time>2021-09-03T09:10:43Z</time>
      </trkpt>
      <trkpt lat="44.06638" lon="2.46432">
        <ele>523</ele>
        <time>2021-09-03T09:11:15Z</time>
      </trkpt>
      <trkpt lat="44.06559" lon="2.46552">
        <ele>528</ele>
        <time>2021-09-03T09:11:47Z</time>
      </trkpt>
      <trkpt lat="44.06485" lon="2.46675">
        <ele>530</ele>
        <time>2021-09-03T09:12:17Z</time>
      </trkpt>
      <trkpt lat="44.06406" lon="2.46835">
        <ele>531</ele>
        <time>2021-09-03T09:12:48Z</time>
      </trkpt>
      <trkpt lat="44.06344" lon="2.46995">
        <ele>524</ele>
        <time>2021-09-03T09:13:11Z</time>
      </trkpt>
      <trkpt lat="44.06259" lon="2.4722">
        <ele>523</ele>
        <time>2021-09-03T09:13:40Z</time>
      </trkpt>
      <trkpt lat="44.06154" lon="2.47427">
        <ele>524</ele>
        <time>2021-09-03T09:14:10Z</time>
      </trkpt>
      <trkpt lat="44.06056" lon="2.47615">
        <ele>525</ele>
        <time>2021-09-03T09:14:41Z</time>
      </trkpt>
      <trkpt lat="44.06034" lon="2.47645">
        <ele>526</ele>
        <time>2021-09-03T09:14:47Z</time>
      </trkpt>
      <trkpt lat="44.05995" lon="2.47677">
        <ele>526</ele>
        <time>2021-09-03T09:14:56Z</time>
      </trkpt>
      <trkpt lat="44.05958" lon="2.47694">
        <ele>527</ele>
        <time>2021-09-03T09:15:04Z</time>
      </trkpt>
      <trkpt lat="44.05924" lon="2.47698">
        <ele>527</ele>
        <time>2021-09-03T09:15:11Z</time>
      </trkpt>
      <trkpt lat="44.05801" lon="2.47678">
        <ele>528</ele>
        <time>2021-09-03T09:15:42Z</time>
      </trkpt>
      <trkpt lat="44.05734" lon="2.47682">
        <ele>530</ele>
        <time>2021-09-03T09:16:00Z</time>
      </trkpt>
      <trkpt lat="44.05625" lon="2.47714">
        <ele>533</ele>
        <time>2021-09-03T09:16:30Z</time>
      </trkpt>
      <trkpt lat="44.05585" lon="2.47725">
        <ele>534</ele>
        <time>2021-09-03T09:16:40Z</time>
      </trkpt>
      <trkpt lat="44.05508" lon="2.47726">
        <ele>537</ele>
        <time>2021-09-03T09:17:00Z</time>
      </trkpt>
      <trkpt lat="44.05391" lon="2.47715">
        <ele>540</ele>
        <time>2021-09-03T09:17:30Z</time>
      </trkpt>
      <trkpt lat="44.05255" lon="2.47702">
        <ele>540</ele>
        <time>2021-09-03T09:18:01Z</time>
      </trkpt>
      <trkpt lat="44.0518" lon="2.47706">
        <ele>540</ele>
        <time>2021-09-03T09:18:17Z</time>
      </trkpt>
      <trkpt lat="44.05136" lon="2.47726">
        <ele>541</ele>
        <time>2021-09-03T09:18:27Z</time>
      </trkpt>
      <trkpt lat="44.05098" lon="2.47756">
        <ele>541</ele>
        <time>2021-09-03T09:18:36Z</time>
      </trkpt>
      <trkpt lat="44.0505" lon="2.47814">
        <ele>540</ele>
        <time>2021-09-03T09:18:50Z</time>
      </trkpt>
      <trkpt lat="44.05039" lon="2.47832">
        <ele>540</ele>
        <time>2021-09-03T09:18:54Z</time>
      </trkpt>
      <trkpt lat="44.0502" lon="2.47854">
        <ele>541</ele>
        <time>2021-09-03T09:19:02Z</time>
      </trkpt>
      <trkpt lat="44.05016" lon="2.47858">
        <ele>541</ele>
        <time>2021-09-03T09:19:05Z</time>
      </trkpt>
      <trkpt lat="44.05019" lon="2.47866">
        <ele>542</ele>
        <time>2021-09-03T09:20:19Z</time>
      </trkpt>
      <trkpt lat="44.05021" lon="2.47874">
        <ele>541</ele>
        <time>2021-09-03T09:20:21Z</time>
      </trkpt>
      <trkpt lat="44.05019" lon="2.47883">
        <ele>542</ele>
        <time>2021-09-03T09:20:23Z</time>
      </trkpt>
      <trkpt lat="44.04993" lon="2.47958">
        <ele>542</ele>
        <time>2021-09-03T09:20:39Z</time>
      </trkpt>
      <trkpt lat="44.04937" lon="2.48126">
        <ele>542</ele>
        <time>2021-09-03T09:21:10Z</time>
      </trkpt>
      <trkpt lat="44.04894" lon="2.4825">
        <ele>541</ele>
        <time>2021-09-03T09:21:31Z</time>
      </trkpt>
      <trkpt lat="44.04867" lon="2.48293">
        <ele>541</ele>
        <time>2021-09-03T09:21:38Z</time>
      </trkpt>
      <trkpt lat="44.04836" lon="2.48326">
        <ele>540</ele>
        <time>2021-09-03T09:21:44Z</time>
      </trkpt>
      <trkpt lat="44.04701" lon="2.48419">
        <ele>533</ele>
        <time>2021-09-03T09:22:06Z</time>
      </trkpt>
      <trkpt lat="44.0467" lon="2.48468">
        <ele>531</ele>
        <time>2021-09-03T09:22:12Z</time>
      </trkpt>
      <trkpt lat="44.04614" lon="2.48628">
        <ele>527</ele>
        <time>2021-09-03T09:22:28Z</time>
      </trkpt>
      <trkpt lat="44.0459" lon="2.4866">
        <ele>527</ele>
        <time>2021-09-03T09:22:32Z</time>
      </trkpt>
      <trkpt lat="44.04564" lon="2.48682">
        <ele>525</ele>
        <time>2021-09-03T09:22:36Z</time>
      </trkpt>
      <trkpt lat="44.04515" lon="2.48703">
        <ele>523</ele>
        <time>2021-09-03T09:22:44Z</time>
      </trkpt>
      <trkpt lat="44.0451" lon="2.48704">
        <ele>522</ele>
        <time>2021-09-03T09:22:45Z</time>
      </trkpt>
      <trkpt lat="44.04502" lon="2.48701">
        <ele>522</ele>
        <time>2021-09-03T09:22:47Z</time>
      </trkpt>
      <trkpt lat="44.04498" lon="2.48699">
        <ele>522</ele>
        <time>2021-09-03T09:22:49Z</time>
      </trkpt>
      <trkpt lat="44.04492" lon="2.48704">
        <ele>522</ele>
        <time>2021-09-03T09:22:52Z</time>
      </trkpt>
      <trkpt lat="44.04449" lon="2.48941">
        <ele>509</ele>
        <time>2021-09-03T09:23:23Z</time>
      </trkpt>
      <trkpt lat="44.04409" lon="2.4918">
        <ele>510</ele>
        <time>2021-09-03T09:23:54Z</time>
      </trkpt>
      <trkpt lat="44.04404" lon="2.49235">
        <ele>511</ele>
        <time>2021-09-03T09:24:02Z</time>
      </trkpt>
      <trkpt lat="44.04408" lon="2.49278">
        <ele>510</ele>
        <time>2021-09-03T09:24:08Z</time>
      </trkpt>
      <trkpt lat="44.04442" lon="2.49475">
        <ele>509</ele>
        <time>2021-09-03T09:24:39Z</time>
      </trkpt>
      <trkpt lat="44.04477" lon="2.49681">
        <ele>509</ele>
        <time>2021-09-03T09:25:10Z</time>
      </trkpt>
      <trkpt lat="44.0448" lon="2.49723">
        <ele>510</ele>
        <time>2021-09-03T09:25:16Z</time>
      </trkpt>
      <trkpt lat="44.04474" lon="2.49784">
        <ele>510</ele>
        <time>2021-09-03T09:25:25Z</time>
      </trkpt>
      <trkpt lat="44.04461" lon="2.49828">
        <ele>512</ele>
        <time>2021-09-03T09:25:32Z</time>
      </trkpt>
      <trkpt lat="44.04379" lon="2.4999">
        <ele>518</ele>
        <time>2021-09-03T09:26:03Z</time>
      </trkpt>
      <trkpt lat="44.04299" lon="2.50138">
        <ele>517</ele>
        <time>2021-09-03T09:26:34Z</time>
      </trkpt>
      <trkpt lat="44.04225" lon="2.50282">
        <ele>519</ele>
        <time>2021-09-03T09:27:06Z</time>
      </trkpt>
      <trkpt lat="44.04176" lon="2.50416">
        <ele>519</ele>
        <time>2021-09-03T09:27:34Z</time>
      </trkpt>
      <trkpt lat="44.04137" lon="2.50573">
        <ele>521</ele>
        <time>2021-09-03T09:28:06Z</time>
      </trkpt>
      <trkpt lat="44.04114" lon="2.50715">
        <ele>522</ele>
        <time>2021-09-03T09:28:36Z</time>
      </trkpt>
      <trkpt lat="44.04086" lon="2.50884">
        <ele>524</ele>
        <time>2021-09-03T09:29:08Z</time>
      </trkpt>
      <trkpt lat="44.04059" lon="2.51043">
        <ele>526</ele>
        <time>2021-09-03T09:29:38Z</time>
      </trkpt>
      <trkpt lat="44.04026" lon="2.51189">
        <ele>530</ele>
        <time>2021-09-03T09:30:08Z</time>
      </trkpt>
      <trkpt lat="44.03985" lon="2.51325">
        <ele>532</ele>
        <time>2021-09-03T09:30:38Z</time>
      </trkpt>
      <trkpt lat="44.03935" lon="2.51466">
        <ele>536</ele>
        <time>2021-09-03T09:31:08Z</time>
      </trkpt>
      <trkpt lat="44.03881" lon="2.5161">
        <ele>538</ele>
        <time>2021-09-03T09:31:40Z</time>
      </trkpt>
      <trkpt lat="44.03826" lon="2.51762">
        <ele>541</ele>
        <time>2021-09-03T09:32:12Z</time>
      </trkpt>
      <trkpt lat="44.03766" lon="2.51923">
        <ele>543</ele>
        <time>2021-09-03T09:32:44Z</time>
      </trkpt>
      <trkpt lat="44.03712" lon="2.52086">
        <ele>545</ele>
        <time>2021-09-03T09:33:15Z</time>
      </trkpt>
      <trkpt lat="44.0367" lon="2.52251">
        <ele>545</ele>
        <time>2021-09-03T09:33:45Z</time>
      </trkpt>
      <trkpt lat="44.03632" lon="2.52424">
        <ele>547</ele>
        <time>2021-09-03T09:34:17Z</time>
      </trkpt>
      <trkpt lat="44.03593" lon="2.52605">
        <ele>548</ele>
        <time>2021-09-03T09:34:48Z</time>
      </trkpt>
      <trkpt lat="44.03551" lon="2.5279">
        <ele>549</ele>
        <time>2021-09-03T09:35:19Z</time>
      </trkpt>
      <trkpt lat="44.03519" lon="2.52888">
        <ele>551</ele>
        <time>2021-09-03T09:35:36Z</time>
      </trkpt>
      <trkpt lat="44.03451" lon="2.53048">
        <ele>554</ele>
        <time>2021-09-03T09:36:08Z</time>
      </trkpt>
      <trkpt lat="44.03387" lon="2.53177">
        <ele>554</ele>
        <time>2021-09-03T09:36:38Z</time>
      </trkpt>
      <trkpt lat="44.03373" lon="2.53186">
        <ele>552</ele>
        <time>2021-09-03T09:36:42Z</time>
      </trkpt>
      <trkpt lat="44.03367" lon="2.53193">
        <ele>552</ele>
        <time>2021-09-03T09:36:44Z</time>
      </trkpt>
      <trkpt lat="44.03361" lon="2.53213">
        <ele>551</ele>
        <time>2021-09-03T09:36:48Z</time>
      </trkpt>
      <trkpt lat="44.03298" lon="2.53334">
        <ele>542</ele>
        <time>2021-09-03T09:37:18Z</time>
      </trkpt>
      <trkpt lat="44.03294" lon="2.53343">
        <ele>542</ele>
        <time>2021-09-03T09:37:20Z</time>
      </trkpt>
      <trkpt lat="44.0329" lon="2.5335">
        <ele>541</ele>
        <time>2021-09-03T09:37:22Z</time>
      </trkpt>
      <trkpt lat="44.03266" lon="2.53393">
        <ele>546</ele>
        <time>2021-09-03T09:37:34Z</time>
      </trkpt>
      <trkpt lat="44.0326" lon="2.53407">
        <ele>546</ele>
        <time>2021-09-03T09:37:38Z</time>
      </trkpt>
      <trkpt lat="44.03254" lon="2.53423">
        <ele>547</ele>
        <time>2021-09-03T09:37:42Z</time>
      </trkpt>
      <trkpt lat="44.03252" lon="2.53432">
        <ele>548</ele>
        <time>2021-09-03T09:37:44Z</time>
      </trkpt>
      <trkpt lat="44.0324" lon="2.53458">
        <ele>553</ele>
        <time>2021-09-03T09:37:52Z</time>
      </trkpt>
      <trkpt lat="44.03227" lon="2.53478">
        <ele>555</ele>
        <time>2021-09-03T09:38:06Z</time>
      </trkpt>
      <trkpt lat="44.03224" lon="2.53483">
        <ele>557</ele>
        <time>2021-09-03T09:38:09Z</time>
      </trkpt>
      <trkpt lat="44.03221" lon="2.53489">
        <ele>558</ele>
        <time>2021-09-03T09:38:15Z</time>
      </trkpt>
      <trkpt lat="44.0322" lon="2.53496">
        <ele>556</ele>
        <time>2021-09-03T09:38:18Z</time>
      </trkpt>
      <trkpt lat="44.03218" lon="2.53504">
        <ele>556</ele>
        <time>2021-09-03T09:38:21Z</time>
      </trkpt>
      <trkpt lat="44.03216" lon="2.53512">
        <ele>556</ele>
        <time>2021-09-03T09:38:24Z</time>
      </trkpt>
      <trkpt lat="44.03209" lon="2.53536">
        <ele>556</ele>
        <time>2021-09-03T09:38:32Z</time>
      </trkpt>
      <trkpt lat="44.03201" lon="2.53572">
        <ele>555</ele>
        <time>2021-09-03T09:38:42Z</time>
      </trkpt>
      <trkpt lat="44.03199" lon="2.5358">
        <ele>553</ele>
        <time>2021-09-03T09:38:45Z</time>
      </trkpt>
      <trkpt lat="44.03195" lon="2.53586">
        <ele>551</ele>
        <time>2021-09-03T09:38:48Z</time>
      </trkpt>
      <trkpt lat="44.03193" lon="2.53594">
        <ele>552</ele>
        <time>2021-09-03T09:38:51Z</time>
      </trkpt>
      <trkpt lat="44.03184" lon="2.53615">
        <ele>555</ele>
        <time>2021-09-03T09:39:01Z</time>
      </trkpt>
      <trkpt lat="44.03181" lon="2.53621">
        <ele>555</ele>
        <time>2021-09-03T09:39:04Z</time>
      </trkpt>
      <trkpt lat="44.03177" lon="2.53634">
        <ele>556</ele>
        <time>2021-09-03T09:39:10Z</time>
      </trkpt>
      <trkpt lat="44.03176" lon="2.53641">
        <ele>556</ele>
        <time>2021-09-03T09:39:23Z</time>
      </trkpt>
      <trkpt lat="44.03175" lon="2.53647">
        <ele>557</ele>
        <time>2021-09-03T09:39:29Z</time>
      </trkpt>
      <trkpt lat="44.03177" lon="2.53645">
        <ele>559</ele>
        <time>2021-09-03T09:43:18Z</time>
      </trkpt>
      <trkpt lat="44.03185" lon="2.53608">
        <ele>558</ele>
        <time>2021-09-03T09:43:28Z</time>
      </trkpt>
      <trkpt lat="44.03184" lon="2.53599">
        <ele>559</ele>
        <time>2021-09-03T09:43:31Z</time>
      </trkpt>
      <trkpt lat="44.03187" lon="2.53601">
        <ele>568</ele>
        <time>2021-09-03T09:56:52Z</time>
      </trkpt>
      <trkpt lat="44.03191" lon="2.53597">
        <ele>568</ele>
        <time>2021-09-03T09:56:58Z</time>
      </trkpt>
      <trkpt lat="44.03194" lon="2.53591">
        <ele>568</ele>
        <time>2021-09-03T09:57:02Z</time>
      </trkpt>
      <trkpt lat="44.03196" lon="2.53585">
        <ele>566</ele>
        <time>2021-09-03T09:57:06Z</time>
      </trkpt>
      <trkpt lat="44.03201" lon="2.53572">
        <ele>564</ele>
        <time>2021-09-03T09:57:11Z</time>
      </trkpt>
      <trkpt lat="44.03203" lon="2.53565">
        <ele>564</ele>
        <time>2021-09-03T09:57:16Z</time>
      </trkpt>
      <trkpt lat="44.03207" lon="2.53546">
        <ele>561</ele>
        <time>2021-09-03T09:57:24Z</time>
      </trkpt>
      <trkpt lat="44.03209" lon="2.53533">
        <ele>558</ele>
        <time>2021-09-03T09:57:28Z</time>
      </trkpt>
      <trkpt lat="44.03214" lon="2.5352">
        <ele>556</ele>
        <time>2021-09-03T09:57:33Z</time>
      </trkpt>
      <trkpt lat="44.03217" lon="2.53515">
        <ele>555</ele>
        <time>2021-09-03T09:57:35Z</time>
      </trkpt>
      <trkpt lat="44.0322" lon="2.53508">
        <ele>554</ele>
        <time>2021-09-03T09:57:37Z</time>
      </trkpt>
      <trkpt lat="44.03222" lon="2.53493">
        <ele>551</ele>
        <time>2021-09-03T09:57:42Z</time>
      </trkpt>
      <trkpt lat="44.03225" lon="2.53486">
        <ele>552</ele>
        <time>2021-09-03T09:57:45Z</time>
      </trkpt>
      <trkpt lat="44.03228" lon="2.53482">
        <ele>555</ele>
        <time>2021-09-03T09:57:49Z</time>
      </trkpt>
      <trkpt lat="44.03233" lon="2.5348">
        <ele>557</ele>
        <time>2021-09-03T09:58:34Z</time>
      </trkpt>
      <trkpt lat="44.03236" lon="2.53472">
        <ele>558</ele>
        <time>2021-09-03T09:58:44Z</time>
      </trkpt>
      <trkpt lat="44.03232" lon="2.53467">
        <ele>558</ele>
        <time>2021-09-03T09:58:53Z</time>
      </trkpt>
      <trkpt lat="44.03228" lon="2.53467">
        <ele>556</ele>
        <time>2021-09-03T09:58:58Z</time>
      </trkpt>
      <trkpt lat="44.0323" lon="2.53461">
        <ele>555</ele>
        <time>2021-09-03T10:00:09Z</time>
      </trkpt>
      <trkpt lat="44.03229" lon="2.53475">
        <ele>554</ele>
        <time>2021-09-03T10:02:06Z</time>
      </trkpt>
      <trkpt lat="44.03231" lon="2.53482">
        <ele>557</ele>
        <time>2021-09-03T10:04:58Z</time>
      </trkpt>
      <trkpt lat="44.03235" lon="2.53478">
        <ele>557</ele>
        <time>2021-09-03T10:06:16Z</time>
      </trkpt>
      <trkpt lat="44.03239" lon="2.53474">
        <ele>554</ele>
        <time>2021-09-03T10:06:20Z</time>
      </trkpt>
      <trkpt lat="44.03236" lon="2.53467">
        <ele>552</ele>
        <time>2021-09-03T10:06:31Z</time>
      </trkpt>
      <trkpt lat="44.0323" lon="2.53467">
        <ele>555</ele>
        <time>2021-09-03T10:08:45Z</time>
      </trkpt>
      <trkpt lat="44.03225" lon="2.53467">
        <ele>555</ele>
        <time>2021-09-03T10:08:51Z</time>
      </trkpt>
      <trkpt lat="44.03226" lon="2.53474">
        <ele>555</ele>
        <time>2021-09-03T10:08:53Z</time>
      </trkpt>
      <trkpt lat="44.03226" lon="2.53483">
        <ele>554</ele>
        <time>2021-09-03T10:08:55Z</time>
      </trkpt>
      <trkpt lat="44.03219" lon="2.53505">
        <ele>553</ele>
        <time>2021-09-03T10:09:02Z</time>
      </trkpt>
      <trkpt lat="44.03215" lon="2.53512">
        <ele>553</ele>
        <time>2021-09-03T10:09:04Z</time>
      </trkpt>
      <trkpt lat="44.03199" lon="2.53568">
        <ele>554</ele>
        <time>2021-09-03T10:09:18Z</time>
      </trkpt>
      <trkpt lat="44.03196" lon="2.53574">
        <ele>554</ele>
        <time>2021-09-03T10:09:20Z</time>
      </trkpt>
      <trkpt lat="44.03193" lon="2.53579">
        <ele>556</ele>
        <time>2021-09-03T10:09:22Z</time>
      </trkpt>
      <trkpt lat="44.03187" lon="2.53595">
        <ele>559</ele>
        <time>2021-09-03T10:09:27Z</time>
      </trkpt>
      <trkpt lat="44.03184" lon="2.53601">
        <ele>560</ele>
        <time>2021-09-03T10:09:29Z</time>
      </trkpt>
      <trkpt lat="44.03182" lon="2.53615">
        <ele>563</ele>
        <time>2021-09-03T10:09:33Z</time>
      </trkpt>
      <trkpt lat="44.0318" lon="2.53621">
        <ele>565</ele>
        <time>2021-09-03T10:09:35Z</time>
      </trkpt>
      <trkpt lat="44.03175" lon="2.53645">
        <ele>565</ele>
        <time>2021-09-03T10:09:44Z</time>
      </trkpt>
      <trkpt lat="44.03169" lon="2.5365">
        <ele>565</ele>
        <time>2021-09-03T10:09:48Z</time>
      </trkpt>
      <trkpt lat="44.03139" lon="2.53621">
        <ele>563</ele>
        <time>2021-09-03T10:10:00Z</time>
      </trkpt>
      <trkpt lat="44.0313" lon="2.53612">
        <ele>559</ele>
        <time>2021-09-03T10:10:06Z</time>
      </trkpt>
      <trkpt lat="44.03125" lon="2.53609">
        <ele>557</ele>
        <time>2021-09-03T10:10:09Z</time>
      </trkpt>
      <trkpt lat="44.0312" lon="2.53609">
        <ele>557</ele>
        <time>2021-09-03T10:10:12Z</time>
      </trkpt>
      <trkpt lat="44.03085" lon="2.53586">
        <ele>554</ele>
        <time>2021-09-03T10:10:26Z</time>
      </trkpt>
      <trkpt lat="44.03081" lon="2.5358">
        <ele>554</ele>
        <time>2021-09-03T10:10:28Z</time>
      </trkpt>
      <trkpt lat="44.03075" lon="2.53577">
        <ele>554</ele>
        <time>2021-09-03T10:10:30Z</time>
      </trkpt>
      <trkpt lat="44.03069" lon="2.53572">
        <ele>555</ele>
        <time>2021-09-03T10:10:33Z</time>
      </trkpt>
      <trkpt lat="44.03065" lon="2.53569">
        <ele>555</ele>
        <time>2021-09-03T10:10:35Z</time>
      </trkpt>
      <trkpt lat="44.0306" lon="2.5357">
        <ele>554</ele>
        <time>2021-09-03T10:10:39Z</time>
      </trkpt>
      <trkpt lat="44.0306" lon="2.53566">
        <ele>556</ele>
        <time>2021-09-03T10:16:36Z</time>
      </trkpt>
      <trkpt lat="44.03057" lon="2.53566">
        <ele>567</ele>
        <time>2021-09-03T10:20:24Z</time>
      </trkpt>
      <trkpt lat="44.03057" lon="2.53574">
        <ele>566</ele>
        <time>2021-09-03T10:21:14Z</time>
      </trkpt>
      <trkpt lat="44.03057" lon="2.53568">
        <ele>574</ele>
        <time>2021-09-03T10:22:47Z</time>
      </trkpt>
      <trkpt lat="44.03054" lon="2.53562">
        <ele>574</ele>
        <time>2021-09-03T10:22:50Z</time>
      </trkpt>
      <trkpt lat="44.03048" lon="2.53557">
        <ele>574</ele>
        <time>2021-09-03T10:22:52Z</time>
      </trkpt>
      <trkpt lat="44.03007" lon="2.53516">
        <ele>562</ele>
        <time>2021-09-03T10:23:14Z</time>
      </trkpt>
      <trkpt lat="44.02998" lon="2.53511">
        <ele>564</ele>
        <time>2021-09-03T10:23:22Z</time>
      </trkpt>
      <trkpt lat="44.02995" lon="2.53504">
        <ele>566</ele>
        <time>2021-09-03T10:23:26Z</time>
      </trkpt>
      <trkpt lat="44.02991" lon="2.53504">
        <ele>567</ele>
        <time>2021-09-03T10:23:52Z</time>
      </trkpt>
      <trkpt lat="44.02986" lon="2.535">
        <ele>567</ele>
        <time>2021-09-03T10:23:56Z</time>
      </trkpt>
      <trkpt lat="44.02983" lon="2.53495">
        <ele>568</ele>
        <time>2021-09-03T10:24:50Z</time>
      </trkpt>
      <trkpt lat="44.02979" lon="2.53492">
        <ele>569</ele>
        <time>2021-09-03T10:24:55Z</time>
      </trkpt>
      <trkpt lat="44.02974" lon="2.5349">
        <ele>569</ele>
        <time>2021-09-03T10:24:59Z</time>
      </trkpt>
      <trkpt lat="44.02974" lon="2.53483">
        <ele>569</ele>
        <time>2021-09-03T10:25:04Z</time>
      </trkpt>
      <trkpt lat="44.0297" lon="2.53479">
        <ele>569</ele>
        <time>2021-09-03T10:25:06Z</time>
      </trkpt>
      <trkpt lat="44.02894" lon="2.53453">
        <ele>570</ele>
        <time>2021-09-03T10:25:34Z</time>
      </trkpt>
      <trkpt lat="44.02888" lon="2.53454">
        <ele>570</ele>
        <time>2021-09-03T10:25:36Z</time>
      </trkpt>
      <trkpt lat="44.02877" lon="2.5346">
        <ele>569</ele>
        <time>2021-09-03T10:25:40Z</time>
      </trkpt>
      <trkpt lat="44.0275" lon="2.53573">
        <ele>559</ele>
        <time>2021-09-03T10:26:10Z</time>
      </trkpt>
      <trkpt lat="44.0273" lon="2.53594">
        <ele>556</ele>
        <time>2021-09-03T10:26:14Z</time>
      </trkpt>
      <trkpt lat="44.02719" lon="2.53601">
        <ele>555</ele>
        <time>2021-09-03T10:26:16Z</time>
      </trkpt>
      <trkpt lat="44.02672" lon="2.53618">
        <ele>550</ele>
        <time>2021-09-03T10:26:23Z</time>
      </trkpt>
      <trkpt lat="44.02648" lon="2.53638">
        <ele>548</ele>
        <time>2021-09-03T10:26:27Z</time>
      </trkpt>
      <trkpt lat="44.02562" lon="2.53724">
        <ele>539</ele>
        <time>2021-09-03T10:26:41Z</time>
      </trkpt>
      <trkpt lat="44.02535" lon="2.53739">
        <ele>536</ele>
        <time>2021-09-03T10:26:45Z</time>
      </trkpt>
      <trkpt lat="44.02505" lon="2.53746">
        <ele>533</ele>
        <time>2021-09-03T10:26:49Z</time>
      </trkpt>
      <trkpt lat="44.02492" lon="2.53754">
        <ele>532</ele>
        <time>2021-09-03T10:26:51Z</time>
      </trkpt>
      <trkpt lat="44.02477" lon="2.53772">
        <ele>529</ele>
        <time>2021-09-03T10:26:54Z</time>
      </trkpt>
      <trkpt lat="44.02474" lon="2.53782">
        <ele>529</ele>
        <time>2021-09-03T10:26:56Z</time>
      </trkpt>
      <trkpt lat="44.02455" lon="2.53825">
        <ele>523</ele>
        <time>2021-09-03T10:27:04Z</time>
      </trkpt>
      <trkpt lat="44.02431" lon="2.53857">
        <ele>519</ele>
        <time>2021-09-03T10:27:09Z</time>
      </trkpt>
      <trkpt lat="44.02332" lon="2.53973">
        <ele>506</ele>
        <time>2021-09-03T10:27:26Z</time>
      </trkpt>
      <trkpt lat="44.02234" lon="2.54121">
        <ele>490</ele>
        <time>2021-09-03T10:27:44Z</time>
      </trkpt>
      <trkpt lat="44.02222" lon="2.54132">
        <ele>488</ele>
        <time>2021-09-03T10:27:46Z</time>
      </trkpt>
      <trkpt lat="44.02209" lon="2.54139">
        <ele>486</ele>
        <time>2021-09-03T10:27:48Z</time>
      </trkpt>
      <trkpt lat="44.02172" lon="2.5414">
        <ele>483</ele>
        <time>2021-09-03T10:27:53Z</time>
      </trkpt>
      <trkpt lat="44.02156" lon="2.54147">
        <ele>482</ele>
        <time>2021-09-03T10:27:55Z</time>
      </trkpt>
      <trkpt lat="44.02141" lon="2.54161">
        <ele>481</ele>
        <time>2021-09-03T10:27:57Z</time>
      </trkpt>
      <trkpt lat="44.02113" lon="2.54207">
        <ele>477</ele>
        <time>2021-09-03T10:28:02Z</time>
      </trkpt>
      <trkpt lat="44.02099" lon="2.54222">
        <ele>474</ele>
        <time>2021-09-03T10:28:04Z</time>
      </trkpt>
      <trkpt lat="44.02083" lon="2.5423">
        <ele>472</ele>
        <time>2021-09-03T10:28:06Z</time>
      </trkpt>
      <trkpt lat="44.02057" lon="2.54235">
        <ele>469</ele>
        <time>2021-09-03T10:28:09Z</time>
      </trkpt>
      <trkpt lat="44.02049" lon="2.54238">
        <ele>468</ele>
        <time>2021-09-03T10:28:10Z</time>
      </trkpt>
      <trkpt lat="44.02035" lon="2.5425">
        <ele>465</ele>
        <time>2021-09-03T10:28:12Z</time>
      </trkpt>
      <trkpt lat="44.0203" lon="2.5426">
        <ele>464</ele>
        <time>2021-09-03T10:28:13Z</time>
      </trkpt>
      <trkpt lat="44.02028" lon="2.54271">
        <ele>462</ele>
        <time>2021-09-03T10:28:14Z</time>
      </trkpt>
      <trkpt lat="44.0203" lon="2.54294">
        <ele>460</ele>
        <time>2021-09-03T10:28:16Z</time>
      </trkpt>
      <trkpt lat="44.02055" lon="2.54353">
        <ele>455</ele>
        <time>2021-09-03T10:28:23Z</time>
      </trkpt>
      <trkpt lat="44.02064" lon="2.54366">
        <ele>454</ele>
        <time>2021-09-03T10:28:25Z</time>
      </trkpt>
      <trkpt lat="44.02077" lon="2.54398">
        <ele>451</ele>
        <time>2021-09-03T10:28:30Z</time>
      </trkpt>
      <trkpt lat="44.02092" lon="2.54427">
        <ele>450</ele>
        <time>2021-09-03T10:28:34Z</time>
      </trkpt>
      <trkpt lat="44.02107" lon="2.54463">
        <ele>446</ele>
        <time>2021-09-03T10:28:38Z</time>
      </trkpt>
      <trkpt lat="44.02113" lon="2.54497">
        <ele>443</ele>
        <time>2021-09-03T10:28:41Z</time>
      </trkpt>
      <trkpt lat="44.02113" lon="2.54519">
        <ele>442</ele>
        <time>2021-09-03T10:28:43Z</time>
      </trkpt>
      <trkpt lat="44.02105" lon="2.54551">
        <ele>439</ele>
        <time>2021-09-03T10:28:46Z</time>
      </trkpt>
      <trkpt lat="44.01998" lon="2.54813">
        <ele>423</ele>
        <time>2021-09-03T10:29:14Z</time>
      </trkpt>
      <trkpt lat="44.01982" lon="2.54836">
        <ele>423</ele>
        <time>2021-09-03T10:29:17Z</time>
      </trkpt>
      <trkpt lat="44.01937" lon="2.54893">
        <ele>419</ele>
        <time>2021-09-03T10:29:25Z</time>
      </trkpt>
      <trkpt lat="44.01906" lon="2.54954">
        <ele>416</ele>
        <time>2021-09-03T10:29:32Z</time>
      </trkpt>
      <trkpt lat="44.01887" lon="2.55001">
        <ele>415</ele>
        <time>2021-09-03T10:29:37Z</time>
      </trkpt>
      <trkpt lat="44.01871" lon="2.55024">
        <ele>415</ele>
        <time>2021-09-03T10:29:40Z</time>
      </trkpt>
      <trkpt lat="44.01813" lon="2.5507">
        <ele>411</ele>
        <time>2021-09-03T10:29:48Z</time>
      </trkpt>
      <trkpt lat="44.01776" lon="2.55132">
        <ele>408</ele>
        <time>2021-09-03T10:29:55Z</time>
      </trkpt>
      <trkpt lat="44.01742" lon="2.55214">
        <ele>403</ele>
        <time>2021-09-03T10:30:03Z</time>
      </trkpt>
      <trkpt lat="44.01695" lon="2.55273">
        <ele>400</ele>
        <time>2021-09-03T10:30:10Z</time>
      </trkpt>
      <trkpt lat="44.01687" lon="2.55294">
        <ele>400</ele>
        <time>2021-09-03T10:30:12Z</time>
      </trkpt>
      <trkpt lat="44.01682" lon="2.55331">
        <ele>398</ele>
        <time>2021-09-03T10:30:15Z</time>
      </trkpt>
      <trkpt lat="44.01688" lon="2.55425">
        <ele>392</ele>
        <time>2021-09-03T10:30:23Z</time>
      </trkpt>
      <trkpt lat="44.01684" lon="2.55446">
        <ele>389</ele>
        <time>2021-09-03T10:30:25Z</time>
      </trkpt>
      <trkpt lat="44.01595" lon="2.556">
        <ele>379</ele>
        <time>2021-09-03T10:30:42Z</time>
      </trkpt>
      <trkpt lat="44.01583" lon="2.55629">
        <ele>377</ele>
        <time>2021-09-03T10:30:45Z</time>
      </trkpt>
      <trkpt lat="44.01567" lon="2.55655">
        <ele>375</ele>
        <time>2021-09-03T10:30:48Z</time>
      </trkpt>
      <trkpt lat="44.01506" lon="2.55724">
        <ele>372</ele>
        <time>2021-09-03T10:30:57Z</time>
      </trkpt>
      <trkpt lat="44.01477" lon="2.55783">
        <ele>369</ele>
        <time>2021-09-03T10:31:03Z</time>
      </trkpt>
      <trkpt lat="44.01465" lon="2.55827">
        <ele>366</ele>
        <time>2021-09-03T10:31:07Z</time>
      </trkpt>
      <trkpt lat="44.01448" lon="2.55935">
        <ele>362</ele>
        <time>2021-09-03T10:31:16Z</time>
      </trkpt>
      <trkpt lat="44.01431" lon="2.55987">
        <ele>358</ele>
        <time>2021-09-03T10:31:21Z</time>
      </trkpt>
      <trkpt lat="44.01421" lon="2.56005">
        <ele>356</ele>
        <time>2021-09-03T10:31:23Z</time>
      </trkpt>
      <trkpt lat="44.0134" lon="2.56093">
        <ele>345</ele>
        <time>2021-09-03T10:31:35Z</time>
      </trkpt>
      <trkpt lat="44.01297" lon="2.56117">
        <ele>343</ele>
        <time>2021-09-03T10:31:42Z</time>
      </trkpt>
      <trkpt lat="44.01245" lon="2.56142">
        <ele>343</ele>
        <time>2021-09-03T10:31:53Z</time>
      </trkpt>
      <trkpt lat="44.01186" lon="2.56185">
        <ele>340</ele>
        <time>2021-09-03T10:32:06Z</time>
      </trkpt>
      <trkpt lat="44.01164" lon="2.56189">
        <ele>338</ele>
        <time>2021-09-03T10:32:09Z</time>
      </trkpt>
      <trkpt lat="44.01149" lon="2.56188">
        <ele>336</ele>
        <time>2021-09-03T10:32:11Z</time>
      </trkpt>
      <trkpt lat="44.01142" lon="2.56189">
        <ele>335</ele>
        <time>2021-09-03T10:32:12Z</time>
      </trkpt>
      <trkpt lat="44.01134" lon="2.56194">
        <ele>335</ele>
        <time>2021-09-03T10:32:13Z</time>
      </trkpt>
      <trkpt lat="44.01129" lon="2.56201">
        <ele>334</ele>
        <time>2021-09-03T10:32:14Z</time>
      </trkpt>
      <trkpt lat="44.01127" lon="2.56211">
        <ele>333</ele>
        <time>2021-09-03T10:32:15Z</time>
      </trkpt>
      <trkpt lat="44.01121" lon="2.56285">
        <ele>329</ele>
        <time>2021-09-03T10:32:21Z</time>
      </trkpt>
      <trkpt lat="44.01113" lon="2.56305">
        <ele>327</ele>
        <time>2021-09-03T10:32:23Z</time>
      </trkpt>
      <trkpt lat="44.011" lon="2.56321">
        <ele>324</ele>
        <time>2021-09-03T10:32:25Z</time>
      </trkpt>
      <trkpt lat="44.01082" lon="2.56333">
        <ele>323</ele>
        <time>2021-09-03T10:32:27Z</time>
      </trkpt>
      <trkpt lat="44.01055" lon="2.5634">
        <ele>322</ele>
        <time>2021-09-03T10:32:30Z</time>
      </trkpt>
      <trkpt lat="44.01026" lon="2.56339">
        <ele>319</ele>
        <time>2021-09-03T10:32:33Z</time>
      </trkpt>
      <trkpt lat="44.01009" lon="2.5633">
        <ele>316</ele>
        <time>2021-09-03T10:32:35Z</time>
      </trkpt>
      <trkpt lat="44.00978" lon="2.563">
        <ele>313</ele>
        <time>2021-09-03T10:32:39Z</time>
      </trkpt>
      <trkpt lat="44.00913" lon="2.56274">
        <ele>310</ele>
        <time>2021-09-03T10:32:46Z</time>
      </trkpt>
      <trkpt lat="44.00899" lon="2.56261">
        <ele>309</ele>
        <time>2021-09-03T10:32:48Z</time>
      </trkpt>
      <trkpt lat="44.00881" lon="2.56253">
        <ele>309</ele>
        <time>2021-09-03T10:32:50Z</time>
      </trkpt>
      <trkpt lat="44.00761" lon="2.56249">
        <ele>303</ele>
        <time>2021-09-03T10:33:03Z</time>
      </trkpt>
      <trkpt lat="44.00669" lon="2.56201">
        <ele>296</ele>
        <time>2021-09-03T10:33:14Z</time>
      </trkpt>
      <trkpt lat="44.00607" lon="2.56156">
        <ele>292</ele>
        <time>2021-09-03T10:33:22Z</time>
      </trkpt>
      <trkpt lat="44.00591" lon="2.56149">
        <ele>290</ele>
        <time>2021-09-03T10:33:24Z</time>
      </trkpt>
      <trkpt lat="44.00498" lon="2.56144">
        <ele>283</ele>
        <time>2021-09-03T10:33:34Z</time>
      </trkpt>
      <trkpt lat="44.00342" lon="2.56082">
        <ele>272</ele>
        <time>2021-09-03T10:33:52Z</time>
      </trkpt>
      <trkpt lat="44.00334" lon="2.56082">
        <ele>271</ele>
        <time>2021-09-03T10:33:53Z</time>
      </trkpt>
      <trkpt lat="44.00325" lon="2.56084">
        <ele>271</ele>
        <time>2021-09-03T10:33:54Z</time>
      </trkpt>
      <trkpt lat="44.00311" lon="2.56097">
        <ele>270</ele>
        <time>2021-09-03T10:33:56Z</time>
      </trkpt>
      <trkpt lat="44.00282" lon="2.56142">
        <ele>268</ele>
        <time>2021-09-03T10:34:01Z</time>
      </trkpt>
      <trkpt lat="44.00268" lon="2.56149">
        <ele>265</ele>
        <time>2021-09-03T10:34:03Z</time>
      </trkpt>
      <trkpt lat="44.00217" lon="2.56144">
        <ele>259</ele>
        <time>2021-09-03T10:34:09Z</time>
      </trkpt>
      <trkpt lat="44.00203" lon="2.56148">
        <ele>257</ele>
        <time>2021-09-03T10:34:11Z</time>
      </trkpt>
      <trkpt lat="44.00181" lon="2.56163">
        <ele>256</ele>
        <time>2021-09-03T10:34:14Z</time>
      </trkpt>
      <trkpt lat="44.00144" lon="2.56174">
        <ele>252</ele>
        <time>2021-09-03T10:34:19Z</time>
      </trkpt>
      <trkpt lat="44.00116" lon="2.56176">
        <ele>250</ele>
        <time>2021-09-03T10:34:24Z</time>
      </trkpt>
      <trkpt lat="44.00105" lon="2.56173">
        <ele>248</ele>
        <time>2021-09-03T10:34:26Z</time>
      </trkpt>
      <trkpt lat="44.00092" lon="2.56165">
        <ele>247</ele>
        <time>2021-09-03T10:34:29Z</time>
      </trkpt>
      <trkpt lat="44.00086" lon="2.56163">
        <ele>247</ele>
        <time>2021-09-03T10:34:31Z</time>
      </trkpt>
      <trkpt lat="44.0008" lon="2.56165">
        <ele>247</ele>
        <time>2021-09-03T10:34:34Z</time>
      </trkpt>
      <trkpt lat="44.0008" lon="2.56172">
        <ele>246</ele>
        <time>2021-09-03T10:35:07Z</time>
      </trkpt>
      <trkpt lat="44.00081" lon="2.56178">
        <ele>245</ele>
        <time>2021-09-03T10:35:09Z</time>
      </trkpt>
      <trkpt lat="44.0008" lon="2.56186">
        <ele>245</ele>
        <time>2021-09-03T10:35:11Z</time>
      </trkpt>
      <trkpt lat="44.00076" lon="2.56198">
        <ele>245</ele>
        <time>2021-09-03T10:35:18Z</time>
      </trkpt>
      <trkpt lat="44.00076" lon="2.56207">
        <ele>245</ele>
        <time>2021-09-03T10:36:32Z</time>
      </trkpt>
      <trkpt lat="44.00067" lon="2.56243">
        <ele>247</ele>
        <time>2021-09-03T10:36:38Z</time>
      </trkpt>
      <trkpt lat="44.00067" lon="2.56257">
        <ele>247</ele>
        <time>2021-09-03T10:36:40Z</time>
      </trkpt>
      <trkpt lat="44.00071" lon="2.56271">
        <ele>247</ele>
        <time>2021-09-03T10:36:42Z</time>
      </trkpt>
      <trkpt lat="44.00074" lon="2.56276">
        <ele>247</ele>
        <time>2021-09-03T10:36:43Z</time>
      </trkpt>
      <trkpt lat="44.00118" lon="2.56295">
        <ele>248</ele>
        <time>2021-09-03T10:36:52Z</time>
      </trkpt>
      <trkpt lat="44.00158" lon="2.56323">
        <ele>246</ele>
        <time>2021-09-03T10:37:00Z</time>
      </trkpt>
      <trkpt lat="44.00177" lon="2.56328">
        <ele>245</ele>
        <time>2021-09-03T10:37:04Z</time>
      </trkpt>
      <trkpt lat="44.00211" lon="2.56325">
        <ele>242</ele>
        <time>2021-09-03T10:37:11Z</time>
      </trkpt>
      <trkpt lat="44.00222" lon="2.56328">
        <ele>241</ele>
        <time>2021-09-03T10:37:13Z</time>
      </trkpt>
      <trkpt lat="44.00233" lon="2.56335">
        <ele>240</ele>
        <time>2021-09-03T10:37:15Z</time>
      </trkpt>
      <trkpt lat="44.00262" lon="2.56366">
        <ele>238</ele>
        <time>2021-09-03T10:37:21Z</time>
      </trkpt>
      <trkpt lat="44.00298" lon="2.56441">
        <ele>233</ele>
        <time>2021-09-03T10:37:31Z</time>
      </trkpt>
      <trkpt lat="44.00326" lon="2.56538">
        <ele>230</ele>
        <time>2021-09-03T10:37:42Z</time>
      </trkpt>
      <trkpt lat="44.00347" lon="2.56702">
        <ele>230</ele>
        <time>2021-09-03T10:38:05Z</time>
      </trkpt>
      <trkpt lat="44.00347" lon="2.56885">
        <ele>226</ele>
        <time>2021-09-03T10:38:35Z</time>
      </trkpt>
      <trkpt lat="44.00345" lon="2.56981">
        <ele>221</ele>
        <time>2021-09-03T10:38:53Z</time>
      </trkpt>
      <trkpt lat="44.00344" lon="2.5699">
        <ele>221</ele>
        <time>2021-09-03T10:38:55Z</time>
      </trkpt>
      <trkpt lat="44.00343" lon="2.56998">
        <ele>221</ele>
        <time>2021-09-03T10:38:57Z</time>
      </trkpt>
      <trkpt lat="44.00343" lon="2.57005">
        <ele>220</ele>
        <time>2021-09-03T10:38:59Z</time>
      </trkpt>
      <trkpt lat="44.00339" lon="2.57011">
        <ele>220</ele>
        <time>2021-09-03T10:39:01Z</time>
      </trkpt>
      <trkpt lat="44.00332" lon="2.57015">
        <ele>221</ele>
        <time>2021-09-03T10:39:03Z</time>
      </trkpt>
      <trkpt lat="44.00324" lon="2.57017">
        <ele>222</ele>
        <time>2021-09-03T10:39:05Z</time>
      </trkpt>
      <trkpt lat="44.00316" lon="2.57015">
        <ele>223</ele>
        <time>2021-09-03T10:39:07Z</time>
      </trkpt>
      <trkpt lat="44.0031" lon="2.57011">
        <ele>224</ele>
        <time>2021-09-03T10:39:09Z</time>
      </trkpt>
      <trkpt lat="44.00304" lon="2.57007">
        <ele>226</ele>
        <time>2021-09-03T10:39:11Z</time>
      </trkpt>
      <trkpt lat="44.00298" lon="2.57007">
        <ele>226</ele>
        <time>2021-09-03T10:39:13Z</time>
      </trkpt>
      <trkpt lat="44.00295" lon="2.57022">
        <ele>227</ele>
        <time>2021-09-03T10:39:17Z</time>
      </trkpt>
      <trkpt lat="44.00293" lon="2.57029">
        <ele>227</ele>
        <time>2021-09-03T10:39:19Z</time>
      </trkpt>
      <trkpt lat="44.00286" lon="2.57074">
        <ele>225</ele>
        <time>2021-09-03T10:39:32Z</time>
      </trkpt>
      <trkpt lat="44.00285" lon="2.57081">
        <ele>225</ele>
        <time>2021-09-03T10:39:34Z</time>
      </trkpt>
      <trkpt lat="44.00284" lon="2.57104">
        <ele>224</ele>
        <time>2021-09-03T10:39:40Z</time>
      </trkpt>
      <trkpt lat="44.00282" lon="2.5711">
        <ele>225</ele>
        <time>2021-09-03T10:39:43Z</time>
      </trkpt>
      <trkpt lat="44.00283" lon="2.57116">
        <ele>227</ele>
        <time>2021-09-03T10:39:52Z</time>
      </trkpt>
      <trkpt lat="44.00281" lon="2.57115">
        <ele>229</ele>
        <time>2021-09-03T10:47:31Z</time>
      </trkpt>
      <trkpt lat="44.00286" lon="2.57088">
        <ele>231</ele>
        <time>2021-09-03T10:47:45Z</time>
      </trkpt>
      <trkpt lat="44.00286" lon="2.5708">
        <ele>233</ele>
        <time>2021-09-03T10:47:49Z</time>
      </trkpt>
      <trkpt lat="44.00286" lon="2.57084">
        <ele>235</ele>
        <time>2021-09-03T11:14:32Z</time>
      </trkpt>
      <trkpt lat="44.00284" lon="2.57089">
        <ele>235</ele>
        <time>2021-09-03T11:16:37Z</time>
      </trkpt>
      <trkpt lat="44.00281" lon="2.57096">
        <ele>235</ele>
        <time>2021-09-03T11:16:41Z</time>
      </trkpt>
      <trkpt lat="44.00279" lon="2.57107">
        <ele>234</ele>
        <time>2021-09-03T11:16:45Z</time>
      </trkpt>
      <trkpt lat="44.00277" lon="2.57137">
        <ele>232</ele>
        <time>2021-09-03T11:16:55Z</time>
      </trkpt>
      <trkpt lat="44.00277" lon="2.57147">
        <ele>232</ele>
        <time>2021-09-03T11:16:58Z</time>
      </trkpt>
      <trkpt lat="44.00278" lon="2.57158">
        <ele>234</ele>
        <time>2021-09-03T11:17:02Z</time>
      </trkpt>
      <trkpt lat="44.00273" lon="2.57208">
        <ele>235</ele>
        <time>2021-09-03T11:17:18Z</time>
      </trkpt>
      <trkpt lat="44.0027" lon="2.57215">
        <ele>235</ele>
        <time>2021-09-03T11:17:21Z</time>
      </trkpt>
      <trkpt lat="44.00256" lon="2.57287">
        <ele>235</ele>
        <time>2021-09-03T11:17:52Z</time>
      </trkpt>
      <trkpt lat="44.00253" lon="2.57312">
        <ele>234</ele>
        <time>2021-09-03T11:18:00Z</time>
      </trkpt>
      <trkpt lat="44.00252" lon="2.57323">
        <ele>234</ele>
        <time>2021-09-03T11:18:04Z</time>
      </trkpt>
      <trkpt lat="44.0025" lon="2.5734">
        <ele>234</ele>
        <time>2021-09-03T11:18:10Z</time>
      </trkpt>
      <trkpt lat="44.0025" lon="2.57456">
        <ele>233</ele>
        <time>2021-09-03T11:18:38Z</time>
      </trkpt>
      <trkpt lat="44.00256" lon="2.57524">
        <ele>235</ele>
        <time>2021-09-03T11:18:52Z</time>
      </trkpt>
      <trkpt lat="44.00293" lon="2.57623">
        <ele>233</ele>
        <time>2021-09-03T11:19:16Z</time>
      </trkpt>
      <trkpt lat="44.00354" lon="2.57764">
        <ele>236</ele>
        <time>2021-09-03T11:19:47Z</time>
      </trkpt>
      <trkpt lat="44.00358" lon="2.57774">
        <ele>235</ele>
        <time>2021-09-03T11:19:49Z</time>
      </trkpt>
      <trkpt lat="44.00364" lon="2.57794">
        <ele>234</ele>
        <time>2021-09-03T11:19:53Z</time>
      </trkpt>
      <trkpt lat="44.00418" lon="2.57955">
        <ele>232</ele>
        <time>2021-09-03T11:20:25Z</time>
      </trkpt>
      <trkpt lat="44.0049" lon="2.58084">
        <ele>230</ele>
        <time>2021-09-03T11:20:57Z</time>
      </trkpt>
      <trkpt lat="44.00562" lon="2.58219">
        <ele>232</ele>
        <time>2021-09-03T11:21:27Z</time>
      </trkpt>
      <trkpt lat="44.00593" lon="2.58291">
        <ele>228</ele>
        <time>2021-09-03T11:21:42Z</time>
      </trkpt>
      <trkpt lat="44.00675" lon="2.58427">
        <ele>220</ele>
        <time>2021-09-03T11:22:14Z</time>
      </trkpt>
      <trkpt lat="44.00731" lon="2.58532">
        <ele>232</ele>
        <time>2021-09-03T11:22:35Z</time>
      </trkpt>
      <trkpt lat="44.00748" lon="2.58597">
        <ele>236</ele>
        <time>2021-09-03T11:22:47Z</time>
      </trkpt>
      <trkpt lat="44.00773" lon="2.5876">
        <ele>246</ele>
        <time>2021-09-03T11:23:17Z</time>
      </trkpt>
      <trkpt lat="44.00803" lon="2.5895">
        <ele>250</ele>
        <time>2021-09-03T11:23:48Z</time>
      </trkpt>
      <trkpt lat="44.00823" lon="2.59101">
        <ele>254</ele>
        <time>2021-09-03T11:24:18Z</time>
      </trkpt>
      <trkpt lat="44.00828" lon="2.591">
        <ele>250</ele>
        <time>2021-09-03T11:26:15Z</time>
      </trkpt>
      <trkpt lat="44.00829" lon="2.59108">
        <ele>240</ele>
        <time>2021-09-03T11:27:21Z</time>
      </trkpt>
      <trkpt lat="44.00852" lon="2.59251">
        <ele>241</ele>
        <time>2021-09-03T11:27:53Z</time>
      </trkpt>
      <trkpt lat="44.00857" lon="2.5935">
        <ele>239</ele>
        <time>2021-09-03T11:28:11Z</time>
      </trkpt>
      <trkpt lat="44.00852" lon="2.59428">
        <ele>232</ele>
        <time>2021-09-03T11:28:25Z</time>
      </trkpt>
      <trkpt lat="44.00837" lon="2.59493">
        <ele>229</ele>
        <time>2021-09-03T11:28:37Z</time>
      </trkpt>
      <trkpt lat="44.00775" lon="2.59652">
        <ele>220</ele>
        <time>2021-09-03T11:29:09Z</time>
      </trkpt>
      <trkpt lat="44.00716" lon="2.59801">
        <ele>214</ele>
        <time>2021-09-03T11:29:41Z</time>
      </trkpt>
      <trkpt lat="44.00699" lon="2.59869">
        <ele>219</ele>
        <time>2021-09-03T11:29:53Z</time>
      </trkpt>
      <trkpt lat="44.00685" lon="2.60059">
        <ele>232</ele>
        <time>2021-09-03T11:30:24Z</time>
      </trkpt>
      <trkpt lat="44.0067" lon="2.60129">
        <ele>236</ele>
        <time>2021-09-03T11:30:36Z</time>
      </trkpt>
      <trkpt lat="44.00643" lon="2.6021">
        <ele>241</ele>
        <time>2021-09-03T11:30:56Z</time>
      </trkpt>
      <trkpt lat="44.00646" lon="2.60213">
        <ele>250</ele>
        <time>2021-09-03T11:31:58Z</time>
      </trkpt>
      <trkpt lat="44.00594" lon="2.60354">
        <ele>245</ele>
        <time>2021-09-03T11:32:28Z</time>
      </trkpt>
      <trkpt lat="44.00588" lon="2.60362">
        <ele>245</ele>
        <time>2021-09-03T11:32:30Z</time>
      </trkpt>
      <trkpt lat="44.00583" lon="2.60364">
        <ele>245</ele>
        <time>2021-09-03T11:32:32Z</time>
      </trkpt>
      <trkpt lat="44.00565" lon="2.60336">
        <ele>246</ele>
        <time>2021-09-03T11:32:42Z</time>
      </trkpt>
      <trkpt lat="44.00556" lon="2.60327">
        <ele>246</ele>
        <time>2021-09-03T11:32:46Z</time>
      </trkpt>
      <trkpt lat="44.0055" lon="2.60322">
        <ele>247</ele>
        <time>2021-09-03T11:32:49Z</time>
      </trkpt>
      <trkpt lat="44.00539" lon="2.60321">
        <ele>248</ele>
        <time>2021-09-03T11:32:54Z</time>
      </trkpt>
      <trkpt lat="44.00533" lon="2.60323">
        <ele>248</ele>
        <time>2021-09-03T11:32:57Z</time>
      </trkpt>
      <trkpt lat="44.00531" lon="2.60331">
        <ele>249</ele>
        <time>2021-09-03T11:33:00Z</time>
      </trkpt>
      <trkpt lat="44.00532" lon="2.60339">
        <ele>249</ele>
        <time>2021-09-03T11:33:02Z</time>
      </trkpt>
      <trkpt lat="44.0054" lon="2.60351">
        <ele>249</ele>
        <time>2021-09-03T11:33:06Z</time>
      </trkpt>
      <trkpt lat="44.00636" lon="2.60434">
        <ele>258</ele>
        <time>2021-09-03T11:33:36Z</time>
      </trkpt>
      <trkpt lat="44.007" lon="2.60495">
        <ele>257</ele>
        <time>2021-09-03T11:33:52Z</time>
      </trkpt>
      <trkpt lat="44.0077" lon="2.60529">
        <ele>255</ele>
        <time>2021-09-03T11:34:05Z</time>
      </trkpt>
      <trkpt lat="44.00781" lon="2.60539">
        <ele>254</ele>
        <time>2021-09-03T11:34:07Z</time>
      </trkpt>
      <trkpt lat="44.00792" lon="2.60559">
        <ele>253</ele>
        <time>2021-09-03T11:34:10Z</time>
      </trkpt>
      <trkpt lat="44.008" lon="2.60582">
        <ele>253</ele>
        <time>2021-09-03T11:34:13Z</time>
      </trkpt>
      <trkpt lat="44.00812" lon="2.60664">
        <ele>251</ele>
        <time>2021-09-03T11:34:23Z</time>
      </trkpt>
      <trkpt lat="44.00807" lon="2.60734">
        <ele>250</ele>
        <time>2021-09-03T11:34:32Z</time>
      </trkpt>
      <trkpt lat="44.00786" lon="2.60804">
        <ele>249</ele>
        <time>2021-09-03T11:34:44Z</time>
      </trkpt>
      <trkpt lat="44.0077" lon="2.6085">
        <ele>248</ele>
        <time>2021-09-03T11:34:52Z</time>
      </trkpt>
      <trkpt lat="44.00758" lon="2.60869">
        <ele>246</ele>
        <time>2021-09-03T11:34:56Z</time>
      </trkpt>
      <trkpt lat="44.00742" lon="2.60881">
        <ele>245</ele>
        <time>2021-09-03T11:35:00Z</time>
      </trkpt>
      <trkpt lat="44.00675" lon="2.60913">
        <ele>243</ele>
        <time>2021-09-03T11:35:16Z</time>
      </trkpt>
      <trkpt lat="44.00656" lon="2.60914">
        <ele>242</ele>
        <time>2021-09-03T11:35:20Z</time>
      </trkpt>
      <trkpt lat="44.00513" lon="2.60876">
        <ele>227</ele>
        <time>2021-09-03T11:35:51Z</time>
      </trkpt>
      <trkpt lat="44.00425" lon="2.60883">
        <ele>226</ele>
        <time>2021-09-03T11:36:13Z</time>
      </trkpt>
      <trkpt lat="44.00351" lon="2.60901">
        <ele>233</ele>
        <time>2021-09-03T11:36:30Z</time>
      </trkpt>
      <trkpt lat="44.00346" lon="2.60904">
        <ele>233</ele>
        <time>2021-09-03T11:36:31Z</time>
      </trkpt>
      <trkpt lat="44.00262" lon="2.60995">
        <ele>225</ele>
        <time>2021-09-03T11:36:48Z</time>
      </trkpt>
      <trkpt lat="44.00128" lon="2.61206">
        <ele>212</ele>
        <time>2021-09-03T11:37:17Z</time>
      </trkpt>
      <trkpt lat="44.00113" lon="2.61226">
        <ele>208</ele>
        <time>2021-09-03T11:37:21Z</time>
      </trkpt>
      <trkpt lat="44.00107" lon="2.61238">
        <ele>206</ele>
        <time>2021-09-03T11:37:23Z</time>
      </trkpt>
      <trkpt lat="44.00098" lon="2.61253">
        <ele>203</ele>
        <time>2021-09-03T11:37:26Z</time>
      </trkpt>
      <trkpt lat="44.0009" lon="2.61267">
        <ele>201</ele>
        <time>2021-09-03T11:37:29Z</time>
      </trkpt>
      <trkpt lat="44.0008" lon="2.61293">
        <ele>197</ele>
        <time>2021-09-03T11:37:33Z</time>
      </trkpt>
      <trkpt lat="44.00067" lon="2.61328">
        <ele>193</ele>
        <time>2021-09-03T11:37:38Z</time>
      </trkpt>
      <trkpt lat="44.00043" lon="2.61371">
        <ele>182</ele>
        <time>2021-09-03T11:37:46Z</time>
      </trkpt>
      <trkpt lat="44.00017" lon="2.61433">
        <ele>180</ele>
        <time>2021-09-03T11:37:55Z</time>
      </trkpt>
      <trkpt lat="44.00012" lon="2.61457">
        <ele>185</ele>
        <time>2021-09-03T11:37:58Z</time>
      </trkpt>
      <trkpt lat="44.00009" lon="2.61475">
        <ele>187</ele>
        <time>2021-09-03T11:38:00Z</time>
      </trkpt>
      <trkpt lat="44.00006" lon="2.61492">
        <ele>192</ele>
        <time>2021-09-03T11:38:02Z</time>
      </trkpt>
      <trkpt lat="43.99968" lon="2.61641">
        <ele>200</ele>
        <time>2021-09-03T11:38:22Z</time>
      </trkpt>
      <trkpt lat="43.99905" lon="2.61822">
        <ele>205</ele>
        <time>2021-09-03T11:38:50Z</time>
      </trkpt>
      <trkpt lat="43.99902" lon="2.61827">
        <ele>204</ele>
        <time>2021-09-03T11:38:51Z</time>
      </trkpt>
      <trkpt lat="43.99895" lon="2.61836">
        <ele>202</ele>
        <time>2021-09-03T11:38:53Z</time>
      </trkpt>
      <trkpt lat="43.99887" lon="2.61853">
        <ele>203</ele>
        <time>2021-09-03T11:38:56Z</time>
      </trkpt>
      <trkpt lat="43.99853" lon="2.61931">
        <ele>207</ele>
        <time>2021-09-03T11:39:10Z</time>
      </trkpt>
      <trkpt lat="43.99811" lon="2.62023">
        <ele>200</ele>
        <time>2021-09-03T11:39:27Z</time>
      </trkpt>
      <trkpt lat="43.99759" lon="2.62123">
        <ele>199</ele>
        <time>2021-09-03T11:39:45Z</time>
      </trkpt>
      <trkpt lat="43.99731" lon="2.62161">
        <ele>222</ele>
        <time>2021-09-03T11:39:55Z</time>
      </trkpt>
      <trkpt lat="43.99728" lon="2.62172">
        <ele>225</ele>
        <time>2021-09-03T11:39:57Z</time>
      </trkpt>
      <trkpt lat="43.99727" lon="2.62181">
        <ele>228</ele>
        <time>2021-09-03T11:39:59Z</time>
      </trkpt>
      <trkpt lat="43.99726" lon="2.62191">
        <ele>229</ele>
        <time>2021-09-03T11:40:01Z</time>
      </trkpt>
      <trkpt lat="43.99727" lon="2.62197">
        <ele>232</ele>
        <time>2021-09-03T11:40:05Z</time>
      </trkpt>
      <trkpt lat="43.9973" lon="2.62202">
        <ele>233</ele>
        <time>2021-09-03T11:40:08Z</time>
      </trkpt>
      <trkpt lat="43.99728" lon="2.622">
        <ele>240</ele>
        <time>2021-09-03T11:40:29Z</time>
      </trkpt>
      <trkpt lat="43.9972" lon="2.62193">
        <ele>240</ele>
        <time>2021-09-03T11:40:33Z</time>
      </trkpt>
      <trkpt lat="43.99718" lon="2.62186">
        <ele>240</ele>
        <time>2021-09-03T11:40:35Z</time>
      </trkpt>
      <trkpt lat="43.99719" lon="2.62173">
        <ele>240</ele>
        <time>2021-09-03T11:40:46Z</time>
      </trkpt>
      <trkpt lat="43.99723" lon="2.62175">
        <ele>240</ele>
        <time>2021-09-03T11:44:15Z</time>
      </trkpt>
      <trkpt lat="43.99721" lon="2.62181">
        <ele>240</ele>
        <time>2021-09-03T11:44:21Z</time>
      </trkpt>
      <trkpt lat="43.9972" lon="2.62189">
        <ele>241</ele>
        <time>2021-09-03T11:44:23Z</time>
      </trkpt>
      <trkpt lat="43.99738" lon="2.62211">
        <ele>243</ele>
        <time>2021-09-03T11:44:31Z</time>
      </trkpt>
      <trkpt lat="43.99793" lon="2.6228">
        <ele>247</ele>
        <time>2021-09-03T11:44:57Z</time>
      </trkpt>
      <trkpt lat="43.99796" lon="2.62288">
        <ele>247</ele>
        <time>2021-09-03T11:45:00Z</time>
      </trkpt>
      <trkpt lat="43.99796" lon="2.62295">
        <ele>248</ele>
        <time>2021-09-03T11:45:02Z</time>
      </trkpt>
      <trkpt lat="43.99793" lon="2.62301">
        <ele>248</ele>
        <time>2021-09-03T11:45:05Z</time>
      </trkpt>
      <trkpt lat="43.99789" lon="2.62304">
        <ele>247</ele>
        <time>2021-09-03T11:45:08Z</time>
      </trkpt>
      <trkpt lat="43.99789" lon="2.62313">
        <ele>246</ele>
        <time>2021-09-03T11:45:21Z</time>
      </trkpt>
      <trkpt lat="43.99787" lon="2.62319">
        <ele>246</ele>
        <time>2021-09-03T11:45:24Z</time>
      </trkpt>
      <trkpt lat="43.99775" lon="2.62385">
        <ele>242</ele>
        <time>2021-09-03T11:45:51Z</time>
      </trkpt>
      <trkpt lat="43.99769" lon="2.62405">
        <ele>243</ele>
        <time>2021-09-03T11:45:58Z</time>
      </trkpt>
      <trkpt lat="43.99765" lon="2.62414">
        <ele>245</ele>
        <time>2021-09-03T11:46:01Z</time>
      </trkpt>
      <trkpt lat="43.99761" lon="2.62429">
        <ele>248</ele>
        <time>2021-09-03T11:46:07Z</time>
      </trkpt>
      <trkpt lat="43.99762" lon="2.6244">
        <ele>248</ele>
        <time>2021-09-03T11:46:10Z</time>
      </trkpt>
      <trkpt lat="43.9976" lon="2.62452">
        <ele>247</ele>
        <time>2021-09-03T11:46:14Z</time>
      </trkpt>
      <trkpt lat="43.99754" lon="2.62487">
        <ele>248</ele>
        <time>2021-09-03T11:46:29Z</time>
      </trkpt>
      <trkpt lat="43.99747" lon="2.62529">
        <ele>243</ele>
        <time>2021-09-03T11:46:45Z</time>
      </trkpt>
      <trkpt lat="43.99742" lon="2.62535">
        <ele>243</ele>
        <time>2021-09-03T11:46:48Z</time>
      </trkpt>
      <trkpt lat="43.99738" lon="2.6254">
        <ele>243</ele>
        <time>2021-09-03T11:46:50Z</time>
      </trkpt>
      <trkpt lat="43.99725" lon="2.62558">
        <ele>246</ele>
        <time>2021-09-03T11:46:58Z</time>
      </trkpt>
      <trkpt lat="43.99715" lon="2.62567">
        <ele>245</ele>
        <time>2021-09-03T11:47:03Z</time>
      </trkpt>
      <trkpt lat="43.9971" lon="2.62569">
        <ele>244</ele>
        <time>2021-09-03T11:47:05Z</time>
      </trkpt>
      <trkpt lat="43.99702" lon="2.62579">
        <ele>243</ele>
        <time>2021-09-03T11:47:10Z</time>
      </trkpt>
      <trkpt lat="43.99698" lon="2.62583">
        <ele>242</ele>
        <time>2021-09-03T11:47:13Z</time>
      </trkpt>
      <trkpt lat="43.99692" lon="2.62586">
        <ele>241</ele>
        <time>2021-09-03T11:47:17Z</time>
      </trkpt>
      <trkpt lat="43.9968" lon="2.62603">
        <ele>229</ele>
        <time>2021-09-03T11:48:11Z</time>
      </trkpt>
      <trkpt lat="43.99675" lon="2.62607">
        <ele>228</ele>
        <time>2021-09-03T11:48:14Z</time>
      </trkpt>
      <trkpt lat="43.99672" lon="2.62611">
        <ele>227</ele>
        <time>2021-09-03T11:48:18Z</time>
      </trkpt>
      <trkpt lat="43.9967" lon="2.62618">
        <ele>228</ele>
        <time>2021-09-03T11:48:20Z</time>
      </trkpt>
      <trkpt lat="43.99674" lon="2.62618">
        <ele>231</ele>
        <time>2021-09-03T11:48:25Z</time>
      </trkpt>
      <trkpt lat="43.99677" lon="2.62612">
        <ele>232</ele>
        <time>2021-09-03T11:48:29Z</time>
      </trkpt>
      <trkpt lat="43.9968" lon="2.62607">
        <ele>234</ele>
        <time>2021-09-03T11:48:33Z</time>
      </trkpt>
      <trkpt lat="43.99689" lon="2.62601">
        <ele>237</ele>
        <time>2021-09-03T11:48:39Z</time>
      </trkpt>
      <trkpt lat="43.99694" lon="2.62598">
        <ele>238</ele>
        <time>2021-09-03T11:48:41Z</time>
      </trkpt>
      <trkpt lat="43.997" lon="2.62594">
        <ele>238</ele>
        <time>2021-09-03T11:48:44Z</time>
      </trkpt>
      <trkpt lat="43.99724" lon="2.62577">
        <ele>236</ele>
        <time>2021-09-03T11:48:57Z</time>
      </trkpt>
      <trkpt lat="43.99737" lon="2.62555">
        <ele>236</ele>
        <time>2021-09-03T11:49:07Z</time>
      </trkpt>
      <trkpt lat="43.99738" lon="2.62548">
        <ele>236</ele>
        <time>2021-09-03T11:49:10Z</time>
      </trkpt>
      <trkpt lat="43.99742" lon="2.62539">
        <ele>236</ele>
        <time>2021-09-03T11:49:13Z</time>
      </trkpt>
      <trkpt lat="43.99753" lon="2.625">
        <ele>240</ele>
        <time>2021-09-03T11:49:27Z</time>
      </trkpt>
      <trkpt lat="43.99755" lon="2.62492">
        <ele>241</ele>
        <time>2021-09-03T11:49:30Z</time>
      </trkpt>
      <trkpt lat="43.99755" lon="2.62485">
        <ele>242</ele>
        <time>2021-09-03T11:49:33Z</time>
      </trkpt>
      <trkpt lat="43.99756" lon="2.62471">
        <ele>244</ele>
        <time>2021-09-03T11:49:40Z</time>
      </trkpt>
      <trkpt lat="43.99757" lon="2.62462">
        <ele>244</ele>
        <time>2021-09-03T11:49:44Z</time>
      </trkpt>
      <trkpt lat="43.99757" lon="2.62451">
        <ele>244</ele>
        <time>2021-09-03T11:49:49Z</time>
      </trkpt>
      <trkpt lat="43.99754" lon="2.62453">
        <ele>243</ele>
        <time>2021-09-03T11:50:37Z</time>
      </trkpt>
      <trkpt lat="43.99752" lon="2.62458">
        <ele>243</ele>
        <time>2021-09-03T11:50:48Z</time>
      </trkpt>
      <trkpt lat="43.99747" lon="2.62458">
        <ele>244</ele>
        <time>2021-09-03T11:51:00Z</time>
      </trkpt>
      <trkpt lat="43.99744" lon="2.62449">
        <ele>245</ele>
        <time>2021-09-03T11:51:31Z</time>
      </trkpt>
      <trkpt lat="43.99742" lon="2.62439">
        <ele>248</ele>
        <time>2021-09-03T11:51:41Z</time>
      </trkpt>
      <trkpt lat="43.99741" lon="2.62433">
        <ele>249</ele>
        <time>2021-09-03T11:52:34Z</time>
      </trkpt>
      <trkpt lat="43.9974" lon="2.62427">
        <ele>250</ele>
        <time>2021-09-03T11:52:59Z</time>
      </trkpt>
      <trkpt lat="43.99735" lon="2.62398">
        <ele>251</ele>
        <time>2021-09-03T11:53:40Z</time>
      </trkpt>
      <trkpt lat="43.99738" lon="2.62392">
        <ele>252</ele>
        <time>2021-09-03T11:54:14Z</time>
      </trkpt>
      <trkpt lat="43.99744" lon="2.6239">
        <ele>256</ele>
        <time>2021-09-03T11:54:17Z</time>
      </trkpt>
      <trkpt lat="43.99745" lon="2.62383">
        <ele>258</ele>
        <time>2021-09-03T11:54:22Z</time>
      </trkpt>
      <trkpt lat="43.99735" lon="2.62365">
        <ele>259</ele>
        <time>2021-09-03T11:54:55Z</time>
      </trkpt>
      <trkpt lat="43.9973" lon="2.62358">
        <ele>258</ele>
        <time>2021-09-03T11:54:57Z</time>
      </trkpt>
      <trkpt lat="43.99724" lon="2.62345">
        <ele>253</ele>
        <time>2021-09-03T11:55:15Z</time>
      </trkpt>
      <trkpt lat="43.99729" lon="2.62344">
        <ele>252</ele>
        <time>2021-09-03T11:55:28Z</time>
      </trkpt>
      <trkpt lat="43.99734" lon="2.62346">
        <ele>249</ele>
        <time>2021-09-03T11:55:34Z</time>
      </trkpt>
      <trkpt lat="43.99739" lon="2.62348">
        <ele>248</ele>
        <time>2021-09-03T11:55:40Z</time>
      </trkpt>
      <trkpt lat="43.99749" lon="2.62357">
        <ele>247</ele>
        <time>2021-09-03T11:55:47Z</time>
      </trkpt>
      <trkpt lat="43.99756" lon="2.62359">
        <ele>246</ele>
        <time>2021-09-03T11:55:50Z</time>
      </trkpt>
      <trkpt lat="43.99766" lon="2.62361">
        <ele>245</ele>
        <time>2021-09-03T11:55:55Z</time>
      </trkpt>
      <trkpt lat="43.99771" lon="2.62364">
        <ele>245</ele>
        <time>2021-09-03T11:55:58Z</time>
      </trkpt>
      <trkpt lat="43.99772" lon="2.62371">
        <ele>246</ele>
        <time>2021-09-03T11:56:01Z</time>
      </trkpt>
      <trkpt lat="43.99775" lon="2.62376">
        <ele>245</ele>
        <time>2021-09-03T11:56:09Z</time>
      </trkpt>
      <trkpt lat="43.99779" lon="2.62374">
        <ele>244</ele>
        <time>2021-09-03T11:56:13Z</time>
      </trkpt>
      <trkpt lat="43.99779" lon="2.62365">
        <ele>245</ele>
        <time>2021-09-03T11:56:17Z</time>
      </trkpt>
      <trkpt lat="43.9978" lon="2.62358">
        <ele>246</ele>
        <time>2021-09-03T11:56:20Z</time>
      </trkpt>
      <trkpt lat="43.99779" lon="2.62344">
        <ele>247</ele>
        <time>2021-09-03T11:56:26Z</time>
      </trkpt>
      <trkpt lat="43.99778" lon="2.6233">
        <ele>248</ele>
        <time>2021-09-03T11:56:32Z</time>
      </trkpt>
      <trkpt lat="43.99782" lon="2.62316">
        <ele>250</ele>
        <time>2021-09-03T11:56:38Z</time>
      </trkpt>
      <trkpt lat="43.99792" lon="2.623">
        <ele>253</ele>
        <time>2021-09-03T11:56:47Z</time>
      </trkpt>
      <trkpt lat="43.99796" lon="2.62293">
        <ele>253</ele>
        <time>2021-09-03T11:56:50Z</time>
      </trkpt>
      <trkpt lat="43.99796" lon="2.62286">
        <ele>252</ele>
        <time>2021-09-03T11:56:53Z</time>
      </trkpt>
      <trkpt lat="43.99793" lon="2.62281">
        <ele>253</ele>
        <time>2021-09-03T11:56:56Z</time>
      </trkpt>
      <trkpt lat="43.99784" lon="2.62271">
        <ele>253</ele>
        <time>2021-09-03T11:57:03Z</time>
      </trkpt>
      <trkpt lat="43.9978" lon="2.62265">
        <ele>252</ele>
        <time>2021-09-03T11:57:06Z</time>
      </trkpt>
      <trkpt lat="43.99775" lon="2.6226">
        <ele>252</ele>
        <time>2021-09-03T11:57:09Z</time>
      </trkpt>
      <trkpt lat="43.99753" lon="2.62235">
        <ele>252</ele>
        <time>2021-09-03T11:57:21Z</time>
      </trkpt>
      <trkpt lat="43.99749" lon="2.62229">
        <ele>252</ele>
        <time>2021-09-03T11:57:23Z</time>
      </trkpt>
      <trkpt lat="43.99719" lon="2.62194">
        <ele>250</ele>
        <time>2021-09-03T11:57:38Z</time>
      </trkpt>
      <trkpt lat="43.99715" lon="2.62189">
        <ele>250</ele>
        <time>2021-09-03T11:57:40Z</time>
      </trkpt>
      <trkpt lat="43.99709" lon="2.62187">
        <ele>249</ele>
        <time>2021-09-03T11:57:43Z</time>
      </trkpt>
      <trkpt lat="43.99704" lon="2.6219">
        <ele>248</ele>
        <time>2021-09-03T11:57:45Z</time>
      </trkpt>
      <trkpt lat="43.99689" lon="2.62208">
        <ele>245</ele>
        <time>2021-09-03T11:57:51Z</time>
      </trkpt>
      <trkpt lat="43.99599" lon="2.623">
        <ele>235</ele>
        <time>2021-09-03T11:58:23Z</time>
      </trkpt>
      <trkpt lat="43.99593" lon="2.62306">
        <ele>234</ele>
        <time>2021-09-03T11:58:25Z</time>
      </trkpt>
      <trkpt lat="43.995" lon="2.62412">
        <ele>227</ele>
        <time>2021-09-03T11:58:55Z</time>
      </trkpt>
      <trkpt lat="43.99389" lon="2.62546">
        <ele>213</ele>
        <time>2021-09-03T11:59:27Z</time>
      </trkpt>
      <trkpt lat="43.99367" lon="2.6257">
        <ele>210</ele>
        <time>2021-09-03T11:59:33Z</time>
      </trkpt>
      <trkpt lat="43.99339" lon="2.62605">
        <ele>205</ele>
        <time>2021-09-03T11:59:41Z</time>
      </trkpt>
      <trkpt lat="43.99278" lon="2.62684">
        <ele>199</ele>
        <time>2021-09-03T12:00:01Z</time>
      </trkpt>
      <trkpt lat="43.99272" lon="2.6269">
        <ele>199</ele>
        <time>2021-09-03T12:00:03Z</time>
      </trkpt>
      <trkpt lat="43.99262" lon="2.627">
        <ele>198</ele>
        <time>2021-09-03T12:00:07Z</time>
      </trkpt>
      <trkpt lat="43.99256" lon="2.62708">
        <ele>199</ele>
        <time>2021-09-03T12:00:09Z</time>
      </trkpt>
      <trkpt lat="43.99238" lon="2.62724">
        <ele>202</ele>
        <time>2021-09-03T12:00:15Z</time>
      </trkpt>
      <trkpt lat="43.99222" lon="2.62733">
        <ele>205</ele>
        <time>2021-09-03T12:00:21Z</time>
      </trkpt>
      <trkpt lat="43.992" lon="2.62734">
        <ele>207</ele>
        <time>2021-09-03T12:00:29Z</time>
      </trkpt>
      <trkpt lat="43.99184" lon="2.62728">
        <ele>207</ele>
        <time>2021-09-03T12:00:35Z</time>
      </trkpt>
      <trkpt lat="43.99152" lon="2.62706">
        <ele>206</ele>
        <time>2021-09-03T12:00:45Z</time>
      </trkpt>
      <trkpt lat="43.99145" lon="2.62703">
        <ele>206</ele>
        <time>2021-09-03T12:00:47Z</time>
      </trkpt>
      <trkpt lat="43.99136" lon="2.62701">
        <ele>206</ele>
        <time>2021-09-03T12:00:49Z</time>
      </trkpt>
      <trkpt lat="43.9912" lon="2.62705">
        <ele>206</ele>
        <time>2021-09-03T12:00:53Z</time>
      </trkpt>
      <trkpt lat="43.99026" lon="2.62795">
        <ele>201</ele>
        <time>2021-09-03T12:01:15Z</time>
      </trkpt>
      <trkpt lat="43.99005" lon="2.62825">
        <ele>202</ele>
        <time>2021-09-03T12:01:21Z</time>
      </trkpt>
      <trkpt lat="43.98965" lon="2.62927">
        <ele>209</ele>
        <time>2021-09-03T12:01:35Z</time>
      </trkpt>
      <trkpt lat="43.9894" lon="2.6312">
        <ele>234</ele>
        <time>2021-09-03T12:01:58Z</time>
      </trkpt>
      <trkpt lat="43.98932" lon="2.63306">
        <ele>246</ele>
        <time>2021-09-03T12:02:30Z</time>
      </trkpt>
      <trkpt lat="43.9891" lon="2.63564">
        <ele>245</ele>
        <time>2021-09-03T12:03:00Z</time>
      </trkpt>
      <trkpt lat="43.9889" lon="2.63797">
        <ele>248</ele>
        <time>2021-09-03T12:03:31Z</time>
      </trkpt>
      <trkpt lat="43.98882" lon="2.63906">
        <ele>250</ele>
        <time>2021-09-03T12:03:48Z</time>
      </trkpt>
      <trkpt lat="43.98873" lon="2.64108">
        <ele>250</ele>
        <time>2021-09-03T12:04:18Z</time>
      </trkpt>
      <trkpt lat="43.98855" lon="2.64257">
        <ele>248</ele>
        <time>2021-09-03T12:04:38Z</time>
      </trkpt>
      <trkpt lat="43.98871" lon="2.64422">
        <ele>251</ele>
        <time>2021-09-03T12:05:00Z</time>
      </trkpt>
      <trkpt lat="43.98907" lon="2.64569">
        <ele>255</ele>
        <time>2021-09-03T12:05:22Z</time>
      </trkpt>
      <trkpt lat="43.98964" lon="2.64767">
        <ele>261</ele>
        <time>2021-09-03T12:05:53Z</time>
      </trkpt>
      <trkpt lat="43.98985" lon="2.64843">
        <ele>261</ele>
        <time>2021-09-03T12:06:03Z</time>
      </trkpt>
      <trkpt lat="43.98995" lon="2.64921">
        <ele>263</ele>
        <time>2021-09-03T12:06:13Z</time>
      </trkpt>
      <trkpt lat="43.98972" lon="2.65091">
        <ele>260</ele>
        <time>2021-09-03T12:06:39Z</time>
      </trkpt>
      <trkpt lat="43.98963" lon="2.65154">
        <ele>253</ele>
        <time>2021-09-03T12:06:49Z</time>
      </trkpt>
      <trkpt lat="43.98925" lon="2.65333">
        <ele>242</ele>
        <time>2021-09-03T12:07:19Z</time>
      </trkpt>
      <trkpt lat="43.98896" lon="2.65461">
        <ele>233</ele>
        <time>2021-09-03T12:07:40Z</time>
      </trkpt>
      <trkpt lat="43.98859" lon="2.65566">
        <ele>223</ele>
        <time>2021-09-03T12:08:00Z</time>
      </trkpt>
      <trkpt lat="43.98848" lon="2.65639">
        <ele>225</ele>
        <time>2021-09-03T12:08:08Z</time>
      </trkpt>
      <trkpt lat="43.98802" lon="2.65783">
        <ele>216</ele>
        <time>2021-09-03T12:08:33Z</time>
      </trkpt>
      <trkpt lat="43.98799" lon="2.65793">
        <ele>214</ele>
        <time>2021-09-03T12:08:36Z</time>
      </trkpt>
      <trkpt lat="43.98795" lon="2.65795">
        <ele>215</ele>
        <time>2021-09-03T12:09:05Z</time>
      </trkpt>
      <trkpt lat="43.98795" lon="2.65804">
        <ele>217</ele>
        <time>2021-09-03T12:09:11Z</time>
      </trkpt>
      <trkpt lat="43.98795" lon="2.6581">
        <ele>221</ele>
        <time>2021-09-03T12:09:18Z</time>
      </trkpt>
      <trkpt lat="43.9878" lon="2.65836">
        <ele>227</ele>
        <time>2021-09-03T12:09:31Z</time>
      </trkpt>
      <trkpt lat="43.98772" lon="2.65849">
        <ele>227</ele>
        <time>2021-09-03T12:09:35Z</time>
      </trkpt>
      <trkpt lat="43.98764" lon="2.65858">
        <ele>227</ele>
        <time>2021-09-03T12:09:39Z</time>
      </trkpt>
      <trkpt lat="43.98761" lon="2.65864">
        <ele>229</ele>
        <time>2021-09-03T12:09:41Z</time>
      </trkpt>
      <trkpt lat="43.98757" lon="2.65878">
        <ele>233</ele>
        <time>2021-09-03T12:09:45Z</time>
      </trkpt>
      <trkpt lat="43.98757" lon="2.65887">
        <ele>235</ele>
        <time>2021-09-03T12:09:47Z</time>
      </trkpt>
      <trkpt lat="43.98766" lon="2.65983">
        <ele>240</ele>
        <time>2021-09-03T12:10:07Z</time>
      </trkpt>
      <trkpt lat="43.98768" lon="2.65992">
        <ele>240</ele>
        <time>2021-09-03T12:10:09Z</time>
      </trkpt>
      <trkpt lat="43.98769" lon="2.66001">
        <ele>240</ele>
        <time>2021-09-03T12:10:11Z</time>
      </trkpt>
      <trkpt lat="43.988" lon="2.66159">
        <ele>240</ele>
        <time>2021-09-03T12:10:43Z</time>
      </trkpt>
      <trkpt lat="43.98801" lon="2.6618">
        <ele>240</ele>
        <time>2021-09-03T12:10:47Z</time>
      </trkpt>
      <trkpt lat="43.98802" lon="2.66188">
        <ele>241</ele>
        <time>2021-09-03T12:10:49Z</time>
      </trkpt>
      <trkpt lat="43.98806" lon="2.662">
        <ele>241</ele>
        <time>2021-09-03T12:12:59Z</time>
      </trkpt>
      <trkpt lat="43.98813" lon="2.66222">
        <ele>242</ele>
        <time>2021-09-03T12:13:05Z</time>
      </trkpt>
      <trkpt lat="43.99113" lon="2.66424">
        <ele>248</ele>
        <time>2021-09-03T12:15:02Z</time>
      </trkpt>
      <trkpt lat="43.99131" lon="2.66434">
        <ele>245</ele>
        <time>2021-09-03T12:15:03Z</time>
      </trkpt>
      <trkpt lat="43.99136" lon="2.66434">
        <ele>237</ele>
        <time>2021-09-03T12:15:37Z</time>
      </trkpt>
      <trkpt lat="43.99142" lon="2.66434">
        <ele>242</ele>
        <time>2021-09-03T12:15:42Z</time>
      </trkpt>
      <trkpt lat="43.99148" lon="2.66437">
        <ele>245</ele>
        <time>2021-09-03T12:15:59Z</time>
      </trkpt>
      <trkpt lat="43.99203" lon="2.66418">
        <ele>251</ele>
        <time>2021-09-03T12:16:26Z</time>
      </trkpt>
      <trkpt lat="43.99271" lon="2.6643">
        <ele>257</ele>
        <time>2021-09-03T12:16:39Z</time>
      </trkpt>
      <trkpt lat="43.99325" lon="2.66456">
        <ele>259</ele>
        <time>2021-09-03T12:16:50Z</time>
      </trkpt>
      <trkpt lat="43.99354" lon="2.66476">
        <ele>261</ele>
        <time>2021-09-03T12:16:56Z</time>
      </trkpt>
      <trkpt lat="43.99423" lon="2.66566">
        <ele>258</ele>
        <time>2021-09-03T12:17:13Z</time>
      </trkpt>
      <trkpt lat="43.99447" lon="2.66618">
        <ele>257</ele>
        <time>2021-09-03T12:17:21Z</time>
      </trkpt>
      <trkpt lat="43.99508" lon="2.66816">
        <ele>256</ele>
        <time>2021-09-03T12:17:52Z</time>
      </trkpt>
      <trkpt lat="43.99558" lon="2.6701">
        <ele>256</ele>
        <time>2021-09-03T12:18:24Z</time>
      </trkpt>
      <trkpt lat="43.99572" lon="2.67065">
        <ele>257</ele>
        <time>2021-09-03T12:18:37Z</time>
      </trkpt>
      <trkpt lat="43.99578" lon="2.67067">
        <ele>257</ele>
        <time>2021-09-03T12:19:51Z</time>
      </trkpt>
      <trkpt lat="43.99593" lon="2.67063">
        <ele>255</ele>
        <time>2021-09-03T12:20:00Z</time>
      </trkpt>
      <trkpt lat="43.99592" lon="2.67072">
        <ele>254</ele>
        <time>2021-09-03T12:20:39Z</time>
      </trkpt>
      <trkpt lat="43.99596" lon="2.67079">
        <ele>256</ele>
        <time>2021-09-03T12:20:42Z</time>
      </trkpt>
      <trkpt lat="43.9965" lon="2.67161">
        <ele>261</ele>
        <time>2021-09-03T12:21:13Z</time>
      </trkpt>
      <trkpt lat="43.99692" lon="2.67231">
        <ele>261</ele>
        <time>2021-09-03T12:21:42Z</time>
      </trkpt>
      <trkpt lat="43.99696" lon="2.67235">
        <ele>261</ele>
        <time>2021-09-03T12:21:44Z</time>
      </trkpt>
      <trkpt lat="43.99702" lon="2.67239">
        <ele>260</ele>
        <time>2021-09-03T12:21:47Z</time>
      </trkpt>
      <trkpt lat="43.99727" lon="2.6726">
        <ele>260</ele>
        <time>2021-09-03T12:22:00Z</time>
      </trkpt>
      <trkpt lat="43.99733" lon="2.6727">
        <ele>260</ele>
        <time>2021-09-03T12:22:04Z</time>
      </trkpt>
      <trkpt lat="43.99736" lon="2.67283">
        <ele>261</ele>
        <time>2021-09-03T12:22:08Z</time>
      </trkpt>
      <trkpt lat="43.99736" lon="2.67291">
        <ele>262</ele>
        <time>2021-09-03T12:22:11Z</time>
      </trkpt>
      <trkpt lat="43.9972" lon="2.67325">
        <ele>266</ele>
        <time>2021-09-03T12:22:25Z</time>
      </trkpt>
      <trkpt lat="43.99718" lon="2.67331">
        <ele>267</ele>
        <time>2021-09-03T12:22:27Z</time>
      </trkpt>
      <trkpt lat="43.99718" lon="2.67339">
        <ele>266</ele>
        <time>2021-09-03T12:22:29Z</time>
      </trkpt>
      <trkpt lat="43.99719" lon="2.67354">
        <ele>266</ele>
        <time>2021-09-03T12:22:33Z</time>
      </trkpt>
      <trkpt lat="43.99725" lon="2.67371">
        <ele>267</ele>
        <time>2021-09-03T12:22:37Z</time>
      </trkpt>
      <trkpt lat="43.9973" lon="2.67378">
        <ele>266</ele>
        <time>2021-09-03T12:22:39Z</time>
      </trkpt>
      <trkpt lat="43.99744" lon="2.67389">
        <ele>267</ele>
        <time>2021-09-03T12:22:43Z</time>
      </trkpt>
      <trkpt lat="43.99778" lon="2.67401">
        <ele>266</ele>
        <time>2021-09-03T12:22:53Z</time>
      </trkpt>
      <trkpt lat="43.99785" lon="2.67404">
        <ele>266</ele>
        <time>2021-09-03T12:22:55Z</time>
      </trkpt>
      <trkpt lat="43.99792" lon="2.6741">
        <ele>267</ele>
        <time>2021-09-03T12:22:57Z</time>
      </trkpt>
      <trkpt lat="43.99798" lon="2.67417">
        <ele>264</ele>
        <time>2021-09-03T12:22:59Z</time>
      </trkpt>
      <trkpt lat="43.9981" lon="2.67448">
        <ele>262</ele>
        <time>2021-09-03T12:23:05Z</time>
      </trkpt>
      <trkpt lat="43.99812" lon="2.67454">
        <ele>262</ele>
        <time>2021-09-03T12:23:06Z</time>
      </trkpt>
      <trkpt lat="43.99811" lon="2.67462">
        <ele>262</ele>
        <time>2021-09-03T12:23:07Z</time>
      </trkpt>
      <trkpt lat="43.99809" lon="2.67469">
        <ele>261</ele>
        <time>2021-09-03T12:23:08Z</time>
      </trkpt>
      <trkpt lat="43.99795" lon="2.67474">
        <ele>260</ele>
        <time>2021-09-03T12:23:12Z</time>
      </trkpt>
      <trkpt lat="43.99784" lon="2.6748">
        <ele>262</ele>
        <time>2021-09-03T12:23:16Z</time>
      </trkpt>
      <trkpt lat="43.99774" lon="2.6749">
        <ele>263</ele>
        <time>2021-09-03T12:23:20Z</time>
      </trkpt>
      <trkpt lat="43.99768" lon="2.67503">
        <ele>264</ele>
        <time>2021-09-03T12:23:24Z</time>
      </trkpt>
      <trkpt lat="43.99763" lon="2.67519">
        <ele>265</ele>
        <time>2021-09-03T12:23:28Z</time>
      </trkpt>
      <trkpt lat="43.99763" lon="2.67584">
        <ele>268</ele>
        <time>2021-09-03T12:23:44Z</time>
      </trkpt>
      <trkpt lat="43.99795" lon="2.67735">
        <ele>273</ele>
        <time>2021-09-03T12:24:16Z</time>
      </trkpt>
      <trkpt lat="43.99812" lon="2.6786">
        <ele>281</ele>
        <time>2021-09-03T12:24:46Z</time>
      </trkpt>
      <trkpt lat="43.99815" lon="2.67885">
        <ele>284</ele>
        <time>2021-09-03T12:24:54Z</time>
      </trkpt>
      <trkpt lat="43.99817" lon="2.67898">
        <ele>286</ele>
        <time>2021-09-03T12:24:58Z</time>
      </trkpt>
      <trkpt lat="43.99823" lon="2.6794">
        <ele>288</ele>
        <time>2021-09-03T12:25:10Z</time>
      </trkpt>
      <trkpt lat="43.99837" lon="2.68004">
        <ele>289</ele>
        <time>2021-09-03T12:25:29Z</time>
      </trkpt>
      <trkpt lat="43.9984" lon="2.6801">
        <ele>289</ele>
        <time>2021-09-03T12:25:31Z</time>
      </trkpt>
      <trkpt lat="43.99842" lon="2.68016">
        <ele>289</ele>
        <time>2021-09-03T12:25:33Z</time>
      </trkpt>
      <trkpt lat="43.9985" lon="2.68041">
        <ele>289</ele>
        <time>2021-09-03T12:25:41Z</time>
      </trkpt>
      <trkpt lat="43.99863" lon="2.68087">
        <ele>290</ele>
        <time>2021-09-03T12:25:55Z</time>
      </trkpt>
      <trkpt lat="43.99866" lon="2.6813">
        <ele>291</ele>
        <time>2021-09-03T12:26:07Z</time>
      </trkpt>
      <trkpt lat="43.99867" lon="2.68167">
        <ele>292</ele>
        <time>2021-09-03T12:26:17Z</time>
      </trkpt>
      <trkpt lat="43.99873" lon="2.6821">
        <ele>294</ele>
        <time>2021-09-03T12:26:29Z</time>
      </trkpt>
      <trkpt lat="43.99876" lon="2.68224">
        <ele>295</ele>
        <time>2021-09-03T12:26:33Z</time>
      </trkpt>
      <trkpt lat="43.99876" lon="2.68231">
        <ele>295</ele>
        <time>2021-09-03T12:26:35Z</time>
      </trkpt>
      <trkpt lat="43.99885" lon="2.68264">
        <ele>297</ele>
        <time>2021-09-03T12:26:45Z</time>
      </trkpt>
      <trkpt lat="43.99894" lon="2.68324">
        <ele>299</ele>
        <time>2021-09-03T12:27:01Z</time>
      </trkpt>
      <trkpt lat="43.999" lon="2.68396">
        <ele>300</ele>
        <time>2021-09-03T12:27:17Z</time>
      </trkpt>
      <trkpt lat="43.99906" lon="2.68443">
        <ele>303</ele>
        <time>2021-09-03T12:27:29Z</time>
      </trkpt>
      <trkpt lat="43.99909" lon="2.68565">
        <ele>307</ele>
        <time>2021-09-03T12:27:59Z</time>
      </trkpt>
      <trkpt lat="43.99911" lon="2.6859">
        <ele>309</ele>
        <time>2021-09-03T12:28:05Z</time>
      </trkpt>
      <trkpt lat="43.99925" lon="2.68657">
        <ele>311</ele>
        <time>2021-09-03T12:28:21Z</time>
      </trkpt>
      <trkpt lat="43.99927" lon="2.68664">
        <ele>311</ele>
        <time>2021-09-03T12:28:23Z</time>
      </trkpt>
      <trkpt lat="43.99936" lon="2.68686">
        <ele>311</ele>
        <time>2021-09-03T12:28:29Z</time>
      </trkpt>
      <trkpt lat="43.99943" lon="2.687">
        <ele>311</ele>
        <time>2021-09-03T12:28:33Z</time>
      </trkpt>
      <trkpt lat="43.99948" lon="2.68705">
        <ele>312</ele>
        <time>2021-09-03T12:28:35Z</time>
      </trkpt>
      <trkpt lat="44.00028" lon="2.6864">
        <ele>315</ele>
        <time>2021-09-03T12:29:05Z</time>
      </trkpt>
      <trkpt lat="44.0013" lon="2.6858">
        <ele>319</ele>
        <time>2021-09-03T12:29:37Z</time>
      </trkpt>
      <trkpt lat="44.00225" lon="2.68539">
        <ele>321</ele>
        <time>2021-09-03T12:30:07Z</time>
      </trkpt>
      <trkpt lat="44.00289" lon="2.68529">
        <ele>327</ele>
        <time>2021-09-03T12:30:25Z</time>
      </trkpt>
      <trkpt lat="44.00296" lon="2.68532">
        <ele>327</ele>
        <time>2021-09-03T12:30:27Z</time>
      </trkpt>
      <trkpt lat="44.00304" lon="2.68539">
        <ele>326</ele>
        <time>2021-09-03T12:30:29Z</time>
      </trkpt>
      <trkpt lat="44.00308" lon="2.68546">
        <ele>326</ele>
        <time>2021-09-03T12:30:31Z</time>
      </trkpt>
      <trkpt lat="44.0031" lon="2.68557">
        <ele>326</ele>
        <time>2021-09-03T12:30:33Z</time>
      </trkpt>
      <trkpt lat="44.0031" lon="2.68569">
        <ele>327</ele>
        <time>2021-09-03T12:30:35Z</time>
      </trkpt>
      <trkpt lat="44.00298" lon="2.68602">
        <ele>330</ele>
        <time>2021-09-03T12:30:43Z</time>
      </trkpt>
      <trkpt lat="44.00289" lon="2.68666">
        <ele>334</ele>
        <time>2021-09-03T12:30:57Z</time>
      </trkpt>
      <trkpt lat="44.00282" lon="2.68682">
        <ele>336</ele>
        <time>2021-09-03T12:31:01Z</time>
      </trkpt>
      <trkpt lat="44.00272" lon="2.68694">
        <ele>337</ele>
        <time>2021-09-03T12:31:05Z</time>
      </trkpt>
      <trkpt lat="44.00206" lon="2.68739">
        <ele>341</ele>
        <time>2021-09-03T12:31:29Z</time>
      </trkpt>
      <trkpt lat="44.00165" lon="2.68799">
        <ele>342</ele>
        <time>2021-09-03T12:31:51Z</time>
      </trkpt>
      <trkpt lat="44.00138" lon="2.68856">
        <ele>341</ele>
        <time>2021-09-03T12:32:12Z</time>
      </trkpt>
      <trkpt lat="44.00132" lon="2.68882">
        <ele>342</ele>
        <time>2021-09-03T12:32:20Z</time>
      </trkpt>
      <trkpt lat="44.00118" lon="2.68984">
        <ele>346</ele>
        <time>2021-09-03T12:32:50Z</time>
      </trkpt>
      <trkpt lat="44.00118" lon="2.68991">
        <ele>346</ele>
        <time>2021-09-03T12:32:52Z</time>
      </trkpt>
      <trkpt lat="44.00118" lon="2.68997">
        <ele>347</ele>
        <time>2021-09-03T12:32:54Z</time>
      </trkpt>
      <trkpt lat="44.00131" lon="2.69096">
        <ele>350</ele>
        <time>2021-09-03T12:33:25Z</time>
      </trkpt>
      <trkpt lat="44.00137" lon="2.69126">
        <ele>351</ele>
        <time>2021-09-03T12:33:35Z</time>
      </trkpt>
      <trkpt lat="44.00144" lon="2.69146">
        <ele>352</ele>
        <time>2021-09-03T12:33:42Z</time>
      </trkpt>
      <trkpt lat="44.00162" lon="2.69169">
        <ele>352</ele>
        <time>2021-09-03T12:33:53Z</time>
      </trkpt>
      <trkpt lat="44.00166" lon="2.69172">
        <ele>352</ele>
        <time>2021-09-03T12:33:55Z</time>
      </trkpt>
      <trkpt lat="44.00191" lon="2.69182">
        <ele>352</ele>
        <time>2021-09-03T12:34:06Z</time>
      </trkpt>
      <trkpt lat="44.00245" lon="2.69195">
        <ele>354</ele>
        <time>2021-09-03T12:34:26Z</time>
      </trkpt>
      <trkpt lat="44.0025" lon="2.69197">
        <ele>354</ele>
        <time>2021-09-03T12:34:28Z</time>
      </trkpt>
      <trkpt lat="44.00256" lon="2.69199">
        <ele>355</ele>
        <time>2021-09-03T12:34:30Z</time>
      </trkpt>
      <trkpt lat="44.0033" lon="2.69221">
        <ele>358</ele>
        <time>2021-09-03T12:34:59Z</time>
      </trkpt>
      <trkpt lat="44.0034" lon="2.69229">
        <ele>358</ele>
        <time>2021-09-03T12:35:04Z</time>
      </trkpt>
      <trkpt lat="44.00352" lon="2.69242">
        <ele>359</ele>
        <time>2021-09-03T12:35:10Z</time>
      </trkpt>
      <trkpt lat="44.00368" lon="2.69273">
        <ele>362</ele>
        <time>2021-09-03T12:35:22Z</time>
      </trkpt>
      <trkpt lat="44.00391" lon="2.69301">
        <ele>364</ele>
        <time>2021-09-03T12:35:34Z</time>
      </trkpt>
      <trkpt lat="44.00414" lon="2.69316">
        <ele>365</ele>
        <time>2021-09-03T12:35:45Z</time>
      </trkpt>
      <trkpt lat="44.0049" lon="2.69317">
        <ele>370</ele>
        <time>2021-09-03T12:36:15Z</time>
      </trkpt>
      <trkpt lat="44.00501" lon="2.69321">
        <ele>371</ele>
        <time>2021-09-03T12:36:19Z</time>
      </trkpt>
      <trkpt lat="44.0051" lon="2.69329">
        <ele>372</ele>
        <time>2021-09-03T12:36:23Z</time>
      </trkpt>
      <trkpt lat="44.00514" lon="2.69334">
        <ele>372</ele>
        <time>2021-09-03T12:36:25Z</time>
      </trkpt>
      <trkpt lat="44.00523" lon="2.69362">
        <ele>375</ele>
        <time>2021-09-03T12:36:35Z</time>
      </trkpt>
      <trkpt lat="44.00514" lon="2.6946">
        <ele>388</ele>
        <time>2021-09-03T12:37:07Z</time>
      </trkpt>
      <trkpt lat="44.00517" lon="2.69481">
        <ele>386</ele>
        <time>2021-09-03T12:37:13Z</time>
      </trkpt>
      <trkpt lat="44.00519" lon="2.69489">
        <ele>387</ele>
        <time>2021-09-03T12:37:16Z</time>
      </trkpt>
      <trkpt lat="44.00521" lon="2.69496">
        <ele>387</ele>
        <time>2021-09-03T12:37:19Z</time>
      </trkpt>
      <trkpt lat="44.0053" lon="2.69504">
        <ele>388</ele>
        <time>2021-09-03T12:37:25Z</time>
      </trkpt>
      <trkpt lat="44.00533" lon="2.69509">
        <ele>387</ele>
        <time>2021-09-03T12:37:28Z</time>
      </trkpt>
      <trkpt lat="44.0054" lon="2.69533">
        <ele>388</ele>
        <time>2021-09-03T12:37:37Z</time>
      </trkpt>
      <trkpt lat="44.00542" lon="2.6954">
        <ele>388</ele>
        <time>2021-09-03T12:37:39Z</time>
      </trkpt>
      <trkpt lat="44.00544" lon="2.69556">
        <ele>389</ele>
        <time>2021-09-03T12:37:44Z</time>
      </trkpt>
      <trkpt lat="44.00543" lon="2.69563">
        <ele>389</ele>
        <time>2021-09-03T12:37:47Z</time>
      </trkpt>
      <trkpt lat="44.00539" lon="2.69566">
        <ele>388</ele>
        <time>2021-09-03T12:37:57Z</time>
      </trkpt>
      <trkpt lat="44.00536" lon="2.69571">
        <ele>389</ele>
        <time>2021-09-03T12:38:53Z</time>
      </trkpt>
      <trkpt lat="44.0052" lon="2.69578">
        <ele>390</ele>
        <time>2021-09-03T12:39:00Z</time>
      </trkpt>
      <trkpt lat="44.00511" lon="2.69582">
        <ele>389</ele>
        <time>2021-09-03T12:39:04Z</time>
      </trkpt>
      <trkpt lat="44.00502" lon="2.69588">
        <ele>387</ele>
        <time>2021-09-03T12:39:08Z</time>
      </trkpt>
      <trkpt lat="44.00499" lon="2.69604">
        <ele>385</ele>
        <time>2021-09-03T12:39:18Z</time>
      </trkpt>
      <trkpt lat="44.00496" lon="2.69609">
        <ele>385</ele>
        <time>2021-09-03T12:39:21Z</time>
      </trkpt>
      <trkpt lat="44.00491" lon="2.69616">
        <ele>385</ele>
        <time>2021-09-03T12:39:24Z</time>
      </trkpt>
      <trkpt lat="44.00487" lon="2.6962">
        <ele>385</ele>
        <time>2021-09-03T12:39:26Z</time>
      </trkpt>
      <trkpt lat="44.00483" lon="2.69625">
        <ele>384</ele>
        <time>2021-09-03T12:39:28Z</time>
      </trkpt>
      <trkpt lat="44.00476" lon="2.69639">
        <ele>381</ele>
        <time>2021-09-03T12:39:36Z</time>
      </trkpt>
      <trkpt lat="44.00471" lon="2.69641">
        <ele>378</ele>
        <time>2021-09-03T12:39:38Z</time>
      </trkpt>
      <trkpt lat="44.00466" lon="2.69643">
        <ele>377</ele>
        <time>2021-09-03T12:39:41Z</time>
      </trkpt>
      <trkpt lat="44.00466" lon="2.69636">
        <ele>376</ele>
        <time>2021-09-03T12:39:48Z</time>
      </trkpt>
      <trkpt lat="44.00475" lon="2.69627">
        <ele>374</ele>
        <time>2021-09-03T12:39:53Z</time>
      </trkpt>
      <trkpt lat="44.00478" lon="2.69622">
        <ele>373</ele>
        <time>2021-09-03T12:39:55Z</time>
      </trkpt>
      <trkpt lat="44.0048" lon="2.69616">
        <ele>372</ele>
        <time>2021-09-03T12:39:57Z</time>
      </trkpt>
      <trkpt lat="44.00487" lon="2.69613">
        <ele>372</ele>
        <time>2021-09-03T12:40:00Z</time>
      </trkpt>
      <trkpt lat="44.00491" lon="2.69607">
        <ele>373</ele>
        <time>2021-09-03T12:40:03Z</time>
      </trkpt>
      <trkpt lat="44.00503" lon="2.69627">
        <ele>373</ele>
        <time>2021-09-03T12:40:13Z</time>
      </trkpt>
      <trkpt lat="44.00519" lon="2.69659">
        <ele>369</ele>
        <time>2021-09-03T12:40:21Z</time>
      </trkpt>
      <trkpt lat="44.00525" lon="2.69666">
        <ele>368</ele>
        <time>2021-09-03T12:40:23Z</time>
      </trkpt>
      <trkpt lat="44.0053" lon="2.69675">
        <ele>367</ele>
        <time>2021-09-03T12:40:25Z</time>
      </trkpt>
      <trkpt lat="44.00539" lon="2.69698">
        <ele>360</ele>
        <time>2021-09-03T12:40:29Z</time>
      </trkpt>
      <trkpt lat="44.00556" lon="2.69753">
        <ele>360</ele>
        <time>2021-09-03T12:40:38Z</time>
      </trkpt>
      <trkpt lat="44.00565" lon="2.69787">
        <ele>360</ele>
        <time>2021-09-03T12:40:43Z</time>
      </trkpt>
      <trkpt lat="44.00577" lon="2.69902">
        <ele>358</ele>
        <time>2021-09-03T12:40:57Z</time>
      </trkpt>
      <trkpt lat="44.00579" lon="2.69911">
        <ele>358</ele>
        <time>2021-09-03T12:40:58Z</time>
      </trkpt>
      <trkpt lat="44.00583" lon="2.69919">
        <ele>357</ele>
        <time>2021-09-03T12:40:59Z</time>
      </trkpt>
      <trkpt lat="44.00592" lon="2.69933">
        <ele>357</ele>
        <time>2021-09-03T12:41:01Z</time>
      </trkpt>
      <trkpt lat="44.00663" lon="2.69987">
        <ele>353</ele>
        <time>2021-09-03T12:41:11Z</time>
      </trkpt>
      <trkpt lat="44.00683" lon="2.70013">
        <ele>352</ele>
        <time>2021-09-03T12:41:14Z</time>
      </trkpt>
      <trkpt lat="44.00697" lon="2.70025">
        <ele>351</ele>
        <time>2021-09-03T12:41:16Z</time>
      </trkpt>
      <trkpt lat="44.00777" lon="2.70034">
        <ele>346</ele>
        <time>2021-09-03T12:41:24Z</time>
      </trkpt>
      <trkpt lat="44.00798" lon="2.70031">
        <ele>345</ele>
        <time>2021-09-03T12:41:26Z</time>
      </trkpt>
      <trkpt lat="44.00816" lon="2.70021">
        <ele>344</ele>
        <time>2021-09-03T12:41:28Z</time>
      </trkpt>
      <trkpt lat="44.00851" lon="2.69987">
        <ele>341</ele>
        <time>2021-09-03T12:41:33Z</time>
      </trkpt>
      <trkpt lat="44.00857" lon="2.69983">
        <ele>340</ele>
        <time>2021-09-03T12:41:34Z</time>
      </trkpt>
      <trkpt lat="44.00864" lon="2.69983">
        <ele>340</ele>
        <time>2021-09-03T12:41:35Z</time>
      </trkpt>
      <trkpt lat="44.00872" lon="2.69988">
        <ele>341</ele>
        <time>2021-09-03T12:41:36Z</time>
      </trkpt>
      <trkpt lat="44.00877" lon="2.69995">
        <ele>341</ele>
        <time>2021-09-03T12:41:37Z</time>
      </trkpt>
      <trkpt lat="44.00876" lon="2.70016">
        <ele>341</ele>
        <time>2021-09-03T12:41:39Z</time>
      </trkpt>
      <trkpt lat="44.00849" lon="2.70073">
        <ele>341</ele>
        <time>2021-09-03T12:41:45Z</time>
      </trkpt>
      <trkpt lat="44.00818" lon="2.70105">
        <ele>339</ele>
        <time>2021-09-03T12:41:49Z</time>
      </trkpt>
      <trkpt lat="44.00752" lon="2.70131">
        <ele>335</ele>
        <time>2021-09-03T12:41:56Z</time>
      </trkpt>
      <trkpt lat="44.00688" lon="2.7014">
        <ele>334</ele>
        <time>2021-09-03T12:42:02Z</time>
      </trkpt>
      <trkpt lat="44.00651" lon="2.70166">
        <ele>336</ele>
        <time>2021-09-03T12:42:06Z</time>
      </trkpt>
      <trkpt lat="44.00548" lon="2.70306">
        <ele>331</ele>
        <time>2021-09-03T12:42:21Z</time>
      </trkpt>
      <trkpt lat="44.00481" lon="2.70429">
        <ele>323</ele>
        <time>2021-09-03T12:42:35Z</time>
      </trkpt>
      <trkpt lat="44.00475" lon="2.70453">
        <ele>322</ele>
        <time>2021-09-03T12:42:37Z</time>
      </trkpt>
      <trkpt lat="44.00475" lon="2.70492">
        <ele>319</ele>
        <time>2021-09-03T12:42:40Z</time>
      </trkpt>
      <trkpt lat="44.00488" lon="2.7055">
        <ele>315</ele>
        <time>2021-09-03T12:42:48Z</time>
      </trkpt>
      <trkpt lat="44.00495" lon="2.70577">
        <ele>313</ele>
        <time>2021-09-03T12:42:53Z</time>
      </trkpt>
      <trkpt lat="44.00505" lon="2.70599">
        <ele>309</ele>
        <time>2021-09-03T12:43:00Z</time>
      </trkpt>
      <trkpt lat="44.0051" lon="2.70605">
        <ele>309</ele>
        <time>2021-09-03T12:43:03Z</time>
      </trkpt>
      <trkpt lat="44.00532" lon="2.70646">
        <ele>305</ele>
        <time>2021-09-03T12:43:13Z</time>
      </trkpt>
      <trkpt lat="44.00538" lon="2.70654">
        <ele>304</ele>
        <time>2021-09-03T12:43:15Z</time>
      </trkpt>
      <trkpt lat="44.00544" lon="2.70656">
        <ele>303</ele>
        <time>2021-09-03T12:43:17Z</time>
      </trkpt>
      <trkpt lat="44.00568" lon="2.70661">
        <ele>302</ele>
        <time>2021-09-03T12:43:23Z</time>
      </trkpt>
      <trkpt lat="44.00578" lon="2.70666">
        <ele>301</ele>
        <time>2021-09-03T12:43:25Z</time>
      </trkpt>
      <trkpt lat="44.00583" lon="2.7067">
        <ele>300</ele>
        <time>2021-09-03T12:43:26Z</time>
      </trkpt>
      <trkpt lat="44.00593" lon="2.70683">
        <ele>298</ele>
        <time>2021-09-03T12:43:28Z</time>
      </trkpt>
      <trkpt lat="44.00642" lon="2.7078">
        <ele>295</ele>
        <time>2021-09-03T12:43:40Z</time>
      </trkpt>
      <trkpt lat="44.00671" lon="2.70814">
        <ele>291</ele>
        <time>2021-09-03T12:43:45Z</time>
      </trkpt>
      <trkpt lat="44.007" lon="2.70869">
        <ele>287</ele>
        <time>2021-09-03T12:43:51Z</time>
      </trkpt>
      <trkpt lat="44.00714" lon="2.70884">
        <ele>286</ele>
        <time>2021-09-03T12:43:53Z</time>
      </trkpt>
      <trkpt lat="44.00865" lon="2.70997">
        <ele>272</ele>
        <time>2021-09-03T12:44:12Z</time>
      </trkpt>
      <trkpt lat="44.00885" lon="2.71018">
        <ele>271</ele>
        <time>2021-09-03T12:44:15Z</time>
      </trkpt>
      <trkpt lat="44.00981" lon="2.71063">
        <ele>262</ele>
        <time>2021-09-03T12:44:27Z</time>
      </trkpt>
      <trkpt lat="44.00987" lon="2.7107">
        <ele>261</ele>
        <time>2021-09-03T12:44:28Z</time>
      </trkpt>
      <trkpt lat="44.00992" lon="2.71078">
        <ele>260</ele>
        <time>2021-09-03T12:44:29Z</time>
      </trkpt>
      <trkpt lat="44.01001" lon="2.71124">
        <ele>258</ele>
        <time>2021-09-03T12:44:33Z</time>
      </trkpt>
      <trkpt lat="44.01006" lon="2.71133">
        <ele>258</ele>
        <time>2021-09-03T12:44:34Z</time>
      </trkpt>
      <trkpt lat="44.01012" lon="2.71141">
        <ele>258</ele>
        <time>2021-09-03T12:44:35Z</time>
      </trkpt>
      <trkpt lat="44.01019" lon="2.71147">
        <ele>257</ele>
        <time>2021-09-03T12:44:36Z</time>
      </trkpt>
      <trkpt lat="44.01027" lon="2.7115">
        <ele>257</ele>
        <time>2021-09-03T12:44:37Z</time>
      </trkpt>
      <trkpt lat="44.01043" lon="2.71149">
        <ele>256</ele>
        <time>2021-09-03T12:44:39Z</time>
      </trkpt>
      <trkpt lat="44.01083" lon="2.71124">
        <ele>257</ele>
        <time>2021-09-03T12:44:45Z</time>
      </trkpt>
      <trkpt lat="44.01097" lon="2.71123">
        <ele>256</ele>
        <time>2021-09-03T12:44:47Z</time>
      </trkpt>
      <trkpt lat="44.01134" lon="2.71136">
        <ele>257</ele>
        <time>2021-09-03T12:44:52Z</time>
      </trkpt>
      <trkpt lat="44.01294" lon="2.71227">
        <ele>250</ele>
        <time>2021-09-03T12:45:18Z</time>
      </trkpt>
      <trkpt lat="44.01325" lon="2.71235">
        <ele>250</ele>
        <time>2021-09-03T12:45:25Z</time>
      </trkpt>
      <trkpt lat="44.01416" lon="2.71223">
        <ele>248</ele>
        <time>2021-09-03T12:45:55Z</time>
      </trkpt>
      <trkpt lat="44.01524" lon="2.71216">
        <ele>252</ele>
        <time>2021-09-03T12:46:26Z</time>
      </trkpt>
      <trkpt lat="44.01579" lon="2.71216">
        <ele>252</ele>
        <time>2021-09-03T12:46:39Z</time>
      </trkpt>
      <trkpt lat="44.01593" lon="2.71215">
        <ele>255</ele>
        <time>2021-09-03T12:46:42Z</time>
      </trkpt>
      <trkpt lat="44.01609" lon="2.7121">
        <ele>258</ele>
        <time>2021-09-03T12:46:46Z</time>
      </trkpt>
      <trkpt lat="44.01628" lon="2.71198">
        <ele>260</ele>
        <time>2021-09-03T12:46:52Z</time>
      </trkpt>
      <trkpt lat="44.01636" lon="2.71185">
        <ele>260</ele>
        <time>2021-09-03T12:46:56Z</time>
      </trkpt>
      <trkpt lat="44.01641" lon="2.71171">
        <ele>262</ele>
        <time>2021-09-03T12:47:01Z</time>
      </trkpt>
      <trkpt lat="44.01642" lon="2.71152">
        <ele>264</ele>
        <time>2021-09-03T12:47:07Z</time>
      </trkpt>
      <trkpt lat="44.01649" lon="2.71129">
        <ele>264</ele>
        <time>2021-09-03T12:47:16Z</time>
      </trkpt>
      <trkpt lat="44.01656" lon="2.71116">
        <ele>265</ele>
        <time>2021-09-03T12:47:22Z</time>
      </trkpt>
      <trkpt lat="44.01667" lon="2.71105">
        <ele>264</ele>
        <time>2021-09-03T12:47:28Z</time>
      </trkpt>
      <trkpt lat="44.01673" lon="2.71104">
        <ele>266</ele>
        <time>2021-09-03T12:47:31Z</time>
      </trkpt>
      <trkpt lat="44.01685" lon="2.71117">
        <ele>269</ele>
        <time>2021-09-03T12:47:39Z</time>
      </trkpt>
      <trkpt lat="44.01687" lon="2.71132">
        <ele>271</ele>
        <time>2021-09-03T12:47:45Z</time>
      </trkpt>
      <trkpt lat="44.01691" lon="2.71188">
        <ele>275</ele>
        <time>2021-09-03T12:48:05Z</time>
      </trkpt>
      <trkpt lat="44.01746" lon="2.7121">
        <ele>279</ele>
        <time>2021-09-03T12:48:35Z</time>
      </trkpt>
      <trkpt lat="44.018" lon="2.71214">
        <ele>288</ele>
        <time>2021-09-03T12:49:05Z</time>
      </trkpt>
      <trkpt lat="44.01857" lon="2.71234">
        <ele>293</ele>
        <time>2021-09-03T12:49:36Z</time>
      </trkpt>
      <trkpt lat="44.01891" lon="2.71268">
        <ele>294</ele>
        <time>2021-09-03T12:49:54Z</time>
      </trkpt>
      <trkpt lat="44.01928" lon="2.71307">
        <ele>290</ele>
        <time>2021-09-03T12:50:05Z</time>
      </trkpt>
      <trkpt lat="44.01933" lon="2.7131">
        <ele>290</ele>
        <time>2021-09-03T12:50:06Z</time>
      </trkpt>
      <trkpt lat="44.01938" lon="2.71311">
        <ele>290</ele>
        <time>2021-09-03T12:50:07Z</time>
      </trkpt>
      <trkpt lat="44.01943" lon="2.71311">
        <ele>289</ele>
        <time>2021-09-03T12:50:08Z</time>
      </trkpt>
      <trkpt lat="44.0197" lon="2.71293">
        <ele>286</ele>
        <time>2021-09-03T12:50:13Z</time>
      </trkpt>
      <trkpt lat="44.01983" lon="2.71289">
        <ele>284</ele>
        <time>2021-09-03T12:50:15Z</time>
      </trkpt>
      <trkpt lat="44.0199" lon="2.7129">
        <ele>283</ele>
        <time>2021-09-03T12:50:16Z</time>
      </trkpt>
      <trkpt lat="44.01996" lon="2.71294">
        <ele>283</ele>
        <time>2021-09-03T12:50:17Z</time>
      </trkpt>
      <trkpt lat="44.02002" lon="2.71302">
        <ele>282</ele>
        <time>2021-09-03T12:50:18Z</time>
      </trkpt>
      <trkpt lat="44.02013" lon="2.71342">
        <ele>280</ele>
        <time>2021-09-03T12:50:22Z</time>
      </trkpt>
      <trkpt lat="44.02024" lon="2.7136">
        <ele>279</ele>
        <time>2021-09-03T12:50:24Z</time>
      </trkpt>
      <trkpt lat="44.02037" lon="2.71372">
        <ele>279</ele>
        <time>2021-09-03T12:50:26Z</time>
      </trkpt>
      <trkpt lat="44.02071" lon="2.71391">
        <ele>277</ele>
        <time>2021-09-03T12:50:30Z</time>
      </trkpt>
      <trkpt lat="44.0211" lon="2.71415">
        <ele>276</ele>
        <time>2021-09-03T12:50:34Z</time>
      </trkpt>
      <trkpt lat="44.0226" lon="2.71457">
        <ele>267</ele>
        <time>2021-09-03T12:50:50Z</time>
      </trkpt>
      <trkpt lat="44.02343" lon="2.71464">
        <ele>265</ele>
        <time>2021-09-03T12:51:04Z</time>
      </trkpt>
      <trkpt lat="44.02406" lon="2.71493">
        <ele>265</ele>
        <time>2021-09-03T12:51:19Z</time>
      </trkpt>
      <trkpt lat="44.02468" lon="2.71494">
        <ele>264</ele>
        <time>2021-09-03T12:51:34Z</time>
      </trkpt>
      <trkpt lat="44.02484" lon="2.71499">
        <ele>264</ele>
        <time>2021-09-03T12:51:38Z</time>
      </trkpt>
      <trkpt lat="44.02507" lon="2.71518">
        <ele>264</ele>
        <time>2021-09-03T12:51:44Z</time>
      </trkpt>
      <trkpt lat="44.02544" lon="2.71564">
        <ele>264</ele>
        <time>2021-09-03T12:51:55Z</time>
      </trkpt>
      <trkpt lat="44.02602" lon="2.71684">
        <ele>263</ele>
        <time>2021-09-03T12:52:16Z</time>
      </trkpt>
      <trkpt lat="44.02626" lon="2.71714">
        <ele>262</ele>
        <time>2021-09-03T12:52:22Z</time>
      </trkpt>
      <trkpt lat="44.02636" lon="2.71732">
        <ele>262</ele>
        <time>2021-09-03T12:52:25Z</time>
      </trkpt>
      <trkpt lat="44.02637" lon="2.71789">
        <ele>265</ele>
        <time>2021-09-03T12:52:33Z</time>
      </trkpt>
      <trkpt lat="44.02648" lon="2.71822">
        <ele>264</ele>
        <time>2021-09-03T12:52:39Z</time>
      </trkpt>
      <trkpt lat="44.02673" lon="2.71861">
        <ele>270</ele>
        <time>2021-09-03T12:52:49Z</time>
      </trkpt>
      <trkpt lat="44.0272" lon="2.71907">
        <ele>271</ele>
        <time>2021-09-03T12:53:03Z</time>
      </trkpt>
      <trkpt lat="44.02781" lon="2.71936">
        <ele>271</ele>
        <time>2021-09-03T12:53:19Z</time>
      </trkpt>
      <trkpt lat="44.02801" lon="2.71939">
        <ele>274</ele>
        <time>2021-09-03T12:53:26Z</time>
      </trkpt>
      <trkpt lat="44.02921" lon="2.71981">
        <ele>267</ele>
        <time>2021-09-03T12:54:38Z</time>
      </trkpt>
      <trkpt lat="44.02928" lon="2.7198">
        <ele>268</ele>
        <time>2021-09-03T12:54:41Z</time>
      </trkpt>
      <trkpt lat="44.02963" lon="2.71988">
        <ele>268</ele>
        <time>2021-09-03T12:54:51Z</time>
      </trkpt>
      <trkpt lat="44.0304" lon="2.7204">
        <ele>266</ele>
        <time>2021-09-03T12:55:10Z</time>
      </trkpt>
      <trkpt lat="44.03097" lon="2.72094">
        <ele>261</ele>
        <time>2021-09-03T12:55:23Z</time>
      </trkpt>
      <trkpt lat="44.03113" lon="2.72115">
        <ele>260</ele>
        <time>2021-09-03T12:55:27Z</time>
      </trkpt>
      <trkpt lat="44.03165" lon="2.72179">
        <ele>259</ele>
        <time>2021-09-03T12:55:40Z</time>
      </trkpt>
      <trkpt lat="44.03199" lon="2.72232">
        <ele>260</ele>
        <time>2021-09-03T12:55:49Z</time>
      </trkpt>
      <trkpt lat="44.03228" lon="2.72274">
        <ele>262</ele>
        <time>2021-09-03T12:55:57Z</time>
      </trkpt>
      <trkpt lat="44.03278" lon="2.72379">
        <ele>269</ele>
        <time>2021-09-03T12:56:16Z</time>
      </trkpt>
      <trkpt lat="44.03294" lon="2.72434">
        <ele>274</ele>
        <time>2021-09-03T12:56:25Z</time>
      </trkpt>
      <trkpt lat="44.033" lon="2.72469">
        <ele>276</ele>
        <time>2021-09-03T12:56:30Z</time>
      </trkpt>
      <trkpt lat="44.03301" lon="2.72483">
        <ele>276</ele>
        <time>2021-09-03T12:56:32Z</time>
      </trkpt>
      <trkpt lat="44.03318" lon="2.72617">
        <ele>278</ele>
        <time>2021-09-03T12:56:51Z</time>
      </trkpt>
      <trkpt lat="44.03334" lon="2.72862">
        <ele>276</ele>
        <time>2021-09-03T12:57:21Z</time>
      </trkpt>
      <trkpt lat="44.03344" lon="2.72928">
        <ele>276</ele>
        <time>2021-09-03T12:57:29Z</time>
      </trkpt>
      <trkpt lat="44.03391" lon="2.73045">
        <ele>274</ele>
        <time>2021-09-03T12:57:45Z</time>
      </trkpt>
      <trkpt lat="44.0341" lon="2.73072">
        <ele>271</ele>
        <time>2021-09-03T12:57:50Z</time>
      </trkpt>
      <trkpt lat="44.03461" lon="2.73107">
        <ele>269</ele>
        <time>2021-09-03T12:58:00Z</time>
      </trkpt>
      <trkpt lat="44.03498" lon="2.73119">
        <ele>270</ele>
        <time>2021-09-03T12:58:06Z</time>
      </trkpt>
      <trkpt lat="44.03608" lon="2.73139">
        <ele>270</ele>
        <time>2021-09-03T12:58:29Z</time>
      </trkpt>
      <trkpt lat="44.03634" lon="2.73156">
        <ele>269</ele>
        <time>2021-09-03T12:58:35Z</time>
      </trkpt>
      <trkpt lat="44.03773" lon="2.73314">
        <ele>264</ele>
        <time>2021-09-03T12:59:06Z</time>
      </trkpt>
      <trkpt lat="44.03893" lon="2.7347">
        <ele>263</ele>
        <time>2021-09-03T12:59:36Z</time>
      </trkpt>
      <trkpt lat="44.04013" lon="2.73629">
        <ele>265</ele>
        <time>2021-09-03T13:00:06Z</time>
      </trkpt>
      <trkpt lat="44.04125" lon="2.73805">
        <ele>268</ele>
        <time>2021-09-03T13:00:37Z</time>
      </trkpt>
      <trkpt lat="44.0422" lon="2.73977">
        <ele>270</ele>
        <time>2021-09-03T13:01:07Z</time>
      </trkpt>
      <trkpt lat="44.04307" lon="2.74136">
        <ele>274</ele>
        <time>2021-09-03T13:01:36Z</time>
      </trkpt>
      <trkpt lat="44.04442" lon="2.74303">
        <ele>266</ele>
        <time>2021-09-03T13:02:06Z</time>
      </trkpt>
      <trkpt lat="44.04522" lon="2.74434">
        <ele>265</ele>
        <time>2021-09-03T13:02:27Z</time>
      </trkpt>
      <trkpt lat="44.04567" lon="2.74552">
        <ele>267</ele>
        <time>2021-09-03T13:02:45Z</time>
      </trkpt>
      <trkpt lat="44.04604" lon="2.74626">
        <ele>268</ele>
        <time>2021-09-03T13:02:56Z</time>
      </trkpt>
      <trkpt lat="44.04617" lon="2.74662">
        <ele>268</ele>
        <time>2021-09-03T13:03:01Z</time>
      </trkpt>
      <trkpt lat="44.04659" lon="2.74746">
        <ele>269</ele>
        <time>2021-09-03T13:03:15Z</time>
      </trkpt>
      <trkpt lat="44.04724" lon="2.74942">
        <ele>271</ele>
        <time>2021-09-03T13:03:45Z</time>
      </trkpt>
      <trkpt lat="44.04748" lon="2.75051">
        <ele>268</ele>
        <time>2021-09-03T13:04:01Z</time>
      </trkpt>
      <trkpt lat="44.04751" lon="2.75072">
        <ele>267</ele>
        <time>2021-09-03T13:04:04Z</time>
      </trkpt>
      <trkpt lat="44.04782" lon="2.75257">
        <ele>260</ele>
        <time>2021-09-03T13:04:34Z</time>
      </trkpt>
      <trkpt lat="44.04811" lon="2.7538">
        <ele>258</ele>
        <time>2021-09-03T13:04:54Z</time>
      </trkpt>
      <trkpt lat="44.04819" lon="2.75402">
        <ele>258</ele>
        <time>2021-09-03T13:04:58Z</time>
      </trkpt>
      <trkpt lat="44.04828" lon="2.75417">
        <ele>258</ele>
        <time>2021-09-03T13:05:01Z</time>
      </trkpt>
      <trkpt lat="44.0484" lon="2.75427">
        <ele>258</ele>
        <time>2021-09-03T13:05:04Z</time>
      </trkpt>
      <trkpt lat="44.04847" lon="2.75431">
        <ele>259</ele>
        <time>2021-09-03T13:05:06Z</time>
      </trkpt>
      <trkpt lat="44.04855" lon="2.75436">
        <ele>259</ele>
        <time>2021-09-03T13:05:08Z</time>
      </trkpt>
      <trkpt lat="44.04863" lon="2.75452">
        <ele>260</ele>
        <time>2021-09-03T13:05:12Z</time>
      </trkpt>
      <trkpt lat="44.04867" lon="2.75467">
        <ele>260</ele>
        <time>2021-09-03T13:05:16Z</time>
      </trkpt>
      <trkpt lat="44.04872" lon="2.75496">
        <ele>259</ele>
        <time>2021-09-03T13:05:29Z</time>
      </trkpt>
      <trkpt lat="44.04874" lon="2.75503">
        <ele>259</ele>
        <time>2021-09-03T13:05:34Z</time>
      </trkpt>
      <trkpt lat="44.04874" lon="2.75519">
        <ele>261</ele>
        <time>2021-09-03T13:05:40Z</time>
      </trkpt>
      <trkpt lat="44.04885" lon="2.75557">
        <ele>262</ele>
        <time>2021-09-03T13:05:50Z</time>
      </trkpt>
      <trkpt lat="44.04894" lon="2.75575">
        <ele>263</ele>
        <time>2021-09-03T13:05:54Z</time>
      </trkpt>
      <trkpt lat="44.04905" lon="2.75603">
        <ele>264</ele>
        <time>2021-09-03T13:06:00Z</time>
      </trkpt>
      <trkpt lat="44.04912" lon="2.75669">
        <ele>269</ele>
        <time>2021-09-03T13:06:12Z</time>
      </trkpt>
      <trkpt lat="44.0492" lon="2.75726">
        <ele>269</ele>
        <time>2021-09-03T13:06:24Z</time>
      </trkpt>
      <trkpt lat="44.04907" lon="2.75878">
        <ele>273</ele>
        <time>2021-09-03T13:06:56Z</time>
      </trkpt>
      <trkpt lat="44.04907" lon="2.75897">
        <ele>272</ele>
        <time>2021-09-03T13:07:00Z</time>
      </trkpt>
      <trkpt lat="44.04913" lon="2.75954">
        <ele>271</ele>
        <time>2021-09-03T13:07:12Z</time>
      </trkpt>
      <trkpt lat="44.04921" lon="2.75995">
        <ele>271</ele>
        <time>2021-09-03T13:07:22Z</time>
      </trkpt>
      <trkpt lat="44.04957" lon="2.76073">
        <ele>270</ele>
        <time>2021-09-03T13:07:44Z</time>
      </trkpt>
      <trkpt lat="44.04959" lon="2.76081">
        <ele>270</ele>
        <time>2021-09-03T13:07:46Z</time>
      </trkpt>
      <trkpt lat="44.04985" lon="2.7614">
        <ele>269</ele>
        <time>2021-09-03T13:08:04Z</time>
      </trkpt>
      <trkpt lat="44.04987" lon="2.76147">
        <ele>269</ele>
        <time>2021-09-03T13:08:06Z</time>
      </trkpt>
      <trkpt lat="44.04989" lon="2.76155">
        <ele>270</ele>
        <time>2021-09-03T13:08:08Z</time>
      </trkpt>
      <trkpt lat="44.04988" lon="2.7617">
        <ele>271</ele>
        <time>2021-09-03T13:08:12Z</time>
      </trkpt>
      <trkpt lat="44.04918" lon="2.76288">
        <ele>270</ele>
        <time>2021-09-03T13:08:42Z</time>
      </trkpt>
      <trkpt lat="44.04916" lon="2.76296">
        <ele>270</ele>
        <time>2021-09-03T13:08:44Z</time>
      </trkpt>
      <trkpt lat="44.04915" lon="2.76304">
        <ele>270</ele>
        <time>2021-09-03T13:08:46Z</time>
      </trkpt>
      <trkpt lat="44.04917" lon="2.76311">
        <ele>270</ele>
        <time>2021-09-03T13:08:48Z</time>
      </trkpt>
      <trkpt lat="44.04921" lon="2.76314">
        <ele>270</ele>
        <time>2021-09-03T13:08:50Z</time>
      </trkpt>
      <trkpt lat="44.04939" lon="2.76315">
        <ele>268</ele>
        <time>2021-09-03T13:09:05Z</time>
      </trkpt>
      <trkpt lat="44.04948" lon="2.76331">
        <ele>267</ele>
        <time>2021-09-03T13:09:09Z</time>
      </trkpt>
      <trkpt lat="44.04952" lon="2.7634">
        <ele>267</ele>
        <time>2021-09-03T13:09:11Z</time>
      </trkpt>
      <trkpt lat="44.04957" lon="2.76345">
        <ele>266</ele>
        <time>2021-09-03T13:09:13Z</time>
      </trkpt>
      <trkpt lat="44.04961" lon="2.76348">
        <ele>267</ele>
        <time>2021-09-03T13:09:16Z</time>
      </trkpt>
      <trkpt lat="44.04959" lon="2.76347">
        <ele>275</ele>
        <time>2021-09-03T13:17:10Z</time>
      </trkpt>
      <trkpt lat="44.04953" lon="2.76343">
        <ele>275</ele>
        <time>2021-09-03T13:17:12Z</time>
      </trkpt>
      <trkpt lat="44.04942" lon="2.76318">
        <ele>278</ele>
        <time>2021-09-03T13:17:18Z</time>
      </trkpt>
      <trkpt lat="44.04937" lon="2.76315">
        <ele>278</ele>
        <time>2021-09-03T13:17:21Z</time>
      </trkpt>
      <trkpt lat="44.04933" lon="2.76314">
        <ele>279</ele>
        <time>2021-09-03T13:17:23Z</time>
      </trkpt>
      <trkpt lat="44.04928" lon="2.7632">
        <ele>279</ele>
        <time>2021-09-03T13:17:26Z</time>
      </trkpt>
      <trkpt lat="44.04927" lon="2.76327">
        <ele>280</ele>
        <time>2021-09-03T13:17:28Z</time>
      </trkpt>
      <trkpt lat="44.0493" lon="2.76334">
        <ele>280</ele>
        <time>2021-09-03T13:17:31Z</time>
      </trkpt>
      <trkpt lat="44.04957" lon="2.7636">
        <ele>282</ele>
        <time>2021-09-03T13:17:45Z</time>
      </trkpt>
    </trkseg>
  </trk>
  <trk>
    <name><![CDATA[j9]]></name>
    <desc><![CDATA[comment ...]]></desc>
    <extensions>
      <line xmlns="http://www.topografix.com/GPX/gpx_style/0/2">
        <color>800000</color>
        <width>4</width>
      </line>
    </extensions>
    <trkseg>
      <trkpt lat="44.04921" lon="2.76391">
        <ele>355</ele>
        <time>2021-09-04T07:19:00Z</time>
      </trkpt>
      <trkpt lat="44.04946" lon="2.76367">
        <ele>436</ele>
        <time>2021-09-04T07:19:01Z</time>
      </trkpt>
      <trkpt lat="44.04955" lon="2.76371">
        <ele>447</ele>
        <time>2021-09-04T07:19:03Z</time>
      </trkpt>
      <trkpt lat="44.05141" lon="2.76071">
        <ele>322</ele>
        <time>2021-09-04T07:19:05Z</time>
      </trkpt>
      <trkpt lat="44.04962" lon="2.76307">
        <ele>526</ele>
        <time>2021-09-04T07:19:10Z</time>
      </trkpt>
      <trkpt lat="44.04953" lon="2.76293">
        <ele>630</ele>
        <time>2021-09-04T07:19:11Z</time>
      </trkpt>
      <trkpt lat="44.04985" lon="2.76386">
        <ele>550</ele>
        <time>2021-09-04T07:19:12Z</time>
      </trkpt>
      <trkpt lat="44.04953" lon="2.76345">
        <ele>162</ele>
        <time>2021-09-04T07:19:13Z</time>
      </trkpt>
      <trkpt lat="44.04954" lon="2.76354">
        <ele>166</ele>
        <time>2021-09-04T07:19:24Z</time>
      </trkpt>
      <trkpt lat="44.04949" lon="2.76358">
        <ele>194</ele>
        <time>2021-09-04T07:19:46Z</time>
      </trkpt>
      <trkpt lat="44.04944" lon="2.76357">
        <ele>202</ele>
        <time>2021-09-04T07:19:49Z</time>
      </trkpt>
      <trkpt lat="44.0494" lon="2.76354">
        <ele>208</ele>
        <time>2021-09-04T07:19:51Z</time>
      </trkpt>
      <trkpt lat="44.04937" lon="2.76349">
        <ele>211</ele>
        <time>2021-09-04T07:19:53Z</time>
      </trkpt>
      <trkpt lat="44.04934" lon="2.76341">
        <ele>217</ele>
        <time>2021-09-04T07:19:56Z</time>
      </trkpt>
      <trkpt lat="44.04931" lon="2.76334">
        <ele>222</ele>
        <time>2021-09-04T07:19:59Z</time>
      </trkpt>
      <trkpt lat="44.0492" lon="2.7633">
        <ele>234</ele>
        <time>2021-09-04T07:20:05Z</time>
      </trkpt>
      <trkpt lat="44.04917" lon="2.76335">
        <ele>240</ele>
        <time>2021-09-04T07:20:09Z</time>
      </trkpt>
      <trkpt lat="44.04915" lon="2.76342">
        <ele>242</ele>
        <time>2021-09-04T07:20:12Z</time>
      </trkpt>
      <trkpt lat="44.04918" lon="2.76348">
        <ele>243</ele>
        <time>2021-09-04T07:20:15Z</time>
      </trkpt>
      <trkpt lat="44.04937" lon="2.76369">
        <ele>250</ele>
        <time>2021-09-04T07:20:23Z</time>
      </trkpt>
      <trkpt lat="44.04943" lon="2.76374">
        <ele>253</ele>
        <time>2021-09-04T07:20:25Z</time>
      </trkpt>
      <trkpt lat="44.04949" lon="2.76379">
        <ele>257</ele>
        <time>2021-09-04T07:20:27Z</time>
      </trkpt>
      <trkpt lat="44.04956" lon="2.76383">
        <ele>259</ele>
        <time>2021-09-04T07:20:29Z</time>
      </trkpt>
      <trkpt lat="44.04962" lon="2.76387">
        <ele>262</ele>
        <time>2021-09-04T07:20:31Z</time>
      </trkpt>
      <trkpt lat="44.05003" lon="2.76411">
        <ele>271</ele>
        <time>2021-09-04T07:20:43Z</time>
      </trkpt>
      <trkpt lat="44.05065" lon="2.76437">
        <ele>275</ele>
        <time>2021-09-04T07:21:06Z</time>
      </trkpt>
      <trkpt lat="44.05102" lon="2.76443">
        <ele>281</ele>
        <time>2021-09-04T07:21:20Z</time>
      </trkpt>
      <trkpt lat="44.05122" lon="2.76448">
        <ele>284</ele>
        <time>2021-09-04T07:21:27Z</time>
      </trkpt>
      <trkpt lat="44.05243" lon="2.76471">
        <ele>278</ele>
        <time>2021-09-04T07:21:56Z</time>
      </trkpt>
      <trkpt lat="44.05326" lon="2.76504">
        <ele>278</ele>
        <time>2021-09-04T07:22:15Z</time>
      </trkpt>
      <trkpt lat="44.05414" lon="2.76569">
        <ele>278</ele>
        <time>2021-09-04T07:22:45Z</time>
      </trkpt>
      <trkpt lat="44.05501" lon="2.76622">
        <ele>290</ele>
        <time>2021-09-04T07:23:15Z</time>
      </trkpt>
      <trkpt lat="44.05583" lon="2.76688">
        <ele>296</ele>
        <time>2021-09-04T07:23:45Z</time>
      </trkpt>
      <trkpt lat="44.05644" lon="2.76709">
        <ele>304</ele>
        <time>2021-09-04T07:24:05Z</time>
      </trkpt>
      <trkpt lat="44.05656" lon="2.76717">
        <ele>304</ele>
        <time>2021-09-04T07:24:09Z</time>
      </trkpt>
      <trkpt lat="44.05674" lon="2.76743">
        <ele>301</ele>
        <time>2021-09-04T07:24:17Z</time>
      </trkpt>
      <trkpt lat="44.05693" lon="2.76785">
        <ele>299</ele>
        <time>2021-09-04T07:24:34Z</time>
      </trkpt>
      <trkpt lat="44.05739" lon="2.76849">
        <ele>297</ele>
        <time>2021-09-04T07:25:07Z</time>
      </trkpt>
      <trkpt lat="44.05774" lon="2.76892">
        <ele>298</ele>
        <time>2021-09-04T07:25:38Z</time>
      </trkpt>
      <trkpt lat="44.05809" lon="2.76933">
        <ele>300</ele>
        <time>2021-09-04T07:26:10Z</time>
      </trkpt>
      <trkpt lat="44.05813" lon="2.76938">
        <ele>300</ele>
        <time>2021-09-04T07:26:13Z</time>
      </trkpt>
      <trkpt lat="44.05818" lon="2.76943">
        <ele>301</ele>
        <time>2021-09-04T07:26:17Z</time>
      </trkpt>
      <trkpt lat="44.0583" lon="2.76958">
        <ele>302</ele>
        <time>2021-09-04T07:26:28Z</time>
      </trkpt>
      <trkpt lat="44.05846" lon="2.76978">
        <ele>303</ele>
        <time>2021-09-04T07:26:42Z</time>
      </trkpt>
      <trkpt lat="44.05849" lon="2.76982">
        <ele>303</ele>
        <time>2021-09-04T07:26:45Z</time>
      </trkpt>
      <trkpt lat="44.05853" lon="2.76988">
        <ele>303</ele>
        <time>2021-09-04T07:26:49Z</time>
      </trkpt>
      <trkpt lat="44.0588" lon="2.77022">
        <ele>307</ele>
        <time>2021-09-04T07:27:18Z</time>
      </trkpt>
      <trkpt lat="44.05902" lon="2.77045">
        <ele>309</ele>
        <time>2021-09-04T07:27:37Z</time>
      </trkpt>
      <trkpt lat="44.05906" lon="2.7705">
        <ele>310</ele>
        <time>2021-09-04T07:27:41Z</time>
      </trkpt>
      <trkpt lat="44.0591" lon="2.77056">
        <ele>310</ele>
        <time>2021-09-04T07:27:45Z</time>
      </trkpt>
      <trkpt lat="44.0592" lon="2.77063">
        <ele>312</ele>
        <time>2021-09-04T07:27:55Z</time>
      </trkpt>
      <trkpt lat="44.05925" lon="2.77065">
        <ele>314</ele>
        <time>2021-09-04T07:27:59Z</time>
      </trkpt>
      <trkpt lat="44.05929" lon="2.77066">
        <ele>314</ele>
        <time>2021-09-04T07:28:03Z</time>
      </trkpt>
      <trkpt lat="44.05939" lon="2.77065">
        <ele>317</ele>
        <time>2021-09-04T07:28:10Z</time>
      </trkpt>
      <trkpt lat="44.05945" lon="2.77066">
        <ele>319</ele>
        <time>2021-09-04T07:28:14Z</time>
      </trkpt>
      <trkpt lat="44.05981" lon="2.77068">
        <ele>322</ele>
        <time>2021-09-04T07:28:42Z</time>
      </trkpt>
      <trkpt lat="44.05986" lon="2.77067">
        <ele>322</ele>
        <time>2021-09-04T07:28:46Z</time>
      </trkpt>
      <trkpt lat="44.05996" lon="2.77067">
        <ele>323</ele>
        <time>2021-09-04T07:28:54Z</time>
      </trkpt>
      <trkpt lat="44.06008" lon="2.77071">
        <ele>322</ele>
        <time>2021-09-04T07:29:02Z</time>
      </trkpt>
      <trkpt lat="44.06013" lon="2.77073">
        <ele>322</ele>
        <time>2021-09-04T07:29:05Z</time>
      </trkpt>
      <trkpt lat="44.06018" lon="2.77075">
        <ele>323</ele>
        <time>2021-09-04T07:29:08Z</time>
      </trkpt>
      <trkpt lat="44.06033" lon="2.77079">
        <ele>322</ele>
        <time>2021-09-04T07:29:17Z</time>
      </trkpt>
      <trkpt lat="44.06086" lon="2.77093">
        <ele>322</ele>
        <time>2021-09-04T07:29:47Z</time>
      </trkpt>
      <trkpt lat="44.06098" lon="2.77095">
        <ele>323</ele>
        <time>2021-09-04T07:29:52Z</time>
      </trkpt>
      <trkpt lat="44.06109" lon="2.77101">
        <ele>323</ele>
        <time>2021-09-04T07:29:56Z</time>
      </trkpt>
      <trkpt lat="44.06114" lon="2.77107">
        <ele>322</ele>
        <time>2021-09-04T07:29:58Z</time>
      </trkpt>
      <trkpt lat="44.0613" lon="2.7716">
        <ele>322</ele>
        <time>2021-09-04T07:30:07Z</time>
      </trkpt>
      <trkpt lat="44.06148" lon="2.77271">
        <ele>318</ele>
        <time>2021-09-04T07:30:19Z</time>
      </trkpt>
      <trkpt lat="44.0615" lon="2.77351">
        <ele>318</ele>
        <time>2021-09-04T07:30:28Z</time>
      </trkpt>
      <trkpt lat="44.06125" lon="2.77498">
        <ele>316</ele>
        <time>2021-09-04T07:30:52Z</time>
      </trkpt>
      <trkpt lat="44.06103" lon="2.77571">
        <ele>318</ele>
        <time>2021-09-04T07:31:05Z</time>
      </trkpt>
      <trkpt lat="44.0606" lon="2.77627">
        <ele>317</ele>
        <time>2021-09-04T07:31:15Z</time>
      </trkpt>
      <trkpt lat="44.06035" lon="2.777">
        <ele>321</ele>
        <time>2021-09-04T07:31:25Z</time>
      </trkpt>
      <trkpt lat="44.06034" lon="2.77708">
        <ele>321</ele>
        <time>2021-09-04T07:31:26Z</time>
      </trkpt>
      <trkpt lat="44.06034" lon="2.77725">
        <ele>322</ele>
        <time>2021-09-04T07:31:28Z</time>
      </trkpt>
      <trkpt lat="44.06043" lon="2.77764">
        <ele>325</ele>
        <time>2021-09-04T07:31:32Z</time>
      </trkpt>
      <trkpt lat="44.06045" lon="2.77782">
        <ele>325</ele>
        <time>2021-09-04T07:31:34Z</time>
      </trkpt>
      <trkpt lat="44.0605" lon="2.77798">
        <ele>325</ele>
        <time>2021-09-04T07:31:36Z</time>
      </trkpt>
      <trkpt lat="44.06057" lon="2.77812">
        <ele>324</ele>
        <time>2021-09-04T07:31:38Z</time>
      </trkpt>
      <trkpt lat="44.06085" lon="2.77856">
        <ele>321</ele>
        <time>2021-09-04T07:31:45Z</time>
      </trkpt>
      <trkpt lat="44.06096" lon="2.77876">
        <ele>321</ele>
        <time>2021-09-04T07:31:48Z</time>
      </trkpt>
      <trkpt lat="44.06123" lon="2.7792">
        <ele>320</ele>
        <time>2021-09-04T07:31:56Z</time>
      </trkpt>
      <trkpt lat="44.06136" lon="2.77947">
        <ele>318</ele>
        <time>2021-09-04T07:32:00Z</time>
      </trkpt>
      <trkpt lat="44.06151" lon="2.77964">
        <ele>318</ele>
        <time>2021-09-04T07:32:03Z</time>
      </trkpt>
      <trkpt lat="44.06166" lon="2.77975">
        <ele>316</ele>
        <time>2021-09-04T07:32:06Z</time>
      </trkpt>
      <trkpt lat="44.06197" lon="2.77977">
        <ele>312</ele>
        <time>2021-09-04T07:32:12Z</time>
      </trkpt>
      <trkpt lat="44.06248" lon="2.78013">
        <ele>310</ele>
        <time>2021-09-04T07:32:22Z</time>
      </trkpt>
      <trkpt lat="44.06262" lon="2.78033">
        <ele>309</ele>
        <time>2021-09-04T07:32:26Z</time>
      </trkpt>
      <trkpt lat="44.06281" lon="2.78097">
        <ele>318</ele>
        <time>2021-09-04T07:32:40Z</time>
      </trkpt>
      <trkpt lat="44.06299" lon="2.78124">
        <ele>318</ele>
        <time>2021-09-04T07:32:48Z</time>
      </trkpt>
      <trkpt lat="44.06308" lon="2.78134">
        <ele>318</ele>
        <time>2021-09-04T07:32:52Z</time>
      </trkpt>
      <trkpt lat="44.06319" lon="2.78151">
        <ele>317</ele>
        <time>2021-09-04T07:32:58Z</time>
      </trkpt>
      <trkpt lat="44.06329" lon="2.78172">
        <ele>317</ele>
        <time>2021-09-04T07:33:04Z</time>
      </trkpt>
      <trkpt lat="44.06341" lon="2.78191">
        <ele>318</ele>
        <time>2021-09-04T07:33:10Z</time>
      </trkpt>
      <trkpt lat="44.06362" lon="2.7827">
        <ele>313</ele>
        <time>2021-09-04T07:33:28Z</time>
      </trkpt>
      <trkpt lat="44.06364" lon="2.78403">
        <ele>306</ele>
        <time>2021-09-04T07:33:50Z</time>
      </trkpt>
      <trkpt lat="44.06364" lon="2.78413">
        <ele>306</ele>
        <time>2021-09-04T07:33:52Z</time>
      </trkpt>
      <trkpt lat="44.06346" lon="2.78499">
        <ele>307</ele>
        <time>2021-09-04T07:34:06Z</time>
      </trkpt>
      <trkpt lat="44.06302" lon="2.78577">
        <ele>313</ele>
        <time>2021-09-04T07:34:18Z</time>
      </trkpt>
      <trkpt lat="44.0628" lon="2.78606">
        <ele>317</ele>
        <time>2021-09-04T07:34:23Z</time>
      </trkpt>
      <trkpt lat="44.06234" lon="2.78641">
        <ele>319</ele>
        <time>2021-09-04T07:34:32Z</time>
      </trkpt>
      <trkpt lat="44.06169" lon="2.78685">
        <ele>323</ele>
        <time>2021-09-04T07:34:48Z</time>
      </trkpt>
      <trkpt lat="44.06148" lon="2.78691">
        <ele>322</ele>
        <time>2021-09-04T07:34:54Z</time>
      </trkpt>
      <trkpt lat="44.06131" lon="2.78687">
        <ele>320</ele>
        <time>2021-09-04T07:35:00Z</time>
      </trkpt>
      <trkpt lat="44.0611" lon="2.78673">
        <ele>321</ele>
        <time>2021-09-04T07:35:08Z</time>
      </trkpt>
      <trkpt lat="44.061" lon="2.78662">
        <ele>321</ele>
        <time>2021-09-04T07:35:12Z</time>
      </trkpt>
      <trkpt lat="44.06096" lon="2.78655">
        <ele>321</ele>
        <time>2021-09-04T07:35:14Z</time>
      </trkpt>
      <trkpt lat="44.0602" lon="2.78557">
        <ele>325</ele>
        <time>2021-09-04T07:35:46Z</time>
      </trkpt>
      <trkpt lat="44.06004" lon="2.78543">
        <ele>325</ele>
        <time>2021-09-04T07:35:52Z</time>
      </trkpt>
      <trkpt lat="44.05983" lon="2.78533">
        <ele>324</ele>
        <time>2021-09-04T07:35:59Z</time>
      </trkpt>
      <trkpt lat="44.05955" lon="2.78529">
        <ele>323</ele>
        <time>2021-09-04T07:36:07Z</time>
      </trkpt>
      <trkpt lat="44.05917" lon="2.78538">
        <ele>325</ele>
        <time>2021-09-04T07:36:15Z</time>
      </trkpt>
      <trkpt lat="44.05904" lon="2.78547">
        <ele>325</ele>
        <time>2021-09-04T07:36:18Z</time>
      </trkpt>
      <trkpt lat="44.05826" lon="2.78648">
        <ele>328</ele>
        <time>2021-09-04T07:36:35Z</time>
      </trkpt>
      <trkpt lat="44.05815" lon="2.78669">
        <ele>328</ele>
        <time>2021-09-04T07:36:38Z</time>
      </trkpt>
      <trkpt lat="44.05811" lon="2.78684">
        <ele>328</ele>
        <time>2021-09-04T07:36:40Z</time>
      </trkpt>
      <trkpt lat="44.05808" lon="2.78733">
        <ele>327</ele>
        <time>2021-09-04T07:36:46Z</time>
      </trkpt>
      <trkpt lat="44.05809" lon="2.7877">
        <ele>326</ele>
        <time>2021-09-04T07:36:51Z</time>
      </trkpt>
      <trkpt lat="44.05802" lon="2.78813">
        <ele>325</ele>
        <time>2021-09-04T07:36:59Z</time>
      </trkpt>
      <trkpt lat="44.058" lon="2.7882">
        <ele>326</ele>
        <time>2021-09-04T07:37:05Z</time>
      </trkpt>
      <trkpt lat="44.05801" lon="2.7882">
        <ele>326</ele>
        <time>2021-09-04T07:37:42Z</time>
      </trkpt>
      <trkpt lat="44.05802" lon="2.78829">
        <ele>325</ele>
        <time>2021-09-04T07:38:15Z</time>
      </trkpt>
      <trkpt lat="44.05794" lon="2.78855">
        <ele>322</ele>
        <time>2021-09-04T07:38:21Z</time>
      </trkpt>
      <trkpt lat="44.05792" lon="2.78889">
        <ele>322</ele>
        <time>2021-09-04T07:38:26Z</time>
      </trkpt>
      <trkpt lat="44.05791" lon="2.78965">
        <ele>321</ele>
        <time>2021-09-04T07:38:35Z</time>
      </trkpt>
      <trkpt lat="44.05792" lon="2.78972">
        <ele>320</ele>
        <time>2021-09-04T07:38:36Z</time>
      </trkpt>
      <trkpt lat="44.05804" lon="2.79018">
        <ele>316</ele>
        <time>2021-09-04T07:38:42Z</time>
      </trkpt>
      <trkpt lat="44.05835" lon="2.79087">
        <ele>306</ele>
        <time>2021-09-04T07:38:54Z</time>
      </trkpt>
      <trkpt lat="44.05852" lon="2.79156">
        <ele>304</ele>
        <time>2021-09-04T07:39:07Z</time>
      </trkpt>
      <trkpt lat="44.05863" lon="2.79234">
        <ele>301</ele>
        <time>2021-09-04T07:39:27Z</time>
      </trkpt>
      <trkpt lat="44.05864" lon="2.79243">
        <ele>302</ele>
        <time>2021-09-04T07:39:30Z</time>
      </trkpt>
      <trkpt lat="44.05877" lon="2.79327">
        <ele>304</ele>
        <time>2021-09-04T07:40:03Z</time>
      </trkpt>
      <trkpt lat="44.05881" lon="2.79365">
        <ele>302</ele>
        <time>2021-09-04T07:40:18Z</time>
      </trkpt>
      <trkpt lat="44.05881" lon="2.79374">
        <ele>302</ele>
        <time>2021-09-04T07:40:21Z</time>
      </trkpt>
      <trkpt lat="44.05881" lon="2.7939">
        <ele>302</ele>
        <time>2021-09-04T07:40:27Z</time>
      </trkpt>
      <trkpt lat="44.05881" lon="2.79406">
        <ele>301</ele>
        <time>2021-09-04T07:40:33Z</time>
      </trkpt>
      <trkpt lat="44.05858" lon="2.79484">
        <ele>304</ele>
        <time>2021-09-04T07:41:06Z</time>
      </trkpt>
      <trkpt lat="44.05857" lon="2.79505">
        <ele>307</ele>
        <time>2021-09-04T07:41:15Z</time>
      </trkpt>
      <trkpt lat="44.05857" lon="2.79518">
        <ele>308</ele>
        <time>2021-09-04T07:41:21Z</time>
      </trkpt>
      <trkpt lat="44.05862" lon="2.7953">
        <ele>310</ele>
        <time>2021-09-04T07:41:27Z</time>
      </trkpt>
      <trkpt lat="44.05871" lon="2.79549">
        <ele>311</ele>
        <time>2021-09-04T07:41:36Z</time>
      </trkpt>
      <trkpt lat="44.05875" lon="2.79555">
        <ele>312</ele>
        <time>2021-09-04T07:41:40Z</time>
      </trkpt>
      <trkpt lat="44.05879" lon="2.7956">
        <ele>313</ele>
        <time>2021-09-04T07:41:44Z</time>
      </trkpt>
      <trkpt lat="44.05883" lon="2.79564">
        <ele>313</ele>
        <time>2021-09-04T07:41:47Z</time>
      </trkpt>
      <trkpt lat="44.05904" lon="2.79589">
        <ele>318</ele>
        <time>2021-09-04T07:42:02Z</time>
      </trkpt>
      <trkpt lat="44.05913" lon="2.79599">
        <ele>319</ele>
        <time>2021-09-04T07:42:08Z</time>
      </trkpt>
      <trkpt lat="44.05917" lon="2.79604">
        <ele>319</ele>
        <time>2021-09-04T07:42:11Z</time>
      </trkpt>
      <trkpt lat="44.05921" lon="2.79608">
        <ele>319</ele>
        <time>2021-09-04T07:42:14Z</time>
      </trkpt>
      <trkpt lat="44.05927" lon="2.79619">
        <ele>319</ele>
        <time>2021-09-04T07:42:20Z</time>
      </trkpt>
      <trkpt lat="44.05951" lon="2.79677">
        <ele>324</ele>
        <time>2021-09-04T07:42:51Z</time>
      </trkpt>
      <trkpt lat="44.05964" lon="2.79743">
        <ele>327</ele>
        <time>2021-09-04T07:43:22Z</time>
      </trkpt>
      <trkpt lat="44.05967" lon="2.79748">
        <ele>327</ele>
        <time>2021-09-04T07:43:25Z</time>
      </trkpt>
      <trkpt lat="44.0597" lon="2.79755">
        <ele>327</ele>
        <time>2021-09-04T07:43:28Z</time>
      </trkpt>
      <trkpt lat="44.05974" lon="2.79761">
        <ele>328</ele>
        <time>2021-09-04T07:43:31Z</time>
      </trkpt>
      <trkpt lat="44.05993" lon="2.79787">
        <ele>330</ele>
        <time>2021-09-04T07:43:48Z</time>
      </trkpt>
      <trkpt lat="44.0602" lon="2.79824">
        <ele>332</ele>
        <time>2021-09-04T07:44:12Z</time>
      </trkpt>
      <trkpt lat="44.06033" lon="2.79848">
        <ele>332</ele>
        <time>2021-09-04T07:44:24Z</time>
      </trkpt>
      <trkpt lat="44.06038" lon="2.7986">
        <ele>333</ele>
        <time>2021-09-04T07:44:30Z</time>
      </trkpt>
      <trkpt lat="44.06039" lon="2.79866">
        <ele>333</ele>
        <time>2021-09-04T07:44:33Z</time>
      </trkpt>
      <trkpt lat="44.06045" lon="2.79902">
        <ele>334</ele>
        <time>2021-09-04T07:44:49Z</time>
      </trkpt>
      <trkpt lat="44.06045" lon="2.79938">
        <ele>334</ele>
        <time>2021-09-04T07:45:05Z</time>
      </trkpt>
      <trkpt lat="44.06038" lon="2.7999">
        <ele>332</ele>
        <time>2021-09-04T07:45:28Z</time>
      </trkpt>
      <trkpt lat="44.06047" lon="2.80031">
        <ele>335</ele>
        <time>2021-09-04T07:45:46Z</time>
      </trkpt>
      <trkpt lat="44.06055" lon="2.80102">
        <ele>338</ele>
        <time>2021-09-04T07:46:19Z</time>
      </trkpt>
      <trkpt lat="44.06057" lon="2.80108">
        <ele>338</ele>
        <time>2021-09-04T07:46:23Z</time>
      </trkpt>
      <trkpt lat="44.06061" lon="2.80115">
        <ele>339</ele>
        <time>2021-09-04T07:46:27Z</time>
      </trkpt>
      <trkpt lat="44.06065" lon="2.80129">
        <ele>340</ele>
        <time>2021-09-04T07:46:33Z</time>
      </trkpt>
      <trkpt lat="44.06068" lon="2.80143">
        <ele>340</ele>
        <time>2021-09-04T07:46:39Z</time>
      </trkpt>
      <trkpt lat="44.06069" lon="2.8015">
        <ele>340</ele>
        <time>2021-09-04T07:46:42Z</time>
      </trkpt>
      <trkpt lat="44.06069" lon="2.80157">
        <ele>338</ele>
        <time>2021-09-04T07:46:46Z</time>
      </trkpt>
      <trkpt lat="44.06072" lon="2.80177">
        <ele>340</ele>
        <time>2021-09-04T07:46:55Z</time>
      </trkpt>
      <trkpt lat="44.06074" lon="2.80183">
        <ele>341</ele>
        <time>2021-09-04T07:46:58Z</time>
      </trkpt>
      <trkpt lat="44.06073" lon="2.80191">
        <ele>341</ele>
        <time>2021-09-04T07:47:01Z</time>
      </trkpt>
      <trkpt lat="44.06072" lon="2.80218">
        <ele>342</ele>
        <time>2021-09-04T07:47:13Z</time>
      </trkpt>
      <trkpt lat="44.06069" lon="2.80233">
        <ele>341</ele>
        <time>2021-09-04T07:47:19Z</time>
      </trkpt>
      <trkpt lat="44.06074" lon="2.80278">
        <ele>341</ele>
        <time>2021-09-04T07:47:37Z</time>
      </trkpt>
      <trkpt lat="44.06076" lon="2.80283">
        <ele>341</ele>
        <time>2021-09-04T07:47:40Z</time>
      </trkpt>
      <trkpt lat="44.06079" lon="2.80289">
        <ele>342</ele>
        <time>2021-09-04T07:47:43Z</time>
      </trkpt>
      <trkpt lat="44.06083" lon="2.80294">
        <ele>343</ele>
        <time>2021-09-04T07:47:46Z</time>
      </trkpt>
      <trkpt lat="44.06091" lon="2.80305">
        <ele>345</ele>
        <time>2021-09-04T07:47:52Z</time>
      </trkpt>
      <trkpt lat="44.06096" lon="2.80309">
        <ele>346</ele>
        <time>2021-09-04T07:47:55Z</time>
      </trkpt>
      <trkpt lat="44.06116" lon="2.80333">
        <ele>352</ele>
        <time>2021-09-04T07:48:10Z</time>
      </trkpt>
      <trkpt lat="44.06143" lon="2.80403">
        <ele>356</ele>
        <time>2021-09-04T07:48:43Z</time>
      </trkpt>
      <trkpt lat="44.06145" lon="2.80411">
        <ele>357</ele>
        <time>2021-09-04T07:48:46Z</time>
      </trkpt>
      <trkpt lat="44.06144" lon="2.80419">
        <ele>357</ele>
        <time>2021-09-04T07:48:49Z</time>
      </trkpt>
      <trkpt lat="44.06145" lon="2.80426">
        <ele>357</ele>
        <time>2021-09-04T07:48:52Z</time>
      </trkpt>
      <trkpt lat="44.06149" lon="2.80431">
        <ele>357</ele>
        <time>2021-09-04T07:48:55Z</time>
      </trkpt>
      <trkpt lat="44.06152" lon="2.80436">
        <ele>358</ele>
        <time>2021-09-04T07:49:33Z</time>
      </trkpt>
      <trkpt lat="44.06152" lon="2.80431">
        <ele>367</ele>
        <time>2021-09-04T07:50:16Z</time>
      </trkpt>
      <trkpt lat="44.06158" lon="2.80435">
        <ele>370</ele>
        <time>2021-09-04T07:51:17Z</time>
      </trkpt>
      <trkpt lat="44.06192" lon="2.80453">
        <ele>374</ele>
        <time>2021-09-04T07:51:26Z</time>
      </trkpt>
      <trkpt lat="44.06199" lon="2.8046">
        <ele>375</ele>
        <time>2021-09-04T07:51:28Z</time>
      </trkpt>
      <trkpt lat="44.06209" lon="2.80497">
        <ele>375</ele>
        <time>2021-09-04T07:51:34Z</time>
      </trkpt>
      <trkpt lat="44.06221" lon="2.80505">
        <ele>375</ele>
        <time>2021-09-04T07:51:38Z</time>
      </trkpt>
      <trkpt lat="44.0624" lon="2.80506">
        <ele>377</ele>
        <time>2021-09-04T07:51:41Z</time>
      </trkpt>
      <trkpt lat="44.06246" lon="2.80509">
        <ele>377</ele>
        <time>2021-09-04T07:51:42Z</time>
      </trkpt>
      <trkpt lat="44.0627" lon="2.80534">
        <ele>374</ele>
        <time>2021-09-04T07:51:46Z</time>
      </trkpt>
      <trkpt lat="44.06289" lon="2.80566">
        <ele>371</ele>
        <time>2021-09-04T07:51:51Z</time>
      </trkpt>
      <trkpt lat="44.06293" lon="2.8057">
        <ele>370</ele>
        <time>2021-09-04T07:51:52Z</time>
      </trkpt>
      <trkpt lat="44.06322" lon="2.80586">
        <ele>369</ele>
        <time>2021-09-04T07:51:57Z</time>
      </trkpt>
      <trkpt lat="44.0635" lon="2.80609">
        <ele>368</ele>
        <time>2021-09-04T07:52:02Z</time>
      </trkpt>
      <trkpt lat="44.06354" lon="2.80614">
        <ele>368</ele>
        <time>2021-09-04T07:52:03Z</time>
      </trkpt>
      <trkpt lat="44.06357" lon="2.8062">
        <ele>367</ele>
        <time>2021-09-04T07:52:04Z</time>
      </trkpt>
      <trkpt lat="44.06359" lon="2.80628">
        <ele>367</ele>
        <time>2021-09-04T07:52:05Z</time>
      </trkpt>
      <trkpt lat="44.06357" lon="2.80646">
        <ele>366</ele>
        <time>2021-09-04T07:52:07Z</time>
      </trkpt>
      <trkpt lat="44.0635" lon="2.80661">
        <ele>365</ele>
        <time>2021-09-04T07:52:09Z</time>
      </trkpt>
      <trkpt lat="44.06349" lon="2.80668">
        <ele>365</ele>
        <time>2021-09-04T07:52:10Z</time>
      </trkpt>
      <trkpt lat="44.06347" lon="2.80674">
        <ele>365</ele>
        <time>2021-09-04T07:52:11Z</time>
      </trkpt>
      <trkpt lat="44.06346" lon="2.80688">
        <ele>364</ele>
        <time>2021-09-04T07:52:13Z</time>
      </trkpt>
      <trkpt lat="44.06348" lon="2.80696">
        <ele>363</ele>
        <time>2021-09-04T07:52:15Z</time>
      </trkpt>
      <trkpt lat="44.06352" lon="2.80701">
        <ele>363</ele>
        <time>2021-09-04T07:52:16Z</time>
      </trkpt>
      <trkpt lat="44.06368" lon="2.80716">
        <ele>359</ele>
        <time>2021-09-04T07:52:19Z</time>
      </trkpt>
      <trkpt lat="44.06372" lon="2.80722">
        <ele>358</ele>
        <time>2021-09-04T07:52:20Z</time>
      </trkpt>
      <trkpt lat="44.06379" lon="2.80747">
        <ele>354</ele>
        <time>2021-09-04T07:52:23Z</time>
      </trkpt>
      <trkpt lat="44.06382" lon="2.80754">
        <ele>354</ele>
        <time>2021-09-04T07:52:24Z</time>
      </trkpt>
      <trkpt lat="44.06386" lon="2.80759">
        <ele>354</ele>
        <time>2021-09-04T07:52:25Z</time>
      </trkpt>
      <trkpt lat="44.06399" lon="2.80765">
        <ele>355</ele>
        <time>2021-09-04T07:52:27Z</time>
      </trkpt>
      <trkpt lat="44.06427" lon="2.80769">
        <ele>354</ele>
        <time>2021-09-04T07:52:31Z</time>
      </trkpt>
      <trkpt lat="44.06432" lon="2.80768">
        <ele>354</ele>
        <time>2021-09-04T07:52:32Z</time>
      </trkpt>
      <trkpt lat="44.06436" lon="2.80766">
        <ele>355</ele>
        <time>2021-09-04T07:52:33Z</time>
      </trkpt>
      <trkpt lat="44.0644" lon="2.80761">
        <ele>356</ele>
        <time>2021-09-04T07:52:34Z</time>
      </trkpt>
      <trkpt lat="44.06459" lon="2.807">
        <ele>355</ele>
        <time>2021-09-04T07:52:42Z</time>
      </trkpt>
      <trkpt lat="44.06477" lon="2.80673">
        <ele>354</ele>
        <time>2021-09-04T07:52:46Z</time>
      </trkpt>
      <trkpt lat="44.06496" lon="2.8065">
        <ele>355</ele>
        <time>2021-09-04T07:52:50Z</time>
      </trkpt>
      <trkpt lat="44.06514" lon="2.80638">
        <ele>355</ele>
        <time>2021-09-04T07:52:53Z</time>
      </trkpt>
      <trkpt lat="44.06543" lon="2.80626">
        <ele>355</ele>
        <time>2021-09-04T07:52:58Z</time>
      </trkpt>
      <trkpt lat="44.06589" lon="2.80614">
        <ele>355</ele>
        <time>2021-09-04T07:53:05Z</time>
      </trkpt>
      <trkpt lat="44.06608" lon="2.80606">
        <ele>354</ele>
        <time>2021-09-04T07:53:08Z</time>
      </trkpt>
      <trkpt lat="44.06643" lon="2.80571">
        <ele>352</ele>
        <time>2021-09-04T07:53:15Z</time>
      </trkpt>
      <trkpt lat="44.06648" lon="2.80568">
        <ele>352</ele>
        <time>2021-09-04T07:53:16Z</time>
      </trkpt>
      <trkpt lat="44.06661" lon="2.80568">
        <ele>351</ele>
        <time>2021-09-04T07:53:18Z</time>
      </trkpt>
      <trkpt lat="44.06671" lon="2.8057">
        <ele>351</ele>
        <time>2021-09-04T07:53:20Z</time>
      </trkpt>
      <trkpt lat="44.0668" lon="2.80567">
        <ele>351</ele>
        <time>2021-09-04T07:53:22Z</time>
      </trkpt>
      <trkpt lat="44.06689" lon="2.80556">
        <ele>350</ele>
        <time>2021-09-04T07:53:24Z</time>
      </trkpt>
      <trkpt lat="44.06698" lon="2.80543">
        <ele>350</ele>
        <time>2021-09-04T07:53:26Z</time>
      </trkpt>
      <trkpt lat="44.06721" lon="2.80525">
        <ele>347</ele>
        <time>2021-09-04T07:53:30Z</time>
      </trkpt>
      <trkpt lat="44.06767" lon="2.80508">
        <ele>345</ele>
        <time>2021-09-04T07:53:38Z</time>
      </trkpt>
      <trkpt lat="44.06792" lon="2.80501">
        <ele>346</ele>
        <time>2021-09-04T07:53:43Z</time>
      </trkpt>
      <trkpt lat="44.06808" lon="2.80494">
        <ele>346</ele>
        <time>2021-09-04T07:53:46Z</time>
      </trkpt>
      <trkpt lat="44.06863" lon="2.80489">
        <ele>343</ele>
        <time>2021-09-04T07:53:54Z</time>
      </trkpt>
      <trkpt lat="44.06907" lon="2.80499">
        <ele>343</ele>
        <time>2021-09-04T07:54:02Z</time>
      </trkpt>
      <trkpt lat="44.06922" lon="2.80513">
        <ele>344</ele>
        <time>2021-09-04T07:54:08Z</time>
      </trkpt>
      <trkpt lat="44.06932" lon="2.80519">
        <ele>344</ele>
        <time>2021-09-04T07:54:12Z</time>
      </trkpt>
      <trkpt lat="44.06985" lon="2.80575">
        <ele>342</ele>
        <time>2021-09-04T07:54:28Z</time>
      </trkpt>
      <trkpt lat="44.06998" lon="2.80604">
        <ele>338</ele>
        <time>2021-09-04T07:54:34Z</time>
      </trkpt>
      <trkpt lat="44.07017" lon="2.80683">
        <ele>326</ele>
        <time>2021-09-04T07:54:45Z</time>
      </trkpt>
      <trkpt lat="44.07018" lon="2.807">
        <ele>325</ele>
        <time>2021-09-04T07:54:47Z</time>
      </trkpt>
      <trkpt lat="44.07012" lon="2.80792">
        <ele>316</ele>
        <time>2021-09-04T07:54:58Z</time>
      </trkpt>
      <trkpt lat="44.07004" lon="2.80825">
        <ele>314</ele>
        <time>2021-09-04T07:55:02Z</time>
      </trkpt>
      <trkpt lat="44.06989" lon="2.80851">
        <ele>311</ele>
        <time>2021-09-04T07:55:06Z</time>
      </trkpt>
      <trkpt lat="44.06982" lon="2.80863">
        <ele>310</ele>
        <time>2021-09-04T07:55:08Z</time>
      </trkpt>
      <trkpt lat="44.06975" lon="2.80891">
        <ele>305</ele>
        <time>2021-09-04T07:55:14Z</time>
      </trkpt>
      <trkpt lat="44.06962" lon="2.80911">
        <ele>304</ele>
        <time>2021-09-04T07:55:21Z</time>
      </trkpt>
      <trkpt lat="44.06958" lon="2.80917">
        <ele>304</ele>
        <time>2021-09-04T07:55:23Z</time>
      </trkpt>
      <trkpt lat="44.06955" lon="2.80924">
        <ele>303</ele>
        <time>2021-09-04T07:55:26Z</time>
      </trkpt>
      <trkpt lat="44.06977" lon="2.80941">
        <ele>311</ele>
        <time>2021-09-04T07:55:34Z</time>
      </trkpt>
      <trkpt lat="44.06983" lon="2.80944">
        <ele>312</ele>
        <time>2021-09-04T07:55:36Z</time>
      </trkpt>
      <trkpt lat="44.0699" lon="2.80946">
        <ele>315</ele>
        <time>2021-09-04T07:55:38Z</time>
      </trkpt>
      <trkpt lat="44.07014" lon="2.80973">
        <ele>317</ele>
        <time>2021-09-04T07:55:50Z</time>
      </trkpt>
      <trkpt lat="44.07018" lon="2.80978">
        <ele>317</ele>
        <time>2021-09-04T07:55:52Z</time>
      </trkpt>
      <trkpt lat="44.0708" lon="2.81072">
        <ele>321</ele>
        <time>2021-09-04T07:56:24Z</time>
      </trkpt>
      <trkpt lat="44.07088" lon="2.81084">
        <ele>321</ele>
        <time>2021-09-04T07:56:28Z</time>
      </trkpt>
      <trkpt lat="44.07091" lon="2.81091">
        <ele>321</ele>
        <time>2021-09-04T07:56:30Z</time>
      </trkpt>
      <trkpt lat="44.07099" lon="2.81104">
        <ele>320</ele>
        <time>2021-09-04T07:56:34Z</time>
      </trkpt>
      <trkpt lat="44.07103" lon="2.81107">
        <ele>320</ele>
        <time>2021-09-04T07:56:36Z</time>
      </trkpt>
      <trkpt lat="44.07131" lon="2.81087">
        <ele>319</ele>
        <time>2021-09-04T07:56:49Z</time>
      </trkpt>
      <trkpt lat="44.07143" lon="2.81072">
        <ele>317</ele>
        <time>2021-09-04T07:56:53Z</time>
      </trkpt>
      <trkpt lat="44.07182" lon="2.81034">
        <ele>318</ele>
        <time>2021-09-04T07:57:09Z</time>
      </trkpt>
      <trkpt lat="44.07188" lon="2.8103">
        <ele>317</ele>
        <time>2021-09-04T07:57:12Z</time>
      </trkpt>
      <trkpt lat="44.07193" lon="2.81026">
        <ele>316</ele>
        <time>2021-09-04T07:57:15Z</time>
      </trkpt>
      <trkpt lat="44.07198" lon="2.8102">
        <ele>316</ele>
        <time>2021-09-04T07:57:19Z</time>
      </trkpt>
      <trkpt lat="44.07239" lon="2.80964">
        <ele>320</ele>
        <time>2021-09-04T07:57:48Z</time>
      </trkpt>
      <trkpt lat="44.07254" lon="2.80952">
        <ele>322</ele>
        <time>2021-09-04T07:57:58Z</time>
      </trkpt>
      <trkpt lat="44.07259" lon="2.80948">
        <ele>323</ele>
        <time>2021-09-04T07:58:01Z</time>
      </trkpt>
      <trkpt lat="44.07269" lon="2.80943">
        <ele>324</ele>
        <time>2021-09-04T07:58:07Z</time>
      </trkpt>
      <trkpt lat="44.07282" lon="2.80941">
        <ele>328</ele>
        <time>2021-09-04T07:58:14Z</time>
      </trkpt>
      <trkpt lat="44.07288" lon="2.80945">
        <ele>328</ele>
        <time>2021-09-04T07:58:18Z</time>
      </trkpt>
      <trkpt lat="44.0732" lon="2.80973">
        <ele>326</ele>
        <time>2021-09-04T07:58:26Z</time>
      </trkpt>
      <trkpt lat="44.07337" lon="2.80996">
        <ele>326</ele>
        <time>2021-09-04T07:58:30Z</time>
      </trkpt>
      <trkpt lat="44.0734" lon="2.81001">
        <ele>326</ele>
        <time>2021-09-04T07:58:31Z</time>
      </trkpt>
      <trkpt lat="44.07344" lon="2.81012">
        <ele>326</ele>
        <time>2021-09-04T07:58:33Z</time>
      </trkpt>
      <trkpt lat="44.0734" lon="2.81028">
        <ele>326</ele>
        <time>2021-09-04T07:58:35Z</time>
      </trkpt>
      <trkpt lat="44.07326" lon="2.81057">
        <ele>326</ele>
        <time>2021-09-04T07:58:39Z</time>
      </trkpt>
      <trkpt lat="44.07321" lon="2.81062">
        <ele>326</ele>
        <time>2021-09-04T07:58:40Z</time>
      </trkpt>
      <trkpt lat="44.07304" lon="2.81066">
        <ele>325</ele>
        <time>2021-09-04T07:58:44Z</time>
      </trkpt>
      <trkpt lat="44.07284" lon="2.81066">
        <ele>324</ele>
        <time>2021-09-04T07:58:50Z</time>
      </trkpt>
      <trkpt lat="44.07269" lon="2.81071">
        <ele>322</ele>
        <time>2021-09-04T07:58:54Z</time>
      </trkpt>
      <trkpt lat="44.07238" lon="2.81097">
        <ele>319</ele>
        <time>2021-09-04T07:59:02Z</time>
      </trkpt>
      <trkpt lat="44.07179" lon="2.81179">
        <ele>318</ele>
        <time>2021-09-04T07:59:20Z</time>
      </trkpt>
      <trkpt lat="44.07152" lon="2.81223">
        <ele>315</ele>
        <time>2021-09-04T07:59:32Z</time>
      </trkpt>
      <trkpt lat="44.07147" lon="2.8123">
        <ele>314</ele>
        <time>2021-09-04T07:59:34Z</time>
      </trkpt>
      <trkpt lat="44.07141" lon="2.81236">
        <ele>314</ele>
        <time>2021-09-04T07:59:36Z</time>
      </trkpt>
      <trkpt lat="44.07118" lon="2.81243">
        <ele>313</ele>
        <time>2021-09-04T07:59:42Z</time>
      </trkpt>
      <trkpt lat="44.07063" lon="2.81229">
        <ele>319</ele>
        <time>2021-09-04T07:59:56Z</time>
      </trkpt>
      <trkpt lat="44.07054" lon="2.81231">
        <ele>320</ele>
        <time>2021-09-04T07:59:58Z</time>
      </trkpt>
      <trkpt lat="44.0704" lon="2.81241">
        <ele>320</ele>
        <time>2021-09-04T08:00:02Z</time>
      </trkpt>
      <trkpt lat="44.06973" lon="2.81358">
        <ele>315</ele>
        <time>2021-09-04T08:00:34Z</time>
      </trkpt>
      <trkpt lat="44.06943" lon="2.81403">
        <ele>311</ele>
        <time>2021-09-04T08:00:46Z</time>
      </trkpt>
      <trkpt lat="44.06925" lon="2.81433">
        <ele>312</ele>
        <time>2021-09-04T08:00:52Z</time>
      </trkpt>
      <trkpt lat="44.06906" lon="2.81483">
        <ele>311</ele>
        <time>2021-09-04T08:01:00Z</time>
      </trkpt>
      <trkpt lat="44.06898" lon="2.81495">
        <ele>311</ele>
        <time>2021-09-04T08:01:02Z</time>
      </trkpt>
      <trkpt lat="44.06878" lon="2.81518">
        <ele>311</ele>
        <time>2021-09-04T08:01:07Z</time>
      </trkpt>
      <trkpt lat="44.06862" lon="2.81548">
        <ele>310</ele>
        <time>2021-09-04T08:01:12Z</time>
      </trkpt>
      <trkpt lat="44.06858" lon="2.81562">
        <ele>309</ele>
        <time>2021-09-04T08:01:14Z</time>
      </trkpt>
      <trkpt lat="44.06858" lon="2.81607">
        <ele>308</ele>
        <time>2021-09-04T08:01:21Z</time>
      </trkpt>
      <trkpt lat="44.06871" lon="2.81656">
        <ele>311</ele>
        <time>2021-09-04T08:01:31Z</time>
      </trkpt>
      <trkpt lat="44.06889" lon="2.81705">
        <ele>316</ele>
        <time>2021-09-04T08:01:43Z</time>
      </trkpt>
      <trkpt lat="44.06893" lon="2.81726">
        <ele>317</ele>
        <time>2021-09-04T08:01:47Z</time>
      </trkpt>
      <trkpt lat="44.06889" lon="2.81748">
        <ele>319</ele>
        <time>2021-09-04T08:01:51Z</time>
      </trkpt>
      <trkpt lat="44.06882" lon="2.81765">
        <ele>320</ele>
        <time>2021-09-04T08:01:55Z</time>
      </trkpt>
      <trkpt lat="44.06849" lon="2.81812">
        <ele>320</ele>
        <time>2021-09-04T08:02:09Z</time>
      </trkpt>
      <trkpt lat="44.06842" lon="2.81831">
        <ele>320</ele>
        <time>2021-09-04T08:02:13Z</time>
      </trkpt>
      <trkpt lat="44.06836" lon="2.81854">
        <ele>321</ele>
        <time>2021-09-04T08:02:17Z</time>
      </trkpt>
      <trkpt lat="44.06835" lon="2.81877">
        <ele>322</ele>
        <time>2021-09-04T08:02:21Z</time>
      </trkpt>
      <trkpt lat="44.06854" lon="2.8203">
        <ele>332</ele>
        <time>2021-09-04T08:02:51Z</time>
      </trkpt>
      <trkpt lat="44.06857" lon="2.8206">
        <ele>334</ele>
        <time>2021-09-04T08:02:59Z</time>
      </trkpt>
      <trkpt lat="44.06858" lon="2.82067">
        <ele>336</ele>
        <time>2021-09-04T08:03:01Z</time>
      </trkpt>
      <trkpt lat="44.06859" lon="2.82073">
        <ele>336</ele>
        <time>2021-09-04T08:03:03Z</time>
      </trkpt>
      <trkpt lat="44.06867" lon="2.82098">
        <ele>340</ele>
        <time>2021-09-04T08:03:11Z</time>
      </trkpt>
      <trkpt lat="44.0687" lon="2.82112">
        <ele>342</ele>
        <time>2021-09-04T08:03:15Z</time>
      </trkpt>
      <trkpt lat="44.06868" lon="2.82145">
        <ele>343</ele>
        <time>2021-09-04T08:03:23Z</time>
      </trkpt>
      <trkpt lat="44.06865" lon="2.82166">
        <ele>342</ele>
        <time>2021-09-04T08:03:29Z</time>
      </trkpt>
      <trkpt lat="44.06864" lon="2.82227">
        <ele>340</ele>
        <time>2021-09-04T08:03:48Z</time>
      </trkpt>
      <trkpt lat="44.06873" lon="2.82276">
        <ele>337</ele>
        <time>2021-09-04T08:04:06Z</time>
      </trkpt>
      <trkpt lat="44.0687" lon="2.82336">
        <ele>338</ele>
        <time>2021-09-04T08:04:25Z</time>
      </trkpt>
      <trkpt lat="44.06855" lon="2.82434">
        <ele>338</ele>
        <time>2021-09-04T08:04:57Z</time>
      </trkpt>
      <trkpt lat="44.06854" lon="2.82448">
        <ele>338</ele>
        <time>2021-09-04T08:05:01Z</time>
      </trkpt>
      <trkpt lat="44.06854" lon="2.82455">
        <ele>338</ele>
        <time>2021-09-04T08:05:04Z</time>
      </trkpt>
      <trkpt lat="44.06852" lon="2.82462">
        <ele>340</ele>
        <time>2021-09-04T08:07:49Z</time>
      </trkpt>
      <trkpt lat="44.06852" lon="2.82469">
        <ele>340</ele>
        <time>2021-09-04T08:07:52Z</time>
      </trkpt>
      <trkpt lat="44.06854" lon="2.82488">
        <ele>342</ele>
        <time>2021-09-04T08:07:58Z</time>
      </trkpt>
      <trkpt lat="44.06883" lon="2.82571">
        <ele>350</ele>
        <time>2021-09-04T08:08:24Z</time>
      </trkpt>
      <trkpt lat="44.06924" lon="2.82629">
        <ele>355</ele>
        <time>2021-09-04T08:08:47Z</time>
      </trkpt>
      <trkpt lat="44.06955" lon="2.82696">
        <ele>355</ele>
        <time>2021-09-04T08:09:11Z</time>
      </trkpt>
      <trkpt lat="44.06962" lon="2.82715">
        <ele>357</ele>
        <time>2021-09-04T08:09:19Z</time>
      </trkpt>
      <trkpt lat="44.06964" lon="2.82738">
        <ele>359</ele>
        <time>2021-09-04T08:09:27Z</time>
      </trkpt>
      <trkpt lat="44.06963" lon="2.82746">
        <ele>362</ele>
        <time>2021-09-04T08:09:30Z</time>
      </trkpt>
      <trkpt lat="44.06964" lon="2.82754">
        <ele>365</ele>
        <time>2021-09-04T08:09:33Z</time>
      </trkpt>
      <trkpt lat="44.06969" lon="2.82776">
        <ele>368</ele>
        <time>2021-09-04T08:09:41Z</time>
      </trkpt>
      <trkpt lat="44.06977" lon="2.82806">
        <ele>373</ele>
        <time>2021-09-04T08:09:53Z</time>
      </trkpt>
      <trkpt lat="44.06971" lon="2.82874">
        <ele>386</ele>
        <time>2021-09-04T08:10:21Z</time>
      </trkpt>
      <trkpt lat="44.0697" lon="2.82903">
        <ele>389</ele>
        <time>2021-09-04T08:10:33Z</time>
      </trkpt>
      <trkpt lat="44.0697" lon="2.82909">
        <ele>390</ele>
        <time>2021-09-04T08:10:36Z</time>
      </trkpt>
      <trkpt lat="44.06968" lon="2.82939">
        <ele>397</ele>
        <time>2021-09-04T08:10:48Z</time>
      </trkpt>
      <trkpt lat="44.06968" lon="2.82947">
        <ele>399</ele>
        <time>2021-09-04T08:10:52Z</time>
      </trkpt>
      <trkpt lat="44.06973" lon="2.83007">
        <ele>401</ele>
        <time>2021-09-04T08:11:13Z</time>
      </trkpt>
      <trkpt lat="44.06962" lon="2.8306">
        <ele>403</ele>
        <time>2021-09-04T08:11:30Z</time>
      </trkpt>
      <trkpt lat="44.06959" lon="2.83068">
        <ele>403</ele>
        <time>2021-09-04T08:11:33Z</time>
      </trkpt>
      <trkpt lat="44.06957" lon="2.83076">
        <ele>403</ele>
        <time>2021-09-04T08:11:36Z</time>
      </trkpt>
      <trkpt lat="44.06954" lon="2.83092">
        <ele>403</ele>
        <time>2021-09-04T08:11:42Z</time>
      </trkpt>
      <trkpt lat="44.06952" lon="2.831">
        <ele>402</ele>
        <time>2021-09-04T08:11:45Z</time>
      </trkpt>
      <trkpt lat="44.06949" lon="2.83115">
        <ele>401</ele>
        <time>2021-09-04T08:11:51Z</time>
      </trkpt>
      <trkpt lat="44.06943" lon="2.83139">
        <ele>401</ele>
        <time>2021-09-04T08:12:00Z</time>
      </trkpt>
      <trkpt lat="44.0694" lon="2.83154">
        <ele>400</ele>
        <time>2021-09-04T08:12:05Z</time>
      </trkpt>
      <trkpt lat="44.06935" lon="2.83166">
        <ele>402</ele>
        <time>2021-09-04T08:12:09Z</time>
      </trkpt>
      <trkpt lat="44.06933" lon="2.83172">
        <ele>402</ele>
        <time>2021-09-04T08:12:12Z</time>
      </trkpt>
      <trkpt lat="44.06931" lon="2.83178">
        <ele>399</ele>
        <time>2021-09-04T08:12:15Z</time>
      </trkpt>
      <trkpt lat="44.06918" lon="2.83195">
        <ele>402</ele>
        <time>2021-09-04T08:12:24Z</time>
      </trkpt>
      <trkpt lat="44.06915" lon="2.83201">
        <ele>403</ele>
        <time>2021-09-04T08:12:28Z</time>
      </trkpt>
      <trkpt lat="44.06895" lon="2.83218">
        <ele>407</ele>
        <time>2021-09-04T08:12:40Z</time>
      </trkpt>
      <trkpt lat="44.06892" lon="2.83223">
        <ele>408</ele>
        <time>2021-09-04T08:12:43Z</time>
      </trkpt>
      <trkpt lat="44.06845" lon="2.83274">
        <ele>406</ele>
        <time>2021-09-04T08:13:14Z</time>
      </trkpt>
      <trkpt lat="44.06834" lon="2.83282">
        <ele>407</ele>
        <time>2021-09-04T08:13:20Z</time>
      </trkpt>
      <trkpt lat="44.06814" lon="2.83291">
        <ele>410</ele>
        <time>2021-09-04T08:13:32Z</time>
      </trkpt>
      <trkpt lat="44.068" lon="2.83301">
        <ele>412</ele>
        <time>2021-09-04T08:13:41Z</time>
      </trkpt>
      <trkpt lat="44.06795" lon="2.83306">
        <ele>412</ele>
        <time>2021-09-04T08:13:44Z</time>
      </trkpt>
      <trkpt lat="44.0679" lon="2.8331">
        <ele>413</ele>
        <time>2021-09-04T08:13:47Z</time>
      </trkpt>
      <trkpt lat="44.06781" lon="2.83321">
        <ele>414</ele>
        <time>2021-09-04T08:13:53Z</time>
      </trkpt>
      <trkpt lat="44.06778" lon="2.83328">
        <ele>415</ele>
        <time>2021-09-04T08:13:56Z</time>
      </trkpt>
      <trkpt lat="44.06775" lon="2.83334">
        <ele>416</ele>
        <time>2021-09-04T08:13:59Z</time>
      </trkpt>
      <trkpt lat="44.06774" lon="2.83342">
        <ele>418</ele>
        <time>2021-09-04T08:14:02Z</time>
      </trkpt>
      <trkpt lat="44.06781" lon="2.83377">
        <ele>420</ele>
        <time>2021-09-04T08:14:18Z</time>
      </trkpt>
      <trkpt lat="44.06783" lon="2.83384">
        <ele>421</ele>
        <time>2021-09-04T08:14:21Z</time>
      </trkpt>
      <trkpt lat="44.06784" lon="2.83399">
        <ele>422</ele>
        <time>2021-09-04T08:14:27Z</time>
      </trkpt>
      <trkpt lat="44.06802" lon="2.8347">
        <ele>424</ele>
        <time>2021-09-04T08:15:00Z</time>
      </trkpt>
      <trkpt lat="44.06809" lon="2.83541">
        <ele>426</ele>
        <time>2021-09-04T08:15:31Z</time>
      </trkpt>
      <trkpt lat="44.06816" lon="2.83575">
        <ele>428</ele>
        <time>2021-09-04T08:15:46Z</time>
      </trkpt>
      <trkpt lat="44.06817" lon="2.83599">
        <ele>430</ele>
        <time>2021-09-04T08:15:57Z</time>
      </trkpt>
      <trkpt lat="44.06815" lon="2.83612">
        <ele>430</ele>
        <time>2021-09-04T08:16:03Z</time>
      </trkpt>
      <trkpt lat="44.0681" lon="2.83626">
        <ele>431</ele>
        <time>2021-09-04T08:16:09Z</time>
      </trkpt>
      <trkpt lat="44.068" lon="2.83642">
        <ele>431</ele>
        <time>2021-09-04T08:16:19Z</time>
      </trkpt>
      <trkpt lat="44.06791" lon="2.83651">
        <ele>432</ele>
        <time>2021-09-04T08:16:26Z</time>
      </trkpt>
      <trkpt lat="44.06787" lon="2.83653">
        <ele>434</ele>
        <time>2021-09-04T08:16:29Z</time>
      </trkpt>
      <trkpt lat="44.06781" lon="2.83656">
        <ele>436</ele>
        <time>2021-09-04T08:16:32Z</time>
      </trkpt>
      <trkpt lat="44.0677" lon="2.8366">
        <ele>438</ele>
        <time>2021-09-04T08:16:39Z</time>
      </trkpt>
      <trkpt lat="44.06766" lon="2.83659">
        <ele>439</ele>
        <time>2021-09-04T08:16:43Z</time>
      </trkpt>
      <trkpt lat="44.06719" lon="2.83659">
        <ele>448</ele>
        <time>2021-09-04T08:17:15Z</time>
      </trkpt>
      <trkpt lat="44.06693" lon="2.83667">
        <ele>456</ele>
        <time>2021-09-04T08:17:33Z</time>
      </trkpt>
      <trkpt lat="44.0667" lon="2.83685">
        <ele>457</ele>
        <time>2021-09-04T08:17:48Z</time>
      </trkpt>
      <trkpt lat="44.06664" lon="2.83695">
        <ele>457</ele>
        <time>2021-09-04T08:17:54Z</time>
      </trkpt>
      <trkpt lat="44.06654" lon="2.83713">
        <ele>457</ele>
        <time>2021-09-04T08:18:04Z</time>
      </trkpt>
      <trkpt lat="44.06652" lon="2.83719">
        <ele>457</ele>
        <time>2021-09-04T08:18:08Z</time>
      </trkpt>
      <trkpt lat="44.0665" lon="2.83725">
        <ele>458</ele>
        <time>2021-09-04T08:18:12Z</time>
      </trkpt>
      <trkpt lat="44.06637" lon="2.83796">
        <ele>458</ele>
        <time>2021-09-04T08:18:44Z</time>
      </trkpt>
      <trkpt lat="44.0662" lon="2.83853">
        <ele>459</ele>
        <time>2021-09-04T08:19:13Z</time>
      </trkpt>
      <trkpt lat="44.06597" lon="2.83907">
        <ele>462</ele>
        <time>2021-09-04T08:19:41Z</time>
      </trkpt>
      <trkpt lat="44.0659" lon="2.83917">
        <ele>463</ele>
        <time>2021-09-04T08:19:47Z</time>
      </trkpt>
      <trkpt lat="44.06581" lon="2.83933">
        <ele>465</ele>
        <time>2021-09-04T08:19:56Z</time>
      </trkpt>
      <trkpt lat="44.06575" lon="2.83954">
        <ele>467</ele>
        <time>2021-09-04T08:20:05Z</time>
      </trkpt>
      <trkpt lat="44.06574" lon="2.8397">
        <ele>468</ele>
        <time>2021-09-04T08:20:11Z</time>
      </trkpt>
      <trkpt lat="44.06574" lon="2.83977">
        <ele>468</ele>
        <time>2021-09-04T08:20:13Z</time>
      </trkpt>
      <trkpt lat="44.06571" lon="2.84032">
        <ele>468</ele>
        <time>2021-09-04T08:20:30Z</time>
      </trkpt>
      <trkpt lat="44.06559" lon="2.84073">
        <ele>471</ele>
        <time>2021-09-04T08:20:44Z</time>
      </trkpt>
      <trkpt lat="44.06558" lon="2.84081">
        <ele>471</ele>
        <time>2021-09-04T08:20:47Z</time>
      </trkpt>
      <trkpt lat="44.06544" lon="2.84155">
        <ele>467</ele>
        <time>2021-09-04T08:21:08Z</time>
      </trkpt>
      <trkpt lat="44.0654" lon="2.84173">
        <ele>466</ele>
        <time>2021-09-04T08:21:12Z</time>
      </trkpt>
      <trkpt lat="44.06538" lon="2.84182">
        <ele>466</ele>
        <time>2021-09-04T08:21:14Z</time>
      </trkpt>
      <trkpt lat="44.06533" lon="2.84191">
        <ele>465</ele>
        <time>2021-09-04T08:21:16Z</time>
      </trkpt>
      <trkpt lat="44.06516" lon="2.84203">
        <ele>464</ele>
        <time>2021-09-04T08:21:20Z</time>
      </trkpt>
      <trkpt lat="44.06479" lon="2.84213">
        <ele>463</ele>
        <time>2021-09-04T08:21:26Z</time>
      </trkpt>
      <trkpt lat="44.06474" lon="2.84217">
        <ele>462</ele>
        <time>2021-09-04T08:21:27Z</time>
      </trkpt>
      <trkpt lat="44.06469" lon="2.84223">
        <ele>462</ele>
        <time>2021-09-04T08:21:28Z</time>
      </trkpt>
      <trkpt lat="44.06391" lon="2.84436">
        <ele>447</ele>
        <time>2021-09-04T08:21:48Z</time>
      </trkpt>
      <trkpt lat="44.06387" lon="2.84454">
        <ele>445</ele>
        <time>2021-09-04T08:21:50Z</time>
      </trkpt>
      <trkpt lat="44.06386" lon="2.84464">
        <ele>443</ele>
        <time>2021-09-04T08:21:51Z</time>
      </trkpt>
      <trkpt lat="44.06387" lon="2.84473">
        <ele>442</ele>
        <time>2021-09-04T08:21:52Z</time>
      </trkpt>
      <trkpt lat="44.06389" lon="2.84481">
        <ele>441</ele>
        <time>2021-09-04T08:21:53Z</time>
      </trkpt>
      <trkpt lat="44.0642" lon="2.84512">
        <ele>437</ele>
        <time>2021-09-04T08:21:58Z</time>
      </trkpt>
      <trkpt lat="44.06431" lon="2.84532">
        <ele>437</ele>
        <time>2021-09-04T08:22:00Z</time>
      </trkpt>
      <trkpt lat="44.06442" lon="2.84566">
        <ele>434</ele>
        <time>2021-09-04T08:22:03Z</time>
      </trkpt>
      <trkpt lat="44.06445" lon="2.84576">
        <ele>433</ele>
        <time>2021-09-04T08:22:04Z</time>
      </trkpt>
      <trkpt lat="44.0645" lon="2.84584">
        <ele>432</ele>
        <time>2021-09-04T08:22:05Z</time>
      </trkpt>
      <trkpt lat="44.06456" lon="2.84592">
        <ele>430</ele>
        <time>2021-09-04T08:22:06Z</time>
      </trkpt>
      <trkpt lat="44.06555" lon="2.84644">
        <ele>420</ele>
        <time>2021-09-04T08:22:17Z</time>
      </trkpt>
      <trkpt lat="44.06568" lon="2.84656">
        <ele>419</ele>
        <time>2021-09-04T08:22:19Z</time>
      </trkpt>
      <trkpt lat="44.06578" lon="2.84676">
        <ele>419</ele>
        <time>2021-09-04T08:22:21Z</time>
      </trkpt>
      <trkpt lat="44.06592" lon="2.84734">
        <ele>413</ele>
        <time>2021-09-04T08:22:26Z</time>
      </trkpt>
      <trkpt lat="44.06601" lon="2.84752">
        <ele>410</ele>
        <time>2021-09-04T08:22:28Z</time>
      </trkpt>
      <trkpt lat="44.06607" lon="2.84759">
        <ele>409</ele>
        <time>2021-09-04T08:22:29Z</time>
      </trkpt>
      <trkpt lat="44.06674" lon="2.84791">
        <ele>403</ele>
        <time>2021-09-04T08:22:37Z</time>
      </trkpt>
      <trkpt lat="44.06688" lon="2.84806">
        <ele>402</ele>
        <time>2021-09-04T08:22:39Z</time>
      </trkpt>
      <trkpt lat="44.06693" lon="2.84814">
        <ele>402</ele>
        <time>2021-09-04T08:22:40Z</time>
      </trkpt>
      <trkpt lat="44.06696" lon="2.84834">
        <ele>401</ele>
        <time>2021-09-04T08:22:42Z</time>
      </trkpt>
      <trkpt lat="44.06698" lon="2.84892">
        <ele>395</ele>
        <time>2021-09-04T08:22:47Z</time>
      </trkpt>
      <trkpt lat="44.067" lon="2.84903">
        <ele>393</ele>
        <time>2021-09-04T08:22:48Z</time>
      </trkpt>
      <trkpt lat="44.06704" lon="2.84913">
        <ele>393</ele>
        <time>2021-09-04T08:22:49Z</time>
      </trkpt>
      <trkpt lat="44.06717" lon="2.84929">
        <ele>390</ele>
        <time>2021-09-04T08:22:51Z</time>
      </trkpt>
      <trkpt lat="44.06771" lon="2.84956">
        <ele>385</ele>
        <time>2021-09-04T08:22:57Z</time>
      </trkpt>
      <trkpt lat="44.06808" lon="2.84963">
        <ele>382</ele>
        <time>2021-09-04T08:23:01Z</time>
      </trkpt>
      <trkpt lat="44.06883" lon="2.84954">
        <ele>377</ele>
        <time>2021-09-04T08:23:09Z</time>
      </trkpt>
      <trkpt lat="44.06901" lon="2.84958">
        <ele>376</ele>
        <time>2021-09-04T08:23:11Z</time>
      </trkpt>
      <trkpt lat="44.06909" lon="2.84962">
        <ele>376</ele>
        <time>2021-09-04T08:23:12Z</time>
      </trkpt>
      <trkpt lat="44.06917" lon="2.8497">
        <ele>376</ele>
        <time>2021-09-04T08:23:13Z</time>
      </trkpt>
      <trkpt lat="44.06923" lon="2.8498">
        <ele>376</ele>
        <time>2021-09-04T08:23:14Z</time>
      </trkpt>
      <trkpt lat="44.06928" lon="2.84991">
        <ele>375</ele>
        <time>2021-09-04T08:23:15Z</time>
      </trkpt>
      <trkpt lat="44.06929" lon="2.85003">
        <ele>375</ele>
        <time>2021-09-04T08:23:16Z</time>
      </trkpt>
      <trkpt lat="44.06928" lon="2.85015">
        <ele>375</ele>
        <time>2021-09-04T08:23:17Z</time>
      </trkpt>
      <trkpt lat="44.06925" lon="2.85025">
        <ele>374</ele>
        <time>2021-09-04T08:23:18Z</time>
      </trkpt>
      <trkpt lat="44.06919" lon="2.85034">
        <ele>374</ele>
        <time>2021-09-04T08:23:19Z</time>
      </trkpt>
      <trkpt lat="44.06832" lon="2.8511">
        <ele>371</ele>
        <time>2021-09-04T08:23:51Z</time>
      </trkpt>
      <trkpt lat="44.06777" lon="2.8514">
        <ele>385</ele>
        <time>2021-09-04T08:24:16Z</time>
      </trkpt>
      <trkpt lat="44.06771" lon="2.85144">
        <ele>385</ele>
        <time>2021-09-04T08:24:20Z</time>
      </trkpt>
      <trkpt lat="44.06772" lon="2.8515">
        <ele>388</ele>
        <time>2021-09-04T08:27:19Z</time>
      </trkpt>
      <trkpt lat="44.06769" lon="2.85159">
        <ele>388</ele>
        <time>2021-09-04T08:27:29Z</time>
      </trkpt>
      <trkpt lat="44.06761" lon="2.8517">
        <ele>393</ele>
        <time>2021-09-04T08:27:34Z</time>
      </trkpt>
      <trkpt lat="44.06721" lon="2.85233">
        <ele>396</ele>
        <time>2021-09-04T08:28:07Z</time>
      </trkpt>
      <trkpt lat="44.06715" lon="2.85247">
        <ele>395</ele>
        <time>2021-09-04T08:28:13Z</time>
      </trkpt>
      <trkpt lat="44.06707" lon="2.85269">
        <ele>394</ele>
        <time>2021-09-04T08:28:22Z</time>
      </trkpt>
      <trkpt lat="44.067" lon="2.85328">
        <ele>395</ele>
        <time>2021-09-04T08:28:44Z</time>
      </trkpt>
      <trkpt lat="44.0667" lon="2.85415">
        <ele>391</ele>
        <time>2021-09-04T08:29:14Z</time>
      </trkpt>
      <trkpt lat="44.06649" lon="2.85493">
        <ele>394</ele>
        <time>2021-09-04T08:29:43Z</time>
      </trkpt>
      <trkpt lat="44.06641" lon="2.85557">
        <ele>397</ele>
        <time>2021-09-04T08:29:59Z</time>
      </trkpt>
      <trkpt lat="44.06643" lon="2.85591">
        <ele>397</ele>
        <time>2021-09-04T08:30:04Z</time>
      </trkpt>
      <trkpt lat="44.06642" lon="2.85615">
        <ele>397</ele>
        <time>2021-09-04T08:30:07Z</time>
      </trkpt>
      <trkpt lat="44.0663" lon="2.8567">
        <ele>395</ele>
        <time>2021-09-04T08:30:14Z</time>
      </trkpt>
      <trkpt lat="44.06629" lon="2.85688">
        <ele>395</ele>
        <time>2021-09-04T08:30:16Z</time>
      </trkpt>
      <trkpt lat="44.06642" lon="2.85853">
        <ele>387</ele>
        <time>2021-09-04T08:30:31Z</time>
      </trkpt>
      <trkpt lat="44.06634" lon="2.85937">
        <ele>382</ele>
        <time>2021-09-04T08:30:42Z</time>
      </trkpt>
      <trkpt lat="44.06632" lon="2.85944">
        <ele>381</ele>
        <time>2021-09-04T08:30:44Z</time>
      </trkpt>
      <trkpt lat="44.06641" lon="2.85985">
        <ele>377</ele>
        <time>2021-09-04T08:30:53Z</time>
      </trkpt>
      <trkpt lat="44.06641" lon="2.86001">
        <ele>376</ele>
        <time>2021-09-04T08:30:55Z</time>
      </trkpt>
      <trkpt lat="44.06638" lon="2.86017">
        <ele>376</ele>
        <time>2021-09-04T08:30:57Z</time>
      </trkpt>
      <trkpt lat="44.0663" lon="2.8604">
        <ele>376</ele>
        <time>2021-09-04T08:31:00Z</time>
      </trkpt>
      <trkpt lat="44.06622" lon="2.86053">
        <ele>376</ele>
        <time>2021-09-04T08:31:02Z</time>
      </trkpt>
      <trkpt lat="44.06591" lon="2.86075">
        <ele>376</ele>
        <time>2021-09-04T08:31:08Z</time>
      </trkpt>
      <trkpt lat="44.06524" lon="2.86114">
        <ele>379</ele>
        <time>2021-09-04T08:31:24Z</time>
      </trkpt>
      <trkpt lat="44.06515" lon="2.86117">
        <ele>380</ele>
        <time>2021-09-04T08:34:21Z</time>
      </trkpt>
      <trkpt lat="44.06516" lon="2.86123">
        <ele>380</ele>
        <time>2021-09-04T08:34:31Z</time>
      </trkpt>
      <trkpt lat="44.06511" lon="2.86141">
        <ele>379</ele>
        <time>2021-09-04T08:34:35Z</time>
      </trkpt>
      <trkpt lat="44.06508" lon="2.8616">
        <ele>378</ele>
        <time>2021-09-04T08:34:38Z</time>
      </trkpt>
      <trkpt lat="44.06511" lon="2.86175">
        <ele>376</ele>
        <time>2021-09-04T08:34:40Z</time>
      </trkpt>
      <trkpt lat="44.06518" lon="2.86188">
        <ele>374</ele>
        <time>2021-09-04T08:34:42Z</time>
      </trkpt>
      <trkpt lat="44.06542" lon="2.86218">
        <ele>371</ele>
        <time>2021-09-04T08:34:47Z</time>
      </trkpt>
      <trkpt lat="44.0655" lon="2.86232">
        <ele>370</ele>
        <time>2021-09-04T08:34:49Z</time>
      </trkpt>
      <trkpt lat="44.06553" lon="2.86249">
        <ele>370</ele>
        <time>2021-09-04T08:34:51Z</time>
      </trkpt>
      <trkpt lat="44.06553" lon="2.86258">
        <ele>369</ele>
        <time>2021-09-04T08:34:52Z</time>
      </trkpt>
      <trkpt lat="44.06549" lon="2.86275">
        <ele>369</ele>
        <time>2021-09-04T08:34:54Z</time>
      </trkpt>
      <trkpt lat="44.06545" lon="2.86282">
        <ele>368</ele>
        <time>2021-09-04T08:34:55Z</time>
      </trkpt>
      <trkpt lat="44.06533" lon="2.86296">
        <ele>369</ele>
        <time>2021-09-04T08:34:57Z</time>
      </trkpt>
      <trkpt lat="44.06519" lon="2.863">
        <ele>368</ele>
        <time>2021-09-04T08:34:59Z</time>
      </trkpt>
      <trkpt lat="44.06428" lon="2.86292">
        <ele>364</ele>
        <time>2021-09-04T08:35:12Z</time>
      </trkpt>
      <trkpt lat="44.064" lon="2.86296">
        <ele>364</ele>
        <time>2021-09-04T08:35:16Z</time>
      </trkpt>
      <trkpt lat="44.06381" lon="2.86307">
        <ele>364</ele>
        <time>2021-09-04T08:35:19Z</time>
      </trkpt>
      <trkpt lat="44.06359" lon="2.86333">
        <ele>362</ele>
        <time>2021-09-04T08:35:23Z</time>
      </trkpt>
      <trkpt lat="44.06322" lon="2.86396">
        <ele>360</ele>
        <time>2021-09-04T08:35:31Z</time>
      </trkpt>
      <trkpt lat="44.06309" lon="2.86406">
        <ele>359</ele>
        <time>2021-09-04T08:35:33Z</time>
      </trkpt>
      <trkpt lat="44.06287" lon="2.8641">
        <ele>360</ele>
        <time>2021-09-04T08:35:36Z</time>
      </trkpt>
      <trkpt lat="44.06192" lon="2.86419">
        <ele>355</ele>
        <time>2021-09-04T08:35:49Z</time>
      </trkpt>
      <trkpt lat="44.06178" lon="2.86423">
        <ele>354</ele>
        <time>2021-09-04T08:35:51Z</time>
      </trkpt>
      <trkpt lat="44.06165" lon="2.86434">
        <ele>352</ele>
        <time>2021-09-04T08:35:53Z</time>
      </trkpt>
      <trkpt lat="44.06085" lon="2.86564">
        <ele>341</ele>
        <time>2021-09-04T08:36:08Z</time>
      </trkpt>
      <trkpt lat="44.05986" lon="2.86635">
        <ele>327</ele>
        <time>2021-09-04T08:36:21Z</time>
      </trkpt>
      <trkpt lat="44.05947" lon="2.86658">
        <ele>322</ele>
        <time>2021-09-04T08:36:26Z</time>
      </trkpt>
      <trkpt lat="44.05906" lon="2.86703">
        <ele>316</ele>
        <time>2021-09-04T08:36:32Z</time>
      </trkpt>
      <trkpt lat="44.05888" lon="2.86729">
        <ele>313</ele>
        <time>2021-09-04T08:36:35Z</time>
      </trkpt>
      <trkpt lat="44.05875" lon="2.8674">
        <ele>312</ele>
        <time>2021-09-04T08:36:37Z</time>
      </trkpt>
      <trkpt lat="44.05848" lon="2.86748">
        <ele>309</ele>
        <time>2021-09-04T08:36:43Z</time>
      </trkpt>
      <trkpt lat="44.05844" lon="2.86752">
        <ele>309</ele>
        <time>2021-09-04T08:36:45Z</time>
      </trkpt>
      <trkpt lat="44.05808" lon="2.86815">
        <ele>303</ele>
        <time>2021-09-04T08:37:05Z</time>
      </trkpt>
      <trkpt lat="44.05792" lon="2.86836">
        <ele>297</ele>
        <time>2021-09-04T08:37:13Z</time>
      </trkpt>
      <trkpt lat="44.05789" lon="2.86841">
        <ele>297</ele>
        <time>2021-09-04T08:37:15Z</time>
      </trkpt>
      <trkpt lat="44.05786" lon="2.86853">
        <ele>295</ele>
        <time>2021-09-04T08:37:19Z</time>
      </trkpt>
      <trkpt lat="44.05783" lon="2.8689">
        <ele>294</ele>
        <time>2021-09-04T08:37:29Z</time>
      </trkpt>
      <trkpt lat="44.05782" lon="2.86905">
        <ele>293</ele>
        <time>2021-09-04T08:37:35Z</time>
      </trkpt>
      <trkpt lat="44.05784" lon="2.86922">
        <ele>296</ele>
        <time>2021-09-04T08:37:42Z</time>
      </trkpt>
      <trkpt lat="44.05792" lon="2.86939">
        <ele>298</ele>
        <time>2021-09-04T08:37:46Z</time>
      </trkpt>
      <trkpt lat="44.05798" lon="2.86945">
        <ele>298</ele>
        <time>2021-09-04T08:37:48Z</time>
      </trkpt>
      <trkpt lat="44.0586" lon="2.86983">
        <ele>305</ele>
        <time>2021-09-04T08:38:04Z</time>
      </trkpt>
      <trkpt lat="44.05874" lon="2.86987">
        <ele>307</ele>
        <time>2021-09-04T08:38:08Z</time>
      </trkpt>
      <trkpt lat="44.05904" lon="2.86983">
        <ele>312</ele>
        <time>2021-09-04T08:38:16Z</time>
      </trkpt>
      <trkpt lat="44.05913" lon="2.86995">
        <ele>313</ele>
        <time>2021-09-04T08:38:20Z</time>
      </trkpt>
      <trkpt lat="44.05914" lon="2.87014">
        <ele>314</ele>
        <time>2021-09-04T08:38:24Z</time>
      </trkpt>
      <trkpt lat="44.0591" lon="2.87061">
        <ele>313</ele>
        <time>2021-09-04T08:38:32Z</time>
      </trkpt>
      <trkpt lat="44.05909" lon="2.87068">
        <ele>313</ele>
        <time>2021-09-04T08:38:33Z</time>
      </trkpt>
      <trkpt lat="44.05908" lon="2.87074">
        <ele>313</ele>
        <time>2021-09-04T08:38:34Z</time>
      </trkpt>
      <trkpt lat="44.05904" lon="2.87079">
        <ele>313</ele>
        <time>2021-09-04T08:38:35Z</time>
      </trkpt>
      <trkpt lat="44.05901" lon="2.87083">
        <ele>313</ele>
        <time>2021-09-04T08:38:36Z</time>
      </trkpt>
      <trkpt lat="44.05894" lon="2.87087">
        <ele>313</ele>
        <time>2021-09-04T08:38:38Z</time>
      </trkpt>
      <trkpt lat="44.05867" lon="2.87079">
        <ele>317</ele>
        <time>2021-09-04T08:38:50Z</time>
      </trkpt>
      <trkpt lat="44.05846" lon="2.8708">
        <ele>318</ele>
        <time>2021-09-04T08:39:02Z</time>
      </trkpt>
      <trkpt lat="44.05794" lon="2.87088">
        <ele>323</ele>
        <time>2021-09-04T08:39:33Z</time>
      </trkpt>
      <trkpt lat="44.05789" lon="2.87089">
        <ele>324</ele>
        <time>2021-09-04T08:39:36Z</time>
      </trkpt>
      <trkpt lat="44.05772" lon="2.87097">
        <ele>327</ele>
        <time>2021-09-04T08:39:45Z</time>
      </trkpt>
      <trkpt lat="44.05768" lon="2.87101">
        <ele>327</ele>
        <time>2021-09-04T08:39:48Z</time>
      </trkpt>
      <trkpt lat="44.05766" lon="2.87107">
        <ele>328</ele>
        <time>2021-09-04T08:39:51Z</time>
      </trkpt>
      <trkpt lat="44.05764" lon="2.87114">
        <ele>327</ele>
        <time>2021-09-04T08:39:53Z</time>
      </trkpt>
      <trkpt lat="44.05745" lon="2.87143">
        <ele>326</ele>
        <time>2021-09-04T08:40:01Z</time>
      </trkpt>
      <trkpt lat="44.05674" lon="2.87273">
        <ele>312</ele>
        <time>2021-09-04T08:40:31Z</time>
      </trkpt>
      <trkpt lat="44.05626" lon="2.87369">
        <ele>309</ele>
        <time>2021-09-04T08:40:46Z</time>
      </trkpt>
      <trkpt lat="44.0554" lon="2.87617">
        <ele>303</ele>
        <time>2021-09-04T08:41:15Z</time>
      </trkpt>
      <trkpt lat="44.055" lon="2.87842">
        <ele>299</ele>
        <time>2021-09-04T08:41:45Z</time>
      </trkpt>
      <trkpt lat="44.05486" lon="2.87902">
        <ele>298</ele>
        <time>2021-09-04T08:41:54Z</time>
      </trkpt>
      <trkpt lat="44.05441" lon="2.88">
        <ele>296</ele>
        <time>2021-09-04T08:42:11Z</time>
      </trkpt>
      <trkpt lat="44.05394" lon="2.88068">
        <ele>298</ele>
        <time>2021-09-04T08:42:25Z</time>
      </trkpt>
      <trkpt lat="44.05277" lon="2.88176">
        <ele>306</ele>
        <time>2021-09-04T08:42:57Z</time>
      </trkpt>
      <trkpt lat="44.05236" lon="2.88201">
        <ele>305</ele>
        <time>2021-09-04T08:43:07Z</time>
      </trkpt>
      <trkpt lat="44.05101" lon="2.88252">
        <ele>312</ele>
        <time>2021-09-04T08:43:37Z</time>
      </trkpt>
      <trkpt lat="44.05029" lon="2.88301">
        <ele>312</ele>
        <time>2021-09-04T08:43:54Z</time>
      </trkpt>
      <trkpt lat="44.04946" lon="2.88383">
        <ele>309</ele>
        <time>2021-09-04T08:44:16Z</time>
      </trkpt>
      <trkpt lat="44.04926" lon="2.88417">
        <ele>308</ele>
        <time>2021-09-04T08:44:23Z</time>
      </trkpt>
      <trkpt lat="44.04905" lon="2.88477">
        <ele>308</ele>
        <time>2021-09-04T08:44:33Z</time>
      </trkpt>
      <trkpt lat="44.04897" lon="2.88512">
        <ele>308</ele>
        <time>2021-09-04T08:44:39Z</time>
      </trkpt>
      <trkpt lat="44.04889" lon="2.88737">
        <ele>304</ele>
        <time>2021-09-04T08:45:10Z</time>
      </trkpt>
      <trkpt lat="44.04894" lon="2.8878">
        <ele>302</ele>
        <time>2021-09-04T08:45:15Z</time>
      </trkpt>
      <trkpt lat="44.04925" lon="2.8886">
        <ele>301</ele>
        <time>2021-09-04T08:45:28Z</time>
      </trkpt>
      <trkpt lat="44.04982" lon="2.88954">
        <ele>306</ele>
        <time>2021-09-04T08:45:49Z</time>
      </trkpt>
      <trkpt lat="44.05074" lon="2.89084">
        <ele>305</ele>
        <time>2021-09-04T08:46:19Z</time>
      </trkpt>
      <trkpt lat="44.05125" lon="2.89165">
        <ele>304</ele>
        <time>2021-09-04T08:46:36Z</time>
      </trkpt>
      <trkpt lat="44.05191" lon="2.89328">
        <ele>308</ele>
        <time>2021-09-04T08:47:06Z</time>
      </trkpt>
      <trkpt lat="44.05206" lon="2.89372">
        <ele>306</ele>
        <time>2021-09-04T08:47:16Z</time>
      </trkpt>
      <trkpt lat="44.05207" lon="2.89378">
        <ele>305</ele>
        <time>2021-09-04T08:47:18Z</time>
      </trkpt>
      <trkpt lat="44.05206" lon="2.89384">
        <ele>305</ele>
        <time>2021-09-04T08:47:21Z</time>
      </trkpt>
      <trkpt lat="44.0521" lon="2.89391">
        <ele>307</ele>
        <time>2021-09-04T08:47:51Z</time>
      </trkpt>
      <trkpt lat="44.05225" lon="2.89453">
        <ele>311</ele>
        <time>2021-09-04T08:48:22Z</time>
      </trkpt>
      <trkpt lat="44.05235" lon="2.89483">
        <ele>311</ele>
        <time>2021-09-04T08:48:30Z</time>
      </trkpt>
      <trkpt lat="44.05257" lon="2.89521">
        <ele>309</ele>
        <time>2021-09-04T08:48:40Z</time>
      </trkpt>
      <trkpt lat="44.05348" lon="2.89646">
        <ele>306</ele>
        <time>2021-09-04T08:49:12Z</time>
      </trkpt>
      <trkpt lat="44.05437" lon="2.89713">
        <ele>304</ele>
        <time>2021-09-04T08:49:34Z</time>
      </trkpt>
      <trkpt lat="44.05564" lon="2.89765">
        <ele>285</ele>
        <time>2021-09-04T08:50:04Z</time>
      </trkpt>
      <trkpt lat="44.05669" lon="2.89804">
        <ele>282</ele>
        <time>2021-09-04T08:50:27Z</time>
      </trkpt>
      <trkpt lat="44.05724" lon="2.89845">
        <ele>286</ele>
        <time>2021-09-04T08:50:41Z</time>
      </trkpt>
      <trkpt lat="44.0578" lon="2.89915">
        <ele>282</ele>
        <time>2021-09-04T08:50:59Z</time>
      </trkpt>
      <trkpt lat="44.05802" lon="2.89947">
        <ele>279</ele>
        <time>2021-09-04T08:51:07Z</time>
      </trkpt>
      <trkpt lat="44.05813" lon="2.89963">
        <ele>276</ele>
        <time>2021-09-04T08:51:11Z</time>
      </trkpt>
      <trkpt lat="44.05836" lon="2.90005">
        <ele>276</ele>
        <time>2021-09-04T08:51:19Z</time>
      </trkpt>
      <trkpt lat="44.05894" lon="2.90166">
        <ele>288</ele>
        <time>2021-09-04T08:51:50Z</time>
      </trkpt>
      <trkpt lat="44.05896" lon="2.90172">
        <ele>289</ele>
        <time>2021-09-04T08:51:51Z</time>
      </trkpt>
      <trkpt lat="44.05895" lon="2.90191">
        <ele>291</ele>
        <time>2021-09-04T08:51:55Z</time>
      </trkpt>
      <trkpt lat="44.05893" lon="2.90197">
        <ele>293</ele>
        <time>2021-09-04T08:51:57Z</time>
      </trkpt>
      <trkpt lat="44.05889" lon="2.90204">
        <ele>295</ele>
        <time>2021-09-04T08:53:31Z</time>
      </trkpt>
      <trkpt lat="44.05883" lon="2.90206">
        <ele>297</ele>
        <time>2021-09-04T08:53:33Z</time>
      </trkpt>
      <trkpt lat="44.05763" lon="2.9024">
        <ele>306</ele>
        <time>2021-09-04T08:54:01Z</time>
      </trkpt>
      <trkpt lat="44.05757" lon="2.90241">
        <ele>307</ele>
        <time>2021-09-04T08:54:02Z</time>
      </trkpt>
      <trkpt lat="44.05746" lon="2.90239">
        <ele>309</ele>
        <time>2021-09-04T08:54:04Z</time>
      </trkpt>
      <trkpt lat="44.05741" lon="2.90236">
        <ele>309</ele>
        <time>2021-09-04T08:54:05Z</time>
      </trkpt>
      <trkpt lat="44.05724" lon="2.90217">
        <ele>312</ele>
        <time>2021-09-04T08:54:11Z</time>
      </trkpt>
      <trkpt lat="44.05701" lon="2.90162">
        <ele>316</ele>
        <time>2021-09-04T08:54:28Z</time>
      </trkpt>
      <trkpt lat="44.05686" lon="2.90143">
        <ele>320</ele>
        <time>2021-09-04T08:54:37Z</time>
      </trkpt>
      <trkpt lat="44.05682" lon="2.90138">
        <ele>321</ele>
        <time>2021-09-04T08:54:40Z</time>
      </trkpt>
      <trkpt lat="44.05678" lon="2.90133">
        <ele>322</ele>
        <time>2021-09-04T08:54:43Z</time>
      </trkpt>
      <trkpt lat="44.05673" lon="2.90129">
        <ele>323</ele>
        <time>2021-09-04T08:54:46Z</time>
      </trkpt>
      <trkpt lat="44.05657" lon="2.90121">
        <ele>327</ele>
        <time>2021-09-04T08:54:55Z</time>
      </trkpt>
      <trkpt lat="44.05652" lon="2.90118">
        <ele>328</ele>
        <time>2021-09-04T08:54:58Z</time>
      </trkpt>
      <trkpt lat="44.05646" lon="2.90115">
        <ele>330</ele>
        <time>2021-09-04T08:55:01Z</time>
      </trkpt>
      <trkpt lat="44.05635" lon="2.90109">
        <ele>332</ele>
        <time>2021-09-04T08:55:07Z</time>
      </trkpt>
      <trkpt lat="44.05625" lon="2.90102">
        <ele>334</ele>
        <time>2021-09-04T08:55:13Z</time>
      </trkpt>
      <trkpt lat="44.056" lon="2.9009">
        <ele>336</ele>
        <time>2021-09-04T08:55:28Z</time>
      </trkpt>
      <trkpt lat="44.05594" lon="2.90088">
        <ele>336</ele>
        <time>2021-09-04T08:55:31Z</time>
      </trkpt>
      <trkpt lat="44.05588" lon="2.90086">
        <ele>336</ele>
        <time>2021-09-04T08:55:34Z</time>
      </trkpt>
      <trkpt lat="44.05563" lon="2.90073">
        <ele>339</ele>
        <time>2021-09-04T08:55:49Z</time>
      </trkpt>
      <trkpt lat="44.05557" lon="2.90072">
        <ele>339</ele>
        <time>2021-09-04T08:55:52Z</time>
      </trkpt>
      <trkpt lat="44.05552" lon="2.90069">
        <ele>339</ele>
        <time>2021-09-04T08:55:55Z</time>
      </trkpt>
      <trkpt lat="44.05548" lon="2.90067">
        <ele>340</ele>
        <time>2021-09-04T08:55:58Z</time>
      </trkpt>
      <trkpt lat="44.05543" lon="2.90065">
        <ele>341</ele>
        <time>2021-09-04T08:56:01Z</time>
      </trkpt>
      <trkpt lat="44.05534" lon="2.90061">
        <ele>343</ele>
        <time>2021-09-04T08:56:07Z</time>
      </trkpt>
      <trkpt lat="44.05475" lon="2.90033">
        <ele>348</ele>
        <time>2021-09-04T08:56:40Z</time>
      </trkpt>
      <trkpt lat="44.05464" lon="2.90029">
        <ele>349</ele>
        <time>2021-09-04T08:56:46Z</time>
      </trkpt>
      <trkpt lat="44.05405" lon="2.9003">
        <ele>354</ele>
        <time>2021-09-04T08:57:16Z</time>
      </trkpt>
      <trkpt lat="44.05388" lon="2.90027">
        <ele>356</ele>
        <time>2021-09-04T08:57:24Z</time>
      </trkpt>
      <trkpt lat="44.05327" lon="2.89995">
        <ele>361</ele>
        <time>2021-09-04T08:57:56Z</time>
      </trkpt>
      <trkpt lat="44.05279" lon="2.89977">
        <ele>365</ele>
        <time>2021-09-04T08:58:16Z</time>
      </trkpt>
      <trkpt lat="44.05217" lon="2.89961">
        <ele>375</ele>
        <time>2021-09-04T08:58:45Z</time>
      </trkpt>
      <trkpt lat="44.05155" lon="2.89937">
        <ele>382</ele>
        <time>2021-09-04T08:59:16Z</time>
      </trkpt>
      <trkpt lat="44.05096" lon="2.89894">
        <ele>386</ele>
        <time>2021-09-04T08:59:47Z</time>
      </trkpt>
      <trkpt lat="44.05065" lon="2.89878">
        <ele>386</ele>
        <time>2021-09-04T09:00:02Z</time>
      </trkpt>
      <trkpt lat="44.0506" lon="2.89875">
        <ele>386</ele>
        <time>2021-09-04T09:00:05Z</time>
      </trkpt>
      <trkpt lat="44.0505" lon="2.8987">
        <ele>386</ele>
        <time>2021-09-04T09:00:09Z</time>
      </trkpt>
      <trkpt lat="44.05046" lon="2.89864">
        <ele>386</ele>
        <time>2021-09-04T09:00:12Z</time>
      </trkpt>
      <trkpt lat="44.04984" lon="2.89822">
        <ele>387</ele>
        <time>2021-09-04T09:00:44Z</time>
      </trkpt>
      <trkpt lat="44.04955" lon="2.89811">
        <ele>390</ele>
        <time>2021-09-04T09:00:59Z</time>
      </trkpt>
      <trkpt lat="44.04949" lon="2.89811">
        <ele>390</ele>
        <time>2021-09-04T09:01:09Z</time>
      </trkpt>
      <trkpt lat="44.04944" lon="2.89807">
        <ele>390</ele>
        <time>2021-09-04T09:01:13Z</time>
      </trkpt>
      <trkpt lat="44.04939" lon="2.89802">
        <ele>389</ele>
        <time>2021-09-04T09:01:15Z</time>
      </trkpt>
      <trkpt lat="44.04898" lon="2.89764">
        <ele>388</ele>
        <time>2021-09-04T09:01:36Z</time>
      </trkpt>
      <trkpt lat="44.04894" lon="2.89759">
        <ele>389</ele>
        <time>2021-09-04T09:01:38Z</time>
      </trkpt>
      <trkpt lat="44.04892" lon="2.89754">
        <ele>389</ele>
        <time>2021-09-04T09:01:43Z</time>
      </trkpt>
      <trkpt lat="44.04888" lon="2.8975">
        <ele>390</ele>
        <time>2021-09-04T09:01:56Z</time>
      </trkpt>
      <trkpt lat="44.04882" lon="2.89747">
        <ele>389</ele>
        <time>2021-09-04T09:01:59Z</time>
      </trkpt>
      <trkpt lat="44.04877" lon="2.89749">
        <ele>388</ele>
        <time>2021-09-04T09:02:11Z</time>
      </trkpt>
      <trkpt lat="44.04867" lon="2.89752">
        <ele>386</ele>
        <time>2021-09-04T09:02:17Z</time>
      </trkpt>
      <trkpt lat="44.0487" lon="2.89747">
        <ele>383</ele>
        <time>2021-09-04T09:02:21Z</time>
      </trkpt>
      <trkpt lat="44.04871" lon="2.8974">
        <ele>381</ele>
        <time>2021-09-04T09:02:23Z</time>
      </trkpt>
      <trkpt lat="44.04872" lon="2.89734">
        <ele>379</ele>
        <time>2021-09-04T09:02:25Z</time>
      </trkpt>
      <trkpt lat="44.04868" lon="2.89728">
        <ele>376</ele>
        <time>2021-09-04T09:02:29Z</time>
      </trkpt>
      <trkpt lat="44.04859" lon="2.89719">
        <ele>374</ele>
        <time>2021-09-04T09:02:34Z</time>
      </trkpt>
      <trkpt lat="44.04855" lon="2.89716">
        <ele>374</ele>
        <time>2021-09-04T09:02:40Z</time>
      </trkpt>
      <trkpt lat="44.0485" lon="2.89716">
        <ele>375</ele>
        <time>2021-09-04T09:02:44Z</time>
      </trkpt>
      <trkpt lat="44.04845" lon="2.89712">
        <ele>374</ele>
        <time>2021-09-04T09:02:47Z</time>
      </trkpt>
      <trkpt lat="44.04844" lon="2.89704">
        <ele>374</ele>
        <time>2021-09-04T09:02:49Z</time>
      </trkpt>
      <trkpt lat="44.04842" lon="2.89696">
        <ele>374</ele>
        <time>2021-09-04T09:02:52Z</time>
      </trkpt>
      <trkpt lat="44.04838" lon="2.89692">
        <ele>372</ele>
        <time>2021-09-04T09:02:56Z</time>
      </trkpt>
      <trkpt lat="44.04832" lon="2.89691">
        <ele>372</ele>
        <time>2021-09-04T09:02:59Z</time>
      </trkpt>
      <trkpt lat="44.04826" lon="2.89688">
        <ele>373</ele>
        <time>2021-09-04T09:03:02Z</time>
      </trkpt>
      <trkpt lat="44.0482" lon="2.89682">
        <ele>373</ele>
        <time>2021-09-04T09:03:05Z</time>
      </trkpt>
      <trkpt lat="44.0482" lon="2.89673">
        <ele>372</ele>
        <time>2021-09-04T09:03:08Z</time>
      </trkpt>
      <trkpt lat="44.04824" lon="2.89639">
        <ele>369</ele>
        <time>2021-09-04T09:03:16Z</time>
      </trkpt>
      <trkpt lat="44.04825" lon="2.89629">
        <ele>368</ele>
        <time>2021-09-04T09:03:19Z</time>
      </trkpt>
      <trkpt lat="44.04825" lon="2.89622">
        <ele>367</ele>
        <time>2021-09-04T09:03:22Z</time>
      </trkpt>
      <trkpt lat="44.04819" lon="2.89621">
        <ele>368</ele>
        <time>2021-09-04T09:03:49Z</time>
      </trkpt>
      <trkpt lat="44.04814" lon="2.89638">
        <ele>370</ele>
        <time>2021-09-04T09:04:08Z</time>
      </trkpt>
      <trkpt lat="44.04818" lon="2.89631">
        <ele>370</ele>
        <time>2021-09-04T09:04:28Z</time>
      </trkpt>
      <trkpt lat="44.04792" lon="2.89575">
        <ele>270</ele>
        <time>2021-09-04T09:07:40Z</time>
      </trkpt>
      <trkpt lat="44.04798" lon="2.89569">
        <ele>261</ele>
        <time>2021-09-04T09:07:44Z</time>
      </trkpt>
      <trkpt lat="44.04803" lon="2.89583">
        <ele>259</ele>
        <time>2021-09-04T09:07:49Z</time>
      </trkpt>
      <trkpt lat="44.04806" lon="2.89598">
        <ele>276</ele>
        <time>2021-09-04T09:07:53Z</time>
      </trkpt>
      <trkpt lat="44.04811" lon="2.89603">
        <ele>286</ele>
        <time>2021-09-04T09:07:55Z</time>
      </trkpt>
      <trkpt lat="44.04812" lon="2.89613">
        <ele>309</ele>
        <time>2021-09-04T09:08:01Z</time>
      </trkpt>
      <trkpt lat="44.0481" lon="2.89629">
        <ele>318</ele>
        <time>2021-09-04T09:08:23Z</time>
      </trkpt>
      <trkpt lat="44.04818" lon="2.89648">
        <ele>343</ele>
        <time>2021-09-04T09:08:44Z</time>
      </trkpt>
      <trkpt lat="44.04818" lon="2.89657">
        <ele>406</ele>
        <time>2021-09-04T09:08:47Z</time>
      </trkpt>
      <trkpt lat="44.04813" lon="2.8964">
        <ele>407</ele>
        <time>2021-09-04T09:08:53Z</time>
      </trkpt>
      <trkpt lat="44.04815" lon="2.89646">
        <ele>386</ele>
        <time>2021-09-04T09:09:14Z</time>
      </trkpt>
      <trkpt lat="44.04822" lon="2.89651">
        <ele>392</ele>
        <time>2021-09-04T09:09:20Z</time>
      </trkpt>
      <trkpt lat="44.04824" lon="2.8966">
        <ele>399</ele>
        <time>2021-09-04T09:09:25Z</time>
      </trkpt>
      <trkpt lat="44.04821" lon="2.89675">
        <ele>403</ele>
        <time>2021-09-04T09:09:30Z</time>
      </trkpt>
      <trkpt lat="44.0482" lon="2.89683">
        <ele>406</ele>
        <time>2021-09-04T09:09:33Z</time>
      </trkpt>
      <trkpt lat="44.04822" lon="2.89689">
        <ele>407</ele>
        <time>2021-09-04T09:09:36Z</time>
      </trkpt>
      <trkpt lat="44.04826" lon="2.89693">
        <ele>409</ele>
        <time>2021-09-04T09:09:40Z</time>
      </trkpt>
      <trkpt lat="44.0483" lon="2.89695">
        <ele>408</ele>
        <time>2021-09-04T09:09:44Z</time>
      </trkpt>
      <trkpt lat="44.04834" lon="2.89691">
        <ele>407</ele>
        <time>2021-09-04T09:09:47Z</time>
      </trkpt>
      <trkpt lat="44.04839" lon="2.89692">
        <ele>404</ele>
        <time>2021-09-04T09:10:30Z</time>
      </trkpt>
      <trkpt lat="44.04844" lon="2.89693">
        <ele>402</ele>
        <time>2021-09-04T09:10:51Z</time>
      </trkpt>
      <trkpt lat="44.04843" lon="2.89697">
        <ele>381</ele>
        <time>2021-09-04T09:15:13Z</time>
      </trkpt>
      <trkpt lat="44.0485" lon="2.89712">
        <ele>384</ele>
        <time>2021-09-04T09:15:19Z</time>
      </trkpt>
      <trkpt lat="44.04863" lon="2.89724">
        <ele>389</ele>
        <time>2021-09-04T09:15:29Z</time>
      </trkpt>
      <trkpt lat="44.04867" lon="2.89728">
        <ele>390</ele>
        <time>2021-09-04T09:15:32Z</time>
      </trkpt>
      <trkpt lat="44.04866" lon="2.89736">
        <ele>391</ele>
        <time>2021-09-04T09:15:35Z</time>
      </trkpt>
      <trkpt lat="44.04868" lon="2.89737">
        <ele>394</ele>
        <time>2021-09-04T09:15:45Z</time>
      </trkpt>
      <trkpt lat="44.04874" lon="2.89735">
        <ele>395</ele>
        <time>2021-09-04T09:15:48Z</time>
      </trkpt>
      <trkpt lat="44.04879" lon="2.89735">
        <ele>397</ele>
        <time>2021-09-04T09:15:51Z</time>
      </trkpt>
      <trkpt lat="44.04882" lon="2.8974">
        <ele>398</ele>
        <time>2021-09-04T09:15:54Z</time>
      </trkpt>
      <trkpt lat="44.04883" lon="2.89747">
        <ele>398</ele>
        <time>2021-09-04T09:16:23Z</time>
      </trkpt>
      <trkpt lat="44.04887" lon="2.8975">
        <ele>398</ele>
        <time>2021-09-04T09:16:26Z</time>
      </trkpt>
      <trkpt lat="44.04901" lon="2.89761">
        <ele>401</ele>
        <time>2021-09-04T09:17:00Z</time>
      </trkpt>
      <trkpt lat="44.04913" lon="2.89777">
        <ele>400</ele>
        <time>2021-09-04T09:17:09Z</time>
      </trkpt>
      <trkpt lat="44.04918" lon="2.89781">
        <ele>400</ele>
        <time>2021-09-04T09:17:11Z</time>
      </trkpt>
      <trkpt lat="44.04927" lon="2.89793">
        <ele>399</ele>
        <time>2021-09-04T09:17:15Z</time>
      </trkpt>
      <trkpt lat="44.04945" lon="2.89805">
        <ele>398</ele>
        <time>2021-09-04T09:17:21Z</time>
      </trkpt>
      <trkpt lat="44.05038" lon="2.8986">
        <ele>391</ele>
        <time>2021-09-04T09:17:36Z</time>
      </trkpt>
      <trkpt lat="44.05154" lon="2.89935">
        <ele>385</ele>
        <time>2021-09-04T09:17:53Z</time>
      </trkpt>
      <trkpt lat="44.05395" lon="2.9003">
        <ele>367</ele>
        <time>2021-09-04T09:18:23Z</time>
      </trkpt>
      <trkpt lat="44.05465" lon="2.90034">
        <ele>361</ele>
        <time>2021-09-04T09:18:31Z</time>
      </trkpt>
      <trkpt lat="44.05662" lon="2.90129">
        <ele>345</ele>
        <time>2021-09-04T09:18:53Z</time>
      </trkpt>
      <trkpt lat="44.05685" lon="2.9015">
        <ele>342</ele>
        <time>2021-09-04T09:18:56Z</time>
      </trkpt>
      <trkpt lat="44.05716" lon="2.90202">
        <ele>338</ele>
        <time>2021-09-04T09:19:01Z</time>
      </trkpt>
      <trkpt lat="44.05734" lon="2.90241">
        <ele>336</ele>
        <time>2021-09-04T09:19:06Z</time>
      </trkpt>
      <trkpt lat="44.05738" lon="2.90246">
        <ele>336</ele>
        <time>2021-09-04T09:19:07Z</time>
      </trkpt>
      <trkpt lat="44.05744" lon="2.90248">
        <ele>336</ele>
        <time>2021-09-04T09:19:08Z</time>
      </trkpt>
      <trkpt lat="44.05757" lon="2.90246">
        <ele>336</ele>
        <time>2021-09-04T09:19:10Z</time>
      </trkpt>
      <trkpt lat="44.05862" lon="2.90212">
        <ele>341</ele>
        <time>2021-09-04T09:19:32Z</time>
      </trkpt>
      <trkpt lat="44.0587" lon="2.90209">
        <ele>341</ele>
        <time>2021-09-04T09:19:34Z</time>
      </trkpt>
      <trkpt lat="44.05875" lon="2.90218">
        <ele>341</ele>
        <time>2021-09-04T09:19:36Z</time>
      </trkpt>
      <trkpt lat="44.05831" lon="2.90478">
        <ele>332</ele>
        <time>2021-09-04T09:20:06Z</time>
      </trkpt>
      <trkpt lat="44.05771" lon="2.90641">
        <ele>324</ele>
        <time>2021-09-04T09:20:36Z</time>
      </trkpt>
      <trkpt lat="44.05748" lon="2.90678">
        <ele>323</ele>
        <time>2021-09-04T09:20:46Z</time>
      </trkpt>
      <trkpt lat="44.05716" lon="2.90711">
        <ele>325</ele>
        <time>2021-09-04T09:20:58Z</time>
      </trkpt>
      <trkpt lat="44.05711" lon="2.90718">
        <ele>325</ele>
        <time>2021-09-04T09:21:00Z</time>
      </trkpt>
      <trkpt lat="44.05695" lon="2.90736">
        <ele>325</ele>
        <time>2021-09-04T09:21:06Z</time>
      </trkpt>
      <trkpt lat="44.0566" lon="2.90784">
        <ele>327</ele>
        <time>2021-09-04T09:21:20Z</time>
      </trkpt>
      <trkpt lat="44.05593" lon="2.90847">
        <ele>326</ele>
        <time>2021-09-04T09:21:37Z</time>
      </trkpt>
      <trkpt lat="44.05525" lon="2.90962">
        <ele>324</ele>
        <time>2021-09-04T09:21:59Z</time>
      </trkpt>
      <trkpt lat="44.05499" lon="2.91051">
        <ele>326</ele>
        <time>2021-09-04T09:22:13Z</time>
      </trkpt>
      <trkpt lat="44.05495" lon="2.91074">
        <ele>325</ele>
        <time>2021-09-04T09:22:17Z</time>
      </trkpt>
      <trkpt lat="44.05498" lon="2.91108">
        <ele>325</ele>
        <time>2021-09-04T09:22:23Z</time>
      </trkpt>
      <trkpt lat="44.05555" lon="2.91266">
        <ele>319</ele>
        <time>2021-09-04T09:22:53Z</time>
      </trkpt>
      <trkpt lat="44.05577" lon="2.91327">
        <ele>318</ele>
        <time>2021-09-04T09:23:03Z</time>
      </trkpt>
      <trkpt lat="44.05643" lon="2.91422">
        <ele>321</ele>
        <time>2021-09-04T09:23:22Z</time>
      </trkpt>
      <trkpt lat="44.05754" lon="2.91527">
        <ele>324</ele>
        <time>2021-09-04T09:23:54Z</time>
      </trkpt>
      <trkpt lat="44.05853" lon="2.91587">
        <ele>325</ele>
        <time>2021-09-04T09:24:20Z</time>
      </trkpt>
      <trkpt lat="44.05976" lon="2.91643">
        <ele>328</ele>
        <time>2021-09-04T09:24:51Z</time>
      </trkpt>
      <trkpt lat="44.06116" lon="2.91674">
        <ele>333</ele>
        <time>2021-09-04T09:25:21Z</time>
      </trkpt>
      <trkpt lat="44.06232" lon="2.91711">
        <ele>336</ele>
        <time>2021-09-04T09:25:46Z</time>
      </trkpt>
      <trkpt lat="44.06267" lon="2.91703">
        <ele>337</ele>
        <time>2021-09-04T09:25:53Z</time>
      </trkpt>
      <trkpt lat="44.06283" lon="2.91697">
        <ele>337</ele>
        <time>2021-09-04T09:25:56Z</time>
      </trkpt>
      <trkpt lat="44.06322" lon="2.91669">
        <ele>337</ele>
        <time>2021-09-04T09:26:04Z</time>
      </trkpt>
      <trkpt lat="44.0639" lon="2.91649">
        <ele>338</ele>
        <time>2021-09-04T09:26:16Z</time>
      </trkpt>
      <trkpt lat="44.06409" lon="2.91632">
        <ele>338</ele>
        <time>2021-09-04T09:26:20Z</time>
      </trkpt>
      <trkpt lat="44.06456" lon="2.91573">
        <ele>338</ele>
        <time>2021-09-04T09:26:31Z</time>
      </trkpt>
      <trkpt lat="44.06527" lon="2.91539">
        <ele>340</ele>
        <time>2021-09-04T09:26:44Z</time>
      </trkpt>
      <trkpt lat="44.06691" lon="2.91483">
        <ele>344</ele>
        <time>2021-09-04T09:27:14Z</time>
      </trkpt>
      <trkpt lat="44.06715" lon="2.91467">
        <ele>344</ele>
        <time>2021-09-04T09:27:19Z</time>
      </trkpt>
      <trkpt lat="44.06772" lon="2.914">
        <ele>348</ele>
        <time>2021-09-04T09:27:33Z</time>
      </trkpt>
      <trkpt lat="44.06816" lon="2.91316">
        <ele>344</ele>
        <time>2021-09-04T09:27:48Z</time>
      </trkpt>
      <trkpt lat="44.0688" lon="2.91256">
        <ele>347</ele>
        <time>2021-09-04T09:28:05Z</time>
      </trkpt>
      <trkpt lat="44.06887" lon="2.91246">
        <ele>347</ele>
        <time>2021-09-04T09:28:07Z</time>
      </trkpt>
      <trkpt lat="44.07004" lon="2.91132">
        <ele>348</ele>
        <time>2021-09-04T09:28:38Z</time>
      </trkpt>
      <trkpt lat="44.07055" lon="2.91091">
        <ele>345</ele>
        <time>2021-09-04T09:28:50Z</time>
      </trkpt>
      <trkpt lat="44.07144" lon="2.91046">
        <ele>347</ele>
        <time>2021-09-04T09:29:10Z</time>
      </trkpt>
      <trkpt lat="44.0723" lon="2.91029">
        <ele>346</ele>
        <time>2021-09-04T09:29:27Z</time>
      </trkpt>
      <trkpt lat="44.07242" lon="2.9103">
        <ele>345</ele>
        <time>2021-09-04T09:29:29Z</time>
      </trkpt>
      <trkpt lat="44.0727" lon="2.9104">
        <ele>341</ele>
        <time>2021-09-04T09:29:34Z</time>
      </trkpt>
      <trkpt lat="44.07305" lon="2.91068">
        <ele>339</ele>
        <time>2021-09-04T09:29:42Z</time>
      </trkpt>
      <trkpt lat="44.07331" lon="2.91104">
        <ele>337</ele>
        <time>2021-09-04T09:29:50Z</time>
      </trkpt>
      <trkpt lat="44.07362" lon="2.91149">
        <ele>337</ele>
        <time>2021-09-04T09:29:58Z</time>
      </trkpt>
      <trkpt lat="44.0747" lon="2.91294">
        <ele>333</ele>
        <time>2021-09-04T09:30:28Z</time>
      </trkpt>
      <trkpt lat="44.07498" lon="2.91344">
        <ele>330</ele>
        <time>2021-09-04T09:30:38Z</time>
      </trkpt>
      <trkpt lat="44.0754" lon="2.91383">
        <ele>330</ele>
        <time>2021-09-04T09:30:48Z</time>
      </trkpt>
      <trkpt lat="44.07549" lon="2.91401">
        <ele>330</ele>
        <time>2021-09-04T09:30:51Z</time>
      </trkpt>
      <trkpt lat="44.07558" lon="2.91427">
        <ele>329</ele>
        <time>2021-09-04T09:30:55Z</time>
      </trkpt>
      <trkpt lat="44.07573" lon="2.91506">
        <ele>325</ele>
        <time>2021-09-04T09:31:08Z</time>
      </trkpt>
      <trkpt lat="44.07574" lon="2.91537">
        <ele>325</ele>
        <time>2021-09-04T09:32:01Z</time>
      </trkpt>
      <trkpt lat="44.07578" lon="2.91559">
        <ele>325</ele>
        <time>2021-09-04T09:32:10Z</time>
      </trkpt>
      <trkpt lat="44.07582" lon="2.91559">
        <ele>324</ele>
        <time>2021-09-04T09:34:11Z</time>
      </trkpt>
      <trkpt lat="44.07589" lon="2.91583">
        <ele>325</ele>
        <time>2021-09-04T09:34:20Z</time>
      </trkpt>
      <trkpt lat="44.07596" lon="2.91592">
        <ele>326</ele>
        <time>2021-09-04T09:34:24Z</time>
      </trkpt>
      <trkpt lat="44.07685" lon="2.91661">
        <ele>321</ele>
        <time>2021-09-04T09:34:56Z</time>
      </trkpt>
      <trkpt lat="44.07799" lon="2.91736">
        <ele>323</ele>
        <time>2021-09-04T09:35:28Z</time>
      </trkpt>
      <trkpt lat="44.07853" lon="2.91786">
        <ele>324</ele>
        <time>2021-09-04T09:35:44Z</time>
      </trkpt>
      <trkpt lat="44.07943" lon="2.91912">
        <ele>321</ele>
        <time>2021-09-04T09:36:16Z</time>
      </trkpt>
      <trkpt lat="44.07958" lon="2.91937">
        <ele>321</ele>
        <time>2021-09-04T09:36:22Z</time>
      </trkpt>
      <trkpt lat="44.07963" lon="2.91944">
        <ele>321</ele>
        <time>2021-09-04T09:36:24Z</time>
      </trkpt>
      <trkpt lat="44.07977" lon="2.91962">
        <ele>321</ele>
        <time>2021-09-04T09:36:30Z</time>
      </trkpt>
      <trkpt lat="44.08097" lon="2.92037">
        <ele>325</ele>
        <time>2021-09-04T09:37:02Z</time>
      </trkpt>
      <trkpt lat="44.08103" lon="2.92044">
        <ele>326</ele>
        <time>2021-09-04T09:37:04Z</time>
      </trkpt>
      <trkpt lat="44.08146" lon="2.92067">
        <ele>331</ele>
        <time>2021-09-04T09:37:16Z</time>
      </trkpt>
      <trkpt lat="44.08173" lon="2.92079">
        <ele>332</ele>
        <time>2021-09-04T09:37:24Z</time>
      </trkpt>
      <trkpt lat="44.0818" lon="2.92082">
        <ele>332</ele>
        <time>2021-09-04T09:37:26Z</time>
      </trkpt>
      <trkpt lat="44.08185" lon="2.92089">
        <ele>332</ele>
        <time>2021-09-04T09:37:28Z</time>
      </trkpt>
      <trkpt lat="44.08188" lon="2.92101">
        <ele>332</ele>
        <time>2021-09-04T09:37:30Z</time>
      </trkpt>
      <trkpt lat="44.0818" lon="2.92127">
        <ele>333</ele>
        <time>2021-09-04T09:37:34Z</time>
      </trkpt>
      <trkpt lat="44.08173" lon="2.92195">
        <ele>331</ele>
        <time>2021-09-04T09:37:44Z</time>
      </trkpt>
      <trkpt lat="44.08173" lon="2.92204">
        <ele>332</ele>
        <time>2021-09-04T09:37:46Z</time>
      </trkpt>
      <trkpt lat="44.08198" lon="2.92204">
        <ele>333</ele>
        <time>2021-09-04T09:37:54Z</time>
      </trkpt>
      <trkpt lat="44.08268" lon="2.92181">
        <ele>345</ele>
        <time>2021-09-04T09:38:27Z</time>
      </trkpt>
      <trkpt lat="44.08293" lon="2.92164">
        <ele>346</ele>
        <time>2021-09-04T09:39:10Z</time>
      </trkpt>
      <trkpt lat="44.08345" lon="2.92123">
        <ele>349</ele>
        <time>2021-09-04T09:39:43Z</time>
      </trkpt>
      <trkpt lat="44.08364" lon="2.92109">
        <ele>350</ele>
        <time>2021-09-04T09:39:55Z</time>
      </trkpt>
      <trkpt lat="44.08376" lon="2.92103">
        <ele>352</ele>
        <time>2021-09-04T09:40:01Z</time>
      </trkpt>
      <trkpt lat="44.08448" lon="2.92085">
        <ele>359</ele>
        <time>2021-09-04T09:40:33Z</time>
      </trkpt>
      <trkpt lat="44.08482" lon="2.92077">
        <ele>362</ele>
        <time>2021-09-04T09:40:47Z</time>
      </trkpt>
      <trkpt lat="44.08558" lon="2.9208">
        <ele>369</ele>
        <time>2021-09-04T09:41:18Z</time>
      </trkpt>
      <trkpt lat="44.08596" lon="2.92066">
        <ele>372</ele>
        <time>2021-09-04T09:41:34Z</time>
      </trkpt>
      <trkpt lat="44.0867" lon="2.92023">
        <ele>375</ele>
        <time>2021-09-04T09:42:05Z</time>
      </trkpt>
      <trkpt lat="44.08695" lon="2.92016">
        <ele>376</ele>
        <time>2021-09-04T09:42:15Z</time>
      </trkpt>
      <trkpt lat="44.08725" lon="2.92016">
        <ele>376</ele>
        <time>2021-09-04T09:42:27Z</time>
      </trkpt>
      <trkpt lat="44.08746" lon="2.92021">
        <ele>377</ele>
        <time>2021-09-04T09:42:35Z</time>
      </trkpt>
      <trkpt lat="44.08757" lon="2.92027">
        <ele>377</ele>
        <time>2021-09-04T09:42:39Z</time>
      </trkpt>
      <trkpt lat="44.08766" lon="2.92037">
        <ele>378</ele>
        <time>2021-09-04T09:42:43Z</time>
      </trkpt>
      <trkpt lat="44.0877" lon="2.92043">
        <ele>378</ele>
        <time>2021-09-04T09:42:45Z</time>
      </trkpt>
      <trkpt lat="44.08773" lon="2.92051">
        <ele>378</ele>
        <time>2021-09-04T09:42:47Z</time>
      </trkpt>
      <trkpt lat="44.08776" lon="2.92067">
        <ele>378</ele>
        <time>2021-09-04T09:42:51Z</time>
      </trkpt>
      <trkpt lat="44.08776" lon="2.92087">
        <ele>378</ele>
        <time>2021-09-04T09:42:57Z</time>
      </trkpt>
      <trkpt lat="44.08777" lon="2.92094">
        <ele>379</ele>
        <time>2021-09-04T09:42:59Z</time>
      </trkpt>
      <trkpt lat="44.0878" lon="2.92101">
        <ele>379</ele>
        <time>2021-09-04T09:43:01Z</time>
      </trkpt>
      <trkpt lat="44.08785" lon="2.92108">
        <ele>379</ele>
        <time>2021-09-04T09:43:03Z</time>
      </trkpt>
      <trkpt lat="44.08817" lon="2.9211">
        <ele>383</ele>
        <time>2021-09-04T09:43:15Z</time>
      </trkpt>
      <trkpt lat="44.08834" lon="2.92122">
        <ele>384</ele>
        <time>2021-09-04T09:43:22Z</time>
      </trkpt>
      <trkpt lat="44.08857" lon="2.92153">
        <ele>387</ele>
        <time>2021-09-04T09:43:34Z</time>
      </trkpt>
      <trkpt lat="44.08862" lon="2.92158">
        <ele>387</ele>
        <time>2021-09-04T09:43:36Z</time>
      </trkpt>
      <trkpt lat="44.08954" lon="2.92166">
        <ele>392</ele>
        <time>2021-09-04T09:44:06Z</time>
      </trkpt>
      <trkpt lat="44.09041" lon="2.92165">
        <ele>396</ele>
        <time>2021-09-04T09:44:36Z</time>
      </trkpt>
      <trkpt lat="44.09143" lon="2.92199">
        <ele>400</ele>
        <time>2021-09-04T09:45:08Z</time>
      </trkpt>
      <trkpt lat="44.09154" lon="2.92205">
        <ele>399</ele>
        <time>2021-09-04T09:45:12Z</time>
      </trkpt>
      <trkpt lat="44.09162" lon="2.92216">
        <ele>399</ele>
        <time>2021-09-04T09:45:16Z</time>
      </trkpt>
      <trkpt lat="44.09171" lon="2.92244">
        <ele>400</ele>
        <time>2021-09-04T09:45:22Z</time>
      </trkpt>
      <trkpt lat="44.09175" lon="2.92254">
        <ele>399</ele>
        <time>2021-09-04T09:45:24Z</time>
      </trkpt>
      <trkpt lat="44.09181" lon="2.92259">
        <ele>399</ele>
        <time>2021-09-04T09:45:26Z</time>
      </trkpt>
      <trkpt lat="44.09201" lon="2.92254">
        <ele>400</ele>
        <time>2021-09-04T09:45:31Z</time>
      </trkpt>
      <trkpt lat="44.09226" lon="2.92239">
        <ele>401</ele>
        <time>2021-09-04T09:45:39Z</time>
      </trkpt>
      <trkpt lat="44.09343" lon="2.92239">
        <ele>399</ele>
        <time>2021-09-04T09:46:11Z</time>
      </trkpt>
      <trkpt lat="44.09358" lon="2.92238">
        <ele>399</ele>
        <time>2021-09-04T09:46:15Z</time>
      </trkpt>
      <trkpt lat="44.09372" lon="2.92242">
        <ele>399</ele>
        <time>2021-09-04T09:46:19Z</time>
      </trkpt>
      <trkpt lat="44.09392" lon="2.92255">
        <ele>398</ele>
        <time>2021-09-04T09:46:25Z</time>
      </trkpt>
      <trkpt lat="44.09399" lon="2.92257">
        <ele>397</ele>
        <time>2021-09-04T09:46:27Z</time>
      </trkpt>
      <trkpt lat="44.09415" lon="2.92256">
        <ele>397</ele>
        <time>2021-09-04T09:46:31Z</time>
      </trkpt>
      <trkpt lat="44.09454" lon="2.92238">
        <ele>397</ele>
        <time>2021-09-04T09:46:43Z</time>
      </trkpt>
      <trkpt lat="44.09475" lon="2.92238">
        <ele>398</ele>
        <time>2021-09-04T09:46:49Z</time>
      </trkpt>
      <trkpt lat="44.09504" lon="2.92248">
        <ele>398</ele>
        <time>2021-09-04T09:46:57Z</time>
      </trkpt>
      <trkpt lat="44.09518" lon="2.92255">
        <ele>399</ele>
        <time>2021-09-04T09:47:01Z</time>
      </trkpt>
      <trkpt lat="44.09537" lon="2.92275">
        <ele>399</ele>
        <time>2021-09-04T09:47:07Z</time>
      </trkpt>
      <trkpt lat="44.09552" lon="2.92301">
        <ele>399</ele>
        <time>2021-09-04T09:47:13Z</time>
      </trkpt>
      <trkpt lat="44.09557" lon="2.92322">
        <ele>398</ele>
        <time>2021-09-04T09:47:17Z</time>
      </trkpt>
      <trkpt lat="44.09564" lon="2.92481">
        <ele>390</ele>
        <time>2021-09-04T09:47:47Z</time>
      </trkpt>
      <trkpt lat="44.09583" lon="2.92625">
        <ele>389</ele>
        <time>2021-09-04T09:48:13Z</time>
      </trkpt>
      <trkpt lat="44.09601" lon="2.92707">
        <ele>390</ele>
        <time>2021-09-04T09:48:29Z</time>
      </trkpt>
      <trkpt lat="44.09603" lon="2.9276">
        <ele>390</ele>
        <time>2021-09-04T09:48:40Z</time>
      </trkpt>
      <trkpt lat="44.09605" lon="2.9277">
        <ele>389</ele>
        <time>2021-09-04T09:48:41Z</time>
      </trkpt>
      <trkpt lat="44.09637" lon="2.92836">
        <ele>388</ele>
        <time>2021-09-04T09:48:54Z</time>
      </trkpt>
      <trkpt lat="44.0965" lon="2.92853">
        <ele>389</ele>
        <time>2021-09-04T09:48:58Z</time>
      </trkpt>
      <trkpt lat="44.09684" lon="2.9288">
        <ele>393</ele>
        <time>2021-09-04T09:49:55Z</time>
      </trkpt>
      <trkpt lat="44.09689" lon="2.92884">
        <ele>393</ele>
        <time>2021-09-04T09:49:58Z</time>
      </trkpt>
      <trkpt lat="44.09756" lon="2.92958">
        <ele>399</ele>
        <time>2021-09-04T09:50:29Z</time>
      </trkpt>
      <trkpt lat="44.09853" lon="2.93041">
        <ele>400</ele>
        <time>2021-09-04T09:50:59Z</time>
      </trkpt>
      <trkpt lat="44.09866" lon="2.93052">
        <ele>400</ele>
        <time>2021-09-04T09:51:03Z</time>
      </trkpt>
      <trkpt lat="44.09876" lon="2.93069">
        <ele>400</ele>
        <time>2021-09-04T09:51:07Z</time>
      </trkpt>
      <trkpt lat="44.0988" lon="2.93079">
        <ele>399</ele>
        <time>2021-09-04T09:51:09Z</time>
      </trkpt>
      <trkpt lat="44.09877" lon="2.93144">
        <ele>398</ele>
        <time>2021-09-04T09:51:21Z</time>
      </trkpt>
      <trkpt lat="44.09879" lon="2.93155">
        <ele>398</ele>
        <time>2021-09-04T09:51:23Z</time>
      </trkpt>
      <trkpt lat="44.09885" lon="2.93162">
        <ele>398</ele>
        <time>2021-09-04T09:51:25Z</time>
      </trkpt>
      <trkpt lat="44.09893" lon="2.93165">
        <ele>398</ele>
        <time>2021-09-04T09:51:27Z</time>
      </trkpt>
      <trkpt lat="44.09899" lon="2.9316">
        <ele>400</ele>
        <time>2021-09-04T09:51:29Z</time>
      </trkpt>
      <trkpt lat="44.0994" lon="2.93105">
        <ele>401</ele>
        <time>2021-09-04T09:51:43Z</time>
      </trkpt>
      <trkpt lat="44.09954" lon="2.93093">
        <ele>401</ele>
        <time>2021-09-04T09:51:47Z</time>
      </trkpt>
      <trkpt lat="44.09968" lon="2.93086">
        <ele>402</ele>
        <time>2021-09-04T09:51:51Z</time>
      </trkpt>
      <trkpt lat="44.09992" lon="2.93087">
        <ele>402</ele>
        <time>2021-09-04T09:51:57Z</time>
      </trkpt>
      <trkpt lat="44.10007" lon="2.93091">
        <ele>403</ele>
        <time>2021-09-04T09:52:01Z</time>
      </trkpt>
      <trkpt lat="44.10022" lon="2.93102">
        <ele>403</ele>
        <time>2021-09-04T09:52:05Z</time>
      </trkpt>
      <trkpt lat="44.10035" lon="2.93115">
        <ele>404</ele>
        <time>2021-09-04T09:52:09Z</time>
      </trkpt>
      <trkpt lat="44.10068" lon="2.93178">
        <ele>406</ele>
        <time>2021-09-04T09:52:25Z</time>
      </trkpt>
      <trkpt lat="44.10084" lon="2.93215">
        <ele>405</ele>
        <time>2021-09-04T09:52:35Z</time>
      </trkpt>
      <trkpt lat="44.10087" lon="2.9322">
        <ele>405</ele>
        <time>2021-09-04T09:52:37Z</time>
      </trkpt>
      <trkpt lat="44.10092" lon="2.93222">
        <ele>405</ele>
        <time>2021-09-04T09:52:40Z</time>
      </trkpt>
      <trkpt lat="44.10102" lon="2.93245">
        <ele>405</ele>
        <time>2021-09-04T09:52:49Z</time>
      </trkpt>
      <trkpt lat="44.10141" lon="2.93308">
        <ele>398</ele>
        <time>2021-09-04T09:53:05Z</time>
      </trkpt>
      <trkpt lat="44.10189" lon="2.9339">
        <ele>399</ele>
        <time>2021-09-04T09:53:31Z</time>
      </trkpt>
      <trkpt lat="44.10193" lon="2.93396">
        <ele>400</ele>
        <time>2021-09-04T09:53:33Z</time>
      </trkpt>
      <trkpt lat="44.10197" lon="2.93401">
        <ele>401</ele>
        <time>2021-09-04T09:53:35Z</time>
      </trkpt>
      <trkpt lat="44.10208" lon="2.93401">
        <ele>403</ele>
        <time>2021-09-04T09:53:39Z</time>
      </trkpt>
      <trkpt lat="44.10216" lon="2.93392">
        <ele>404</ele>
        <time>2021-09-04T09:53:43Z</time>
      </trkpt>
      <trkpt lat="44.10222" lon="2.93329">
        <ele>408</ele>
        <time>2021-09-04T09:54:02Z</time>
      </trkpt>
      <trkpt lat="44.10232" lon="2.93322">
        <ele>410</ele>
        <time>2021-09-04T09:54:07Z</time>
      </trkpt>
      <trkpt lat="44.1031" lon="2.93348">
        <ele>421</ele>
        <time>2021-09-04T09:54:38Z</time>
      </trkpt>
      <trkpt lat="44.10394" lon="2.93351">
        <ele>426</ele>
        <time>2021-09-04T09:55:08Z</time>
      </trkpt>
      <trkpt lat="44.10465" lon="2.9329">
        <ele>430</ele>
        <time>2021-09-04T09:55:38Z</time>
      </trkpt>
      <trkpt lat="44.10539" lon="2.93226">
        <ele>433</ele>
        <time>2021-09-04T09:56:10Z</time>
      </trkpt>
      <trkpt lat="44.10595" lon="2.93203">
        <ele>436</ele>
        <time>2021-09-04T09:56:30Z</time>
      </trkpt>
      <trkpt lat="44.10601" lon="2.93208">
        <ele>436</ele>
        <time>2021-09-04T09:56:32Z</time>
      </trkpt>
      <trkpt lat="44.10605" lon="2.93215">
        <ele>436</ele>
        <time>2021-09-04T09:56:34Z</time>
      </trkpt>
      <trkpt lat="44.10608" lon="2.93244">
        <ele>436</ele>
        <time>2021-09-04T09:56:40Z</time>
      </trkpt>
      <trkpt lat="44.10609" lon="2.93461">
        <ele>430</ele>
        <time>2021-09-04T09:57:08Z</time>
      </trkpt>
      <trkpt lat="44.10611" lon="2.93478">
        <ele>429</ele>
        <time>2021-09-04T09:57:10Z</time>
      </trkpt>
      <trkpt lat="44.10643" lon="2.93571">
        <ele>427</ele>
        <time>2021-09-04T09:57:23Z</time>
      </trkpt>
      <trkpt lat="44.10682" lon="2.93625">
        <ele>426</ele>
        <time>2021-09-04T09:57:32Z</time>
      </trkpt>
      <trkpt lat="44.10689" lon="2.93645">
        <ele>424</ele>
        <time>2021-09-04T09:57:35Z</time>
      </trkpt>
      <trkpt lat="44.10693" lon="2.93669">
        <ele>422</ele>
        <time>2021-09-04T09:57:38Z</time>
      </trkpt>
      <trkpt lat="44.10695" lon="2.93742">
        <ele>419</ele>
        <time>2021-09-04T09:57:46Z</time>
      </trkpt>
      <trkpt lat="44.10696" lon="2.93749">
        <ele>418</ele>
        <time>2021-09-04T09:57:47Z</time>
      </trkpt>
      <trkpt lat="44.10699" lon="2.93757">
        <ele>418</ele>
        <time>2021-09-04T09:57:48Z</time>
      </trkpt>
      <trkpt lat="44.10702" lon="2.93765">
        <ele>417</ele>
        <time>2021-09-04T09:57:49Z</time>
      </trkpt>
      <trkpt lat="44.10708" lon="2.9377">
        <ele>417</ele>
        <time>2021-09-04T09:57:50Z</time>
      </trkpt>
      <trkpt lat="44.10714" lon="2.93773">
        <ele>418</ele>
        <time>2021-09-04T09:57:51Z</time>
      </trkpt>
      <trkpt lat="44.10719" lon="2.93772">
        <ele>419</ele>
        <time>2021-09-04T09:57:52Z</time>
      </trkpt>
      <trkpt lat="44.10724" lon="2.93769">
        <ele>421</ele>
        <time>2021-09-04T09:57:53Z</time>
      </trkpt>
      <trkpt lat="44.10762" lon="2.93679">
        <ele>425</ele>
        <time>2021-09-04T09:58:20Z</time>
      </trkpt>
      <trkpt lat="44.10773" lon="2.93665">
        <ele>425</ele>
        <time>2021-09-04T09:58:26Z</time>
      </trkpt>
      <trkpt lat="44.10796" lon="2.9366">
        <ele>426</ele>
        <time>2021-09-04T09:58:37Z</time>
      </trkpt>
      <trkpt lat="44.10849" lon="2.9365">
        <ele>433</ele>
        <time>2021-09-04T09:59:04Z</time>
      </trkpt>
      <trkpt lat="44.10888" lon="2.93626">
        <ele>435</ele>
        <time>2021-09-04T09:59:25Z</time>
      </trkpt>
      <trkpt lat="44.10946" lon="2.93573">
        <ele>442</ele>
        <time>2021-09-04T09:59:58Z</time>
      </trkpt>
      <trkpt lat="44.10994" lon="2.93545">
        <ele>446</ele>
        <time>2021-09-04T10:00:21Z</time>
      </trkpt>
      <trkpt lat="44.11014" lon="2.9354">
        <ele>448</ele>
        <time>2021-09-04T10:00:29Z</time>
      </trkpt>
      <trkpt lat="44.11024" lon="2.93541">
        <ele>448</ele>
        <time>2021-09-04T10:00:33Z</time>
      </trkpt>
      <trkpt lat="44.11029" lon="2.93543">
        <ele>449</ele>
        <time>2021-09-04T10:00:35Z</time>
      </trkpt>
      <trkpt lat="44.11034" lon="2.93547">
        <ele>448</ele>
        <time>2021-09-04T10:00:37Z</time>
      </trkpt>
      <trkpt lat="44.11078" lon="2.93622">
        <ele>451</ele>
        <time>2021-09-04T10:01:03Z</time>
      </trkpt>
      <trkpt lat="44.11089" lon="2.93631">
        <ele>451</ele>
        <time>2021-09-04T10:01:09Z</time>
      </trkpt>
      <trkpt lat="44.11099" lon="2.93636">
        <ele>451</ele>
        <time>2021-09-04T10:01:14Z</time>
      </trkpt>
      <trkpt lat="44.11111" lon="2.93636">
        <ele>450</ele>
        <time>2021-09-04T10:01:19Z</time>
      </trkpt>
      <trkpt lat="44.11118" lon="2.93619">
        <ele>450</ele>
        <time>2021-09-04T10:01:25Z</time>
      </trkpt>
      <trkpt lat="44.11115" lon="2.93567">
        <ele>450</ele>
        <time>2021-09-04T10:01:40Z</time>
      </trkpt>
      <trkpt lat="44.11118" lon="2.93559">
        <ele>450</ele>
        <time>2021-09-04T10:01:43Z</time>
      </trkpt>
      <trkpt lat="44.11185" lon="2.93535">
        <ele>458</ele>
        <time>2021-09-04T10:02:14Z</time>
      </trkpt>
      <trkpt lat="44.11255" lon="2.93508">
        <ele>463</ele>
        <time>2021-09-04T10:02:46Z</time>
      </trkpt>
      <trkpt lat="44.11309" lon="2.93492">
        <ele>465</ele>
        <time>2021-09-04T10:03:11Z</time>
      </trkpt>
      <trkpt lat="44.11327" lon="2.93502">
        <ele>467</ele>
        <time>2021-09-04T10:03:19Z</time>
      </trkpt>
      <trkpt lat="44.11348" lon="2.93517">
        <ele>469</ele>
        <time>2021-09-04T10:03:29Z</time>
      </trkpt>
      <trkpt lat="44.11396" lon="2.93546">
        <ele>474</ele>
        <time>2021-09-04T10:03:50Z</time>
      </trkpt>
      <trkpt lat="44.1142" lon="2.93563">
        <ele>477</ele>
        <time>2021-09-04T10:04:01Z</time>
      </trkpt>
      <trkpt lat="44.11436" lon="2.93565">
        <ele>479</ele>
        <time>2021-09-04T10:04:07Z</time>
      </trkpt>
      <trkpt lat="44.11503" lon="2.9353">
        <ele>479</ele>
        <time>2021-09-04T10:04:37Z</time>
      </trkpt>
      <trkpt lat="44.11573" lon="2.93474">
        <ele>480</ele>
        <time>2021-09-04T10:05:07Z</time>
      </trkpt>
      <trkpt lat="44.11633" lon="2.93447">
        <ele>484</ele>
        <time>2021-09-04T10:05:31Z</time>
      </trkpt>
      <trkpt lat="44.11652" lon="2.93458">
        <ele>487</ele>
        <time>2021-09-04T10:05:39Z</time>
      </trkpt>
      <trkpt lat="44.11681" lon="2.93489">
        <ele>493</ele>
        <time>2021-09-04T10:05:54Z</time>
      </trkpt>
      <trkpt lat="44.11704" lon="2.93528">
        <ele>494</ele>
        <time>2021-09-04T10:06:05Z</time>
      </trkpt>
      <trkpt lat="44.11713" lon="2.93546">
        <ele>494</ele>
        <time>2021-09-04T10:06:11Z</time>
      </trkpt>
      <trkpt lat="44.11716" lon="2.93553">
        <ele>494</ele>
        <time>2021-09-04T10:06:13Z</time>
      </trkpt>
      <trkpt lat="44.11727" lon="2.93583">
        <ele>495</ele>
        <time>2021-09-04T10:06:23Z</time>
      </trkpt>
      <trkpt lat="44.11735" lon="2.93638">
        <ele>497</ele>
        <time>2021-09-04T10:06:39Z</time>
      </trkpt>
      <trkpt lat="44.11737" lon="2.93669">
        <ele>496</ele>
        <time>2021-09-04T10:06:48Z</time>
      </trkpt>
      <trkpt lat="44.11738" lon="2.93676">
        <ele>495</ele>
        <time>2021-09-04T10:06:51Z</time>
      </trkpt>
      <trkpt lat="44.11738" lon="2.93691">
        <ele>493</ele>
        <time>2021-09-04T10:06:55Z</time>
      </trkpt>
      <trkpt lat="44.11739" lon="2.937">
        <ele>491</ele>
        <time>2021-09-04T10:06:57Z</time>
      </trkpt>
      <trkpt lat="44.11739" lon="2.9371">
        <ele>489</ele>
        <time>2021-09-04T10:06:59Z</time>
      </trkpt>
      <trkpt lat="44.11739" lon="2.93718">
        <ele>488</ele>
        <time>2021-09-04T10:07:01Z</time>
      </trkpt>
      <trkpt lat="44.11744" lon="2.93732">
        <ele>488</ele>
        <time>2021-09-04T10:07:06Z</time>
      </trkpt>
      <trkpt lat="44.11821" lon="2.93759">
        <ele>502</ele>
        <time>2021-09-04T10:07:37Z</time>
      </trkpt>
      <trkpt lat="44.11842" lon="2.93766">
        <ele>504</ele>
        <time>2021-09-04T10:07:45Z</time>
      </trkpt>
      <trkpt lat="44.11847" lon="2.93768">
        <ele>505</ele>
        <time>2021-09-04T10:07:47Z</time>
      </trkpt>
      <trkpt lat="44.11854" lon="2.93778">
        <ele>505</ele>
        <time>2021-09-04T10:07:51Z</time>
      </trkpt>
      <trkpt lat="44.11859" lon="2.93791">
        <ele>505</ele>
        <time>2021-09-04T10:07:55Z</time>
      </trkpt>
      <trkpt lat="44.1186" lon="2.93806">
        <ele>506</ele>
        <time>2021-09-04T10:07:59Z</time>
      </trkpt>
      <trkpt lat="44.11848" lon="2.93862">
        <ele>500</ele>
        <time>2021-09-04T10:08:17Z</time>
      </trkpt>
      <trkpt lat="44.11846" lon="2.93884">
        <ele>495</ele>
        <time>2021-09-04T10:08:24Z</time>
      </trkpt>
      <trkpt lat="44.11849" lon="2.93915">
        <ele>499</ele>
        <time>2021-09-04T10:08:32Z</time>
      </trkpt>
      <trkpt lat="44.11859" lon="2.93938">
        <ele>501</ele>
        <time>2021-09-04T10:08:40Z</time>
      </trkpt>
      <trkpt lat="44.11862" lon="2.93952">
        <ele>501</ele>
        <time>2021-09-04T10:08:44Z</time>
      </trkpt>
      <trkpt lat="44.11861" lon="2.93971">
        <ele>499</ele>
        <time>2021-09-04T10:08:50Z</time>
      </trkpt>
      <trkpt lat="44.11847" lon="2.94057">
        <ele>492</ele>
        <time>2021-09-04T10:09:17Z</time>
      </trkpt>
      <trkpt lat="44.11827" lon="2.941">
        <ele>479</ele>
        <time>2021-09-04T10:09:35Z</time>
      </trkpt>
      <trkpt lat="44.11822" lon="2.94109">
        <ele>477</ele>
        <time>2021-09-04T10:09:38Z</time>
      </trkpt>
      <trkpt lat="44.11794" lon="2.94152">
        <ele>457</ele>
        <time>2021-09-04T10:09:59Z</time>
      </trkpt>
      <trkpt lat="44.11789" lon="2.94165">
        <ele>453</ele>
        <time>2021-09-04T10:10:04Z</time>
      </trkpt>
      <trkpt lat="44.11786" lon="2.9418">
        <ele>444</ele>
        <time>2021-09-04T10:10:10Z</time>
      </trkpt>
      <trkpt lat="44.11784" lon="2.94196">
        <ele>442</ele>
        <time>2021-09-04T10:10:16Z</time>
      </trkpt>
      <trkpt lat="44.11781" lon="2.94213">
        <ele>436</ele>
        <time>2021-09-04T10:10:22Z</time>
      </trkpt>
      <trkpt lat="44.11778" lon="2.9423">
        <ele>434</ele>
        <time>2021-09-04T10:10:28Z</time>
      </trkpt>
      <trkpt lat="44.11767" lon="2.94337">
        <ele>413</ele>
        <time>2021-09-04T10:11:04Z</time>
      </trkpt>
      <trkpt lat="44.11763" lon="2.94353">
        <ele>415</ele>
        <time>2021-09-04T10:11:07Z</time>
      </trkpt>
      <trkpt lat="44.11761" lon="2.94369">
        <ele>419</ele>
        <time>2021-09-04T10:11:12Z</time>
      </trkpt>
      <trkpt lat="44.11757" lon="2.94404">
        <ele>420</ele>
        <time>2021-09-04T10:11:23Z</time>
      </trkpt>
      <trkpt lat="44.11758" lon="2.94425">
        <ele>417</ele>
        <time>2021-09-04T10:11:29Z</time>
      </trkpt>
      <trkpt lat="44.11763" lon="2.94443">
        <ele>416</ele>
        <time>2021-09-04T10:11:34Z</time>
      </trkpt>
      <trkpt lat="44.11778" lon="2.94451">
        <ele>420</ele>
        <time>2021-09-04T10:11:38Z</time>
      </trkpt>
      <trkpt lat="44.11787" lon="2.94441">
        <ele>430</ele>
        <time>2021-09-04T10:11:43Z</time>
      </trkpt>
      <trkpt lat="44.11792" lon="2.94428">
        <ele>434</ele>
        <time>2021-09-04T10:11:48Z</time>
      </trkpt>
      <trkpt lat="44.11835" lon="2.94389">
        <ele>496</ele>
        <time>2021-09-04T10:12:18Z</time>
      </trkpt>
      <trkpt lat="44.11842" lon="2.94387">
        <ele>497</ele>
        <time>2021-09-04T10:12:21Z</time>
      </trkpt>
      <trkpt lat="44.1185" lon="2.94385">
        <ele>500</ele>
        <time>2021-09-04T10:12:24Z</time>
      </trkpt>
      <trkpt lat="44.11868" lon="2.94374">
        <ele>504</ele>
        <time>2021-09-04T10:12:32Z</time>
      </trkpt>
      <trkpt lat="44.11896" lon="2.94276">
        <ele>519</ele>
        <time>2021-09-04T10:13:02Z</time>
      </trkpt>
      <trkpt lat="44.11904" lon="2.94266">
        <ele>522</ele>
        <time>2021-09-04T10:13:06Z</time>
      </trkpt>
      <trkpt lat="44.11975" lon="2.94233">
        <ele>535</ele>
        <time>2021-09-04T10:13:37Z</time>
      </trkpt>
      <trkpt lat="44.12034" lon="2.94162">
        <ele>541</ele>
        <time>2021-09-04T10:14:09Z</time>
      </trkpt>
      <trkpt lat="44.12102" lon="2.94121">
        <ele>548</ele>
        <time>2021-09-04T10:14:41Z</time>
      </trkpt>
      <trkpt lat="44.12133" lon="2.94065">
        <ele>552</ele>
        <time>2021-09-04T10:15:01Z</time>
      </trkpt>
      <trkpt lat="44.12136" lon="2.9406">
        <ele>552</ele>
        <time>2021-09-04T10:15:03Z</time>
      </trkpt>
      <trkpt lat="44.12139" lon="2.94054">
        <ele>553</ele>
        <time>2021-09-04T10:15:05Z</time>
      </trkpt>
      <trkpt lat="44.12182" lon="2.93989">
        <ele>559</ele>
        <time>2021-09-04T10:15:31Z</time>
      </trkpt>
      <trkpt lat="44.1221" lon="2.93968">
        <ele>562</ele>
        <time>2021-09-04T10:15:46Z</time>
      </trkpt>
      <trkpt lat="44.1222" lon="2.93967">
        <ele>563</ele>
        <time>2021-09-04T10:15:50Z</time>
      </trkpt>
      <trkpt lat="44.12225" lon="2.93969">
        <ele>563</ele>
        <time>2021-09-04T10:15:52Z</time>
      </trkpt>
      <trkpt lat="44.1223" lon="2.93972">
        <ele>564</ele>
        <time>2021-09-04T10:15:54Z</time>
      </trkpt>
      <trkpt lat="44.12233" lon="2.93977">
        <ele>564</ele>
        <time>2021-09-04T10:15:56Z</time>
      </trkpt>
      <trkpt lat="44.12237" lon="2.9399">
        <ele>565</ele>
        <time>2021-09-04T10:16:00Z</time>
      </trkpt>
      <trkpt lat="44.12238" lon="2.94003">
        <ele>566</ele>
        <time>2021-09-04T10:16:04Z</time>
      </trkpt>
      <trkpt lat="44.12235" lon="2.94016">
        <ele>567</ele>
        <time>2021-09-04T10:16:08Z</time>
      </trkpt>
      <trkpt lat="44.12205" lon="2.94124">
        <ele>562</ele>
        <time>2021-09-04T10:16:40Z</time>
      </trkpt>
      <trkpt lat="44.12196" lon="2.94159">
        <ele>561</ele>
        <time>2021-09-04T10:16:50Z</time>
      </trkpt>
      <trkpt lat="44.12191" lon="2.94192">
        <ele>562</ele>
        <time>2021-09-04T10:16:58Z</time>
      </trkpt>
      <trkpt lat="44.12203" lon="2.94294">
        <ele>562</ele>
        <time>2021-09-04T10:17:22Z</time>
      </trkpt>
      <trkpt lat="44.12227" lon="2.94383">
        <ele>564</ele>
        <time>2021-09-04T10:17:40Z</time>
      </trkpt>
      <trkpt lat="44.12249" lon="2.94431">
        <ele>566</ele>
        <time>2021-09-04T10:17:49Z</time>
      </trkpt>
      <trkpt lat="44.12254" lon="2.94449">
        <ele>567</ele>
        <time>2021-09-04T10:17:52Z</time>
      </trkpt>
      <trkpt lat="44.12255" lon="2.94462">
        <ele>567</ele>
        <time>2021-09-04T10:17:54Z</time>
      </trkpt>
      <trkpt lat="44.12244" lon="2.94505">
        <ele>568</ele>
        <time>2021-09-04T10:18:02Z</time>
      </trkpt>
      <trkpt lat="44.12229" lon="2.94542">
        <ele>567</ele>
        <time>2021-09-04T10:18:09Z</time>
      </trkpt>
      <trkpt lat="44.12226" lon="2.94554">
        <ele>567</ele>
        <time>2021-09-04T10:18:11Z</time>
      </trkpt>
      <trkpt lat="44.12228" lon="2.94573">
        <ele>568</ele>
        <time>2021-09-04T10:18:14Z</time>
      </trkpt>
      <trkpt lat="44.12229" lon="2.9458">
        <ele>568</ele>
        <time>2021-09-04T10:18:15Z</time>
      </trkpt>
      <trkpt lat="44.12237" lon="2.94599">
        <ele>571</ele>
        <time>2021-09-04T10:18:18Z</time>
      </trkpt>
      <trkpt lat="44.12282" lon="2.94681">
        <ele>577</ele>
        <time>2021-09-04T10:18:37Z</time>
      </trkpt>
      <trkpt lat="44.12312" lon="2.94811">
        <ele>578</ele>
        <time>2021-09-04T10:18:59Z</time>
      </trkpt>
      <trkpt lat="44.12325" lon="2.94834">
        <ele>579</ele>
        <time>2021-09-04T10:19:03Z</time>
      </trkpt>
      <trkpt lat="44.12337" lon="2.94847">
        <ele>580</ele>
        <time>2021-09-04T10:19:06Z</time>
      </trkpt>
      <trkpt lat="44.12396" lon="2.94892">
        <ele>584</ele>
        <time>2021-09-04T10:19:22Z</time>
      </trkpt>
      <trkpt lat="44.1241" lon="2.94913">
        <ele>586</ele>
        <time>2021-09-04T10:19:28Z</time>
      </trkpt>
      <trkpt lat="44.12423" lon="2.94961">
        <ele>588</ele>
        <time>2021-09-04T10:19:40Z</time>
      </trkpt>
      <trkpt lat="44.12423" lon="2.94968">
        <ele>588</ele>
        <time>2021-09-04T10:19:42Z</time>
      </trkpt>
      <trkpt lat="44.12423" lon="2.94976">
        <ele>588</ele>
        <time>2021-09-04T10:19:45Z</time>
      </trkpt>
      <trkpt lat="44.12424" lon="2.94979">
        <ele>588</ele>
        <time>2021-09-04T10:20:57Z</time>
      </trkpt>
      <trkpt lat="44.12429" lon="2.94974">
        <ele>588</ele>
        <time>2021-09-04T10:20:59Z</time>
      </trkpt>
      <trkpt lat="44.12501" lon="2.94929">
        <ele>582</ele>
        <time>2021-09-04T10:21:17Z</time>
      </trkpt>
      <trkpt lat="44.12548" lon="2.94854">
        <ele>583</ele>
        <time>2021-09-04T10:21:38Z</time>
      </trkpt>
      <trkpt lat="44.12553" lon="2.94852">
        <ele>583</ele>
        <time>2021-09-04T10:21:40Z</time>
      </trkpt>
      <trkpt lat="44.12557" lon="2.94846">
        <ele>582</ele>
        <time>2021-09-04T10:21:43Z</time>
      </trkpt>
      <trkpt lat="44.1256" lon="2.9484">
        <ele>581</ele>
        <time>2021-09-04T10:21:45Z</time>
      </trkpt>
      <trkpt lat="44.12566" lon="2.94828">
        <ele>581</ele>
        <time>2021-09-04T10:21:49Z</time>
      </trkpt>
      <trkpt lat="44.1257" lon="2.94823">
        <ele>581</ele>
        <time>2021-09-04T10:21:52Z</time>
      </trkpt>
      <trkpt lat="44.12575" lon="2.94821">
        <ele>580</ele>
        <time>2021-09-04T10:21:55Z</time>
      </trkpt>
      <trkpt lat="44.12584" lon="2.94819">
        <ele>581</ele>
        <time>2021-09-04T10:22:04Z</time>
      </trkpt>
      <trkpt lat="44.12607" lon="2.94811">
        <ele>580</ele>
        <time>2021-09-04T10:22:13Z</time>
      </trkpt>
      <trkpt lat="44.12617" lon="2.94803">
        <ele>580</ele>
        <time>2021-09-04T10:22:18Z</time>
      </trkpt>
      <trkpt lat="44.12631" lon="2.94796">
        <ele>581</ele>
        <time>2021-09-04T10:22:25Z</time>
      </trkpt>
      <trkpt lat="44.12637" lon="2.94793">
        <ele>581</ele>
        <time>2021-09-04T10:22:28Z</time>
      </trkpt>
      <trkpt lat="44.12641" lon="2.94789">
        <ele>581</ele>
        <time>2021-09-04T10:22:31Z</time>
      </trkpt>
      <trkpt lat="44.12645" lon="2.94785">
        <ele>581</ele>
        <time>2021-09-04T10:22:36Z</time>
      </trkpt>
      <trkpt lat="44.12667" lon="2.94775">
        <ele>580</ele>
        <time>2021-09-04T10:22:47Z</time>
      </trkpt>
      <trkpt lat="44.12668" lon="2.94778">
        <ele>581</ele>
        <time>2021-09-04T10:22:56Z</time>
      </trkpt>
      <trkpt lat="44.12651" lon="2.9478">
        <ele>582</ele>
        <time>2021-09-04T10:23:05Z</time>
      </trkpt>
      <trkpt lat="44.12646" lon="2.94787">
        <ele>581</ele>
        <time>2021-09-04T10:23:08Z</time>
      </trkpt>
      <trkpt lat="44.1264" lon="2.94793">
        <ele>580</ele>
        <time>2021-09-04T10:23:10Z</time>
      </trkpt>
      <trkpt lat="44.12599" lon="2.94814">
        <ele>577</ele>
        <time>2021-09-04T10:23:20Z</time>
      </trkpt>
      <trkpt lat="44.12581" lon="2.94817">
        <ele>574</ele>
        <time>2021-09-04T10:23:27Z</time>
      </trkpt>
      <trkpt lat="44.12571" lon="2.94822">
        <ele>572</ele>
        <time>2021-09-04T10:23:32Z</time>
      </trkpt>
      <trkpt lat="44.12552" lon="2.94845">
        <ele>570</ele>
        <time>2021-09-04T10:23:38Z</time>
      </trkpt>
      <trkpt lat="44.12547" lon="2.94852">
        <ele>568</ele>
        <time>2021-09-04T10:23:40Z</time>
      </trkpt>
      <trkpt lat="44.12542" lon="2.9486">
        <ele>565</ele>
        <time>2021-09-04T10:23:42Z</time>
      </trkpt>
      <trkpt lat="44.12521" lon="2.94886">
        <ele>560</ele>
        <time>2021-09-04T10:23:49Z</time>
      </trkpt>
      <trkpt lat="44.12503" lon="2.94913">
        <ele>557</ele>
        <time>2021-09-04T10:23:57Z</time>
      </trkpt>
      <trkpt lat="44.12469" lon="2.94945">
        <ele>558</ele>
        <time>2021-09-04T10:24:09Z</time>
      </trkpt>
      <trkpt lat="44.12456" lon="2.94954">
        <ele>560</ele>
        <time>2021-09-04T10:24:13Z</time>
      </trkpt>
      <trkpt lat="44.1244" lon="2.94965">
        <ele>565</ele>
        <time>2021-09-04T10:24:19Z</time>
      </trkpt>
      <trkpt lat="44.12428" lon="2.94978">
        <ele>567</ele>
        <time>2021-09-04T10:24:25Z</time>
      </trkpt>
      <trkpt lat="44.12424" lon="2.94982">
        <ele>568</ele>
        <time>2021-09-04T10:24:27Z</time>
      </trkpt>
      <trkpt lat="44.12416" lon="2.94991">
        <ele>569</ele>
        <time>2021-09-04T10:24:31Z</time>
      </trkpt>
      <trkpt lat="44.12399" lon="2.95043">
        <ele>566</ele>
        <time>2021-09-04T10:24:43Z</time>
      </trkpt>
      <trkpt lat="44.12389" lon="2.95105">
        <ele>561</ele>
        <time>2021-09-04T10:24:52Z</time>
      </trkpt>
      <trkpt lat="44.12392" lon="2.95198">
        <ele>563</ele>
        <time>2021-09-04T10:25:02Z</time>
      </trkpt>
      <trkpt lat="44.12398" lon="2.95229">
        <ele>563</ele>
        <time>2021-09-04T10:25:05Z</time>
      </trkpt>
      <trkpt lat="44.12425" lon="2.95303">
        <ele>562</ele>
        <time>2021-09-04T10:25:12Z</time>
      </trkpt>
      <trkpt lat="44.12427" lon="2.95314">
        <ele>562</ele>
        <time>2021-09-04T10:25:13Z</time>
      </trkpt>
      <trkpt lat="44.12429" lon="2.95326">
        <ele>562</ele>
        <time>2021-09-04T10:25:14Z</time>
      </trkpt>
      <trkpt lat="44.12426" lon="2.95349">
        <ele>561</ele>
        <time>2021-09-04T10:25:16Z</time>
      </trkpt>
      <trkpt lat="44.12417" lon="2.95371">
        <ele>560</ele>
        <time>2021-09-04T10:25:18Z</time>
      </trkpt>
      <trkpt lat="44.12404" lon="2.95389">
        <ele>559</ele>
        <time>2021-09-04T10:25:20Z</time>
      </trkpt>
      <trkpt lat="44.1239" lon="2.95401">
        <ele>557</ele>
        <time>2021-09-04T10:25:22Z</time>
      </trkpt>
      <trkpt lat="44.12312" lon="2.95439">
        <ele>551</ele>
        <time>2021-09-04T10:25:31Z</time>
      </trkpt>
      <trkpt lat="44.12298" lon="2.95454">
        <ele>550</ele>
        <time>2021-09-04T10:25:33Z</time>
      </trkpt>
      <trkpt lat="44.12293" lon="2.95464">
        <ele>550</ele>
        <time>2021-09-04T10:25:34Z</time>
      </trkpt>
      <trkpt lat="44.12289" lon="2.95475">
        <ele>549</ele>
        <time>2021-09-04T10:25:35Z</time>
      </trkpt>
      <trkpt lat="44.12284" lon="2.95523">
        <ele>547</ele>
        <time>2021-09-04T10:25:39Z</time>
      </trkpt>
      <trkpt lat="44.12277" lon="2.95545">
        <ele>545</ele>
        <time>2021-09-04T10:25:41Z</time>
      </trkpt>
      <trkpt lat="44.12244" lon="2.95605">
        <ele>541</ele>
        <time>2021-09-04T10:25:47Z</time>
      </trkpt>
      <trkpt lat="44.12233" lon="2.95638">
        <ele>539</ele>
        <time>2021-09-04T10:25:50Z</time>
      </trkpt>
      <trkpt lat="44.12229" lon="2.95659">
        <ele>538</ele>
        <time>2021-09-04T10:25:52Z</time>
      </trkpt>
      <trkpt lat="44.12229" lon="2.9567">
        <ele>538</ele>
        <time>2021-09-04T10:25:53Z</time>
      </trkpt>
      <trkpt lat="44.12235" lon="2.95692">
        <ele>539</ele>
        <time>2021-09-04T10:25:55Z</time>
      </trkpt>
      <trkpt lat="44.12241" lon="2.957">
        <ele>541</ele>
        <time>2021-09-04T10:25:56Z</time>
      </trkpt>
      <trkpt lat="44.12247" lon="2.95705">
        <ele>541</ele>
        <time>2021-09-04T10:25:57Z</time>
      </trkpt>
      <trkpt lat="44.12254" lon="2.95707">
        <ele>541</ele>
        <time>2021-09-04T10:25:58Z</time>
      </trkpt>
      <trkpt lat="44.12261" lon="2.95706">
        <ele>541</ele>
        <time>2021-09-04T10:25:59Z</time>
      </trkpt>
      <trkpt lat="44.12275" lon="2.95695">
        <ele>541</ele>
        <time>2021-09-04T10:26:02Z</time>
      </trkpt>
      <trkpt lat="44.12284" lon="2.95692">
        <ele>541</ele>
        <time>2021-09-04T10:26:04Z</time>
      </trkpt>
      <trkpt lat="44.12297" lon="2.95683">
        <ele>541</ele>
        <time>2021-09-04T10:26:07Z</time>
      </trkpt>
      <trkpt lat="44.12438" lon="2.95634">
        <ele>541</ele>
        <time>2021-09-04T10:26:30Z</time>
      </trkpt>
      <trkpt lat="44.12535" lon="2.95649">
        <ele>539</ele>
        <time>2021-09-04T10:26:44Z</time>
      </trkpt>
      <trkpt lat="44.12549" lon="2.95658">
        <ele>538</ele>
        <time>2021-09-04T10:26:46Z</time>
      </trkpt>
      <trkpt lat="44.1256" lon="2.95672">
        <ele>538</ele>
        <time>2021-09-04T10:26:48Z</time>
      </trkpt>
      <trkpt lat="44.12564" lon="2.9568">
        <ele>538</ele>
        <time>2021-09-04T10:26:49Z</time>
      </trkpt>
      <trkpt lat="44.12591" lon="2.95829">
        <ele>531</ele>
        <time>2021-09-04T10:27:04Z</time>
      </trkpt>
      <trkpt lat="44.12597" lon="2.95922">
        <ele>529</ele>
        <time>2021-09-04T10:27:13Z</time>
      </trkpt>
      <trkpt lat="44.12599" lon="2.95932">
        <ele>529</ele>
        <time>2021-09-04T10:27:14Z</time>
      </trkpt>
      <trkpt lat="44.12603" lon="2.9594">
        <ele>529</ele>
        <time>2021-09-04T10:27:15Z</time>
      </trkpt>
      <trkpt lat="44.12693" lon="2.96036">
        <ele>533</ele>
        <time>2021-09-04T10:27:45Z</time>
      </trkpt>
      <trkpt lat="44.12734" lon="2.96077">
        <ele>535</ele>
        <time>2021-09-04T10:28:05Z</time>
      </trkpt>
      <trkpt lat="44.12756" lon="2.96091">
        <ele>535</ele>
        <time>2021-09-04T10:28:13Z</time>
      </trkpt>
      <trkpt lat="44.12842" lon="2.96059">
        <ele>537</ele>
        <time>2021-09-04T10:28:44Z</time>
      </trkpt>
      <trkpt lat="44.1293" lon="2.9599">
        <ele>544</ele>
        <time>2021-09-04T10:29:16Z</time>
      </trkpt>
      <trkpt lat="44.1299" lon="2.95961">
        <ele>545</ele>
        <time>2021-09-04T10:29:36Z</time>
      </trkpt>
      <trkpt lat="44.12996" lon="2.95964">
        <ele>545</ele>
        <time>2021-09-04T10:29:38Z</time>
      </trkpt>
      <trkpt lat="44.13007" lon="2.95973">
        <ele>545</ele>
        <time>2021-09-04T10:29:42Z</time>
      </trkpt>
      <trkpt lat="44.1302" lon="2.95995">
        <ele>545</ele>
        <time>2021-09-04T10:29:48Z</time>
      </trkpt>
      <trkpt lat="44.13055" lon="2.96082">
        <ele>545</ele>
        <time>2021-09-04T10:30:05Z</time>
      </trkpt>
      <trkpt lat="44.13059" lon="2.96095">
        <ele>545</ele>
        <time>2021-09-04T10:30:07Z</time>
      </trkpt>
      <trkpt lat="44.13073" lon="2.96129">
        <ele>548</ele>
        <time>2021-09-04T10:30:12Z</time>
      </trkpt>
      <trkpt lat="44.13142" lon="2.96223">
        <ele>544</ele>
        <time>2021-09-04T10:30:31Z</time>
      </trkpt>
      <trkpt lat="44.13268" lon="2.96373">
        <ele>539</ele>
        <time>2021-09-04T10:30:59Z</time>
      </trkpt>
      <trkpt lat="44.13279" lon="2.96379">
        <ele>538</ele>
        <time>2021-09-04T10:31:01Z</time>
      </trkpt>
      <trkpt lat="44.13285" lon="2.9638">
        <ele>537</ele>
        <time>2021-09-04T10:31:02Z</time>
      </trkpt>
      <trkpt lat="44.13291" lon="2.96379">
        <ele>537</ele>
        <time>2021-09-04T10:31:03Z</time>
      </trkpt>
      <trkpt lat="44.13297" lon="2.96377">
        <ele>536</ele>
        <time>2021-09-04T10:31:04Z</time>
      </trkpt>
      <trkpt lat="44.13307" lon="2.96366">
        <ele>536</ele>
        <time>2021-09-04T10:31:06Z</time>
      </trkpt>
      <trkpt lat="44.13314" lon="2.96351">
        <ele>536</ele>
        <time>2021-09-04T10:31:08Z</time>
      </trkpt>
      <trkpt lat="44.13345" lon="2.96227">
        <ele>537</ele>
        <time>2021-09-04T10:31:32Z</time>
      </trkpt>
      <trkpt lat="44.13383" lon="2.96176">
        <ele>533</ele>
        <time>2021-09-04T10:31:44Z</time>
      </trkpt>
      <trkpt lat="44.13419" lon="2.96149">
        <ele>535</ele>
        <time>2021-09-04T10:31:53Z</time>
      </trkpt>
      <trkpt lat="44.13444" lon="2.96145">
        <ele>537</ele>
        <time>2021-09-04T10:31:59Z</time>
      </trkpt>
      <trkpt lat="44.13461" lon="2.96145">
        <ele>539</ele>
        <time>2021-09-04T10:32:03Z</time>
      </trkpt>
      <trkpt lat="44.13499" lon="2.96153">
        <ele>544</ele>
        <time>2021-09-04T10:32:13Z</time>
      </trkpt>
      <trkpt lat="44.13512" lon="2.96162">
        <ele>546</ele>
        <time>2021-09-04T10:32:17Z</time>
      </trkpt>
      <trkpt lat="44.13553" lon="2.96221">
        <ele>547</ele>
        <time>2021-09-04T10:32:35Z</time>
      </trkpt>
      <trkpt lat="44.13587" lon="2.9627">
        <ele>549</ele>
        <time>2021-09-04T10:32:49Z</time>
      </trkpt>
      <trkpt lat="44.13624" lon="2.96323">
        <ele>546</ele>
        <time>2021-09-04T10:33:02Z</time>
      </trkpt>
      <trkpt lat="44.13666" lon="2.96369">
        <ele>545</ele>
        <time>2021-09-04T10:33:16Z</time>
      </trkpt>
      <trkpt lat="44.13695" lon="2.96389">
        <ele>545</ele>
        <time>2021-09-04T10:33:26Z</time>
      </trkpt>
      <trkpt lat="44.13721" lon="2.96394">
        <ele>544</ele>
        <time>2021-09-04T10:33:34Z</time>
      </trkpt>
      <trkpt lat="44.13747" lon="2.96386">
        <ele>541</ele>
        <time>2021-09-04T10:33:42Z</time>
      </trkpt>
      <trkpt lat="44.13785" lon="2.96375">
        <ele>539</ele>
        <time>2021-09-04T10:33:52Z</time>
      </trkpt>
      <trkpt lat="44.13804" lon="2.96377">
        <ele>539</ele>
        <time>2021-09-04T10:33:56Z</time>
      </trkpt>
      <trkpt lat="44.1388" lon="2.96417">
        <ele>542</ele>
        <time>2021-09-04T10:34:13Z</time>
      </trkpt>
      <trkpt lat="44.13906" lon="2.96424">
        <ele>540</ele>
        <time>2021-09-04T10:34:18Z</time>
      </trkpt>
      <trkpt lat="44.13941" lon="2.96429">
        <ele>540</ele>
        <time>2021-09-04T10:34:26Z</time>
      </trkpt>
      <trkpt lat="44.13945" lon="2.9643">
        <ele>540</ele>
        <time>2021-09-04T10:34:28Z</time>
      </trkpt>
      <trkpt lat="44.1395" lon="2.96429">
        <ele>540</ele>
        <time>2021-09-04T10:34:30Z</time>
      </trkpt>
      <trkpt lat="44.13955" lon="2.96429">
        <ele>540</ele>
        <time>2021-09-04T10:34:32Z</time>
      </trkpt>
      <trkpt lat="44.13959" lon="2.96426">
        <ele>541</ele>
        <time>2021-09-04T10:34:59Z</time>
      </trkpt>
      <trkpt lat="44.13978" lon="2.96359">
        <ele>544</ele>
        <time>2021-09-04T10:35:19Z</time>
      </trkpt>
      <trkpt lat="44.13993" lon="2.96353">
        <ele>545</ele>
        <time>2021-09-04T10:35:25Z</time>
      </trkpt>
      <trkpt lat="44.14055" lon="2.9634">
        <ele>548</ele>
        <time>2021-09-04T10:35:55Z</time>
      </trkpt>
      <trkpt lat="44.14109" lon="2.96311">
        <ele>551</ele>
        <time>2021-09-04T10:36:26Z</time>
      </trkpt>
      <trkpt lat="44.14155" lon="2.96249">
        <ele>555</ele>
        <time>2021-09-04T10:36:57Z</time>
      </trkpt>
      <trkpt lat="44.14189" lon="2.9616">
        <ele>563</ele>
        <time>2021-09-04T10:37:30Z</time>
      </trkpt>
      <trkpt lat="44.14238" lon="2.96061">
        <ele>563</ele>
        <time>2021-09-04T10:38:01Z</time>
      </trkpt>
      <trkpt lat="44.14268" lon="2.96003">
        <ele>563</ele>
        <time>2021-09-04T10:38:14Z</time>
      </trkpt>
      <trkpt lat="44.14298" lon="2.95897">
        <ele>566</ele>
        <time>2021-09-04T10:38:29Z</time>
      </trkpt>
      <trkpt lat="44.14305" lon="2.95807">
        <ele>566</ele>
        <time>2021-09-04T10:38:41Z</time>
      </trkpt>
      <trkpt lat="44.14307" lon="2.95799">
        <ele>566</ele>
        <time>2021-09-04T10:38:42Z</time>
      </trkpt>
      <trkpt lat="44.14312" lon="2.95762">
        <ele>565</ele>
        <time>2021-09-04T10:38:47Z</time>
      </trkpt>
      <trkpt lat="44.14326" lon="2.95712">
        <ele>565</ele>
        <time>2021-09-04T10:38:53Z</time>
      </trkpt>
      <trkpt lat="44.14344" lon="2.95677">
        <ele>565</ele>
        <time>2021-09-04T10:38:58Z</time>
      </trkpt>
      <trkpt lat="44.14364" lon="2.95649">
        <ele>569</ele>
        <time>2021-09-04T10:39:04Z</time>
      </trkpt>
      <trkpt lat="44.14391" lon="2.95607">
        <ele>571</ele>
        <time>2021-09-04T10:39:16Z</time>
      </trkpt>
      <trkpt lat="44.14395" lon="2.95602">
        <ele>571</ele>
        <time>2021-09-04T10:39:18Z</time>
      </trkpt>
      <trkpt lat="44.14421" lon="2.95574">
        <ele>571</ele>
        <time>2021-09-04T10:39:28Z</time>
      </trkpt>
      <trkpt lat="44.14469" lon="2.95537">
        <ele>563</ele>
        <time>2021-09-04T10:39:49Z</time>
      </trkpt>
      <trkpt lat="44.14522" lon="2.95492">
        <ele>556</ele>
        <time>2021-09-04T10:40:14Z</time>
      </trkpt>
      <trkpt lat="44.14527" lon="2.95489">
        <ele>555</ele>
        <time>2021-09-04T10:40:17Z</time>
      </trkpt>
      <trkpt lat="44.14532" lon="2.95487">
        <ele>555</ele>
        <time>2021-09-04T10:40:19Z</time>
      </trkpt>
      <trkpt lat="44.14538" lon="2.95484">
        <ele>555</ele>
        <time>2021-09-04T10:40:21Z</time>
      </trkpt>
      <trkpt lat="44.14543" lon="2.9548">
        <ele>555</ele>
        <time>2021-09-04T10:40:23Z</time>
      </trkpt>
      <trkpt lat="44.14589" lon="2.9545">
        <ele>560</ele>
        <time>2021-09-04T10:40:43Z</time>
      </trkpt>
      <trkpt lat="44.14594" lon="2.95448">
        <ele>560</ele>
        <time>2021-09-04T10:40:45Z</time>
      </trkpt>
      <trkpt lat="44.14603" lon="2.95443">
        <ele>562</ele>
        <time>2021-09-04T10:40:49Z</time>
      </trkpt>
      <trkpt lat="44.14608" lon="2.95441">
        <ele>562</ele>
        <time>2021-09-04T10:40:51Z</time>
      </trkpt>
      <trkpt lat="44.14635" lon="2.95433">
        <ele>561</ele>
        <time>2021-09-04T10:41:03Z</time>
      </trkpt>
      <trkpt lat="44.14646" lon="2.95427">
        <ele>561</ele>
        <time>2021-09-04T10:41:08Z</time>
      </trkpt>
      <trkpt lat="44.14713" lon="2.95413">
        <ele>556</ele>
        <time>2021-09-04T10:41:39Z</time>
      </trkpt>
      <trkpt lat="44.14732" lon="2.95408">
        <ele>555</ele>
        <time>2021-09-04T10:41:47Z</time>
      </trkpt>
      <trkpt lat="44.14738" lon="2.95406">
        <ele>554</ele>
        <time>2021-09-04T10:41:50Z</time>
      </trkpt>
      <trkpt lat="44.14767" lon="2.95402">
        <ele>553</ele>
        <time>2021-09-04T10:42:01Z</time>
      </trkpt>
      <trkpt lat="44.14778" lon="2.954">
        <ele>554</ele>
        <time>2021-09-04T10:42:05Z</time>
      </trkpt>
      <trkpt lat="44.14843" lon="2.95399">
        <ele>555</ele>
        <time>2021-09-04T10:42:31Z</time>
      </trkpt>
      <trkpt lat="44.14912" lon="2.95395">
        <ele>566</ele>
        <time>2021-09-04T10:43:00Z</time>
      </trkpt>
      <trkpt lat="44.14922" lon="2.95393">
        <ele>567</ele>
        <time>2021-09-04T10:43:04Z</time>
      </trkpt>
      <trkpt lat="44.14932" lon="2.95386">
        <ele>568</ele>
        <time>2021-09-04T10:43:08Z</time>
      </trkpt>
      <trkpt lat="44.14945" lon="2.9537">
        <ele>570</ele>
        <time>2021-09-04T10:43:14Z</time>
      </trkpt>
      <trkpt lat="44.14954" lon="2.95347">
        <ele>573</ele>
        <time>2021-09-04T10:43:20Z</time>
      </trkpt>
      <trkpt lat="44.14958" lon="2.95317">
        <ele>575</ele>
        <time>2021-09-04T10:43:26Z</time>
      </trkpt>
      <trkpt lat="44.14963" lon="2.95299">
        <ele>577</ele>
        <time>2021-09-04T10:43:29Z</time>
      </trkpt>
      <trkpt lat="44.14972" lon="2.95279">
        <ele>579</ele>
        <time>2021-09-04T10:43:33Z</time>
      </trkpt>
      <trkpt lat="44.14977" lon="2.95271">
        <ele>579</ele>
        <time>2021-09-04T10:43:35Z</time>
      </trkpt>
      <trkpt lat="44.14984" lon="2.95266">
        <ele>579</ele>
        <time>2021-09-04T10:43:37Z</time>
      </trkpt>
      <trkpt lat="44.15096" lon="2.95227">
        <ele>582</ele>
        <time>2021-09-04T10:44:09Z</time>
      </trkpt>
      <trkpt lat="44.15104" lon="2.9523">
        <ele>581</ele>
        <time>2021-09-04T10:44:11Z</time>
      </trkpt>
      <trkpt lat="44.15109" lon="2.95236">
        <ele>581</ele>
        <time>2021-09-04T10:44:13Z</time>
      </trkpt>
      <trkpt lat="44.15115" lon="2.9524">
        <ele>581</ele>
        <time>2021-09-04T10:44:15Z</time>
      </trkpt>
      <trkpt lat="44.15131" lon="2.95275">
        <ele>578</ele>
        <time>2021-09-04T10:44:23Z</time>
      </trkpt>
      <trkpt lat="44.15141" lon="2.95294">
        <ele>577</ele>
        <time>2021-09-04T10:44:27Z</time>
      </trkpt>
      <trkpt lat="44.15174" lon="2.95323">
        <ele>578</ele>
        <time>2021-09-04T10:44:37Z</time>
      </trkpt>
      <trkpt lat="44.15194" lon="2.95337">
        <ele>578</ele>
        <time>2021-09-04T10:44:43Z</time>
      </trkpt>
      <trkpt lat="44.152" lon="2.95339">
        <ele>578</ele>
        <time>2021-09-04T10:44:45Z</time>
      </trkpt>
      <trkpt lat="44.15221" lon="2.95335">
        <ele>580</ele>
        <time>2021-09-04T10:44:51Z</time>
      </trkpt>
      <trkpt lat="44.15267" lon="2.95309">
        <ele>585</ele>
        <time>2021-09-04T10:45:05Z</time>
      </trkpt>
      <trkpt lat="44.1528" lon="2.95304">
        <ele>586</ele>
        <time>2021-09-04T10:45:09Z</time>
      </trkpt>
      <trkpt lat="44.15309" lon="2.95306">
        <ele>585</ele>
        <time>2021-09-04T10:45:17Z</time>
      </trkpt>
      <trkpt lat="44.1535" lon="2.95317">
        <ele>584</ele>
        <time>2021-09-04T10:45:29Z</time>
      </trkpt>
      <trkpt lat="44.15366" lon="2.95326">
        <ele>584</ele>
        <time>2021-09-04T10:45:33Z</time>
      </trkpt>
      <trkpt lat="44.15374" lon="2.95331">
        <ele>584</ele>
        <time>2021-09-04T10:45:35Z</time>
      </trkpt>
      <trkpt lat="44.15402" lon="2.95384">
        <ele>582</ele>
        <time>2021-09-04T10:45:47Z</time>
      </trkpt>
      <trkpt lat="44.15425" lon="2.95417">
        <ele>582</ele>
        <time>2021-09-04T10:45:57Z</time>
      </trkpt>
      <trkpt lat="44.15451" lon="2.95445">
        <ele>585</ele>
        <time>2021-09-04T10:46:07Z</time>
      </trkpt>
      <trkpt lat="44.15462" lon="2.95451">
        <ele>586</ele>
        <time>2021-09-04T10:46:11Z</time>
      </trkpt>
      <trkpt lat="44.15496" lon="2.95429">
        <ele>589</ele>
        <time>2021-09-04T10:46:22Z</time>
      </trkpt>
      <trkpt lat="44.15514" lon="2.95406">
        <ele>589</ele>
        <time>2021-09-04T10:46:28Z</time>
      </trkpt>
      <trkpt lat="44.15529" lon="2.95399">
        <ele>590</ele>
        <time>2021-09-04T10:46:31Z</time>
      </trkpt>
      <trkpt lat="44.15541" lon="2.95398">
        <ele>590</ele>
        <time>2021-09-04T10:46:33Z</time>
      </trkpt>
      <trkpt lat="44.15557" lon="2.95401">
        <ele>590</ele>
        <time>2021-09-04T10:46:36Z</time>
      </trkpt>
      <trkpt lat="44.15738" lon="2.95507">
        <ele>585</ele>
        <time>2021-09-04T10:47:06Z</time>
      </trkpt>
      <trkpt lat="44.15751" lon="2.95511">
        <ele>584</ele>
        <time>2021-09-04T10:47:08Z</time>
      </trkpt>
      <trkpt lat="44.15757" lon="2.95511">
        <ele>584</ele>
        <time>2021-09-04T10:47:09Z</time>
      </trkpt>
      <trkpt lat="44.15768" lon="2.95505">
        <ele>584</ele>
        <time>2021-09-04T10:47:11Z</time>
      </trkpt>
      <trkpt lat="44.15796" lon="2.95467">
        <ele>581</ele>
        <time>2021-09-04T10:47:19Z</time>
      </trkpt>
      <trkpt lat="44.15806" lon="2.95447">
        <ele>579</ele>
        <time>2021-09-04T10:47:22Z</time>
      </trkpt>
      <trkpt lat="44.15819" lon="2.95419">
        <ele>577</ele>
        <time>2021-09-04T10:47:26Z</time>
      </trkpt>
      <trkpt lat="44.15824" lon="2.95408">
        <ele>576</ele>
        <time>2021-09-04T10:47:28Z</time>
      </trkpt>
      <trkpt lat="44.15833" lon="2.954">
        <ele>575</ele>
        <time>2021-09-04T10:47:30Z</time>
      </trkpt>
      <trkpt lat="44.15844" lon="2.95402">
        <ele>575</ele>
        <time>2021-09-04T10:47:32Z</time>
      </trkpt>
      <trkpt lat="44.1585" lon="2.95406">
        <ele>575</ele>
        <time>2021-09-04T10:47:33Z</time>
      </trkpt>
      <trkpt lat="44.15858" lon="2.95417">
        <ele>576</ele>
        <time>2021-09-04T10:47:35Z</time>
      </trkpt>
      <trkpt lat="44.15861" lon="2.95422">
        <ele>576</ele>
        <time>2021-09-04T10:47:36Z</time>
      </trkpt>
      <trkpt lat="44.15866" lon="2.95433">
        <ele>578</ele>
        <time>2021-09-04T10:47:38Z</time>
      </trkpt>
      <trkpt lat="44.15873" lon="2.95452">
        <ele>580</ele>
        <time>2021-09-04T10:47:42Z</time>
      </trkpt>
      <trkpt lat="44.15881" lon="2.95461">
        <ele>582</ele>
        <time>2021-09-04T10:47:46Z</time>
      </trkpt>
      <trkpt lat="44.15888" lon="2.95471">
        <ele>584</ele>
        <time>2021-09-04T10:47:50Z</time>
      </trkpt>
      <trkpt lat="44.15896" lon="2.95482">
        <ele>586</ele>
        <time>2021-09-04T10:47:55Z</time>
      </trkpt>
      <trkpt lat="44.1591" lon="2.95495">
        <ele>590</ele>
        <time>2021-09-04T10:48:07Z</time>
      </trkpt>
      <trkpt lat="44.15958" lon="2.95489">
        <ele>598</ele>
        <time>2021-09-04T10:48:37Z</time>
      </trkpt>
      <trkpt lat="44.16004" lon="2.95478">
        <ele>603</ele>
        <time>2021-09-04T10:48:58Z</time>
      </trkpt>
      <trkpt lat="44.16008" lon="2.95476">
        <ele>603</ele>
        <time>2021-09-04T10:49:01Z</time>
      </trkpt>
      <trkpt lat="44.16023" lon="2.9548">
        <ele>606</ele>
        <time>2021-09-04T10:50:00Z</time>
      </trkpt>
      <trkpt lat="44.16028" lon="2.95481">
        <ele>607</ele>
        <time>2021-09-04T10:50:43Z</time>
      </trkpt>
      <trkpt lat="44.16078" lon="2.95478">
        <ele>603</ele>
        <time>2021-09-04T10:51:06Z</time>
      </trkpt>
      <trkpt lat="44.16103" lon="2.95484">
        <ele>605</ele>
        <time>2021-09-04T10:51:16Z</time>
      </trkpt>
      <trkpt lat="44.16113" lon="2.95491">
        <ele>606</ele>
        <time>2021-09-04T10:51:21Z</time>
      </trkpt>
      <trkpt lat="44.16122" lon="2.95495">
        <ele>605</ele>
        <time>2021-09-04T10:51:25Z</time>
      </trkpt>
      <trkpt lat="44.16147" lon="2.95492">
        <ele>605</ele>
        <time>2021-09-04T10:51:37Z</time>
      </trkpt>
      <trkpt lat="44.16158" lon="2.95496">
        <ele>606</ele>
        <time>2021-09-04T10:51:41Z</time>
      </trkpt>
      <trkpt lat="44.1617" lon="2.95507">
        <ele>609</ele>
        <time>2021-09-04T10:51:47Z</time>
      </trkpt>
      <trkpt lat="44.16203" lon="2.95584">
        <ele>616</ele>
        <time>2021-09-04T10:52:16Z</time>
      </trkpt>
      <trkpt lat="44.16241" lon="2.95652">
        <ele>620</ele>
        <time>2021-09-04T10:52:46Z</time>
      </trkpt>
      <trkpt lat="44.16244" lon="2.9567">
        <ele>622</ele>
        <time>2021-09-04T10:52:52Z</time>
      </trkpt>
      <trkpt lat="44.16244" lon="2.95677">
        <ele>622</ele>
        <time>2021-09-04T10:52:54Z</time>
      </trkpt>
      <trkpt lat="44.16246" lon="2.95693">
        <ele>624</ele>
        <time>2021-09-04T10:52:59Z</time>
      </trkpt>
      <trkpt lat="44.16254" lon="2.95707">
        <ele>625</ele>
        <time>2021-09-04T10:53:05Z</time>
      </trkpt>
      <trkpt lat="44.16258" lon="2.9571">
        <ele>626</ele>
        <time>2021-09-04T10:53:07Z</time>
      </trkpt>
      <trkpt lat="44.16263" lon="2.9571">
        <ele>626</ele>
        <time>2021-09-04T10:53:10Z</time>
      </trkpt>
      <trkpt lat="44.16271" lon="2.9572">
        <ele>628</ele>
        <time>2021-09-04T10:53:19Z</time>
      </trkpt>
      <trkpt lat="44.16278" lon="2.95732">
        <ele>629</ele>
        <time>2021-09-04T10:53:27Z</time>
      </trkpt>
      <trkpt lat="44.16284" lon="2.95745">
        <ele>628</ele>
        <time>2021-09-04T10:53:31Z</time>
      </trkpt>
      <trkpt lat="44.16288" lon="2.9575">
        <ele>627</ele>
        <time>2021-09-04T10:53:33Z</time>
      </trkpt>
      <trkpt lat="44.16292" lon="2.95758">
        <ele>627</ele>
        <time>2021-09-04T10:53:36Z</time>
      </trkpt>
      <trkpt lat="44.16289" lon="2.95757">
        <ele>627</ele>
        <time>2021-09-04T10:53:44Z</time>
      </trkpt>
      <trkpt lat="44.16287" lon="2.9575">
        <ele>627</ele>
        <time>2021-09-04T10:53:46Z</time>
      </trkpt>
      <trkpt lat="44.16269" lon="2.95708">
        <ele>634</ele>
        <time>2021-09-04T10:54:01Z</time>
      </trkpt>
      <trkpt lat="44.16272" lon="2.95702">
        <ele>635</ele>
        <time>2021-09-04T10:54:04Z</time>
      </trkpt>
      <trkpt lat="44.16277" lon="2.95701">
        <ele>634</ele>
        <time>2021-09-04T10:54:07Z</time>
      </trkpt>
      <trkpt lat="44.16291" lon="2.95712">
        <ele>633</ele>
        <time>2021-09-04T10:54:14Z</time>
      </trkpt>
      <trkpt lat="44.16293" lon="2.95717">
        <ele>632</ele>
        <time>2021-09-04T10:54:16Z</time>
      </trkpt>
      <trkpt lat="44.16294" lon="2.95713">
        <ele>632</ele>
        <time>2021-09-04T10:54:26Z</time>
      </trkpt>
      <trkpt lat="44.16288" lon="2.9571">
        <ele>632</ele>
        <time>2021-09-04T10:54:28Z</time>
      </trkpt>
      <trkpt lat="44.16279" lon="2.95701">
        <ele>633</ele>
        <time>2021-09-04T10:54:32Z</time>
      </trkpt>
      <trkpt lat="44.16265" lon="2.95692">
        <ele>633</ele>
        <time>2021-09-04T10:54:38Z</time>
      </trkpt>
      <trkpt lat="44.16256" lon="2.95687">
        <ele>633</ele>
        <time>2021-09-04T10:58:29Z</time>
      </trkpt>
      <trkpt lat="44.16255" lon="2.95693">
        <ele>638</ele>
        <time>2021-09-04T11:19:50Z</time>
      </trkpt>
      <trkpt lat="44.16256" lon="2.95689">
        <ele>637</ele>
        <time>2021-09-04T11:22:48Z</time>
      </trkpt>
      <trkpt lat="44.16264" lon="2.95701">
        <ele>636</ele>
        <time>2021-09-04T11:22:53Z</time>
      </trkpt>
      <trkpt lat="44.16271" lon="2.95718">
        <ele>636</ele>
        <time>2021-09-04T11:22:56Z</time>
      </trkpt>
      <trkpt lat="44.1629" lon="2.95754">
        <ele>634</ele>
        <time>2021-09-04T11:23:02Z</time>
      </trkpt>
      <trkpt lat="44.16305" lon="2.9577">
        <ele>634</ele>
        <time>2021-09-04T11:23:06Z</time>
      </trkpt>
      <trkpt lat="44.16338" lon="2.95797">
        <ele>631</ele>
        <time>2021-09-04T11:23:16Z</time>
      </trkpt>
      <trkpt lat="44.16379" lon="2.95844">
        <ele>624</ele>
        <time>2021-09-04T11:23:27Z</time>
      </trkpt>
      <trkpt lat="44.16413" lon="2.95867">
        <ele>622</ele>
        <time>2021-09-04T11:23:33Z</time>
      </trkpt>
      <trkpt lat="44.16437" lon="2.95877">
        <ele>619</ele>
        <time>2021-09-04T11:23:38Z</time>
      </trkpt>
      <trkpt lat="44.16484" lon="2.9586">
        <ele>618</ele>
        <time>2021-09-04T11:23:45Z</time>
      </trkpt>
      <trkpt lat="44.16526" lon="2.95843">
        <ele>617</ele>
        <time>2021-09-04T11:23:51Z</time>
      </trkpt>
      <trkpt lat="44.1662" lon="2.95833">
        <ele>614</ele>
        <time>2021-09-04T11:24:07Z</time>
      </trkpt>
      <trkpt lat="44.16656" lon="2.95839">
        <ele>614</ele>
        <time>2021-09-04T11:24:17Z</time>
      </trkpt>
      <trkpt lat="44.16676" lon="2.95848">
        <ele>613</ele>
        <time>2021-09-04T11:24:22Z</time>
      </trkpt>
      <trkpt lat="44.16691" lon="2.9586">
        <ele>611</ele>
        <time>2021-09-04T11:24:30Z</time>
      </trkpt>
      <trkpt lat="44.16694" lon="2.95865">
        <ele>610</ele>
        <time>2021-09-04T11:25:28Z</time>
      </trkpt>
      <trkpt lat="44.16696" lon="2.95872">
        <ele>610</ele>
        <time>2021-09-04T11:27:28Z</time>
      </trkpt>
      <trkpt lat="44.167" lon="2.95868">
        <ele>621</ele>
        <time>2021-09-04T11:29:20Z</time>
      </trkpt>
      <trkpt lat="44.16702" lon="2.95866">
        <ele>635</ele>
        <time>2021-09-04T11:30:12Z</time>
      </trkpt>
      <trkpt lat="44.16706" lon="2.95865">
        <ele>636</ele>
        <time>2021-09-04T11:36:52Z</time>
      </trkpt>
      <trkpt lat="44.16708" lon="2.95872">
        <ele>636</ele>
        <time>2021-09-04T11:42:07Z</time>
      </trkpt>
      <trkpt lat="44.16711" lon="2.95878">
        <ele>636</ele>
        <time>2021-09-04T11:42:09Z</time>
      </trkpt>
      <trkpt lat="44.16788" lon="2.96036">
        <ele>624</ele>
        <time>2021-09-04T11:42:39Z</time>
      </trkpt>
      <trkpt lat="44.16838" lon="2.96097">
        <ele>621</ele>
        <time>2021-09-04T11:42:48Z</time>
      </trkpt>
      <trkpt lat="44.16859" lon="2.96111">
        <ele>621</ele>
        <time>2021-09-04T11:42:52Z</time>
      </trkpt>
      <trkpt lat="44.16976" lon="2.96156">
        <ele>620</ele>
        <time>2021-09-04T11:43:14Z</time>
      </trkpt>
      <trkpt lat="44.17068" lon="2.96236">
        <ele>619</ele>
        <time>2021-09-04T11:43:35Z</time>
      </trkpt>
      <trkpt lat="44.17113" lon="2.96261">
        <ele>616</ele>
        <time>2021-09-04T11:43:47Z</time>
      </trkpt>
      <trkpt lat="44.17146" lon="2.96293">
        <ele>614</ele>
        <time>2021-09-04T11:43:57Z</time>
      </trkpt>
      <trkpt lat="44.17166" lon="2.96326">
        <ele>612</ele>
        <time>2021-09-04T11:44:05Z</time>
      </trkpt>
      <trkpt lat="44.1723" lon="2.9648">
        <ele>613</ele>
        <time>2021-09-04T11:44:37Z</time>
      </trkpt>
      <trkpt lat="44.17244" lon="2.96501">
        <ele>614</ele>
        <time>2021-09-04T11:44:43Z</time>
      </trkpt>
      <trkpt lat="44.17257" lon="2.96514">
        <ele>614</ele>
        <time>2021-09-04T11:44:47Z</time>
      </trkpt>
      <trkpt lat="44.17371" lon="2.96587">
        <ele>619</ele>
        <time>2021-09-04T11:45:17Z</time>
      </trkpt>
      <trkpt lat="44.17412" lon="2.96622">
        <ele>619</ele>
        <time>2021-09-04T11:45:28Z</time>
      </trkpt>
      <trkpt lat="44.17423" lon="2.96639">
        <ele>619</ele>
        <time>2021-09-04T11:45:32Z</time>
      </trkpt>
      <trkpt lat="44.17474" lon="2.96746">
        <ele>622</ele>
        <time>2021-09-04T11:45:55Z</time>
      </trkpt>
      <trkpt lat="44.17496" lon="2.96788">
        <ele>620</ele>
        <time>2021-09-04T11:46:03Z</time>
      </trkpt>
      <trkpt lat="44.1751" lon="2.96827">
        <ele>619</ele>
        <time>2021-09-04T11:46:11Z</time>
      </trkpt>
      <trkpt lat="44.17545" lon="2.96971">
        <ele>622</ele>
        <time>2021-09-04T11:46:41Z</time>
      </trkpt>
      <trkpt lat="44.17549" lon="2.96994">
        <ele>621</ele>
        <time>2021-09-04T11:46:45Z</time>
      </trkpt>
      <trkpt lat="44.17548" lon="2.97013">
        <ele>622</ele>
        <time>2021-09-04T11:46:49Z</time>
      </trkpt>
      <trkpt lat="44.17544" lon="2.97033">
        <ele>622</ele>
        <time>2021-09-04T11:46:53Z</time>
      </trkpt>
      <trkpt lat="44.17536" lon="2.97061">
        <ele>622</ele>
        <time>2021-09-04T11:46:59Z</time>
      </trkpt>
      <trkpt lat="44.17533" lon="2.97093">
        <ele>622</ele>
        <time>2021-09-04T11:47:05Z</time>
      </trkpt>
      <trkpt lat="44.1753" lon="2.97171">
        <ele>620</ele>
        <time>2021-09-04T11:47:19Z</time>
      </trkpt>
      <trkpt lat="44.17505" lon="2.97354">
        <ele>617</ele>
        <time>2021-09-04T11:47:49Z</time>
      </trkpt>
      <trkpt lat="44.17505" lon="2.97392">
        <ele>616</ele>
        <time>2021-09-04T11:47:55Z</time>
      </trkpt>
      <trkpt lat="44.17506" lon="2.97403">
        <ele>616</ele>
        <time>2021-09-04T11:47:57Z</time>
      </trkpt>
      <trkpt lat="44.17506" lon="2.97414">
        <ele>615</ele>
        <time>2021-09-04T11:47:59Z</time>
      </trkpt>
      <trkpt lat="44.17516" lon="2.97536">
        <ele>618</ele>
        <time>2021-09-04T11:48:20Z</time>
      </trkpt>
      <trkpt lat="44.17515" lon="2.97547">
        <ele>618</ele>
        <time>2021-09-04T11:48:22Z</time>
      </trkpt>
      <trkpt lat="44.17513" lon="2.97556">
        <ele>618</ele>
        <time>2021-09-04T11:48:24Z</time>
      </trkpt>
      <trkpt lat="44.17491" lon="2.97588">
        <ele>620</ele>
        <time>2021-09-04T11:48:34Z</time>
      </trkpt>
      <trkpt lat="44.17487" lon="2.97599">
        <ele>620</ele>
        <time>2021-09-04T11:48:36Z</time>
      </trkpt>
      <trkpt lat="44.17486" lon="2.97608">
        <ele>620</ele>
        <time>2021-09-04T11:48:37Z</time>
      </trkpt>
      <trkpt lat="44.1749" lon="2.97646">
        <ele>621</ele>
        <time>2021-09-04T11:48:42Z</time>
      </trkpt>
      <trkpt lat="44.17516" lon="2.97755">
        <ele>623</ele>
        <time>2021-09-04T11:48:59Z</time>
      </trkpt>
      <trkpt lat="44.17522" lon="2.97786">
        <ele>627</ele>
        <time>2021-09-04T11:49:05Z</time>
      </trkpt>
      <trkpt lat="44.17533" lon="2.97847">
        <ele>628</ele>
        <time>2021-09-04T11:49:21Z</time>
      </trkpt>
      <trkpt lat="44.17537" lon="2.97919">
        <ele>629</ele>
        <time>2021-09-04T11:49:45Z</time>
      </trkpt>
      <trkpt lat="44.17533" lon="2.98009">
        <ele>634</ele>
        <time>2021-09-04T11:50:18Z</time>
      </trkpt>
      <trkpt lat="44.17527" lon="2.981">
        <ele>639</ele>
        <time>2021-09-04T11:50:49Z</time>
      </trkpt>
      <trkpt lat="44.17524" lon="2.98159">
        <ele>639</ele>
        <time>2021-09-04T11:51:11Z</time>
      </trkpt>
      <trkpt lat="44.17526" lon="2.98209">
        <ele>640</ele>
        <time>2021-09-04T11:51:29Z</time>
      </trkpt>
      <trkpt lat="44.17525" lon="2.98216">
        <ele>639</ele>
        <time>2021-09-04T11:51:32Z</time>
      </trkpt>
      <trkpt lat="44.1753" lon="2.98257">
        <ele>642</ele>
        <time>2021-09-04T11:51:47Z</time>
      </trkpt>
      <trkpt lat="44.17532" lon="2.98264">
        <ele>643</ele>
        <time>2021-09-04T11:51:50Z</time>
      </trkpt>
      <trkpt lat="44.17534" lon="2.9827">
        <ele>644</ele>
        <time>2021-09-04T11:51:54Z</time>
      </trkpt>
      <trkpt lat="44.17537" lon="2.98287">
        <ele>646</ele>
        <time>2021-09-04T11:51:59Z</time>
      </trkpt>
      <trkpt lat="44.17538" lon="2.98296">
        <ele>647</ele>
        <time>2021-09-04T11:52:03Z</time>
      </trkpt>
      <trkpt lat="44.17539" lon="2.98306">
        <ele>648</ele>
        <time>2021-09-04T11:52:06Z</time>
      </trkpt>
      <trkpt lat="44.1754" lon="2.98315">
        <ele>650</ele>
        <time>2021-09-04T11:52:09Z</time>
      </trkpt>
      <trkpt lat="44.17543" lon="2.98323">
        <ele>649</ele>
        <time>2021-09-04T11:52:12Z</time>
      </trkpt>
      <trkpt lat="44.17555" lon="2.98343">
        <ele>652</ele>
        <time>2021-09-04T11:52:22Z</time>
      </trkpt>
      <trkpt lat="44.17562" lon="2.98354">
        <ele>654</ele>
        <time>2021-09-04T11:52:29Z</time>
      </trkpt>
      <trkpt lat="44.17566" lon="2.98359">
        <ele>655</ele>
        <time>2021-09-04T11:52:31Z</time>
      </trkpt>
      <trkpt lat="44.1757" lon="2.98372">
        <ele>656</ele>
        <time>2021-09-04T11:52:42Z</time>
      </trkpt>
      <trkpt lat="44.17571" lon="2.98373">
        <ele>653</ele>
        <time>2021-09-04T11:53:35Z</time>
      </trkpt>
      <trkpt lat="44.17576" lon="2.98377">
        <ele>653</ele>
        <time>2021-09-04T11:53:40Z</time>
      </trkpt>
      <trkpt lat="44.17574" lon="2.98383">
        <ele>654</ele>
        <time>2021-09-04T11:53:45Z</time>
      </trkpt>
      <trkpt lat="44.17582" lon="2.98412">
        <ele>656</ele>
        <time>2021-09-04T11:53:55Z</time>
      </trkpt>
      <trkpt lat="44.17584" lon="2.98418">
        <ele>656</ele>
        <time>2021-09-04T11:53:57Z</time>
      </trkpt>
      <trkpt lat="44.17587" lon="2.98424">
        <ele>656</ele>
        <time>2021-09-04T11:53:59Z</time>
      </trkpt>
      <trkpt lat="44.17595" lon="2.98452">
        <ele>657</ele>
        <time>2021-09-04T11:54:09Z</time>
      </trkpt>
      <trkpt lat="44.17581" lon="2.9851">
        <ele>660</ele>
        <time>2021-09-04T11:54:33Z</time>
      </trkpt>
      <trkpt lat="44.17555" lon="2.98584">
        <ele>663</ele>
        <time>2021-09-04T11:55:06Z</time>
      </trkpt>
      <trkpt lat="44.17548" lon="2.98604">
        <ele>662</ele>
        <time>2021-09-04T11:55:15Z</time>
      </trkpt>
      <trkpt lat="44.17527" lon="2.98654">
        <ele>664</ele>
        <time>2021-09-04T11:55:39Z</time>
      </trkpt>
      <trkpt lat="44.1751" lon="2.98688">
        <ele>667</ele>
        <time>2021-09-04T11:55:54Z</time>
      </trkpt>
      <trkpt lat="44.17501" lon="2.98708">
        <ele>668</ele>
        <time>2021-09-04T11:56:03Z</time>
      </trkpt>
      <trkpt lat="44.17499" lon="2.98722">
        <ele>669</ele>
        <time>2021-09-04T11:56:08Z</time>
      </trkpt>
      <trkpt lat="44.17498" lon="2.98744">
        <ele>670</ele>
        <time>2021-09-04T11:56:16Z</time>
      </trkpt>
      <trkpt lat="44.17507" lon="2.98822">
        <ele>679</ele>
        <time>2021-09-04T11:56:48Z</time>
      </trkpt>
      <trkpt lat="44.1751" lon="2.98838">
        <ele>680</ele>
        <time>2021-09-04T11:56:54Z</time>
      </trkpt>
      <trkpt lat="44.1752" lon="2.98893">
        <ele>687</ele>
        <time>2021-09-04T11:57:15Z</time>
      </trkpt>
      <trkpt lat="44.17521" lon="2.98927">
        <ele>689</ele>
        <time>2021-09-04T11:57:27Z</time>
      </trkpt>
      <trkpt lat="44.1752" lon="2.98942">
        <ele>690</ele>
        <time>2021-09-04T11:57:33Z</time>
      </trkpt>
      <trkpt lat="44.17496" lon="2.99014">
        <ele>698</ele>
        <time>2021-09-04T11:58:04Z</time>
      </trkpt>
      <trkpt lat="44.17478" lon="2.99054">
        <ele>698</ele>
        <time>2021-09-04T11:58:21Z</time>
      </trkpt>
      <trkpt lat="44.17472" lon="2.99069">
        <ele>698</ele>
        <time>2021-09-04T11:58:27Z</time>
      </trkpt>
      <trkpt lat="44.17466" lon="2.99083">
        <ele>701</ele>
        <time>2021-09-04T11:58:33Z</time>
      </trkpt>
      <trkpt lat="44.17458" lon="2.99103">
        <ele>703</ele>
        <time>2021-09-04T11:58:42Z</time>
      </trkpt>
      <trkpt lat="44.17455" lon="2.9911">
        <ele>704</ele>
        <time>2021-09-04T11:58:45Z</time>
      </trkpt>
      <trkpt lat="44.17452" lon="2.99117">
        <ele>705</ele>
        <time>2021-09-04T11:58:48Z</time>
      </trkpt>
      <trkpt lat="44.17443" lon="2.99136">
        <ele>706</ele>
        <time>2021-09-04T11:58:57Z</time>
      </trkpt>
      <trkpt lat="44.1744" lon="2.99142">
        <ele>707</ele>
        <time>2021-09-04T11:59:00Z</time>
      </trkpt>
      <trkpt lat="44.17435" lon="2.99158">
        <ele>708</ele>
        <time>2021-09-04T11:59:07Z</time>
      </trkpt>
      <trkpt lat="44.17433" lon="2.9918">
        <ele>708</ele>
        <time>2021-09-04T11:59:14Z</time>
      </trkpt>
      <trkpt lat="44.17432" lon="2.99196">
        <ele>707</ele>
        <time>2021-09-04T11:59:19Z</time>
      </trkpt>
      <trkpt lat="44.17437" lon="2.9922">
        <ele>709</ele>
        <time>2021-09-04T11:59:28Z</time>
      </trkpt>
      <trkpt lat="44.17475" lon="2.99287">
        <ele>709</ele>
        <time>2021-09-04T11:59:58Z</time>
      </trkpt>
      <trkpt lat="44.17478" lon="2.99294">
        <ele>709</ele>
        <time>2021-09-04T12:00:01Z</time>
      </trkpt>
      <trkpt lat="44.17481" lon="2.99301">
        <ele>709</ele>
        <time>2021-09-04T12:00:04Z</time>
      </trkpt>
      <trkpt lat="44.17497" lon="2.99334">
        <ele>711</ele>
        <time>2021-09-04T12:00:18Z</time>
      </trkpt>
      <trkpt lat="44.17502" lon="2.99341">
        <ele>712</ele>
        <time>2021-09-04T12:00:21Z</time>
      </trkpt>
      <trkpt lat="44.17518" lon="2.99373">
        <ele>715</ele>
        <time>2021-09-04T12:00:36Z</time>
      </trkpt>
      <trkpt lat="44.17541" lon="2.9945">
        <ele>717</ele>
        <time>2021-09-04T12:01:06Z</time>
      </trkpt>
      <trkpt lat="44.17543" lon="2.99457">
        <ele>717</ele>
        <time>2021-09-04T12:01:09Z</time>
      </trkpt>
      <trkpt lat="44.17545" lon="2.99479">
        <ele>719</ele>
        <time>2021-09-04T12:01:18Z</time>
      </trkpt>
      <trkpt lat="44.1756" lon="2.99558">
        <ele>723</ele>
        <time>2021-09-04T12:01:48Z</time>
      </trkpt>
      <trkpt lat="44.17562" lon="2.99566">
        <ele>723</ele>
        <time>2021-09-04T12:01:51Z</time>
      </trkpt>
      <trkpt lat="44.17563" lon="2.9959">
        <ele>726</ele>
        <time>2021-09-04T12:02:00Z</time>
      </trkpt>
      <trkpt lat="44.17563" lon="2.99599">
        <ele>727</ele>
        <time>2021-09-04T12:02:04Z</time>
      </trkpt>
      <trkpt lat="44.17563" lon="2.99607">
        <ele>728</ele>
        <time>2021-09-04T12:02:07Z</time>
      </trkpt>
      <trkpt lat="44.17562" lon="2.99647">
        <ele>732</ele>
        <time>2021-09-04T12:02:22Z</time>
      </trkpt>
      <trkpt lat="44.17563" lon="2.99655">
        <ele>733</ele>
        <time>2021-09-04T12:02:25Z</time>
      </trkpt>
      <trkpt lat="44.17563" lon="2.99664">
        <ele>733</ele>
        <time>2021-09-04T12:02:28Z</time>
      </trkpt>
      <trkpt lat="44.17564" lon="2.99674">
        <ele>733</ele>
        <time>2021-09-04T12:02:31Z</time>
      </trkpt>
      <trkpt lat="44.17566" lon="2.9976">
        <ele>739</ele>
        <time>2021-09-04T12:03:04Z</time>
      </trkpt>
      <trkpt lat="44.17567" lon="2.99839">
        <ele>743</ele>
        <time>2021-09-04T12:03:34Z</time>
      </trkpt>
      <trkpt lat="44.17571" lon="2.99871">
        <ele>744</ele>
        <time>2021-09-04T12:03:46Z</time>
      </trkpt>
      <trkpt lat="44.1758" lon="2.9992">
        <ele>745</ele>
        <time>2021-09-04T12:04:03Z</time>
      </trkpt>
      <trkpt lat="44.17582" lon="2.99927">
        <ele>746</ele>
        <time>2021-09-04T12:04:06Z</time>
      </trkpt>
      <trkpt lat="44.17604" lon="3.00006">
        <ele>754</ele>
        <time>2021-09-04T12:04:38Z</time>
      </trkpt>
      <trkpt lat="44.17607" lon="3.00014">
        <ele>755</ele>
        <time>2021-09-04T12:04:41Z</time>
      </trkpt>
      <trkpt lat="44.17609" lon="3.00021">
        <ele>755</ele>
        <time>2021-09-04T12:04:43Z</time>
      </trkpt>
      <trkpt lat="44.17633" lon="3.00097">
        <ele>759</ele>
        <time>2021-09-04T12:05:16Z</time>
      </trkpt>
      <trkpt lat="44.17656" lon="3.00172">
        <ele>762</ele>
        <time>2021-09-04T12:05:46Z</time>
      </trkpt>
      <trkpt lat="44.17682" lon="3.00252">
        <ele>767</ele>
        <time>2021-09-04T12:06:18Z</time>
      </trkpt>
      <trkpt lat="44.17691" lon="3.0028">
        <ele>770</ele>
        <time>2021-09-04T12:06:30Z</time>
      </trkpt>
      <trkpt lat="44.17693" lon="3.00286">
        <ele>770</ele>
        <time>2021-09-04T12:06:32Z</time>
      </trkpt>
      <trkpt lat="44.17711" lon="3.00323">
        <ele>770</ele>
        <time>2021-09-04T12:06:46Z</time>
      </trkpt>
      <trkpt lat="44.17756" lon="3.00413">
        <ele>767</ele>
        <time>2021-09-04T12:07:17Z</time>
      </trkpt>
      <trkpt lat="44.17764" lon="3.0044">
        <ele>767</ele>
        <time>2021-09-04T12:07:25Z</time>
      </trkpt>
      <trkpt lat="44.17768" lon="3.00463">
        <ele>768</ele>
        <time>2021-09-04T12:07:31Z</time>
      </trkpt>
      <trkpt lat="44.17765" lon="3.00608">
        <ele>772</ele>
        <time>2021-09-04T12:07:59Z</time>
      </trkpt>
      <trkpt lat="44.17763" lon="3.0064">
        <ele>769</ele>
        <time>2021-09-04T12:08:04Z</time>
      </trkpt>
      <trkpt lat="44.17767" lon="3.00817">
        <ele>760</ele>
        <time>2021-09-04T12:08:27Z</time>
      </trkpt>
      <trkpt lat="44.17771" lon="3.00821">
        <ele>760</ele>
        <time>2021-09-04T12:09:31Z</time>
      </trkpt>
      <trkpt lat="44.17775" lon="3.00829">
        <ele>758</ele>
        <time>2021-09-04T12:09:43Z</time>
      </trkpt>
      <trkpt lat="44.17914" lon="3.00858">
        <ele>744</ele>
        <time>2021-09-04T12:10:13Z</time>
      </trkpt>
      <trkpt lat="44.18028" lon="3.00883">
        <ele>748</ele>
        <time>2021-09-04T12:10:44Z</time>
      </trkpt>
      <trkpt lat="44.18126" lon="3.00905">
        <ele>752</ele>
        <time>2021-09-04T12:11:16Z</time>
      </trkpt>
      <trkpt lat="44.18217" lon="3.009">
        <ele>764</ele>
        <time>2021-09-04T12:11:48Z</time>
      </trkpt>
      <trkpt lat="44.18292" lon="3.00877">
        <ele>762</ele>
        <time>2021-09-04T12:12:19Z</time>
      </trkpt>
      <trkpt lat="44.18376" lon="3.00861">
        <ele>765</ele>
        <time>2021-09-04T12:12:49Z</time>
      </trkpt>
      <trkpt lat="44.18445" lon="3.00838">
        <ele>766</ele>
        <time>2021-09-04T12:13:11Z</time>
      </trkpt>
      <trkpt lat="44.18561" lon="3.00823">
        <ele>768</ele>
        <time>2021-09-04T12:13:41Z</time>
      </trkpt>
      <trkpt lat="44.18689" lon="3.00788">
        <ele>767</ele>
        <time>2021-09-04T12:14:11Z</time>
      </trkpt>
      <trkpt lat="44.18822" lon="3.00738">
        <ele>770</ele>
        <time>2021-09-04T12:14:42Z</time>
      </trkpt>
      <trkpt lat="44.18944" lon="3.00672">
        <ele>770</ele>
        <time>2021-09-04T12:15:12Z</time>
      </trkpt>
      <trkpt lat="44.1896" lon="3.00662">
        <ele>770</ele>
        <time>2021-09-04T12:15:16Z</time>
      </trkpt>
      <trkpt lat="44.18976" lon="3.0066">
        <ele>769</ele>
        <time>2021-09-04T12:15:19Z</time>
      </trkpt>
      <trkpt lat="44.19026" lon="3.00671">
        <ele>769</ele>
        <time>2021-09-04T12:15:29Z</time>
      </trkpt>
      <trkpt lat="44.19031" lon="3.00669">
        <ele>769</ele>
        <time>2021-09-04T12:15:30Z</time>
      </trkpt>
      <trkpt lat="44.19041" lon="3.00662">
        <ele>769</ele>
        <time>2021-09-04T12:15:32Z</time>
      </trkpt>
      <trkpt lat="44.19045" lon="3.00658">
        <ele>769</ele>
        <time>2021-09-04T12:15:33Z</time>
      </trkpt>
      <trkpt lat="44.19048" lon="3.00652">
        <ele>769</ele>
        <time>2021-09-04T12:15:34Z</time>
      </trkpt>
      <trkpt lat="44.19051" lon="3.0064">
        <ele>769</ele>
        <time>2021-09-04T12:15:36Z</time>
      </trkpt>
      <trkpt lat="44.19052" lon="3.00627">
        <ele>769</ele>
        <time>2021-09-04T12:15:38Z</time>
      </trkpt>
      <trkpt lat="44.19053" lon="3.00615">
        <ele>770</ele>
        <time>2021-09-04T12:15:40Z</time>
      </trkpt>
      <trkpt lat="44.1906" lon="3.00595">
        <ele>771</ele>
        <time>2021-09-04T12:15:44Z</time>
      </trkpt>
      <trkpt lat="44.1907" lon="3.0058">
        <ele>772</ele>
        <time>2021-09-04T12:15:50Z</time>
      </trkpt>
      <trkpt lat="44.19109" lon="3.00542">
        <ele>776</ele>
        <time>2021-09-04T12:16:08Z</time>
      </trkpt>
      <trkpt lat="44.19159" lon="3.00509">
        <ele>783</ele>
        <time>2021-09-04T12:16:33Z</time>
      </trkpt>
      <trkpt lat="44.19197" lon="3.005">
        <ele>785</ele>
        <time>2021-09-04T12:16:49Z</time>
      </trkpt>
      <trkpt lat="44.19201" lon="3.00498">
        <ele>785</ele>
        <time>2021-09-04T12:16:51Z</time>
      </trkpt>
      <trkpt lat="44.19275" lon="3.00502">
        <ele>791</ele>
        <time>2021-09-04T12:17:24Z</time>
      </trkpt>
      <trkpt lat="44.19342" lon="3.00512">
        <ele>794</ele>
        <time>2021-09-04T12:17:54Z</time>
      </trkpt>
      <trkpt lat="44.19411" lon="3.00528">
        <ele>798</ele>
        <time>2021-09-04T12:18:24Z</time>
      </trkpt>
      <trkpt lat="44.19453" lon="3.00538">
        <ele>799</ele>
        <time>2021-09-04T12:18:42Z</time>
      </trkpt>
      <trkpt lat="44.19483" lon="3.00549">
        <ele>801</ele>
        <time>2021-09-04T12:18:55Z</time>
      </trkpt>
      <trkpt lat="44.19501" lon="3.00552">
        <ele>801</ele>
        <time>2021-09-04T12:19:03Z</time>
      </trkpt>
      <trkpt lat="44.19506" lon="3.00553">
        <ele>801</ele>
        <time>2021-09-04T12:19:05Z</time>
      </trkpt>
      <trkpt lat="44.19511" lon="3.00553">
        <ele>801</ele>
        <time>2021-09-04T12:19:07Z</time>
      </trkpt>
      <trkpt lat="44.1953" lon="3.00558">
        <ele>800</ele>
        <time>2021-09-04T12:19:13Z</time>
      </trkpt>
      <trkpt lat="44.1972" lon="3.00579">
        <ele>789</ele>
        <time>2021-09-04T12:19:40Z</time>
      </trkpt>
      <trkpt lat="44.19737" lon="3.00574">
        <ele>788</ele>
        <time>2021-09-04T12:19:42Z</time>
      </trkpt>
      <trkpt lat="44.19824" lon="3.00511">
        <ele>785</ele>
        <time>2021-09-04T12:19:54Z</time>
      </trkpt>
      <trkpt lat="44.19842" lon="3.00508">
        <ele>784</ele>
        <time>2021-09-04T12:19:57Z</time>
      </trkpt>
      <trkpt lat="44.19882" lon="3.00511">
        <ele>783</ele>
        <time>2021-09-04T12:20:04Z</time>
      </trkpt>
      <trkpt lat="44.19897" lon="3.00507">
        <ele>784</ele>
        <time>2021-09-04T12:20:07Z</time>
      </trkpt>
      <trkpt lat="44.19919" lon="3.00491">
        <ele>785</ele>
        <time>2021-09-04T12:20:12Z</time>
      </trkpt>
      <trkpt lat="44.19934" lon="3.00477">
        <ele>785</ele>
        <time>2021-09-04T12:20:16Z</time>
      </trkpt>
      <trkpt lat="44.20052" lon="3.00393">
        <ele>791</ele>
        <time>2021-09-04T12:20:47Z</time>
      </trkpt>
      <trkpt lat="44.2013" lon="3.00372">
        <ele>792</ele>
        <time>2021-09-04T12:21:05Z</time>
      </trkpt>
      <trkpt lat="44.20174" lon="3.00378">
        <ele>792</ele>
        <time>2021-09-04T12:21:15Z</time>
      </trkpt>
      <trkpt lat="44.20207" lon="3.00388">
        <ele>793</ele>
        <time>2021-09-04T12:21:23Z</time>
      </trkpt>
      <trkpt lat="44.20225" lon="3.00389">
        <ele>794</ele>
        <time>2021-09-04T12:21:27Z</time>
      </trkpt>
      <trkpt lat="44.20233" lon="3.00387">
        <ele>794</ele>
        <time>2021-09-04T12:21:29Z</time>
      </trkpt>
      <trkpt lat="44.20255" lon="3.00372">
        <ele>794</ele>
        <time>2021-09-04T12:21:35Z</time>
      </trkpt>
      <trkpt lat="44.20336" lon="3.00275">
        <ele>798</ele>
        <time>2021-09-04T12:22:05Z</time>
      </trkpt>
      <trkpt lat="44.20387" lon="3.00226">
        <ele>802</ele>
        <time>2021-09-04T12:22:25Z</time>
      </trkpt>
      <trkpt lat="44.20415" lon="3.00203">
        <ele>804</ele>
        <time>2021-09-04T12:22:35Z</time>
      </trkpt>
      <trkpt lat="44.20449" lon="3.00191">
        <ele>804</ele>
        <time>2021-09-04T12:22:45Z</time>
      </trkpt>
      <trkpt lat="44.20496" lon="3.00192">
        <ele>802</ele>
        <time>2021-09-04T12:22:54Z</time>
      </trkpt>
      <trkpt lat="44.20532" lon="3.0021">
        <ele>799</ele>
        <time>2021-09-04T12:22:59Z</time>
      </trkpt>
      <trkpt lat="44.20559" lon="3.00233">
        <ele>798</ele>
        <time>2021-09-04T12:23:03Z</time>
      </trkpt>
      <trkpt lat="44.2058" lon="3.00257">
        <ele>797</ele>
        <time>2021-09-04T12:23:07Z</time>
      </trkpt>
      <trkpt lat="44.20586" lon="3.00261">
        <ele>797</ele>
        <time>2021-09-04T12:23:08Z</time>
      </trkpt>
      <trkpt lat="44.20594" lon="3.00262">
        <ele>797</ele>
        <time>2021-09-04T12:23:09Z</time>
      </trkpt>
      <trkpt lat="44.20603" lon="3.0026">
        <ele>798</ele>
        <time>2021-09-04T12:23:10Z</time>
      </trkpt>
      <trkpt lat="44.20618" lon="3.00248">
        <ele>798</ele>
        <time>2021-09-04T12:23:12Z</time>
      </trkpt>
      <trkpt lat="44.20627" lon="3.00229">
        <ele>800</ele>
        <time>2021-09-04T12:23:14Z</time>
      </trkpt>
      <trkpt lat="44.2064" lon="3.0018">
        <ele>799</ele>
        <time>2021-09-04T12:23:19Z</time>
      </trkpt>
      <trkpt lat="44.20649" lon="3.00165">
        <ele>798</ele>
        <time>2021-09-04T12:23:21Z</time>
      </trkpt>
      <trkpt lat="44.2071" lon="3.00086">
        <ele>793</ele>
        <time>2021-09-04T12:23:32Z</time>
      </trkpt>
      <trkpt lat="44.20736" lon="3.00044">
        <ele>791</ele>
        <time>2021-09-04T12:23:37Z</time>
      </trkpt>
      <trkpt lat="44.20803" lon="2.99968">
        <ele>785</ele>
        <time>2021-09-04T12:23:48Z</time>
      </trkpt>
      <trkpt lat="44.20812" lon="2.99948">
        <ele>784</ele>
        <time>2021-09-04T12:23:50Z</time>
      </trkpt>
      <trkpt lat="44.20839" lon="2.99747">
        <ele>787</ele>
        <time>2021-09-04T12:24:21Z</time>
      </trkpt>
      <trkpt lat="44.20848" lon="2.9961">
        <ele>777</ele>
        <time>2021-09-04T12:24:51Z</time>
      </trkpt>
      <trkpt lat="44.2086" lon="2.99543">
        <ele>778</ele>
        <time>2021-09-04T12:25:07Z</time>
      </trkpt>
      <trkpt lat="44.20875" lon="2.99502">
        <ele>780</ele>
        <time>2021-09-04T12:25:17Z</time>
      </trkpt>
      <trkpt lat="44.20889" lon="2.99482">
        <ele>780</ele>
        <time>2021-09-04T12:25:23Z</time>
      </trkpt>
      <trkpt lat="44.20902" lon="2.99475">
        <ele>781</ele>
        <time>2021-09-04T12:25:27Z</time>
      </trkpt>
      <trkpt lat="44.20922" lon="2.99473">
        <ele>784</ele>
        <time>2021-09-04T12:25:33Z</time>
      </trkpt>
      <trkpt lat="44.2094" lon="2.99476">
        <ele>783</ele>
        <time>2021-09-04T12:25:37Z</time>
      </trkpt>
      <trkpt lat="44.21009" lon="2.99498">
        <ele>781</ele>
        <time>2021-09-04T12:25:48Z</time>
      </trkpt>
      <trkpt lat="44.21016" lon="2.99498">
        <ele>781</ele>
        <time>2021-09-04T12:25:49Z</time>
      </trkpt>
      <trkpt lat="44.21023" lon="2.99496">
        <ele>781</ele>
        <time>2021-09-04T12:25:50Z</time>
      </trkpt>
      <trkpt lat="44.2103" lon="2.9949">
        <ele>781</ele>
        <time>2021-09-04T12:25:51Z</time>
      </trkpt>
      <trkpt lat="44.21034" lon="2.99483">
        <ele>782</ele>
        <time>2021-09-04T12:25:52Z</time>
      </trkpt>
      <trkpt lat="44.21036" lon="2.99473">
        <ele>783</ele>
        <time>2021-09-04T12:25:53Z</time>
      </trkpt>
      <trkpt lat="44.21037" lon="2.99464">
        <ele>785</ele>
        <time>2021-09-04T12:25:54Z</time>
      </trkpt>
      <trkpt lat="44.21001" lon="2.99319">
        <ele>794</ele>
        <time>2021-09-04T12:26:21Z</time>
      </trkpt>
      <trkpt lat="44.20992" lon="2.99242">
        <ele>791</ele>
        <time>2021-09-04T12:26:37Z</time>
      </trkpt>
      <trkpt lat="44.20979" lon="2.99197">
        <ele>791</ele>
        <time>2021-09-04T12:26:47Z</time>
      </trkpt>
      <trkpt lat="44.2095" lon="2.99145">
        <ele>792</ele>
        <time>2021-09-04T12:27:01Z</time>
      </trkpt>
      <trkpt lat="44.20927" lon="2.9912">
        <ele>794</ele>
        <time>2021-09-04T12:27:11Z</time>
      </trkpt>
      <trkpt lat="44.20835" lon="2.99071">
        <ele>785</ele>
        <time>2021-09-04T12:27:41Z</time>
      </trkpt>
      <trkpt lat="44.20725" lon="2.99023">
        <ele>780</ele>
        <time>2021-09-04T12:28:13Z</time>
      </trkpt>
      <trkpt lat="44.20645" lon="2.99007">
        <ele>792</ele>
        <time>2021-09-04T12:28:30Z</time>
      </trkpt>
      <trkpt lat="44.2063" lon="2.98999">
        <ele>792</ele>
        <time>2021-09-04T12:28:33Z</time>
      </trkpt>
      <trkpt lat="44.20617" lon="2.98984">
        <ele>794</ele>
        <time>2021-09-04T12:28:36Z</time>
      </trkpt>
      <trkpt lat="44.20611" lon="2.98973">
        <ele>794</ele>
        <time>2021-09-04T12:28:38Z</time>
      </trkpt>
      <trkpt lat="44.20603" lon="2.98946">
        <ele>795</ele>
        <time>2021-09-04T12:28:42Z</time>
      </trkpt>
      <trkpt lat="44.20601" lon="2.98932">
        <ele>795</ele>
        <time>2021-09-04T12:28:44Z</time>
      </trkpt>
      <trkpt lat="44.20601" lon="2.98912">
        <ele>796</ele>
        <time>2021-09-04T12:28:47Z</time>
      </trkpt>
      <trkpt lat="44.20612" lon="2.9887">
        <ele>798</ele>
        <time>2021-09-04T12:28:54Z</time>
      </trkpt>
      <trkpt lat="44.20629" lon="2.98836">
        <ele>800</ele>
        <time>2021-09-04T12:29:00Z</time>
      </trkpt>
      <trkpt lat="44.20678" lon="2.98774">
        <ele>803</ele>
        <time>2021-09-04T12:29:14Z</time>
      </trkpt>
      <trkpt lat="44.20794" lon="2.98668">
        <ele>805</ele>
        <time>2021-09-04T12:29:43Z</time>
      </trkpt>
      <trkpt lat="44.20803" lon="2.98664">
        <ele>806</ele>
        <time>2021-09-04T12:29:45Z</time>
      </trkpt>
      <trkpt lat="44.20813" lon="2.98663">
        <ele>806</ele>
        <time>2021-09-04T12:29:47Z</time>
      </trkpt>
      <trkpt lat="44.20824" lon="2.98665">
        <ele>805</ele>
        <time>2021-09-04T12:29:49Z</time>
      </trkpt>
      <trkpt lat="44.20847" lon="2.98682">
        <ele>804</ele>
        <time>2021-09-04T12:29:53Z</time>
      </trkpt>
      <trkpt lat="44.20902" lon="2.98732">
        <ele>799</ele>
        <time>2021-09-04T12:30:01Z</time>
      </trkpt>
      <trkpt lat="44.20937" lon="2.98747">
        <ele>797</ele>
        <time>2021-09-04T12:30:05Z</time>
      </trkpt>
      <trkpt lat="44.20975" lon="2.98751">
        <ele>793</ele>
        <time>2021-09-04T12:30:09Z</time>
      </trkpt>
      <trkpt lat="44.21296" lon="2.98679">
        <ele>766</ele>
        <time>2021-09-04T12:30:40Z</time>
      </trkpt>
      <trkpt lat="44.21376" lon="2.98656">
        <ele>757</ele>
        <time>2021-09-04T12:30:53Z</time>
      </trkpt>
      <trkpt lat="44.21399" lon="2.98658">
        <ele>753</ele>
        <time>2021-09-04T12:30:59Z</time>
      </trkpt>
      <trkpt lat="44.21411" lon="2.98655">
        <ele>751</ele>
        <time>2021-09-04T12:31:03Z</time>
      </trkpt>
      <trkpt lat="44.21416" lon="2.98656">
        <ele>751</ele>
        <time>2021-09-04T12:31:06Z</time>
      </trkpt>
      <trkpt lat="44.2142" lon="2.9866">
        <ele>751</ele>
        <time>2021-09-04T12:31:59Z</time>
      </trkpt>
      <trkpt lat="44.21431" lon="2.98679">
        <ele>752</ele>
        <time>2021-09-04T12:32:07Z</time>
      </trkpt>
      <trkpt lat="44.21446" lon="2.987">
        <ele>753</ele>
        <time>2021-09-04T12:32:13Z</time>
      </trkpt>
      <trkpt lat="44.21454" lon="2.98717">
        <ele>752</ele>
        <time>2021-09-04T12:32:17Z</time>
      </trkpt>
      <trkpt lat="44.21484" lon="2.98742">
        <ele>748</ele>
        <time>2021-09-04T12:32:27Z</time>
      </trkpt>
      <trkpt lat="44.21489" lon="2.98744">
        <ele>748</ele>
        <time>2021-09-04T12:32:30Z</time>
      </trkpt>
      <trkpt lat="44.21494" lon="2.98741">
        <ele>748</ele>
        <time>2021-09-04T12:33:02Z</time>
      </trkpt>
      <trkpt lat="44.21519" lon="2.98756">
        <ele>747</ele>
        <time>2021-09-04T12:33:12Z</time>
      </trkpt>
      <trkpt lat="44.21571" lon="2.98738">
        <ele>748</ele>
        <time>2021-09-04T12:33:32Z</time>
      </trkpt>
      <trkpt lat="44.21575" lon="2.98732">
        <ele>749</ele>
        <time>2021-09-04T12:33:35Z</time>
      </trkpt>
      <trkpt lat="44.21597" lon="2.98635">
        <ele>757</ele>
        <time>2021-09-04T12:34:07Z</time>
      </trkpt>
      <trkpt lat="44.21593" lon="2.98564">
        <ele>759</ele>
        <time>2021-09-04T12:34:27Z</time>
      </trkpt>
      <trkpt lat="44.21597" lon="2.98558">
        <ele>759</ele>
        <time>2021-09-04T12:34:30Z</time>
      </trkpt>
      <trkpt lat="44.21614" lon="2.98546">
        <ele>758</ele>
        <time>2021-09-04T12:34:37Z</time>
      </trkpt>
      <trkpt lat="44.21737" lon="2.98485">
        <ele>752</ele>
        <time>2021-09-04T12:35:09Z</time>
      </trkpt>
      <trkpt lat="44.21794" lon="2.9845">
        <ele>755</ele>
        <time>2021-09-04T12:35:28Z</time>
      </trkpt>
      <trkpt lat="44.21803" lon="2.98442">
        <ele>758</ele>
        <time>2021-09-04T12:35:57Z</time>
      </trkpt>
      <trkpt lat="44.21865" lon="2.98441">
        <ele>754</ele>
        <time>2021-09-04T12:36:11Z</time>
      </trkpt>
      <trkpt lat="44.2187" lon="2.98439">
        <ele>754</ele>
        <time>2021-09-04T12:36:12Z</time>
      </trkpt>
      <trkpt lat="44.21875" lon="2.98436">
        <ele>753</ele>
        <time>2021-09-04T12:36:13Z</time>
      </trkpt>
      <trkpt lat="44.2188" lon="2.9843">
        <ele>753</ele>
        <time>2021-09-04T12:36:14Z</time>
      </trkpt>
      <trkpt lat="44.21884" lon="2.98423">
        <ele>755</ele>
        <time>2021-09-04T12:36:15Z</time>
      </trkpt>
      <trkpt lat="44.21885" lon="2.98405">
        <ele>755</ele>
        <time>2021-09-04T12:36:17Z</time>
      </trkpt>
      <trkpt lat="44.21883" lon="2.98381">
        <ele>755</ele>
        <time>2021-09-04T12:36:19Z</time>
      </trkpt>
      <trkpt lat="44.21883" lon="2.98336">
        <ele>760</ele>
        <time>2021-09-04T12:36:23Z</time>
      </trkpt>
      <trkpt lat="44.21889" lon="2.98299">
        <ele>762</ele>
        <time>2021-09-04T12:36:27Z</time>
      </trkpt>
      <trkpt lat="44.21897" lon="2.98276">
        <ele>760</ele>
        <time>2021-09-04T12:36:30Z</time>
      </trkpt>
      <trkpt lat="44.21912" lon="2.98251">
        <ele>760</ele>
        <time>2021-09-04T12:36:34Z</time>
      </trkpt>
      <trkpt lat="44.2198" lon="2.98175">
        <ele>761</ele>
        <time>2021-09-04T12:36:50Z</time>
      </trkpt>
      <trkpt lat="44.22" lon="2.98158">
        <ele>758</ele>
        <time>2021-09-04T12:36:54Z</time>
      </trkpt>
      <trkpt lat="44.22008" lon="2.9815">
        <ele>758</ele>
        <time>2021-09-04T12:36:56Z</time>
      </trkpt>
      <trkpt lat="44.22021" lon="2.98141">
        <ele>758</ele>
        <time>2021-09-04T12:36:59Z</time>
      </trkpt>
      <trkpt lat="44.22073" lon="2.98101">
        <ele>759</ele>
        <time>2021-09-04T12:37:09Z</time>
      </trkpt>
      <trkpt lat="44.22091" lon="2.98082">
        <ele>761</ele>
        <time>2021-09-04T12:37:13Z</time>
      </trkpt>
      <trkpt lat="44.22147" lon="2.98036">
        <ele>759</ele>
        <time>2021-09-04T12:37:24Z</time>
      </trkpt>
      <trkpt lat="44.22272" lon="2.97868">
        <ele>762</ele>
        <time>2021-09-04T12:37:52Z</time>
      </trkpt>
      <trkpt lat="44.22294" lon="2.97849">
        <ele>760</ele>
        <time>2021-09-04T12:37:56Z</time>
      </trkpt>
      <trkpt lat="44.22298" lon="2.97843">
        <ele>760</ele>
        <time>2021-09-04T12:37:57Z</time>
      </trkpt>
      <trkpt lat="44.22302" lon="2.97835">
        <ele>760</ele>
        <time>2021-09-04T12:37:58Z</time>
      </trkpt>
      <trkpt lat="44.22304" lon="2.97827">
        <ele>760</ele>
        <time>2021-09-04T12:37:59Z</time>
      </trkpt>
      <trkpt lat="44.22304" lon="2.97807">
        <ele>762</ele>
        <time>2021-09-04T12:38:01Z</time>
      </trkpt>
      <trkpt lat="44.22304" lon="2.9775">
        <ele>766</ele>
        <time>2021-09-04T12:38:08Z</time>
      </trkpt>
      <trkpt lat="44.22317" lon="2.97667">
        <ele>766</ele>
        <time>2021-09-04T12:38:20Z</time>
      </trkpt>
      <trkpt lat="44.22314" lon="2.97619">
        <ele>768</ele>
        <time>2021-09-04T12:38:27Z</time>
      </trkpt>
      <trkpt lat="44.22301" lon="2.9756">
        <ele>766</ele>
        <time>2021-09-04T12:38:39Z</time>
      </trkpt>
      <trkpt lat="44.223" lon="2.97541">
        <ele>765</ele>
        <time>2021-09-04T12:38:43Z</time>
      </trkpt>
      <trkpt lat="44.22306" lon="2.97524">
        <ele>764</ele>
        <time>2021-09-04T12:38:47Z</time>
      </trkpt>
      <trkpt lat="44.22314" lon="2.97514">
        <ele>765</ele>
        <time>2021-09-04T12:38:51Z</time>
      </trkpt>
      <trkpt lat="44.22319" lon="2.9751">
        <ele>765</ele>
        <time>2021-09-04T12:38:53Z</time>
      </trkpt>
      <trkpt lat="44.2242" lon="2.97488">
        <ele>762</ele>
        <time>2021-09-04T12:39:25Z</time>
      </trkpt>
      <trkpt lat="44.22507" lon="2.97481">
        <ele>755</ele>
        <time>2021-09-04T12:39:55Z</time>
      </trkpt>
      <trkpt lat="44.22598" lon="2.97507">
        <ele>759</ele>
        <time>2021-09-04T12:40:25Z</time>
      </trkpt>
      <trkpt lat="44.22659" lon="2.9761">
        <ele>763</ele>
        <time>2021-09-04T12:40:57Z</time>
      </trkpt>
      <trkpt lat="44.22687" lon="2.97699">
        <ele>770</ele>
        <time>2021-09-04T12:41:19Z</time>
      </trkpt>
      <trkpt lat="44.22698" lon="2.97713">
        <ele>771</ele>
        <time>2021-09-04T12:41:23Z</time>
      </trkpt>
      <trkpt lat="44.22711" lon="2.97724">
        <ele>771</ele>
        <time>2021-09-04T12:41:27Z</time>
      </trkpt>
      <trkpt lat="44.22822" lon="2.97754">
        <ele>772</ele>
        <time>2021-09-04T12:41:57Z</time>
      </trkpt>
      <trkpt lat="44.22875" lon="2.97774">
        <ele>773</ele>
        <time>2021-09-04T12:42:13Z</time>
      </trkpt>
      <trkpt lat="44.22975" lon="2.97847">
        <ele>771</ele>
        <time>2021-09-04T12:42:43Z</time>
      </trkpt>
      <trkpt lat="44.23001" lon="2.97863">
        <ele>768</ele>
        <time>2021-09-04T12:42:51Z</time>
      </trkpt>
      <trkpt lat="44.23013" lon="2.97877">
        <ele>768</ele>
        <time>2021-09-04T12:42:55Z</time>
      </trkpt>
      <trkpt lat="44.23033" lon="2.9791">
        <ele>767</ele>
        <time>2021-09-04T12:43:03Z</time>
      </trkpt>
      <trkpt lat="44.23086" lon="2.9797">
        <ele>770</ele>
        <time>2021-09-04T12:43:20Z</time>
      </trkpt>
      <trkpt lat="44.23106" lon="2.98026">
        <ele>772</ele>
        <time>2021-09-04T12:43:31Z</time>
      </trkpt>
      <trkpt lat="44.23107" lon="2.98042">
        <ele>775</ele>
        <time>2021-09-04T12:43:35Z</time>
      </trkpt>
      <trkpt lat="44.23106" lon="2.98051">
        <ele>777</ele>
        <time>2021-09-04T12:43:37Z</time>
      </trkpt>
      <trkpt lat="44.23106" lon="2.98079">
        <ele>780</ele>
        <time>2021-09-04T12:43:43Z</time>
      </trkpt>
      <trkpt lat="44.23106" lon="2.98088">
        <ele>780</ele>
        <time>2021-09-04T12:43:45Z</time>
      </trkpt>
      <trkpt lat="44.23108" lon="2.98096">
        <ele>781</ele>
        <time>2021-09-04T12:43:47Z</time>
      </trkpt>
      <trkpt lat="44.23109" lon="2.98103">
        <ele>782</ele>
        <time>2021-09-04T12:43:49Z</time>
      </trkpt>
      <trkpt lat="44.23113" lon="2.98162">
        <ele>788</ele>
        <time>2021-09-04T12:44:00Z</time>
      </trkpt>
      <trkpt lat="44.23121" lon="2.98195">
        <ele>791</ele>
        <time>2021-09-04T12:44:06Z</time>
      </trkpt>
      <trkpt lat="44.23128" lon="2.98212">
        <ele>792</ele>
        <time>2021-09-04T12:44:10Z</time>
      </trkpt>
      <trkpt lat="44.23153" lon="2.98267">
        <ele>792</ele>
        <time>2021-09-04T12:44:22Z</time>
      </trkpt>
      <trkpt lat="44.23158" lon="2.98285">
        <ele>794</ele>
        <time>2021-09-04T12:44:26Z</time>
      </trkpt>
      <trkpt lat="44.23163" lon="2.98305">
        <ele>797</ele>
        <time>2021-09-04T12:44:30Z</time>
      </trkpt>
      <trkpt lat="44.23172" lon="2.98329">
        <ele>801</ele>
        <time>2021-09-04T12:44:34Z</time>
      </trkpt>
      <trkpt lat="44.23194" lon="2.98354">
        <ele>805</ele>
        <time>2021-09-04T12:44:40Z</time>
      </trkpt>
      <trkpt lat="44.23199" lon="2.9836">
        <ele>806</ele>
        <time>2021-09-04T12:44:42Z</time>
      </trkpt>
      <trkpt lat="44.23204" lon="2.98365">
        <ele>806</ele>
        <time>2021-09-04T12:44:44Z</time>
      </trkpt>
      <trkpt lat="44.23236" lon="2.98385">
        <ele>810</ele>
        <time>2021-09-04T12:44:52Z</time>
      </trkpt>
      <trkpt lat="44.23241" lon="2.98391">
        <ele>811</ele>
        <time>2021-09-04T12:44:54Z</time>
      </trkpt>
      <trkpt lat="44.23244" lon="2.98401">
        <ele>811</ele>
        <time>2021-09-04T12:44:56Z</time>
      </trkpt>
      <trkpt lat="44.23246" lon="2.98407">
        <ele>811</ele>
        <time>2021-09-04T12:44:57Z</time>
      </trkpt>
      <trkpt lat="44.23248" lon="2.98414">
        <ele>810</ele>
        <time>2021-09-04T12:44:58Z</time>
      </trkpt>
      <trkpt lat="44.23255" lon="2.98428">
        <ele>802</ele>
        <time>2021-09-04T12:45:00Z</time>
      </trkpt>
      <trkpt lat="44.23258" lon="2.98433">
        <ele>799</ele>
        <time>2021-09-04T12:45:01Z</time>
      </trkpt>
      <trkpt lat="44.23318" lon="2.98531">
        <ele>796</ele>
        <time>2021-09-04T12:45:24Z</time>
      </trkpt>
      <trkpt lat="44.23331" lon="2.98546">
        <ele>795</ele>
        <time>2021-09-04T12:45:30Z</time>
      </trkpt>
      <trkpt lat="44.23342" lon="2.98552">
        <ele>795</ele>
        <time>2021-09-04T12:45:34Z</time>
      </trkpt>
      <trkpt lat="44.2344" lon="2.98562">
        <ele>798</ele>
        <time>2021-09-04T12:46:06Z</time>
      </trkpt>
      <trkpt lat="44.23528" lon="2.98573">
        <ele>797</ele>
        <time>2021-09-04T12:46:38Z</time>
      </trkpt>
      <trkpt lat="44.23561" lon="2.98577">
        <ele>797</ele>
        <time>2021-09-04T12:46:51Z</time>
      </trkpt>
      <trkpt lat="44.23565" lon="2.98578">
        <ele>797</ele>
        <time>2021-09-04T12:46:53Z</time>
      </trkpt>
      <trkpt lat="44.23636" lon="2.98557">
        <ele>800</ele>
        <time>2021-09-04T12:47:23Z</time>
      </trkpt>
      <trkpt lat="44.23655" lon="2.9855">
        <ele>802</ele>
        <time>2021-09-04T12:47:31Z</time>
      </trkpt>
      <trkpt lat="44.23661" lon="2.98551">
        <ele>803</ele>
        <time>2021-09-04T12:47:34Z</time>
      </trkpt>
      <trkpt lat="44.23665" lon="2.98559">
        <ele>805</ele>
        <time>2021-09-04T12:47:37Z</time>
      </trkpt>
      <trkpt lat="44.23675" lon="2.98569">
        <ele>808</ele>
        <time>2021-09-04T12:47:43Z</time>
      </trkpt>
      <trkpt lat="44.23695" lon="2.98569">
        <ele>808</ele>
        <time>2021-09-04T12:47:49Z</time>
      </trkpt>
      <trkpt lat="44.23711" lon="2.98573">
        <ele>807</ele>
        <time>2021-09-04T12:47:53Z</time>
      </trkpt>
      <trkpt lat="44.23827" lon="2.98585">
        <ele>800</ele>
        <time>2021-09-04T12:48:23Z</time>
      </trkpt>
      <trkpt lat="44.2388" lon="2.98567">
        <ele>798</ele>
        <time>2021-09-04T12:48:33Z</time>
      </trkpt>
      <trkpt lat="44.2391" lon="2.98554">
        <ele>794</ele>
        <time>2021-09-04T12:48:42Z</time>
      </trkpt>
      <trkpt lat="44.23916" lon="2.98551">
        <ele>794</ele>
        <time>2021-09-04T12:48:44Z</time>
      </trkpt>
      <trkpt lat="44.23921" lon="2.98529">
        <ele>796</ele>
        <time>2021-09-04T12:48:48Z</time>
      </trkpt>
      <trkpt lat="44.23921" lon="2.98519">
        <ele>796</ele>
        <time>2021-09-04T12:48:50Z</time>
      </trkpt>
      <trkpt lat="44.23915" lon="2.98481">
        <ele>798</ele>
        <time>2021-09-04T12:48:58Z</time>
      </trkpt>
      <trkpt lat="44.23918" lon="2.9848">
        <ele>806</ele>
        <time>2021-09-04T12:51:41Z</time>
      </trkpt>
      <trkpt lat="44.23918" lon="2.98478">
        <ele>816</ele>
        <time>2021-09-04T12:54:47Z</time>
      </trkpt>
      <trkpt lat="44.23915" lon="2.98472">
        <ele>822</ele>
        <time>2021-09-04T12:55:10Z</time>
      </trkpt>
      <trkpt lat="44.23914" lon="2.98478">
        <ele>823</ele>
        <time>2021-09-04T12:56:57Z</time>
      </trkpt>
      <trkpt lat="44.23915" lon="2.98486">
        <ele>820</ele>
        <time>2021-09-04T13:03:20Z</time>
      </trkpt>
      <trkpt lat="44.23919" lon="2.98486">
        <ele>820</ele>
        <time>2021-09-04T13:03:37Z</time>
      </trkpt>
      <trkpt lat="44.2392" lon="2.98486">
        <ele>822</ele>
        <time>2021-09-04T13:08:00Z</time>
      </trkpt>
      <trkpt lat="44.23915" lon="2.98482">
        <ele>827</ele>
        <time>2021-09-04T13:20:36Z</time>
      </trkpt>
      <trkpt lat="44.23913" lon="2.98488">
        <ele>826</ele>
        <time>2021-09-04T13:21:31Z</time>
      </trkpt>
      <trkpt lat="44.23911" lon="2.98495">
        <ele>825</ele>
        <time>2021-09-04T13:21:37Z</time>
      </trkpt>
      <trkpt lat="44.23914" lon="2.98502">
        <ele>825</ele>
        <time>2021-09-04T13:21:39Z</time>
      </trkpt>
      <trkpt lat="44.23917" lon="2.98509">
        <ele>824</ele>
        <time>2021-09-04T13:21:41Z</time>
      </trkpt>
      <trkpt lat="44.23917" lon="2.98526">
        <ele>823</ele>
        <time>2021-09-04T13:21:45Z</time>
      </trkpt>
      <trkpt lat="44.23916" lon="2.98535">
        <ele>822</ele>
        <time>2021-09-04T13:21:47Z</time>
      </trkpt>
      <trkpt lat="44.23918" lon="2.98541">
        <ele>822</ele>
        <time>2021-09-04T13:21:50Z</time>
      </trkpt>
      <trkpt lat="44.23922" lon="2.98546">
        <ele>822</ele>
        <time>2021-09-04T13:21:53Z</time>
      </trkpt>
      <trkpt lat="44.24015" lon="2.98529">
        <ele>820</ele>
        <time>2021-09-04T13:22:24Z</time>
      </trkpt>
      <trkpt lat="44.24103" lon="2.9853">
        <ele>821</ele>
        <time>2021-09-04T13:22:56Z</time>
      </trkpt>
      <trkpt lat="44.24169" lon="2.98474">
        <ele>828</ele>
        <time>2021-09-04T13:23:28Z</time>
      </trkpt>
      <trkpt lat="44.24237" lon="2.98427">
        <ele>833</ele>
        <time>2021-09-04T13:23:59Z</time>
      </trkpt>
      <trkpt lat="44.24304" lon="2.98387">
        <ele>837</ele>
        <time>2021-09-04T13:24:29Z</time>
      </trkpt>
      <trkpt lat="44.24375" lon="2.98356">
        <ele>843</ele>
        <time>2021-09-04T13:25:00Z</time>
      </trkpt>
      <trkpt lat="44.24447" lon="2.98349">
        <ele>843</ele>
        <time>2021-09-04T13:25:31Z</time>
      </trkpt>
      <trkpt lat="44.24519" lon="2.9837">
        <ele>844</ele>
        <time>2021-09-04T13:26:02Z</time>
      </trkpt>
      <trkpt lat="44.24591" lon="2.98373">
        <ele>848</ele>
        <time>2021-09-04T13:26:32Z</time>
      </trkpt>
      <trkpt lat="44.24666" lon="2.98371">
        <ele>852</ele>
        <time>2021-09-04T13:27:04Z</time>
      </trkpt>
      <trkpt lat="44.24702" lon="2.98382">
        <ele>853</ele>
        <time>2021-09-04T13:27:18Z</time>
      </trkpt>
      <trkpt lat="44.24722" lon="2.98395">
        <ele>855</ele>
        <time>2021-09-04T13:27:26Z</time>
      </trkpt>
      <trkpt lat="44.24734" lon="2.98409">
        <ele>855</ele>
        <time>2021-09-04T13:27:32Z</time>
      </trkpt>
      <trkpt lat="44.24738" lon="2.98413">
        <ele>855</ele>
        <time>2021-09-04T13:27:34Z</time>
      </trkpt>
      <trkpt lat="44.24794" lon="2.98495">
        <ele>859</ele>
        <time>2021-09-04T13:28:04Z</time>
      </trkpt>
      <trkpt lat="44.24807" lon="2.98512">
        <ele>861</ele>
        <time>2021-09-04T13:28:12Z</time>
      </trkpt>
      <trkpt lat="44.24821" lon="2.98526">
        <ele>863</ele>
        <time>2021-09-04T13:28:20Z</time>
      </trkpt>
      <trkpt lat="44.2484" lon="2.98533">
        <ele>866</ele>
        <time>2021-09-04T13:28:29Z</time>
      </trkpt>
      <trkpt lat="44.24898" lon="2.98515">
        <ele>870</ele>
        <time>2021-09-04T13:28:59Z</time>
      </trkpt>
      <trkpt lat="44.24952" lon="2.98465">
        <ele>882</ele>
        <time>2021-09-04T13:29:30Z</time>
      </trkpt>
      <trkpt lat="44.24992" lon="2.98444">
        <ele>888</ele>
        <time>2021-09-04T13:29:50Z</time>
      </trkpt>
      <trkpt lat="44.25019" lon="2.98439">
        <ele>890</ele>
        <time>2021-09-04T13:30:02Z</time>
      </trkpt>
      <trkpt lat="44.25026" lon="2.98438">
        <ele>889</ele>
        <time>2021-09-04T13:30:05Z</time>
      </trkpt>
      <trkpt lat="44.25037" lon="2.98438">
        <ele>891</ele>
        <time>2021-09-04T13:30:10Z</time>
      </trkpt>
      <trkpt lat="44.25052" lon="2.98443">
        <ele>892</ele>
        <time>2021-09-04T13:30:16Z</time>
      </trkpt>
      <trkpt lat="44.25085" lon="2.98454">
        <ele>895</ele>
        <time>2021-09-04T13:30:30Z</time>
      </trkpt>
      <trkpt lat="44.25147" lon="2.98488">
        <ele>897</ele>
        <time>2021-09-04T13:30:57Z</time>
      </trkpt>
      <trkpt lat="44.25221" lon="2.9849">
        <ele>902</ele>
        <time>2021-09-04T13:31:27Z</time>
      </trkpt>
      <trkpt lat="44.25293" lon="2.98466">
        <ele>906</ele>
        <time>2021-09-04T13:31:57Z</time>
      </trkpt>
      <trkpt lat="44.25368" lon="2.98437">
        <ele>911</ele>
        <time>2021-09-04T13:32:29Z</time>
      </trkpt>
      <trkpt lat="44.25421" lon="2.98366">
        <ele>917</ele>
        <time>2021-09-04T13:32:59Z</time>
      </trkpt>
      <trkpt lat="44.25406" lon="2.9825">
        <ele>921</ele>
        <time>2021-09-04T13:33:29Z</time>
      </trkpt>
      <trkpt lat="44.25408" lon="2.9812">
        <ele>916</ele>
        <time>2021-09-04T13:33:59Z</time>
      </trkpt>
      <trkpt lat="44.25417" lon="2.98086">
        <ele>913</ele>
        <time>2021-09-04T13:34:51Z</time>
      </trkpt>
      <trkpt lat="44.25418" lon="2.9807">
        <ele>914</ele>
        <time>2021-09-04T13:34:55Z</time>
      </trkpt>
      <trkpt lat="44.25424" lon="2.98041">
        <ele>915</ele>
        <time>2021-09-04T13:35:01Z</time>
      </trkpt>
      <trkpt lat="44.25459" lon="2.97959">
        <ele>913</ele>
        <time>2021-09-04T13:35:17Z</time>
      </trkpt>
      <trkpt lat="44.25477" lon="2.97931">
        <ele>912</ele>
        <time>2021-09-04T13:35:22Z</time>
      </trkpt>
      <trkpt lat="44.25489" lon="2.97917">
        <ele>911</ele>
        <time>2021-09-04T13:35:25Z</time>
      </trkpt>
      <trkpt lat="44.25507" lon="2.97905">
        <ele>911</ele>
        <time>2021-09-04T13:35:29Z</time>
      </trkpt>
      <trkpt lat="44.25582" lon="2.97881">
        <ele>911</ele>
        <time>2021-09-04T13:35:41Z</time>
      </trkpt>
      <trkpt lat="44.25612" lon="2.97854">
        <ele>911</ele>
        <time>2021-09-04T13:35:47Z</time>
      </trkpt>
      <trkpt lat="44.25638" lon="2.9782">
        <ele>909</ele>
        <time>2021-09-04T13:35:53Z</time>
      </trkpt>
      <trkpt lat="44.25686" lon="2.97726">
        <ele>904</ele>
        <time>2021-09-04T13:36:06Z</time>
      </trkpt>
      <trkpt lat="44.25701" lon="2.97708">
        <ele>904</ele>
        <time>2021-09-04T13:36:09Z</time>
      </trkpt>
      <trkpt lat="44.25799" lon="2.97636">
        <ele>909</ele>
        <time>2021-09-04T13:36:25Z</time>
      </trkpt>
      <trkpt lat="44.25823" lon="2.97599">
        <ele>909</ele>
        <time>2021-09-04T13:36:30Z</time>
      </trkpt>
      <trkpt lat="44.25875" lon="2.97506">
        <ele>907</ele>
        <time>2021-09-04T13:36:42Z</time>
      </trkpt>
      <trkpt lat="44.25883" lon="2.97495">
        <ele>907</ele>
        <time>2021-09-04T13:36:44Z</time>
      </trkpt>
      <trkpt lat="44.25934" lon="2.97458">
        <ele>906</ele>
        <time>2021-09-04T13:36:51Z</time>
      </trkpt>
      <trkpt lat="44.25962" lon="2.97455">
        <ele>905</ele>
        <time>2021-09-04T13:36:54Z</time>
      </trkpt>
      <trkpt lat="44.26029" lon="2.97462">
        <ele>901</ele>
        <time>2021-09-04T13:37:01Z</time>
      </trkpt>
      <trkpt lat="44.26095" lon="2.97438">
        <ele>898</ele>
        <time>2021-09-04T13:37:08Z</time>
      </trkpt>
      <trkpt lat="44.26265" lon="2.97365">
        <ele>888</ele>
        <time>2021-09-04T13:37:25Z</time>
      </trkpt>
      <trkpt lat="44.26482" lon="2.97344">
        <ele>885</ele>
        <time>2021-09-04T13:37:53Z</time>
      </trkpt>
      <trkpt lat="44.26507" lon="2.97325">
        <ele>885</ele>
        <time>2021-09-04T13:37:57Z</time>
      </trkpt>
      <trkpt lat="44.26549" lon="2.97281">
        <ele>886</ele>
        <time>2021-09-04T13:38:06Z</time>
      </trkpt>
      <trkpt lat="44.26579" lon="2.97267">
        <ele>889</ele>
        <time>2021-09-04T13:38:14Z</time>
      </trkpt>
      <trkpt lat="44.26665" lon="2.97283">
        <ele>894</ele>
        <time>2021-09-04T13:38:44Z</time>
      </trkpt>
      <trkpt lat="44.26745" lon="2.97298">
        <ele>897</ele>
        <time>2021-09-04T13:39:14Z</time>
      </trkpt>
      <trkpt lat="44.26811" lon="2.97308">
        <ele>903</ele>
        <time>2021-09-04T13:39:42Z</time>
      </trkpt>
      <trkpt lat="44.2684" lon="2.97294">
        <ele>905</ele>
        <time>2021-09-04T13:39:55Z</time>
      </trkpt>
      <trkpt lat="44.26869" lon="2.97277">
        <ele>908</ele>
        <time>2021-09-04T13:40:07Z</time>
      </trkpt>
      <trkpt lat="44.26874" lon="2.97275">
        <ele>908</ele>
        <time>2021-09-04T13:40:09Z</time>
      </trkpt>
      <trkpt lat="44.26879" lon="2.97273">
        <ele>909</ele>
        <time>2021-09-04T13:40:11Z</time>
      </trkpt>
      <trkpt lat="44.26884" lon="2.97269">
        <ele>909</ele>
        <time>2021-09-04T13:40:13Z</time>
      </trkpt>
      <trkpt lat="44.26949" lon="2.97229">
        <ele>912</ele>
        <time>2021-09-04T13:40:43Z</time>
      </trkpt>
      <trkpt lat="44.26994" lon="2.97198">
        <ele>917</ele>
        <time>2021-09-04T13:41:03Z</time>
      </trkpt>
      <trkpt lat="44.27023" lon="2.97166">
        <ele>920</ele>
        <time>2021-09-04T13:41:17Z</time>
      </trkpt>
      <trkpt lat="44.27066" lon="2.97083">
        <ele>925</ele>
        <time>2021-09-04T13:41:47Z</time>
      </trkpt>
      <trkpt lat="44.27108" lon="2.97007">
        <ele>931</ele>
        <time>2021-09-04T13:42:19Z</time>
      </trkpt>
      <trkpt lat="44.27151" lon="2.96927">
        <ele>932</ele>
        <time>2021-09-04T13:42:51Z</time>
      </trkpt>
      <trkpt lat="44.27164" lon="2.96892">
        <ele>934</ele>
        <time>2021-09-04T13:43:03Z</time>
      </trkpt>
      <trkpt lat="44.27166" lon="2.96886">
        <ele>934</ele>
        <time>2021-09-04T13:43:05Z</time>
      </trkpt>
      <trkpt lat="44.27173" lon="2.96862">
        <ele>935</ele>
        <time>2021-09-04T13:43:14Z</time>
      </trkpt>
      <trkpt lat="44.27205" lon="2.96775">
        <ele>941</ele>
        <time>2021-09-04T13:43:44Z</time>
      </trkpt>
      <trkpt lat="44.2723" lon="2.96708">
        <ele>944</ele>
        <time>2021-09-04T13:44:08Z</time>
      </trkpt>
      <trkpt lat="44.27238" lon="2.96697">
        <ele>945</ele>
        <time>2021-09-04T13:44:13Z</time>
      </trkpt>
      <trkpt lat="44.27266" lon="2.96676">
        <ele>945</ele>
        <time>2021-09-04T13:44:26Z</time>
      </trkpt>
      <trkpt lat="44.2727" lon="2.96674">
        <ele>945</ele>
        <time>2021-09-04T13:44:28Z</time>
      </trkpt>
      <trkpt lat="44.27275" lon="2.96673">
        <ele>946</ele>
        <time>2021-09-04T13:44:30Z</time>
      </trkpt>
      <trkpt lat="44.2728" lon="2.96671">
        <ele>947</ele>
        <time>2021-09-04T13:44:32Z</time>
      </trkpt>
      <trkpt lat="44.2729" lon="2.96669">
        <ele>951</ele>
        <time>2021-09-04T13:44:36Z</time>
      </trkpt>
      <trkpt lat="44.27305" lon="2.96669">
        <ele>955</ele>
        <time>2021-09-04T13:44:43Z</time>
      </trkpt>
      <trkpt lat="44.27372" lon="2.9669">
        <ele>963</ele>
        <time>2021-09-04T13:45:13Z</time>
      </trkpt>
      <trkpt lat="44.27378" lon="2.96691">
        <ele>963</ele>
        <time>2021-09-04T13:45:16Z</time>
      </trkpt>
      <trkpt lat="44.27406" lon="2.96688">
        <ele>963</ele>
        <time>2021-09-04T13:45:28Z</time>
      </trkpt>
      <trkpt lat="44.2746" lon="2.96659">
        <ele>962</ele>
        <time>2021-09-04T13:45:52Z</time>
      </trkpt>
      <trkpt lat="44.275" lon="2.96631">
        <ele>961</ele>
        <time>2021-09-04T13:46:15Z</time>
      </trkpt>
      <trkpt lat="44.27512" lon="2.96623">
        <ele>962</ele>
        <time>2021-09-04T13:46:21Z</time>
      </trkpt>
      <trkpt lat="44.27579" lon="2.96575">
        <ele>960</ele>
        <time>2021-09-04T13:46:52Z</time>
      </trkpt>
      <trkpt lat="44.27639" lon="2.96528">
        <ele>965</ele>
        <time>2021-09-04T13:47:23Z</time>
      </trkpt>
      <trkpt lat="44.27652" lon="2.96515">
        <ele>967</ele>
        <time>2021-09-04T13:47:29Z</time>
      </trkpt>
      <trkpt lat="44.27685" lon="2.96469">
        <ele>972</ele>
        <time>2021-09-04T13:47:47Z</time>
      </trkpt>
      <trkpt lat="44.2769" lon="2.96464">
        <ele>972</ele>
        <time>2021-09-04T13:47:50Z</time>
      </trkpt>
      <trkpt lat="44.27694" lon="2.96462">
        <ele>973</ele>
        <time>2021-09-04T13:47:53Z</time>
      </trkpt>
      <trkpt lat="44.27699" lon="2.96447">
        <ele>975</ele>
        <time>2021-09-04T13:47:59Z</time>
      </trkpt>
      <trkpt lat="44.27701" lon="2.96441">
        <ele>975</ele>
        <time>2021-09-04T13:48:02Z</time>
      </trkpt>
      <trkpt lat="44.27701" lon="2.96442">
        <ele>977</ele>
        <time>2021-09-04T13:54:23Z</time>
      </trkpt>
      <trkpt lat="44.27708" lon="2.96456">
        <ele>976</ele>
        <time>2021-09-04T13:54:27Z</time>
      </trkpt>
      <trkpt lat="44.27789" lon="2.96533">
        <ele>976</ele>
        <time>2021-09-04T13:54:57Z</time>
      </trkpt>
      <trkpt lat="44.278" lon="2.9654">
        <ele>977</ele>
        <time>2021-09-04T13:55:01Z</time>
      </trkpt>
      <trkpt lat="44.27892" lon="2.96578">
        <ele>979</ele>
        <time>2021-09-04T13:55:33Z</time>
      </trkpt>
      <trkpt lat="44.2798" lon="2.96602">
        <ele>984</ele>
        <time>2021-09-04T13:56:03Z</time>
      </trkpt>
      <trkpt lat="44.28097" lon="2.96621">
        <ele>987</ele>
        <time>2021-09-04T13:56:33Z</time>
      </trkpt>
      <trkpt lat="44.2812" lon="2.96621">
        <ele>988</ele>
        <time>2021-09-04T13:56:39Z</time>
      </trkpt>
      <trkpt lat="44.28136" lon="2.96618">
        <ele>988</ele>
        <time>2021-09-04T13:56:43Z</time>
      </trkpt>
      <trkpt lat="44.28157" lon="2.96601">
        <ele>989</ele>
        <time>2021-09-04T13:56:49Z</time>
      </trkpt>
      <trkpt lat="44.28235" lon="2.96475">
        <ele>994</ele>
        <time>2021-09-04T13:57:21Z</time>
      </trkpt>
      <trkpt lat="44.28257" lon="2.96446">
        <ele>995</ele>
        <time>2021-09-04T13:57:29Z</time>
      </trkpt>
      <trkpt lat="44.28291" lon="2.96419">
        <ele>996</ele>
        <time>2021-09-04T13:57:39Z</time>
      </trkpt>
      <trkpt lat="44.28304" lon="2.96409">
        <ele>996</ele>
        <time>2021-09-04T13:57:43Z</time>
      </trkpt>
      <trkpt lat="44.28316" lon="2.96398">
        <ele>997</ele>
        <time>2021-09-04T13:57:47Z</time>
      </trkpt>
      <trkpt lat="44.28321" lon="2.9639">
        <ele>997</ele>
        <time>2021-09-04T13:57:49Z</time>
      </trkpt>
      <trkpt lat="44.28325" lon="2.96381">
        <ele>997</ele>
        <time>2021-09-04T13:57:51Z</time>
      </trkpt>
      <trkpt lat="44.28327" lon="2.9636">
        <ele>997</ele>
        <time>2021-09-04T13:57:55Z</time>
      </trkpt>
      <trkpt lat="44.28324" lon="2.96251">
        <ele>997</ele>
        <time>2021-09-04T13:58:15Z</time>
      </trkpt>
      <trkpt lat="44.28327" lon="2.9623">
        <ele>997</ele>
        <time>2021-09-04T13:58:19Z</time>
      </trkpt>
      <trkpt lat="44.28335" lon="2.96211">
        <ele>997</ele>
        <time>2021-09-04T13:58:23Z</time>
      </trkpt>
      <trkpt lat="44.28347" lon="2.96197">
        <ele>998</ele>
        <time>2021-09-04T13:58:27Z</time>
      </trkpt>
      <trkpt lat="44.28368" lon="2.96184">
        <ele>998</ele>
        <time>2021-09-04T13:58:33Z</time>
      </trkpt>
      <trkpt lat="44.28406" lon="2.96172">
        <ele>1000</ele>
        <time>2021-09-04T13:58:43Z</time>
      </trkpt>
      <trkpt lat="44.28415" lon="2.96168">
        <ele>1000</ele>
        <time>2021-09-04T13:58:45Z</time>
      </trkpt>
      <trkpt lat="44.28422" lon="2.96161">
        <ele>1000</ele>
        <time>2021-09-04T13:58:47Z</time>
      </trkpt>
      <trkpt lat="44.28428" lon="2.96142">
        <ele>1000</ele>
        <time>2021-09-04T13:58:51Z</time>
      </trkpt>
      <trkpt lat="44.28427" lon="2.96128">
        <ele>1000</ele>
        <time>2021-09-04T13:58:53Z</time>
      </trkpt>
      <trkpt lat="44.28419" lon="2.96096">
        <ele>1002</ele>
        <time>2021-09-04T13:58:59Z</time>
      </trkpt>
      <trkpt lat="44.28408" lon="2.96065">
        <ele>1003</ele>
        <time>2021-09-04T13:59:05Z</time>
      </trkpt>
      <trkpt lat="44.28399" lon="2.96037">
        <ele>1004</ele>
        <time>2021-09-04T13:59:10Z</time>
      </trkpt>
      <trkpt lat="44.28396" lon="2.96014">
        <ele>1005</ele>
        <time>2021-09-04T13:59:14Z</time>
      </trkpt>
      <trkpt lat="44.28398" lon="2.95981">
        <ele>1006</ele>
        <time>2021-09-04T13:59:20Z</time>
      </trkpt>
      <trkpt lat="44.28408" lon="2.95938">
        <ele>1007</ele>
        <time>2021-09-04T13:59:28Z</time>
      </trkpt>
      <trkpt lat="44.28409" lon="2.95928">
        <ele>1008</ele>
        <time>2021-09-04T13:59:30Z</time>
      </trkpt>
      <trkpt lat="44.28409" lon="2.95916">
        <ele>1008</ele>
        <time>2021-09-04T13:59:32Z</time>
      </trkpt>
      <trkpt lat="44.28406" lon="2.95905">
        <ele>1008</ele>
        <time>2021-09-04T13:59:34Z</time>
      </trkpt>
      <trkpt lat="44.28401" lon="2.95896">
        <ele>1008</ele>
        <time>2021-09-04T13:59:36Z</time>
      </trkpt>
      <trkpt lat="44.28359" lon="2.95861">
        <ele>1009</ele>
        <time>2021-09-04T13:59:48Z</time>
      </trkpt>
      <trkpt lat="44.28348" lon="2.95845">
        <ele>1009</ele>
        <time>2021-09-04T13:59:52Z</time>
      </trkpt>
      <trkpt lat="44.28344" lon="2.95835">
        <ele>1009</ele>
        <time>2021-09-04T13:59:54Z</time>
      </trkpt>
      <trkpt lat="44.2834" lon="2.95814">
        <ele>1010</ele>
        <time>2021-09-04T13:59:58Z</time>
      </trkpt>
      <trkpt lat="44.28342" lon="2.95781">
        <ele>1011</ele>
        <time>2021-09-04T14:00:04Z</time>
      </trkpt>
      <trkpt lat="44.28369" lon="2.95669">
        <ele>1002</ele>
        <time>2021-09-04T14:00:26Z</time>
      </trkpt>
      <trkpt lat="44.28382" lon="2.95639">
        <ele>1003</ele>
        <time>2021-09-04T14:00:32Z</time>
      </trkpt>
      <trkpt lat="44.28405" lon="2.95606">
        <ele>1005</ele>
        <time>2021-09-04T14:00:40Z</time>
      </trkpt>
      <trkpt lat="44.28427" lon="2.95576">
        <ele>1004</ele>
        <time>2021-09-04T14:00:48Z</time>
      </trkpt>
      <trkpt lat="44.28465" lon="2.95488">
        <ele>1005</ele>
        <time>2021-09-04T14:01:06Z</time>
      </trkpt>
      <trkpt lat="44.28477" lon="2.95472">
        <ele>1007</ele>
        <time>2021-09-04T14:01:10Z</time>
      </trkpt>
      <trkpt lat="44.28505" lon="2.9545">
        <ele>1008</ele>
        <time>2021-09-04T14:01:18Z</time>
      </trkpt>
      <trkpt lat="44.28527" lon="2.9544">
        <ele>1010</ele>
        <time>2021-09-04T14:01:24Z</time>
      </trkpt>
      <trkpt lat="44.28535" lon="2.95437">
        <ele>1010</ele>
        <time>2021-09-04T14:01:26Z</time>
      </trkpt>
      <trkpt lat="44.28598" lon="2.95406">
        <ele>1014</ele>
        <time>2021-09-04T14:01:42Z</time>
      </trkpt>
      <trkpt lat="44.28618" lon="2.95386">
        <ele>1014</ele>
        <time>2021-09-04T14:01:48Z</time>
      </trkpt>
      <trkpt lat="44.28644" lon="2.9535">
        <ele>1014</ele>
        <time>2021-09-04T14:01:58Z</time>
      </trkpt>
      <trkpt lat="44.28648" lon="2.95342">
        <ele>1013</ele>
        <time>2021-09-04T14:02:00Z</time>
      </trkpt>
      <trkpt lat="44.28652" lon="2.95333">
        <ele>1012</ele>
        <time>2021-09-04T14:02:02Z</time>
      </trkpt>
      <trkpt lat="44.28657" lon="2.95327">
        <ele>1012</ele>
        <time>2021-09-04T14:02:04Z</time>
      </trkpt>
      <trkpt lat="44.28661" lon="2.95321">
        <ele>1010</ele>
        <time>2021-09-04T14:02:06Z</time>
      </trkpt>
      <trkpt lat="44.2867" lon="2.95304">
        <ele>1010</ele>
        <time>2021-09-04T14:02:10Z</time>
      </trkpt>
      <trkpt lat="44.28675" lon="2.95296">
        <ele>1009</ele>
        <time>2021-09-04T14:02:12Z</time>
      </trkpt>
      <trkpt lat="44.28681" lon="2.95286">
        <ele>1007</ele>
        <time>2021-09-04T14:02:14Z</time>
      </trkpt>
      <trkpt lat="44.28707" lon="2.95254">
        <ele>1003</ele>
        <time>2021-09-04T14:02:22Z</time>
      </trkpt>
      <trkpt lat="44.28805" lon="2.95165">
        <ele>1012</ele>
        <time>2021-09-04T14:02:50Z</time>
      </trkpt>
      <trkpt lat="44.28819" lon="2.95163">
        <ele>1013</ele>
        <time>2021-09-04T14:02:54Z</time>
      </trkpt>
      <trkpt lat="44.28826" lon="2.95165">
        <ele>1013</ele>
        <time>2021-09-04T14:02:56Z</time>
      </trkpt>
      <trkpt lat="44.28839" lon="2.95176">
        <ele>1013</ele>
        <time>2021-09-04T14:03:00Z</time>
      </trkpt>
      <trkpt lat="44.2892" lon="2.9535">
        <ele>1011</ele>
        <time>2021-09-04T14:03:24Z</time>
      </trkpt>
      <trkpt lat="44.28937" lon="2.95424">
        <ele>1009</ele>
        <time>2021-09-04T14:03:31Z</time>
      </trkpt>
      <trkpt lat="44.28941" lon="2.95432">
        <ele>1009</ele>
        <time>2021-09-04T14:03:32Z</time>
      </trkpt>
      <trkpt lat="44.28949" lon="2.95439">
        <ele>1009</ele>
        <time>2021-09-04T14:03:33Z</time>
      </trkpt>
      <trkpt lat="44.28958" lon="2.95443">
        <ele>1008</ele>
        <time>2021-09-04T14:03:34Z</time>
      </trkpt>
      <trkpt lat="44.28975" lon="2.95442">
        <ele>1006</ele>
        <time>2021-09-04T14:03:36Z</time>
      </trkpt>
      <trkpt lat="44.28992" lon="2.95434">
        <ele>1005</ele>
        <time>2021-09-04T14:03:38Z</time>
      </trkpt>
      <trkpt lat="44.29086" lon="2.95359">
        <ele>1002</ele>
        <time>2021-09-04T14:03:50Z</time>
      </trkpt>
      <trkpt lat="44.29104" lon="2.95352">
        <ele>1001</ele>
        <time>2021-09-04T14:03:52Z</time>
      </trkpt>
      <trkpt lat="44.29148" lon="2.95352">
        <ele>998</ele>
        <time>2021-09-04T14:03:57Z</time>
      </trkpt>
      <trkpt lat="44.29166" lon="2.95356">
        <ele>997</ele>
        <time>2021-09-04T14:03:59Z</time>
      </trkpt>
      <trkpt lat="44.29183" lon="2.95366">
        <ele>996</ele>
        <time>2021-09-04T14:04:01Z</time>
      </trkpt>
      <trkpt lat="44.29198" lon="2.9538">
        <ele>996</ele>
        <time>2021-09-04T14:04:03Z</time>
      </trkpt>
      <trkpt lat="44.2921" lon="2.95399">
        <ele>995</ele>
        <time>2021-09-04T14:04:05Z</time>
      </trkpt>
      <trkpt lat="44.29218" lon="2.9542">
        <ele>994</ele>
        <time>2021-09-04T14:04:07Z</time>
      </trkpt>
      <trkpt lat="44.29222" lon="2.95445">
        <ele>993</ele>
        <time>2021-09-04T14:04:09Z</time>
      </trkpt>
      <trkpt lat="44.29222" lon="2.95483">
        <ele>989</ele>
        <time>2021-09-04T14:04:12Z</time>
      </trkpt>
      <trkpt lat="44.29217" lon="2.95521">
        <ele>987</ele>
        <time>2021-09-04T14:04:15Z</time>
      </trkpt>
      <trkpt lat="44.29217" lon="2.95533">
        <ele>986</ele>
        <time>2021-09-04T14:04:16Z</time>
      </trkpt>
      <trkpt lat="44.29222" lon="2.95557">
        <ele>985</ele>
        <time>2021-09-04T14:04:18Z</time>
      </trkpt>
      <trkpt lat="44.29236" lon="2.95585">
        <ele>985</ele>
        <time>2021-09-04T14:04:21Z</time>
      </trkpt>
      <trkpt lat="44.2925" lon="2.956">
        <ele>985</ele>
        <time>2021-09-04T14:04:23Z</time>
      </trkpt>
      <trkpt lat="44.29259" lon="2.95605">
        <ele>986</ele>
        <time>2021-09-04T14:04:24Z</time>
      </trkpt>
      <trkpt lat="44.29277" lon="2.9561">
        <ele>987</ele>
        <time>2021-09-04T14:04:26Z</time>
      </trkpt>
      <trkpt lat="44.29287" lon="2.95609">
        <ele>989</ele>
        <time>2021-09-04T14:04:27Z</time>
      </trkpt>
      <trkpt lat="44.29427" lon="2.95521">
        <ele>993</ele>
        <time>2021-09-04T14:04:58Z</time>
      </trkpt>
      <trkpt lat="44.29434" lon="2.95514">
        <ele>992</ele>
        <time>2021-09-04T14:05:00Z</time>
      </trkpt>
      <trkpt lat="44.29447" lon="2.95497">
        <ele>992</ele>
        <time>2021-09-04T14:05:04Z</time>
      </trkpt>
      <trkpt lat="44.29492" lon="2.95374">
        <ele>995</ele>
        <time>2021-09-04T14:05:28Z</time>
      </trkpt>
      <trkpt lat="44.29535" lon="2.95305">
        <ele>993</ele>
        <time>2021-09-04T14:05:43Z</time>
      </trkpt>
      <trkpt lat="44.29566" lon="2.9528">
        <ele>993</ele>
        <time>2021-09-04T14:05:51Z</time>
      </trkpt>
      <trkpt lat="44.29588" lon="2.95271">
        <ele>993</ele>
        <time>2021-09-04T14:05:56Z</time>
      </trkpt>
      <trkpt lat="44.29615" lon="2.95269">
        <ele>993</ele>
        <time>2021-09-04T14:06:02Z</time>
      </trkpt>
      <trkpt lat="44.29644" lon="2.95276">
        <ele>994</ele>
        <time>2021-09-04T14:06:08Z</time>
      </trkpt>
      <trkpt lat="44.29661" lon="2.95288">
        <ele>994</ele>
        <time>2021-09-04T14:06:12Z</time>
      </trkpt>
      <trkpt lat="44.29682" lon="2.95308">
        <ele>994</ele>
        <time>2021-09-04T14:06:17Z</time>
      </trkpt>
      <trkpt lat="44.29719" lon="2.95352">
        <ele>993</ele>
        <time>2021-09-04T14:06:26Z</time>
      </trkpt>
      <trkpt lat="44.29741" lon="2.95367">
        <ele>993</ele>
        <time>2021-09-04T14:06:30Z</time>
      </trkpt>
      <trkpt lat="44.29846" lon="2.95403">
        <ele>989</ele>
        <time>2021-09-04T14:06:46Z</time>
      </trkpt>
      <trkpt lat="44.29868" lon="2.95428">
        <ele>988</ele>
        <time>2021-09-04T14:06:50Z</time>
      </trkpt>
      <trkpt lat="44.29933" lon="2.95513">
        <ele>983</ele>
        <time>2021-09-04T14:07:02Z</time>
      </trkpt>
      <trkpt lat="44.30094" lon="2.95601">
        <ele>974</ele>
        <time>2021-09-04T14:07:22Z</time>
      </trkpt>
      <trkpt lat="44.30161" lon="2.95641">
        <ele>971</ele>
        <time>2021-09-04T14:07:31Z</time>
      </trkpt>
      <trkpt lat="44.30174" lon="2.95644">
        <ele>971</ele>
        <time>2021-09-04T14:07:33Z</time>
      </trkpt>
      <trkpt lat="44.30179" lon="2.95648">
        <ele>971</ele>
        <time>2021-09-04T14:07:34Z</time>
      </trkpt>
      <trkpt lat="44.30182" lon="2.95654">
        <ele>971</ele>
        <time>2021-09-04T14:07:35Z</time>
      </trkpt>
      <trkpt lat="44.30185" lon="2.95667">
        <ele>971</ele>
        <time>2021-09-04T14:07:37Z</time>
      </trkpt>
      <trkpt lat="44.30184" lon="2.95684">
        <ele>970</ele>
        <time>2021-09-04T14:07:39Z</time>
      </trkpt>
      <trkpt lat="44.30174" lon="2.95722">
        <ele>971</ele>
        <time>2021-09-04T14:07:44Z</time>
      </trkpt>
      <trkpt lat="44.3017" lon="2.95729">
        <ele>970</ele>
        <time>2021-09-04T14:07:46Z</time>
      </trkpt>
      <trkpt lat="44.30169" lon="2.95735">
        <ele>970</ele>
        <time>2021-09-04T14:07:59Z</time>
      </trkpt>
      <trkpt lat="44.30138" lon="2.95783">
        <ele>969</ele>
        <time>2021-09-04T14:08:12Z</time>
      </trkpt>
      <trkpt lat="44.30123" lon="2.95797">
        <ele>968</ele>
        <time>2021-09-04T14:08:15Z</time>
      </trkpt>
      <trkpt lat="44.30088" lon="2.95811">
        <ele>966</ele>
        <time>2021-09-04T14:08:21Z</time>
      </trkpt>
      <trkpt lat="44.30058" lon="2.95835">
        <ele>966</ele>
        <time>2021-09-04T14:08:26Z</time>
      </trkpt>
      <trkpt lat="44.30048" lon="2.95848">
        <ele>965</ele>
        <time>2021-09-04T14:08:28Z</time>
      </trkpt>
      <trkpt lat="44.30028" lon="2.95912">
        <ele>959</ele>
        <time>2021-09-04T14:08:38Z</time>
      </trkpt>
      <trkpt lat="44.30018" lon="2.95923">
        <ele>958</ele>
        <time>2021-09-04T14:08:40Z</time>
      </trkpt>
      <trkpt lat="44.30008" lon="2.9593">
        <ele>957</ele>
        <time>2021-09-04T14:08:42Z</time>
      </trkpt>
      <trkpt lat="44.29986" lon="2.95935">
        <ele>954</ele>
        <time>2021-09-04T14:08:47Z</time>
      </trkpt>
      <trkpt lat="44.29973" lon="2.95943">
        <ele>954</ele>
        <time>2021-09-04T14:08:48Z</time>
      </trkpt>
      <trkpt lat="44.29968" lon="2.95949">
        <ele>954</ele>
        <time>2021-09-04T14:08:49Z</time>
      </trkpt>
      <trkpt lat="44.29962" lon="2.95982">
        <ele>954</ele>
        <time>2021-09-04T14:08:53Z</time>
      </trkpt>
      <trkpt lat="44.29962" lon="2.96002">
        <ele>952</ele>
        <time>2021-09-04T14:08:55Z</time>
      </trkpt>
      <trkpt lat="44.29965" lon="2.96013">
        <ele>952</ele>
        <time>2021-09-04T14:08:56Z</time>
      </trkpt>
      <trkpt lat="44.29985" lon="2.96022">
        <ele>951</ele>
        <time>2021-09-04T14:08:59Z</time>
      </trkpt>
      <trkpt lat="44.29991" lon="2.96028">
        <ele>951</ele>
        <time>2021-09-04T14:09:00Z</time>
      </trkpt>
      <trkpt lat="44.29994" lon="2.96036">
        <ele>951</ele>
        <time>2021-09-04T14:09:01Z</time>
      </trkpt>
      <trkpt lat="44.29997" lon="2.96046">
        <ele>951</ele>
        <time>2021-09-04T14:09:02Z</time>
      </trkpt>
      <trkpt lat="44.29992" lon="2.96077">
        <ele>951</ele>
        <time>2021-09-04T14:09:05Z</time>
      </trkpt>
      <trkpt lat="44.29979" lon="2.96113">
        <ele>949</ele>
        <time>2021-09-04T14:09:09Z</time>
      </trkpt>
      <trkpt lat="44.29977" lon="2.96133">
        <ele>947</ele>
        <time>2021-09-04T14:09:11Z</time>
      </trkpt>
      <trkpt lat="44.29994" lon="2.96274">
        <ele>944</ele>
        <time>2021-09-04T14:09:25Z</time>
      </trkpt>
      <trkpt lat="44.29989" lon="2.96302">
        <ele>943</ele>
        <time>2021-09-04T14:09:28Z</time>
      </trkpt>
      <trkpt lat="44.29976" lon="2.9634">
        <ele>941</ele>
        <time>2021-09-04T14:09:33Z</time>
      </trkpt>
      <trkpt lat="44.29973" lon="2.96371">
        <ele>940</ele>
        <time>2021-09-04T14:09:36Z</time>
      </trkpt>
      <trkpt lat="44.29973" lon="2.96402">
        <ele>940</ele>
        <time>2021-09-04T14:09:39Z</time>
      </trkpt>
      <trkpt lat="44.29963" lon="2.96487">
        <ele>938</ele>
        <time>2021-09-04T14:09:47Z</time>
      </trkpt>
      <trkpt lat="44.29978" lon="2.96553">
        <ele>936</ele>
        <time>2021-09-04T14:09:55Z</time>
      </trkpt>
      <trkpt lat="44.29989" lon="2.96572">
        <ele>935</ele>
        <time>2021-09-04T14:09:58Z</time>
      </trkpt>
      <trkpt lat="44.29993" lon="2.96575">
        <ele>934</ele>
        <time>2021-09-04T14:09:59Z</time>
      </trkpt>
      <trkpt lat="44.29999" lon="2.96578">
        <ele>933</ele>
        <time>2021-09-04T14:10:00Z</time>
      </trkpt>
      <trkpt lat="44.30006" lon="2.9658">
        <ele>932</ele>
        <time>2021-09-04T14:10:01Z</time>
      </trkpt>
      <trkpt lat="44.30023" lon="2.96576">
        <ele>934</ele>
        <time>2021-09-04T14:10:04Z</time>
      </trkpt>
      <trkpt lat="44.30028" lon="2.96569">
        <ele>935</ele>
        <time>2021-09-04T14:10:06Z</time>
      </trkpt>
      <trkpt lat="44.3003" lon="2.96564">
        <ele>937</ele>
        <time>2021-09-04T14:10:08Z</time>
      </trkpt>
      <trkpt lat="44.30033" lon="2.96559">
        <ele>937</ele>
        <time>2021-09-04T14:10:11Z</time>
      </trkpt>
      <trkpt lat="44.30034" lon="2.96551">
        <ele>937</ele>
        <time>2021-09-04T14:11:03Z</time>
      </trkpt>
      <trkpt lat="44.30045" lon="2.96485">
        <ele>935</ele>
        <time>2021-09-04T14:11:16Z</time>
      </trkpt>
      <trkpt lat="44.30054" lon="2.96468">
        <ele>934</ele>
        <time>2021-09-04T14:11:19Z</time>
      </trkpt>
      <trkpt lat="44.30107" lon="2.96403">
        <ele>930</ele>
        <time>2021-09-04T14:11:31Z</time>
      </trkpt>
      <trkpt lat="44.30123" lon="2.96395">
        <ele>929</ele>
        <time>2021-09-04T14:11:34Z</time>
      </trkpt>
      <trkpt lat="44.30135" lon="2.96393">
        <ele>928</ele>
        <time>2021-09-04T14:11:36Z</time>
      </trkpt>
      <trkpt lat="44.30158" lon="2.96403">
        <ele>926</ele>
        <time>2021-09-04T14:11:40Z</time>
      </trkpt>
      <trkpt lat="44.30209" lon="2.96439">
        <ele>923</ele>
        <time>2021-09-04T14:11:49Z</time>
      </trkpt>
      <trkpt lat="44.30214" lon="2.96443">
        <ele>922</ele>
        <time>2021-09-04T14:11:50Z</time>
      </trkpt>
      <trkpt lat="44.30245" lon="2.96469">
        <ele>920</ele>
        <time>2021-09-04T14:11:55Z</time>
      </trkpt>
      <trkpt lat="44.30304" lon="2.96493">
        <ele>918</ele>
        <time>2021-09-04T14:12:04Z</time>
      </trkpt>
      <trkpt lat="44.30329" lon="2.96519">
        <ele>918</ele>
        <time>2021-09-04T14:12:08Z</time>
      </trkpt>
      <trkpt lat="44.30342" lon="2.96542">
        <ele>918</ele>
        <time>2021-09-04T14:12:11Z</time>
      </trkpt>
      <trkpt lat="44.30352" lon="2.96569">
        <ele>918</ele>
        <time>2021-09-04T14:12:14Z</time>
      </trkpt>
      <trkpt lat="44.30366" lon="2.9665">
        <ele>921</ele>
        <time>2021-09-04T14:12:22Z</time>
      </trkpt>
      <trkpt lat="44.3037" lon="2.9667">
        <ele>924</ele>
        <time>2021-09-04T14:12:24Z</time>
      </trkpt>
      <trkpt lat="44.30369" lon="2.96739">
        <ele>929</ele>
        <time>2021-09-04T14:12:32Z</time>
      </trkpt>
      <trkpt lat="44.3036" lon="2.96781">
        <ele>929</ele>
        <time>2021-09-04T14:12:37Z</time>
      </trkpt>
      <trkpt lat="44.30337" lon="2.96849">
        <ele>929</ele>
        <time>2021-09-04T14:12:46Z</time>
      </trkpt>
      <trkpt lat="44.30318" lon="2.96885">
        <ele>929</ele>
        <time>2021-09-04T14:12:52Z</time>
      </trkpt>
      <trkpt lat="44.30274" lon="2.96928">
        <ele>928</ele>
        <time>2021-09-04T14:13:01Z</time>
      </trkpt>
      <trkpt lat="44.3024" lon="2.96976">
        <ele>928</ele>
        <time>2021-09-04T14:13:10Z</time>
      </trkpt>
      <trkpt lat="44.30223" lon="2.96991">
        <ele>927</ele>
        <time>2021-09-04T14:13:14Z</time>
      </trkpt>
      <trkpt lat="44.30214" lon="2.96998">
        <ele>927</ele>
        <time>2021-09-04T14:13:16Z</time>
      </trkpt>
      <trkpt lat="44.30194" lon="2.9702">
        <ele>927</ele>
        <time>2021-09-04T14:13:21Z</time>
      </trkpt>
      <trkpt lat="44.30152" lon="2.97063">
        <ele>926</ele>
        <time>2021-09-04T14:13:30Z</time>
      </trkpt>
      <trkpt lat="44.30096" lon="2.97122">
        <ele>926</ele>
        <time>2021-09-04T14:13:42Z</time>
      </trkpt>
      <trkpt lat="44.30087" lon="2.97152">
        <ele>925</ele>
        <time>2021-09-04T14:13:46Z</time>
      </trkpt>
      <trkpt lat="44.30084" lon="2.97174">
        <ele>924</ele>
        <time>2021-09-04T14:13:49Z</time>
      </trkpt>
      <trkpt lat="44.30086" lon="2.97199">
        <ele>925</ele>
        <time>2021-09-04T14:13:53Z</time>
      </trkpt>
      <trkpt lat="44.30103" lon="2.97256">
        <ele>926</ele>
        <time>2021-09-04T14:14:03Z</time>
      </trkpt>
      <trkpt lat="44.30157" lon="2.97367">
        <ele>919</ele>
        <time>2021-09-04T14:14:20Z</time>
      </trkpt>
      <trkpt lat="44.30162" lon="2.97384">
        <ele>918</ele>
        <time>2021-09-04T14:14:22Z</time>
      </trkpt>
      <trkpt lat="44.30165" lon="2.97404">
        <ele>918</ele>
        <time>2021-09-04T14:14:24Z</time>
      </trkpt>
      <trkpt lat="44.30161" lon="2.97443">
        <ele>916</ele>
        <time>2021-09-04T14:14:28Z</time>
      </trkpt>
      <trkpt lat="44.30156" lon="2.9746">
        <ele>915</ele>
        <time>2021-09-04T14:14:30Z</time>
      </trkpt>
      <trkpt lat="44.30153" lon="2.97467">
        <ele>915</ele>
        <time>2021-09-04T14:14:31Z</time>
      </trkpt>
      <trkpt lat="44.30143" lon="2.97479">
        <ele>915</ele>
        <time>2021-09-04T14:14:33Z</time>
      </trkpt>
      <trkpt lat="44.30138" lon="2.97483">
        <ele>914</ele>
        <time>2021-09-04T14:14:34Z</time>
      </trkpt>
      <trkpt lat="44.3012" lon="2.97493">
        <ele>913</ele>
        <time>2021-09-04T14:14:37Z</time>
      </trkpt>
      <trkpt lat="44.30114" lon="2.97497">
        <ele>913</ele>
        <time>2021-09-04T14:14:38Z</time>
      </trkpt>
      <trkpt lat="44.30109" lon="2.97504">
        <ele>912</ele>
        <time>2021-09-04T14:14:39Z</time>
      </trkpt>
      <trkpt lat="44.30107" lon="2.97512">
        <ele>911</ele>
        <time>2021-09-04T14:14:40Z</time>
      </trkpt>
      <trkpt lat="44.30109" lon="2.97522">
        <ele>911</ele>
        <time>2021-09-04T14:14:41Z</time>
      </trkpt>
      <trkpt lat="44.30142" lon="2.97597">
        <ele>909</ele>
        <time>2021-09-04T14:14:50Z</time>
      </trkpt>
      <trkpt lat="44.30144" lon="2.97618">
        <ele>910</ele>
        <time>2021-09-04T14:14:52Z</time>
      </trkpt>
      <trkpt lat="44.30142" lon="2.97656">
        <ele>910</ele>
        <time>2021-09-04T14:14:56Z</time>
      </trkpt>
      <trkpt lat="44.30143" lon="2.97664">
        <ele>909</ele>
        <time>2021-09-04T14:14:57Z</time>
      </trkpt>
      <trkpt lat="44.30147" lon="2.97672">
        <ele>908</ele>
        <time>2021-09-04T14:14:58Z</time>
      </trkpt>
      <trkpt lat="44.30152" lon="2.97678">
        <ele>908</ele>
        <time>2021-09-04T14:14:59Z</time>
      </trkpt>
      <trkpt lat="44.30165" lon="2.97684">
        <ele>907</ele>
        <time>2021-09-04T14:15:01Z</time>
      </trkpt>
      <trkpt lat="44.3018" lon="2.97684">
        <ele>907</ele>
        <time>2021-09-04T14:15:03Z</time>
      </trkpt>
      <trkpt lat="44.30247" lon="2.97656">
        <ele>904</ele>
        <time>2021-09-04T14:15:12Z</time>
      </trkpt>
      <trkpt lat="44.30323" lon="2.97606">
        <ele>899</ele>
        <time>2021-09-04T14:15:23Z</time>
      </trkpt>
      <trkpt lat="44.30365" lon="2.97554">
        <ele>895</ele>
        <time>2021-09-04T14:15:30Z</time>
      </trkpt>
      <trkpt lat="44.30497" lon="2.97356">
        <ele>887</ele>
        <time>2021-09-04T14:15:56Z</time>
      </trkpt>
      <trkpt lat="44.30523" lon="2.9733">
        <ele>885</ele>
        <time>2021-09-04T14:16:00Z</time>
      </trkpt>
      <trkpt lat="44.30596" lon="2.97287">
        <ele>879</ele>
        <time>2021-09-04T14:16:10Z</time>
      </trkpt>
      <trkpt lat="44.30613" lon="2.97266">
        <ele>878</ele>
        <time>2021-09-04T14:16:13Z</time>
      </trkpt>
      <trkpt lat="44.30662" lon="2.97173">
        <ele>872</ele>
        <time>2021-09-04T14:16:24Z</time>
      </trkpt>
      <trkpt lat="44.30677" lon="2.97133">
        <ele>871</ele>
        <time>2021-09-04T14:16:28Z</time>
      </trkpt>
      <trkpt lat="44.30693" lon="2.97108">
        <ele>870</ele>
        <time>2021-09-04T14:16:31Z</time>
      </trkpt>
      <trkpt lat="44.30728" lon="2.97067">
        <ele>868</ele>
        <time>2021-09-04T14:16:37Z</time>
      </trkpt>
      <trkpt lat="44.30762" lon="2.96983">
        <ele>866</ele>
        <time>2021-09-04T14:16:46Z</time>
      </trkpt>
      <trkpt lat="44.30781" lon="2.96938">
        <ele>865</ele>
        <time>2021-09-04T14:16:51Z</time>
      </trkpt>
      <trkpt lat="44.30916" lon="2.96696">
        <ele>853</ele>
        <time>2021-09-04T14:17:20Z</time>
      </trkpt>
      <trkpt lat="44.30943" lon="2.96672">
        <ele>851</ele>
        <time>2021-09-04T14:17:24Z</time>
      </trkpt>
      <trkpt lat="44.30958" lon="2.96662">
        <ele>850</ele>
        <time>2021-09-04T14:17:26Z</time>
      </trkpt>
      <trkpt lat="44.31115" lon="2.96607">
        <ele>841</ele>
        <time>2021-09-04T14:17:45Z</time>
      </trkpt>
      <trkpt lat="44.31137" lon="2.9659">
        <ele>839</ele>
        <time>2021-09-04T14:17:48Z</time>
      </trkpt>
      <trkpt lat="44.31156" lon="2.9657">
        <ele>838</ele>
        <time>2021-09-04T14:17:51Z</time>
      </trkpt>
      <trkpt lat="44.31176" lon="2.96561">
        <ele>836</ele>
        <time>2021-09-04T14:17:54Z</time>
      </trkpt>
      <trkpt lat="44.31246" lon="2.96555">
        <ele>832</ele>
        <time>2021-09-04T14:18:03Z</time>
      </trkpt>
      <trkpt lat="44.31294" lon="2.96575">
        <ele>830</ele>
        <time>2021-09-04T14:18:10Z</time>
      </trkpt>
      <trkpt lat="44.31313" lon="2.96587">
        <ele>828</ele>
        <time>2021-09-04T14:18:13Z</time>
      </trkpt>
      <trkpt lat="44.31376" lon="2.96666">
        <ele>820</ele>
        <time>2021-09-04T14:18:28Z</time>
      </trkpt>
      <trkpt lat="44.31386" lon="2.96687">
        <ele>820</ele>
        <time>2021-09-04T14:18:32Z</time>
      </trkpt>
      <trkpt lat="44.31391" lon="2.96702">
        <ele>819</ele>
        <time>2021-09-04T14:18:34Z</time>
      </trkpt>
      <trkpt lat="44.31394" lon="2.96735">
        <ele>818</ele>
        <time>2021-09-04T14:18:38Z</time>
      </trkpt>
      <trkpt lat="44.31394" lon="2.96744">
        <ele>817</ele>
        <time>2021-09-04T14:18:39Z</time>
      </trkpt>
      <trkpt lat="44.31387" lon="2.96768">
        <ele>816</ele>
        <time>2021-09-04T14:18:42Z</time>
      </trkpt>
      <trkpt lat="44.31349" lon="2.96827">
        <ele>814</ele>
        <time>2021-09-04T14:18:50Z</time>
      </trkpt>
      <trkpt lat="44.31335" lon="2.96842">
        <ele>814</ele>
        <time>2021-09-04T14:18:53Z</time>
      </trkpt>
      <trkpt lat="44.31325" lon="2.96849">
        <ele>813</ele>
        <time>2021-09-04T14:18:55Z</time>
      </trkpt>
      <trkpt lat="44.313" lon="2.96854">
        <ele>810</ele>
        <time>2021-09-04T14:18:59Z</time>
      </trkpt>
      <trkpt lat="44.31278" lon="2.96853">
        <ele>808</ele>
        <time>2021-09-04T14:19:02Z</time>
      </trkpt>
      <trkpt lat="44.31263" lon="2.96857">
        <ele>806</ele>
        <time>2021-09-04T14:19:04Z</time>
      </trkpt>
      <trkpt lat="44.31252" lon="2.96871">
        <ele>805</ele>
        <time>2021-09-04T14:19:06Z</time>
      </trkpt>
      <trkpt lat="44.31248" lon="2.96878">
        <ele>804</ele>
        <time>2021-09-04T14:19:07Z</time>
      </trkpt>
      <trkpt lat="44.31244" lon="2.96903">
        <ele>803</ele>
        <time>2021-09-04T14:19:10Z</time>
      </trkpt>
      <trkpt lat="44.31243" lon="2.96916">
        <ele>802</ele>
        <time>2021-09-04T14:19:12Z</time>
      </trkpt>
      <trkpt lat="44.31239" lon="2.96932">
        <ele>801</ele>
        <time>2021-09-04T14:19:14Z</time>
      </trkpt>
      <trkpt lat="44.31234" lon="2.9694">
        <ele>800</ele>
        <time>2021-09-04T14:19:15Z</time>
      </trkpt>
      <trkpt lat="44.31211" lon="2.96965">
        <ele>795</ele>
        <time>2021-09-04T14:19:19Z</time>
      </trkpt>
      <trkpt lat="44.31192" lon="2.96976">
        <ele>791</ele>
        <time>2021-09-04T14:19:23Z</time>
      </trkpt>
      <trkpt lat="44.31186" lon="2.96982">
        <ele>789</ele>
        <time>2021-09-04T14:19:25Z</time>
      </trkpt>
      <trkpt lat="44.31184" lon="2.96991">
        <ele>787</ele>
        <time>2021-09-04T14:19:27Z</time>
      </trkpt>
      <trkpt lat="44.31181" lon="2.97003">
        <ele>786</ele>
        <time>2021-09-04T14:19:29Z</time>
      </trkpt>
      <trkpt lat="44.31179" lon="2.97009">
        <ele>787</ele>
        <time>2021-09-04T14:19:30Z</time>
      </trkpt>
      <trkpt lat="44.31187" lon="2.97038">
        <ele>787</ele>
        <time>2021-09-04T14:19:36Z</time>
      </trkpt>
      <trkpt lat="44.3119" lon="2.97042">
        <ele>786</ele>
        <time>2021-09-04T14:19:37Z</time>
      </trkpt>
      <trkpt lat="44.31194" lon="2.97048">
        <ele>786</ele>
        <time>2021-09-04T14:19:38Z</time>
      </trkpt>
      <trkpt lat="44.31196" lon="2.97055">
        <ele>786</ele>
        <time>2021-09-04T14:19:39Z</time>
      </trkpt>
      <trkpt lat="44.31197" lon="2.97063">
        <ele>786</ele>
        <time>2021-09-04T14:19:40Z</time>
      </trkpt>
      <trkpt lat="44.31194" lon="2.97089">
        <ele>785</ele>
        <time>2021-09-04T14:19:43Z</time>
      </trkpt>
      <trkpt lat="44.31194" lon="2.97105">
        <ele>785</ele>
        <time>2021-09-04T14:19:45Z</time>
      </trkpt>
      <trkpt lat="44.31237" lon="2.97221">
        <ele>786</ele>
        <time>2021-09-04T14:20:00Z</time>
      </trkpt>
      <trkpt lat="44.3124" lon="2.97241">
        <ele>786</ele>
        <time>2021-09-04T14:20:02Z</time>
      </trkpt>
      <trkpt lat="44.3126" lon="2.97332">
        <ele>782</ele>
        <time>2021-09-04T14:20:10Z</time>
      </trkpt>
      <trkpt lat="44.3126" lon="2.97369">
        <ele>778</ele>
        <time>2021-09-04T14:20:13Z</time>
      </trkpt>
      <trkpt lat="44.31287" lon="2.97571">
        <ele>774</ele>
        <time>2021-09-04T14:20:32Z</time>
      </trkpt>
      <trkpt lat="44.31287" lon="2.97578">
        <ele>774</ele>
        <time>2021-09-04T14:20:33Z</time>
      </trkpt>
      <trkpt lat="44.31293" lon="2.97586">
        <ele>776</ele>
        <time>2021-09-04T14:20:35Z</time>
      </trkpt>
      <trkpt lat="44.31299" lon="2.97588">
        <ele>777</ele>
        <time>2021-09-04T14:20:37Z</time>
      </trkpt>
      <trkpt lat="44.31358" lon="2.97529">
        <ele>774</ele>
        <time>2021-09-04T14:20:50Z</time>
      </trkpt>
      <trkpt lat="44.3137" lon="2.97508">
        <ele>773</ele>
        <time>2021-09-04T14:20:53Z</time>
      </trkpt>
      <trkpt lat="44.31382" lon="2.97455">
        <ele>770</ele>
        <time>2021-09-04T14:20:59Z</time>
      </trkpt>
      <trkpt lat="44.31385" lon="2.97448">
        <ele>769</ele>
        <time>2021-09-04T14:21:00Z</time>
      </trkpt>
      <trkpt lat="44.31389" lon="2.97442">
        <ele>769</ele>
        <time>2021-09-04T14:21:01Z</time>
      </trkpt>
      <trkpt lat="44.31394" lon="2.97437">
        <ele>768</ele>
        <time>2021-09-04T14:21:02Z</time>
      </trkpt>
      <trkpt lat="44.314" lon="2.97434">
        <ele>768</ele>
        <time>2021-09-04T14:21:03Z</time>
      </trkpt>
      <trkpt lat="44.31405" lon="2.97434">
        <ele>767</ele>
        <time>2021-09-04T14:21:04Z</time>
      </trkpt>
      <trkpt lat="44.3141" lon="2.97437">
        <ele>767</ele>
        <time>2021-09-04T14:21:05Z</time>
      </trkpt>
      <trkpt lat="44.31415" lon="2.97444">
        <ele>766</ele>
        <time>2021-09-04T14:21:06Z</time>
      </trkpt>
      <trkpt lat="44.31419" lon="2.97462">
        <ele>766</ele>
        <time>2021-09-04T14:21:08Z</time>
      </trkpt>
      <trkpt lat="44.3142" lon="2.97487">
        <ele>766</ele>
        <time>2021-09-04T14:21:12Z</time>
      </trkpt>
      <trkpt lat="44.31422" lon="2.97498">
        <ele>766</ele>
        <time>2021-09-04T14:21:14Z</time>
      </trkpt>
      <trkpt lat="44.31427" lon="2.97531">
        <ele>764</ele>
        <time>2021-09-04T14:21:22Z</time>
      </trkpt>
      <trkpt lat="44.3143" lon="2.97553">
        <ele>761</ele>
        <time>2021-09-04T14:21:31Z</time>
      </trkpt>
      <trkpt lat="44.31427" lon="2.9757">
        <ele>760</ele>
        <time>2021-09-04T14:21:54Z</time>
      </trkpt>
      <trkpt lat="44.31426" lon="2.97579">
        <ele>761</ele>
        <time>2021-09-04T14:21:56Z</time>
      </trkpt>
      <trkpt lat="44.31426" lon="2.9759">
        <ele>761</ele>
        <time>2021-09-04T14:21:58Z</time>
      </trkpt>
      <trkpt lat="44.31429" lon="2.976">
        <ele>761</ele>
        <time>2021-09-04T14:22:00Z</time>
      </trkpt>
      <trkpt lat="44.31433" lon="2.97603">
        <ele>760</ele>
        <time>2021-09-04T14:22:01Z</time>
      </trkpt>
      <trkpt lat="44.31438" lon="2.97603">
        <ele>760</ele>
        <time>2021-09-04T14:22:02Z</time>
      </trkpt>
      <trkpt lat="44.31443" lon="2.97601">
        <ele>759</ele>
        <time>2021-09-04T14:22:03Z</time>
      </trkpt>
      <trkpt lat="44.31447" lon="2.97597">
        <ele>759</ele>
        <time>2021-09-04T14:22:04Z</time>
      </trkpt>
      <trkpt lat="44.31452" lon="2.97581">
        <ele>758</ele>
        <time>2021-09-04T14:22:07Z</time>
      </trkpt>
      <trkpt lat="44.31479" lon="2.97266">
        <ele>735</ele>
        <time>2021-09-04T14:22:37Z</time>
      </trkpt>
      <trkpt lat="44.31478" lon="2.97244">
        <ele>733</ele>
        <time>2021-09-04T14:22:39Z</time>
      </trkpt>
      <trkpt lat="44.31476" lon="2.97236">
        <ele>732</ele>
        <time>2021-09-04T14:22:40Z</time>
      </trkpt>
      <trkpt lat="44.31474" lon="2.97228">
        <ele>732</ele>
        <time>2021-09-04T14:22:41Z</time>
      </trkpt>
      <trkpt lat="44.31469" lon="2.97221">
        <ele>732</ele>
        <time>2021-09-04T14:22:42Z</time>
      </trkpt>
      <trkpt lat="44.31463" lon="2.97216">
        <ele>732</ele>
        <time>2021-09-04T14:22:43Z</time>
      </trkpt>
      <trkpt lat="44.31456" lon="2.97213">
        <ele>731</ele>
        <time>2021-09-04T14:22:44Z</time>
      </trkpt>
      <trkpt lat="44.31448" lon="2.97213">
        <ele>731</ele>
        <time>2021-09-04T14:22:45Z</time>
      </trkpt>
      <trkpt lat="44.31429" lon="2.97226">
        <ele>728</ele>
        <time>2021-09-04T14:22:48Z</time>
      </trkpt>
      <trkpt lat="44.31425" lon="2.9723">
        <ele>728</ele>
        <time>2021-09-04T14:22:49Z</time>
      </trkpt>
      <trkpt lat="44.31418" lon="2.97236">
        <ele>727</ele>
        <time>2021-09-04T14:22:51Z</time>
      </trkpt>
      <trkpt lat="44.31411" lon="2.97235">
        <ele>726</ele>
        <time>2021-09-04T14:22:53Z</time>
      </trkpt>
      <trkpt lat="44.3141" lon="2.97222">
        <ele>725</ele>
        <time>2021-09-04T14:22:55Z</time>
      </trkpt>
      <trkpt lat="44.31425" lon="2.97205">
        <ele>724</ele>
        <time>2021-09-04T14:22:58Z</time>
      </trkpt>
      <trkpt lat="44.31454" lon="2.97186">
        <ele>722</ele>
        <time>2021-09-04T14:23:02Z</time>
      </trkpt>
      <trkpt lat="44.31471" lon="2.9718">
        <ele>720</ele>
        <time>2021-09-04T14:23:05Z</time>
      </trkpt>
      <trkpt lat="44.31486" lon="2.97184">
        <ele>718</ele>
        <time>2021-09-04T14:23:08Z</time>
      </trkpt>
      <trkpt lat="44.31504" lon="2.97201">
        <ele>714</ele>
        <time>2021-09-04T14:23:11Z</time>
      </trkpt>
      <trkpt lat="44.31553" lon="2.97272">
        <ele>716</ele>
        <time>2021-09-04T14:23:20Z</time>
      </trkpt>
      <trkpt lat="44.31571" lon="2.97294">
        <ele>715</ele>
        <time>2021-09-04T14:23:23Z</time>
      </trkpt>
      <trkpt lat="44.31584" lon="2.97305">
        <ele>712</ele>
        <time>2021-09-04T14:23:25Z</time>
      </trkpt>
      <trkpt lat="44.31616" lon="2.9732">
        <ele>707</ele>
        <time>2021-09-04T14:23:29Z</time>
      </trkpt>
      <trkpt lat="44.31736" lon="2.97338">
        <ele>700</ele>
        <time>2021-09-04T14:23:44Z</time>
      </trkpt>
      <trkpt lat="44.31883" lon="2.97319">
        <ele>687</ele>
        <time>2021-09-04T14:24:17Z</time>
      </trkpt>
      <trkpt lat="44.31894" lon="2.97313">
        <ele>686</ele>
        <time>2021-09-04T14:24:21Z</time>
      </trkpt>
      <trkpt lat="44.31929" lon="2.97286">
        <ele>684</ele>
        <time>2021-09-04T14:24:31Z</time>
      </trkpt>
      <trkpt lat="44.31938" lon="2.97281">
        <ele>683</ele>
        <time>2021-09-04T14:24:33Z</time>
      </trkpt>
      <trkpt lat="44.31969" lon="2.97249">
        <ele>680</ele>
        <time>2021-09-04T14:24:41Z</time>
      </trkpt>
      <trkpt lat="44.32079" lon="2.97106">
        <ele>666</ele>
        <time>2021-09-04T14:25:03Z</time>
      </trkpt>
      <trkpt lat="44.32163" lon="2.9701">
        <ele>661</ele>
        <time>2021-09-04T14:25:20Z</time>
      </trkpt>
      <trkpt lat="44.32261" lon="2.96848">
        <ele>661</ele>
        <time>2021-09-04T14:25:50Z</time>
      </trkpt>
      <trkpt lat="44.32275" lon="2.96826">
        <ele>661</ele>
        <time>2021-09-04T14:25:54Z</time>
      </trkpt>
      <trkpt lat="44.32287" lon="2.96812">
        <ele>661</ele>
        <time>2021-09-04T14:25:57Z</time>
      </trkpt>
      <trkpt lat="44.32308" lon="2.96801">
        <ele>660</ele>
        <time>2021-09-04T14:26:04Z</time>
      </trkpt>
      <trkpt lat="44.32372" lon="2.96779">
        <ele>658</ele>
        <time>2021-09-04T14:26:12Z</time>
      </trkpt>
      <trkpt lat="44.32399" lon="2.96785">
        <ele>657</ele>
        <time>2021-09-04T14:26:16Z</time>
      </trkpt>
      <trkpt lat="44.32431" lon="2.96799">
        <ele>658</ele>
        <time>2021-09-04T14:26:21Z</time>
      </trkpt>
      <trkpt lat="44.32462" lon="2.96799">
        <ele>657</ele>
        <time>2021-09-04T14:26:26Z</time>
      </trkpt>
      <trkpt lat="44.3248" lon="2.96793">
        <ele>656</ele>
        <time>2021-09-04T14:26:29Z</time>
      </trkpt>
      <trkpt lat="44.3254" lon="2.9675">
        <ele>655</ele>
        <time>2021-09-04T14:26:41Z</time>
      </trkpt>
      <trkpt lat="44.32571" lon="2.96741">
        <ele>653</ele>
        <time>2021-09-04T14:26:46Z</time>
      </trkpt>
      <trkpt lat="44.32687" lon="2.96757">
        <ele>649</ele>
        <time>2021-09-04T14:27:04Z</time>
      </trkpt>
      <trkpt lat="44.32733" lon="2.96779">
        <ele>648</ele>
        <time>2021-09-04T14:27:11Z</time>
      </trkpt>
      <trkpt lat="44.32864" lon="2.96875">
        <ele>643</ele>
        <time>2021-09-04T14:27:34Z</time>
      </trkpt>
      <trkpt lat="44.32907" lon="2.96933">
        <ele>643</ele>
        <time>2021-09-04T14:27:45Z</time>
      </trkpt>
      <trkpt lat="44.32917" lon="2.96939">
        <ele>643</ele>
        <time>2021-09-04T14:27:47Z</time>
      </trkpt>
      <trkpt lat="44.32987" lon="2.96956">
        <ele>645</ele>
        <time>2021-09-04T14:28:00Z</time>
      </trkpt>
      <trkpt lat="44.33005" lon="2.96954">
        <ele>645</ele>
        <time>2021-09-04T14:28:04Z</time>
      </trkpt>
      <trkpt lat="44.33022" lon="2.96948">
        <ele>646</ele>
        <time>2021-09-04T14:28:08Z</time>
      </trkpt>
      <trkpt lat="44.3304" lon="2.96931">
        <ele>646</ele>
        <time>2021-09-04T14:28:13Z</time>
      </trkpt>
      <trkpt lat="44.33073" lon="2.96879">
        <ele>647</ele>
        <time>2021-09-04T14:28:26Z</time>
      </trkpt>
      <trkpt lat="44.33085" lon="2.96868">
        <ele>647</ele>
        <time>2021-09-04T14:28:30Z</time>
      </trkpt>
      <trkpt lat="44.33106" lon="2.96861">
        <ele>648</ele>
        <time>2021-09-04T14:28:36Z</time>
      </trkpt>
      <trkpt lat="44.33126" lon="2.96864">
        <ele>648</ele>
        <time>2021-09-04T14:28:42Z</time>
      </trkpt>
      <trkpt lat="44.3319" lon="2.96881">
        <ele>651</ele>
        <time>2021-09-04T14:28:58Z</time>
      </trkpt>
      <trkpt lat="44.33214" lon="2.96883">
        <ele>652</ele>
        <time>2021-09-04T14:29:04Z</time>
      </trkpt>
      <trkpt lat="44.33271" lon="2.96871">
        <ele>649</ele>
        <time>2021-09-04T14:29:16Z</time>
      </trkpt>
      <trkpt lat="44.33362" lon="2.96893">
        <ele>645</ele>
        <time>2021-09-04T14:29:28Z</time>
      </trkpt>
      <trkpt lat="44.33482" lon="2.96944">
        <ele>638</ele>
        <time>2021-09-04T14:29:48Z</time>
      </trkpt>
      <trkpt lat="44.33534" lon="2.96979">
        <ele>638</ele>
        <time>2021-09-04T14:29:58Z</time>
      </trkpt>
      <trkpt lat="44.33668" lon="2.9704">
        <ele>634</ele>
        <time>2021-09-04T14:30:19Z</time>
      </trkpt>
      <trkpt lat="44.33684" lon="2.97043">
        <ele>634</ele>
        <time>2021-09-04T14:30:21Z</time>
      </trkpt>
      <trkpt lat="44.33701" lon="2.97039">
        <ele>633</ele>
        <time>2021-09-04T14:30:23Z</time>
      </trkpt>
      <trkpt lat="44.33742" lon="2.97022">
        <ele>632</ele>
        <time>2021-09-04T14:30:28Z</time>
      </trkpt>
      <trkpt lat="44.33758" lon="2.97018">
        <ele>631</ele>
        <time>2021-09-04T14:30:30Z</time>
      </trkpt>
      <trkpt lat="44.33884" lon="2.97033">
        <ele>629</ele>
        <time>2021-09-04T14:30:54Z</time>
      </trkpt>
      <trkpt lat="44.33888" lon="2.97033">
        <ele>629</ele>
        <time>2021-09-04T14:30:55Z</time>
      </trkpt>
      <trkpt lat="44.3391" lon="2.97021">
        <ele>626</ele>
        <time>2021-09-04T14:31:01Z</time>
      </trkpt>
      <trkpt lat="44.33914" lon="2.97017">
        <ele>625</ele>
        <time>2021-09-04T14:31:03Z</time>
      </trkpt>
      <trkpt lat="44.33923" lon="2.97007">
        <ele>624</ele>
        <time>2021-09-04T14:31:07Z</time>
      </trkpt>
      <trkpt lat="44.33926" lon="2.97">
        <ele>624</ele>
        <time>2021-09-04T14:31:09Z</time>
      </trkpt>
      <trkpt lat="44.33975" lon="2.96908">
        <ele>629</ele>
        <time>2021-09-04T14:31:37Z</time>
      </trkpt>
      <trkpt lat="44.33978" lon="2.96903">
        <ele>628</ele>
        <time>2021-09-04T14:31:39Z</time>
      </trkpt>
      <trkpt lat="44.33983" lon="2.96899">
        <ele>628</ele>
        <time>2021-09-04T14:31:42Z</time>
      </trkpt>
      <trkpt lat="44.34019" lon="2.96918">
        <ele>629</ele>
        <time>2021-09-04T14:32:02Z</time>
      </trkpt>
      <trkpt lat="44.34024" lon="2.96917">
        <ele>630</ele>
        <time>2021-09-04T14:32:05Z</time>
      </trkpt>
      <trkpt lat="44.34028" lon="2.96912">
        <ele>631</ele>
        <time>2021-09-04T14:32:09Z</time>
      </trkpt>
      <trkpt lat="44.34049" lon="2.96916">
        <ele>641</ele>
        <time>2021-09-04T14:33:33Z</time>
      </trkpt>
      <trkpt lat="44.34053" lon="2.96909">
        <ele>642</ele>
        <time>2021-09-04T14:33:37Z</time>
      </trkpt>
      <trkpt lat="44.34044" lon="2.96912">
        <ele>654</ele>
        <time>2021-09-04T14:33:41Z</time>
      </trkpt>
      <trkpt lat="44.34039" lon="2.9691">
        <ele>653</ele>
        <time>2021-09-04T14:34:45Z</time>
      </trkpt>
      <trkpt lat="44.34035" lon="2.96911">
        <ele>652</ele>
        <time>2021-09-04T14:35:51Z</time>
      </trkpt>
      <trkpt lat="44.34031" lon="2.96914">
        <ele>651</ele>
        <time>2021-09-04T14:38:42Z</time>
      </trkpt>
      <trkpt lat="44.34029" lon="2.96908">
        <ele>647</ele>
        <time>2021-09-04T14:51:36Z</time>
      </trkpt>
    </trkseg>
  </trk>
</gpx>